<?xml version="1.0" encoding="UTF-8" standalone="no" ?>
<gpx xmlns="http://www.topografix.com/GPX/1/1" xmlns:xsi="http://www.w3.org/2001/XMLSchema-instance" xsi:schemaLocation="http://www.topografix.com/GPX/1/1 http://www.topografix.com/GPX/1/1/gpx.xsd" version="1.1" creator="VisuGPX - https://www.visugpx.com">
  <metadata>
    <name>suite voyage</name>
  </metadata>
  <trk>
    <name><![CDATA[T13]]></name>
    <trkseg>
      <trkpt lat="49.40333" lon="-1.78047">
        <ele>85.1</ele>
        <time>2020-06-14T16:24:10Z</time>
      </trkpt>
      <trkpt lat="49.40334" lon="-1.78045">
        <ele>85.1</ele>
        <time>2020-06-14T16:24:11Z</time>
      </trkpt>
      <trkpt lat="49.40335" lon="-1.78044">
        <ele>85</ele>
        <time>2020-06-14T16:24:12Z</time>
      </trkpt>
      <trkpt lat="49.40335" lon="-1.78043">
        <ele>85</ele>
        <time>2020-06-14T16:24:13Z</time>
      </trkpt>
      <trkpt lat="49.40337" lon="-1.78044">
        <ele>85</ele>
        <time>2020-06-14T16:24:14Z</time>
      </trkpt>
      <trkpt lat="49.40339" lon="-1.78045">
        <ele>84.9</ele>
        <time>2020-06-14T16:24:15Z</time>
      </trkpt>
      <trkpt lat="49.4034" lon="-1.78046">
        <ele>84.9</ele>
        <time>2020-06-14T16:24:16Z</time>
      </trkpt>
      <trkpt lat="49.40342" lon="-1.78047">
        <ele>84.9</ele>
        <time>2020-06-14T16:24:17Z</time>
      </trkpt>
      <trkpt lat="49.40343" lon="-1.78048">
        <ele>84.8</ele>
        <time>2020-06-14T16:24:18Z</time>
      </trkpt>
      <trkpt lat="49.40345" lon="-1.78049">
        <ele>84.8</ele>
        <time>2020-06-14T16:24:19Z</time>
      </trkpt>
      <trkpt lat="49.40346" lon="-1.7805">
        <ele>84.7</ele>
        <time>2020-06-14T16:24:20Z</time>
      </trkpt>
      <trkpt lat="49.40348" lon="-1.78051">
        <ele>84.7</ele>
        <time>2020-06-14T16:35:30Z</time>
      </trkpt>
      <trkpt lat="49.4035" lon="-1.78052">
        <ele>84.6</ele>
        <time>2020-06-14T16:35:31Z</time>
      </trkpt>
      <trkpt lat="49.40353" lon="-1.78056">
        <ele>84.5</ele>
        <time>2020-06-14T16:35:32Z</time>
      </trkpt>
      <trkpt lat="49.40354" lon="-1.78057">
        <ele>84.4</ele>
        <time>2020-06-14T16:35:33Z</time>
      </trkpt>
      <trkpt lat="49.40357" lon="-1.78059">
        <ele>84.3</ele>
        <time>2020-06-14T16:35:34Z</time>
      </trkpt>
      <trkpt lat="49.4036" lon="-1.78062">
        <ele>84.2</ele>
        <time>2020-06-14T16:35:35Z</time>
      </trkpt>
      <trkpt lat="49.40363" lon="-1.78066">
        <ele>84.1</ele>
        <time>2020-06-14T16:35:36Z</time>
      </trkpt>
      <trkpt lat="49.40365" lon="-1.78069">
        <ele>83.9</ele>
        <time>2020-06-14T16:35:37Z</time>
      </trkpt>
      <trkpt lat="49.40368" lon="-1.78073">
        <ele>83.7</ele>
        <time>2020-06-14T16:35:38Z</time>
      </trkpt>
      <trkpt lat="49.40371" lon="-1.78078">
        <ele>83.5</ele>
        <time>2020-06-14T16:35:39Z</time>
      </trkpt>
      <trkpt lat="49.40374" lon="-1.78081">
        <ele>83.4</ele>
        <time>2020-06-14T16:35:40Z</time>
      </trkpt>
      <trkpt lat="49.40378" lon="-1.78086">
        <ele>83.2</ele>
        <time>2020-06-14T16:35:41Z</time>
      </trkpt>
      <trkpt lat="49.40381" lon="-1.7809">
        <ele>83</ele>
        <time>2020-06-14T16:35:42Z</time>
      </trkpt>
      <trkpt lat="49.40386" lon="-1.78095">
        <ele>82.8</ele>
        <time>2020-06-14T16:35:43Z</time>
      </trkpt>
      <trkpt lat="49.4039" lon="-1.781">
        <ele>82.6</ele>
        <time>2020-06-14T16:35:44Z</time>
      </trkpt>
      <trkpt lat="49.40394" lon="-1.78105">
        <ele>82.4</ele>
        <time>2020-06-14T16:35:45Z</time>
      </trkpt>
      <trkpt lat="49.40398" lon="-1.7811">
        <ele>82.1</ele>
        <time>2020-06-14T16:35:46Z</time>
      </trkpt>
      <trkpt lat="49.40403" lon="-1.78116">
        <ele>81.9</ele>
        <time>2020-06-14T16:35:47Z</time>
      </trkpt>
      <trkpt lat="49.40407" lon="-1.78122">
        <ele>81.7</ele>
        <time>2020-06-14T16:35:48Z</time>
      </trkpt>
      <trkpt lat="49.40411" lon="-1.78127">
        <ele>81.6</ele>
        <time>2020-06-14T16:35:49Z</time>
      </trkpt>
      <trkpt lat="49.40415" lon="-1.78132">
        <ele>81.4</ele>
        <time>2020-06-14T16:35:50Z</time>
      </trkpt>
      <trkpt lat="49.40419" lon="-1.78137">
        <ele>81.2</ele>
        <time>2020-06-14T16:35:51Z</time>
      </trkpt>
      <trkpt lat="49.40423" lon="-1.78142">
        <ele>80.9</ele>
        <time>2020-06-14T16:35:52Z</time>
      </trkpt>
      <trkpt lat="49.40427" lon="-1.78148">
        <ele>80.7</ele>
        <time>2020-06-14T16:35:53Z</time>
      </trkpt>
      <trkpt lat="49.40431" lon="-1.78154">
        <ele>80.4</ele>
        <time>2020-06-14T16:35:54Z</time>
      </trkpt>
      <trkpt lat="49.40435" lon="-1.78159">
        <ele>80.2</ele>
        <time>2020-06-14T16:35:55Z</time>
      </trkpt>
      <trkpt lat="49.40439" lon="-1.78163">
        <ele>79.9</ele>
        <time>2020-06-14T16:35:56Z</time>
      </trkpt>
      <trkpt lat="49.40442" lon="-1.78168">
        <ele>79.7</ele>
        <time>2020-06-14T16:35:57Z</time>
      </trkpt>
      <trkpt lat="49.40444" lon="-1.78172">
        <ele>79.6</ele>
        <time>2020-06-14T16:35:58Z</time>
      </trkpt>
      <trkpt lat="49.40447" lon="-1.78176">
        <ele>79.4</ele>
        <time>2020-06-14T16:35:59Z</time>
      </trkpt>
      <trkpt lat="49.40451" lon="-1.78181">
        <ele>79.2</ele>
        <time>2020-06-14T16:36:00Z</time>
      </trkpt>
      <trkpt lat="49.40455" lon="-1.78186">
        <ele>79</ele>
        <time>2020-06-14T16:36:01Z</time>
      </trkpt>
      <trkpt lat="49.40459" lon="-1.78191">
        <ele>78.8</ele>
        <time>2020-06-14T16:36:02Z</time>
      </trkpt>
      <trkpt lat="49.40464" lon="-1.78197">
        <ele>78.6</ele>
        <time>2020-06-14T16:36:03Z</time>
      </trkpt>
      <trkpt lat="49.40469" lon="-1.78204">
        <ele>78.4</ele>
        <time>2020-06-14T16:36:04Z</time>
      </trkpt>
      <trkpt lat="49.40474" lon="-1.7821">
        <ele>78.2</ele>
        <time>2020-06-14T16:36:05Z</time>
      </trkpt>
      <trkpt lat="49.40479" lon="-1.78215">
        <ele>78</ele>
        <time>2020-06-14T16:36:06Z</time>
      </trkpt>
      <trkpt lat="49.40484" lon="-1.78219">
        <ele>77.9</ele>
        <time>2020-06-14T16:36:07Z</time>
      </trkpt>
      <trkpt lat="49.40489" lon="-1.78225">
        <ele>77.7</ele>
        <time>2020-06-14T16:36:08Z</time>
      </trkpt>
      <trkpt lat="49.40493" lon="-1.7823">
        <ele>77.6</ele>
        <time>2020-06-14T16:36:09Z</time>
      </trkpt>
      <trkpt lat="49.40498" lon="-1.78236">
        <ele>77.4</ele>
        <time>2020-06-14T16:36:10Z</time>
      </trkpt>
      <trkpt lat="49.40504" lon="-1.78241">
        <ele>77.2</ele>
        <time>2020-06-14T16:36:11Z</time>
      </trkpt>
      <trkpt lat="49.40507" lon="-1.78245">
        <ele>77.1</ele>
        <time>2020-06-14T16:36:12Z</time>
      </trkpt>
      <trkpt lat="49.40512" lon="-1.78251">
        <ele>76.9</ele>
        <time>2020-06-14T16:36:13Z</time>
      </trkpt>
      <trkpt lat="49.40515" lon="-1.78257">
        <ele>76.8</ele>
        <time>2020-06-14T16:36:14Z</time>
      </trkpt>
      <trkpt lat="49.40517" lon="-1.78263">
        <ele>76.7</ele>
        <time>2020-06-14T16:36:15Z</time>
      </trkpt>
      <trkpt lat="49.40515" lon="-1.7827">
        <ele>76.8</ele>
        <time>2020-06-14T16:36:16Z</time>
      </trkpt>
      <trkpt lat="49.40511" lon="-1.78277">
        <ele>76.9</ele>
        <time>2020-06-14T16:36:17Z</time>
      </trkpt>
      <trkpt lat="49.40506" lon="-1.78284">
        <ele>76.9</ele>
        <time>2020-06-14T16:36:18Z</time>
      </trkpt>
      <trkpt lat="49.40502" lon="-1.7829">
        <ele>76.9</ele>
        <time>2020-06-14T16:36:19Z</time>
      </trkpt>
      <trkpt lat="49.40498" lon="-1.78295">
        <ele>76.9</ele>
        <time>2020-06-14T16:36:20Z</time>
      </trkpt>
      <trkpt lat="49.40495" lon="-1.78298">
        <ele>76.9</ele>
        <time>2020-06-14T16:36:21Z</time>
      </trkpt>
      <trkpt lat="49.4049" lon="-1.78304">
        <ele>77</ele>
        <time>2020-06-14T16:36:22Z</time>
      </trkpt>
      <trkpt lat="49.40486" lon="-1.78307">
        <ele>77</ele>
        <time>2020-06-14T16:36:23Z</time>
      </trkpt>
      <trkpt lat="49.40482" lon="-1.78312">
        <ele>77</ele>
        <time>2020-06-14T16:36:24Z</time>
      </trkpt>
      <trkpt lat="49.40479" lon="-1.78317">
        <ele>77.1</ele>
        <time>2020-06-14T16:36:25Z</time>
      </trkpt>
      <trkpt lat="49.40475" lon="-1.78322">
        <ele>77.2</ele>
        <time>2020-06-14T16:36:26Z</time>
      </trkpt>
      <trkpt lat="49.40472" lon="-1.78328">
        <ele>77.3</ele>
        <time>2020-06-14T16:36:27Z</time>
      </trkpt>
      <trkpt lat="49.4047" lon="-1.78333">
        <ele>77.5</ele>
        <time>2020-06-14T16:36:28Z</time>
      </trkpt>
      <trkpt lat="49.40469" lon="-1.78339">
        <ele>77.6</ele>
        <time>2020-06-14T16:36:29Z</time>
      </trkpt>
      <trkpt lat="49.40469" lon="-1.78344">
        <ele>77.7</ele>
        <time>2020-06-14T16:36:30Z</time>
      </trkpt>
      <trkpt lat="49.40471" lon="-1.78348">
        <ele>77.9</ele>
        <time>2020-06-14T16:36:31Z</time>
      </trkpt>
      <trkpt lat="49.40474" lon="-1.78352">
        <ele>77.8</ele>
        <time>2020-06-14T16:36:32Z</time>
      </trkpt>
      <trkpt lat="49.40476" lon="-1.78353">
        <ele>77.7</ele>
        <time>2020-06-14T16:36:33Z</time>
      </trkpt>
      <trkpt lat="49.40481" lon="-1.78355">
        <ele>77.5</ele>
        <time>2020-06-14T16:36:34Z</time>
      </trkpt>
      <trkpt lat="49.40486" lon="-1.78356">
        <ele>77.3</ele>
        <time>2020-06-14T16:36:35Z</time>
      </trkpt>
      <trkpt lat="49.40491" lon="-1.78357">
        <ele>77.1</ele>
        <time>2020-06-14T16:36:36Z</time>
      </trkpt>
      <trkpt lat="49.40496" lon="-1.78358">
        <ele>76.9</ele>
        <time>2020-06-14T16:36:37Z</time>
      </trkpt>
      <trkpt lat="49.40502" lon="-1.78358">
        <ele>76.7</ele>
        <time>2020-06-14T16:36:38Z</time>
      </trkpt>
      <trkpt lat="49.40507" lon="-1.78357">
        <ele>76.5</ele>
        <time>2020-06-14T16:36:39Z</time>
      </trkpt>
      <trkpt lat="49.40512" lon="-1.78358">
        <ele>76.4</ele>
        <time>2020-06-14T16:36:40Z</time>
      </trkpt>
      <trkpt lat="49.40518" lon="-1.78359">
        <ele>76.2</ele>
        <time>2020-06-14T16:36:41Z</time>
      </trkpt>
      <trkpt lat="49.40524" lon="-1.7836">
        <ele>76.1</ele>
        <time>2020-06-14T16:36:42Z</time>
      </trkpt>
      <trkpt lat="49.40531" lon="-1.78361">
        <ele>75.9</ele>
        <time>2020-06-14T16:36:43Z</time>
      </trkpt>
      <trkpt lat="49.40537" lon="-1.78361">
        <ele>75.8</ele>
        <time>2020-06-14T16:36:44Z</time>
      </trkpt>
      <trkpt lat="49.40543" lon="-1.78361">
        <ele>75.7</ele>
        <time>2020-06-14T16:36:45Z</time>
      </trkpt>
      <trkpt lat="49.40548" lon="-1.78363">
        <ele>75.6</ele>
        <time>2020-06-14T16:36:46Z</time>
      </trkpt>
      <trkpt lat="49.40554" lon="-1.78363">
        <ele>75.5</ele>
        <time>2020-06-14T16:36:47Z</time>
      </trkpt>
      <trkpt lat="49.4056" lon="-1.78363">
        <ele>75.4</ele>
        <time>2020-06-14T16:36:48Z</time>
      </trkpt>
      <trkpt lat="49.40566" lon="-1.78363">
        <ele>75.3</ele>
        <time>2020-06-14T16:36:49Z</time>
      </trkpt>
      <trkpt lat="49.40572" lon="-1.78364">
        <ele>75.2</ele>
        <time>2020-06-14T16:36:50Z</time>
      </trkpt>
      <trkpt lat="49.40578" lon="-1.78364">
        <ele>75.2</ele>
        <time>2020-06-14T16:36:51Z</time>
      </trkpt>
      <trkpt lat="49.40584" lon="-1.78364">
        <ele>75.1</ele>
        <time>2020-06-14T16:36:52Z</time>
      </trkpt>
      <trkpt lat="49.40591" lon="-1.78364">
        <ele>75</ele>
        <time>2020-06-14T16:36:53Z</time>
      </trkpt>
      <trkpt lat="49.40597" lon="-1.78364">
        <ele>75</ele>
        <time>2020-06-14T16:36:54Z</time>
      </trkpt>
      <trkpt lat="49.40603" lon="-1.78364">
        <ele>75</ele>
        <time>2020-06-14T16:36:55Z</time>
      </trkpt>
      <trkpt lat="49.40609" lon="-1.78364">
        <ele>75</ele>
        <time>2020-06-14T16:36:56Z</time>
      </trkpt>
      <trkpt lat="49.40615" lon="-1.78364">
        <ele>75</ele>
        <time>2020-06-14T16:36:57Z</time>
      </trkpt>
      <trkpt lat="49.40621" lon="-1.78364">
        <ele>75</ele>
        <time>2020-06-14T16:36:58Z</time>
      </trkpt>
      <trkpt lat="49.40627" lon="-1.78363">
        <ele>75</ele>
        <time>2020-06-14T16:36:59Z</time>
      </trkpt>
      <trkpt lat="49.40633" lon="-1.78363">
        <ele>74.9</ele>
        <time>2020-06-14T16:37:00Z</time>
      </trkpt>
      <trkpt lat="49.4064" lon="-1.78363">
        <ele>74.9</ele>
        <time>2020-06-14T16:37:01Z</time>
      </trkpt>
      <trkpt lat="49.40645" lon="-1.78363">
        <ele>74.9</ele>
        <time>2020-06-14T16:37:02Z</time>
      </trkpt>
      <trkpt lat="49.40651" lon="-1.78363">
        <ele>74.9</ele>
        <time>2020-06-14T16:37:03Z</time>
      </trkpt>
      <trkpt lat="49.40657" lon="-1.78364">
        <ele>74.9</ele>
        <time>2020-06-14T16:37:04Z</time>
      </trkpt>
      <trkpt lat="49.40663" lon="-1.78364">
        <ele>75</ele>
        <time>2020-06-14T16:37:05Z</time>
      </trkpt>
      <trkpt lat="49.40669" lon="-1.78363">
        <ele>75</ele>
        <time>2020-06-14T16:37:06Z</time>
      </trkpt>
      <trkpt lat="49.40675" lon="-1.78363">
        <ele>75</ele>
        <time>2020-06-14T16:37:07Z</time>
      </trkpt>
      <trkpt lat="49.40681" lon="-1.78363">
        <ele>75.1</ele>
        <time>2020-06-14T16:37:08Z</time>
      </trkpt>
      <trkpt lat="49.40687" lon="-1.78362">
        <ele>75.1</ele>
        <time>2020-06-14T16:37:09Z</time>
      </trkpt>
      <trkpt lat="49.40693" lon="-1.78362">
        <ele>75.1</ele>
        <time>2020-06-14T16:37:10Z</time>
      </trkpt>
      <trkpt lat="49.40698" lon="-1.78361">
        <ele>75.2</ele>
        <time>2020-06-14T16:37:11Z</time>
      </trkpt>
      <trkpt lat="49.40704" lon="-1.78361">
        <ele>75.2</ele>
        <time>2020-06-14T16:37:12Z</time>
      </trkpt>
      <trkpt lat="49.4071" lon="-1.7836">
        <ele>75.3</ele>
        <time>2020-06-14T16:37:13Z</time>
      </trkpt>
      <trkpt lat="49.40715" lon="-1.7836">
        <ele>75.3</ele>
        <time>2020-06-14T16:37:14Z</time>
      </trkpt>
      <trkpt lat="49.40722" lon="-1.7836">
        <ele>75.4</ele>
        <time>2020-06-14T16:37:15Z</time>
      </trkpt>
      <trkpt lat="49.40728" lon="-1.7836">
        <ele>75.4</ele>
        <time>2020-06-14T16:37:16Z</time>
      </trkpt>
      <trkpt lat="49.40734" lon="-1.7836">
        <ele>75.4</ele>
        <time>2020-06-14T16:37:17Z</time>
      </trkpt>
      <trkpt lat="49.40741" lon="-1.7836">
        <ele>75.5</ele>
        <time>2020-06-14T16:37:18Z</time>
      </trkpt>
      <trkpt lat="49.40746" lon="-1.7836">
        <ele>75.5</ele>
        <time>2020-06-14T16:37:19Z</time>
      </trkpt>
      <trkpt lat="49.40753" lon="-1.78359">
        <ele>75.6</ele>
        <time>2020-06-14T16:37:20Z</time>
      </trkpt>
      <trkpt lat="49.40757" lon="-1.78358">
        <ele>75.6</ele>
        <time>2020-06-14T16:37:21Z</time>
      </trkpt>
      <trkpt lat="49.40762" lon="-1.78358">
        <ele>75.6</ele>
        <time>2020-06-14T16:37:22Z</time>
      </trkpt>
      <trkpt lat="49.40768" lon="-1.78358">
        <ele>75.7</ele>
        <time>2020-06-14T16:37:23Z</time>
      </trkpt>
      <trkpt lat="49.40773" lon="-1.78358">
        <ele>75.8</ele>
        <time>2020-06-14T16:37:24Z</time>
      </trkpt>
      <trkpt lat="49.40779" lon="-1.78359">
        <ele>75.8</ele>
        <time>2020-06-14T16:37:25Z</time>
      </trkpt>
      <trkpt lat="49.40785" lon="-1.7836">
        <ele>75.9</ele>
        <time>2020-06-14T16:37:26Z</time>
      </trkpt>
      <trkpt lat="49.4079" lon="-1.78359">
        <ele>75.9</ele>
        <time>2020-06-14T16:37:27Z</time>
      </trkpt>
      <trkpt lat="49.40797" lon="-1.78359">
        <ele>75.9</ele>
        <time>2020-06-14T16:37:28Z</time>
      </trkpt>
      <trkpt lat="49.40802" lon="-1.78358">
        <ele>75.9</ele>
        <time>2020-06-14T16:37:29Z</time>
      </trkpt>
      <trkpt lat="49.40808" lon="-1.78358">
        <ele>76</ele>
        <time>2020-06-14T16:37:30Z</time>
      </trkpt>
      <trkpt lat="49.40814" lon="-1.78357">
        <ele>76</ele>
        <time>2020-06-14T16:37:31Z</time>
      </trkpt>
      <trkpt lat="49.4082" lon="-1.78356">
        <ele>76.1</ele>
        <time>2020-06-14T16:37:32Z</time>
      </trkpt>
      <trkpt lat="49.40827" lon="-1.78355">
        <ele>76.2</ele>
        <time>2020-06-14T16:37:33Z</time>
      </trkpt>
      <trkpt lat="49.40833" lon="-1.78355">
        <ele>76.3</ele>
        <time>2020-06-14T16:37:34Z</time>
      </trkpt>
      <trkpt lat="49.40839" lon="-1.78354">
        <ele>76.3</ele>
        <time>2020-06-14T16:37:35Z</time>
      </trkpt>
      <trkpt lat="49.40845" lon="-1.78354">
        <ele>76.4</ele>
        <time>2020-06-14T16:37:36Z</time>
      </trkpt>
      <trkpt lat="49.40851" lon="-1.78353">
        <ele>76.5</ele>
        <time>2020-06-14T16:37:37Z</time>
      </trkpt>
      <trkpt lat="49.40856" lon="-1.78353">
        <ele>76.5</ele>
        <time>2020-06-14T16:37:38Z</time>
      </trkpt>
      <trkpt lat="49.4086" lon="-1.78352">
        <ele>76.6</ele>
        <time>2020-06-14T16:37:39Z</time>
      </trkpt>
      <trkpt lat="49.40863" lon="-1.78352">
        <ele>76.6</ele>
        <time>2020-06-14T16:37:40Z</time>
      </trkpt>
      <trkpt lat="49.40867" lon="-1.78352">
        <ele>76.6</ele>
        <time>2020-06-14T16:37:41Z</time>
      </trkpt>
      <trkpt lat="49.40871" lon="-1.78352">
        <ele>76.7</ele>
        <time>2020-06-14T16:37:42Z</time>
      </trkpt>
      <trkpt lat="49.40875" lon="-1.78352">
        <ele>76.7</ele>
        <time>2020-06-14T16:37:43Z</time>
      </trkpt>
      <trkpt lat="49.40878" lon="-1.78351">
        <ele>76.7</ele>
        <time>2020-06-14T16:37:44Z</time>
      </trkpt>
      <trkpt lat="49.40881" lon="-1.78352">
        <ele>76.8</ele>
        <time>2020-06-14T16:37:45Z</time>
      </trkpt>
      <trkpt lat="49.40883" lon="-1.7836">
        <ele>76.8</ele>
        <time>2020-06-14T16:37:46Z</time>
      </trkpt>
      <trkpt lat="49.40882" lon="-1.78368">
        <ele>76.9</ele>
        <time>2020-06-14T16:37:47Z</time>
      </trkpt>
      <trkpt lat="49.40883" lon="-1.78374">
        <ele>77</ele>
        <time>2020-06-14T16:37:48Z</time>
      </trkpt>
      <trkpt lat="49.40883" lon="-1.78381">
        <ele>77</ele>
        <time>2020-06-14T16:37:49Z</time>
      </trkpt>
      <trkpt lat="49.40883" lon="-1.78386">
        <ele>77.1</ele>
        <time>2020-06-14T16:37:50Z</time>
      </trkpt>
      <trkpt lat="49.40884" lon="-1.78392">
        <ele>77.1</ele>
        <time>2020-06-14T16:37:51Z</time>
      </trkpt>
      <trkpt lat="49.40884" lon="-1.78396">
        <ele>77.1</ele>
        <time>2020-06-14T16:37:52Z</time>
      </trkpt>
      <trkpt lat="49.40885" lon="-1.78401">
        <ele>77.1</ele>
        <time>2020-06-14T16:37:53Z</time>
      </trkpt>
      <trkpt lat="49.40884" lon="-1.78406">
        <ele>77.2</ele>
        <time>2020-06-14T16:37:54Z</time>
      </trkpt>
      <trkpt lat="49.40884" lon="-1.78407">
        <ele>77.2</ele>
        <time>2020-06-14T16:37:55Z</time>
      </trkpt>
      <trkpt lat="49.40884" lon="-1.78412">
        <ele>77.2</ele>
        <time>2020-06-14T16:37:56Z</time>
      </trkpt>
      <trkpt lat="49.40884" lon="-1.78415">
        <ele>77.2</ele>
        <time>2020-06-14T16:37:57Z</time>
      </trkpt>
      <trkpt lat="49.40884" lon="-1.7842">
        <ele>77.3</ele>
        <time>2020-06-14T16:37:58Z</time>
      </trkpt>
      <trkpt lat="49.40885" lon="-1.78419">
        <ele>77.3</ele>
        <time>2020-06-14T16:37:59Z</time>
      </trkpt>
      <trkpt lat="49.40884" lon="-1.78424">
        <ele>77.3</ele>
        <time>2020-06-14T16:38:00Z</time>
      </trkpt>
      <trkpt lat="49.40883" lon="-1.78427">
        <ele>77.4</ele>
        <time>2020-06-14T16:38:01Z</time>
      </trkpt>
      <trkpt lat="49.40882" lon="-1.78429">
        <ele>77.4</ele>
        <time>2020-06-14T16:38:02Z</time>
      </trkpt>
      <trkpt lat="49.40879" lon="-1.78433">
        <ele>77.4</ele>
        <time>2020-06-14T16:38:03Z</time>
      </trkpt>
      <trkpt lat="49.40877" lon="-1.78438">
        <ele>77.5</ele>
        <time>2020-06-14T16:38:04Z</time>
      </trkpt>
      <trkpt lat="49.40875" lon="-1.78443">
        <ele>77.5</ele>
        <time>2020-06-14T16:38:05Z</time>
      </trkpt>
      <trkpt lat="49.40872" lon="-1.78449">
        <ele>77.6</ele>
        <time>2020-06-14T16:38:06Z</time>
      </trkpt>
      <trkpt lat="49.40869" lon="-1.78455">
        <ele>77.6</ele>
        <time>2020-06-14T16:38:07Z</time>
      </trkpt>
      <trkpt lat="49.40866" lon="-1.78462">
        <ele>77.6</ele>
        <time>2020-06-14T16:38:08Z</time>
      </trkpt>
      <trkpt lat="49.40862" lon="-1.78469">
        <ele>77.7</ele>
        <time>2020-06-14T16:38:09Z</time>
      </trkpt>
      <trkpt lat="49.40859" lon="-1.78477">
        <ele>77.8</ele>
        <time>2020-06-14T16:38:10Z</time>
      </trkpt>
      <trkpt lat="49.40855" lon="-1.78483">
        <ele>77.8</ele>
        <time>2020-06-14T16:38:11Z</time>
      </trkpt>
      <trkpt lat="49.40851" lon="-1.78492">
        <ele>78</ele>
        <time>2020-06-14T16:38:12Z</time>
      </trkpt>
      <trkpt lat="49.40847" lon="-1.78499">
        <ele>78.1</ele>
        <time>2020-06-14T16:38:13Z</time>
      </trkpt>
      <trkpt lat="49.40843" lon="-1.78505">
        <ele>78.2</ele>
        <time>2020-06-14T16:38:14Z</time>
      </trkpt>
      <trkpt lat="49.40839" lon="-1.78513">
        <ele>78.3</ele>
        <time>2020-06-14T16:38:15Z</time>
      </trkpt>
      <trkpt lat="49.40835" lon="-1.78521">
        <ele>78.4</ele>
        <time>2020-06-14T16:38:16Z</time>
      </trkpt>
      <trkpt lat="49.40831" lon="-1.78528">
        <ele>78.5</ele>
        <time>2020-06-14T16:38:17Z</time>
      </trkpt>
      <trkpt lat="49.40827" lon="-1.78536">
        <ele>78.6</ele>
        <time>2020-06-14T16:38:18Z</time>
      </trkpt>
      <trkpt lat="49.40823" lon="-1.78542">
        <ele>78.6</ele>
        <time>2020-06-14T16:38:19Z</time>
      </trkpt>
      <trkpt lat="49.4082" lon="-1.78548">
        <ele>78.6</ele>
        <time>2020-06-14T16:38:20Z</time>
      </trkpt>
      <trkpt lat="49.40817" lon="-1.78553">
        <ele>78.6</ele>
        <time>2020-06-14T16:38:21Z</time>
      </trkpt>
      <trkpt lat="49.40814" lon="-1.78559">
        <ele>78.7</ele>
        <time>2020-06-14T16:38:22Z</time>
      </trkpt>
      <trkpt lat="49.40812" lon="-1.78564">
        <ele>78.7</ele>
        <time>2020-06-14T16:38:23Z</time>
      </trkpt>
      <trkpt lat="49.40809" lon="-1.78571">
        <ele>78.7</ele>
        <time>2020-06-14T16:38:24Z</time>
      </trkpt>
      <trkpt lat="49.40806" lon="-1.78578">
        <ele>78.7</ele>
        <time>2020-06-14T16:38:25Z</time>
      </trkpt>
      <trkpt lat="49.40804" lon="-1.78584">
        <ele>78.7</ele>
        <time>2020-06-14T16:38:26Z</time>
      </trkpt>
      <trkpt lat="49.40803" lon="-1.78589">
        <ele>78.7</ele>
        <time>2020-06-14T16:38:27Z</time>
      </trkpt>
      <trkpt lat="49.408" lon="-1.78594">
        <ele>78.7</ele>
        <time>2020-06-14T16:38:28Z</time>
      </trkpt>
      <trkpt lat="49.40797" lon="-1.78601">
        <ele>78.8</ele>
        <time>2020-06-14T16:38:29Z</time>
      </trkpt>
      <trkpt lat="49.40794" lon="-1.78608">
        <ele>78.8</ele>
        <time>2020-06-14T16:38:30Z</time>
      </trkpt>
      <trkpt lat="49.40792" lon="-1.78613">
        <ele>78.8</ele>
        <time>2020-06-14T16:38:31Z</time>
      </trkpt>
      <trkpt lat="49.4079" lon="-1.78616">
        <ele>78.8</ele>
        <time>2020-06-14T16:38:32Z</time>
      </trkpt>
      <trkpt lat="49.40789" lon="-1.78621">
        <ele>78.8</ele>
        <time>2020-06-14T16:38:33Z</time>
      </trkpt>
      <trkpt lat="49.40788" lon="-1.78627">
        <ele>78.8</ele>
        <time>2020-06-14T16:38:34Z</time>
      </trkpt>
      <trkpt lat="49.4079" lon="-1.78634">
        <ele>78.7</ele>
        <time>2020-06-14T16:38:35Z</time>
      </trkpt>
      <trkpt lat="49.40792" lon="-1.7864">
        <ele>78.7</ele>
        <time>2020-06-14T16:38:36Z</time>
      </trkpt>
      <trkpt lat="49.40795" lon="-1.78648">
        <ele>78.6</ele>
        <time>2020-06-14T16:38:37Z</time>
      </trkpt>
      <trkpt lat="49.40798" lon="-1.78656">
        <ele>78.6</ele>
        <time>2020-06-14T16:38:38Z</time>
      </trkpt>
      <trkpt lat="49.408" lon="-1.78663">
        <ele>78.5</ele>
        <time>2020-06-14T16:38:39Z</time>
      </trkpt>
      <trkpt lat="49.40803" lon="-1.7867">
        <ele>78.5</ele>
        <time>2020-06-14T16:38:40Z</time>
      </trkpt>
      <trkpt lat="49.40806" lon="-1.78677">
        <ele>78.5</ele>
        <time>2020-06-14T16:38:41Z</time>
      </trkpt>
      <trkpt lat="49.40809" lon="-1.78683">
        <ele>78.5</ele>
        <time>2020-06-14T16:38:42Z</time>
      </trkpt>
      <trkpt lat="49.40811" lon="-1.78688">
        <ele>78.5</ele>
        <time>2020-06-14T16:38:43Z</time>
      </trkpt>
      <trkpt lat="49.40814" lon="-1.78693">
        <ele>78.5</ele>
        <time>2020-06-14T16:38:44Z</time>
      </trkpt>
      <trkpt lat="49.40817" lon="-1.78699">
        <ele>78.5</ele>
        <time>2020-06-14T16:38:45Z</time>
      </trkpt>
      <trkpt lat="49.4082" lon="-1.78704">
        <ele>78.4</ele>
        <time>2020-06-14T16:38:46Z</time>
      </trkpt>
      <trkpt lat="49.40824" lon="-1.78709">
        <ele>78.4</ele>
        <time>2020-06-14T16:38:47Z</time>
      </trkpt>
      <trkpt lat="49.40828" lon="-1.78712">
        <ele>78.4</ele>
        <time>2020-06-14T16:38:48Z</time>
      </trkpt>
      <trkpt lat="49.40832" lon="-1.78714">
        <ele>78.4</ele>
        <time>2020-06-14T16:38:49Z</time>
      </trkpt>
      <trkpt lat="49.40838" lon="-1.78713">
        <ele>78.4</ele>
        <time>2020-06-14T16:38:50Z</time>
      </trkpt>
      <trkpt lat="49.40842" lon="-1.78713">
        <ele>78.4</ele>
        <time>2020-06-14T16:38:51Z</time>
      </trkpt>
      <trkpt lat="49.40848" lon="-1.78713">
        <ele>78.4</ele>
        <time>2020-06-14T16:38:52Z</time>
      </trkpt>
      <trkpt lat="49.40852" lon="-1.78713">
        <ele>78.4</ele>
        <time>2020-06-14T16:38:53Z</time>
      </trkpt>
      <trkpt lat="49.40856" lon="-1.78713">
        <ele>78.4</ele>
        <time>2020-06-14T16:38:54Z</time>
      </trkpt>
      <trkpt lat="49.4086" lon="-1.78712">
        <ele>78.4</ele>
        <time>2020-06-14T16:38:55Z</time>
      </trkpt>
      <trkpt lat="49.40864" lon="-1.78712">
        <ele>78.4</ele>
        <time>2020-06-14T16:38:56Z</time>
      </trkpt>
      <trkpt lat="49.40868" lon="-1.78712">
        <ele>78.4</ele>
        <time>2020-06-14T16:38:57Z</time>
      </trkpt>
      <trkpt lat="49.40871" lon="-1.78712">
        <ele>78.4</ele>
        <time>2020-06-14T16:38:58Z</time>
      </trkpt>
      <trkpt lat="49.40876" lon="-1.78713">
        <ele>78.4</ele>
        <time>2020-06-14T16:38:59Z</time>
      </trkpt>
      <trkpt lat="49.4088" lon="-1.78714">
        <ele>78.3</ele>
        <time>2020-06-14T16:39:00Z</time>
      </trkpt>
      <trkpt lat="49.40884" lon="-1.78714">
        <ele>78.3</ele>
        <time>2020-06-14T16:39:01Z</time>
      </trkpt>
      <trkpt lat="49.40888" lon="-1.78715">
        <ele>78.3</ele>
        <time>2020-06-14T16:39:02Z</time>
      </trkpt>
      <trkpt lat="49.40893" lon="-1.78716">
        <ele>78.2</ele>
        <time>2020-06-14T16:39:03Z</time>
      </trkpt>
      <trkpt lat="49.40898" lon="-1.78717">
        <ele>78.2</ele>
        <time>2020-06-14T16:39:04Z</time>
      </trkpt>
      <trkpt lat="49.40904" lon="-1.7872">
        <ele>78.1</ele>
        <time>2020-06-14T16:39:05Z</time>
      </trkpt>
      <trkpt lat="49.40908" lon="-1.78723">
        <ele>78</ele>
        <time>2020-06-14T16:39:06Z</time>
      </trkpt>
      <trkpt lat="49.40912" lon="-1.78727">
        <ele>77.9</ele>
        <time>2020-06-14T16:39:07Z</time>
      </trkpt>
      <trkpt lat="49.40916" lon="-1.78731">
        <ele>77.8</ele>
        <time>2020-06-14T16:39:08Z</time>
      </trkpt>
      <trkpt lat="49.40921" lon="-1.78734">
        <ele>77.7</ele>
        <time>2020-06-14T16:39:09Z</time>
      </trkpt>
      <trkpt lat="49.40925" lon="-1.78737">
        <ele>77.6</ele>
        <time>2020-06-14T16:39:10Z</time>
      </trkpt>
      <trkpt lat="49.40929" lon="-1.78741">
        <ele>77.5</ele>
        <time>2020-06-14T16:39:11Z</time>
      </trkpt>
      <trkpt lat="49.40933" lon="-1.78744">
        <ele>77.4</ele>
        <time>2020-06-14T16:39:12Z</time>
      </trkpt>
      <trkpt lat="49.40937" lon="-1.78747">
        <ele>77.4</ele>
        <time>2020-06-14T16:39:13Z</time>
      </trkpt>
      <trkpt lat="49.40941" lon="-1.78751">
        <ele>77.4</ele>
        <time>2020-06-14T16:39:14Z</time>
      </trkpt>
      <trkpt lat="49.40946" lon="-1.78753">
        <ele>77.4</ele>
        <time>2020-06-14T16:39:15Z</time>
      </trkpt>
      <trkpt lat="49.40951" lon="-1.78756">
        <ele>77.3</ele>
        <time>2020-06-14T16:39:16Z</time>
      </trkpt>
      <trkpt lat="49.40955" lon="-1.78758">
        <ele>77.1</ele>
        <time>2020-06-14T16:39:17Z</time>
      </trkpt>
      <trkpt lat="49.40961" lon="-1.7876">
        <ele>76.9</ele>
        <time>2020-06-14T16:39:18Z</time>
      </trkpt>
      <trkpt lat="49.40967" lon="-1.78762">
        <ele>76.7</ele>
        <time>2020-06-14T16:39:19Z</time>
      </trkpt>
      <trkpt lat="49.40972" lon="-1.78764">
        <ele>76.5</ele>
        <time>2020-06-14T16:39:20Z</time>
      </trkpt>
      <trkpt lat="49.40976" lon="-1.78765">
        <ele>76.3</ele>
        <time>2020-06-14T16:39:21Z</time>
      </trkpt>
      <trkpt lat="49.40981" lon="-1.78766">
        <ele>76.1</ele>
        <time>2020-06-14T16:39:22Z</time>
      </trkpt>
      <trkpt lat="49.40986" lon="-1.78768">
        <ele>76</ele>
        <time>2020-06-14T16:39:23Z</time>
      </trkpt>
      <trkpt lat="49.40991" lon="-1.78769">
        <ele>75.8</ele>
        <time>2020-06-14T16:39:24Z</time>
      </trkpt>
      <trkpt lat="49.40997" lon="-1.78772">
        <ele>75.6</ele>
        <time>2020-06-14T16:39:25Z</time>
      </trkpt>
      <trkpt lat="49.41001" lon="-1.78774">
        <ele>75.4</ele>
        <time>2020-06-14T16:39:26Z</time>
      </trkpt>
      <trkpt lat="49.41004" lon="-1.78776">
        <ele>75.3</ele>
        <time>2020-06-14T16:39:27Z</time>
      </trkpt>
      <trkpt lat="49.41007" lon="-1.7878">
        <ele>75.2</ele>
        <time>2020-06-14T16:39:28Z</time>
      </trkpt>
      <trkpt lat="49.41009" lon="-1.78782">
        <ele>75.1</ele>
        <time>2020-06-14T16:39:29Z</time>
      </trkpt>
      <trkpt lat="49.41012" lon="-1.78786">
        <ele>75</ele>
        <time>2020-06-14T16:39:30Z</time>
      </trkpt>
      <trkpt lat="49.41014" lon="-1.78791">
        <ele>74.9</ele>
        <time>2020-06-14T16:39:31Z</time>
      </trkpt>
      <trkpt lat="49.41015" lon="-1.78797">
        <ele>74.8</ele>
        <time>2020-06-14T16:39:32Z</time>
      </trkpt>
      <trkpt lat="49.41016" lon="-1.78804">
        <ele>74.6</ele>
        <time>2020-06-14T16:39:33Z</time>
      </trkpt>
      <trkpt lat="49.41016" lon="-1.7881">
        <ele>74.4</ele>
        <time>2020-06-14T16:39:34Z</time>
      </trkpt>
      <trkpt lat="49.41016" lon="-1.78817">
        <ele>74.3</ele>
        <time>2020-06-14T16:39:35Z</time>
      </trkpt>
      <trkpt lat="49.41016" lon="-1.78822">
        <ele>74.1</ele>
        <time>2020-06-14T16:39:36Z</time>
      </trkpt>
      <trkpt lat="49.41017" lon="-1.78829">
        <ele>73.9</ele>
        <time>2020-06-14T16:39:37Z</time>
      </trkpt>
      <trkpt lat="49.41018" lon="-1.78834">
        <ele>73.8</ele>
        <time>2020-06-14T16:39:38Z</time>
      </trkpt>
      <trkpt lat="49.41019" lon="-1.7884">
        <ele>73.5</ele>
        <time>2020-06-14T16:39:39Z</time>
      </trkpt>
      <trkpt lat="49.41022" lon="-1.78845">
        <ele>73.3</ele>
        <time>2020-06-14T16:39:40Z</time>
      </trkpt>
      <trkpt lat="49.41026" lon="-1.78849">
        <ele>73</ele>
        <time>2020-06-14T16:39:41Z</time>
      </trkpt>
      <trkpt lat="49.41031" lon="-1.78851">
        <ele>72.7</ele>
        <time>2020-06-14T16:39:42Z</time>
      </trkpt>
      <trkpt lat="49.41035" lon="-1.78853">
        <ele>72.5</ele>
        <time>2020-06-14T16:39:43Z</time>
      </trkpt>
      <trkpt lat="49.41039" lon="-1.78854">
        <ele>72.2</ele>
        <time>2020-06-14T16:39:44Z</time>
      </trkpt>
      <trkpt lat="49.41044" lon="-1.78855">
        <ele>71.9</ele>
        <time>2020-06-14T16:39:45Z</time>
      </trkpt>
      <trkpt lat="49.41048" lon="-1.78855">
        <ele>71.6</ele>
        <time>2020-06-14T16:39:46Z</time>
      </trkpt>
      <trkpt lat="49.41052" lon="-1.78856">
        <ele>71.3</ele>
        <time>2020-06-14T16:39:47Z</time>
      </trkpt>
      <trkpt lat="49.41056" lon="-1.78856">
        <ele>71.1</ele>
        <time>2020-06-14T16:39:48Z</time>
      </trkpt>
      <trkpt lat="49.41059" lon="-1.78857">
        <ele>70.9</ele>
        <time>2020-06-14T16:39:49Z</time>
      </trkpt>
      <trkpt lat="49.41064" lon="-1.78859">
        <ele>70.6</ele>
        <time>2020-06-14T16:39:50Z</time>
      </trkpt>
      <trkpt lat="49.41068" lon="-1.78861">
        <ele>70.4</ele>
        <time>2020-06-14T16:39:51Z</time>
      </trkpt>
      <trkpt lat="49.41071" lon="-1.78864">
        <ele>70.2</ele>
        <time>2020-06-14T16:39:52Z</time>
      </trkpt>
      <trkpt lat="49.41075" lon="-1.78869">
        <ele>69.9</ele>
        <time>2020-06-14T16:39:53Z</time>
      </trkpt>
      <trkpt lat="49.41079" lon="-1.78875">
        <ele>69.7</ele>
        <time>2020-06-14T16:39:54Z</time>
      </trkpt>
      <trkpt lat="49.41084" lon="-1.78882">
        <ele>69.3</ele>
        <time>2020-06-14T16:39:55Z</time>
      </trkpt>
      <trkpt lat="49.41088" lon="-1.78889">
        <ele>69</ele>
        <time>2020-06-14T16:39:56Z</time>
      </trkpt>
      <trkpt lat="49.41091" lon="-1.78895">
        <ele>68.8</ele>
        <time>2020-06-14T16:39:57Z</time>
      </trkpt>
      <trkpt lat="49.41093" lon="-1.789">
        <ele>68.6</ele>
        <time>2020-06-14T16:39:58Z</time>
      </trkpt>
      <trkpt lat="49.41096" lon="-1.78904">
        <ele>68.4</ele>
        <time>2020-06-14T16:39:59Z</time>
      </trkpt>
      <trkpt lat="49.41098" lon="-1.78909">
        <ele>68.2</ele>
        <time>2020-06-14T16:40:00Z</time>
      </trkpt>
      <trkpt lat="49.41101" lon="-1.78913">
        <ele>68</ele>
        <time>2020-06-14T16:40:01Z</time>
      </trkpt>
      <trkpt lat="49.41105" lon="-1.78918">
        <ele>67.8</ele>
        <time>2020-06-14T16:40:02Z</time>
      </trkpt>
      <trkpt lat="49.41107" lon="-1.78923">
        <ele>67.5</ele>
        <time>2020-06-14T16:40:03Z</time>
      </trkpt>
      <trkpt lat="49.4111" lon="-1.78928">
        <ele>67.3</ele>
        <time>2020-06-14T16:40:04Z</time>
      </trkpt>
      <trkpt lat="49.41113" lon="-1.78933">
        <ele>67.1</ele>
        <time>2020-06-14T16:40:05Z</time>
      </trkpt>
      <trkpt lat="49.41117" lon="-1.78937">
        <ele>66.8</ele>
        <time>2020-06-14T16:40:06Z</time>
      </trkpt>
      <trkpt lat="49.4112" lon="-1.78942">
        <ele>66.6</ele>
        <time>2020-06-14T16:40:07Z</time>
      </trkpt>
      <trkpt lat="49.41124" lon="-1.78947">
        <ele>66.3</ele>
        <time>2020-06-14T16:40:08Z</time>
      </trkpt>
      <trkpt lat="49.41126" lon="-1.78952">
        <ele>66.1</ele>
        <time>2020-06-14T16:40:09Z</time>
      </trkpt>
      <trkpt lat="49.41128" lon="-1.78956">
        <ele>65.9</ele>
        <time>2020-06-14T16:40:10Z</time>
      </trkpt>
      <trkpt lat="49.4113" lon="-1.7896">
        <ele>65.6</ele>
        <time>2020-06-14T16:40:11Z</time>
      </trkpt>
      <trkpt lat="49.41133" lon="-1.78965">
        <ele>65.3</ele>
        <time>2020-06-14T16:40:12Z</time>
      </trkpt>
      <trkpt lat="49.41136" lon="-1.7897">
        <ele>64.9</ele>
        <time>2020-06-14T16:40:13Z</time>
      </trkpt>
      <trkpt lat="49.41139" lon="-1.78976">
        <ele>64.4</ele>
        <time>2020-06-14T16:40:14Z</time>
      </trkpt>
      <trkpt lat="49.41142" lon="-1.78982">
        <ele>63.9</ele>
        <time>2020-06-14T16:40:15Z</time>
      </trkpt>
      <trkpt lat="49.41146" lon="-1.7899">
        <ele>63.2</ele>
        <time>2020-06-14T16:40:16Z</time>
      </trkpt>
      <trkpt lat="49.41149" lon="-1.79">
        <ele>62.4</ele>
        <time>2020-06-14T16:40:17Z</time>
      </trkpt>
      <trkpt lat="49.41154" lon="-1.79008">
        <ele>61.5</ele>
        <time>2020-06-14T16:40:18Z</time>
      </trkpt>
      <trkpt lat="49.4116" lon="-1.79017">
        <ele>60.5</ele>
        <time>2020-06-14T16:40:19Z</time>
      </trkpt>
      <trkpt lat="49.41167" lon="-1.79026">
        <ele>59.3</ele>
        <time>2020-06-14T16:40:20Z</time>
      </trkpt>
      <trkpt lat="49.41174" lon="-1.79035">
        <ele>58.2</ele>
        <time>2020-06-14T16:40:21Z</time>
      </trkpt>
      <trkpt lat="49.41181" lon="-1.79042">
        <ele>57.1</ele>
        <time>2020-06-14T16:40:22Z</time>
      </trkpt>
      <trkpt lat="49.41187" lon="-1.79049">
        <ele>56.1</ele>
        <time>2020-06-14T16:40:23Z</time>
      </trkpt>
      <trkpt lat="49.41194" lon="-1.79055">
        <ele>55.2</ele>
        <time>2020-06-14T16:40:24Z</time>
      </trkpt>
      <trkpt lat="49.41202" lon="-1.79062">
        <ele>54.2</ele>
        <time>2020-06-14T16:40:25Z</time>
      </trkpt>
      <trkpt lat="49.41209" lon="-1.79068">
        <ele>53.2</ele>
        <time>2020-06-14T16:40:26Z</time>
      </trkpt>
      <trkpt lat="49.41217" lon="-1.79075">
        <ele>52.3</ele>
        <time>2020-06-14T16:40:27Z</time>
      </trkpt>
      <trkpt lat="49.41225" lon="-1.79085">
        <ele>51.4</ele>
        <time>2020-06-14T16:40:28Z</time>
      </trkpt>
      <trkpt lat="49.41232" lon="-1.79096">
        <ele>50.6</ele>
        <time>2020-06-14T16:40:29Z</time>
      </trkpt>
      <trkpt lat="49.41236" lon="-1.79109">
        <ele>50</ele>
        <time>2020-06-14T16:40:30Z</time>
      </trkpt>
      <trkpt lat="49.41239" lon="-1.79122">
        <ele>49.4</ele>
        <time>2020-06-14T16:40:31Z</time>
      </trkpt>
      <trkpt lat="49.41241" lon="-1.79135">
        <ele>48.9</ele>
        <time>2020-06-14T16:40:32Z</time>
      </trkpt>
      <trkpt lat="49.41242" lon="-1.79149">
        <ele>48.5</ele>
        <time>2020-06-14T16:40:33Z</time>
      </trkpt>
      <trkpt lat="49.41241" lon="-1.79161">
        <ele>48.1</ele>
        <time>2020-06-14T16:40:34Z</time>
      </trkpt>
      <trkpt lat="49.4124" lon="-1.79174">
        <ele>47.8</ele>
        <time>2020-06-14T16:40:35Z</time>
      </trkpt>
      <trkpt lat="49.41238" lon="-1.79185">
        <ele>47.4</ele>
        <time>2020-06-14T16:40:36Z</time>
      </trkpt>
      <trkpt lat="49.41236" lon="-1.79197">
        <ele>47</ele>
        <time>2020-06-14T16:40:37Z</time>
      </trkpt>
      <trkpt lat="49.41235" lon="-1.79209">
        <ele>46.6</ele>
        <time>2020-06-14T16:40:38Z</time>
      </trkpt>
      <trkpt lat="49.41234" lon="-1.79222">
        <ele>46.1</ele>
        <time>2020-06-14T16:40:39Z</time>
      </trkpt>
      <trkpt lat="49.41234" lon="-1.79236">
        <ele>45.6</ele>
        <time>2020-06-14T16:40:40Z</time>
      </trkpt>
      <trkpt lat="49.41235" lon="-1.79251">
        <ele>45</ele>
        <time>2020-06-14T16:40:41Z</time>
      </trkpt>
      <trkpt lat="49.41237" lon="-1.79266">
        <ele>44.5</ele>
        <time>2020-06-14T16:40:42Z</time>
      </trkpt>
      <trkpt lat="49.4124" lon="-1.79281">
        <ele>43.9</ele>
        <time>2020-06-14T16:40:43Z</time>
      </trkpt>
      <trkpt lat="49.41242" lon="-1.79296">
        <ele>43.3</ele>
        <time>2020-06-14T16:40:44Z</time>
      </trkpt>
      <trkpt lat="49.41245" lon="-1.79311">
        <ele>42.8</ele>
        <time>2020-06-14T16:40:45Z</time>
      </trkpt>
      <trkpt lat="49.4125" lon="-1.79325">
        <ele>42.3</ele>
        <time>2020-06-14T16:40:46Z</time>
      </trkpt>
      <trkpt lat="49.41255" lon="-1.79339">
        <ele>41.8</ele>
        <time>2020-06-14T16:40:47Z</time>
      </trkpt>
      <trkpt lat="49.4126" lon="-1.79352">
        <ele>41.5</ele>
        <time>2020-06-14T16:40:48Z</time>
      </trkpt>
      <trkpt lat="49.41264" lon="-1.79367">
        <ele>41.2</ele>
        <time>2020-06-14T16:40:49Z</time>
      </trkpt>
      <trkpt lat="49.41271" lon="-1.79377">
        <ele>41</ele>
        <time>2020-06-14T16:40:50Z</time>
      </trkpt>
      <trkpt lat="49.41279" lon="-1.79387">
        <ele>40.8</ele>
        <time>2020-06-14T16:40:51Z</time>
      </trkpt>
      <trkpt lat="49.41284" lon="-1.79399">
        <ele>40.7</ele>
        <time>2020-06-14T16:40:52Z</time>
      </trkpt>
      <trkpt lat="49.4129" lon="-1.7941">
        <ele>40.6</ele>
        <time>2020-06-14T16:40:53Z</time>
      </trkpt>
      <trkpt lat="49.41296" lon="-1.79422">
        <ele>40.5</ele>
        <time>2020-06-14T16:40:54Z</time>
      </trkpt>
      <trkpt lat="49.41303" lon="-1.79432">
        <ele>40.4</ele>
        <time>2020-06-14T16:40:55Z</time>
      </trkpt>
      <trkpt lat="49.41309" lon="-1.79442">
        <ele>40.4</ele>
        <time>2020-06-14T16:40:56Z</time>
      </trkpt>
      <trkpt lat="49.41315" lon="-1.79451">
        <ele>40.3</ele>
        <time>2020-06-14T16:40:57Z</time>
      </trkpt>
      <trkpt lat="49.41321" lon="-1.7946">
        <ele>40.2</ele>
        <time>2020-06-14T16:40:58Z</time>
      </trkpt>
      <trkpt lat="49.41327" lon="-1.79469">
        <ele>40.1</ele>
        <time>2020-06-14T16:40:59Z</time>
      </trkpt>
      <trkpt lat="49.41333" lon="-1.79477">
        <ele>40.1</ele>
        <time>2020-06-14T16:41:00Z</time>
      </trkpt>
      <trkpt lat="49.41338" lon="-1.79486">
        <ele>40</ele>
        <time>2020-06-14T16:41:01Z</time>
      </trkpt>
      <trkpt lat="49.41343" lon="-1.79495">
        <ele>39.8</ele>
        <time>2020-06-14T16:41:02Z</time>
      </trkpt>
      <trkpt lat="49.41349" lon="-1.79502">
        <ele>39.5</ele>
        <time>2020-06-14T16:41:03Z</time>
      </trkpt>
      <trkpt lat="49.41354" lon="-1.79511">
        <ele>39.1</ele>
        <time>2020-06-14T16:41:04Z</time>
      </trkpt>
      <trkpt lat="49.41358" lon="-1.79521">
        <ele>38.6</ele>
        <time>2020-06-14T16:41:05Z</time>
      </trkpt>
      <trkpt lat="49.41364" lon="-1.79532">
        <ele>37.8</ele>
        <time>2020-06-14T16:41:06Z</time>
      </trkpt>
      <trkpt lat="49.4137" lon="-1.79542">
        <ele>36.9</ele>
        <time>2020-06-14T16:41:07Z</time>
      </trkpt>
      <trkpt lat="49.41376" lon="-1.79553">
        <ele>35.9</ele>
        <time>2020-06-14T16:41:08Z</time>
      </trkpt>
      <trkpt lat="49.41381" lon="-1.79565">
        <ele>34.7</ele>
        <time>2020-06-14T16:41:09Z</time>
      </trkpt>
      <trkpt lat="49.41387" lon="-1.79576">
        <ele>33.6</ele>
        <time>2020-06-14T16:41:10Z</time>
      </trkpt>
      <trkpt lat="49.41393" lon="-1.79586">
        <ele>32.5</ele>
        <time>2020-06-14T16:41:11Z</time>
      </trkpt>
      <trkpt lat="49.414" lon="-1.79596">
        <ele>31.5</ele>
        <time>2020-06-14T16:41:12Z</time>
      </trkpt>
      <trkpt lat="49.41408" lon="-1.79605">
        <ele>30.7</ele>
        <time>2020-06-14T16:41:13Z</time>
      </trkpt>
      <trkpt lat="49.41416" lon="-1.79614">
        <ele>30</ele>
        <time>2020-06-14T16:41:14Z</time>
      </trkpt>
      <trkpt lat="49.41424" lon="-1.79622">
        <ele>29.6</ele>
        <time>2020-06-14T16:41:15Z</time>
      </trkpt>
      <trkpt lat="49.41433" lon="-1.79632">
        <ele>29.2</ele>
        <time>2020-06-14T16:41:16Z</time>
      </trkpt>
      <trkpt lat="49.4144" lon="-1.79642">
        <ele>29</ele>
        <time>2020-06-14T16:41:17Z</time>
      </trkpt>
      <trkpt lat="49.41448" lon="-1.7965">
        <ele>29</ele>
        <time>2020-06-14T16:41:18Z</time>
      </trkpt>
      <trkpt lat="49.41455" lon="-1.79656">
        <ele>29</ele>
        <time>2020-06-14T16:41:19Z</time>
      </trkpt>
      <trkpt lat="49.41463" lon="-1.79661">
        <ele>29</ele>
        <time>2020-06-14T16:41:20Z</time>
      </trkpt>
      <trkpt lat="49.41469" lon="-1.79665">
        <ele>29.1</ele>
        <time>2020-06-14T16:41:21Z</time>
      </trkpt>
      <trkpt lat="49.41474" lon="-1.79668">
        <ele>29.1</ele>
        <time>2020-06-14T16:41:22Z</time>
      </trkpt>
      <trkpt lat="49.41478" lon="-1.7967">
        <ele>29.1</ele>
        <time>2020-06-14T16:41:23Z</time>
      </trkpt>
      <trkpt lat="49.41481" lon="-1.79672">
        <ele>29.2</ele>
        <time>2020-06-14T16:41:24Z</time>
      </trkpt>
      <trkpt lat="49.41484" lon="-1.79673">
        <ele>29.2</ele>
        <time>2020-06-14T16:41:25Z</time>
      </trkpt>
      <trkpt lat="49.41486" lon="-1.79675">
        <ele>29.3</ele>
        <time>2020-06-14T16:41:26Z</time>
      </trkpt>
      <trkpt lat="49.41488" lon="-1.79672">
        <ele>29.3</ele>
        <time>2020-06-14T16:41:27Z</time>
      </trkpt>
      <trkpt lat="49.41489" lon="-1.79672">
        <ele>29.3</ele>
        <time>2020-06-14T16:41:28Z</time>
      </trkpt>
      <trkpt lat="49.41489" lon="-1.79672">
        <ele>29.3</ele>
        <time>2020-06-14T16:41:29Z</time>
      </trkpt>
      <trkpt lat="49.41488" lon="-1.79672">
        <ele>29.3</ele>
        <time>2020-06-14T16:41:30Z</time>
      </trkpt>
      <trkpt lat="49.41489" lon="-1.79672">
        <ele>29.3</ele>
        <time>2020-06-14T16:41:31Z</time>
      </trkpt>
      <trkpt lat="49.41489" lon="-1.79671">
        <ele>29.4</ele>
        <time>2020-06-14T16:41:32Z</time>
      </trkpt>
      <trkpt lat="49.4149" lon="-1.7967">
        <ele>29.4</ele>
        <time>2020-06-14T16:41:33Z</time>
      </trkpt>
      <trkpt lat="49.41489" lon="-1.7967">
        <ele>29.4</ele>
        <time>2020-06-14T16:41:34Z</time>
      </trkpt>
      <trkpt lat="49.4149" lon="-1.79671">
        <ele>29.4</ele>
        <time>2020-06-14T16:41:35Z</time>
      </trkpt>
      <trkpt lat="49.4149" lon="-1.79671">
        <ele>29.4</ele>
        <time>2020-06-14T16:41:36Z</time>
      </trkpt>
      <trkpt lat="49.4149" lon="-1.79671">
        <ele>29.4</ele>
        <time>2020-06-14T16:41:37Z</time>
      </trkpt>
      <trkpt lat="49.41489" lon="-1.79673">
        <ele>29.4</ele>
        <time>2020-06-14T16:41:38Z</time>
      </trkpt>
      <trkpt lat="49.41489" lon="-1.79672">
        <ele>29.4</ele>
        <time>2020-06-14T16:41:39Z</time>
      </trkpt>
      <trkpt lat="49.41489" lon="-1.79673">
        <ele>29.4</ele>
        <time>2020-06-14T16:41:40Z</time>
      </trkpt>
      <trkpt lat="49.41489" lon="-1.79673">
        <ele>29.4</ele>
        <time>2020-06-14T16:41:41Z</time>
      </trkpt>
      <trkpt lat="49.41488" lon="-1.79673">
        <ele>29.4</ele>
        <time>2020-06-14T16:41:42Z</time>
      </trkpt>
      <trkpt lat="49.41488" lon="-1.79672">
        <ele>29.4</ele>
        <time>2020-06-14T16:41:43Z</time>
      </trkpt>
      <trkpt lat="49.41488" lon="-1.79672">
        <ele>29.4</ele>
        <time>2020-06-14T16:41:44Z</time>
      </trkpt>
      <trkpt lat="49.41488" lon="-1.79672">
        <ele>29.4</ele>
        <time>2020-06-14T16:41:45Z</time>
      </trkpt>
      <trkpt lat="49.41493" lon="-1.7968">
        <ele>29.5</ele>
        <time>2020-06-14T16:42:06Z</time>
      </trkpt>
      <trkpt lat="49.41494" lon="-1.79681">
        <ele>29.5</ele>
        <time>2020-06-14T16:42:07Z</time>
      </trkpt>
      <trkpt lat="49.41497" lon="-1.79685">
        <ele>29.6</ele>
        <time>2020-06-14T16:42:08Z</time>
      </trkpt>
      <trkpt lat="49.41498" lon="-1.79686">
        <ele>29.6</ele>
        <time>2020-06-14T16:42:09Z</time>
      </trkpt>
      <trkpt lat="49.41502" lon="-1.79689">
        <ele>29.7</ele>
        <time>2020-06-14T16:42:10Z</time>
      </trkpt>
      <trkpt lat="49.41503" lon="-1.7969">
        <ele>29.8</ele>
        <time>2020-06-14T16:42:11Z</time>
      </trkpt>
      <trkpt lat="49.41505" lon="-1.79691">
        <ele>29.9</ele>
        <time>2020-06-14T16:42:12Z</time>
      </trkpt>
      <trkpt lat="49.41508" lon="-1.79693">
        <ele>30</ele>
        <time>2020-06-14T16:42:13Z</time>
      </trkpt>
      <trkpt lat="49.41511" lon="-1.79696">
        <ele>30.1</ele>
        <time>2020-06-14T16:42:14Z</time>
      </trkpt>
      <trkpt lat="49.41514" lon="-1.79697">
        <ele>30.2</ele>
        <time>2020-06-14T16:42:15Z</time>
      </trkpt>
      <trkpt lat="49.41518" lon="-1.79696">
        <ele>30.5</ele>
        <time>2020-06-14T16:42:16Z</time>
      </trkpt>
      <trkpt lat="49.41521" lon="-1.79698">
        <ele>30.7</ele>
        <time>2020-06-14T16:42:17Z</time>
      </trkpt>
      <trkpt lat="49.41524" lon="-1.79697">
        <ele>30.9</ele>
        <time>2020-06-14T16:42:18Z</time>
      </trkpt>
      <trkpt lat="49.41528" lon="-1.79697">
        <ele>31.6</ele>
        <time>2020-06-14T16:42:19Z</time>
      </trkpt>
      <trkpt lat="49.41529" lon="-1.79697">
        <ele>31.8</ele>
        <time>2020-06-14T16:42:20Z</time>
      </trkpt>
      <trkpt lat="49.41532" lon="-1.79695">
        <ele>32.3</ele>
        <time>2020-06-14T16:42:21Z</time>
      </trkpt>
      <trkpt lat="49.41533" lon="-1.79695">
        <ele>32.4</ele>
        <time>2020-06-14T16:42:22Z</time>
      </trkpt>
      <trkpt lat="49.41536" lon="-1.79691">
        <ele>32.8</ele>
        <time>2020-06-14T16:42:23Z</time>
      </trkpt>
      <trkpt lat="49.41536" lon="-1.7969">
        <ele>32.9</ele>
        <time>2020-06-14T16:42:24Z</time>
      </trkpt>
      <trkpt lat="49.41538" lon="-1.79687">
        <ele>33.2</ele>
        <time>2020-06-14T16:42:25Z</time>
      </trkpt>
      <trkpt lat="49.41541" lon="-1.79684">
        <ele>33.5</ele>
        <time>2020-06-14T16:42:26Z</time>
      </trkpt>
      <trkpt lat="49.41544" lon="-1.79681">
        <ele>33.7</ele>
        <time>2020-06-14T16:42:27Z</time>
      </trkpt>
      <trkpt lat="49.41547" lon="-1.79678">
        <ele>34</ele>
        <time>2020-06-14T16:42:28Z</time>
      </trkpt>
      <trkpt lat="49.41549" lon="-1.79675">
        <ele>34.3</ele>
        <time>2020-06-14T16:42:29Z</time>
      </trkpt>
      <trkpt lat="49.41553" lon="-1.79674">
        <ele>34.5</ele>
        <time>2020-06-14T16:42:30Z</time>
      </trkpt>
      <trkpt lat="49.41557" lon="-1.79675">
        <ele>34.9</ele>
        <time>2020-06-14T16:42:31Z</time>
      </trkpt>
      <trkpt lat="49.41558" lon="-1.79675">
        <ele>35</ele>
        <time>2020-06-14T16:42:32Z</time>
      </trkpt>
      <trkpt lat="49.41561" lon="-1.79673">
        <ele>35.3</ele>
        <time>2020-06-14T16:42:33Z</time>
      </trkpt>
      <trkpt lat="49.41564" lon="-1.79672">
        <ele>35.5</ele>
        <time>2020-06-14T16:42:34Z</time>
      </trkpt>
      <trkpt lat="49.41568" lon="-1.79671">
        <ele>35.9</ele>
        <time>2020-06-14T16:42:35Z</time>
      </trkpt>
      <trkpt lat="49.41572" lon="-1.79668">
        <ele>36.3</ele>
        <time>2020-06-14T16:42:36Z</time>
      </trkpt>
      <trkpt lat="49.41574" lon="-1.79667">
        <ele>36.4</ele>
        <time>2020-06-14T16:42:37Z</time>
      </trkpt>
      <trkpt lat="49.41577" lon="-1.79665">
        <ele>36.7</ele>
        <time>2020-06-14T16:42:38Z</time>
      </trkpt>
      <trkpt lat="49.4158" lon="-1.79664">
        <ele>37</ele>
        <time>2020-06-14T16:42:39Z</time>
      </trkpt>
      <trkpt lat="49.41581" lon="-1.79664">
        <ele>37.1</ele>
        <time>2020-06-14T16:42:40Z</time>
      </trkpt>
      <trkpt lat="49.41584" lon="-1.79663">
        <ele>37.4</ele>
        <time>2020-06-14T16:42:41Z</time>
      </trkpt>
      <trkpt lat="49.41587" lon="-1.79662">
        <ele>37.7</ele>
        <time>2020-06-14T16:42:42Z</time>
      </trkpt>
      <trkpt lat="49.4159" lon="-1.79661">
        <ele>38.1</ele>
        <time>2020-06-14T16:42:43Z</time>
      </trkpt>
      <trkpt lat="49.41594" lon="-1.79662">
        <ele>38.4</ele>
        <time>2020-06-14T16:42:44Z</time>
      </trkpt>
      <trkpt lat="49.41595" lon="-1.79662">
        <ele>38.5</ele>
        <time>2020-06-14T16:42:45Z</time>
      </trkpt>
      <trkpt lat="49.41596" lon="-1.79664">
        <ele>38.7</ele>
        <time>2020-06-14T16:42:46Z</time>
      </trkpt>
      <trkpt lat="49.41597" lon="-1.79664">
        <ele>38.9</ele>
        <time>2020-06-14T16:42:47Z</time>
      </trkpt>
      <trkpt lat="49.41599" lon="-1.79665">
        <ele>39.1</ele>
        <time>2020-06-14T16:42:48Z</time>
      </trkpt>
      <trkpt lat="49.41601" lon="-1.79665">
        <ele>39.2</ele>
        <time>2020-06-14T16:42:49Z</time>
      </trkpt>
      <trkpt lat="49.41602" lon="-1.79665">
        <ele>39.4</ele>
        <time>2020-06-14T16:42:50Z</time>
      </trkpt>
      <trkpt lat="49.41604" lon="-1.79665">
        <ele>39.6</ele>
        <time>2020-06-14T16:42:51Z</time>
      </trkpt>
      <trkpt lat="49.41606" lon="-1.79666">
        <ele>39.9</ele>
        <time>2020-06-14T16:42:52Z</time>
      </trkpt>
      <trkpt lat="49.41607" lon="-1.79666">
        <ele>40</ele>
        <time>2020-06-14T16:42:53Z</time>
      </trkpt>
      <trkpt lat="49.41609" lon="-1.79666">
        <ele>40.2</ele>
        <time>2020-06-14T16:42:54Z</time>
      </trkpt>
      <trkpt lat="49.4161" lon="-1.79666">
        <ele>40.4</ele>
        <time>2020-06-14T16:42:55Z</time>
      </trkpt>
      <trkpt lat="49.41613" lon="-1.79667">
        <ele>40.7</ele>
        <time>2020-06-14T16:42:56Z</time>
      </trkpt>
      <trkpt lat="49.41614" lon="-1.79668">
        <ele>40.9</ele>
        <time>2020-06-14T16:42:57Z</time>
      </trkpt>
      <trkpt lat="49.41617" lon="-1.79669">
        <ele>41.3</ele>
        <time>2020-06-14T16:42:58Z</time>
      </trkpt>
      <trkpt lat="49.4162" lon="-1.7967">
        <ele>41.6</ele>
        <time>2020-06-14T16:42:59Z</time>
      </trkpt>
      <trkpt lat="49.41621" lon="-1.79671">
        <ele>41.7</ele>
        <time>2020-06-14T16:43:00Z</time>
      </trkpt>
      <trkpt lat="49.41624" lon="-1.79672">
        <ele>42.1</ele>
        <time>2020-06-14T16:43:01Z</time>
      </trkpt>
      <trkpt lat="49.41625" lon="-1.79672">
        <ele>42.2</ele>
        <time>2020-06-14T16:43:02Z</time>
      </trkpt>
      <trkpt lat="49.41628" lon="-1.79672">
        <ele>42.5</ele>
        <time>2020-06-14T16:43:03Z</time>
      </trkpt>
      <trkpt lat="49.41629" lon="-1.79671">
        <ele>42.6</ele>
        <time>2020-06-14T16:43:04Z</time>
      </trkpt>
      <trkpt lat="49.41633" lon="-1.79671">
        <ele>43.1</ele>
        <time>2020-06-14T16:43:05Z</time>
      </trkpt>
      <trkpt lat="49.41635" lon="-1.79671">
        <ele>43.3</ele>
        <time>2020-06-14T16:43:06Z</time>
      </trkpt>
      <trkpt lat="49.41639" lon="-1.79672">
        <ele>43.7</ele>
        <time>2020-06-14T16:43:07Z</time>
      </trkpt>
      <trkpt lat="49.41641" lon="-1.79673">
        <ele>43.8</ele>
        <time>2020-06-14T16:43:08Z</time>
      </trkpt>
      <trkpt lat="49.41644" lon="-1.79674">
        <ele>44.2</ele>
        <time>2020-06-14T16:43:09Z</time>
      </trkpt>
      <trkpt lat="49.41645" lon="-1.79675">
        <ele>44.3</ele>
        <time>2020-06-14T16:43:10Z</time>
      </trkpt>
      <trkpt lat="49.41648" lon="-1.79675">
        <ele>44.6</ele>
        <time>2020-06-14T16:43:11Z</time>
      </trkpt>
      <trkpt lat="49.41651" lon="-1.79675">
        <ele>44.9</ele>
        <time>2020-06-14T16:43:12Z</time>
      </trkpt>
      <trkpt lat="49.41652" lon="-1.79676">
        <ele>45</ele>
        <time>2020-06-14T16:43:13Z</time>
      </trkpt>
      <trkpt lat="49.41656" lon="-1.79675">
        <ele>45.4</ele>
        <time>2020-06-14T16:43:14Z</time>
      </trkpt>
      <trkpt lat="49.41659" lon="-1.79676">
        <ele>45.7</ele>
        <time>2020-06-14T16:43:15Z</time>
      </trkpt>
      <trkpt lat="49.4166" lon="-1.79676">
        <ele>45.8</ele>
        <time>2020-06-14T16:43:16Z</time>
      </trkpt>
      <trkpt lat="49.41663" lon="-1.79677">
        <ele>46.1</ele>
        <time>2020-06-14T16:43:17Z</time>
      </trkpt>
      <trkpt lat="49.41666" lon="-1.79678">
        <ele>46.5</ele>
        <time>2020-06-14T16:43:18Z</time>
      </trkpt>
      <trkpt lat="49.41669" lon="-1.79679">
        <ele>46.8</ele>
        <time>2020-06-14T16:43:19Z</time>
      </trkpt>
      <trkpt lat="49.41673" lon="-1.7968">
        <ele>47.1</ele>
        <time>2020-06-14T16:43:20Z</time>
      </trkpt>
      <trkpt lat="49.41674" lon="-1.7968">
        <ele>47.2</ele>
        <time>2020-06-14T16:43:21Z</time>
      </trkpt>
      <trkpt lat="49.41677" lon="-1.7968">
        <ele>47.5</ele>
        <time>2020-06-14T16:43:22Z</time>
      </trkpt>
      <trkpt lat="49.4168" lon="-1.79681">
        <ele>47.8</ele>
        <time>2020-06-14T16:43:23Z</time>
      </trkpt>
      <trkpt lat="49.41683" lon="-1.79682">
        <ele>48.1</ele>
        <time>2020-06-14T16:43:24Z</time>
      </trkpt>
      <trkpt lat="49.41687" lon="-1.79682">
        <ele>48.4</ele>
        <time>2020-06-14T16:43:25Z</time>
      </trkpt>
      <trkpt lat="49.41688" lon="-1.79682">
        <ele>48.6</ele>
        <time>2020-06-14T16:43:26Z</time>
      </trkpt>
      <trkpt lat="49.41691" lon="-1.79681">
        <ele>48.8</ele>
        <time>2020-06-14T16:43:27Z</time>
      </trkpt>
      <trkpt lat="49.41694" lon="-1.79681">
        <ele>49.1</ele>
        <time>2020-06-14T16:43:28Z</time>
      </trkpt>
      <trkpt lat="49.41695" lon="-1.79681">
        <ele>49.2</ele>
        <time>2020-06-14T16:43:29Z</time>
      </trkpt>
      <trkpt lat="49.41698" lon="-1.79681">
        <ele>49.5</ele>
        <time>2020-06-14T16:43:30Z</time>
      </trkpt>
      <trkpt lat="49.41701" lon="-1.7968">
        <ele>49.8</ele>
        <time>2020-06-14T16:43:31Z</time>
      </trkpt>
      <trkpt lat="49.41704" lon="-1.7968">
        <ele>50.2</ele>
        <time>2020-06-14T16:43:32Z</time>
      </trkpt>
      <trkpt lat="49.41707" lon="-1.79679">
        <ele>50.5</ele>
        <time>2020-06-14T16:43:33Z</time>
      </trkpt>
      <trkpt lat="49.41711" lon="-1.79678">
        <ele>50.9</ele>
        <time>2020-06-14T16:43:34Z</time>
      </trkpt>
      <trkpt lat="49.41713" lon="-1.79677">
        <ele>51.1</ele>
        <time>2020-06-14T16:43:35Z</time>
      </trkpt>
      <trkpt lat="49.41717" lon="-1.79676">
        <ele>51.5</ele>
        <time>2020-06-14T16:43:36Z</time>
      </trkpt>
      <trkpt lat="49.41719" lon="-1.79675">
        <ele>51.7</ele>
        <time>2020-06-14T16:43:37Z</time>
      </trkpt>
      <trkpt lat="49.41722" lon="-1.79676">
        <ele>52</ele>
        <time>2020-06-14T16:43:38Z</time>
      </trkpt>
      <trkpt lat="49.41724" lon="-1.79676">
        <ele>52.2</ele>
        <time>2020-06-14T16:43:39Z</time>
      </trkpt>
      <trkpt lat="49.41727" lon="-1.79676">
        <ele>52.5</ele>
        <time>2020-06-14T16:43:40Z</time>
      </trkpt>
      <trkpt lat="49.41731" lon="-1.79676">
        <ele>53</ele>
        <time>2020-06-14T16:43:41Z</time>
      </trkpt>
      <trkpt lat="49.41736" lon="-1.79674">
        <ele>53.4</ele>
        <time>2020-06-14T16:43:42Z</time>
      </trkpt>
      <trkpt lat="49.4174" lon="-1.79674">
        <ele>53.8</ele>
        <time>2020-06-14T16:43:43Z</time>
      </trkpt>
      <trkpt lat="49.41741" lon="-1.79675">
        <ele>53.9</ele>
        <time>2020-06-14T16:43:44Z</time>
      </trkpt>
      <trkpt lat="49.41744" lon="-1.79674">
        <ele>54.2</ele>
        <time>2020-06-14T16:43:45Z</time>
      </trkpt>
      <trkpt lat="49.41747" lon="-1.79674">
        <ele>54.6</ele>
        <time>2020-06-14T16:43:46Z</time>
      </trkpt>
      <trkpt lat="49.41749" lon="-1.79674">
        <ele>54.7</ele>
        <time>2020-06-14T16:43:47Z</time>
      </trkpt>
      <trkpt lat="49.41752" lon="-1.79674">
        <ele>55</ele>
        <time>2020-06-14T16:43:48Z</time>
      </trkpt>
      <trkpt lat="49.41755" lon="-1.79674">
        <ele>55.3</ele>
        <time>2020-06-14T16:43:49Z</time>
      </trkpt>
      <trkpt lat="49.41758" lon="-1.79674">
        <ele>55.5</ele>
        <time>2020-06-14T16:43:50Z</time>
      </trkpt>
      <trkpt lat="49.41761" lon="-1.79673">
        <ele>55.8</ele>
        <time>2020-06-14T16:43:51Z</time>
      </trkpt>
      <trkpt lat="49.41762" lon="-1.79673">
        <ele>55.9</ele>
        <time>2020-06-14T16:43:52Z</time>
      </trkpt>
      <trkpt lat="49.41766" lon="-1.79673">
        <ele>56.1</ele>
        <time>2020-06-14T16:43:53Z</time>
      </trkpt>
      <trkpt lat="49.41769" lon="-1.79674">
        <ele>56.3</ele>
        <time>2020-06-14T16:43:54Z</time>
      </trkpt>
      <trkpt lat="49.41773" lon="-1.79675">
        <ele>56.6</ele>
        <time>2020-06-14T16:43:55Z</time>
      </trkpt>
      <trkpt lat="49.41773" lon="-1.79676">
        <ele>56.6</ele>
        <time>2020-06-14T16:43:56Z</time>
      </trkpt>
      <trkpt lat="49.41777" lon="-1.79676">
        <ele>56.9</ele>
        <time>2020-06-14T16:43:57Z</time>
      </trkpt>
      <trkpt lat="49.41778" lon="-1.79676">
        <ele>56.9</ele>
        <time>2020-06-14T16:43:58Z</time>
      </trkpt>
      <trkpt lat="49.41781" lon="-1.79677">
        <ele>57.1</ele>
        <time>2020-06-14T16:43:59Z</time>
      </trkpt>
      <trkpt lat="49.41784" lon="-1.79677">
        <ele>57.3</ele>
        <time>2020-06-14T16:44:00Z</time>
      </trkpt>
      <trkpt lat="49.41787" lon="-1.79676">
        <ele>57.5</ele>
        <time>2020-06-14T16:44:01Z</time>
      </trkpt>
      <trkpt lat="49.41791" lon="-1.79677">
        <ele>57.6</ele>
        <time>2020-06-14T16:44:02Z</time>
      </trkpt>
      <trkpt lat="49.41792" lon="-1.79677">
        <ele>57.7</ele>
        <time>2020-06-14T16:44:03Z</time>
      </trkpt>
      <trkpt lat="49.41796" lon="-1.79678">
        <ele>57.8</ele>
        <time>2020-06-14T16:44:04Z</time>
      </trkpt>
      <trkpt lat="49.41799" lon="-1.79678">
        <ele>58</ele>
        <time>2020-06-14T16:44:05Z</time>
      </trkpt>
      <trkpt lat="49.41803" lon="-1.79678">
        <ele>58.1</ele>
        <time>2020-06-14T16:44:06Z</time>
      </trkpt>
      <trkpt lat="49.41806" lon="-1.79678">
        <ele>58.1</ele>
        <time>2020-06-14T16:44:07Z</time>
      </trkpt>
      <trkpt lat="49.4181" lon="-1.79678">
        <ele>58.2</ele>
        <time>2020-06-14T16:44:08Z</time>
      </trkpt>
      <trkpt lat="49.41813" lon="-1.79678">
        <ele>58.3</ele>
        <time>2020-06-14T16:44:09Z</time>
      </trkpt>
      <trkpt lat="49.41816" lon="-1.79677">
        <ele>58.3</ele>
        <time>2020-06-14T16:44:10Z</time>
      </trkpt>
      <trkpt lat="49.41821" lon="-1.79676">
        <ele>58.3</ele>
        <time>2020-06-14T16:44:11Z</time>
      </trkpt>
      <trkpt lat="49.41822" lon="-1.79676">
        <ele>58.4</ele>
        <time>2020-06-14T16:44:12Z</time>
      </trkpt>
      <trkpt lat="49.41826" lon="-1.79675">
        <ele>58.4</ele>
        <time>2020-06-14T16:44:13Z</time>
      </trkpt>
      <trkpt lat="49.4183" lon="-1.79675">
        <ele>58.4</ele>
        <time>2020-06-14T16:44:14Z</time>
      </trkpt>
      <trkpt lat="49.41835" lon="-1.79674">
        <ele>58.4</ele>
        <time>2020-06-14T16:44:15Z</time>
      </trkpt>
      <trkpt lat="49.41838" lon="-1.79674">
        <ele>58.5</ele>
        <time>2020-06-14T16:44:16Z</time>
      </trkpt>
      <trkpt lat="49.41841" lon="-1.79675">
        <ele>58.5</ele>
        <time>2020-06-14T16:44:17Z</time>
      </trkpt>
      <trkpt lat="49.41845" lon="-1.79674">
        <ele>58.5</ele>
        <time>2020-06-14T16:44:18Z</time>
      </trkpt>
      <trkpt lat="49.41848" lon="-1.79674">
        <ele>58.5</ele>
        <time>2020-06-14T16:44:19Z</time>
      </trkpt>
      <trkpt lat="49.41853" lon="-1.79674">
        <ele>58.6</ele>
        <time>2020-06-14T16:44:20Z</time>
      </trkpt>
      <trkpt lat="49.41856" lon="-1.79673">
        <ele>58.6</ele>
        <time>2020-06-14T16:44:21Z</time>
      </trkpt>
      <trkpt lat="49.4186" lon="-1.79673">
        <ele>58.6</ele>
        <time>2020-06-14T16:44:22Z</time>
      </trkpt>
      <trkpt lat="49.41864" lon="-1.79671">
        <ele>58.6</ele>
        <time>2020-06-14T16:44:23Z</time>
      </trkpt>
      <trkpt lat="49.41869" lon="-1.79671">
        <ele>58.6</ele>
        <time>2020-06-14T16:44:24Z</time>
      </trkpt>
      <trkpt lat="49.41873" lon="-1.7967">
        <ele>58.6</ele>
        <time>2020-06-14T16:44:25Z</time>
      </trkpt>
      <trkpt lat="49.41877" lon="-1.79669">
        <ele>58.6</ele>
        <time>2020-06-14T16:44:26Z</time>
      </trkpt>
      <trkpt lat="49.41881" lon="-1.79669">
        <ele>58.6</ele>
        <time>2020-06-14T16:44:27Z</time>
      </trkpt>
      <trkpt lat="49.41884" lon="-1.79669">
        <ele>58.6</ele>
        <time>2020-06-14T16:44:28Z</time>
      </trkpt>
      <trkpt lat="49.41888" lon="-1.79668">
        <ele>58.6</ele>
        <time>2020-06-14T16:44:29Z</time>
      </trkpt>
      <trkpt lat="49.41892" lon="-1.79667">
        <ele>58.7</ele>
        <time>2020-06-14T16:44:30Z</time>
      </trkpt>
      <trkpt lat="49.41897" lon="-1.79667">
        <ele>58.7</ele>
        <time>2020-06-14T16:44:31Z</time>
      </trkpt>
      <trkpt lat="49.41901" lon="-1.79666">
        <ele>58.7</ele>
        <time>2020-06-14T16:44:32Z</time>
      </trkpt>
      <trkpt lat="49.41906" lon="-1.79665">
        <ele>58.8</ele>
        <time>2020-06-14T16:44:33Z</time>
      </trkpt>
      <trkpt lat="49.4191" lon="-1.79665">
        <ele>58.8</ele>
        <time>2020-06-14T16:44:34Z</time>
      </trkpt>
      <trkpt lat="49.41914" lon="-1.79664">
        <ele>58.8</ele>
        <time>2020-06-14T16:44:35Z</time>
      </trkpt>
      <trkpt lat="49.41918" lon="-1.79664">
        <ele>58.8</ele>
        <time>2020-06-14T16:44:36Z</time>
      </trkpt>
      <trkpt lat="49.41922" lon="-1.79662">
        <ele>58.9</ele>
        <time>2020-06-14T16:44:37Z</time>
      </trkpt>
      <trkpt lat="49.41926" lon="-1.79661">
        <ele>58.9</ele>
        <time>2020-06-14T16:44:38Z</time>
      </trkpt>
      <trkpt lat="49.41931" lon="-1.79659">
        <ele>58.9</ele>
        <time>2020-06-14T16:44:39Z</time>
      </trkpt>
      <trkpt lat="49.41935" lon="-1.7966">
        <ele>58.9</ele>
        <time>2020-06-14T16:44:40Z</time>
      </trkpt>
      <trkpt lat="49.4194" lon="-1.79659">
        <ele>59</ele>
        <time>2020-06-14T16:44:41Z</time>
      </trkpt>
      <trkpt lat="49.41945" lon="-1.79658">
        <ele>59</ele>
        <time>2020-06-14T16:44:42Z</time>
      </trkpt>
      <trkpt lat="49.41948" lon="-1.79658">
        <ele>59</ele>
        <time>2020-06-14T16:44:43Z</time>
      </trkpt>
      <trkpt lat="49.41952" lon="-1.79658">
        <ele>59.1</ele>
        <time>2020-06-14T16:44:44Z</time>
      </trkpt>
      <trkpt lat="49.41956" lon="-1.79658">
        <ele>59.1</ele>
        <time>2020-06-14T16:44:45Z</time>
      </trkpt>
      <trkpt lat="49.4196" lon="-1.79657">
        <ele>59.1</ele>
        <time>2020-06-14T16:44:46Z</time>
      </trkpt>
      <trkpt lat="49.41963" lon="-1.79656">
        <ele>59.1</ele>
        <time>2020-06-14T16:44:47Z</time>
      </trkpt>
      <trkpt lat="49.41967" lon="-1.79656">
        <ele>59.2</ele>
        <time>2020-06-14T16:44:48Z</time>
      </trkpt>
      <trkpt lat="49.41972" lon="-1.79656">
        <ele>59.2</ele>
        <time>2020-06-14T16:44:49Z</time>
      </trkpt>
      <trkpt lat="49.41977" lon="-1.79656">
        <ele>59.2</ele>
        <time>2020-06-14T16:44:50Z</time>
      </trkpt>
      <trkpt lat="49.41981" lon="-1.79655">
        <ele>59.2</ele>
        <time>2020-06-14T16:44:51Z</time>
      </trkpt>
      <trkpt lat="49.41984" lon="-1.79655">
        <ele>59.2</ele>
        <time>2020-06-14T16:44:52Z</time>
      </trkpt>
      <trkpt lat="49.41987" lon="-1.79655">
        <ele>59.1</ele>
        <time>2020-06-14T16:44:53Z</time>
      </trkpt>
      <trkpt lat="49.41993" lon="-1.79654">
        <ele>59.1</ele>
        <time>2020-06-14T16:44:54Z</time>
      </trkpt>
      <trkpt lat="49.41997" lon="-1.79654">
        <ele>59</ele>
        <time>2020-06-14T16:44:55Z</time>
      </trkpt>
      <trkpt lat="49.42001" lon="-1.79653">
        <ele>59</ele>
        <time>2020-06-14T16:44:56Z</time>
      </trkpt>
      <trkpt lat="49.42006" lon="-1.79652">
        <ele>58.9</ele>
        <time>2020-06-14T16:44:57Z</time>
      </trkpt>
      <trkpt lat="49.42009" lon="-1.79653">
        <ele>58.8</ele>
        <time>2020-06-14T16:44:58Z</time>
      </trkpt>
      <trkpt lat="49.42014" lon="-1.79652">
        <ele>58.7</ele>
        <time>2020-06-14T16:44:59Z</time>
      </trkpt>
      <trkpt lat="49.4202" lon="-1.79651">
        <ele>58.6</ele>
        <time>2020-06-14T16:45:00Z</time>
      </trkpt>
      <trkpt lat="49.42025" lon="-1.79651">
        <ele>58.4</ele>
        <time>2020-06-14T16:45:01Z</time>
      </trkpt>
      <trkpt lat="49.42029" lon="-1.79652">
        <ele>58.2</ele>
        <time>2020-06-14T16:45:02Z</time>
      </trkpt>
      <trkpt lat="49.42034" lon="-1.79653">
        <ele>57.9</ele>
        <time>2020-06-14T16:45:03Z</time>
      </trkpt>
      <trkpt lat="49.42039" lon="-1.79653">
        <ele>57.6</ele>
        <time>2020-06-14T16:45:04Z</time>
      </trkpt>
      <trkpt lat="49.42044" lon="-1.79654">
        <ele>57.4</ele>
        <time>2020-06-14T16:45:05Z</time>
      </trkpt>
      <trkpt lat="49.42049" lon="-1.79655">
        <ele>57</ele>
        <time>2020-06-14T16:45:06Z</time>
      </trkpt>
      <trkpt lat="49.42055" lon="-1.79657">
        <ele>56.6</ele>
        <time>2020-06-14T16:45:07Z</time>
      </trkpt>
      <trkpt lat="49.42061" lon="-1.79658">
        <ele>56.1</ele>
        <time>2020-06-14T16:45:08Z</time>
      </trkpt>
      <trkpt lat="49.42068" lon="-1.7966">
        <ele>55.6</ele>
        <time>2020-06-14T16:45:09Z</time>
      </trkpt>
      <trkpt lat="49.42075" lon="-1.79661">
        <ele>55.1</ele>
        <time>2020-06-14T16:45:10Z</time>
      </trkpt>
      <trkpt lat="49.42081" lon="-1.79663">
        <ele>54.7</ele>
        <time>2020-06-14T16:45:11Z</time>
      </trkpt>
      <trkpt lat="49.42089" lon="-1.79664">
        <ele>54.2</ele>
        <time>2020-06-14T16:45:12Z</time>
      </trkpt>
      <trkpt lat="49.42098" lon="-1.79667">
        <ele>53.6</ele>
        <time>2020-06-14T16:45:13Z</time>
      </trkpt>
      <trkpt lat="49.42108" lon="-1.79668">
        <ele>53</ele>
        <time>2020-06-14T16:45:14Z</time>
      </trkpt>
      <trkpt lat="49.42116" lon="-1.7967">
        <ele>52.5</ele>
        <time>2020-06-14T16:45:15Z</time>
      </trkpt>
      <trkpt lat="49.42124" lon="-1.79671">
        <ele>52</ele>
        <time>2020-06-14T16:45:16Z</time>
      </trkpt>
      <trkpt lat="49.42133" lon="-1.79672">
        <ele>51.5</ele>
        <time>2020-06-14T16:45:17Z</time>
      </trkpt>
      <trkpt lat="49.42142" lon="-1.79674">
        <ele>51</ele>
        <time>2020-06-14T16:45:18Z</time>
      </trkpt>
      <trkpt lat="49.4215" lon="-1.79675">
        <ele>50.7</ele>
        <time>2020-06-14T16:45:19Z</time>
      </trkpt>
      <trkpt lat="49.42159" lon="-1.79678">
        <ele>50.4</ele>
        <time>2020-06-14T16:45:20Z</time>
      </trkpt>
      <trkpt lat="49.42167" lon="-1.79679">
        <ele>50.2</ele>
        <time>2020-06-14T16:45:21Z</time>
      </trkpt>
      <trkpt lat="49.42175" lon="-1.7968">
        <ele>49.9</ele>
        <time>2020-06-14T16:45:22Z</time>
      </trkpt>
      <trkpt lat="49.42184" lon="-1.79681">
        <ele>49.6</ele>
        <time>2020-06-14T16:45:23Z</time>
      </trkpt>
      <trkpt lat="49.42192" lon="-1.79683">
        <ele>49.3</ele>
        <time>2020-06-14T16:45:24Z</time>
      </trkpt>
      <trkpt lat="49.422" lon="-1.79685">
        <ele>49</ele>
        <time>2020-06-14T16:45:25Z</time>
      </trkpt>
      <trkpt lat="49.42208" lon="-1.79688">
        <ele>48.7</ele>
        <time>2020-06-14T16:45:27Z</time>
      </trkpt>
      <trkpt lat="49.42216" lon="-1.7969">
        <ele>48.6</ele>
        <time>2020-06-14T16:45:28Z</time>
      </trkpt>
      <trkpt lat="49.42224" lon="-1.79691">
        <ele>48.5</ele>
        <time>2020-06-14T16:45:29Z</time>
      </trkpt>
      <trkpt lat="49.42233" lon="-1.79692">
        <ele>48.6</ele>
        <time>2020-06-14T16:45:30Z</time>
      </trkpt>
      <trkpt lat="49.42241" lon="-1.79694">
        <ele>48.8</ele>
        <time>2020-06-14T16:45:31Z</time>
      </trkpt>
      <trkpt lat="49.4225" lon="-1.79697">
        <ele>49.2</ele>
        <time>2020-06-14T16:45:32Z</time>
      </trkpt>
      <trkpt lat="49.42258" lon="-1.79698">
        <ele>49.5</ele>
        <time>2020-06-14T16:45:33Z</time>
      </trkpt>
      <trkpt lat="49.42265" lon="-1.79701">
        <ele>49.7</ele>
        <time>2020-06-14T16:45:34Z</time>
      </trkpt>
      <trkpt lat="49.42271" lon="-1.79702">
        <ele>49.9</ele>
        <time>2020-06-14T16:45:35Z</time>
      </trkpt>
      <trkpt lat="49.42276" lon="-1.79703">
        <ele>50.2</ele>
        <time>2020-06-14T16:45:36Z</time>
      </trkpt>
      <trkpt lat="49.4228" lon="-1.79704">
        <ele>50.3</ele>
        <time>2020-06-14T16:45:37Z</time>
      </trkpt>
      <trkpt lat="49.42284" lon="-1.79704">
        <ele>50.5</ele>
        <time>2020-06-14T16:45:38Z</time>
      </trkpt>
      <trkpt lat="49.42287" lon="-1.79704">
        <ele>50.7</ele>
        <time>2020-06-14T16:45:39Z</time>
      </trkpt>
      <trkpt lat="49.42291" lon="-1.79704">
        <ele>50.8</ele>
        <time>2020-06-14T16:45:40Z</time>
      </trkpt>
      <trkpt lat="49.42295" lon="-1.79703">
        <ele>51</ele>
        <time>2020-06-14T16:45:41Z</time>
      </trkpt>
      <trkpt lat="49.42299" lon="-1.79702">
        <ele>51.1</ele>
        <time>2020-06-14T16:45:42Z</time>
      </trkpt>
      <trkpt lat="49.42303" lon="-1.79702">
        <ele>51.2</ele>
        <time>2020-06-14T16:45:43Z</time>
      </trkpt>
      <trkpt lat="49.42307" lon="-1.79702">
        <ele>51.4</ele>
        <time>2020-06-14T16:45:44Z</time>
      </trkpt>
      <trkpt lat="49.42315" lon="-1.79703">
        <ele>51.5</ele>
        <time>2020-06-14T16:45:45Z</time>
      </trkpt>
      <trkpt lat="49.4232" lon="-1.79703">
        <ele>51.6</ele>
        <time>2020-06-14T16:45:46Z</time>
      </trkpt>
      <trkpt lat="49.42324" lon="-1.79704">
        <ele>51.6</ele>
        <time>2020-06-14T16:45:47Z</time>
      </trkpt>
      <trkpt lat="49.42329" lon="-1.79706">
        <ele>51.7</ele>
        <time>2020-06-14T16:45:48Z</time>
      </trkpt>
      <trkpt lat="49.42333" lon="-1.79707">
        <ele>51.7</ele>
        <time>2020-06-14T16:45:49Z</time>
      </trkpt>
      <trkpt lat="49.42338" lon="-1.79708">
        <ele>51.7</ele>
        <time>2020-06-14T16:45:50Z</time>
      </trkpt>
      <trkpt lat="49.42342" lon="-1.79707">
        <ele>51.7</ele>
        <time>2020-06-14T16:45:51Z</time>
      </trkpt>
      <trkpt lat="49.42347" lon="-1.79706">
        <ele>51.6</ele>
        <time>2020-06-14T16:45:52Z</time>
      </trkpt>
      <trkpt lat="49.42352" lon="-1.79707">
        <ele>51.6</ele>
        <time>2020-06-14T16:45:53Z</time>
      </trkpt>
      <trkpt lat="49.42357" lon="-1.79707">
        <ele>51.6</ele>
        <time>2020-06-14T16:45:54Z</time>
      </trkpt>
      <trkpt lat="49.42362" lon="-1.79708">
        <ele>51.6</ele>
        <time>2020-06-14T16:45:55Z</time>
      </trkpt>
      <trkpt lat="49.42367" lon="-1.79709">
        <ele>51.6</ele>
        <time>2020-06-14T16:45:56Z</time>
      </trkpt>
      <trkpt lat="49.42372" lon="-1.79709">
        <ele>51.5</ele>
        <time>2020-06-14T16:45:57Z</time>
      </trkpt>
      <trkpt lat="49.42377" lon="-1.79711">
        <ele>51.5</ele>
        <time>2020-06-14T16:45:58Z</time>
      </trkpt>
      <trkpt lat="49.42382" lon="-1.79712">
        <ele>51.5</ele>
        <time>2020-06-14T16:45:59Z</time>
      </trkpt>
      <trkpt lat="49.42387" lon="-1.79713">
        <ele>51.4</ele>
        <time>2020-06-14T16:46:00Z</time>
      </trkpt>
      <trkpt lat="49.42391" lon="-1.79716">
        <ele>51.4</ele>
        <time>2020-06-14T16:46:01Z</time>
      </trkpt>
      <trkpt lat="49.42396" lon="-1.79719">
        <ele>51.4</ele>
        <time>2020-06-14T16:46:02Z</time>
      </trkpt>
      <trkpt lat="49.424" lon="-1.79722">
        <ele>51.3</ele>
        <time>2020-06-14T16:46:03Z</time>
      </trkpt>
      <trkpt lat="49.42404" lon="-1.79726">
        <ele>51.3</ele>
        <time>2020-06-14T16:46:04Z</time>
      </trkpt>
      <trkpt lat="49.42409" lon="-1.7973">
        <ele>51.3</ele>
        <time>2020-06-14T16:46:05Z</time>
      </trkpt>
      <trkpt lat="49.42413" lon="-1.79733">
        <ele>51.2</ele>
        <time>2020-06-14T16:46:06Z</time>
      </trkpt>
      <trkpt lat="49.42417" lon="-1.79736">
        <ele>51.2</ele>
        <time>2020-06-14T16:46:07Z</time>
      </trkpt>
      <trkpt lat="49.42421" lon="-1.79739">
        <ele>51.1</ele>
        <time>2020-06-14T16:46:08Z</time>
      </trkpt>
      <trkpt lat="49.42425" lon="-1.79743">
        <ele>51.1</ele>
        <time>2020-06-14T16:46:09Z</time>
      </trkpt>
      <trkpt lat="49.42428" lon="-1.79749">
        <ele>51</ele>
        <time>2020-06-14T16:46:10Z</time>
      </trkpt>
      <trkpt lat="49.42432" lon="-1.79753">
        <ele>50.9</ele>
        <time>2020-06-14T16:46:11Z</time>
      </trkpt>
      <trkpt lat="49.42435" lon="-1.79759">
        <ele>50.7</ele>
        <time>2020-06-14T16:46:12Z</time>
      </trkpt>
      <trkpt lat="49.42438" lon="-1.79764">
        <ele>50.6</ele>
        <time>2020-06-14T16:46:13Z</time>
      </trkpt>
      <trkpt lat="49.42441" lon="-1.79769">
        <ele>50.5</ele>
        <time>2020-06-14T16:46:14Z</time>
      </trkpt>
      <trkpt lat="49.42444" lon="-1.79775">
        <ele>50.4</ele>
        <time>2020-06-14T16:46:15Z</time>
      </trkpt>
      <trkpt lat="49.42447" lon="-1.79781">
        <ele>50.3</ele>
        <time>2020-06-14T16:46:16Z</time>
      </trkpt>
      <trkpt lat="49.42451" lon="-1.79787">
        <ele>50.2</ele>
        <time>2020-06-14T16:46:17Z</time>
      </trkpt>
      <trkpt lat="49.42454" lon="-1.79794">
        <ele>50.1</ele>
        <time>2020-06-14T16:46:18Z</time>
      </trkpt>
      <trkpt lat="49.42458" lon="-1.798">
        <ele>50.1</ele>
        <time>2020-06-14T16:46:19Z</time>
      </trkpt>
      <trkpt lat="49.42461" lon="-1.79807">
        <ele>50.1</ele>
        <time>2020-06-14T16:46:20Z</time>
      </trkpt>
      <trkpt lat="49.42465" lon="-1.79814">
        <ele>50</ele>
        <time>2020-06-14T16:46:21Z</time>
      </trkpt>
      <trkpt lat="49.42468" lon="-1.79821">
        <ele>50</ele>
        <time>2020-06-14T16:46:22Z</time>
      </trkpt>
      <trkpt lat="49.42471" lon="-1.79829">
        <ele>50</ele>
        <time>2020-06-14T16:46:23Z</time>
      </trkpt>
      <trkpt lat="49.42475" lon="-1.79836">
        <ele>50</ele>
        <time>2020-06-14T16:46:24Z</time>
      </trkpt>
      <trkpt lat="49.42478" lon="-1.79843">
        <ele>50</ele>
        <time>2020-06-14T16:46:25Z</time>
      </trkpt>
      <trkpt lat="49.42481" lon="-1.7985">
        <ele>50</ele>
        <time>2020-06-14T16:46:26Z</time>
      </trkpt>
      <trkpt lat="49.42484" lon="-1.79857">
        <ele>50</ele>
        <time>2020-06-14T16:46:27Z</time>
      </trkpt>
      <trkpt lat="49.42489" lon="-1.79863">
        <ele>50.1</ele>
        <time>2020-06-14T16:46:28Z</time>
      </trkpt>
      <trkpt lat="49.42492" lon="-1.7987">
        <ele>50.2</ele>
        <time>2020-06-14T16:46:29Z</time>
      </trkpt>
      <trkpt lat="49.42495" lon="-1.79877">
        <ele>50.3</ele>
        <time>2020-06-14T16:46:30Z</time>
      </trkpt>
      <trkpt lat="49.42499" lon="-1.79884">
        <ele>50.3</ele>
        <time>2020-06-14T16:46:31Z</time>
      </trkpt>
      <trkpt lat="49.42502" lon="-1.7989">
        <ele>50.4</ele>
        <time>2020-06-14T16:46:32Z</time>
      </trkpt>
      <trkpt lat="49.42506" lon="-1.79896">
        <ele>50.5</ele>
        <time>2020-06-14T16:46:33Z</time>
      </trkpt>
      <trkpt lat="49.42509" lon="-1.79902">
        <ele>50.6</ele>
        <time>2020-06-14T16:46:34Z</time>
      </trkpt>
      <trkpt lat="49.42513" lon="-1.79907">
        <ele>50.7</ele>
        <time>2020-06-14T16:46:35Z</time>
      </trkpt>
      <trkpt lat="49.42515" lon="-1.79913">
        <ele>50.8</ele>
        <time>2020-06-14T16:46:36Z</time>
      </trkpt>
      <trkpt lat="49.42518" lon="-1.79919">
        <ele>50.9</ele>
        <time>2020-06-14T16:46:37Z</time>
      </trkpt>
      <trkpt lat="49.42521" lon="-1.79924">
        <ele>50.9</ele>
        <time>2020-06-14T16:46:38Z</time>
      </trkpt>
      <trkpt lat="49.42523" lon="-1.7993">
        <ele>51</ele>
        <time>2020-06-14T16:46:39Z</time>
      </trkpt>
      <trkpt lat="49.42526" lon="-1.79936">
        <ele>51.1</ele>
        <time>2020-06-14T16:46:40Z</time>
      </trkpt>
      <trkpt lat="49.42528" lon="-1.79943">
        <ele>51.2</ele>
        <time>2020-06-14T16:46:41Z</time>
      </trkpt>
      <trkpt lat="49.4253" lon="-1.7995">
        <ele>51.2</ele>
        <time>2020-06-14T16:46:42Z</time>
      </trkpt>
      <trkpt lat="49.42533" lon="-1.79957">
        <ele>51.3</ele>
        <time>2020-06-14T16:46:43Z</time>
      </trkpt>
      <trkpt lat="49.42535" lon="-1.79964">
        <ele>51.3</ele>
        <time>2020-06-14T16:46:44Z</time>
      </trkpt>
      <trkpt lat="49.42539" lon="-1.7997">
        <ele>51.3</ele>
        <time>2020-06-14T16:46:45Z</time>
      </trkpt>
      <trkpt lat="49.42542" lon="-1.79975">
        <ele>51.4</ele>
        <time>2020-06-14T16:46:46Z</time>
      </trkpt>
      <trkpt lat="49.42548" lon="-1.79976">
        <ele>51.4</ele>
        <time>2020-06-14T16:46:47Z</time>
      </trkpt>
      <trkpt lat="49.42553" lon="-1.79977">
        <ele>51.5</ele>
        <time>2020-06-14T16:46:48Z</time>
      </trkpt>
      <trkpt lat="49.42559" lon="-1.79978">
        <ele>51.5</ele>
        <time>2020-06-14T16:46:49Z</time>
      </trkpt>
      <trkpt lat="49.42564" lon="-1.7998">
        <ele>51.6</ele>
        <time>2020-06-14T16:46:50Z</time>
      </trkpt>
      <trkpt lat="49.42569" lon="-1.7998">
        <ele>51.6</ele>
        <time>2020-06-14T16:46:51Z</time>
      </trkpt>
      <trkpt lat="49.42574" lon="-1.7998">
        <ele>51.6</ele>
        <time>2020-06-14T16:46:52Z</time>
      </trkpt>
      <trkpt lat="49.42579" lon="-1.79981">
        <ele>51.5</ele>
        <time>2020-06-14T16:46:53Z</time>
      </trkpt>
      <trkpt lat="49.42583" lon="-1.79982">
        <ele>51.5</ele>
        <time>2020-06-14T16:46:54Z</time>
      </trkpt>
      <trkpt lat="49.42588" lon="-1.79981">
        <ele>51.4</ele>
        <time>2020-06-14T16:46:55Z</time>
      </trkpt>
      <trkpt lat="49.42592" lon="-1.79981">
        <ele>51.3</ele>
        <time>2020-06-14T16:46:56Z</time>
      </trkpt>
      <trkpt lat="49.42597" lon="-1.79983">
        <ele>51.1</ele>
        <time>2020-06-14T16:46:57Z</time>
      </trkpt>
      <trkpt lat="49.42602" lon="-1.79982">
        <ele>51</ele>
        <time>2020-06-14T16:46:58Z</time>
      </trkpt>
      <trkpt lat="49.42607" lon="-1.79984">
        <ele>50.8</ele>
        <time>2020-06-14T16:46:59Z</time>
      </trkpt>
      <trkpt lat="49.42612" lon="-1.79986">
        <ele>50.6</ele>
        <time>2020-06-14T16:47:00Z</time>
      </trkpt>
      <trkpt lat="49.42617" lon="-1.79988">
        <ele>50.3</ele>
        <time>2020-06-14T16:47:01Z</time>
      </trkpt>
      <trkpt lat="49.42623" lon="-1.7999">
        <ele>50</ele>
        <time>2020-06-14T16:47:02Z</time>
      </trkpt>
      <trkpt lat="49.42629" lon="-1.79993">
        <ele>49.7</ele>
        <time>2020-06-14T16:47:03Z</time>
      </trkpt>
      <trkpt lat="49.42635" lon="-1.79996">
        <ele>49.4</ele>
        <time>2020-06-14T16:47:04Z</time>
      </trkpt>
      <trkpt lat="49.42642" lon="-1.79999">
        <ele>49.1</ele>
        <time>2020-06-14T16:47:05Z</time>
      </trkpt>
      <trkpt lat="49.42648" lon="-1.80003">
        <ele>48.7</ele>
        <time>2020-06-14T16:47:06Z</time>
      </trkpt>
      <trkpt lat="49.42654" lon="-1.80006">
        <ele>48.3</ele>
        <time>2020-06-14T16:47:07Z</time>
      </trkpt>
      <trkpt lat="49.42661" lon="-1.80009">
        <ele>47.9</ele>
        <time>2020-06-14T16:47:08Z</time>
      </trkpt>
      <trkpt lat="49.42668" lon="-1.80013">
        <ele>47.4</ele>
        <time>2020-06-14T16:47:09Z</time>
      </trkpt>
      <trkpt lat="49.42675" lon="-1.80018">
        <ele>46.9</ele>
        <time>2020-06-14T16:47:10Z</time>
      </trkpt>
      <trkpt lat="49.42682" lon="-1.80021">
        <ele>46.4</ele>
        <time>2020-06-14T16:47:11Z</time>
      </trkpt>
      <trkpt lat="49.4269" lon="-1.80026">
        <ele>45.9</ele>
        <time>2020-06-14T16:47:12Z</time>
      </trkpt>
      <trkpt lat="49.42697" lon="-1.80031">
        <ele>45.3</ele>
        <time>2020-06-14T16:47:13Z</time>
      </trkpt>
      <trkpt lat="49.42705" lon="-1.80035">
        <ele>44.7</ele>
        <time>2020-06-14T16:47:14Z</time>
      </trkpt>
      <trkpt lat="49.42713" lon="-1.8004">
        <ele>44.2</ele>
        <time>2020-06-14T16:47:15Z</time>
      </trkpt>
      <trkpt lat="49.42721" lon="-1.80044">
        <ele>43.7</ele>
        <time>2020-06-14T16:47:16Z</time>
      </trkpt>
      <trkpt lat="49.4273" lon="-1.80048">
        <ele>43.2</ele>
        <time>2020-06-14T16:47:17Z</time>
      </trkpt>
      <trkpt lat="49.42739" lon="-1.80053">
        <ele>42.7</ele>
        <time>2020-06-14T16:47:18Z</time>
      </trkpt>
      <trkpt lat="49.42747" lon="-1.80057">
        <ele>42.4</ele>
        <time>2020-06-14T16:47:19Z</time>
      </trkpt>
      <trkpt lat="49.42755" lon="-1.80062">
        <ele>42</ele>
        <time>2020-06-14T16:47:20Z</time>
      </trkpt>
      <trkpt lat="49.42764" lon="-1.80066">
        <ele>41.7</ele>
        <time>2020-06-14T16:47:21Z</time>
      </trkpt>
      <trkpt lat="49.42772" lon="-1.8007">
        <ele>41.3</ele>
        <time>2020-06-14T16:47:22Z</time>
      </trkpt>
      <trkpt lat="49.4278" lon="-1.80075">
        <ele>41</ele>
        <time>2020-06-14T16:47:23Z</time>
      </trkpt>
      <trkpt lat="49.42788" lon="-1.80079">
        <ele>40.7</ele>
        <time>2020-06-14T16:47:24Z</time>
      </trkpt>
      <trkpt lat="49.42796" lon="-1.80083">
        <ele>40.3</ele>
        <time>2020-06-14T16:47:25Z</time>
      </trkpt>
      <trkpt lat="49.42804" lon="-1.80089">
        <ele>39.9</ele>
        <time>2020-06-14T16:47:26Z</time>
      </trkpt>
      <trkpt lat="49.42812" lon="-1.80094">
        <ele>39.7</ele>
        <time>2020-06-14T16:47:27Z</time>
      </trkpt>
      <trkpt lat="49.4282" lon="-1.801">
        <ele>39.4</ele>
        <time>2020-06-14T16:47:28Z</time>
      </trkpt>
      <trkpt lat="49.42827" lon="-1.80107">
        <ele>39</ele>
        <time>2020-06-14T16:47:29Z</time>
      </trkpt>
      <trkpt lat="49.42834" lon="-1.80114">
        <ele>38.7</ele>
        <time>2020-06-14T16:47:30Z</time>
      </trkpt>
      <trkpt lat="49.42841" lon="-1.80121">
        <ele>38.4</ele>
        <time>2020-06-14T16:47:31Z</time>
      </trkpt>
      <trkpt lat="49.42847" lon="-1.80127">
        <ele>38.2</ele>
        <time>2020-06-14T16:47:32Z</time>
      </trkpt>
      <trkpt lat="49.42852" lon="-1.80133">
        <ele>38</ele>
        <time>2020-06-14T16:47:33Z</time>
      </trkpt>
      <trkpt lat="49.42858" lon="-1.80137">
        <ele>37.8</ele>
        <time>2020-06-14T16:47:34Z</time>
      </trkpt>
      <trkpt lat="49.42863" lon="-1.80142">
        <ele>37.6</ele>
        <time>2020-06-14T16:47:35Z</time>
      </trkpt>
      <trkpt lat="49.42869" lon="-1.80147">
        <ele>37.4</ele>
        <time>2020-06-14T16:47:36Z</time>
      </trkpt>
      <trkpt lat="49.42874" lon="-1.80153">
        <ele>37.3</ele>
        <time>2020-06-14T16:47:37Z</time>
      </trkpt>
      <trkpt lat="49.42879" lon="-1.8016">
        <ele>36.9</ele>
        <time>2020-06-14T16:47:38Z</time>
      </trkpt>
      <trkpt lat="49.42884" lon="-1.80167">
        <ele>36.6</ele>
        <time>2020-06-14T16:47:39Z</time>
      </trkpt>
      <trkpt lat="49.42889" lon="-1.80175">
        <ele>36.2</ele>
        <time>2020-06-14T16:47:40Z</time>
      </trkpt>
      <trkpt lat="49.42893" lon="-1.80184">
        <ele>35.9</ele>
        <time>2020-06-14T16:47:41Z</time>
      </trkpt>
      <trkpt lat="49.42897" lon="-1.80193">
        <ele>35.5</ele>
        <time>2020-06-14T16:47:42Z</time>
      </trkpt>
      <trkpt lat="49.42902" lon="-1.80203">
        <ele>35.1</ele>
        <time>2020-06-14T16:47:43Z</time>
      </trkpt>
      <trkpt lat="49.42906" lon="-1.80212">
        <ele>34.8</ele>
        <time>2020-06-14T16:47:44Z</time>
      </trkpt>
      <trkpt lat="49.4291" lon="-1.80222">
        <ele>34.5</ele>
        <time>2020-06-14T16:47:45Z</time>
      </trkpt>
      <trkpt lat="49.42914" lon="-1.80231">
        <ele>34.2</ele>
        <time>2020-06-14T16:47:46Z</time>
      </trkpt>
      <trkpt lat="49.42918" lon="-1.8024">
        <ele>34</ele>
        <time>2020-06-14T16:47:47Z</time>
      </trkpt>
      <trkpt lat="49.42922" lon="-1.80249">
        <ele>33.8</ele>
        <time>2020-06-14T16:47:48Z</time>
      </trkpt>
      <trkpt lat="49.42926" lon="-1.80258">
        <ele>33.5</ele>
        <time>2020-06-14T16:47:49Z</time>
      </trkpt>
      <trkpt lat="49.4293" lon="-1.80267">
        <ele>33.4</ele>
        <time>2020-06-14T16:47:50Z</time>
      </trkpt>
      <trkpt lat="49.42934" lon="-1.80276">
        <ele>33.3</ele>
        <time>2020-06-14T16:47:51Z</time>
      </trkpt>
      <trkpt lat="49.42939" lon="-1.80284">
        <ele>33.2</ele>
        <time>2020-06-14T16:47:52Z</time>
      </trkpt>
      <trkpt lat="49.42944" lon="-1.8029">
        <ele>33</ele>
        <time>2020-06-14T16:47:53Z</time>
      </trkpt>
      <trkpt lat="49.42949" lon="-1.80297">
        <ele>32.9</ele>
        <time>2020-06-14T16:47:54Z</time>
      </trkpt>
      <trkpt lat="49.42953" lon="-1.80305">
        <ele>32.7</ele>
        <time>2020-06-14T16:47:55Z</time>
      </trkpt>
      <trkpt lat="49.42956" lon="-1.80313">
        <ele>32.6</ele>
        <time>2020-06-14T16:47:56Z</time>
      </trkpt>
      <trkpt lat="49.4296" lon="-1.8032">
        <ele>32.5</ele>
        <time>2020-06-14T16:47:57Z</time>
      </trkpt>
      <trkpt lat="49.42963" lon="-1.80328">
        <ele>32.3</ele>
        <time>2020-06-14T16:47:58Z</time>
      </trkpt>
      <trkpt lat="49.42966" lon="-1.80336">
        <ele>32.2</ele>
        <time>2020-06-14T16:47:59Z</time>
      </trkpt>
      <trkpt lat="49.42968" lon="-1.80343">
        <ele>32.1</ele>
        <time>2020-06-14T16:48:00Z</time>
      </trkpt>
      <trkpt lat="49.4297" lon="-1.80351">
        <ele>32</ele>
        <time>2020-06-14T16:48:01Z</time>
      </trkpt>
      <trkpt lat="49.42971" lon="-1.80359">
        <ele>31.9</ele>
        <time>2020-06-14T16:48:02Z</time>
      </trkpt>
      <trkpt lat="49.42972" lon="-1.80367">
        <ele>31.7</ele>
        <time>2020-06-14T16:48:03Z</time>
      </trkpt>
      <trkpt lat="49.42973" lon="-1.80375">
        <ele>31.6</ele>
        <time>2020-06-14T16:48:04Z</time>
      </trkpt>
      <trkpt lat="49.42975" lon="-1.80382">
        <ele>31.4</ele>
        <time>2020-06-14T16:48:05Z</time>
      </trkpt>
      <trkpt lat="49.42976" lon="-1.8039">
        <ele>31.2</ele>
        <time>2020-06-14T16:48:06Z</time>
      </trkpt>
      <trkpt lat="49.42976" lon="-1.80399">
        <ele>31</ele>
        <time>2020-06-14T16:48:07Z</time>
      </trkpt>
      <trkpt lat="49.42977" lon="-1.80407">
        <ele>30.7</ele>
        <time>2020-06-14T16:48:08Z</time>
      </trkpt>
      <trkpt lat="49.42978" lon="-1.80416">
        <ele>30.4</ele>
        <time>2020-06-14T16:48:09Z</time>
      </trkpt>
      <trkpt lat="49.42978" lon="-1.80425">
        <ele>30.2</ele>
        <time>2020-06-14T16:48:10Z</time>
      </trkpt>
      <trkpt lat="49.42979" lon="-1.80433">
        <ele>29.9</ele>
        <time>2020-06-14T16:48:11Z</time>
      </trkpt>
      <trkpt lat="49.42979" lon="-1.80441">
        <ele>29.7</ele>
        <time>2020-06-14T16:48:12Z</time>
      </trkpt>
      <trkpt lat="49.42978" lon="-1.80449">
        <ele>29.5</ele>
        <time>2020-06-14T16:48:13Z</time>
      </trkpt>
      <trkpt lat="49.42978" lon="-1.80456">
        <ele>29.3</ele>
        <time>2020-06-14T16:48:14Z</time>
      </trkpt>
      <trkpt lat="49.42981" lon="-1.80461">
        <ele>28.6</ele>
        <time>2020-06-14T16:48:15Z</time>
      </trkpt>
      <trkpt lat="49.42982" lon="-1.80466">
        <ele>28.5</ele>
        <time>2020-06-14T16:48:16Z</time>
      </trkpt>
      <trkpt lat="49.42985" lon="-1.80468">
        <ele>28.3</ele>
        <time>2020-06-14T16:48:17Z</time>
      </trkpt>
      <trkpt lat="49.42989" lon="-1.80467">
        <ele>28.1</ele>
        <time>2020-06-14T16:48:18Z</time>
      </trkpt>
      <trkpt lat="49.42994" lon="-1.80467">
        <ele>27.8</ele>
        <time>2020-06-14T16:48:19Z</time>
      </trkpt>
      <trkpt lat="49.42999" lon="-1.80466">
        <ele>27.5</ele>
        <time>2020-06-14T16:48:20Z</time>
      </trkpt>
      <trkpt lat="49.43004" lon="-1.80467">
        <ele>27.1</ele>
        <time>2020-06-14T16:48:21Z</time>
      </trkpt>
      <trkpt lat="49.43009" lon="-1.80467">
        <ele>26.8</ele>
        <time>2020-06-14T16:48:22Z</time>
      </trkpt>
      <trkpt lat="49.43014" lon="-1.80467">
        <ele>26.4</ele>
        <time>2020-06-14T16:48:23Z</time>
      </trkpt>
      <trkpt lat="49.4302" lon="-1.80468">
        <ele>26</ele>
        <time>2020-06-14T16:48:24Z</time>
      </trkpt>
      <trkpt lat="49.43026" lon="-1.80469">
        <ele>25.6</ele>
        <time>2020-06-14T16:48:25Z</time>
      </trkpt>
      <trkpt lat="49.43032" lon="-1.80468">
        <ele>25.2</ele>
        <time>2020-06-14T16:48:26Z</time>
      </trkpt>
      <trkpt lat="49.43038" lon="-1.80467">
        <ele>24.8</ele>
        <time>2020-06-14T16:48:27Z</time>
      </trkpt>
      <trkpt lat="49.43045" lon="-1.80468">
        <ele>24.4</ele>
        <time>2020-06-14T16:48:28Z</time>
      </trkpt>
      <trkpt lat="49.43052" lon="-1.80469">
        <ele>23.9</ele>
        <time>2020-06-14T16:48:29Z</time>
      </trkpt>
      <trkpt lat="49.43059" lon="-1.80468">
        <ele>23.4</ele>
        <time>2020-06-14T16:48:30Z</time>
      </trkpt>
      <trkpt lat="49.43066" lon="-1.80469">
        <ele>22.7</ele>
        <time>2020-06-14T16:48:31Z</time>
      </trkpt>
      <trkpt lat="49.43074" lon="-1.80467">
        <ele>22.1</ele>
        <time>2020-06-14T16:48:32Z</time>
      </trkpt>
      <trkpt lat="49.43082" lon="-1.80468">
        <ele>21.4</ele>
        <time>2020-06-14T16:48:33Z</time>
      </trkpt>
      <trkpt lat="49.43091" lon="-1.80469">
        <ele>20.7</ele>
        <time>2020-06-14T16:48:34Z</time>
      </trkpt>
      <trkpt lat="49.431" lon="-1.80469">
        <ele>20</ele>
        <time>2020-06-14T16:48:35Z</time>
      </trkpt>
      <trkpt lat="49.43109" lon="-1.80468">
        <ele>19.4</ele>
        <time>2020-06-14T16:48:36Z</time>
      </trkpt>
      <trkpt lat="49.43118" lon="-1.80468">
        <ele>18.7</ele>
        <time>2020-06-14T16:48:37Z</time>
      </trkpt>
      <trkpt lat="49.43128" lon="-1.80468">
        <ele>18</ele>
        <time>2020-06-14T16:48:38Z</time>
      </trkpt>
      <trkpt lat="49.43138" lon="-1.80468">
        <ele>17.5</ele>
        <time>2020-06-14T16:48:39Z</time>
      </trkpt>
      <trkpt lat="49.43147" lon="-1.80469">
        <ele>17</ele>
        <time>2020-06-14T16:48:40Z</time>
      </trkpt>
      <trkpt lat="49.43157" lon="-1.80469">
        <ele>16.7</ele>
        <time>2020-06-14T16:48:41Z</time>
      </trkpt>
      <trkpt lat="49.43166" lon="-1.8047">
        <ele>16.4</ele>
        <time>2020-06-14T16:48:42Z</time>
      </trkpt>
      <trkpt lat="49.43176" lon="-1.8047">
        <ele>16.1</ele>
        <time>2020-06-14T16:48:43Z</time>
      </trkpt>
      <trkpt lat="49.43184" lon="-1.80471">
        <ele>16</ele>
        <time>2020-06-14T16:48:44Z</time>
      </trkpt>
      <trkpt lat="49.43193" lon="-1.80472">
        <ele>15.8</ele>
        <time>2020-06-14T16:48:45Z</time>
      </trkpt>
      <trkpt lat="49.43202" lon="-1.80471">
        <ele>15.7</ele>
        <time>2020-06-14T16:48:46Z</time>
      </trkpt>
      <trkpt lat="49.4321" lon="-1.80471">
        <ele>15.6</ele>
        <time>2020-06-14T16:48:47Z</time>
      </trkpt>
      <trkpt lat="49.43218" lon="-1.8047">
        <ele>15.5</ele>
        <time>2020-06-14T16:48:48Z</time>
      </trkpt>
      <trkpt lat="49.43226" lon="-1.8047">
        <ele>15.4</ele>
        <time>2020-06-14T16:48:49Z</time>
      </trkpt>
      <trkpt lat="49.43234" lon="-1.8047">
        <ele>15.4</ele>
        <time>2020-06-14T16:48:50Z</time>
      </trkpt>
      <trkpt lat="49.43242" lon="-1.8047">
        <ele>15.3</ele>
        <time>2020-06-14T16:48:51Z</time>
      </trkpt>
      <trkpt lat="49.4325" lon="-1.8047">
        <ele>15.3</ele>
        <time>2020-06-14T16:48:52Z</time>
      </trkpt>
      <trkpt lat="49.43258" lon="-1.80469">
        <ele>15.2</ele>
        <time>2020-06-14T16:48:53Z</time>
      </trkpt>
      <trkpt lat="49.43266" lon="-1.80468">
        <ele>15.1</ele>
        <time>2020-06-14T16:48:54Z</time>
      </trkpt>
      <trkpt lat="49.43273" lon="-1.80467">
        <ele>15</ele>
        <time>2020-06-14T16:48:55Z</time>
      </trkpt>
      <trkpt lat="49.43281" lon="-1.80466">
        <ele>15</ele>
        <time>2020-06-14T16:48:56Z</time>
      </trkpt>
      <trkpt lat="49.43289" lon="-1.80465">
        <ele>15</ele>
        <time>2020-06-14T16:48:57Z</time>
      </trkpt>
      <trkpt lat="49.43296" lon="-1.80464">
        <ele>15</ele>
        <time>2020-06-14T16:48:58Z</time>
      </trkpt>
      <trkpt lat="49.43304" lon="-1.80463">
        <ele>14.9</ele>
        <time>2020-06-14T16:48:59Z</time>
      </trkpt>
      <trkpt lat="49.43311" lon="-1.8046">
        <ele>14.9</ele>
        <time>2020-06-14T16:49:00Z</time>
      </trkpt>
      <trkpt lat="49.43318" lon="-1.80459">
        <ele>14.8</ele>
        <time>2020-06-14T16:49:01Z</time>
      </trkpt>
      <trkpt lat="49.43325" lon="-1.80458">
        <ele>14.8</ele>
        <time>2020-06-14T16:49:02Z</time>
      </trkpt>
      <trkpt lat="49.43332" lon="-1.80457">
        <ele>14.7</ele>
        <time>2020-06-14T16:49:03Z</time>
      </trkpt>
      <trkpt lat="49.43339" lon="-1.80456">
        <ele>14.7</ele>
        <time>2020-06-14T16:49:04Z</time>
      </trkpt>
      <trkpt lat="49.43346" lon="-1.80454">
        <ele>14.6</ele>
        <time>2020-06-14T16:49:05Z</time>
      </trkpt>
      <trkpt lat="49.43352" lon="-1.80453">
        <ele>14.6</ele>
        <time>2020-06-14T16:49:06Z</time>
      </trkpt>
      <trkpt lat="49.43359" lon="-1.80452">
        <ele>14.5</ele>
        <time>2020-06-14T16:49:07Z</time>
      </trkpt>
      <trkpt lat="49.43366" lon="-1.8045">
        <ele>14.4</ele>
        <time>2020-06-14T16:49:08Z</time>
      </trkpt>
      <trkpt lat="49.43373" lon="-1.8045">
        <ele>14.3</ele>
        <time>2020-06-14T16:49:09Z</time>
      </trkpt>
      <trkpt lat="49.43379" lon="-1.8045">
        <ele>14.3</ele>
        <time>2020-06-14T16:49:10Z</time>
      </trkpt>
      <trkpt lat="49.43386" lon="-1.80449">
        <ele>14.2</ele>
        <time>2020-06-14T16:49:11Z</time>
      </trkpt>
      <trkpt lat="49.43392" lon="-1.80447">
        <ele>14.2</ele>
        <time>2020-06-14T16:49:12Z</time>
      </trkpt>
      <trkpt lat="49.43399" lon="-1.80447">
        <ele>14.2</ele>
        <time>2020-06-14T16:49:13Z</time>
      </trkpt>
      <trkpt lat="49.43405" lon="-1.80446">
        <ele>14.2</ele>
        <time>2020-06-14T16:49:14Z</time>
      </trkpt>
      <trkpt lat="49.43412" lon="-1.80445">
        <ele>14.2</ele>
        <time>2020-06-14T16:49:15Z</time>
      </trkpt>
      <trkpt lat="49.43419" lon="-1.80444">
        <ele>14.2</ele>
        <time>2020-06-14T16:49:16Z</time>
      </trkpt>
      <trkpt lat="49.43426" lon="-1.80443">
        <ele>14.1</ele>
        <time>2020-06-14T16:49:17Z</time>
      </trkpt>
      <trkpt lat="49.43432" lon="-1.80441">
        <ele>14.1</ele>
        <time>2020-06-14T16:49:18Z</time>
      </trkpt>
      <trkpt lat="49.43439" lon="-1.80441">
        <ele>14.2</ele>
        <time>2020-06-14T16:49:19Z</time>
      </trkpt>
      <trkpt lat="49.43446" lon="-1.8044">
        <ele>14.2</ele>
        <time>2020-06-14T16:49:20Z</time>
      </trkpt>
      <trkpt lat="49.43452" lon="-1.80439">
        <ele>14.2</ele>
        <time>2020-06-14T16:49:21Z</time>
      </trkpt>
      <trkpt lat="49.43459" lon="-1.8044">
        <ele>14.3</ele>
        <time>2020-06-14T16:49:22Z</time>
      </trkpt>
      <trkpt lat="49.43465" lon="-1.80439">
        <ele>14.3</ele>
        <time>2020-06-14T16:49:23Z</time>
      </trkpt>
      <trkpt lat="49.43471" lon="-1.80439">
        <ele>14.4</ele>
        <time>2020-06-14T16:49:24Z</time>
      </trkpt>
      <trkpt lat="49.43477" lon="-1.80437">
        <ele>14.4</ele>
        <time>2020-06-14T16:49:25Z</time>
      </trkpt>
      <trkpt lat="49.43483" lon="-1.80437">
        <ele>14.5</ele>
        <time>2020-06-14T16:49:26Z</time>
      </trkpt>
      <trkpt lat="49.43488" lon="-1.80437">
        <ele>14.6</ele>
        <time>2020-06-14T16:49:27Z</time>
      </trkpt>
      <trkpt lat="49.43494" lon="-1.80437">
        <ele>14.6</ele>
        <time>2020-06-14T16:49:28Z</time>
      </trkpt>
      <trkpt lat="49.435" lon="-1.80436">
        <ele>14.7</ele>
        <time>2020-06-14T16:49:29Z</time>
      </trkpt>
      <trkpt lat="49.43505" lon="-1.80435">
        <ele>14.7</ele>
        <time>2020-06-14T16:49:30Z</time>
      </trkpt>
      <trkpt lat="49.4351" lon="-1.80435">
        <ele>14.8</ele>
        <time>2020-06-14T16:49:31Z</time>
      </trkpt>
      <trkpt lat="49.43515" lon="-1.80433">
        <ele>14.8</ele>
        <time>2020-06-14T16:49:32Z</time>
      </trkpt>
      <trkpt lat="49.4352" lon="-1.80432">
        <ele>14.9</ele>
        <time>2020-06-14T16:49:33Z</time>
      </trkpt>
      <trkpt lat="49.43525" lon="-1.80432">
        <ele>15</ele>
        <time>2020-06-14T16:49:34Z</time>
      </trkpt>
      <trkpt lat="49.43529" lon="-1.80431">
        <ele>15.1</ele>
        <time>2020-06-14T16:49:35Z</time>
      </trkpt>
      <trkpt lat="49.43533" lon="-1.80431">
        <ele>15.1</ele>
        <time>2020-06-14T16:49:36Z</time>
      </trkpt>
      <trkpt lat="49.43537" lon="-1.80434">
        <ele>15.2</ele>
        <time>2020-06-14T16:49:37Z</time>
      </trkpt>
      <trkpt lat="49.43538" lon="-1.80438">
        <ele>15.2</ele>
        <time>2020-06-14T16:49:38Z</time>
      </trkpt>
      <trkpt lat="49.43536" lon="-1.80445">
        <ele>15</ele>
        <time>2020-06-14T16:49:39Z</time>
      </trkpt>
      <trkpt lat="49.43535" lon="-1.80452">
        <ele>15</ele>
        <time>2020-06-14T16:49:40Z</time>
      </trkpt>
      <trkpt lat="49.43534" lon="-1.80459">
        <ele>14.9</ele>
        <time>2020-06-14T16:49:41Z</time>
      </trkpt>
      <trkpt lat="49.43534" lon="-1.80467">
        <ele>14.8</ele>
        <time>2020-06-14T16:49:42Z</time>
      </trkpt>
      <trkpt lat="49.43534" lon="-1.80475">
        <ele>14.8</ele>
        <time>2020-06-14T16:49:43Z</time>
      </trkpt>
      <trkpt lat="49.43534" lon="-1.80483">
        <ele>14.7</ele>
        <time>2020-06-14T16:49:44Z</time>
      </trkpt>
      <trkpt lat="49.43534" lon="-1.80491">
        <ele>14.7</ele>
        <time>2020-06-14T16:49:45Z</time>
      </trkpt>
      <trkpt lat="49.43534" lon="-1.80498">
        <ele>14.7</ele>
        <time>2020-06-14T16:49:46Z</time>
      </trkpt>
      <trkpt lat="49.43535" lon="-1.80505">
        <ele>14.7</ele>
        <time>2020-06-14T16:49:47Z</time>
      </trkpt>
      <trkpt lat="49.43535" lon="-1.80512">
        <ele>14.7</ele>
        <time>2020-06-14T16:49:48Z</time>
      </trkpt>
      <trkpt lat="49.43539" lon="-1.80514">
        <ele>14.7</ele>
        <time>2020-06-14T16:49:49Z</time>
      </trkpt>
      <trkpt lat="49.43544" lon="-1.80516">
        <ele>14.6</ele>
        <time>2020-06-14T16:49:50Z</time>
      </trkpt>
      <trkpt lat="49.43549" lon="-1.80516">
        <ele>14.6</ele>
        <time>2020-06-14T16:49:51Z</time>
      </trkpt>
      <trkpt lat="49.43554" lon="-1.80518">
        <ele>14.6</ele>
        <time>2020-06-14T16:49:52Z</time>
      </trkpt>
      <trkpt lat="49.43559" lon="-1.80518">
        <ele>14.5</ele>
        <time>2020-06-14T16:49:53Z</time>
      </trkpt>
      <trkpt lat="49.43565" lon="-1.80519">
        <ele>14.5</ele>
        <time>2020-06-14T16:49:54Z</time>
      </trkpt>
      <trkpt lat="49.4357" lon="-1.80519">
        <ele>14.4</ele>
        <time>2020-06-14T16:49:55Z</time>
      </trkpt>
      <trkpt lat="49.43575" lon="-1.80518">
        <ele>14.3</ele>
        <time>2020-06-14T16:49:56Z</time>
      </trkpt>
      <trkpt lat="49.43581" lon="-1.80519">
        <ele>14.3</ele>
        <time>2020-06-14T16:49:57Z</time>
      </trkpt>
      <trkpt lat="49.43586" lon="-1.80519">
        <ele>14.2</ele>
        <time>2020-06-14T16:49:58Z</time>
      </trkpt>
      <trkpt lat="49.43592" lon="-1.80521">
        <ele>14.1</ele>
        <time>2020-06-14T16:49:59Z</time>
      </trkpt>
      <trkpt lat="49.43598" lon="-1.80523">
        <ele>14</ele>
        <time>2020-06-14T16:50:00Z</time>
      </trkpt>
      <trkpt lat="49.43603" lon="-1.80525">
        <ele>13.9</ele>
        <time>2020-06-14T16:50:01Z</time>
      </trkpt>
      <trkpt lat="49.43609" lon="-1.80525">
        <ele>13.8</ele>
        <time>2020-06-14T16:50:02Z</time>
      </trkpt>
      <trkpt lat="49.43615" lon="-1.80525">
        <ele>13.8</ele>
        <time>2020-06-14T16:50:03Z</time>
      </trkpt>
      <trkpt lat="49.43621" lon="-1.80526">
        <ele>13.7</ele>
        <time>2020-06-14T16:50:04Z</time>
      </trkpt>
      <trkpt lat="49.43627" lon="-1.80526">
        <ele>13.7</ele>
        <time>2020-06-14T16:50:05Z</time>
      </trkpt>
      <trkpt lat="49.43633" lon="-1.80526">
        <ele>13.6</ele>
        <time>2020-06-14T16:50:06Z</time>
      </trkpt>
      <trkpt lat="49.43639" lon="-1.80527">
        <ele>13.5</ele>
        <time>2020-06-14T16:50:07Z</time>
      </trkpt>
      <trkpt lat="49.43645" lon="-1.80528">
        <ele>13.4</ele>
        <time>2020-06-14T16:50:08Z</time>
      </trkpt>
      <trkpt lat="49.43651" lon="-1.80529">
        <ele>13.4</ele>
        <time>2020-06-14T16:50:09Z</time>
      </trkpt>
      <trkpt lat="49.43656" lon="-1.80531">
        <ele>13.3</ele>
        <time>2020-06-14T16:50:10Z</time>
      </trkpt>
      <trkpt lat="49.43662" lon="-1.80533">
        <ele>13.2</ele>
        <time>2020-06-14T16:50:11Z</time>
      </trkpt>
      <trkpt lat="49.43668" lon="-1.80535">
        <ele>13.1</ele>
        <time>2020-06-14T16:50:12Z</time>
      </trkpt>
      <trkpt lat="49.43673" lon="-1.80537">
        <ele>13.1</ele>
        <time>2020-06-14T16:50:13Z</time>
      </trkpt>
      <trkpt lat="49.43679" lon="-1.80537">
        <ele>13</ele>
        <time>2020-06-14T16:50:14Z</time>
      </trkpt>
      <trkpt lat="49.43685" lon="-1.80537">
        <ele>12.9</ele>
        <time>2020-06-14T16:50:15Z</time>
      </trkpt>
      <trkpt lat="49.43691" lon="-1.80538">
        <ele>12.9</ele>
        <time>2020-06-14T16:50:16Z</time>
      </trkpt>
      <trkpt lat="49.43697" lon="-1.8054">
        <ele>12.8</ele>
        <time>2020-06-14T16:50:17Z</time>
      </trkpt>
      <trkpt lat="49.43703" lon="-1.80543">
        <ele>12.7</ele>
        <time>2020-06-14T16:50:18Z</time>
      </trkpt>
      <trkpt lat="49.43709" lon="-1.80545">
        <ele>12.7</ele>
        <time>2020-06-14T16:50:19Z</time>
      </trkpt>
      <trkpt lat="49.43715" lon="-1.80546">
        <ele>12.6</ele>
        <time>2020-06-14T16:50:20Z</time>
      </trkpt>
      <trkpt lat="49.43721" lon="-1.80548">
        <ele>12.6</ele>
        <time>2020-06-14T16:50:21Z</time>
      </trkpt>
      <trkpt lat="49.43727" lon="-1.8055">
        <ele>12.5</ele>
        <time>2020-06-14T16:50:22Z</time>
      </trkpt>
      <trkpt lat="49.43733" lon="-1.80551">
        <ele>12.4</ele>
        <time>2020-06-14T16:50:23Z</time>
      </trkpt>
      <trkpt lat="49.43739" lon="-1.80552">
        <ele>12.4</ele>
        <time>2020-06-14T16:50:24Z</time>
      </trkpt>
      <trkpt lat="49.43745" lon="-1.80552">
        <ele>12.3</ele>
        <time>2020-06-14T16:50:25Z</time>
      </trkpt>
      <trkpt lat="49.43751" lon="-1.80554">
        <ele>12.3</ele>
        <time>2020-06-14T16:50:26Z</time>
      </trkpt>
      <trkpt lat="49.43756" lon="-1.80555">
        <ele>12.2</ele>
        <time>2020-06-14T16:50:27Z</time>
      </trkpt>
      <trkpt lat="49.43762" lon="-1.80557">
        <ele>12.1</ele>
        <time>2020-06-14T16:50:28Z</time>
      </trkpt>
      <trkpt lat="49.43768" lon="-1.80558">
        <ele>12.1</ele>
        <time>2020-06-14T16:50:29Z</time>
      </trkpt>
      <trkpt lat="49.43774" lon="-1.80559">
        <ele>12</ele>
        <time>2020-06-14T16:50:30Z</time>
      </trkpt>
      <trkpt lat="49.43779" lon="-1.80561">
        <ele>12</ele>
        <time>2020-06-14T16:50:31Z</time>
      </trkpt>
      <trkpt lat="49.43785" lon="-1.8056">
        <ele>11.9</ele>
        <time>2020-06-14T16:50:32Z</time>
      </trkpt>
      <trkpt lat="49.43791" lon="-1.80561">
        <ele>11.9</ele>
        <time>2020-06-14T16:50:33Z</time>
      </trkpt>
      <trkpt lat="49.43796" lon="-1.80563">
        <ele>11.9</ele>
        <time>2020-06-14T16:50:34Z</time>
      </trkpt>
      <trkpt lat="49.43802" lon="-1.80564">
        <ele>11.9</ele>
        <time>2020-06-14T16:50:35Z</time>
      </trkpt>
      <trkpt lat="49.43808" lon="-1.80564">
        <ele>11.9</ele>
        <time>2020-06-14T16:50:36Z</time>
      </trkpt>
      <trkpt lat="49.43814" lon="-1.80565">
        <ele>11.8</ele>
        <time>2020-06-14T16:50:37Z</time>
      </trkpt>
      <trkpt lat="49.4382" lon="-1.80566">
        <ele>11.8</ele>
        <time>2020-06-14T16:50:38Z</time>
      </trkpt>
      <trkpt lat="49.43826" lon="-1.80567">
        <ele>11.8</ele>
        <time>2020-06-14T16:50:39Z</time>
      </trkpt>
      <trkpt lat="49.43832" lon="-1.80568">
        <ele>11.7</ele>
        <time>2020-06-14T16:50:40Z</time>
      </trkpt>
      <trkpt lat="49.43838" lon="-1.80569">
        <ele>11.7</ele>
        <time>2020-06-14T16:50:41Z</time>
      </trkpt>
      <trkpt lat="49.43844" lon="-1.8057">
        <ele>11.7</ele>
        <time>2020-06-14T16:50:42Z</time>
      </trkpt>
      <trkpt lat="49.4385" lon="-1.80569">
        <ele>11.7</ele>
        <time>2020-06-14T16:50:43Z</time>
      </trkpt>
      <trkpt lat="49.43856" lon="-1.80571">
        <ele>11.6</ele>
        <time>2020-06-14T16:50:44Z</time>
      </trkpt>
      <trkpt lat="49.43862" lon="-1.80571">
        <ele>11.6</ele>
        <time>2020-06-14T16:50:45Z</time>
      </trkpt>
      <trkpt lat="49.43868" lon="-1.80571">
        <ele>11.6</ele>
        <time>2020-06-14T16:50:46Z</time>
      </trkpt>
      <trkpt lat="49.43874" lon="-1.80572">
        <ele>11.6</ele>
        <time>2020-06-14T16:50:47Z</time>
      </trkpt>
      <trkpt lat="49.43879" lon="-1.80574">
        <ele>11.6</ele>
        <time>2020-06-14T16:50:48Z</time>
      </trkpt>
      <trkpt lat="49.43885" lon="-1.80576">
        <ele>11.6</ele>
        <time>2020-06-14T16:50:49Z</time>
      </trkpt>
      <trkpt lat="49.43891" lon="-1.80577">
        <ele>11.6</ele>
        <time>2020-06-14T16:50:50Z</time>
      </trkpt>
      <trkpt lat="49.43896" lon="-1.80578">
        <ele>11.6</ele>
        <time>2020-06-14T16:50:51Z</time>
      </trkpt>
      <trkpt lat="49.43902" lon="-1.80579">
        <ele>11.6</ele>
        <time>2020-06-14T16:50:52Z</time>
      </trkpt>
      <trkpt lat="49.43908" lon="-1.80579">
        <ele>11.6</ele>
        <time>2020-06-14T16:50:53Z</time>
      </trkpt>
      <trkpt lat="49.43913" lon="-1.8058">
        <ele>11.6</ele>
        <time>2020-06-14T16:50:54Z</time>
      </trkpt>
      <trkpt lat="49.43919" lon="-1.80579">
        <ele>11.6</ele>
        <time>2020-06-14T16:50:55Z</time>
      </trkpt>
      <trkpt lat="49.43924" lon="-1.80581">
        <ele>11.6</ele>
        <time>2020-06-14T16:50:56Z</time>
      </trkpt>
      <trkpt lat="49.4393" lon="-1.80582">
        <ele>11.6</ele>
        <time>2020-06-14T16:50:57Z</time>
      </trkpt>
      <trkpt lat="49.43936" lon="-1.80584">
        <ele>11.6</ele>
        <time>2020-06-14T16:50:58Z</time>
      </trkpt>
      <trkpt lat="49.43942" lon="-1.80585">
        <ele>11.6</ele>
        <time>2020-06-14T16:50:59Z</time>
      </trkpt>
      <trkpt lat="49.43947" lon="-1.80587">
        <ele>11.6</ele>
        <time>2020-06-14T16:51:00Z</time>
      </trkpt>
      <trkpt lat="49.43953" lon="-1.80588">
        <ele>11.6</ele>
        <time>2020-06-14T16:51:01Z</time>
      </trkpt>
      <trkpt lat="49.43958" lon="-1.8059">
        <ele>11.6</ele>
        <time>2020-06-14T16:51:02Z</time>
      </trkpt>
      <trkpt lat="49.43964" lon="-1.80591">
        <ele>11.7</ele>
        <time>2020-06-14T16:51:03Z</time>
      </trkpt>
      <trkpt lat="49.43969" lon="-1.80592">
        <ele>11.7</ele>
        <time>2020-06-14T16:51:04Z</time>
      </trkpt>
      <trkpt lat="49.43975" lon="-1.80591">
        <ele>11.7</ele>
        <time>2020-06-14T16:51:05Z</time>
      </trkpt>
      <trkpt lat="49.43981" lon="-1.80591">
        <ele>11.7</ele>
        <time>2020-06-14T16:51:06Z</time>
      </trkpt>
      <trkpt lat="49.43986" lon="-1.80591">
        <ele>11.7</ele>
        <time>2020-06-14T16:51:07Z</time>
      </trkpt>
      <trkpt lat="49.43992" lon="-1.80592">
        <ele>11.8</ele>
        <time>2020-06-14T16:51:08Z</time>
      </trkpt>
      <trkpt lat="49.43997" lon="-1.80592">
        <ele>11.8</ele>
        <time>2020-06-14T16:51:09Z</time>
      </trkpt>
      <trkpt lat="49.44003" lon="-1.80593">
        <ele>11.9</ele>
        <time>2020-06-14T16:51:10Z</time>
      </trkpt>
      <trkpt lat="49.44008" lon="-1.80594">
        <ele>12</ele>
        <time>2020-06-14T16:51:11Z</time>
      </trkpt>
      <trkpt lat="49.44013" lon="-1.80593">
        <ele>12.1</ele>
        <time>2020-06-14T16:51:12Z</time>
      </trkpt>
      <trkpt lat="49.44018" lon="-1.80593">
        <ele>12.3</ele>
        <time>2020-06-14T16:51:13Z</time>
      </trkpt>
      <trkpt lat="49.44023" lon="-1.80594">
        <ele>12.4</ele>
        <time>2020-06-14T16:51:14Z</time>
      </trkpt>
      <trkpt lat="49.44027" lon="-1.80595">
        <ele>12.5</ele>
        <time>2020-06-14T16:51:15Z</time>
      </trkpt>
      <trkpt lat="49.44031" lon="-1.80596">
        <ele>12.5</ele>
        <time>2020-06-14T16:51:16Z</time>
      </trkpt>
      <trkpt lat="49.44036" lon="-1.80596">
        <ele>12.5</ele>
        <time>2020-06-14T16:51:17Z</time>
      </trkpt>
      <trkpt lat="49.44041" lon="-1.80598">
        <ele>12.5</ele>
        <time>2020-06-14T16:51:18Z</time>
      </trkpt>
      <trkpt lat="49.44045" lon="-1.806">
        <ele>12.5</ele>
        <time>2020-06-14T16:51:19Z</time>
      </trkpt>
      <trkpt lat="49.4405" lon="-1.80601">
        <ele>12.4</ele>
        <time>2020-06-14T16:51:20Z</time>
      </trkpt>
      <trkpt lat="49.44054" lon="-1.80602">
        <ele>12.4</ele>
        <time>2020-06-14T16:51:21Z</time>
      </trkpt>
      <trkpt lat="49.44059" lon="-1.80601">
        <ele>12.3</ele>
        <time>2020-06-14T16:51:22Z</time>
      </trkpt>
      <trkpt lat="49.44063" lon="-1.806">
        <ele>12.3</ele>
        <time>2020-06-14T16:51:23Z</time>
      </trkpt>
      <trkpt lat="49.44068" lon="-1.80599">
        <ele>12.3</ele>
        <time>2020-06-14T16:51:24Z</time>
      </trkpt>
      <trkpt lat="49.44073" lon="-1.80595">
        <ele>12.2</ele>
        <time>2020-06-14T16:51:25Z</time>
      </trkpt>
      <trkpt lat="49.44079" lon="-1.80595">
        <ele>12.2</ele>
        <time>2020-06-14T16:51:26Z</time>
      </trkpt>
      <trkpt lat="49.44084" lon="-1.80594">
        <ele>12.2</ele>
        <time>2020-06-14T16:51:27Z</time>
      </trkpt>
      <trkpt lat="49.44089" lon="-1.80592">
        <ele>12.2</ele>
        <time>2020-06-14T16:51:28Z</time>
      </trkpt>
      <trkpt lat="49.44094" lon="-1.80591">
        <ele>12.2</ele>
        <time>2020-06-14T16:51:29Z</time>
      </trkpt>
      <trkpt lat="49.44099" lon="-1.80588">
        <ele>12.2</ele>
        <time>2020-06-14T16:51:30Z</time>
      </trkpt>
      <trkpt lat="49.44104" lon="-1.80585">
        <ele>12.2</ele>
        <time>2020-06-14T16:51:31Z</time>
      </trkpt>
      <trkpt lat="49.4411" lon="-1.80584">
        <ele>12.2</ele>
        <time>2020-06-14T16:51:32Z</time>
      </trkpt>
      <trkpt lat="49.44115" lon="-1.80582">
        <ele>12.2</ele>
        <time>2020-06-14T16:51:33Z</time>
      </trkpt>
      <trkpt lat="49.4412" lon="-1.80581">
        <ele>12.2</ele>
        <time>2020-06-14T16:51:34Z</time>
      </trkpt>
      <trkpt lat="49.44125" lon="-1.80578">
        <ele>12.2</ele>
        <time>2020-06-14T16:51:35Z</time>
      </trkpt>
      <trkpt lat="49.4413" lon="-1.80577">
        <ele>12.2</ele>
        <time>2020-06-14T16:51:36Z</time>
      </trkpt>
      <trkpt lat="49.44136" lon="-1.80576">
        <ele>12.2</ele>
        <time>2020-06-14T16:51:37Z</time>
      </trkpt>
      <trkpt lat="49.44141" lon="-1.80574">
        <ele>12.2</ele>
        <time>2020-06-14T16:51:38Z</time>
      </trkpt>
      <trkpt lat="49.44146" lon="-1.80572">
        <ele>12.2</ele>
        <time>2020-06-14T16:51:39Z</time>
      </trkpt>
      <trkpt lat="49.44151" lon="-1.8057">
        <ele>12.1</ele>
        <time>2020-06-14T16:51:40Z</time>
      </trkpt>
      <trkpt lat="49.44157" lon="-1.8057">
        <ele>12.1</ele>
        <time>2020-06-14T16:51:41Z</time>
      </trkpt>
      <trkpt lat="49.44162" lon="-1.80568">
        <ele>12.1</ele>
        <time>2020-06-14T16:51:42Z</time>
      </trkpt>
      <trkpt lat="49.44167" lon="-1.80567">
        <ele>12.1</ele>
        <time>2020-06-14T16:51:43Z</time>
      </trkpt>
      <trkpt lat="49.44172" lon="-1.80565">
        <ele>12.2</ele>
        <time>2020-06-14T16:51:44Z</time>
      </trkpt>
      <trkpt lat="49.44178" lon="-1.80563">
        <ele>12.2</ele>
        <time>2020-06-14T16:51:45Z</time>
      </trkpt>
      <trkpt lat="49.44183" lon="-1.8056">
        <ele>12.1</ele>
        <time>2020-06-14T16:51:46Z</time>
      </trkpt>
      <trkpt lat="49.44189" lon="-1.80559">
        <ele>12</ele>
        <time>2020-06-14T16:51:47Z</time>
      </trkpt>
      <trkpt lat="49.44195" lon="-1.80557">
        <ele>11.9</ele>
        <time>2020-06-14T16:51:48Z</time>
      </trkpt>
      <trkpt lat="49.442" lon="-1.80555">
        <ele>11.8</ele>
        <time>2020-06-14T16:51:49Z</time>
      </trkpt>
      <trkpt lat="49.44206" lon="-1.80553">
        <ele>11.7</ele>
        <time>2020-06-14T16:51:50Z</time>
      </trkpt>
      <trkpt lat="49.44211" lon="-1.80551">
        <ele>11.6</ele>
        <time>2020-06-14T16:51:51Z</time>
      </trkpt>
      <trkpt lat="49.44217" lon="-1.8055">
        <ele>11.5</ele>
        <time>2020-06-14T16:51:52Z</time>
      </trkpt>
      <trkpt lat="49.44223" lon="-1.80548">
        <ele>11.5</ele>
        <time>2020-06-14T16:51:53Z</time>
      </trkpt>
      <trkpt lat="49.44228" lon="-1.80547">
        <ele>11.4</ele>
        <time>2020-06-14T16:51:54Z</time>
      </trkpt>
      <trkpt lat="49.44233" lon="-1.80546">
        <ele>11.3</ele>
        <time>2020-06-14T16:51:55Z</time>
      </trkpt>
      <trkpt lat="49.44238" lon="-1.80544">
        <ele>11.2</ele>
        <time>2020-06-14T16:51:56Z</time>
      </trkpt>
      <trkpt lat="49.44243" lon="-1.80543">
        <ele>11.2</ele>
        <time>2020-06-14T16:51:57Z</time>
      </trkpt>
      <trkpt lat="49.44248" lon="-1.80541">
        <ele>11.1</ele>
        <time>2020-06-14T16:51:58Z</time>
      </trkpt>
      <trkpt lat="49.44253" lon="-1.8054">
        <ele>11.1</ele>
        <time>2020-06-14T16:51:59Z</time>
      </trkpt>
      <trkpt lat="49.44258" lon="-1.80538">
        <ele>11</ele>
        <time>2020-06-14T16:52:00Z</time>
      </trkpt>
      <trkpt lat="49.44262" lon="-1.80537">
        <ele>11</ele>
        <time>2020-06-14T16:52:01Z</time>
      </trkpt>
      <trkpt lat="49.44266" lon="-1.80535">
        <ele>11</ele>
        <time>2020-06-14T16:52:02Z</time>
      </trkpt>
      <trkpt lat="49.44269" lon="-1.80534">
        <ele>11</ele>
        <time>2020-06-14T16:52:03Z</time>
      </trkpt>
      <trkpt lat="49.44273" lon="-1.80532">
        <ele>11</ele>
        <time>2020-06-14T16:52:04Z</time>
      </trkpt>
      <trkpt lat="49.44277" lon="-1.80527">
        <ele>10.9</ele>
        <time>2020-06-14T16:52:05Z</time>
      </trkpt>
      <trkpt lat="49.44279" lon="-1.80519">
        <ele>10.8</ele>
        <time>2020-06-14T16:52:06Z</time>
      </trkpt>
      <trkpt lat="49.44281" lon="-1.80512">
        <ele>10.8</ele>
        <time>2020-06-14T16:52:07Z</time>
      </trkpt>
      <trkpt lat="49.44283" lon="-1.80505">
        <ele>10.7</ele>
        <time>2020-06-14T16:52:08Z</time>
      </trkpt>
      <trkpt lat="49.44285" lon="-1.80498">
        <ele>10.7</ele>
        <time>2020-06-14T16:52:09Z</time>
      </trkpt>
      <trkpt lat="49.44287" lon="-1.80491">
        <ele>10.6</ele>
        <time>2020-06-14T16:52:10Z</time>
      </trkpt>
      <trkpt lat="49.44289" lon="-1.80484">
        <ele>10.6</ele>
        <time>2020-06-14T16:52:11Z</time>
      </trkpt>
      <trkpt lat="49.4429" lon="-1.80478">
        <ele>10.6</ele>
        <time>2020-06-14T16:52:12Z</time>
      </trkpt>
      <trkpt lat="49.4429" lon="-1.80471">
        <ele>10.6</ele>
        <time>2020-06-14T16:52:13Z</time>
      </trkpt>
      <trkpt lat="49.44291" lon="-1.80464">
        <ele>10.6</ele>
        <time>2020-06-14T16:52:14Z</time>
      </trkpt>
      <trkpt lat="49.44292" lon="-1.80457">
        <ele>10.7</ele>
        <time>2020-06-14T16:52:15Z</time>
      </trkpt>
      <trkpt lat="49.44294" lon="-1.8045">
        <ele>10.7</ele>
        <time>2020-06-14T16:52:16Z</time>
      </trkpt>
      <trkpt lat="49.44296" lon="-1.80444">
        <ele>10.7</ele>
        <time>2020-06-14T16:52:17Z</time>
      </trkpt>
      <trkpt lat="49.44298" lon="-1.80438">
        <ele>10.8</ele>
        <time>2020-06-14T16:52:18Z</time>
      </trkpt>
      <trkpt lat="49.44299" lon="-1.80433">
        <ele>10.8</ele>
        <time>2020-06-14T16:52:19Z</time>
      </trkpt>
      <trkpt lat="49.44301" lon="-1.80429">
        <ele>10.8</ele>
        <time>2020-06-14T16:52:20Z</time>
      </trkpt>
      <trkpt lat="49.44303" lon="-1.80426">
        <ele>10.9</ele>
        <time>2020-06-14T16:52:21Z</time>
      </trkpt>
      <trkpt lat="49.44306" lon="-1.80424">
        <ele>10.9</ele>
        <time>2020-06-14T16:52:22Z</time>
      </trkpt>
      <trkpt lat="49.4431" lon="-1.80424">
        <ele>10.5</ele>
        <time>2020-06-14T16:52:23Z</time>
      </trkpt>
      <trkpt lat="49.44313" lon="-1.80426">
        <ele>10.4</ele>
        <time>2020-06-14T16:52:24Z</time>
      </trkpt>
      <trkpt lat="49.44317" lon="-1.8043">
        <ele>10.3</ele>
        <time>2020-06-14T16:52:25Z</time>
      </trkpt>
      <trkpt lat="49.44322" lon="-1.80433">
        <ele>10.1</ele>
        <time>2020-06-14T16:52:26Z</time>
      </trkpt>
      <trkpt lat="49.44327" lon="-1.80436">
        <ele>10</ele>
        <time>2020-06-14T16:52:27Z</time>
      </trkpt>
      <trkpt lat="49.44331" lon="-1.80439">
        <ele>9.9</ele>
        <time>2020-06-14T16:52:28Z</time>
      </trkpt>
      <trkpt lat="49.44336" lon="-1.80443">
        <ele>9.8</ele>
        <time>2020-06-14T16:52:29Z</time>
      </trkpt>
      <trkpt lat="49.44341" lon="-1.80446">
        <ele>9.8</ele>
        <time>2020-06-14T16:52:30Z</time>
      </trkpt>
      <trkpt lat="49.44346" lon="-1.8045">
        <ele>9.7</ele>
        <time>2020-06-14T16:52:31Z</time>
      </trkpt>
      <trkpt lat="49.44351" lon="-1.80454">
        <ele>9.7</ele>
        <time>2020-06-14T16:52:32Z</time>
      </trkpt>
      <trkpt lat="49.44356" lon="-1.80456">
        <ele>9.6</ele>
        <time>2020-06-14T16:52:33Z</time>
      </trkpt>
      <trkpt lat="49.44362" lon="-1.80459">
        <ele>9.6</ele>
        <time>2020-06-14T16:52:34Z</time>
      </trkpt>
      <trkpt lat="49.44367" lon="-1.80461">
        <ele>9.6</ele>
        <time>2020-06-14T16:52:35Z</time>
      </trkpt>
      <trkpt lat="49.44373" lon="-1.80463">
        <ele>9.5</ele>
        <time>2020-06-14T16:52:36Z</time>
      </trkpt>
      <trkpt lat="49.44378" lon="-1.80465">
        <ele>9.4</ele>
        <time>2020-06-14T16:52:37Z</time>
      </trkpt>
      <trkpt lat="49.44384" lon="-1.80466">
        <ele>9.4</ele>
        <time>2020-06-14T16:52:38Z</time>
      </trkpt>
      <trkpt lat="49.44389" lon="-1.80467">
        <ele>9.3</ele>
        <time>2020-06-14T16:52:39Z</time>
      </trkpt>
      <trkpt lat="49.44395" lon="-1.80466">
        <ele>9.2</ele>
        <time>2020-06-14T16:52:40Z</time>
      </trkpt>
      <trkpt lat="49.444" lon="-1.80465">
        <ele>9.1</ele>
        <time>2020-06-14T16:52:41Z</time>
      </trkpt>
      <trkpt lat="49.44405" lon="-1.80464">
        <ele>9.1</ele>
        <time>2020-06-14T16:52:42Z</time>
      </trkpt>
      <trkpt lat="49.44411" lon="-1.80464">
        <ele>9</ele>
        <time>2020-06-14T16:52:43Z</time>
      </trkpt>
      <trkpt lat="49.44417" lon="-1.80465">
        <ele>9</ele>
        <time>2020-06-14T16:52:44Z</time>
      </trkpt>
      <trkpt lat="49.44422" lon="-1.80467">
        <ele>8.9</ele>
        <time>2020-06-14T16:52:45Z</time>
      </trkpt>
      <trkpt lat="49.44428" lon="-1.80469">
        <ele>8.9</ele>
        <time>2020-06-14T16:52:46Z</time>
      </trkpt>
      <trkpt lat="49.44434" lon="-1.80472">
        <ele>8.9</ele>
        <time>2020-06-14T16:52:47Z</time>
      </trkpt>
      <trkpt lat="49.44439" lon="-1.80474">
        <ele>8.9</ele>
        <time>2020-06-14T16:52:48Z</time>
      </trkpt>
      <trkpt lat="49.44445" lon="-1.80477">
        <ele>8.9</ele>
        <time>2020-06-14T16:52:49Z</time>
      </trkpt>
      <trkpt lat="49.4445" lon="-1.8048">
        <ele>8.9</ele>
        <time>2020-06-14T16:52:50Z</time>
      </trkpt>
      <trkpt lat="49.44455" lon="-1.80484">
        <ele>8.8</ele>
        <time>2020-06-14T16:52:51Z</time>
      </trkpt>
      <trkpt lat="49.44461" lon="-1.80486">
        <ele>8.8</ele>
        <time>2020-06-14T16:52:52Z</time>
      </trkpt>
      <trkpt lat="49.44466" lon="-1.80488">
        <ele>8.8</ele>
        <time>2020-06-14T16:52:53Z</time>
      </trkpt>
      <trkpt lat="49.44471" lon="-1.80491">
        <ele>8.8</ele>
        <time>2020-06-14T16:52:54Z</time>
      </trkpt>
      <trkpt lat="49.44477" lon="-1.80493">
        <ele>8.8</ele>
        <time>2020-06-14T16:52:55Z</time>
      </trkpt>
      <trkpt lat="49.44482" lon="-1.80495">
        <ele>8.7</ele>
        <time>2020-06-14T16:52:56Z</time>
      </trkpt>
      <trkpt lat="49.44488" lon="-1.80496">
        <ele>8.7</ele>
        <time>2020-06-14T16:52:57Z</time>
      </trkpt>
      <trkpt lat="49.44493" lon="-1.80497">
        <ele>8.7</ele>
        <time>2020-06-14T16:52:58Z</time>
      </trkpt>
      <trkpt lat="49.44498" lon="-1.80498">
        <ele>8.7</ele>
        <time>2020-06-14T16:52:59Z</time>
      </trkpt>
      <trkpt lat="49.44503" lon="-1.80499">
        <ele>8.7</ele>
        <time>2020-06-14T16:53:00Z</time>
      </trkpt>
      <trkpt lat="49.44509" lon="-1.80499">
        <ele>8.7</ele>
        <time>2020-06-14T16:53:01Z</time>
      </trkpt>
      <trkpt lat="49.44514" lon="-1.805">
        <ele>8.7</ele>
        <time>2020-06-14T16:53:02Z</time>
      </trkpt>
      <trkpt lat="49.44519" lon="-1.80501">
        <ele>8.7</ele>
        <time>2020-06-14T16:53:03Z</time>
      </trkpt>
      <trkpt lat="49.44524" lon="-1.80502">
        <ele>8.7</ele>
        <time>2020-06-14T16:53:04Z</time>
      </trkpt>
      <trkpt lat="49.4453" lon="-1.80502">
        <ele>8.7</ele>
        <time>2020-06-14T16:53:05Z</time>
      </trkpt>
      <trkpt lat="49.44535" lon="-1.80502">
        <ele>8.7</ele>
        <time>2020-06-14T16:53:06Z</time>
      </trkpt>
      <trkpt lat="49.4454" lon="-1.80503">
        <ele>8.8</ele>
        <time>2020-06-14T16:53:07Z</time>
      </trkpt>
      <trkpt lat="49.44546" lon="-1.80503">
        <ele>8.8</ele>
        <time>2020-06-14T16:53:08Z</time>
      </trkpt>
      <trkpt lat="49.44551" lon="-1.80504">
        <ele>8.9</ele>
        <time>2020-06-14T16:53:09Z</time>
      </trkpt>
      <trkpt lat="49.44556" lon="-1.80507">
        <ele>9</ele>
        <time>2020-06-14T16:53:10Z</time>
      </trkpt>
      <trkpt lat="49.44561" lon="-1.8051">
        <ele>9</ele>
        <time>2020-06-14T16:53:11Z</time>
      </trkpt>
      <trkpt lat="49.44566" lon="-1.80511">
        <ele>9</ele>
        <time>2020-06-14T16:53:12Z</time>
      </trkpt>
      <trkpt lat="49.44571" lon="-1.80513">
        <ele>9</ele>
        <time>2020-06-14T16:53:13Z</time>
      </trkpt>
      <trkpt lat="49.44577" lon="-1.80513">
        <ele>9</ele>
        <time>2020-06-14T16:53:14Z</time>
      </trkpt>
      <trkpt lat="49.44582" lon="-1.80514">
        <ele>9.1</ele>
        <time>2020-06-14T16:53:15Z</time>
      </trkpt>
      <trkpt lat="49.44587" lon="-1.80515">
        <ele>9.1</ele>
        <time>2020-06-14T16:53:16Z</time>
      </trkpt>
      <trkpt lat="49.44592" lon="-1.80518">
        <ele>9.1</ele>
        <time>2020-06-14T16:53:17Z</time>
      </trkpt>
      <trkpt lat="49.44597" lon="-1.80521">
        <ele>9.2</ele>
        <time>2020-06-14T16:53:18Z</time>
      </trkpt>
      <trkpt lat="49.44601" lon="-1.80523">
        <ele>9.2</ele>
        <time>2020-06-14T16:53:19Z</time>
      </trkpt>
      <trkpt lat="49.44606" lon="-1.80525">
        <ele>9.3</ele>
        <time>2020-06-14T16:53:20Z</time>
      </trkpt>
      <trkpt lat="49.44611" lon="-1.80527">
        <ele>9.4</ele>
        <time>2020-06-14T16:53:21Z</time>
      </trkpt>
      <trkpt lat="49.44615" lon="-1.80527">
        <ele>9.4</ele>
        <time>2020-06-14T16:53:22Z</time>
      </trkpt>
      <trkpt lat="49.4462" lon="-1.80528">
        <ele>9.5</ele>
        <time>2020-06-14T16:53:23Z</time>
      </trkpt>
      <trkpt lat="49.44624" lon="-1.8053">
        <ele>9.5</ele>
        <time>2020-06-14T16:53:24Z</time>
      </trkpt>
      <trkpt lat="49.44629" lon="-1.80532">
        <ele>9.6</ele>
        <time>2020-06-14T16:53:25Z</time>
      </trkpt>
      <trkpt lat="49.44633" lon="-1.80534">
        <ele>9.7</ele>
        <time>2020-06-14T16:53:26Z</time>
      </trkpt>
      <trkpt lat="49.44638" lon="-1.80535">
        <ele>9.8</ele>
        <time>2020-06-14T16:53:27Z</time>
      </trkpt>
      <trkpt lat="49.44642" lon="-1.80537">
        <ele>9.8</ele>
        <time>2020-06-14T16:53:28Z</time>
      </trkpt>
      <trkpt lat="49.44647" lon="-1.80539">
        <ele>9.9</ele>
        <time>2020-06-14T16:53:29Z</time>
      </trkpt>
      <trkpt lat="49.44651" lon="-1.8054">
        <ele>10</ele>
        <time>2020-06-14T16:53:30Z</time>
      </trkpt>
      <trkpt lat="49.44655" lon="-1.80542">
        <ele>10</ele>
        <time>2020-06-14T16:53:31Z</time>
      </trkpt>
      <trkpt lat="49.4466" lon="-1.80541">
        <ele>10.1</ele>
        <time>2020-06-14T16:53:32Z</time>
      </trkpt>
      <trkpt lat="49.44664" lon="-1.80544">
        <ele>10.2</ele>
        <time>2020-06-14T16:53:33Z</time>
      </trkpt>
      <trkpt lat="49.44668" lon="-1.80546">
        <ele>10.3</ele>
        <time>2020-06-14T16:53:34Z</time>
      </trkpt>
      <trkpt lat="49.44673" lon="-1.80547">
        <ele>10.4</ele>
        <time>2020-06-14T16:53:35Z</time>
      </trkpt>
      <trkpt lat="49.44677" lon="-1.80546">
        <ele>10.5</ele>
        <time>2020-06-14T16:53:36Z</time>
      </trkpt>
      <trkpt lat="49.44681" lon="-1.80549">
        <ele>10.5</ele>
        <time>2020-06-14T16:53:37Z</time>
      </trkpt>
      <trkpt lat="49.44685" lon="-1.80551">
        <ele>10.5</ele>
        <time>2020-06-14T16:53:38Z</time>
      </trkpt>
      <trkpt lat="49.44688" lon="-1.80553">
        <ele>10.5</ele>
        <time>2020-06-14T16:53:39Z</time>
      </trkpt>
      <trkpt lat="49.44693" lon="-1.80555">
        <ele>10.5</ele>
        <time>2020-06-14T16:53:40Z</time>
      </trkpt>
      <trkpt lat="49.44697" lon="-1.80558">
        <ele>10.5</ele>
        <time>2020-06-14T16:53:41Z</time>
      </trkpt>
      <trkpt lat="49.44702" lon="-1.8056">
        <ele>10.4</ele>
        <time>2020-06-14T16:53:42Z</time>
      </trkpt>
      <trkpt lat="49.44707" lon="-1.80564">
        <ele>10.4</ele>
        <time>2020-06-14T16:53:43Z</time>
      </trkpt>
      <trkpt lat="49.44711" lon="-1.80567">
        <ele>10.3</ele>
        <time>2020-06-14T16:53:44Z</time>
      </trkpt>
      <trkpt lat="49.44717" lon="-1.80569">
        <ele>10.2</ele>
        <time>2020-06-14T16:53:45Z</time>
      </trkpt>
      <trkpt lat="49.44722" lon="-1.80571">
        <ele>10.2</ele>
        <time>2020-06-14T16:53:46Z</time>
      </trkpt>
      <trkpt lat="49.44727" lon="-1.80573">
        <ele>10.1</ele>
        <time>2020-06-14T16:53:47Z</time>
      </trkpt>
      <trkpt lat="49.44732" lon="-1.80576">
        <ele>10</ele>
        <time>2020-06-14T16:53:48Z</time>
      </trkpt>
      <trkpt lat="49.44737" lon="-1.80578">
        <ele>10</ele>
        <time>2020-06-14T16:53:49Z</time>
      </trkpt>
      <trkpt lat="49.44743" lon="-1.80581">
        <ele>10</ele>
        <time>2020-06-14T16:53:50Z</time>
      </trkpt>
      <trkpt lat="49.44747" lon="-1.80585">
        <ele>10</ele>
        <time>2020-06-14T16:53:51Z</time>
      </trkpt>
      <trkpt lat="49.44752" lon="-1.80586">
        <ele>9.9</ele>
        <time>2020-06-14T16:53:52Z</time>
      </trkpt>
      <trkpt lat="49.44757" lon="-1.80589">
        <ele>9.9</ele>
        <time>2020-06-14T16:53:53Z</time>
      </trkpt>
      <trkpt lat="49.44762" lon="-1.80592">
        <ele>9.9</ele>
        <time>2020-06-14T16:53:54Z</time>
      </trkpt>
      <trkpt lat="49.44767" lon="-1.80596">
        <ele>9.8</ele>
        <time>2020-06-14T16:53:55Z</time>
      </trkpt>
      <trkpt lat="49.44772" lon="-1.80598">
        <ele>9.8</ele>
        <time>2020-06-14T16:53:56Z</time>
      </trkpt>
      <trkpt lat="49.44777" lon="-1.80601">
        <ele>9.7</ele>
        <time>2020-06-14T16:53:57Z</time>
      </trkpt>
      <trkpt lat="49.44782" lon="-1.80604">
        <ele>9.7</ele>
        <time>2020-06-14T16:53:58Z</time>
      </trkpt>
      <trkpt lat="49.44787" lon="-1.80605">
        <ele>9.6</ele>
        <time>2020-06-14T16:53:59Z</time>
      </trkpt>
      <trkpt lat="49.44792" lon="-1.80607">
        <ele>9.6</ele>
        <time>2020-06-14T16:54:00Z</time>
      </trkpt>
      <trkpt lat="49.44797" lon="-1.80608">
        <ele>9.6</ele>
        <time>2020-06-14T16:54:01Z</time>
      </trkpt>
      <trkpt lat="49.44802" lon="-1.8061">
        <ele>9.6</ele>
        <time>2020-06-14T16:54:02Z</time>
      </trkpt>
      <trkpt lat="49.44807" lon="-1.80613">
        <ele>9.6</ele>
        <time>2020-06-14T16:54:03Z</time>
      </trkpt>
      <trkpt lat="49.44813" lon="-1.80614">
        <ele>9.5</ele>
        <time>2020-06-14T16:54:04Z</time>
      </trkpt>
      <trkpt lat="49.44818" lon="-1.80616">
        <ele>9.4</ele>
        <time>2020-06-14T16:54:05Z</time>
      </trkpt>
      <trkpt lat="49.44823" lon="-1.80618">
        <ele>9.3</ele>
        <time>2020-06-14T16:54:06Z</time>
      </trkpt>
      <trkpt lat="49.44828" lon="-1.80621">
        <ele>9.2</ele>
        <time>2020-06-14T16:54:07Z</time>
      </trkpt>
      <trkpt lat="49.44833" lon="-1.80623">
        <ele>9.2</ele>
        <time>2020-06-14T16:54:08Z</time>
      </trkpt>
      <trkpt lat="49.44837" lon="-1.80626">
        <ele>9.1</ele>
        <time>2020-06-14T16:54:09Z</time>
      </trkpt>
      <trkpt lat="49.44841" lon="-1.80632">
        <ele>9</ele>
        <time>2020-06-14T16:54:10Z</time>
      </trkpt>
      <trkpt lat="49.44846" lon="-1.80636">
        <ele>8.9</ele>
        <time>2020-06-14T16:54:11Z</time>
      </trkpt>
      <trkpt lat="49.4485" lon="-1.80639">
        <ele>8.8</ele>
        <time>2020-06-14T16:54:12Z</time>
      </trkpt>
      <trkpt lat="49.44853" lon="-1.80645">
        <ele>8.8</ele>
        <time>2020-06-14T16:54:13Z</time>
      </trkpt>
      <trkpt lat="49.44857" lon="-1.80649">
        <ele>8.7</ele>
        <time>2020-06-14T16:54:14Z</time>
      </trkpt>
      <trkpt lat="49.44857" lon="-1.80655">
        <ele>8.6</ele>
        <time>2020-06-14T16:54:15Z</time>
      </trkpt>
      <trkpt lat="49.44859" lon="-1.80662">
        <ele>8.5</ele>
        <time>2020-06-14T16:54:16Z</time>
      </trkpt>
      <trkpt lat="49.44862" lon="-1.80669">
        <ele>8.4</ele>
        <time>2020-06-14T16:54:17Z</time>
      </trkpt>
      <trkpt lat="49.44866" lon="-1.80676">
        <ele>8.4</ele>
        <time>2020-06-14T16:54:18Z</time>
      </trkpt>
      <trkpt lat="49.4487" lon="-1.80682">
        <ele>8.3</ele>
        <time>2020-06-14T16:54:19Z</time>
      </trkpt>
      <trkpt lat="49.44874" lon="-1.80688">
        <ele>8.2</ele>
        <time>2020-06-14T16:54:20Z</time>
      </trkpt>
      <trkpt lat="49.44878" lon="-1.80694">
        <ele>8.1</ele>
        <time>2020-06-14T16:54:21Z</time>
      </trkpt>
      <trkpt lat="49.44882" lon="-1.807">
        <ele>8</ele>
        <time>2020-06-14T16:54:22Z</time>
      </trkpt>
      <trkpt lat="49.44886" lon="-1.80705">
        <ele>8</ele>
        <time>2020-06-14T16:54:23Z</time>
      </trkpt>
      <trkpt lat="49.44891" lon="-1.80707">
        <ele>8.1</ele>
        <time>2020-06-14T16:54:24Z</time>
      </trkpt>
      <trkpt lat="49.44897" lon="-1.80704">
        <ele>8.2</ele>
        <time>2020-06-14T16:54:25Z</time>
      </trkpt>
      <trkpt lat="49.44902" lon="-1.80702">
        <ele>8.2</ele>
        <time>2020-06-14T16:54:26Z</time>
      </trkpt>
      <trkpt lat="49.44907" lon="-1.80702">
        <ele>8.3</ele>
        <time>2020-06-14T16:54:27Z</time>
      </trkpt>
      <trkpt lat="49.44912" lon="-1.80701">
        <ele>8.4</ele>
        <time>2020-06-14T16:54:28Z</time>
      </trkpt>
      <trkpt lat="49.44917" lon="-1.80701">
        <ele>8.5</ele>
        <time>2020-06-14T16:54:29Z</time>
      </trkpt>
      <trkpt lat="49.44921" lon="-1.80702">
        <ele>8.5</ele>
        <time>2020-06-14T16:54:30Z</time>
      </trkpt>
      <trkpt lat="49.44926" lon="-1.80702">
        <ele>8.6</ele>
        <time>2020-06-14T16:54:31Z</time>
      </trkpt>
      <trkpt lat="49.4493" lon="-1.80704">
        <ele>8.6</ele>
        <time>2020-06-14T16:54:32Z</time>
      </trkpt>
      <trkpt lat="49.44933" lon="-1.80706">
        <ele>8.6</ele>
        <time>2020-06-14T16:54:33Z</time>
      </trkpt>
      <trkpt lat="49.44936" lon="-1.80711">
        <ele>8.7</ele>
        <time>2020-06-14T16:54:34Z</time>
      </trkpt>
      <trkpt lat="49.4494" lon="-1.80714">
        <ele>8.6</ele>
        <time>2020-06-14T16:54:35Z</time>
      </trkpt>
      <trkpt lat="49.44944" lon="-1.80719">
        <ele>8.6</ele>
        <time>2020-06-14T16:54:36Z</time>
      </trkpt>
      <trkpt lat="49.44948" lon="-1.80724">
        <ele>8.6</ele>
        <time>2020-06-14T16:54:37Z</time>
      </trkpt>
      <trkpt lat="49.44952" lon="-1.80729">
        <ele>8.7</ele>
        <time>2020-06-14T16:54:38Z</time>
      </trkpt>
      <trkpt lat="49.44956" lon="-1.80733">
        <ele>8.7</ele>
        <time>2020-06-14T16:54:39Z</time>
      </trkpt>
      <trkpt lat="49.4496" lon="-1.80738">
        <ele>8.8</ele>
        <time>2020-06-14T16:54:40Z</time>
      </trkpt>
      <trkpt lat="49.44964" lon="-1.80741">
        <ele>8.9</ele>
        <time>2020-06-14T16:54:41Z</time>
      </trkpt>
      <trkpt lat="49.44968" lon="-1.80744">
        <ele>9</ele>
        <time>2020-06-14T16:54:42Z</time>
      </trkpt>
      <trkpt lat="49.44972" lon="-1.80748">
        <ele>9</ele>
        <time>2020-06-14T16:54:43Z</time>
      </trkpt>
      <trkpt lat="49.44976" lon="-1.80752">
        <ele>9.1</ele>
        <time>2020-06-14T16:54:44Z</time>
      </trkpt>
      <trkpt lat="49.4498" lon="-1.80756">
        <ele>9.2</ele>
        <time>2020-06-14T16:54:45Z</time>
      </trkpt>
      <trkpt lat="49.44983" lon="-1.80761">
        <ele>9.2</ele>
        <time>2020-06-14T16:54:46Z</time>
      </trkpt>
      <trkpt lat="49.44987" lon="-1.80765">
        <ele>9.2</ele>
        <time>2020-06-14T16:54:47Z</time>
      </trkpt>
      <trkpt lat="49.4499" lon="-1.80769">
        <ele>9.3</ele>
        <time>2020-06-14T16:54:48Z</time>
      </trkpt>
      <trkpt lat="49.44994" lon="-1.80773">
        <ele>9.3</ele>
        <time>2020-06-14T16:54:49Z</time>
      </trkpt>
      <trkpt lat="49.44997" lon="-1.80777">
        <ele>9.3</ele>
        <time>2020-06-14T16:54:50Z</time>
      </trkpt>
      <trkpt lat="49.45002" lon="-1.80779">
        <ele>9.4</ele>
        <time>2020-06-14T16:54:51Z</time>
      </trkpt>
      <trkpt lat="49.45006" lon="-1.80782">
        <ele>9.4</ele>
        <time>2020-06-14T16:54:52Z</time>
      </trkpt>
      <trkpt lat="49.45009" lon="-1.80786">
        <ele>9.5</ele>
        <time>2020-06-14T16:54:53Z</time>
      </trkpt>
      <trkpt lat="49.45014" lon="-1.80789">
        <ele>9.5</ele>
        <time>2020-06-14T16:54:54Z</time>
      </trkpt>
      <trkpt lat="49.45018" lon="-1.80793">
        <ele>9.6</ele>
        <time>2020-06-14T16:54:55Z</time>
      </trkpt>
      <trkpt lat="49.45022" lon="-1.80796">
        <ele>9.7</ele>
        <time>2020-06-14T16:54:56Z</time>
      </trkpt>
      <trkpt lat="49.45026" lon="-1.808">
        <ele>9.7</ele>
        <time>2020-06-14T16:54:57Z</time>
      </trkpt>
      <trkpt lat="49.4503" lon="-1.80803">
        <ele>9.8</ele>
        <time>2020-06-14T16:54:58Z</time>
      </trkpt>
      <trkpt lat="49.45034" lon="-1.80806">
        <ele>9.9</ele>
        <time>2020-06-14T16:54:59Z</time>
      </trkpt>
      <trkpt lat="49.45038" lon="-1.80809">
        <ele>9.9</ele>
        <time>2020-06-14T16:55:00Z</time>
      </trkpt>
      <trkpt lat="49.45042" lon="-1.80811">
        <ele>10</ele>
        <time>2020-06-14T16:55:01Z</time>
      </trkpt>
      <trkpt lat="49.45047" lon="-1.80816">
        <ele>10</ele>
        <time>2020-06-14T16:55:02Z</time>
      </trkpt>
      <trkpt lat="49.45053" lon="-1.80818">
        <ele>10</ele>
        <time>2020-06-14T16:55:03Z</time>
      </trkpt>
      <trkpt lat="49.45058" lon="-1.80821">
        <ele>10.1</ele>
        <time>2020-06-14T16:55:04Z</time>
      </trkpt>
      <trkpt lat="49.45064" lon="-1.80824">
        <ele>10.1</ele>
        <time>2020-06-14T16:55:05Z</time>
      </trkpt>
      <trkpt lat="49.4507" lon="-1.80825">
        <ele>10.2</ele>
        <time>2020-06-14T16:55:06Z</time>
      </trkpt>
      <trkpt lat="49.45075" lon="-1.80827">
        <ele>10.2</ele>
        <time>2020-06-14T16:55:07Z</time>
      </trkpt>
      <trkpt lat="49.4508" lon="-1.8083">
        <ele>10.3</ele>
        <time>2020-06-14T16:55:08Z</time>
      </trkpt>
      <trkpt lat="49.45085" lon="-1.80832">
        <ele>10.3</ele>
        <time>2020-06-14T16:55:09Z</time>
      </trkpt>
      <trkpt lat="49.4509" lon="-1.80834">
        <ele>10.3</ele>
        <time>2020-06-14T16:55:10Z</time>
      </trkpt>
      <trkpt lat="49.45095" lon="-1.80837">
        <ele>10.3</ele>
        <time>2020-06-14T16:55:11Z</time>
      </trkpt>
      <trkpt lat="49.451" lon="-1.80839">
        <ele>10.4</ele>
        <time>2020-06-14T16:55:12Z</time>
      </trkpt>
      <trkpt lat="49.45105" lon="-1.80842">
        <ele>10.4</ele>
        <time>2020-06-14T16:55:13Z</time>
      </trkpt>
      <trkpt lat="49.4511" lon="-1.80845">
        <ele>10.5</ele>
        <time>2020-06-14T16:55:14Z</time>
      </trkpt>
      <trkpt lat="49.45115" lon="-1.80848">
        <ele>10.5</ele>
        <time>2020-06-14T16:55:15Z</time>
      </trkpt>
      <trkpt lat="49.45119" lon="-1.80851">
        <ele>10.6</ele>
        <time>2020-06-14T16:55:16Z</time>
      </trkpt>
      <trkpt lat="49.45124" lon="-1.80853">
        <ele>10.7</ele>
        <time>2020-06-14T16:55:17Z</time>
      </trkpt>
      <trkpt lat="49.45129" lon="-1.80858">
        <ele>10.8</ele>
        <time>2020-06-14T16:55:18Z</time>
      </trkpt>
      <trkpt lat="49.45133" lon="-1.80862">
        <ele>10.9</ele>
        <time>2020-06-14T16:55:19Z</time>
      </trkpt>
      <trkpt lat="49.45138" lon="-1.80863">
        <ele>10.9</ele>
        <time>2020-06-14T16:55:20Z</time>
      </trkpt>
      <trkpt lat="49.45143" lon="-1.80865">
        <ele>11</ele>
        <time>2020-06-14T16:55:21Z</time>
      </trkpt>
      <trkpt lat="49.45148" lon="-1.80869">
        <ele>11</ele>
        <time>2020-06-14T16:55:22Z</time>
      </trkpt>
      <trkpt lat="49.45152" lon="-1.80872">
        <ele>11.1</ele>
        <time>2020-06-14T16:55:23Z</time>
      </trkpt>
      <trkpt lat="49.45157" lon="-1.80874">
        <ele>11.2</ele>
        <time>2020-06-14T16:55:24Z</time>
      </trkpt>
      <trkpt lat="49.45162" lon="-1.80875">
        <ele>11.3</ele>
        <time>2020-06-14T16:55:25Z</time>
      </trkpt>
      <trkpt lat="49.45167" lon="-1.80877">
        <ele>11.4</ele>
        <time>2020-06-14T16:55:26Z</time>
      </trkpt>
      <trkpt lat="49.45171" lon="-1.8088">
        <ele>11.5</ele>
        <time>2020-06-14T16:55:27Z</time>
      </trkpt>
      <trkpt lat="49.45176" lon="-1.80882">
        <ele>11.5</ele>
        <time>2020-06-14T16:55:28Z</time>
      </trkpt>
      <trkpt lat="49.4518" lon="-1.80885">
        <ele>11.6</ele>
        <time>2020-06-14T16:55:29Z</time>
      </trkpt>
      <trkpt lat="49.45184" lon="-1.80887">
        <ele>11.6</ele>
        <time>2020-06-14T16:55:30Z</time>
      </trkpt>
      <trkpt lat="49.45189" lon="-1.8089">
        <ele>11.6</ele>
        <time>2020-06-14T16:55:31Z</time>
      </trkpt>
      <trkpt lat="49.45194" lon="-1.80891">
        <ele>11.6</ele>
        <time>2020-06-14T16:55:32Z</time>
      </trkpt>
      <trkpt lat="49.45198" lon="-1.80892">
        <ele>11.6</ele>
        <time>2020-06-14T16:55:33Z</time>
      </trkpt>
      <trkpt lat="49.45203" lon="-1.80892">
        <ele>11.6</ele>
        <time>2020-06-14T16:55:34Z</time>
      </trkpt>
      <trkpt lat="49.45207" lon="-1.80894">
        <ele>11.6</ele>
        <time>2020-06-14T16:55:35Z</time>
      </trkpt>
      <trkpt lat="49.45211" lon="-1.80897">
        <ele>11.5</ele>
        <time>2020-06-14T16:55:36Z</time>
      </trkpt>
      <trkpt lat="49.45215" lon="-1.80901">
        <ele>11.5</ele>
        <time>2020-06-14T16:55:37Z</time>
      </trkpt>
      <trkpt lat="49.45219" lon="-1.80905">
        <ele>11.5</ele>
        <time>2020-06-14T16:55:38Z</time>
      </trkpt>
      <trkpt lat="49.45222" lon="-1.80912">
        <ele>11.4</ele>
        <time>2020-06-14T16:55:39Z</time>
      </trkpt>
      <trkpt lat="49.45223" lon="-1.8092">
        <ele>11.3</ele>
        <time>2020-06-14T16:55:40Z</time>
      </trkpt>
      <trkpt lat="49.45223" lon="-1.80929">
        <ele>11.2</ele>
        <time>2020-06-14T16:55:41Z</time>
      </trkpt>
      <trkpt lat="49.45224" lon="-1.80938">
        <ele>11</ele>
        <time>2020-06-14T16:55:42Z</time>
      </trkpt>
      <trkpt lat="49.45225" lon="-1.80947">
        <ele>10.9</ele>
        <time>2020-06-14T16:55:43Z</time>
      </trkpt>
      <trkpt lat="49.45227" lon="-1.80956">
        <ele>10.7</ele>
        <time>2020-06-14T16:55:44Z</time>
      </trkpt>
      <trkpt lat="49.45231" lon="-1.80964">
        <ele>10.5</ele>
        <time>2020-06-14T16:55:45Z</time>
      </trkpt>
      <trkpt lat="49.45236" lon="-1.80968">
        <ele>10.4</ele>
        <time>2020-06-14T16:55:46Z</time>
      </trkpt>
      <trkpt lat="49.45243" lon="-1.8097">
        <ele>10.2</ele>
        <time>2020-06-14T16:55:47Z</time>
      </trkpt>
      <trkpt lat="49.45249" lon="-1.80972">
        <ele>10.1</ele>
        <time>2020-06-14T16:55:48Z</time>
      </trkpt>
      <trkpt lat="49.45254" lon="-1.80975">
        <ele>10</ele>
        <time>2020-06-14T16:55:49Z</time>
      </trkpt>
      <trkpt lat="49.4526" lon="-1.80979">
        <ele>9.8</ele>
        <time>2020-06-14T16:55:50Z</time>
      </trkpt>
      <trkpt lat="49.45265" lon="-1.80984">
        <ele>9.7</ele>
        <time>2020-06-14T16:55:51Z</time>
      </trkpt>
      <trkpt lat="49.45271" lon="-1.80988">
        <ele>9.5</ele>
        <time>2020-06-14T16:55:52Z</time>
      </trkpt>
      <trkpt lat="49.45275" lon="-1.80994">
        <ele>9.4</ele>
        <time>2020-06-14T16:55:53Z</time>
      </trkpt>
      <trkpt lat="49.4528" lon="-1.80999">
        <ele>9.3</ele>
        <time>2020-06-14T16:55:54Z</time>
      </trkpt>
      <trkpt lat="49.45283" lon="-1.81007">
        <ele>9.2</ele>
        <time>2020-06-14T16:55:55Z</time>
      </trkpt>
      <trkpt lat="49.45287" lon="-1.81015">
        <ele>9.1</ele>
        <time>2020-06-14T16:55:56Z</time>
      </trkpt>
      <trkpt lat="49.4529" lon="-1.81022">
        <ele>9</ele>
        <time>2020-06-14T16:55:57Z</time>
      </trkpt>
      <trkpt lat="49.45295" lon="-1.81026">
        <ele>8.8</ele>
        <time>2020-06-14T16:55:58Z</time>
      </trkpt>
      <trkpt lat="49.45301" lon="-1.81028">
        <ele>8.9</ele>
        <time>2020-06-14T16:55:59Z</time>
      </trkpt>
      <trkpt lat="49.45306" lon="-1.81027">
        <ele>8.9</ele>
        <time>2020-06-14T16:56:00Z</time>
      </trkpt>
      <trkpt lat="49.45312" lon="-1.81025">
        <ele>9</ele>
        <time>2020-06-14T16:56:01Z</time>
      </trkpt>
      <trkpt lat="49.45317" lon="-1.81023">
        <ele>9</ele>
        <time>2020-06-14T16:56:02Z</time>
      </trkpt>
      <trkpt lat="49.45322" lon="-1.8102">
        <ele>9.1</ele>
        <time>2020-06-14T16:56:03Z</time>
      </trkpt>
      <trkpt lat="49.45327" lon="-1.81018">
        <ele>9.1</ele>
        <time>2020-06-14T16:56:04Z</time>
      </trkpt>
      <trkpt lat="49.45332" lon="-1.81016">
        <ele>9.4</ele>
        <time>2020-06-14T16:56:05Z</time>
      </trkpt>
      <trkpt lat="49.45337" lon="-1.81014">
        <ele>9.7</ele>
        <time>2020-06-14T16:56:06Z</time>
      </trkpt>
      <trkpt lat="49.45342" lon="-1.81014">
        <ele>9.9</ele>
        <time>2020-06-14T16:56:07Z</time>
      </trkpt>
      <trkpt lat="49.45346" lon="-1.81014">
        <ele>10.1</ele>
        <time>2020-06-14T16:56:08Z</time>
      </trkpt>
      <trkpt lat="49.45351" lon="-1.81012">
        <ele>10.3</ele>
        <time>2020-06-14T16:56:09Z</time>
      </trkpt>
      <trkpt lat="49.45356" lon="-1.81013">
        <ele>10.4</ele>
        <time>2020-06-14T16:56:10Z</time>
      </trkpt>
      <trkpt lat="49.4536" lon="-1.81013">
        <ele>10.6</ele>
        <time>2020-06-14T16:56:11Z</time>
      </trkpt>
      <trkpt lat="49.45364" lon="-1.81016">
        <ele>10.7</ele>
        <time>2020-06-14T16:56:12Z</time>
      </trkpt>
      <trkpt lat="49.45368" lon="-1.81019">
        <ele>10.8</ele>
        <time>2020-06-14T16:56:13Z</time>
      </trkpt>
      <trkpt lat="49.45373" lon="-1.81021">
        <ele>11</ele>
        <time>2020-06-14T16:56:14Z</time>
      </trkpt>
      <trkpt lat="49.45377" lon="-1.81023">
        <ele>11.1</ele>
        <time>2020-06-14T16:56:15Z</time>
      </trkpt>
      <trkpt lat="49.45382" lon="-1.81026">
        <ele>11.2</ele>
        <time>2020-06-14T16:56:16Z</time>
      </trkpt>
      <trkpt lat="49.45387" lon="-1.81028">
        <ele>11.3</ele>
        <time>2020-06-14T16:56:17Z</time>
      </trkpt>
      <trkpt lat="49.45391" lon="-1.8103">
        <ele>11.4</ele>
        <time>2020-06-14T16:56:18Z</time>
      </trkpt>
      <trkpt lat="49.45396" lon="-1.81033">
        <ele>11.5</ele>
        <time>2020-06-14T16:56:19Z</time>
      </trkpt>
      <trkpt lat="49.454" lon="-1.81037">
        <ele>11.6</ele>
        <time>2020-06-14T16:56:20Z</time>
      </trkpt>
      <trkpt lat="49.45405" lon="-1.81041">
        <ele>11.7</ele>
        <time>2020-06-14T16:56:21Z</time>
      </trkpt>
      <trkpt lat="49.45408" lon="-1.81046">
        <ele>11.7</ele>
        <time>2020-06-14T16:56:22Z</time>
      </trkpt>
      <trkpt lat="49.45412" lon="-1.8105">
        <ele>11.8</ele>
        <time>2020-06-14T16:56:23Z</time>
      </trkpt>
      <trkpt lat="49.45416" lon="-1.81053">
        <ele>11.8</ele>
        <time>2020-06-14T16:56:24Z</time>
      </trkpt>
      <trkpt lat="49.4542" lon="-1.81057">
        <ele>11.9</ele>
        <time>2020-06-14T16:56:25Z</time>
      </trkpt>
      <trkpt lat="49.45424" lon="-1.81061">
        <ele>11.9</ele>
        <time>2020-06-14T16:56:26Z</time>
      </trkpt>
      <trkpt lat="49.45428" lon="-1.81065">
        <ele>11.9</ele>
        <time>2020-06-14T16:56:27Z</time>
      </trkpt>
      <trkpt lat="49.45432" lon="-1.81068">
        <ele>11.9</ele>
        <time>2020-06-14T16:56:28Z</time>
      </trkpt>
      <trkpt lat="49.45436" lon="-1.81071">
        <ele>12</ele>
        <time>2020-06-14T16:56:29Z</time>
      </trkpt>
      <trkpt lat="49.45441" lon="-1.81075">
        <ele>12</ele>
        <time>2020-06-14T16:56:30Z</time>
      </trkpt>
      <trkpt lat="49.45445" lon="-1.8108">
        <ele>12</ele>
        <time>2020-06-14T16:56:31Z</time>
      </trkpt>
      <trkpt lat="49.45449" lon="-1.81084">
        <ele>12</ele>
        <time>2020-06-14T16:56:32Z</time>
      </trkpt>
      <trkpt lat="49.45453" lon="-1.8109">
        <ele>11.9</ele>
        <time>2020-06-14T16:56:33Z</time>
      </trkpt>
      <trkpt lat="49.45456" lon="-1.81094">
        <ele>11.9</ele>
        <time>2020-06-14T16:56:34Z</time>
      </trkpt>
      <trkpt lat="49.45461" lon="-1.81099">
        <ele>11.9</ele>
        <time>2020-06-14T16:56:35Z</time>
      </trkpt>
      <trkpt lat="49.45464" lon="-1.81104">
        <ele>11.8</ele>
        <time>2020-06-14T16:56:36Z</time>
      </trkpt>
      <trkpt lat="49.45469" lon="-1.81109">
        <ele>11.8</ele>
        <time>2020-06-14T16:56:37Z</time>
      </trkpt>
      <trkpt lat="49.45473" lon="-1.81113">
        <ele>11.8</ele>
        <time>2020-06-14T16:56:38Z</time>
      </trkpt>
      <trkpt lat="49.45477" lon="-1.81119">
        <ele>11.7</ele>
        <time>2020-06-14T16:56:39Z</time>
      </trkpt>
      <trkpt lat="49.45482" lon="-1.81124">
        <ele>11.7</ele>
        <time>2020-06-14T16:56:40Z</time>
      </trkpt>
      <trkpt lat="49.45487" lon="-1.81128">
        <ele>11.6</ele>
        <time>2020-06-14T16:56:41Z</time>
      </trkpt>
      <trkpt lat="49.45492" lon="-1.81132">
        <ele>11.6</ele>
        <time>2020-06-14T16:56:42Z</time>
      </trkpt>
      <trkpt lat="49.45497" lon="-1.81135">
        <ele>11.5</ele>
        <time>2020-06-14T16:56:43Z</time>
      </trkpt>
      <trkpt lat="49.45502" lon="-1.81139">
        <ele>11.4</ele>
        <time>2020-06-14T16:56:44Z</time>
      </trkpt>
      <trkpt lat="49.45506" lon="-1.81144">
        <ele>11.2</ele>
        <time>2020-06-14T16:56:45Z</time>
      </trkpt>
      <trkpt lat="49.45511" lon="-1.81149">
        <ele>11.1</ele>
        <time>2020-06-14T16:56:46Z</time>
      </trkpt>
      <trkpt lat="49.45515" lon="-1.81154">
        <ele>10.9</ele>
        <time>2020-06-14T16:56:47Z</time>
      </trkpt>
      <trkpt lat="49.4552" lon="-1.81158">
        <ele>10.7</ele>
        <time>2020-06-14T16:56:48Z</time>
      </trkpt>
      <trkpt lat="49.45525" lon="-1.81162">
        <ele>10.5</ele>
        <time>2020-06-14T16:56:49Z</time>
      </trkpt>
      <trkpt lat="49.45529" lon="-1.81167">
        <ele>10.3</ele>
        <time>2020-06-14T16:56:50Z</time>
      </trkpt>
      <trkpt lat="49.45534" lon="-1.81171">
        <ele>10.3</ele>
        <time>2020-06-14T16:56:51Z</time>
      </trkpt>
      <trkpt lat="49.45539" lon="-1.81175">
        <ele>10.3</ele>
        <time>2020-06-14T16:56:52Z</time>
      </trkpt>
      <trkpt lat="49.45544" lon="-1.8118">
        <ele>10.1</ele>
        <time>2020-06-14T16:56:53Z</time>
      </trkpt>
      <trkpt lat="49.45549" lon="-1.81186">
        <ele>9.9</ele>
        <time>2020-06-14T16:56:54Z</time>
      </trkpt>
      <trkpt lat="49.45554" lon="-1.8119">
        <ele>9.7</ele>
        <time>2020-06-14T16:56:55Z</time>
      </trkpt>
      <trkpt lat="49.4556" lon="-1.81194">
        <ele>9.6</ele>
        <time>2020-06-14T16:56:56Z</time>
      </trkpt>
      <trkpt lat="49.45566" lon="-1.81198">
        <ele>9.4</ele>
        <time>2020-06-14T16:56:57Z</time>
      </trkpt>
      <trkpt lat="49.45572" lon="-1.81203">
        <ele>9.3</ele>
        <time>2020-06-14T16:56:58Z</time>
      </trkpt>
      <trkpt lat="49.45577" lon="-1.81207">
        <ele>9.1</ele>
        <time>2020-06-14T16:56:59Z</time>
      </trkpt>
      <trkpt lat="49.45583" lon="-1.81208">
        <ele>9</ele>
        <time>2020-06-14T16:57:00Z</time>
      </trkpt>
      <trkpt lat="49.4559" lon="-1.8121">
        <ele>8.9</ele>
        <time>2020-06-14T16:57:01Z</time>
      </trkpt>
      <trkpt lat="49.45596" lon="-1.81212">
        <ele>8.8</ele>
        <time>2020-06-14T16:57:02Z</time>
      </trkpt>
      <trkpt lat="49.45602" lon="-1.81214">
        <ele>8.7</ele>
        <time>2020-06-14T16:57:03Z</time>
      </trkpt>
      <trkpt lat="49.45608" lon="-1.81215">
        <ele>8.6</ele>
        <time>2020-06-14T16:57:04Z</time>
      </trkpt>
      <trkpt lat="49.45615" lon="-1.81216">
        <ele>8.5</ele>
        <time>2020-06-14T16:57:05Z</time>
      </trkpt>
      <trkpt lat="49.45621" lon="-1.81217">
        <ele>8.4</ele>
        <time>2020-06-14T16:57:06Z</time>
      </trkpt>
      <trkpt lat="49.45627" lon="-1.81217">
        <ele>8.3</ele>
        <time>2020-06-14T16:57:07Z</time>
      </trkpt>
      <trkpt lat="49.45632" lon="-1.81217">
        <ele>8.3</ele>
        <time>2020-06-14T16:57:08Z</time>
      </trkpt>
      <trkpt lat="49.45638" lon="-1.81218">
        <ele>8.2</ele>
        <time>2020-06-14T16:57:09Z</time>
      </trkpt>
      <trkpt lat="49.45644" lon="-1.81219">
        <ele>8.1</ele>
        <time>2020-06-14T16:57:10Z</time>
      </trkpt>
      <trkpt lat="49.45651" lon="-1.81219">
        <ele>8</ele>
        <time>2020-06-14T16:57:11Z</time>
      </trkpt>
      <trkpt lat="49.45657" lon="-1.8122">
        <ele>8</ele>
        <time>2020-06-14T16:57:12Z</time>
      </trkpt>
      <trkpt lat="49.45664" lon="-1.81221">
        <ele>7.9</ele>
        <time>2020-06-14T16:57:13Z</time>
      </trkpt>
      <trkpt lat="49.45671" lon="-1.81222">
        <ele>7.8</ele>
        <time>2020-06-14T16:57:14Z</time>
      </trkpt>
      <trkpt lat="49.45677" lon="-1.81221">
        <ele>7.7</ele>
        <time>2020-06-14T16:57:15Z</time>
      </trkpt>
      <trkpt lat="49.45684" lon="-1.81221">
        <ele>7.7</ele>
        <time>2020-06-14T16:57:16Z</time>
      </trkpt>
      <trkpt lat="49.4569" lon="-1.81223">
        <ele>7.6</ele>
        <time>2020-06-14T16:57:17Z</time>
      </trkpt>
      <trkpt lat="49.45696" lon="-1.81223">
        <ele>7.5</ele>
        <time>2020-06-14T16:57:18Z</time>
      </trkpt>
      <trkpt lat="49.45703" lon="-1.81223">
        <ele>7.5</ele>
        <time>2020-06-14T16:57:19Z</time>
      </trkpt>
      <trkpt lat="49.45709" lon="-1.81224">
        <ele>7.4</ele>
        <time>2020-06-14T16:57:20Z</time>
      </trkpt>
      <trkpt lat="49.45715" lon="-1.81224">
        <ele>7.4</ele>
        <time>2020-06-14T16:57:21Z</time>
      </trkpt>
      <trkpt lat="49.45721" lon="-1.81224">
        <ele>7.4</ele>
        <time>2020-06-14T16:57:22Z</time>
      </trkpt>
      <trkpt lat="49.45728" lon="-1.81226">
        <ele>7.4</ele>
        <time>2020-06-14T16:57:23Z</time>
      </trkpt>
      <trkpt lat="49.45734" lon="-1.81227">
        <ele>7.4</ele>
        <time>2020-06-14T16:57:24Z</time>
      </trkpt>
      <trkpt lat="49.4574" lon="-1.8123">
        <ele>7.4</ele>
        <time>2020-06-14T16:57:25Z</time>
      </trkpt>
      <trkpt lat="49.45746" lon="-1.81232">
        <ele>7.4</ele>
        <time>2020-06-14T16:57:26Z</time>
      </trkpt>
      <trkpt lat="49.45752" lon="-1.81235">
        <ele>7.4</ele>
        <time>2020-06-14T16:57:27Z</time>
      </trkpt>
      <trkpt lat="49.45758" lon="-1.81238">
        <ele>7.4</ele>
        <time>2020-06-14T16:57:28Z</time>
      </trkpt>
      <trkpt lat="49.45763" lon="-1.81241">
        <ele>7.5</ele>
        <time>2020-06-14T16:57:29Z</time>
      </trkpt>
      <trkpt lat="49.45769" lon="-1.81244">
        <ele>7.5</ele>
        <time>2020-06-14T16:57:30Z</time>
      </trkpt>
      <trkpt lat="49.45775" lon="-1.81246">
        <ele>7.6</ele>
        <time>2020-06-14T16:57:31Z</time>
      </trkpt>
      <trkpt lat="49.45781" lon="-1.81249">
        <ele>7.7</ele>
        <time>2020-06-14T16:57:32Z</time>
      </trkpt>
      <trkpt lat="49.45786" lon="-1.81253">
        <ele>7.8</ele>
        <time>2020-06-14T16:57:33Z</time>
      </trkpt>
      <trkpt lat="49.45791" lon="-1.81256">
        <ele>7.8</ele>
        <time>2020-06-14T16:57:34Z</time>
      </trkpt>
      <trkpt lat="49.45796" lon="-1.8126">
        <ele>7.9</ele>
        <time>2020-06-14T16:57:35Z</time>
      </trkpt>
      <trkpt lat="49.45801" lon="-1.81263">
        <ele>7.9</ele>
        <time>2020-06-14T16:57:36Z</time>
      </trkpt>
      <trkpt lat="49.45805" lon="-1.81266">
        <ele>7.9</ele>
        <time>2020-06-14T16:57:37Z</time>
      </trkpt>
      <trkpt lat="49.4581" lon="-1.81269">
        <ele>7.9</ele>
        <time>2020-06-14T16:57:38Z</time>
      </trkpt>
      <trkpt lat="49.45815" lon="-1.81272">
        <ele>7.9</ele>
        <time>2020-06-14T16:57:39Z</time>
      </trkpt>
      <trkpt lat="49.45819" lon="-1.81276">
        <ele>7.9</ele>
        <time>2020-06-14T16:57:40Z</time>
      </trkpt>
      <trkpt lat="49.45823" lon="-1.81279">
        <ele>7.9</ele>
        <time>2020-06-14T16:57:41Z</time>
      </trkpt>
      <trkpt lat="49.45828" lon="-1.81281">
        <ele>7.9</ele>
        <time>2020-06-14T16:57:42Z</time>
      </trkpt>
      <trkpt lat="49.45833" lon="-1.81284">
        <ele>7.9</ele>
        <time>2020-06-14T16:57:43Z</time>
      </trkpt>
      <trkpt lat="49.45837" lon="-1.81287">
        <ele>8</ele>
        <time>2020-06-14T16:57:44Z</time>
      </trkpt>
      <trkpt lat="49.45842" lon="-1.81291">
        <ele>8</ele>
        <time>2020-06-14T16:57:45Z</time>
      </trkpt>
      <trkpt lat="49.45846" lon="-1.81295">
        <ele>8</ele>
        <time>2020-06-14T16:57:46Z</time>
      </trkpt>
      <trkpt lat="49.45851" lon="-1.81298">
        <ele>8</ele>
        <time>2020-06-14T16:57:47Z</time>
      </trkpt>
      <trkpt lat="49.45856" lon="-1.81299">
        <ele>8</ele>
        <time>2020-06-14T16:57:48Z</time>
      </trkpt>
      <trkpt lat="49.45861" lon="-1.81299">
        <ele>8.1</ele>
        <time>2020-06-14T16:57:49Z</time>
      </trkpt>
      <trkpt lat="49.45867" lon="-1.81298">
        <ele>8.2</ele>
        <time>2020-06-14T16:57:50Z</time>
      </trkpt>
      <trkpt lat="49.45872" lon="-1.81299">
        <ele>8.2</ele>
        <time>2020-06-14T16:57:51Z</time>
      </trkpt>
      <trkpt lat="49.45876" lon="-1.81299">
        <ele>8.3</ele>
        <time>2020-06-14T16:57:52Z</time>
      </trkpt>
      <trkpt lat="49.45881" lon="-1.81299">
        <ele>8.4</ele>
        <time>2020-06-14T16:57:53Z</time>
      </trkpt>
      <trkpt lat="49.45886" lon="-1.81301">
        <ele>8.5</ele>
        <time>2020-06-14T16:57:54Z</time>
      </trkpt>
      <trkpt lat="49.45891" lon="-1.81302">
        <ele>8.5</ele>
        <time>2020-06-14T16:57:55Z</time>
      </trkpt>
      <trkpt lat="49.45896" lon="-1.81304">
        <ele>8.4</ele>
        <time>2020-06-14T16:57:56Z</time>
      </trkpt>
      <trkpt lat="49.45901" lon="-1.81306">
        <ele>8.4</ele>
        <time>2020-06-14T16:57:57Z</time>
      </trkpt>
      <trkpt lat="49.45906" lon="-1.81307">
        <ele>8.3</ele>
        <time>2020-06-14T16:57:58Z</time>
      </trkpt>
      <trkpt lat="49.45911" lon="-1.81307">
        <ele>8.3</ele>
        <time>2020-06-14T16:57:59Z</time>
      </trkpt>
      <trkpt lat="49.45916" lon="-1.81307">
        <ele>8.3</ele>
        <time>2020-06-14T16:58:00Z</time>
      </trkpt>
      <trkpt lat="49.45921" lon="-1.81306">
        <ele>8.3</ele>
        <time>2020-06-14T16:58:01Z</time>
      </trkpt>
      <trkpt lat="49.45926" lon="-1.81308">
        <ele>8.2</ele>
        <time>2020-06-14T16:58:02Z</time>
      </trkpt>
      <trkpt lat="49.45931" lon="-1.8131">
        <ele>8.3</ele>
        <time>2020-06-14T16:58:03Z</time>
      </trkpt>
      <trkpt lat="49.45936" lon="-1.81311">
        <ele>8.3</ele>
        <time>2020-06-14T16:58:04Z</time>
      </trkpt>
      <trkpt lat="49.45941" lon="-1.81312">
        <ele>8.4</ele>
        <time>2020-06-14T16:58:05Z</time>
      </trkpt>
      <trkpt lat="49.45945" lon="-1.81312">
        <ele>8.6</ele>
        <time>2020-06-14T16:58:06Z</time>
      </trkpt>
      <trkpt lat="49.4595" lon="-1.81311">
        <ele>8.7</ele>
        <time>2020-06-14T16:58:07Z</time>
      </trkpt>
      <trkpt lat="49.45954" lon="-1.81307">
        <ele>8.9</ele>
        <time>2020-06-14T16:58:08Z</time>
      </trkpt>
      <trkpt lat="49.45958" lon="-1.81302">
        <ele>9</ele>
        <time>2020-06-14T16:58:09Z</time>
      </trkpt>
      <trkpt lat="49.45963" lon="-1.813">
        <ele>9.2</ele>
        <time>2020-06-14T16:58:10Z</time>
      </trkpt>
      <trkpt lat="49.45968" lon="-1.81298">
        <ele>9.4</ele>
        <time>2020-06-14T16:58:11Z</time>
      </trkpt>
      <trkpt lat="49.45973" lon="-1.81299">
        <ele>9.6</ele>
        <time>2020-06-14T16:58:12Z</time>
      </trkpt>
      <trkpt lat="49.45976" lon="-1.81299">
        <ele>9.8</ele>
        <time>2020-06-14T16:58:13Z</time>
      </trkpt>
      <trkpt lat="49.45979" lon="-1.81298">
        <ele>10</ele>
        <time>2020-06-14T16:58:14Z</time>
      </trkpt>
      <trkpt lat="49.45983" lon="-1.81299">
        <ele>10.1</ele>
        <time>2020-06-14T16:58:15Z</time>
      </trkpt>
      <trkpt lat="49.45986" lon="-1.81299">
        <ele>10.3</ele>
        <time>2020-06-14T16:58:16Z</time>
      </trkpt>
      <trkpt lat="49.45991" lon="-1.81295">
        <ele>10.6</ele>
        <time>2020-06-14T16:58:17Z</time>
      </trkpt>
      <trkpt lat="49.45993" lon="-1.81298">
        <ele>10.9</ele>
        <time>2020-06-14T16:58:18Z</time>
      </trkpt>
      <trkpt lat="49.45997" lon="-1.813">
        <ele>11.1</ele>
        <time>2020-06-14T16:58:19Z</time>
      </trkpt>
      <trkpt lat="49.45999" lon="-1.81302">
        <ele>11.3</ele>
        <time>2020-06-14T16:58:20Z</time>
      </trkpt>
      <trkpt lat="49.46003" lon="-1.813">
        <ele>11.5</ele>
        <time>2020-06-14T16:58:21Z</time>
      </trkpt>
      <trkpt lat="49.46006" lon="-1.813">
        <ele>11.7</ele>
        <time>2020-06-14T16:58:22Z</time>
      </trkpt>
      <trkpt lat="49.46009" lon="-1.81302">
        <ele>11.9</ele>
        <time>2020-06-14T16:58:23Z</time>
      </trkpt>
      <trkpt lat="49.46011" lon="-1.81305">
        <ele>12.2</ele>
        <time>2020-06-14T16:58:24Z</time>
      </trkpt>
      <trkpt lat="49.46014" lon="-1.81309">
        <ele>12.4</ele>
        <time>2020-06-14T16:58:25Z</time>
      </trkpt>
      <trkpt lat="49.46017" lon="-1.81314">
        <ele>12.6</ele>
        <time>2020-06-14T16:58:26Z</time>
      </trkpt>
      <trkpt lat="49.46019" lon="-1.81319">
        <ele>12.8</ele>
        <time>2020-06-14T16:58:27Z</time>
      </trkpt>
      <trkpt lat="49.46022" lon="-1.81323">
        <ele>12.9</ele>
        <time>2020-06-14T16:58:28Z</time>
      </trkpt>
      <trkpt lat="49.46024" lon="-1.81329">
        <ele>13.1</ele>
        <time>2020-06-14T16:58:29Z</time>
      </trkpt>
      <trkpt lat="49.46026" lon="-1.81334">
        <ele>13.3</ele>
        <time>2020-06-14T16:58:30Z</time>
      </trkpt>
      <trkpt lat="49.4603" lon="-1.8134">
        <ele>13.5</ele>
        <time>2020-06-14T16:58:31Z</time>
      </trkpt>
      <trkpt lat="49.46033" lon="-1.81346">
        <ele>13.7</ele>
        <time>2020-06-14T16:58:32Z</time>
      </trkpt>
      <trkpt lat="49.46038" lon="-1.8135">
        <ele>14</ele>
        <time>2020-06-14T16:58:33Z</time>
      </trkpt>
      <trkpt lat="49.46041" lon="-1.81354">
        <ele>14.1</ele>
        <time>2020-06-14T16:58:34Z</time>
      </trkpt>
      <trkpt lat="49.46045" lon="-1.81357">
        <ele>14.2</ele>
        <time>2020-06-14T16:58:35Z</time>
      </trkpt>
      <trkpt lat="49.46049" lon="-1.81362">
        <ele>14.3</ele>
        <time>2020-06-14T16:58:36Z</time>
      </trkpt>
      <trkpt lat="49.46052" lon="-1.81365">
        <ele>14.3</ele>
        <time>2020-06-14T16:58:37Z</time>
      </trkpt>
      <trkpt lat="49.46054" lon="-1.81368">
        <ele>14.4</ele>
        <time>2020-06-14T16:58:38Z</time>
      </trkpt>
      <trkpt lat="49.46058" lon="-1.81371">
        <ele>14.4</ele>
        <time>2020-06-14T16:58:39Z</time>
      </trkpt>
      <trkpt lat="49.46059" lon="-1.81373">
        <ele>14.4</ele>
        <time>2020-06-14T16:58:40Z</time>
      </trkpt>
      <trkpt lat="49.46062" lon="-1.81377">
        <ele>14.4</ele>
        <time>2020-06-14T16:58:41Z</time>
      </trkpt>
      <trkpt lat="49.46063" lon="-1.81379">
        <ele>14.4</ele>
        <time>2020-06-14T16:58:42Z</time>
      </trkpt>
      <trkpt lat="49.46066" lon="-1.81384">
        <ele>14.3</ele>
        <time>2020-06-14T16:58:43Z</time>
      </trkpt>
      <trkpt lat="49.46068" lon="-1.81389">
        <ele>14.3</ele>
        <time>2020-06-14T16:58:44Z</time>
      </trkpt>
      <trkpt lat="49.46071" lon="-1.81393">
        <ele>14.2</ele>
        <time>2020-06-14T16:58:45Z</time>
      </trkpt>
      <trkpt lat="49.46075" lon="-1.81399">
        <ele>14.1</ele>
        <time>2020-06-14T16:58:46Z</time>
      </trkpt>
      <trkpt lat="49.46078" lon="-1.81404">
        <ele>13.9</ele>
        <time>2020-06-14T16:58:47Z</time>
      </trkpt>
      <trkpt lat="49.46082" lon="-1.81411">
        <ele>13.7</ele>
        <time>2020-06-14T16:58:48Z</time>
      </trkpt>
      <trkpt lat="49.46086" lon="-1.81417">
        <ele>13.5</ele>
        <time>2020-06-14T16:58:49Z</time>
      </trkpt>
      <trkpt lat="49.4609" lon="-1.81422">
        <ele>13.3</ele>
        <time>2020-06-14T16:58:50Z</time>
      </trkpt>
      <trkpt lat="49.46093" lon="-1.81429">
        <ele>13</ele>
        <time>2020-06-14T16:58:51Z</time>
      </trkpt>
      <trkpt lat="49.46097" lon="-1.81436">
        <ele>12.8</ele>
        <time>2020-06-14T16:58:52Z</time>
      </trkpt>
      <trkpt lat="49.46098" lon="-1.81446">
        <ele>12.5</ele>
        <time>2020-06-14T16:58:53Z</time>
      </trkpt>
      <trkpt lat="49.46099" lon="-1.81455">
        <ele>12.3</ele>
        <time>2020-06-14T16:58:54Z</time>
      </trkpt>
      <trkpt lat="49.461" lon="-1.81466">
        <ele>12</ele>
        <time>2020-06-14T16:58:55Z</time>
      </trkpt>
      <trkpt lat="49.46101" lon="-1.81475">
        <ele>11.7</ele>
        <time>2020-06-14T16:58:56Z</time>
      </trkpt>
      <trkpt lat="49.46103" lon="-1.81486">
        <ele>11.5</ele>
        <time>2020-06-14T16:58:57Z</time>
      </trkpt>
      <trkpt lat="49.46104" lon="-1.81497">
        <ele>11.2</ele>
        <time>2020-06-14T16:58:58Z</time>
      </trkpt>
      <trkpt lat="49.46105" lon="-1.81508">
        <ele>11</ele>
        <time>2020-06-14T16:58:59Z</time>
      </trkpt>
      <trkpt lat="49.46107" lon="-1.81519">
        <ele>10.8</ele>
        <time>2020-06-14T16:59:00Z</time>
      </trkpt>
      <trkpt lat="49.46108" lon="-1.81529">
        <ele>10.6</ele>
        <time>2020-06-14T16:59:01Z</time>
      </trkpt>
      <trkpt lat="49.4611" lon="-1.81539">
        <ele>10.4</ele>
        <time>2020-06-14T16:59:02Z</time>
      </trkpt>
      <trkpt lat="49.46111" lon="-1.81549">
        <ele>10.1</ele>
        <time>2020-06-14T16:59:03Z</time>
      </trkpt>
      <trkpt lat="49.46113" lon="-1.81559">
        <ele>9.9</ele>
        <time>2020-06-14T16:59:04Z</time>
      </trkpt>
      <trkpt lat="49.46115" lon="-1.81569">
        <ele>9.8</ele>
        <time>2020-06-14T16:59:05Z</time>
      </trkpt>
      <trkpt lat="49.46117" lon="-1.8158">
        <ele>9.5</ele>
        <time>2020-06-14T16:59:06Z</time>
      </trkpt>
      <trkpt lat="49.46119" lon="-1.81591">
        <ele>9.3</ele>
        <time>2020-06-14T16:59:07Z</time>
      </trkpt>
      <trkpt lat="49.46121" lon="-1.81602">
        <ele>9.1</ele>
        <time>2020-06-14T16:59:08Z</time>
      </trkpt>
      <trkpt lat="49.46123" lon="-1.81613">
        <ele>9</ele>
        <time>2020-06-14T16:59:09Z</time>
      </trkpt>
      <trkpt lat="49.46125" lon="-1.81623">
        <ele>8.8</ele>
        <time>2020-06-14T16:59:10Z</time>
      </trkpt>
      <trkpt lat="49.46127" lon="-1.81634">
        <ele>8.7</ele>
        <time>2020-06-14T16:59:11Z</time>
      </trkpt>
      <trkpt lat="49.46128" lon="-1.81644">
        <ele>8.6</ele>
        <time>2020-06-14T16:59:12Z</time>
      </trkpt>
      <trkpt lat="49.4613" lon="-1.81655">
        <ele>8.4</ele>
        <time>2020-06-14T16:59:13Z</time>
      </trkpt>
      <trkpt lat="49.46133" lon="-1.81665">
        <ele>8.3</ele>
        <time>2020-06-14T16:59:14Z</time>
      </trkpt>
      <trkpt lat="49.46135" lon="-1.81675">
        <ele>8.2</ele>
        <time>2020-06-14T16:59:15Z</time>
      </trkpt>
      <trkpt lat="49.46137" lon="-1.81685">
        <ele>8.1</ele>
        <time>2020-06-14T16:59:16Z</time>
      </trkpt>
      <trkpt lat="49.46139" lon="-1.81696">
        <ele>7.9</ele>
        <time>2020-06-14T16:59:17Z</time>
      </trkpt>
      <trkpt lat="49.46141" lon="-1.81706">
        <ele>7.8</ele>
        <time>2020-06-14T16:59:18Z</time>
      </trkpt>
      <trkpt lat="49.46143" lon="-1.81716">
        <ele>7.6</ele>
        <time>2020-06-14T16:59:19Z</time>
      </trkpt>
      <trkpt lat="49.46145" lon="-1.81726">
        <ele>7.5</ele>
        <time>2020-06-14T16:59:20Z</time>
      </trkpt>
      <trkpt lat="49.46147" lon="-1.81736">
        <ele>7.5</ele>
        <time>2020-06-14T16:59:21Z</time>
      </trkpt>
      <trkpt lat="49.4615" lon="-1.81746">
        <ele>7.4</ele>
        <time>2020-06-14T16:59:22Z</time>
      </trkpt>
      <trkpt lat="49.46152" lon="-1.81756">
        <ele>7.3</ele>
        <time>2020-06-14T16:59:23Z</time>
      </trkpt>
      <trkpt lat="49.46154" lon="-1.81766">
        <ele>7.2</ele>
        <time>2020-06-14T16:59:24Z</time>
      </trkpt>
      <trkpt lat="49.46157" lon="-1.81776">
        <ele>7.2</ele>
        <time>2020-06-14T16:59:25Z</time>
      </trkpt>
      <trkpt lat="49.46158" lon="-1.81785">
        <ele>7.1</ele>
        <time>2020-06-14T16:59:26Z</time>
      </trkpt>
      <trkpt lat="49.4616" lon="-1.81795">
        <ele>7</ele>
        <time>2020-06-14T16:59:27Z</time>
      </trkpt>
      <trkpt lat="49.46161" lon="-1.81805">
        <ele>6.9</ele>
        <time>2020-06-14T16:59:28Z</time>
      </trkpt>
      <trkpt lat="49.46162" lon="-1.81816">
        <ele>6.9</ele>
        <time>2020-06-14T16:59:29Z</time>
      </trkpt>
      <trkpt lat="49.46163" lon="-1.81826">
        <ele>6.8</ele>
        <time>2020-06-14T16:59:30Z</time>
      </trkpt>
      <trkpt lat="49.46165" lon="-1.81835">
        <ele>6.8</ele>
        <time>2020-06-14T16:59:31Z</time>
      </trkpt>
      <trkpt lat="49.46167" lon="-1.81845">
        <ele>6.8</ele>
        <time>2020-06-14T16:59:32Z</time>
      </trkpt>
      <trkpt lat="49.46168" lon="-1.81854">
        <ele>6.8</ele>
        <time>2020-06-14T16:59:33Z</time>
      </trkpt>
      <trkpt lat="49.4617" lon="-1.81863">
        <ele>6.8</ele>
        <time>2020-06-14T16:59:34Z</time>
      </trkpt>
      <trkpt lat="49.46172" lon="-1.81872">
        <ele>6.9</ele>
        <time>2020-06-14T16:59:35Z</time>
      </trkpt>
      <trkpt lat="49.46174" lon="-1.81881">
        <ele>6.9</ele>
        <time>2020-06-14T16:59:36Z</time>
      </trkpt>
      <trkpt lat="49.46176" lon="-1.81889">
        <ele>6.9</ele>
        <time>2020-06-14T16:59:37Z</time>
      </trkpt>
      <trkpt lat="49.46178" lon="-1.81898">
        <ele>6.9</ele>
        <time>2020-06-14T16:59:38Z</time>
      </trkpt>
      <trkpt lat="49.46181" lon="-1.81906">
        <ele>6.8</ele>
        <time>2020-06-14T16:59:39Z</time>
      </trkpt>
      <trkpt lat="49.46185" lon="-1.81912">
        <ele>6.7</ele>
        <time>2020-06-14T16:59:40Z</time>
      </trkpt>
      <trkpt lat="49.4619" lon="-1.81917">
        <ele>6.7</ele>
        <time>2020-06-14T16:59:41Z</time>
      </trkpt>
      <trkpt lat="49.46195" lon="-1.81921">
        <ele>6.6</ele>
        <time>2020-06-14T16:59:42Z</time>
      </trkpt>
      <trkpt lat="49.462" lon="-1.81926">
        <ele>6.5</ele>
        <time>2020-06-14T16:59:43Z</time>
      </trkpt>
      <trkpt lat="49.46205" lon="-1.8193">
        <ele>6.5</ele>
        <time>2020-06-14T16:59:44Z</time>
      </trkpt>
      <trkpt lat="49.46209" lon="-1.81935">
        <ele>6.4</ele>
        <time>2020-06-14T16:59:45Z</time>
      </trkpt>
      <trkpt lat="49.46214" lon="-1.8194">
        <ele>6.4</ele>
        <time>2020-06-14T16:59:46Z</time>
      </trkpt>
      <trkpt lat="49.46218" lon="-1.81944">
        <ele>6.3</ele>
        <time>2020-06-14T16:59:47Z</time>
      </trkpt>
      <trkpt lat="49.46223" lon="-1.81949">
        <ele>6.4</ele>
        <time>2020-06-14T16:59:48Z</time>
      </trkpt>
      <trkpt lat="49.46228" lon="-1.81952">
        <ele>6.4</ele>
        <time>2020-06-14T16:59:49Z</time>
      </trkpt>
      <trkpt lat="49.46233" lon="-1.81955">
        <ele>6.4</ele>
        <time>2020-06-14T16:59:50Z</time>
      </trkpt>
      <trkpt lat="49.46237" lon="-1.81959">
        <ele>6.5</ele>
        <time>2020-06-14T16:59:51Z</time>
      </trkpt>
      <trkpt lat="49.46242" lon="-1.81964">
        <ele>6.6</ele>
        <time>2020-06-14T16:59:52Z</time>
      </trkpt>
      <trkpt lat="49.46246" lon="-1.81968">
        <ele>6.6</ele>
        <time>2020-06-14T16:59:53Z</time>
      </trkpt>
      <trkpt lat="49.4625" lon="-1.81973">
        <ele>6.7</ele>
        <time>2020-06-14T16:59:54Z</time>
      </trkpt>
      <trkpt lat="49.46254" lon="-1.81977">
        <ele>6.8</ele>
        <time>2020-06-14T16:59:55Z</time>
      </trkpt>
      <trkpt lat="49.46258" lon="-1.8198">
        <ele>6.9</ele>
        <time>2020-06-14T16:59:56Z</time>
      </trkpt>
      <trkpt lat="49.46263" lon="-1.81984">
        <ele>7.1</ele>
        <time>2020-06-14T16:59:57Z</time>
      </trkpt>
      <trkpt lat="49.46267" lon="-1.81988">
        <ele>7.2</ele>
        <time>2020-06-14T16:59:58Z</time>
      </trkpt>
      <trkpt lat="49.46271" lon="-1.81992">
        <ele>7.3</ele>
        <time>2020-06-14T16:59:59Z</time>
      </trkpt>
      <trkpt lat="49.46275" lon="-1.81996">
        <ele>7.5</ele>
        <time>2020-06-14T17:00:00Z</time>
      </trkpt>
      <trkpt lat="49.46279" lon="-1.82">
        <ele>7.6</ele>
        <time>2020-06-14T17:00:01Z</time>
      </trkpt>
      <trkpt lat="49.46283" lon="-1.82004">
        <ele>7.7</ele>
        <time>2020-06-14T17:00:02Z</time>
      </trkpt>
      <trkpt lat="49.46287" lon="-1.82009">
        <ele>7.8</ele>
        <time>2020-06-14T17:00:03Z</time>
      </trkpt>
      <trkpt lat="49.46291" lon="-1.82013">
        <ele>7.9</ele>
        <time>2020-06-14T17:00:04Z</time>
      </trkpt>
      <trkpt lat="49.46295" lon="-1.82017">
        <ele>8</ele>
        <time>2020-06-14T17:00:05Z</time>
      </trkpt>
      <trkpt lat="49.46298" lon="-1.82022">
        <ele>8</ele>
        <time>2020-06-14T17:00:06Z</time>
      </trkpt>
      <trkpt lat="49.46302" lon="-1.82026">
        <ele>8.1</ele>
        <time>2020-06-14T17:00:07Z</time>
      </trkpt>
      <trkpt lat="49.46306" lon="-1.82031">
        <ele>8.2</ele>
        <time>2020-06-14T17:00:08Z</time>
      </trkpt>
      <trkpt lat="49.46309" lon="-1.82036">
        <ele>8.3</ele>
        <time>2020-06-14T17:00:09Z</time>
      </trkpt>
      <trkpt lat="49.46313" lon="-1.82041">
        <ele>8.4</ele>
        <time>2020-06-14T17:00:10Z</time>
      </trkpt>
      <trkpt lat="49.46317" lon="-1.82046">
        <ele>8.5</ele>
        <time>2020-06-14T17:00:11Z</time>
      </trkpt>
      <trkpt lat="49.46321" lon="-1.8205">
        <ele>8.5</ele>
        <time>2020-06-14T17:00:12Z</time>
      </trkpt>
      <trkpt lat="49.46324" lon="-1.82055">
        <ele>8.6</ele>
        <time>2020-06-14T17:00:13Z</time>
      </trkpt>
      <trkpt lat="49.46328" lon="-1.8206">
        <ele>8.7</ele>
        <time>2020-06-14T17:00:14Z</time>
      </trkpt>
      <trkpt lat="49.46331" lon="-1.82066">
        <ele>8.8</ele>
        <time>2020-06-14T17:00:15Z</time>
      </trkpt>
      <trkpt lat="49.46334" lon="-1.82071">
        <ele>8.9</ele>
        <time>2020-06-14T17:00:16Z</time>
      </trkpt>
      <trkpt lat="49.46337" lon="-1.82076">
        <ele>9</ele>
        <time>2020-06-14T17:00:17Z</time>
      </trkpt>
      <trkpt lat="49.46341" lon="-1.8208">
        <ele>9.1</ele>
        <time>2020-06-14T17:00:18Z</time>
      </trkpt>
      <trkpt lat="49.46345" lon="-1.82086">
        <ele>9.3</ele>
        <time>2020-06-14T17:00:19Z</time>
      </trkpt>
      <trkpt lat="49.46348" lon="-1.82091">
        <ele>9.4</ele>
        <time>2020-06-14T17:00:20Z</time>
      </trkpt>
      <trkpt lat="49.46352" lon="-1.82095">
        <ele>9.5</ele>
        <time>2020-06-14T17:00:21Z</time>
      </trkpt>
      <trkpt lat="49.46356" lon="-1.821">
        <ele>9.5</ele>
        <time>2020-06-14T17:00:22Z</time>
      </trkpt>
      <trkpt lat="49.46359" lon="-1.82105">
        <ele>9.6</ele>
        <time>2020-06-14T17:00:23Z</time>
      </trkpt>
      <trkpt lat="49.46363" lon="-1.8211">
        <ele>9.6</ele>
        <time>2020-06-14T17:00:24Z</time>
      </trkpt>
      <trkpt lat="49.46367" lon="-1.82114">
        <ele>9.7</ele>
        <time>2020-06-14T17:00:25Z</time>
      </trkpt>
      <trkpt lat="49.46372" lon="-1.82114">
        <ele>9.7</ele>
        <time>2020-06-14T17:00:26Z</time>
      </trkpt>
      <trkpt lat="49.46377" lon="-1.82115">
        <ele>9.8</ele>
        <time>2020-06-14T17:00:27Z</time>
      </trkpt>
      <trkpt lat="49.46381" lon="-1.82116">
        <ele>9.8</ele>
        <time>2020-06-14T17:00:28Z</time>
      </trkpt>
      <trkpt lat="49.46386" lon="-1.82118">
        <ele>9.9</ele>
        <time>2020-06-14T17:00:29Z</time>
      </trkpt>
      <trkpt lat="49.46391" lon="-1.82119">
        <ele>9.9</ele>
        <time>2020-06-14T17:00:30Z</time>
      </trkpt>
      <trkpt lat="49.46396" lon="-1.82122">
        <ele>9.9</ele>
        <time>2020-06-14T17:00:31Z</time>
      </trkpt>
      <trkpt lat="49.464" lon="-1.82125">
        <ele>10</ele>
        <time>2020-06-14T17:00:32Z</time>
      </trkpt>
      <trkpt lat="49.46405" lon="-1.82128">
        <ele>10</ele>
        <time>2020-06-14T17:00:33Z</time>
      </trkpt>
      <trkpt lat="49.46409" lon="-1.82132">
        <ele>10</ele>
        <time>2020-06-14T17:00:34Z</time>
      </trkpt>
      <trkpt lat="49.46414" lon="-1.82134">
        <ele>10</ele>
        <time>2020-06-14T17:00:35Z</time>
      </trkpt>
      <trkpt lat="49.46418" lon="-1.82137">
        <ele>10</ele>
        <time>2020-06-14T17:00:36Z</time>
      </trkpt>
      <trkpt lat="49.46422" lon="-1.82139">
        <ele>10</ele>
        <time>2020-06-14T17:00:37Z</time>
      </trkpt>
      <trkpt lat="49.46427" lon="-1.82143">
        <ele>10</ele>
        <time>2020-06-14T17:00:38Z</time>
      </trkpt>
      <trkpt lat="49.46431" lon="-1.82147">
        <ele>10</ele>
        <time>2020-06-14T17:00:39Z</time>
      </trkpt>
      <trkpt lat="49.46436" lon="-1.82152">
        <ele>10</ele>
        <time>2020-06-14T17:00:40Z</time>
      </trkpt>
      <trkpt lat="49.4644" lon="-1.82157">
        <ele>10</ele>
        <time>2020-06-14T17:00:41Z</time>
      </trkpt>
      <trkpt lat="49.46444" lon="-1.82161">
        <ele>10</ele>
        <time>2020-06-14T17:00:42Z</time>
      </trkpt>
      <trkpt lat="49.46449" lon="-1.82166">
        <ele>10</ele>
        <time>2020-06-14T17:00:43Z</time>
      </trkpt>
      <trkpt lat="49.46453" lon="-1.8217">
        <ele>9.9</ele>
        <time>2020-06-14T17:00:44Z</time>
      </trkpt>
      <trkpt lat="49.46458" lon="-1.82173">
        <ele>9.9</ele>
        <time>2020-06-14T17:00:45Z</time>
      </trkpt>
      <trkpt lat="49.46463" lon="-1.82177">
        <ele>9.9</ele>
        <time>2020-06-14T17:00:46Z</time>
      </trkpt>
      <trkpt lat="49.46468" lon="-1.8218">
        <ele>9.9</ele>
        <time>2020-06-14T17:00:47Z</time>
      </trkpt>
      <trkpt lat="49.46473" lon="-1.82184">
        <ele>9.9</ele>
        <time>2020-06-14T17:00:48Z</time>
      </trkpt>
      <trkpt lat="49.46478" lon="-1.82188">
        <ele>9.8</ele>
        <time>2020-06-14T17:00:49Z</time>
      </trkpt>
      <trkpt lat="49.46482" lon="-1.82193">
        <ele>9.8</ele>
        <time>2020-06-14T17:00:50Z</time>
      </trkpt>
      <trkpt lat="49.46486" lon="-1.82199">
        <ele>9.8</ele>
        <time>2020-06-14T17:00:51Z</time>
      </trkpt>
      <trkpt lat="49.46489" lon="-1.82205">
        <ele>9.7</ele>
        <time>2020-06-14T17:00:52Z</time>
      </trkpt>
      <trkpt lat="49.46493" lon="-1.82211">
        <ele>9.7</ele>
        <time>2020-06-14T17:00:53Z</time>
      </trkpt>
      <trkpt lat="49.46497" lon="-1.82215">
        <ele>9.7</ele>
        <time>2020-06-14T17:00:54Z</time>
      </trkpt>
      <trkpt lat="49.46501" lon="-1.8222">
        <ele>9.7</ele>
        <time>2020-06-14T17:00:55Z</time>
      </trkpt>
      <trkpt lat="49.46505" lon="-1.82225">
        <ele>9.7</ele>
        <time>2020-06-14T17:00:56Z</time>
      </trkpt>
      <trkpt lat="49.46509" lon="-1.82229">
        <ele>9.6</ele>
        <time>2020-06-14T17:00:57Z</time>
      </trkpt>
      <trkpt lat="49.46513" lon="-1.82235">
        <ele>9.6</ele>
        <time>2020-06-14T17:00:58Z</time>
      </trkpt>
      <trkpt lat="49.46517" lon="-1.82241">
        <ele>9.5</ele>
        <time>2020-06-14T17:00:59Z</time>
      </trkpt>
      <trkpt lat="49.46521" lon="-1.82247">
        <ele>9.4</ele>
        <time>2020-06-14T17:01:00Z</time>
      </trkpt>
      <trkpt lat="49.46525" lon="-1.82253">
        <ele>9.3</ele>
        <time>2020-06-14T17:01:01Z</time>
      </trkpt>
      <trkpt lat="49.46529" lon="-1.8226">
        <ele>9.2</ele>
        <time>2020-06-14T17:01:02Z</time>
      </trkpt>
      <trkpt lat="49.46533" lon="-1.82266">
        <ele>9.1</ele>
        <time>2020-06-14T17:01:03Z</time>
      </trkpt>
      <trkpt lat="49.46536" lon="-1.82274">
        <ele>8.9</ele>
        <time>2020-06-14T17:01:04Z</time>
      </trkpt>
      <trkpt lat="49.4654" lon="-1.82281">
        <ele>8.8</ele>
        <time>2020-06-14T17:01:05Z</time>
      </trkpt>
      <trkpt lat="49.46544" lon="-1.82288">
        <ele>8.6</ele>
        <time>2020-06-14T17:01:06Z</time>
      </trkpt>
      <trkpt lat="49.46548" lon="-1.82295">
        <ele>8.4</ele>
        <time>2020-06-14T17:01:07Z</time>
      </trkpt>
      <trkpt lat="49.46551" lon="-1.82303">
        <ele>8.3</ele>
        <time>2020-06-14T17:01:08Z</time>
      </trkpt>
      <trkpt lat="49.46555" lon="-1.8231">
        <ele>8.2</ele>
        <time>2020-06-14T17:01:09Z</time>
      </trkpt>
      <trkpt lat="49.46559" lon="-1.82318">
        <ele>8</ele>
        <time>2020-06-14T17:01:10Z</time>
      </trkpt>
      <trkpt lat="49.46562" lon="-1.82325">
        <ele>7.9</ele>
        <time>2020-06-14T17:01:11Z</time>
      </trkpt>
      <trkpt lat="49.46567" lon="-1.82333">
        <ele>7.8</ele>
        <time>2020-06-14T17:01:12Z</time>
      </trkpt>
      <trkpt lat="49.4657" lon="-1.82341">
        <ele>7.6</ele>
        <time>2020-06-14T17:01:13Z</time>
      </trkpt>
      <trkpt lat="49.46573" lon="-1.82349">
        <ele>7.5</ele>
        <time>2020-06-14T17:01:14Z</time>
      </trkpt>
      <trkpt lat="49.46577" lon="-1.82357">
        <ele>7.3</ele>
        <time>2020-06-14T17:01:15Z</time>
      </trkpt>
      <trkpt lat="49.46581" lon="-1.82365">
        <ele>7.2</ele>
        <time>2020-06-14T17:01:16Z</time>
      </trkpt>
      <trkpt lat="49.46585" lon="-1.82372">
        <ele>7</ele>
        <time>2020-06-14T17:01:17Z</time>
      </trkpt>
      <trkpt lat="49.46588" lon="-1.8238">
        <ele>6.8</ele>
        <time>2020-06-14T17:01:18Z</time>
      </trkpt>
      <trkpt lat="49.46593" lon="-1.82387">
        <ele>6.7</ele>
        <time>2020-06-14T17:01:19Z</time>
      </trkpt>
      <trkpt lat="49.46597" lon="-1.82394">
        <ele>6.6</ele>
        <time>2020-06-14T17:01:20Z</time>
      </trkpt>
      <trkpt lat="49.46601" lon="-1.82402">
        <ele>6.5</ele>
        <time>2020-06-14T17:01:21Z</time>
      </trkpt>
      <trkpt lat="49.46605" lon="-1.8241">
        <ele>6.4</ele>
        <time>2020-06-14T17:01:22Z</time>
      </trkpt>
      <trkpt lat="49.46609" lon="-1.82417">
        <ele>6.3</ele>
        <time>2020-06-14T17:01:23Z</time>
      </trkpt>
      <trkpt lat="49.46614" lon="-1.82424">
        <ele>6.3</ele>
        <time>2020-06-14T17:01:24Z</time>
      </trkpt>
      <trkpt lat="49.46617" lon="-1.82432">
        <ele>6.2</ele>
        <time>2020-06-14T17:01:25Z</time>
      </trkpt>
      <trkpt lat="49.46621" lon="-1.8244">
        <ele>6.1</ele>
        <time>2020-06-14T17:01:26Z</time>
      </trkpt>
      <trkpt lat="49.46625" lon="-1.82447">
        <ele>6</ele>
        <time>2020-06-14T17:01:27Z</time>
      </trkpt>
      <trkpt lat="49.46629" lon="-1.82455">
        <ele>6</ele>
        <time>2020-06-14T17:01:28Z</time>
      </trkpt>
      <trkpt lat="49.46633" lon="-1.82462">
        <ele>5.9</ele>
        <time>2020-06-14T17:01:29Z</time>
      </trkpt>
      <trkpt lat="49.46636" lon="-1.82469">
        <ele>5.8</ele>
        <time>2020-06-14T17:01:30Z</time>
      </trkpt>
      <trkpt lat="49.4664" lon="-1.82476">
        <ele>5.6</ele>
        <time>2020-06-14T17:01:31Z</time>
      </trkpt>
      <trkpt lat="49.46644" lon="-1.82483">
        <ele>5.5</ele>
        <time>2020-06-14T17:01:32Z</time>
      </trkpt>
      <trkpt lat="49.46648" lon="-1.82491">
        <ele>5.5</ele>
        <time>2020-06-14T17:01:33Z</time>
      </trkpt>
      <trkpt lat="49.46652" lon="-1.82498">
        <ele>5.4</ele>
        <time>2020-06-14T17:01:34Z</time>
      </trkpt>
      <trkpt lat="49.46656" lon="-1.82505">
        <ele>5.3</ele>
        <time>2020-06-14T17:01:35Z</time>
      </trkpt>
      <trkpt lat="49.46659" lon="-1.82513">
        <ele>5.3</ele>
        <time>2020-06-14T17:01:36Z</time>
      </trkpt>
      <trkpt lat="49.46663" lon="-1.8252">
        <ele>5.3</ele>
        <time>2020-06-14T17:01:37Z</time>
      </trkpt>
      <trkpt lat="49.46667" lon="-1.82528">
        <ele>5.3</ele>
        <time>2020-06-14T17:01:38Z</time>
      </trkpt>
      <trkpt lat="49.4667" lon="-1.82536">
        <ele>5.2</ele>
        <time>2020-06-14T17:01:39Z</time>
      </trkpt>
      <trkpt lat="49.46675" lon="-1.82543">
        <ele>5.2</ele>
        <time>2020-06-14T17:01:40Z</time>
      </trkpt>
      <trkpt lat="49.46678" lon="-1.8255">
        <ele>5.2</ele>
        <time>2020-06-14T17:01:41Z</time>
      </trkpt>
      <trkpt lat="49.46681" lon="-1.82558">
        <ele>5.3</ele>
        <time>2020-06-14T17:01:42Z</time>
      </trkpt>
      <trkpt lat="49.46685" lon="-1.82565">
        <ele>5.3</ele>
        <time>2020-06-14T17:01:43Z</time>
      </trkpt>
      <trkpt lat="49.46689" lon="-1.82572">
        <ele>5.3</ele>
        <time>2020-06-14T17:01:44Z</time>
      </trkpt>
      <trkpt lat="49.46693" lon="-1.82578">
        <ele>5.4</ele>
        <time>2020-06-14T17:01:45Z</time>
      </trkpt>
      <trkpt lat="49.46696" lon="-1.82585">
        <ele>5.5</ele>
        <time>2020-06-14T17:01:46Z</time>
      </trkpt>
      <trkpt lat="49.46699" lon="-1.82592">
        <ele>5.6</ele>
        <time>2020-06-14T17:01:47Z</time>
      </trkpt>
      <trkpt lat="49.46703" lon="-1.82599">
        <ele>5.6</ele>
        <time>2020-06-14T17:01:48Z</time>
      </trkpt>
      <trkpt lat="49.46708" lon="-1.82604">
        <ele>5.7</ele>
        <time>2020-06-14T17:01:49Z</time>
      </trkpt>
      <trkpt lat="49.46711" lon="-1.8261">
        <ele>5.8</ele>
        <time>2020-06-14T17:01:50Z</time>
      </trkpt>
      <trkpt lat="49.46714" lon="-1.82616">
        <ele>5.9</ele>
        <time>2020-06-14T17:01:51Z</time>
      </trkpt>
      <trkpt lat="49.46717" lon="-1.82623">
        <ele>6</ele>
        <time>2020-06-14T17:01:52Z</time>
      </trkpt>
      <trkpt lat="49.4672" lon="-1.82629">
        <ele>6.1</ele>
        <time>2020-06-14T17:01:53Z</time>
      </trkpt>
      <trkpt lat="49.46723" lon="-1.82635">
        <ele>6.1</ele>
        <time>2020-06-14T17:01:54Z</time>
      </trkpt>
      <trkpt lat="49.46725" lon="-1.82642">
        <ele>6.2</ele>
        <time>2020-06-14T17:01:55Z</time>
      </trkpt>
      <trkpt lat="49.46728" lon="-1.82648">
        <ele>6.3</ele>
        <time>2020-06-14T17:01:56Z</time>
      </trkpt>
      <trkpt lat="49.46731" lon="-1.82654">
        <ele>6.4</ele>
        <time>2020-06-14T17:01:57Z</time>
      </trkpt>
      <trkpt lat="49.46734" lon="-1.8266">
        <ele>6.5</ele>
        <time>2020-06-14T17:01:58Z</time>
      </trkpt>
      <trkpt lat="49.46737" lon="-1.82666">
        <ele>6.5</ele>
        <time>2020-06-14T17:01:59Z</time>
      </trkpt>
      <trkpt lat="49.4674" lon="-1.82671">
        <ele>6.6</ele>
        <time>2020-06-14T17:02:00Z</time>
      </trkpt>
      <trkpt lat="49.46743" lon="-1.82676">
        <ele>6.6</ele>
        <time>2020-06-14T17:02:01Z</time>
      </trkpt>
      <trkpt lat="49.46745" lon="-1.82683">
        <ele>6.6</ele>
        <time>2020-06-14T17:02:02Z</time>
      </trkpt>
      <trkpt lat="49.46748" lon="-1.82688">
        <ele>6.7</ele>
        <time>2020-06-14T17:02:03Z</time>
      </trkpt>
      <trkpt lat="49.46752" lon="-1.82693">
        <ele>6.7</ele>
        <time>2020-06-14T17:02:04Z</time>
      </trkpt>
      <trkpt lat="49.46754" lon="-1.82699">
        <ele>6.7</ele>
        <time>2020-06-14T17:02:05Z</time>
      </trkpt>
      <trkpt lat="49.46758" lon="-1.82704">
        <ele>6.7</ele>
        <time>2020-06-14T17:02:06Z</time>
      </trkpt>
      <trkpt lat="49.46761" lon="-1.8271">
        <ele>6.7</ele>
        <time>2020-06-14T17:02:07Z</time>
      </trkpt>
      <trkpt lat="49.46764" lon="-1.82716">
        <ele>6.7</ele>
        <time>2020-06-14T17:02:08Z</time>
      </trkpt>
      <trkpt lat="49.46767" lon="-1.82722">
        <ele>6.7</ele>
        <time>2020-06-14T17:02:09Z</time>
      </trkpt>
      <trkpt lat="49.46771" lon="-1.82729">
        <ele>6.7</ele>
        <time>2020-06-14T17:02:10Z</time>
      </trkpt>
      <trkpt lat="49.46774" lon="-1.82735">
        <ele>6.7</ele>
        <time>2020-06-14T17:02:11Z</time>
      </trkpt>
      <trkpt lat="49.46778" lon="-1.82741">
        <ele>6.7</ele>
        <time>2020-06-14T17:02:12Z</time>
      </trkpt>
      <trkpt lat="49.46781" lon="-1.82747">
        <ele>6.7</ele>
        <time>2020-06-14T17:02:13Z</time>
      </trkpt>
      <trkpt lat="49.46785" lon="-1.82754">
        <ele>6.6</ele>
        <time>2020-06-14T17:02:14Z</time>
      </trkpt>
      <trkpt lat="49.46788" lon="-1.8276">
        <ele>6.6</ele>
        <time>2020-06-14T17:02:15Z</time>
      </trkpt>
      <trkpt lat="49.46792" lon="-1.82766">
        <ele>6.6</ele>
        <time>2020-06-14T17:02:16Z</time>
      </trkpt>
      <trkpt lat="49.46795" lon="-1.82772">
        <ele>6.6</ele>
        <time>2020-06-14T17:02:17Z</time>
      </trkpt>
      <trkpt lat="49.46799" lon="-1.82779">
        <ele>6.5</ele>
        <time>2020-06-14T17:02:18Z</time>
      </trkpt>
      <trkpt lat="49.46802" lon="-1.82785">
        <ele>6.5</ele>
        <time>2020-06-14T17:02:19Z</time>
      </trkpt>
      <trkpt lat="49.46806" lon="-1.82791">
        <ele>6.4</ele>
        <time>2020-06-14T17:02:20Z</time>
      </trkpt>
      <trkpt lat="49.46809" lon="-1.82797">
        <ele>6.4</ele>
        <time>2020-06-14T17:02:21Z</time>
      </trkpt>
      <trkpt lat="49.46811" lon="-1.82804">
        <ele>6.3</ele>
        <time>2020-06-14T17:02:22Z</time>
      </trkpt>
      <trkpt lat="49.46814" lon="-1.82811">
        <ele>6.2</ele>
        <time>2020-06-14T17:02:23Z</time>
      </trkpt>
      <trkpt lat="49.46818" lon="-1.82816">
        <ele>6.2</ele>
        <time>2020-06-14T17:02:24Z</time>
      </trkpt>
      <trkpt lat="49.46822" lon="-1.82821">
        <ele>6.2</ele>
        <time>2020-06-14T17:02:25Z</time>
      </trkpt>
      <trkpt lat="49.46826" lon="-1.82827">
        <ele>6.1</ele>
        <time>2020-06-14T17:02:26Z</time>
      </trkpt>
      <trkpt lat="49.46829" lon="-1.82833">
        <ele>6</ele>
        <time>2020-06-14T17:02:27Z</time>
      </trkpt>
      <trkpt lat="49.46832" lon="-1.8284">
        <ele>5.9</ele>
        <time>2020-06-14T17:02:28Z</time>
      </trkpt>
      <trkpt lat="49.46836" lon="-1.82846">
        <ele>5.9</ele>
        <time>2020-06-14T17:02:29Z</time>
      </trkpt>
      <trkpt lat="49.4684" lon="-1.82852">
        <ele>5.8</ele>
        <time>2020-06-14T17:02:30Z</time>
      </trkpt>
      <trkpt lat="49.46843" lon="-1.82858">
        <ele>5.7</ele>
        <time>2020-06-14T17:02:31Z</time>
      </trkpt>
      <trkpt lat="49.46847" lon="-1.82864">
        <ele>5.7</ele>
        <time>2020-06-14T17:02:32Z</time>
      </trkpt>
      <trkpt lat="49.4685" lon="-1.8287">
        <ele>5.6</ele>
        <time>2020-06-14T17:02:33Z</time>
      </trkpt>
      <trkpt lat="49.46854" lon="-1.82876">
        <ele>5.5</ele>
        <time>2020-06-14T17:02:34Z</time>
      </trkpt>
      <trkpt lat="49.46858" lon="-1.82881">
        <ele>5.5</ele>
        <time>2020-06-14T17:02:35Z</time>
      </trkpt>
      <trkpt lat="49.46861" lon="-1.82886">
        <ele>5.4</ele>
        <time>2020-06-14T17:02:36Z</time>
      </trkpt>
      <trkpt lat="49.46866" lon="-1.82892">
        <ele>5.4</ele>
        <time>2020-06-14T17:02:37Z</time>
      </trkpt>
      <trkpt lat="49.4687" lon="-1.82898">
        <ele>5.3</ele>
        <time>2020-06-14T17:02:38Z</time>
      </trkpt>
      <trkpt lat="49.46874" lon="-1.82904">
        <ele>5.2</ele>
        <time>2020-06-14T17:02:39Z</time>
      </trkpt>
      <trkpt lat="49.46878" lon="-1.8291">
        <ele>5.2</ele>
        <time>2020-06-14T17:02:40Z</time>
      </trkpt>
      <trkpt lat="49.46882" lon="-1.82915">
        <ele>5.2</ele>
        <time>2020-06-14T17:02:41Z</time>
      </trkpt>
      <trkpt lat="49.46886" lon="-1.82921">
        <ele>5.2</ele>
        <time>2020-06-14T17:02:42Z</time>
      </trkpt>
      <trkpt lat="49.46891" lon="-1.82926">
        <ele>5.1</ele>
        <time>2020-06-14T17:02:43Z</time>
      </trkpt>
      <trkpt lat="49.46896" lon="-1.82931">
        <ele>5.1</ele>
        <time>2020-06-14T17:02:44Z</time>
      </trkpt>
      <trkpt lat="49.46901" lon="-1.82934">
        <ele>5.1</ele>
        <time>2020-06-14T17:02:45Z</time>
      </trkpt>
      <trkpt lat="49.46907" lon="-1.82938">
        <ele>5.2</ele>
        <time>2020-06-14T17:02:46Z</time>
      </trkpt>
      <trkpt lat="49.46911" lon="-1.82943">
        <ele>5.2</ele>
        <time>2020-06-14T17:02:47Z</time>
      </trkpt>
      <trkpt lat="49.46916" lon="-1.82947">
        <ele>5.2</ele>
        <time>2020-06-14T17:02:48Z</time>
      </trkpt>
      <trkpt lat="49.4692" lon="-1.82954">
        <ele>5.2</ele>
        <time>2020-06-14T17:02:49Z</time>
      </trkpt>
      <trkpt lat="49.46925" lon="-1.82959">
        <ele>5.2</ele>
        <time>2020-06-14T17:02:50Z</time>
      </trkpt>
      <trkpt lat="49.46929" lon="-1.82964">
        <ele>5.3</ele>
        <time>2020-06-14T17:02:51Z</time>
      </trkpt>
      <trkpt lat="49.46933" lon="-1.82969">
        <ele>5.3</ele>
        <time>2020-06-14T17:02:52Z</time>
      </trkpt>
      <trkpt lat="49.46938" lon="-1.82973">
        <ele>5.4</ele>
        <time>2020-06-14T17:02:53Z</time>
      </trkpt>
      <trkpt lat="49.46942" lon="-1.82978">
        <ele>5.5</ele>
        <time>2020-06-14T17:02:54Z</time>
      </trkpt>
      <trkpt lat="49.46945" lon="-1.82983">
        <ele>5.5</ele>
        <time>2020-06-14T17:02:55Z</time>
      </trkpt>
      <trkpt lat="49.46949" lon="-1.82988">
        <ele>5.6</ele>
        <time>2020-06-14T17:02:56Z</time>
      </trkpt>
      <trkpt lat="49.46952" lon="-1.82993">
        <ele>5.7</ele>
        <time>2020-06-14T17:02:57Z</time>
      </trkpt>
      <trkpt lat="49.46955" lon="-1.83">
        <ele>5.7</ele>
        <time>2020-06-14T17:02:58Z</time>
      </trkpt>
      <trkpt lat="49.46959" lon="-1.83004">
        <ele>5.8</ele>
        <time>2020-06-14T17:02:59Z</time>
      </trkpt>
      <trkpt lat="49.46963" lon="-1.83007">
        <ele>5.9</ele>
        <time>2020-06-14T17:03:00Z</time>
      </trkpt>
      <trkpt lat="49.46966" lon="-1.83011">
        <ele>6</ele>
        <time>2020-06-14T17:03:01Z</time>
      </trkpt>
      <trkpt lat="49.46969" lon="-1.83016">
        <ele>6</ele>
        <time>2020-06-14T17:03:02Z</time>
      </trkpt>
      <trkpt lat="49.46972" lon="-1.83021">
        <ele>6.1</ele>
        <time>2020-06-14T17:03:03Z</time>
      </trkpt>
      <trkpt lat="49.46976" lon="-1.83026">
        <ele>6.1</ele>
        <time>2020-06-14T17:03:04Z</time>
      </trkpt>
      <trkpt lat="49.46979" lon="-1.8303">
        <ele>6.2</ele>
        <time>2020-06-14T17:03:05Z</time>
      </trkpt>
      <trkpt lat="49.46982" lon="-1.83034">
        <ele>6.3</ele>
        <time>2020-06-14T17:03:06Z</time>
      </trkpt>
      <trkpt lat="49.46986" lon="-1.83038">
        <ele>6.4</ele>
        <time>2020-06-14T17:03:07Z</time>
      </trkpt>
      <trkpt lat="49.46989" lon="-1.83043">
        <ele>6.4</ele>
        <time>2020-06-14T17:03:08Z</time>
      </trkpt>
      <trkpt lat="49.46992" lon="-1.83048">
        <ele>6.5</ele>
        <time>2020-06-14T17:03:09Z</time>
      </trkpt>
      <trkpt lat="49.46996" lon="-1.83053">
        <ele>6.6</ele>
        <time>2020-06-14T17:03:10Z</time>
      </trkpt>
      <trkpt lat="49.46999" lon="-1.83058">
        <ele>6.7</ele>
        <time>2020-06-14T17:03:11Z</time>
      </trkpt>
      <trkpt lat="49.47002" lon="-1.83063">
        <ele>6.6</ele>
        <time>2020-06-14T17:03:12Z</time>
      </trkpt>
      <trkpt lat="49.47005" lon="-1.83069">
        <ele>6.6</ele>
        <time>2020-06-14T17:03:13Z</time>
      </trkpt>
      <trkpt lat="49.47008" lon="-1.83074">
        <ele>6.5</ele>
        <time>2020-06-14T17:03:14Z</time>
      </trkpt>
      <trkpt lat="49.47012" lon="-1.83079">
        <ele>6.5</ele>
        <time>2020-06-14T17:03:15Z</time>
      </trkpt>
      <trkpt lat="49.47015" lon="-1.83085">
        <ele>6.4</ele>
        <time>2020-06-14T17:03:16Z</time>
      </trkpt>
      <trkpt lat="49.47018" lon="-1.83091">
        <ele>6.3</ele>
        <time>2020-06-14T17:03:17Z</time>
      </trkpt>
      <trkpt lat="49.47021" lon="-1.83097">
        <ele>6.3</ele>
        <time>2020-06-14T17:03:18Z</time>
      </trkpt>
      <trkpt lat="49.47024" lon="-1.83104">
        <ele>6.2</ele>
        <time>2020-06-14T17:03:19Z</time>
      </trkpt>
      <trkpt lat="49.47027" lon="-1.83112">
        <ele>6.1</ele>
        <time>2020-06-14T17:03:20Z</time>
      </trkpt>
      <trkpt lat="49.4703" lon="-1.83118">
        <ele>6.1</ele>
        <time>2020-06-14T17:03:21Z</time>
      </trkpt>
      <trkpt lat="49.47034" lon="-1.83125">
        <ele>6.1</ele>
        <time>2020-06-14T17:03:22Z</time>
      </trkpt>
      <trkpt lat="49.47037" lon="-1.83131">
        <ele>6.1</ele>
        <time>2020-06-14T17:03:23Z</time>
      </trkpt>
      <trkpt lat="49.4704" lon="-1.83137">
        <ele>6</ele>
        <time>2020-06-14T17:03:24Z</time>
      </trkpt>
      <trkpt lat="49.47043" lon="-1.83143">
        <ele>6</ele>
        <time>2020-06-14T17:03:25Z</time>
      </trkpt>
      <trkpt lat="49.47046" lon="-1.83148">
        <ele>6</ele>
        <time>2020-06-14T17:03:26Z</time>
      </trkpt>
      <trkpt lat="49.4705" lon="-1.83154">
        <ele>6</ele>
        <time>2020-06-14T17:03:27Z</time>
      </trkpt>
      <trkpt lat="49.47054" lon="-1.83159">
        <ele>6</ele>
        <time>2020-06-14T17:03:28Z</time>
      </trkpt>
      <trkpt lat="49.47059" lon="-1.83165">
        <ele>6.1</ele>
        <time>2020-06-14T17:03:29Z</time>
      </trkpt>
      <trkpt lat="49.47062" lon="-1.83172">
        <ele>6.1</ele>
        <time>2020-06-14T17:03:30Z</time>
      </trkpt>
      <trkpt lat="49.47066" lon="-1.83178">
        <ele>6.1</ele>
        <time>2020-06-14T17:03:31Z</time>
      </trkpt>
      <trkpt lat="49.47069" lon="-1.83185">
        <ele>6.2</ele>
        <time>2020-06-14T17:03:32Z</time>
      </trkpt>
      <trkpt lat="49.47071" lon="-1.83192">
        <ele>6.2</ele>
        <time>2020-06-14T17:03:33Z</time>
      </trkpt>
      <trkpt lat="49.47074" lon="-1.83199">
        <ele>6.3</ele>
        <time>2020-06-14T17:03:34Z</time>
      </trkpt>
      <trkpt lat="49.47076" lon="-1.83206">
        <ele>6.4</ele>
        <time>2020-06-14T17:03:35Z</time>
      </trkpt>
      <trkpt lat="49.47079" lon="-1.83212">
        <ele>6.5</ele>
        <time>2020-06-14T17:03:36Z</time>
      </trkpt>
      <trkpt lat="49.47082" lon="-1.83218">
        <ele>6.5</ele>
        <time>2020-06-14T17:03:37Z</time>
      </trkpt>
      <trkpt lat="49.47086" lon="-1.83222">
        <ele>6.6</ele>
        <time>2020-06-14T17:03:38Z</time>
      </trkpt>
      <trkpt lat="49.4709" lon="-1.83225">
        <ele>6.7</ele>
        <time>2020-06-14T17:03:39Z</time>
      </trkpt>
      <trkpt lat="49.47095" lon="-1.83225">
        <ele>6.8</ele>
        <time>2020-06-14T17:03:40Z</time>
      </trkpt>
      <trkpt lat="49.471" lon="-1.83225">
        <ele>6.9</ele>
        <time>2020-06-14T17:03:41Z</time>
      </trkpt>
      <trkpt lat="49.47105" lon="-1.83226">
        <ele>7</ele>
        <time>2020-06-14T17:03:42Z</time>
      </trkpt>
      <trkpt lat="49.47109" lon="-1.83226">
        <ele>7.2</ele>
        <time>2020-06-14T17:03:43Z</time>
      </trkpt>
      <trkpt lat="49.47114" lon="-1.83226">
        <ele>7.4</ele>
        <time>2020-06-14T17:03:44Z</time>
      </trkpt>
      <trkpt lat="49.47118" lon="-1.83225">
        <ele>7.5</ele>
        <time>2020-06-14T17:03:45Z</time>
      </trkpt>
      <trkpt lat="49.47123" lon="-1.83225">
        <ele>7.7</ele>
        <time>2020-06-14T17:03:46Z</time>
      </trkpt>
      <trkpt lat="49.47127" lon="-1.83226">
        <ele>7.9</ele>
        <time>2020-06-14T17:03:47Z</time>
      </trkpt>
      <trkpt lat="49.47131" lon="-1.83225">
        <ele>8</ele>
        <time>2020-06-14T17:03:48Z</time>
      </trkpt>
      <trkpt lat="49.47134" lon="-1.83224">
        <ele>8.2</ele>
        <time>2020-06-14T17:03:49Z</time>
      </trkpt>
      <trkpt lat="49.47138" lon="-1.83224">
        <ele>8.4</ele>
        <time>2020-06-14T17:03:50Z</time>
      </trkpt>
      <trkpt lat="49.47141" lon="-1.83223">
        <ele>8.7</ele>
        <time>2020-06-14T17:03:51Z</time>
      </trkpt>
      <trkpt lat="49.47145" lon="-1.83221">
        <ele>8.9</ele>
        <time>2020-06-14T17:03:52Z</time>
      </trkpt>
      <trkpt lat="49.47148" lon="-1.83217">
        <ele>9.2</ele>
        <time>2020-06-14T17:03:53Z</time>
      </trkpt>
      <trkpt lat="49.47151" lon="-1.83214">
        <ele>9.6</ele>
        <time>2020-06-14T17:03:54Z</time>
      </trkpt>
      <trkpt lat="49.47154" lon="-1.8321">
        <ele>9.9</ele>
        <time>2020-06-14T17:03:55Z</time>
      </trkpt>
      <trkpt lat="49.47158" lon="-1.83208">
        <ele>10.2</ele>
        <time>2020-06-14T17:03:56Z</time>
      </trkpt>
      <trkpt lat="49.47161" lon="-1.83205">
        <ele>10.5</ele>
        <time>2020-06-14T17:03:57Z</time>
      </trkpt>
      <trkpt lat="49.47165" lon="-1.83203">
        <ele>10.9</ele>
        <time>2020-06-14T17:03:58Z</time>
      </trkpt>
      <trkpt lat="49.47168" lon="-1.832">
        <ele>11.2</ele>
        <time>2020-06-14T17:03:59Z</time>
      </trkpt>
      <trkpt lat="49.47172" lon="-1.83199">
        <ele>11.6</ele>
        <time>2020-06-14T17:04:00Z</time>
      </trkpt>
      <trkpt lat="49.47177" lon="-1.83197">
        <ele>12</ele>
        <time>2020-06-14T17:04:01Z</time>
      </trkpt>
      <trkpt lat="49.47181" lon="-1.83195">
        <ele>12.5</ele>
        <time>2020-06-14T17:04:02Z</time>
      </trkpt>
      <trkpt lat="49.47186" lon="-1.83193">
        <ele>13</ele>
        <time>2020-06-14T17:04:03Z</time>
      </trkpt>
      <trkpt lat="49.4719" lon="-1.83192">
        <ele>13.4</ele>
        <time>2020-06-14T17:04:04Z</time>
      </trkpt>
      <trkpt lat="49.47192" lon="-1.8319">
        <ele>13.7</ele>
        <time>2020-06-14T17:04:05Z</time>
      </trkpt>
      <trkpt lat="49.47197" lon="-1.83188">
        <ele>14.2</ele>
        <time>2020-06-14T17:04:06Z</time>
      </trkpt>
      <trkpt lat="49.47198" lon="-1.83187">
        <ele>14.4</ele>
        <time>2020-06-14T17:04:07Z</time>
      </trkpt>
      <trkpt lat="49.47201" lon="-1.83185">
        <ele>14.7</ele>
        <time>2020-06-14T17:04:08Z</time>
      </trkpt>
      <trkpt lat="49.47202" lon="-1.83184">
        <ele>14.9</ele>
        <time>2020-06-14T17:04:09Z</time>
      </trkpt>
      <trkpt lat="49.47205" lon="-1.83181">
        <ele>15.3</ele>
        <time>2020-06-14T17:04:10Z</time>
      </trkpt>
      <trkpt lat="49.47209" lon="-1.83178">
        <ele>15.7</ele>
        <time>2020-06-14T17:04:11Z</time>
      </trkpt>
      <trkpt lat="49.4721" lon="-1.83176">
        <ele>16</ele>
        <time>2020-06-14T17:04:12Z</time>
      </trkpt>
      <trkpt lat="49.47213" lon="-1.83173">
        <ele>16.4</ele>
        <time>2020-06-14T17:04:13Z</time>
      </trkpt>
      <trkpt lat="49.47217" lon="-1.83169">
        <ele>16.9</ele>
        <time>2020-06-14T17:04:14Z</time>
      </trkpt>
      <trkpt lat="49.4722" lon="-1.83164">
        <ele>17.5</ele>
        <time>2020-06-14T17:04:15Z</time>
      </trkpt>
      <trkpt lat="49.47222" lon="-1.83162">
        <ele>17.7</ele>
        <time>2020-06-14T17:04:16Z</time>
      </trkpt>
      <trkpt lat="49.47224" lon="-1.83159">
        <ele>18.1</ele>
        <time>2020-06-14T17:04:17Z</time>
      </trkpt>
      <trkpt lat="49.47226" lon="-1.83156">
        <ele>18.5</ele>
        <time>2020-06-14T17:04:18Z</time>
      </trkpt>
      <trkpt lat="49.47227" lon="-1.83155">
        <ele>18.6</ele>
        <time>2020-06-14T17:04:19Z</time>
      </trkpt>
      <trkpt lat="49.47229" lon="-1.8315">
        <ele>19.2</ele>
        <time>2020-06-14T17:04:20Z</time>
      </trkpt>
      <trkpt lat="49.47231" lon="-1.83146">
        <ele>19.6</ele>
        <time>2020-06-14T17:04:21Z</time>
      </trkpt>
      <trkpt lat="49.47232" lon="-1.83145">
        <ele>19.8</ele>
        <time>2020-06-14T17:04:22Z</time>
      </trkpt>
      <trkpt lat="49.47235" lon="-1.83141">
        <ele>20.3</ele>
        <time>2020-06-14T17:04:23Z</time>
      </trkpt>
      <trkpt lat="49.47236" lon="-1.83139">
        <ele>20.6</ele>
        <time>2020-06-14T17:04:24Z</time>
      </trkpt>
      <trkpt lat="49.47237" lon="-1.83136">
        <ele>20.9</ele>
        <time>2020-06-14T17:04:25Z</time>
      </trkpt>
      <trkpt lat="49.47237" lon="-1.83135">
        <ele>21</ele>
        <time>2020-06-14T17:04:26Z</time>
      </trkpt>
      <trkpt lat="49.47238" lon="-1.83134">
        <ele>21.1</ele>
        <time>2020-06-14T17:04:27Z</time>
      </trkpt>
      <trkpt lat="49.47239" lon="-1.83133">
        <ele>21.3</ele>
        <time>2020-06-14T17:04:28Z</time>
      </trkpt>
      <trkpt lat="49.47239" lon="-1.83129">
        <ele>21.6</ele>
        <time>2020-06-14T17:04:29Z</time>
      </trkpt>
      <trkpt lat="49.4724" lon="-1.83124">
        <ele>22.1</ele>
        <time>2020-06-14T17:04:30Z</time>
      </trkpt>
      <trkpt lat="49.4724" lon="-1.83122">
        <ele>22.3</ele>
        <time>2020-06-14T17:04:31Z</time>
      </trkpt>
      <trkpt lat="49.47242" lon="-1.83117">
        <ele>22.8</ele>
        <time>2020-06-14T17:04:32Z</time>
      </trkpt>
      <trkpt lat="49.47242" lon="-1.83116">
        <ele>23</ele>
        <time>2020-06-14T17:04:33Z</time>
      </trkpt>
      <trkpt lat="49.47243" lon="-1.83112">
        <ele>23.4</ele>
        <time>2020-06-14T17:04:34Z</time>
      </trkpt>
      <trkpt lat="49.47243" lon="-1.8311">
        <ele>23.6</ele>
        <time>2020-06-14T17:04:35Z</time>
      </trkpt>
      <trkpt lat="49.47245" lon="-1.83106">
        <ele>24</ele>
        <time>2020-06-14T17:04:36Z</time>
      </trkpt>
      <trkpt lat="49.47245" lon="-1.831">
        <ele>24.6</ele>
        <time>2020-06-14T17:04:37Z</time>
      </trkpt>
      <trkpt lat="49.47246" lon="-1.83099">
        <ele>24.7</ele>
        <time>2020-06-14T17:04:38Z</time>
      </trkpt>
      <trkpt lat="49.47246" lon="-1.83094">
        <ele>25.2</ele>
        <time>2020-06-14T17:04:39Z</time>
      </trkpt>
      <trkpt lat="49.47246" lon="-1.83092">
        <ele>25.3</ele>
        <time>2020-06-14T17:04:40Z</time>
      </trkpt>
      <trkpt lat="49.47247" lon="-1.83086">
        <ele>25.9</ele>
        <time>2020-06-14T17:04:41Z</time>
      </trkpt>
      <trkpt lat="49.47247" lon="-1.83084">
        <ele>26.1</ele>
        <time>2020-06-14T17:04:42Z</time>
      </trkpt>
      <trkpt lat="49.47248" lon="-1.8308">
        <ele>26.6</ele>
        <time>2020-06-14T17:04:43Z</time>
      </trkpt>
      <trkpt lat="49.47248" lon="-1.83078">
        <ele>26.8</ele>
        <time>2020-06-14T17:04:44Z</time>
      </trkpt>
      <trkpt lat="49.47249" lon="-1.83073">
        <ele>27.3</ele>
        <time>2020-06-14T17:04:45Z</time>
      </trkpt>
      <trkpt lat="49.47249" lon="-1.83071">
        <ele>27.5</ele>
        <time>2020-06-14T17:04:46Z</time>
      </trkpt>
      <trkpt lat="49.4725" lon="-1.83066">
        <ele>28</ele>
        <time>2020-06-14T17:04:47Z</time>
      </trkpt>
      <trkpt lat="49.4725" lon="-1.83064">
        <ele>28.1</ele>
        <time>2020-06-14T17:04:48Z</time>
      </trkpt>
      <trkpt lat="49.47252" lon="-1.8306">
        <ele>28.6</ele>
        <time>2020-06-14T17:04:49Z</time>
      </trkpt>
      <trkpt lat="49.47252" lon="-1.83059">
        <ele>28.7</ele>
        <time>2020-06-14T17:04:50Z</time>
      </trkpt>
      <trkpt lat="49.47253" lon="-1.83054">
        <ele>29.2</ele>
        <time>2020-06-14T17:04:51Z</time>
      </trkpt>
      <trkpt lat="49.47253" lon="-1.83052">
        <ele>29.4</ele>
        <time>2020-06-14T17:04:52Z</time>
      </trkpt>
      <trkpt lat="49.47254" lon="-1.83048">
        <ele>29.8</ele>
        <time>2020-06-14T17:04:53Z</time>
      </trkpt>
      <trkpt lat="49.47255" lon="-1.83046">
        <ele>30</ele>
        <time>2020-06-14T17:04:54Z</time>
      </trkpt>
      <trkpt lat="49.47255" lon="-1.83042">
        <ele>30.5</ele>
        <time>2020-06-14T17:04:55Z</time>
      </trkpt>
      <trkpt lat="49.47256" lon="-1.8304">
        <ele>30.6</ele>
        <time>2020-06-14T17:04:56Z</time>
      </trkpt>
      <trkpt lat="49.47257" lon="-1.83036">
        <ele>31.1</ele>
        <time>2020-06-14T17:04:57Z</time>
      </trkpt>
      <trkpt lat="49.47257" lon="-1.83035">
        <ele>31.2</ele>
        <time>2020-06-14T17:04:58Z</time>
      </trkpt>
      <trkpt lat="49.47258" lon="-1.83032">
        <ele>31.5</ele>
        <time>2020-06-14T17:04:59Z</time>
      </trkpt>
      <trkpt lat="49.47258" lon="-1.8303">
        <ele>31.7</ele>
        <time>2020-06-14T17:05:00Z</time>
      </trkpt>
      <trkpt lat="49.47259" lon="-1.83027">
        <ele>32</ele>
        <time>2020-06-14T17:05:01Z</time>
      </trkpt>
      <trkpt lat="49.47259" lon="-1.83025">
        <ele>32.2</ele>
        <time>2020-06-14T17:05:02Z</time>
      </trkpt>
      <trkpt lat="49.47261" lon="-1.83021">
        <ele>33</ele>
        <time>2020-06-14T17:05:03Z</time>
      </trkpt>
      <trkpt lat="49.47262" lon="-1.8302">
        <ele>33.1</ele>
        <time>2020-06-14T17:05:04Z</time>
      </trkpt>
      <trkpt lat="49.47264" lon="-1.83017">
        <ele>33.4</ele>
        <time>2020-06-14T17:05:05Z</time>
      </trkpt>
      <trkpt lat="49.47265" lon="-1.83016">
        <ele>33.5</ele>
        <time>2020-06-14T17:05:06Z</time>
      </trkpt>
      <trkpt lat="49.47267" lon="-1.83013">
        <ele>33.9</ele>
        <time>2020-06-14T17:05:07Z</time>
      </trkpt>
      <trkpt lat="49.47267" lon="-1.83012">
        <ele>34</ele>
        <time>2020-06-14T17:05:08Z</time>
      </trkpt>
      <trkpt lat="49.47269" lon="-1.83011">
        <ele>34.2</ele>
        <time>2020-06-14T17:05:09Z</time>
      </trkpt>
      <trkpt lat="49.4727" lon="-1.8301">
        <ele>34.4</ele>
        <time>2020-06-14T17:05:10Z</time>
      </trkpt>
      <trkpt lat="49.47274" lon="-1.8301">
        <ele>34.8</ele>
        <time>2020-06-14T17:05:11Z</time>
      </trkpt>
      <trkpt lat="49.47275" lon="-1.8301">
        <ele>34.9</ele>
        <time>2020-06-14T17:05:12Z</time>
      </trkpt>
      <trkpt lat="49.47277" lon="-1.83011">
        <ele>35.3</ele>
        <time>2020-06-14T17:05:13Z</time>
      </trkpt>
      <trkpt lat="49.47278" lon="-1.83012">
        <ele>35.4</ele>
        <time>2020-06-14T17:05:14Z</time>
      </trkpt>
      <trkpt lat="49.47281" lon="-1.83013">
        <ele>35.7</ele>
        <time>2020-06-14T17:05:15Z</time>
      </trkpt>
      <trkpt lat="49.47282" lon="-1.83013">
        <ele>35.8</ele>
        <time>2020-06-14T17:05:16Z</time>
      </trkpt>
      <trkpt lat="49.47285" lon="-1.83015">
        <ele>36.1</ele>
        <time>2020-06-14T17:05:17Z</time>
      </trkpt>
      <trkpt lat="49.47286" lon="-1.83015">
        <ele>36.3</ele>
        <time>2020-06-14T17:05:18Z</time>
      </trkpt>
      <trkpt lat="49.47287" lon="-1.83016">
        <ele>36.5</ele>
        <time>2020-06-14T17:05:19Z</time>
      </trkpt>
      <trkpt lat="49.47289" lon="-1.83017">
        <ele>36.7</ele>
        <time>2020-06-14T17:05:20Z</time>
      </trkpt>
      <trkpt lat="49.47292" lon="-1.83018">
        <ele>37</ele>
        <time>2020-06-14T17:05:21Z</time>
      </trkpt>
      <trkpt lat="49.47293" lon="-1.83018">
        <ele>37.2</ele>
        <time>2020-06-14T17:05:22Z</time>
      </trkpt>
      <trkpt lat="49.47295" lon="-1.83018">
        <ele>37.4</ele>
        <time>2020-06-14T17:05:23Z</time>
      </trkpt>
      <trkpt lat="49.47296" lon="-1.8302">
        <ele>37.6</ele>
        <time>2020-06-14T17:05:24Z</time>
      </trkpt>
      <trkpt lat="49.47299" lon="-1.83021">
        <ele>37.9</ele>
        <time>2020-06-14T17:05:25Z</time>
      </trkpt>
      <trkpt lat="49.473" lon="-1.83021">
        <ele>38</ele>
        <time>2020-06-14T17:05:26Z</time>
      </trkpt>
      <trkpt lat="49.47302" lon="-1.83022">
        <ele>38.2</ele>
        <time>2020-06-14T17:05:27Z</time>
      </trkpt>
      <trkpt lat="49.47304" lon="-1.83023">
        <ele>38.4</ele>
        <time>2020-06-14T17:05:28Z</time>
      </trkpt>
      <trkpt lat="49.47306" lon="-1.83023">
        <ele>38.6</ele>
        <time>2020-06-14T17:05:29Z</time>
      </trkpt>
      <trkpt lat="49.47307" lon="-1.83024">
        <ele>38.8</ele>
        <time>2020-06-14T17:05:30Z</time>
      </trkpt>
      <trkpt lat="49.47309" lon="-1.83024">
        <ele>39.4</ele>
        <time>2020-06-14T17:05:31Z</time>
      </trkpt>
      <trkpt lat="49.4731" lon="-1.83025">
        <ele>39.7</ele>
        <time>2020-06-14T17:05:32Z</time>
      </trkpt>
      <trkpt lat="49.47312" lon="-1.83026">
        <ele>39.9</ele>
        <time>2020-06-14T17:05:33Z</time>
      </trkpt>
      <trkpt lat="49.47313" lon="-1.83027">
        <ele>40.1</ele>
        <time>2020-06-14T17:05:34Z</time>
      </trkpt>
      <trkpt lat="49.47314" lon="-1.83027">
        <ele>40.2</ele>
        <time>2020-06-14T17:05:35Z</time>
      </trkpt>
      <trkpt lat="49.47316" lon="-1.83028">
        <ele>40.4</ele>
        <time>2020-06-14T17:05:36Z</time>
      </trkpt>
      <trkpt lat="49.47318" lon="-1.83028">
        <ele>40.7</ele>
        <time>2020-06-14T17:05:37Z</time>
      </trkpt>
      <trkpt lat="49.47321" lon="-1.8303">
        <ele>41.1</ele>
        <time>2020-06-14T17:05:38Z</time>
      </trkpt>
      <trkpt lat="49.47321" lon="-1.83031">
        <ele>41.2</ele>
        <time>2020-06-14T17:05:39Z</time>
      </trkpt>
      <trkpt lat="49.47323" lon="-1.83032">
        <ele>41.4</ele>
        <time>2020-06-14T17:05:40Z</time>
      </trkpt>
      <trkpt lat="49.47324" lon="-1.83034">
        <ele>41.6</ele>
        <time>2020-06-14T17:05:41Z</time>
      </trkpt>
      <trkpt lat="49.47326" lon="-1.83034">
        <ele>41.8</ele>
        <time>2020-06-14T17:05:42Z</time>
      </trkpt>
      <trkpt lat="49.47327" lon="-1.83035">
        <ele>42</ele>
        <time>2020-06-14T17:05:43Z</time>
      </trkpt>
      <trkpt lat="49.4733" lon="-1.83036">
        <ele>42.4</ele>
        <time>2020-06-14T17:05:44Z</time>
      </trkpt>
      <trkpt lat="49.47331" lon="-1.83036">
        <ele>42.5</ele>
        <time>2020-06-14T17:05:45Z</time>
      </trkpt>
      <trkpt lat="49.47335" lon="-1.83036">
        <ele>43</ele>
        <time>2020-06-14T17:05:46Z</time>
      </trkpt>
      <trkpt lat="49.47336" lon="-1.83036">
        <ele>43.1</ele>
        <time>2020-06-14T17:05:47Z</time>
      </trkpt>
      <trkpt lat="49.47339" lon="-1.83037">
        <ele>43.5</ele>
        <time>2020-06-14T17:05:48Z</time>
      </trkpt>
      <trkpt lat="49.4734" lon="-1.83037">
        <ele>43.7</ele>
        <time>2020-06-14T17:05:49Z</time>
      </trkpt>
      <trkpt lat="49.47341" lon="-1.83039">
        <ele>43.9</ele>
        <time>2020-06-14T17:05:50Z</time>
      </trkpt>
      <trkpt lat="49.47343" lon="-1.83041">
        <ele>44.1</ele>
        <time>2020-06-14T17:05:51Z</time>
      </trkpt>
      <trkpt lat="49.47345" lon="-1.83043">
        <ele>44.5</ele>
        <time>2020-06-14T17:05:52Z</time>
      </trkpt>
      <trkpt lat="49.47346" lon="-1.83043">
        <ele>44.7</ele>
        <time>2020-06-14T17:05:53Z</time>
      </trkpt>
      <trkpt lat="49.47347" lon="-1.83044">
        <ele>44.8</ele>
        <time>2020-06-14T17:05:54Z</time>
      </trkpt>
      <trkpt lat="49.47349" lon="-1.83044">
        <ele>45.1</ele>
        <time>2020-06-14T17:05:55Z</time>
      </trkpt>
      <trkpt lat="49.4735" lon="-1.83045">
        <ele>45.3</ele>
        <time>2020-06-14T17:05:56Z</time>
      </trkpt>
      <trkpt lat="49.47352" lon="-1.83045">
        <ele>45.5</ele>
        <time>2020-06-14T17:05:57Z</time>
      </trkpt>
      <trkpt lat="49.47355" lon="-1.83046">
        <ele>45.9</ele>
        <time>2020-06-14T17:05:58Z</time>
      </trkpt>
      <trkpt lat="49.47356" lon="-1.83046">
        <ele>46.1</ele>
        <time>2020-06-14T17:05:59Z</time>
      </trkpt>
      <trkpt lat="49.47358" lon="-1.83046">
        <ele>46.3</ele>
        <time>2020-06-14T17:06:00Z</time>
      </trkpt>
      <trkpt lat="49.47359" lon="-1.83046">
        <ele>46.6</ele>
        <time>2020-06-14T17:06:01Z</time>
      </trkpt>
      <trkpt lat="49.47361" lon="-1.83047">
        <ele>46.8</ele>
        <time>2020-06-14T17:06:02Z</time>
      </trkpt>
      <trkpt lat="49.47363" lon="-1.83048">
        <ele>47.1</ele>
        <time>2020-06-14T17:06:03Z</time>
      </trkpt>
      <trkpt lat="49.47364" lon="-1.83048">
        <ele>47.3</ele>
        <time>2020-06-14T17:06:04Z</time>
      </trkpt>
      <trkpt lat="49.47366" lon="-1.83047">
        <ele>47.5</ele>
        <time>2020-06-14T17:06:05Z</time>
      </trkpt>
      <trkpt lat="49.47367" lon="-1.83046">
        <ele>47.7</ele>
        <time>2020-06-14T17:06:06Z</time>
      </trkpt>
      <trkpt lat="49.47369" lon="-1.83045">
        <ele>48</ele>
        <time>2020-06-14T17:06:07Z</time>
      </trkpt>
      <trkpt lat="49.47372" lon="-1.83043">
        <ele>48.4</ele>
        <time>2020-06-14T17:06:08Z</time>
      </trkpt>
      <trkpt lat="49.47373" lon="-1.83042">
        <ele>48.5</ele>
        <time>2020-06-14T17:06:09Z</time>
      </trkpt>
      <trkpt lat="49.47375" lon="-1.83042">
        <ele>48.9</ele>
        <time>2020-06-14T17:06:10Z</time>
      </trkpt>
      <trkpt lat="49.47379" lon="-1.8304">
        <ele>49.3</ele>
        <time>2020-06-14T17:06:11Z</time>
      </trkpt>
      <trkpt lat="49.4738" lon="-1.83039">
        <ele>49.5</ele>
        <time>2020-06-14T17:06:12Z</time>
      </trkpt>
      <trkpt lat="49.47383" lon="-1.83038">
        <ele>49.9</ele>
        <time>2020-06-14T17:06:13Z</time>
      </trkpt>
      <trkpt lat="49.47384" lon="-1.83037">
        <ele>50</ele>
        <time>2020-06-14T17:06:14Z</time>
      </trkpt>
      <trkpt lat="49.47387" lon="-1.83035">
        <ele>50.4</ele>
        <time>2020-06-14T17:06:15Z</time>
      </trkpt>
      <trkpt lat="49.47388" lon="-1.83034">
        <ele>50.5</ele>
        <time>2020-06-14T17:06:16Z</time>
      </trkpt>
      <trkpt lat="49.47389" lon="-1.83033">
        <ele>50.6</ele>
        <time>2020-06-14T17:06:17Z</time>
      </trkpt>
      <trkpt lat="49.4739" lon="-1.83031">
        <ele>50.8</ele>
        <time>2020-06-14T17:06:18Z</time>
      </trkpt>
      <trkpt lat="49.47394" lon="-1.83029">
        <ele>51.2</ele>
        <time>2020-06-14T17:06:19Z</time>
      </trkpt>
      <trkpt lat="49.47395" lon="-1.83028">
        <ele>51.3</ele>
        <time>2020-06-14T17:06:20Z</time>
      </trkpt>
      <trkpt lat="49.47397" lon="-1.83026">
        <ele>51.6</ele>
        <time>2020-06-14T17:06:21Z</time>
      </trkpt>
      <trkpt lat="49.47398" lon="-1.83025">
        <ele>51.7</ele>
        <time>2020-06-14T17:06:22Z</time>
      </trkpt>
      <trkpt lat="49.474" lon="-1.83024">
        <ele>51.8</ele>
        <time>2020-06-14T17:06:23Z</time>
      </trkpt>
      <trkpt lat="49.47401" lon="-1.83023">
        <ele>52</ele>
        <time>2020-06-14T17:06:24Z</time>
      </trkpt>
      <trkpt lat="49.47404" lon="-1.83021">
        <ele>52.2</ele>
        <time>2020-06-14T17:06:25Z</time>
      </trkpt>
      <trkpt lat="49.47405" lon="-1.8302">
        <ele>52.3</ele>
        <time>2020-06-14T17:06:26Z</time>
      </trkpt>
      <trkpt lat="49.47407" lon="-1.83017">
        <ele>52.6</ele>
        <time>2020-06-14T17:06:27Z</time>
      </trkpt>
      <trkpt lat="49.47408" lon="-1.83016">
        <ele>52.7</ele>
        <time>2020-06-14T17:06:28Z</time>
      </trkpt>
      <trkpt lat="49.47412" lon="-1.83014">
        <ele>53.1</ele>
        <time>2020-06-14T17:06:29Z</time>
      </trkpt>
      <trkpt lat="49.47413" lon="-1.83013">
        <ele>53.2</ele>
        <time>2020-06-14T17:06:30Z</time>
      </trkpt>
      <trkpt lat="49.47415" lon="-1.83012">
        <ele>53.4</ele>
        <time>2020-06-14T17:06:31Z</time>
      </trkpt>
      <trkpt lat="49.47416" lon="-1.83012">
        <ele>53.5</ele>
        <time>2020-06-14T17:06:32Z</time>
      </trkpt>
      <trkpt lat="49.47419" lon="-1.8301">
        <ele>53.8</ele>
        <time>2020-06-14T17:06:33Z</time>
      </trkpt>
      <trkpt lat="49.4742" lon="-1.8301">
        <ele>53.8</ele>
        <time>2020-06-14T17:06:34Z</time>
      </trkpt>
      <trkpt lat="49.47423" lon="-1.83008">
        <ele>54.1</ele>
        <time>2020-06-14T17:06:35Z</time>
      </trkpt>
      <trkpt lat="49.47424" lon="-1.83007">
        <ele>54.3</ele>
        <time>2020-06-14T17:06:36Z</time>
      </trkpt>
      <trkpt lat="49.47426" lon="-1.83004">
        <ele>54.5</ele>
        <time>2020-06-14T17:06:37Z</time>
      </trkpt>
      <trkpt lat="49.47429" lon="-1.83002">
        <ele>54.8</ele>
        <time>2020-06-14T17:06:38Z</time>
      </trkpt>
      <trkpt lat="49.4743" lon="-1.83001">
        <ele>54.9</ele>
        <time>2020-06-14T17:06:39Z</time>
      </trkpt>
      <trkpt lat="49.47433" lon="-1.83">
        <ele>55.2</ele>
        <time>2020-06-14T17:06:40Z</time>
      </trkpt>
      <trkpt lat="49.47434" lon="-1.83">
        <ele>55.3</ele>
        <time>2020-06-14T17:06:41Z</time>
      </trkpt>
      <trkpt lat="49.47437" lon="-1.82998">
        <ele>55.6</ele>
        <time>2020-06-14T17:06:42Z</time>
      </trkpt>
      <trkpt lat="49.47439" lon="-1.82998">
        <ele>55.7</ele>
        <time>2020-06-14T17:06:43Z</time>
      </trkpt>
      <trkpt lat="49.47442" lon="-1.82996">
        <ele>55.9</ele>
        <time>2020-06-14T17:06:44Z</time>
      </trkpt>
      <trkpt lat="49.47443" lon="-1.82995">
        <ele>56</ele>
        <time>2020-06-14T17:06:45Z</time>
      </trkpt>
      <trkpt lat="49.47447" lon="-1.82994">
        <ele>56.3</ele>
        <time>2020-06-14T17:06:46Z</time>
      </trkpt>
      <trkpt lat="49.47448" lon="-1.82993">
        <ele>56.4</ele>
        <time>2020-06-14T17:06:47Z</time>
      </trkpt>
      <trkpt lat="49.47451" lon="-1.82992">
        <ele>56.6</ele>
        <time>2020-06-14T17:06:48Z</time>
      </trkpt>
      <trkpt lat="49.47452" lon="-1.82991">
        <ele>56.7</ele>
        <time>2020-06-14T17:06:49Z</time>
      </trkpt>
      <trkpt lat="49.47456" lon="-1.8299">
        <ele>56.9</ele>
        <time>2020-06-14T17:06:50Z</time>
      </trkpt>
      <trkpt lat="49.47457" lon="-1.82989">
        <ele>57</ele>
        <time>2020-06-14T17:06:51Z</time>
      </trkpt>
      <trkpt lat="49.47461" lon="-1.82989">
        <ele>57.2</ele>
        <time>2020-06-14T17:06:52Z</time>
      </trkpt>
      <trkpt lat="49.47464" lon="-1.82988">
        <ele>57.4</ele>
        <time>2020-06-14T17:06:53Z</time>
      </trkpt>
      <trkpt lat="49.47467" lon="-1.82988">
        <ele>57.6</ele>
        <time>2020-06-14T17:06:54Z</time>
      </trkpt>
      <trkpt lat="49.4747" lon="-1.82987">
        <ele>57.7</ele>
        <time>2020-06-14T17:06:55Z</time>
      </trkpt>
      <trkpt lat="49.47473" lon="-1.82987">
        <ele>57.9</ele>
        <time>2020-06-14T17:06:56Z</time>
      </trkpt>
      <trkpt lat="49.47476" lon="-1.82986">
        <ele>58</ele>
        <time>2020-06-14T17:06:57Z</time>
      </trkpt>
      <trkpt lat="49.47479" lon="-1.82986">
        <ele>58.2</ele>
        <time>2020-06-14T17:06:58Z</time>
      </trkpt>
      <trkpt lat="49.47482" lon="-1.82986">
        <ele>58.4</ele>
        <time>2020-06-14T17:06:59Z</time>
      </trkpt>
      <trkpt lat="49.47485" lon="-1.82986">
        <ele>58.6</ele>
        <time>2020-06-14T17:07:00Z</time>
      </trkpt>
      <trkpt lat="49.47489" lon="-1.82985">
        <ele>58.8</ele>
        <time>2020-06-14T17:07:01Z</time>
      </trkpt>
      <trkpt lat="49.47491" lon="-1.82984">
        <ele>58.9</ele>
        <time>2020-06-14T17:07:02Z</time>
      </trkpt>
      <trkpt lat="49.47494" lon="-1.82984">
        <ele>59.1</ele>
        <time>2020-06-14T17:07:03Z</time>
      </trkpt>
      <trkpt lat="49.47496" lon="-1.82985">
        <ele>59.2</ele>
        <time>2020-06-14T17:07:04Z</time>
      </trkpt>
      <trkpt lat="49.47499" lon="-1.82985">
        <ele>59.4</ele>
        <time>2020-06-14T17:07:05Z</time>
      </trkpt>
      <trkpt lat="49.47502" lon="-1.82985">
        <ele>59.6</ele>
        <time>2020-06-14T17:07:06Z</time>
      </trkpt>
      <trkpt lat="49.47505" lon="-1.82986">
        <ele>59.7</ele>
        <time>2020-06-14T17:07:07Z</time>
      </trkpt>
      <trkpt lat="49.47508" lon="-1.82986">
        <ele>59.9</ele>
        <time>2020-06-14T17:07:08Z</time>
      </trkpt>
      <trkpt lat="49.47511" lon="-1.82986">
        <ele>60</ele>
        <time>2020-06-14T17:07:09Z</time>
      </trkpt>
      <trkpt lat="49.47515" lon="-1.82987">
        <ele>60.2</ele>
        <time>2020-06-14T17:07:10Z</time>
      </trkpt>
      <trkpt lat="49.47516" lon="-1.82987">
        <ele>60.3</ele>
        <time>2020-06-14T17:07:11Z</time>
      </trkpt>
      <trkpt lat="49.47519" lon="-1.82987">
        <ele>60.4</ele>
        <time>2020-06-14T17:07:12Z</time>
      </trkpt>
      <trkpt lat="49.47522" lon="-1.82988">
        <ele>60.6</ele>
        <time>2020-06-14T17:07:13Z</time>
      </trkpt>
      <trkpt lat="49.47525" lon="-1.82988">
        <ele>60.7</ele>
        <time>2020-06-14T17:07:14Z</time>
      </trkpt>
      <trkpt lat="49.47528" lon="-1.82988">
        <ele>60.9</ele>
        <time>2020-06-14T17:07:15Z</time>
      </trkpt>
      <trkpt lat="49.47532" lon="-1.82989">
        <ele>61</ele>
        <time>2020-06-14T17:07:16Z</time>
      </trkpt>
      <trkpt lat="49.47533" lon="-1.8299">
        <ele>61.1</ele>
        <time>2020-06-14T17:07:17Z</time>
      </trkpt>
      <trkpt lat="49.47536" lon="-1.82991">
        <ele>61.3</ele>
        <time>2020-06-14T17:07:18Z</time>
      </trkpt>
      <trkpt lat="49.47539" lon="-1.82992">
        <ele>61.4</ele>
        <time>2020-06-14T17:07:19Z</time>
      </trkpt>
      <trkpt lat="49.47542" lon="-1.82992">
        <ele>61.5</ele>
        <time>2020-06-14T17:07:20Z</time>
      </trkpt>
      <trkpt lat="49.47545" lon="-1.82992">
        <ele>61.7</ele>
        <time>2020-06-14T17:07:21Z</time>
      </trkpt>
      <trkpt lat="49.47548" lon="-1.82993">
        <ele>61.8</ele>
        <time>2020-06-14T17:07:22Z</time>
      </trkpt>
      <trkpt lat="49.47551" lon="-1.82993">
        <ele>61.9</ele>
        <time>2020-06-14T17:07:23Z</time>
      </trkpt>
      <trkpt lat="49.47554" lon="-1.82993">
        <ele>62.1</ele>
        <time>2020-06-14T17:07:24Z</time>
      </trkpt>
      <trkpt lat="49.47556" lon="-1.82994">
        <ele>62.2</ele>
        <time>2020-06-14T17:07:25Z</time>
      </trkpt>
      <trkpt lat="49.47559" lon="-1.82994">
        <ele>62.3</ele>
        <time>2020-06-14T17:07:26Z</time>
      </trkpt>
      <trkpt lat="49.47563" lon="-1.82994">
        <ele>62.4</ele>
        <time>2020-06-14T17:07:27Z</time>
      </trkpt>
      <trkpt lat="49.47566" lon="-1.82995">
        <ele>62.5</ele>
        <time>2020-06-14T17:07:28Z</time>
      </trkpt>
      <trkpt lat="49.47569" lon="-1.82996">
        <ele>62.6</ele>
        <time>2020-06-14T17:07:29Z</time>
      </trkpt>
      <trkpt lat="49.47573" lon="-1.82995">
        <ele>62.8</ele>
        <time>2020-06-14T17:07:30Z</time>
      </trkpt>
      <trkpt lat="49.47575" lon="-1.82995">
        <ele>62.8</ele>
        <time>2020-06-14T17:07:31Z</time>
      </trkpt>
      <trkpt lat="49.47577" lon="-1.82996">
        <ele>62.9</ele>
        <time>2020-06-14T17:07:32Z</time>
      </trkpt>
      <trkpt lat="49.4758" lon="-1.82996">
        <ele>63</ele>
        <time>2020-06-14T17:07:33Z</time>
      </trkpt>
      <trkpt lat="49.47584" lon="-1.82997">
        <ele>63.1</ele>
        <time>2020-06-14T17:07:34Z</time>
      </trkpt>
      <trkpt lat="49.47587" lon="-1.82997">
        <ele>63.1</ele>
        <time>2020-06-14T17:07:35Z</time>
      </trkpt>
      <trkpt lat="49.47591" lon="-1.82998">
        <ele>63.2</ele>
        <time>2020-06-14T17:07:36Z</time>
      </trkpt>
      <trkpt lat="49.47594" lon="-1.82998">
        <ele>63.3</ele>
        <time>2020-06-14T17:07:37Z</time>
      </trkpt>
      <trkpt lat="49.47598" lon="-1.82999">
        <ele>63.3</ele>
        <time>2020-06-14T17:07:38Z</time>
      </trkpt>
      <trkpt lat="49.47601" lon="-1.83">
        <ele>63.4</ele>
        <time>2020-06-14T17:07:39Z</time>
      </trkpt>
      <trkpt lat="49.47604" lon="-1.83">
        <ele>63.5</ele>
        <time>2020-06-14T17:07:40Z</time>
      </trkpt>
      <trkpt lat="49.47608" lon="-1.83">
        <ele>63.5</ele>
        <time>2020-06-14T17:07:41Z</time>
      </trkpt>
      <trkpt lat="49.47611" lon="-1.83001">
        <ele>63.6</ele>
        <time>2020-06-14T17:07:42Z</time>
      </trkpt>
      <trkpt lat="49.47615" lon="-1.83">
        <ele>63.7</ele>
        <time>2020-06-14T17:07:43Z</time>
      </trkpt>
      <trkpt lat="49.47618" lon="-1.83002">
        <ele>63.7</ele>
        <time>2020-06-14T17:07:44Z</time>
      </trkpt>
      <trkpt lat="49.47621" lon="-1.83003">
        <ele>63.7</ele>
        <time>2020-06-14T17:07:45Z</time>
      </trkpt>
      <trkpt lat="49.47625" lon="-1.83003">
        <ele>63.7</ele>
        <time>2020-06-14T17:07:46Z</time>
      </trkpt>
      <trkpt lat="49.47629" lon="-1.83004">
        <ele>63.8</ele>
        <time>2020-06-14T17:07:47Z</time>
      </trkpt>
      <trkpt lat="49.47632" lon="-1.83004">
        <ele>63.8</ele>
        <time>2020-06-14T17:07:48Z</time>
      </trkpt>
      <trkpt lat="49.47636" lon="-1.83005">
        <ele>63.7</ele>
        <time>2020-06-14T17:07:49Z</time>
      </trkpt>
      <trkpt lat="49.4764" lon="-1.83005">
        <ele>63.7</ele>
        <time>2020-06-14T17:07:50Z</time>
      </trkpt>
      <trkpt lat="49.47644" lon="-1.83005">
        <ele>63.7</ele>
        <time>2020-06-14T17:07:51Z</time>
      </trkpt>
      <trkpt lat="49.47648" lon="-1.83004">
        <ele>63.7</ele>
        <time>2020-06-14T17:07:52Z</time>
      </trkpt>
      <trkpt lat="49.47652" lon="-1.83004">
        <ele>63.6</ele>
        <time>2020-06-14T17:07:53Z</time>
      </trkpt>
      <trkpt lat="49.47657" lon="-1.83003">
        <ele>63.5</ele>
        <time>2020-06-14T17:07:54Z</time>
      </trkpt>
      <trkpt lat="49.47661" lon="-1.83003">
        <ele>63.4</ele>
        <time>2020-06-14T17:07:55Z</time>
      </trkpt>
      <trkpt lat="49.47666" lon="-1.83002">
        <ele>63.3</ele>
        <time>2020-06-14T17:07:56Z</time>
      </trkpt>
      <trkpt lat="49.47671" lon="-1.83002">
        <ele>63.2</ele>
        <time>2020-06-14T17:07:57Z</time>
      </trkpt>
      <trkpt lat="49.47675" lon="-1.83002">
        <ele>63</ele>
        <time>2020-06-14T17:07:58Z</time>
      </trkpt>
      <trkpt lat="49.4768" lon="-1.83002">
        <ele>62.9</ele>
        <time>2020-06-14T17:07:59Z</time>
      </trkpt>
      <trkpt lat="49.47685" lon="-1.83">
        <ele>62.8</ele>
        <time>2020-06-14T17:08:00Z</time>
      </trkpt>
      <trkpt lat="49.4769" lon="-1.83">
        <ele>62.7</ele>
        <time>2020-06-14T17:08:01Z</time>
      </trkpt>
      <trkpt lat="49.47695" lon="-1.82998">
        <ele>62.5</ele>
        <time>2020-06-14T17:08:02Z</time>
      </trkpt>
      <trkpt lat="49.477" lon="-1.82995">
        <ele>62.4</ele>
        <time>2020-06-14T17:08:03Z</time>
      </trkpt>
      <trkpt lat="49.47704" lon="-1.82992">
        <ele>62.3</ele>
        <time>2020-06-14T17:08:04Z</time>
      </trkpt>
      <trkpt lat="49.47708" lon="-1.8299">
        <ele>62.2</ele>
        <time>2020-06-14T17:08:05Z</time>
      </trkpt>
      <trkpt lat="49.47711" lon="-1.82988">
        <ele>62.1</ele>
        <time>2020-06-14T17:08:06Z</time>
      </trkpt>
      <trkpt lat="49.47715" lon="-1.82986">
        <ele>61.9</ele>
        <time>2020-06-14T17:08:07Z</time>
      </trkpt>
      <trkpt lat="49.47719" lon="-1.82983">
        <ele>61.8</ele>
        <time>2020-06-14T17:08:08Z</time>
      </trkpt>
      <trkpt lat="49.47722" lon="-1.82979">
        <ele>61.7</ele>
        <time>2020-06-14T17:08:09Z</time>
      </trkpt>
      <trkpt lat="49.47726" lon="-1.82976">
        <ele>61.5</ele>
        <time>2020-06-14T17:08:10Z</time>
      </trkpt>
      <trkpt lat="49.4773" lon="-1.82972">
        <ele>61.4</ele>
        <time>2020-06-14T17:08:11Z</time>
      </trkpt>
      <trkpt lat="49.47734" lon="-1.82968">
        <ele>61.2</ele>
        <time>2020-06-14T17:08:12Z</time>
      </trkpt>
      <trkpt lat="49.47739" lon="-1.82964">
        <ele>60.9</ele>
        <time>2020-06-14T17:08:13Z</time>
      </trkpt>
      <trkpt lat="49.47743" lon="-1.8296">
        <ele>60.7</ele>
        <time>2020-06-14T17:08:14Z</time>
      </trkpt>
      <trkpt lat="49.47747" lon="-1.82954">
        <ele>60.5</ele>
        <time>2020-06-14T17:08:15Z</time>
      </trkpt>
      <trkpt lat="49.47751" lon="-1.8295">
        <ele>60.2</ele>
        <time>2020-06-14T17:08:16Z</time>
      </trkpt>
      <trkpt lat="49.47756" lon="-1.82946">
        <ele>59.9</ele>
        <time>2020-06-14T17:08:17Z</time>
      </trkpt>
      <trkpt lat="49.47762" lon="-1.82945">
        <ele>59.6</ele>
        <time>2020-06-14T17:08:18Z</time>
      </trkpt>
      <trkpt lat="49.47767" lon="-1.82943">
        <ele>59.2</ele>
        <time>2020-06-14T17:08:19Z</time>
      </trkpt>
      <trkpt lat="49.47775" lon="-1.82942">
        <ele>58.8</ele>
        <time>2020-06-14T17:08:20Z</time>
      </trkpt>
      <trkpt lat="49.4778" lon="-1.8294">
        <ele>58.4</ele>
        <time>2020-06-14T17:08:21Z</time>
      </trkpt>
      <trkpt lat="49.47787" lon="-1.82937">
        <ele>58</ele>
        <time>2020-06-14T17:08:22Z</time>
      </trkpt>
      <trkpt lat="49.47794" lon="-1.82935">
        <ele>57.5</ele>
        <time>2020-06-14T17:08:23Z</time>
      </trkpt>
      <trkpt lat="49.47799" lon="-1.82932">
        <ele>57.2</ele>
        <time>2020-06-14T17:08:24Z</time>
      </trkpt>
      <trkpt lat="49.47805" lon="-1.8293">
        <ele>56.8</ele>
        <time>2020-06-14T17:08:25Z</time>
      </trkpt>
      <trkpt lat="49.47812" lon="-1.82927">
        <ele>56.2</ele>
        <time>2020-06-14T17:08:26Z</time>
      </trkpt>
      <trkpt lat="49.47817" lon="-1.82924">
        <ele>55.9</ele>
        <time>2020-06-14T17:08:27Z</time>
      </trkpt>
      <trkpt lat="49.47823" lon="-1.82921">
        <ele>55.4</ele>
        <time>2020-06-14T17:08:28Z</time>
      </trkpt>
      <trkpt lat="49.47828" lon="-1.82919">
        <ele>55</ele>
        <time>2020-06-14T17:08:29Z</time>
      </trkpt>
      <trkpt lat="49.47834" lon="-1.82919">
        <ele>54.7</ele>
        <time>2020-06-14T17:08:30Z</time>
      </trkpt>
      <trkpt lat="49.4784" lon="-1.82921">
        <ele>54.3</ele>
        <time>2020-06-14T17:08:31Z</time>
      </trkpt>
      <trkpt lat="49.47845" lon="-1.82923">
        <ele>54</ele>
        <time>2020-06-14T17:08:32Z</time>
      </trkpt>
      <trkpt lat="49.47852" lon="-1.82926">
        <ele>53.7</ele>
        <time>2020-06-14T17:08:33Z</time>
      </trkpt>
      <trkpt lat="49.47859" lon="-1.82928">
        <ele>53.4</ele>
        <time>2020-06-14T17:08:34Z</time>
      </trkpt>
      <trkpt lat="49.47865" lon="-1.82928">
        <ele>53.4</ele>
        <time>2020-06-14T17:08:35Z</time>
      </trkpt>
      <trkpt lat="49.47871" lon="-1.82925">
        <ele>53.5</ele>
        <time>2020-06-14T17:08:36Z</time>
      </trkpt>
      <trkpt lat="49.47877" lon="-1.8292">
        <ele>53.6</ele>
        <time>2020-06-14T17:08:37Z</time>
      </trkpt>
      <trkpt lat="49.47882" lon="-1.82917">
        <ele>53.7</ele>
        <time>2020-06-14T17:08:38Z</time>
      </trkpt>
      <trkpt lat="49.47889" lon="-1.82913">
        <ele>53.8</ele>
        <time>2020-06-14T17:08:39Z</time>
      </trkpt>
      <trkpt lat="49.47894" lon="-1.8291">
        <ele>53.9</ele>
        <time>2020-06-14T17:08:40Z</time>
      </trkpt>
      <trkpt lat="49.479" lon="-1.82906">
        <ele>54</ele>
        <time>2020-06-14T17:08:41Z</time>
      </trkpt>
      <trkpt lat="49.47903" lon="-1.82903">
        <ele>54</ele>
        <time>2020-06-14T17:08:42Z</time>
      </trkpt>
      <trkpt lat="49.47908" lon="-1.829">
        <ele>54</ele>
        <time>2020-06-14T17:08:43Z</time>
      </trkpt>
      <trkpt lat="49.47911" lon="-1.82896">
        <ele>54</ele>
        <time>2020-06-14T17:08:44Z</time>
      </trkpt>
      <trkpt lat="49.47915" lon="-1.82894">
        <ele>54</ele>
        <time>2020-06-14T17:08:45Z</time>
      </trkpt>
      <trkpt lat="49.47919" lon="-1.8289">
        <ele>53.9</ele>
        <time>2020-06-14T17:08:46Z</time>
      </trkpt>
      <trkpt lat="49.47924" lon="-1.82887">
        <ele>53.7</ele>
        <time>2020-06-14T17:08:47Z</time>
      </trkpt>
      <trkpt lat="49.47928" lon="-1.82884">
        <ele>53.3</ele>
        <time>2020-06-14T17:08:48Z</time>
      </trkpt>
      <trkpt lat="49.47933" lon="-1.82882">
        <ele>52.9</ele>
        <time>2020-06-14T17:08:49Z</time>
      </trkpt>
      <trkpt lat="49.47937" lon="-1.82879">
        <ele>52.4</ele>
        <time>2020-06-14T17:08:50Z</time>
      </trkpt>
      <trkpt lat="49.47943" lon="-1.82877">
        <ele>51.8</ele>
        <time>2020-06-14T17:08:51Z</time>
      </trkpt>
      <trkpt lat="49.4795" lon="-1.82875">
        <ele>51</ele>
        <time>2020-06-14T17:08:52Z</time>
      </trkpt>
      <trkpt lat="49.47956" lon="-1.82872">
        <ele>50.3</ele>
        <time>2020-06-14T17:08:53Z</time>
      </trkpt>
      <trkpt lat="49.47963" lon="-1.8287">
        <ele>49.5</ele>
        <time>2020-06-14T17:08:54Z</time>
      </trkpt>
      <trkpt lat="49.47971" lon="-1.82866">
        <ele>48.7</ele>
        <time>2020-06-14T17:08:55Z</time>
      </trkpt>
      <trkpt lat="49.47979" lon="-1.82863">
        <ele>47.8</ele>
        <time>2020-06-14T17:08:56Z</time>
      </trkpt>
      <trkpt lat="49.47987" lon="-1.82858">
        <ele>47</ele>
        <time>2020-06-14T17:08:57Z</time>
      </trkpt>
      <trkpt lat="49.47997" lon="-1.82851">
        <ele>46</ele>
        <time>2020-06-14T17:08:58Z</time>
      </trkpt>
      <trkpt lat="49.48007" lon="-1.82844">
        <ele>44.9</ele>
        <time>2020-06-14T17:08:59Z</time>
      </trkpt>
      <trkpt lat="49.48017" lon="-1.82837">
        <ele>43.9</ele>
        <time>2020-06-14T17:09:00Z</time>
      </trkpt>
      <trkpt lat="49.48027" lon="-1.82831">
        <ele>43.1</ele>
        <time>2020-06-14T17:09:01Z</time>
      </trkpt>
      <trkpt lat="49.48038" lon="-1.82826">
        <ele>42.3</ele>
        <time>2020-06-14T17:09:02Z</time>
      </trkpt>
      <trkpt lat="49.48049" lon="-1.82822">
        <ele>41.5</ele>
        <time>2020-06-14T17:09:03Z</time>
      </trkpt>
      <trkpt lat="49.48061" lon="-1.82818">
        <ele>40.7</ele>
        <time>2020-06-14T17:09:04Z</time>
      </trkpt>
      <trkpt lat="49.48072" lon="-1.82814">
        <ele>40</ele>
        <time>2020-06-14T17:09:05Z</time>
      </trkpt>
      <trkpt lat="49.48083" lon="-1.8281">
        <ele>39.3</ele>
        <time>2020-06-14T17:09:06Z</time>
      </trkpt>
      <trkpt lat="49.48094" lon="-1.82806">
        <ele>38.7</ele>
        <time>2020-06-14T17:09:07Z</time>
      </trkpt>
      <trkpt lat="49.48105" lon="-1.82802">
        <ele>38.1</ele>
        <time>2020-06-14T17:09:08Z</time>
      </trkpt>
      <trkpt lat="49.48116" lon="-1.82798">
        <ele>37.5</ele>
        <time>2020-06-14T17:09:09Z</time>
      </trkpt>
      <trkpt lat="49.48126" lon="-1.82793">
        <ele>37</ele>
        <time>2020-06-14T17:09:10Z</time>
      </trkpt>
      <trkpt lat="49.48136" lon="-1.82789">
        <ele>36.5</ele>
        <time>2020-06-14T17:09:11Z</time>
      </trkpt>
      <trkpt lat="49.48147" lon="-1.82784">
        <ele>36</ele>
        <time>2020-06-14T17:09:12Z</time>
      </trkpt>
      <trkpt lat="49.48156" lon="-1.82778">
        <ele>35.6</ele>
        <time>2020-06-14T17:09:13Z</time>
      </trkpt>
      <trkpt lat="49.48166" lon="-1.82773">
        <ele>35.1</ele>
        <time>2020-06-14T17:09:14Z</time>
      </trkpt>
      <trkpt lat="49.48175" lon="-1.82768">
        <ele>34.7</ele>
        <time>2020-06-14T17:09:15Z</time>
      </trkpt>
      <trkpt lat="49.48184" lon="-1.82763">
        <ele>34.3</ele>
        <time>2020-06-14T17:09:16Z</time>
      </trkpt>
      <trkpt lat="49.48193" lon="-1.82759">
        <ele>34</ele>
        <time>2020-06-14T17:09:17Z</time>
      </trkpt>
      <trkpt lat="49.48202" lon="-1.82755">
        <ele>33.6</ele>
        <time>2020-06-14T17:09:18Z</time>
      </trkpt>
      <trkpt lat="49.48212" lon="-1.82751">
        <ele>33.2</ele>
        <time>2020-06-14T17:09:19Z</time>
      </trkpt>
      <trkpt lat="49.4822" lon="-1.82747">
        <ele>32.9</ele>
        <time>2020-06-14T17:09:20Z</time>
      </trkpt>
      <trkpt lat="49.48229" lon="-1.82743">
        <ele>32.6</ele>
        <time>2020-06-14T17:09:21Z</time>
      </trkpt>
      <trkpt lat="49.48238" lon="-1.82739">
        <ele>32.3</ele>
        <time>2020-06-14T17:09:22Z</time>
      </trkpt>
      <trkpt lat="49.48247" lon="-1.82736">
        <ele>32</ele>
        <time>2020-06-14T17:09:23Z</time>
      </trkpt>
      <trkpt lat="49.48256" lon="-1.82732">
        <ele>31.7</ele>
        <time>2020-06-14T17:09:24Z</time>
      </trkpt>
      <trkpt lat="49.48264" lon="-1.82729">
        <ele>31.5</ele>
        <time>2020-06-14T17:09:25Z</time>
      </trkpt>
      <trkpt lat="49.48273" lon="-1.82725">
        <ele>31.2</ele>
        <time>2020-06-14T17:09:26Z</time>
      </trkpt>
      <trkpt lat="49.48281" lon="-1.82722">
        <ele>30.9</ele>
        <time>2020-06-14T17:09:27Z</time>
      </trkpt>
      <trkpt lat="49.4829" lon="-1.8272">
        <ele>30.6</ele>
        <time>2020-06-14T17:09:28Z</time>
      </trkpt>
      <trkpt lat="49.48298" lon="-1.82718">
        <ele>30.3</ele>
        <time>2020-06-14T17:09:29Z</time>
      </trkpt>
      <trkpt lat="49.48306" lon="-1.82719">
        <ele>29.9</ele>
        <time>2020-06-14T17:09:30Z</time>
      </trkpt>
      <trkpt lat="49.48315" lon="-1.82719">
        <ele>29.4</ele>
        <time>2020-06-14T17:09:31Z</time>
      </trkpt>
      <trkpt lat="49.48324" lon="-1.8272">
        <ele>28.9</ele>
        <time>2020-06-14T17:09:32Z</time>
      </trkpt>
      <trkpt lat="49.48333" lon="-1.82721">
        <ele>28.3</ele>
        <time>2020-06-14T17:09:33Z</time>
      </trkpt>
      <trkpt lat="49.48342" lon="-1.82722">
        <ele>27.6</ele>
        <time>2020-06-14T17:09:34Z</time>
      </trkpt>
      <trkpt lat="49.48351" lon="-1.82724">
        <ele>27</ele>
        <time>2020-06-14T17:09:35Z</time>
      </trkpt>
      <trkpt lat="49.48361" lon="-1.82726">
        <ele>26.3</ele>
        <time>2020-06-14T17:09:36Z</time>
      </trkpt>
      <trkpt lat="49.4837" lon="-1.8273">
        <ele>25.7</ele>
        <time>2020-06-14T17:09:37Z</time>
      </trkpt>
      <trkpt lat="49.4838" lon="-1.82734">
        <ele>25.1</ele>
        <time>2020-06-14T17:09:38Z</time>
      </trkpt>
      <trkpt lat="49.48389" lon="-1.82741">
        <ele>24.5</ele>
        <time>2020-06-14T17:09:39Z</time>
      </trkpt>
      <trkpt lat="49.48398" lon="-1.82749">
        <ele>23.9</ele>
        <time>2020-06-14T17:09:40Z</time>
      </trkpt>
      <trkpt lat="49.48407" lon="-1.82757">
        <ele>23.3</ele>
        <time>2020-06-14T17:09:41Z</time>
      </trkpt>
      <trkpt lat="49.48416" lon="-1.82765">
        <ele>22.7</ele>
        <time>2020-06-14T17:09:42Z</time>
      </trkpt>
      <trkpt lat="49.48424" lon="-1.82772">
        <ele>22.2</ele>
        <time>2020-06-14T17:09:43Z</time>
      </trkpt>
      <trkpt lat="49.48432" lon="-1.8278">
        <ele>21.7</ele>
        <time>2020-06-14T17:09:44Z</time>
      </trkpt>
      <trkpt lat="49.4844" lon="-1.82788">
        <ele>21.3</ele>
        <time>2020-06-14T17:09:45Z</time>
      </trkpt>
      <trkpt lat="49.48448" lon="-1.82796">
        <ele>20.9</ele>
        <time>2020-06-14T17:09:46Z</time>
      </trkpt>
      <trkpt lat="49.48455" lon="-1.82802">
        <ele>20.6</ele>
        <time>2020-06-14T17:09:47Z</time>
      </trkpt>
      <trkpt lat="49.48461" lon="-1.82808">
        <ele>20.3</ele>
        <time>2020-06-14T17:09:48Z</time>
      </trkpt>
      <trkpt lat="49.48467" lon="-1.82813">
        <ele>20.1</ele>
        <time>2020-06-14T17:09:49Z</time>
      </trkpt>
      <trkpt lat="49.48473" lon="-1.82818">
        <ele>19.8</ele>
        <time>2020-06-14T17:09:50Z</time>
      </trkpt>
      <trkpt lat="49.4848" lon="-1.82821">
        <ele>19.5</ele>
        <time>2020-06-14T17:09:51Z</time>
      </trkpt>
      <trkpt lat="49.48487" lon="-1.82823">
        <ele>19.2</ele>
        <time>2020-06-14T17:09:52Z</time>
      </trkpt>
      <trkpt lat="49.48493" lon="-1.82826">
        <ele>18.9</ele>
        <time>2020-06-14T17:09:53Z</time>
      </trkpt>
      <trkpt lat="49.485" lon="-1.82829">
        <ele>18.6</ele>
        <time>2020-06-14T17:09:54Z</time>
      </trkpt>
      <trkpt lat="49.48506" lon="-1.82831">
        <ele>18.4</ele>
        <time>2020-06-14T17:09:55Z</time>
      </trkpt>
      <trkpt lat="49.48512" lon="-1.82834">
        <ele>18.1</ele>
        <time>2020-06-14T17:09:56Z</time>
      </trkpt>
      <trkpt lat="49.48517" lon="-1.82836">
        <ele>17.9</ele>
        <time>2020-06-14T17:09:57Z</time>
      </trkpt>
      <trkpt lat="49.48523" lon="-1.82837">
        <ele>17.7</ele>
        <time>2020-06-14T17:09:58Z</time>
      </trkpt>
      <trkpt lat="49.4853" lon="-1.82838">
        <ele>17.5</ele>
        <time>2020-06-14T17:09:59Z</time>
      </trkpt>
      <trkpt lat="49.48536" lon="-1.82839">
        <ele>17.4</ele>
        <time>2020-06-14T17:10:00Z</time>
      </trkpt>
      <trkpt lat="49.48542" lon="-1.82841">
        <ele>17.2</ele>
        <time>2020-06-14T17:10:01Z</time>
      </trkpt>
      <trkpt lat="49.48547" lon="-1.82845">
        <ele>17</ele>
        <time>2020-06-14T17:10:02Z</time>
      </trkpt>
      <trkpt lat="49.48553" lon="-1.82846">
        <ele>16.9</ele>
        <time>2020-06-14T17:10:03Z</time>
      </trkpt>
      <trkpt lat="49.48558" lon="-1.82848">
        <ele>16.8</ele>
        <time>2020-06-14T17:10:04Z</time>
      </trkpt>
      <trkpt lat="49.48563" lon="-1.82849">
        <ele>16.7</ele>
        <time>2020-06-14T17:10:05Z</time>
      </trkpt>
      <trkpt lat="49.48568" lon="-1.8285">
        <ele>16.6</ele>
        <time>2020-06-14T17:10:06Z</time>
      </trkpt>
      <trkpt lat="49.48572" lon="-1.82851">
        <ele>16.5</ele>
        <time>2020-06-14T17:10:07Z</time>
      </trkpt>
      <trkpt lat="49.48576" lon="-1.82855">
        <ele>16.5</ele>
        <time>2020-06-14T17:10:08Z</time>
      </trkpt>
      <trkpt lat="49.48578" lon="-1.82861">
        <ele>16.4</ele>
        <time>2020-06-14T17:10:09Z</time>
      </trkpt>
      <trkpt lat="49.4858" lon="-1.82869">
        <ele>16.4</ele>
        <time>2020-06-14T17:10:10Z</time>
      </trkpt>
      <trkpt lat="49.48583" lon="-1.82876">
        <ele>16.4</ele>
        <time>2020-06-14T17:10:11Z</time>
      </trkpt>
      <trkpt lat="49.48585" lon="-1.82883">
        <ele>16.4</ele>
        <time>2020-06-14T17:10:12Z</time>
      </trkpt>
      <trkpt lat="49.48587" lon="-1.8289">
        <ele>16.4</ele>
        <time>2020-06-14T17:10:13Z</time>
      </trkpt>
      <trkpt lat="49.48588" lon="-1.82895">
        <ele>16.3</ele>
        <time>2020-06-14T17:10:14Z</time>
      </trkpt>
      <trkpt lat="49.48592" lon="-1.82898">
        <ele>16.3</ele>
        <time>2020-06-14T17:10:15Z</time>
      </trkpt>
      <trkpt lat="49.48593" lon="-1.82899">
        <ele>16.2</ele>
        <time>2020-06-14T17:10:16Z</time>
      </trkpt>
      <trkpt lat="49.48597" lon="-1.82897">
        <ele>16.2</ele>
        <time>2020-06-14T17:10:17Z</time>
      </trkpt>
      <trkpt lat="49.48601" lon="-1.82894">
        <ele>16.1</ele>
        <time>2020-06-14T17:10:18Z</time>
      </trkpt>
      <trkpt lat="49.48606" lon="-1.82893">
        <ele>15.9</ele>
        <time>2020-06-14T17:10:19Z</time>
      </trkpt>
      <trkpt lat="49.48611" lon="-1.8289">
        <ele>15.8</ele>
        <time>2020-06-14T17:10:20Z</time>
      </trkpt>
      <trkpt lat="49.48616" lon="-1.8289">
        <ele>15.6</ele>
        <time>2020-06-14T17:10:21Z</time>
      </trkpt>
      <trkpt lat="49.48622" lon="-1.82888">
        <ele>15.5</ele>
        <time>2020-06-14T17:10:22Z</time>
      </trkpt>
      <trkpt lat="49.48628" lon="-1.82885">
        <ele>15.3</ele>
        <time>2020-06-14T17:10:23Z</time>
      </trkpt>
      <trkpt lat="49.48633" lon="-1.82884">
        <ele>15.3</ele>
        <time>2020-06-14T17:10:24Z</time>
      </trkpt>
      <trkpt lat="49.48638" lon="-1.82883">
        <ele>15.3</ele>
        <time>2020-06-14T17:10:25Z</time>
      </trkpt>
      <trkpt lat="49.48642" lon="-1.82881">
        <ele>15.2</ele>
        <time>2020-06-14T17:10:26Z</time>
      </trkpt>
      <trkpt lat="49.48647" lon="-1.82879">
        <ele>15.1</ele>
        <time>2020-06-14T17:10:27Z</time>
      </trkpt>
      <trkpt lat="49.48652" lon="-1.82877">
        <ele>15.1</ele>
        <time>2020-06-14T17:10:28Z</time>
      </trkpt>
      <trkpt lat="49.48657" lon="-1.82877">
        <ele>15</ele>
        <time>2020-06-14T17:10:29Z</time>
      </trkpt>
      <trkpt lat="49.48661" lon="-1.82875">
        <ele>14.9</ele>
        <time>2020-06-14T17:10:30Z</time>
      </trkpt>
      <trkpt lat="49.48666" lon="-1.82874">
        <ele>14.9</ele>
        <time>2020-06-14T17:10:31Z</time>
      </trkpt>
      <trkpt lat="49.48671" lon="-1.82876">
        <ele>14.8</ele>
        <time>2020-06-14T17:10:32Z</time>
      </trkpt>
      <trkpt lat="49.48676" lon="-1.82878">
        <ele>14.7</ele>
        <time>2020-06-14T17:10:33Z</time>
      </trkpt>
      <trkpt lat="49.48682" lon="-1.82879">
        <ele>14.7</ele>
        <time>2020-06-14T17:10:34Z</time>
      </trkpt>
      <trkpt lat="49.48688" lon="-1.82875">
        <ele>14.7</ele>
        <time>2020-06-14T17:10:35Z</time>
      </trkpt>
      <trkpt lat="49.48693" lon="-1.82877">
        <ele>14.6</ele>
        <time>2020-06-14T17:10:36Z</time>
      </trkpt>
      <trkpt lat="49.48697" lon="-1.8288">
        <ele>14.6</ele>
        <time>2020-06-14T17:10:37Z</time>
      </trkpt>
      <trkpt lat="49.48701" lon="-1.82883">
        <ele>14.5</ele>
        <time>2020-06-14T17:10:38Z</time>
      </trkpt>
      <trkpt lat="49.48707" lon="-1.82883">
        <ele>14.5</ele>
        <time>2020-06-14T17:10:39Z</time>
      </trkpt>
      <trkpt lat="49.48712" lon="-1.82884">
        <ele>14.4</ele>
        <time>2020-06-14T17:10:40Z</time>
      </trkpt>
      <trkpt lat="49.48717" lon="-1.82885">
        <ele>14.4</ele>
        <time>2020-06-14T17:10:41Z</time>
      </trkpt>
      <trkpt lat="49.48722" lon="-1.82889">
        <ele>14.3</ele>
        <time>2020-06-14T17:10:42Z</time>
      </trkpt>
      <trkpt lat="49.48727" lon="-1.82892">
        <ele>14.3</ele>
        <time>2020-06-14T17:10:43Z</time>
      </trkpt>
      <trkpt lat="49.48732" lon="-1.82894">
        <ele>14.3</ele>
        <time>2020-06-14T17:10:44Z</time>
      </trkpt>
      <trkpt lat="49.48738" lon="-1.82889">
        <ele>14.3</ele>
        <time>2020-06-14T17:10:45Z</time>
      </trkpt>
      <trkpt lat="49.48743" lon="-1.82887">
        <ele>14.3</ele>
        <time>2020-06-14T17:10:46Z</time>
      </trkpt>
      <trkpt lat="49.48748" lon="-1.82883">
        <ele>14.4</ele>
        <time>2020-06-14T17:10:47Z</time>
      </trkpt>
      <trkpt lat="49.48753" lon="-1.82882">
        <ele>14.5</ele>
        <time>2020-06-14T17:10:48Z</time>
      </trkpt>
      <trkpt lat="49.48757" lon="-1.82884">
        <ele>14.6</ele>
        <time>2020-06-14T17:10:49Z</time>
      </trkpt>
      <trkpt lat="49.48761" lon="-1.82886">
        <ele>14.7</ele>
        <time>2020-06-14T17:10:50Z</time>
      </trkpt>
      <trkpt lat="49.48766" lon="-1.82888">
        <ele>14.7</ele>
        <time>2020-06-14T17:10:51Z</time>
      </trkpt>
      <trkpt lat="49.4877" lon="-1.82888">
        <ele>14.8</ele>
        <time>2020-06-14T17:10:52Z</time>
      </trkpt>
      <trkpt lat="49.48773" lon="-1.82891">
        <ele>14.9</ele>
        <time>2020-06-14T17:10:53Z</time>
      </trkpt>
      <trkpt lat="49.48777" lon="-1.82893">
        <ele>15</ele>
        <time>2020-06-14T17:10:54Z</time>
      </trkpt>
      <trkpt lat="49.48781" lon="-1.82895">
        <ele>15.1</ele>
        <time>2020-06-14T17:10:55Z</time>
      </trkpt>
      <trkpt lat="49.48786" lon="-1.82895">
        <ele>15.2</ele>
        <time>2020-06-14T17:10:56Z</time>
      </trkpt>
      <trkpt lat="49.4879" lon="-1.82894">
        <ele>15.3</ele>
        <time>2020-06-14T17:10:57Z</time>
      </trkpt>
      <trkpt lat="49.48793" lon="-1.82892">
        <ele>15.3</ele>
        <time>2020-06-14T17:10:58Z</time>
      </trkpt>
      <trkpt lat="49.48796" lon="-1.8289">
        <ele>15.4</ele>
        <time>2020-06-14T17:10:59Z</time>
      </trkpt>
      <trkpt lat="49.488" lon="-1.82888">
        <ele>15.4</ele>
        <time>2020-06-14T17:11:00Z</time>
      </trkpt>
      <trkpt lat="49.48804" lon="-1.82887">
        <ele>15.5</ele>
        <time>2020-06-14T17:11:01Z</time>
      </trkpt>
      <trkpt lat="49.48808" lon="-1.82886">
        <ele>15.6</ele>
        <time>2020-06-14T17:11:02Z</time>
      </trkpt>
      <trkpt lat="49.48812" lon="-1.82885">
        <ele>15.7</ele>
        <time>2020-06-14T17:11:03Z</time>
      </trkpt>
      <trkpt lat="49.48816" lon="-1.82882">
        <ele>15.7</ele>
        <time>2020-06-14T17:11:04Z</time>
      </trkpt>
      <trkpt lat="49.4882" lon="-1.82876">
        <ele>15.8</ele>
        <time>2020-06-14T17:11:05Z</time>
      </trkpt>
      <trkpt lat="49.48823" lon="-1.82875">
        <ele>15.9</ele>
        <time>2020-06-14T17:11:06Z</time>
      </trkpt>
      <trkpt lat="49.48828" lon="-1.82872">
        <ele>16</ele>
        <time>2020-06-14T17:11:07Z</time>
      </trkpt>
      <trkpt lat="49.48832" lon="-1.8287">
        <ele>16.1</ele>
        <time>2020-06-14T17:11:08Z</time>
      </trkpt>
      <trkpt lat="49.48837" lon="-1.82869">
        <ele>16.2</ele>
        <time>2020-06-14T17:11:09Z</time>
      </trkpt>
      <trkpt lat="49.48842" lon="-1.8287">
        <ele>16.3</ele>
        <time>2020-06-14T17:11:10Z</time>
      </trkpt>
      <trkpt lat="49.48846" lon="-1.8287">
        <ele>16.4</ele>
        <time>2020-06-14T17:11:11Z</time>
      </trkpt>
      <trkpt lat="49.4885" lon="-1.82871">
        <ele>16.5</ele>
        <time>2020-06-14T17:11:12Z</time>
      </trkpt>
      <trkpt lat="49.48855" lon="-1.82873">
        <ele>16.7</ele>
        <time>2020-06-14T17:11:13Z</time>
      </trkpt>
      <trkpt lat="49.48859" lon="-1.82873">
        <ele>16.8</ele>
        <time>2020-06-14T17:11:14Z</time>
      </trkpt>
      <trkpt lat="49.48863" lon="-1.82873">
        <ele>16.9</ele>
        <time>2020-06-14T17:11:15Z</time>
      </trkpt>
      <trkpt lat="49.48867" lon="-1.82872">
        <ele>17</ele>
        <time>2020-06-14T17:11:16Z</time>
      </trkpt>
      <trkpt lat="49.48871" lon="-1.82871">
        <ele>17.1</ele>
        <time>2020-06-14T17:11:17Z</time>
      </trkpt>
      <trkpt lat="49.48875" lon="-1.8287">
        <ele>17.2</ele>
        <time>2020-06-14T17:11:18Z</time>
      </trkpt>
      <trkpt lat="49.48879" lon="-1.82868">
        <ele>17.3</ele>
        <time>2020-06-14T17:11:19Z</time>
      </trkpt>
      <trkpt lat="49.48883" lon="-1.82867">
        <ele>17.4</ele>
        <time>2020-06-14T17:11:20Z</time>
      </trkpt>
      <trkpt lat="49.48887" lon="-1.82865">
        <ele>17.5</ele>
        <time>2020-06-14T17:11:21Z</time>
      </trkpt>
      <trkpt lat="49.48891" lon="-1.82865">
        <ele>17.6</ele>
        <time>2020-06-14T17:11:22Z</time>
      </trkpt>
      <trkpt lat="49.48896" lon="-1.82862">
        <ele>17.7</ele>
        <time>2020-06-14T17:11:23Z</time>
      </trkpt>
      <trkpt lat="49.489" lon="-1.82861">
        <ele>17.8</ele>
        <time>2020-06-14T17:11:24Z</time>
      </trkpt>
      <trkpt lat="49.48904" lon="-1.82858">
        <ele>17.9</ele>
        <time>2020-06-14T17:11:25Z</time>
      </trkpt>
      <trkpt lat="49.48908" lon="-1.82856">
        <ele>18</ele>
        <time>2020-06-14T17:11:26Z</time>
      </trkpt>
      <trkpt lat="49.48912" lon="-1.82852">
        <ele>18.1</ele>
        <time>2020-06-14T17:11:27Z</time>
      </trkpt>
      <trkpt lat="49.48916" lon="-1.82851">
        <ele>18.2</ele>
        <time>2020-06-14T17:11:28Z</time>
      </trkpt>
      <trkpt lat="49.4892" lon="-1.82849">
        <ele>18.2</ele>
        <time>2020-06-14T17:11:29Z</time>
      </trkpt>
      <trkpt lat="49.48923" lon="-1.82848">
        <ele>18.3</ele>
        <time>2020-06-14T17:11:30Z</time>
      </trkpt>
      <trkpt lat="49.48929" lon="-1.82847">
        <ele>18.3</ele>
        <time>2020-06-14T17:11:31Z</time>
      </trkpt>
      <trkpt lat="49.48933" lon="-1.82846">
        <ele>18.3</ele>
        <time>2020-06-14T17:11:32Z</time>
      </trkpt>
      <trkpt lat="49.48936" lon="-1.82849">
        <ele>18.3</ele>
        <time>2020-06-14T17:11:33Z</time>
      </trkpt>
      <trkpt lat="49.48939" lon="-1.82849">
        <ele>18.4</ele>
        <time>2020-06-14T17:11:34Z</time>
      </trkpt>
      <trkpt lat="49.48943" lon="-1.8285">
        <ele>18.4</ele>
        <time>2020-06-14T17:11:35Z</time>
      </trkpt>
      <trkpt lat="49.48946" lon="-1.8285">
        <ele>18.4</ele>
        <time>2020-06-14T17:11:36Z</time>
      </trkpt>
      <trkpt lat="49.4895" lon="-1.82848">
        <ele>18.5</ele>
        <time>2020-06-14T17:11:37Z</time>
      </trkpt>
      <trkpt lat="49.48954" lon="-1.82845">
        <ele>18.5</ele>
        <time>2020-06-14T17:11:38Z</time>
      </trkpt>
      <trkpt lat="49.4896" lon="-1.82841">
        <ele>18.4</ele>
        <time>2020-06-14T17:11:39Z</time>
      </trkpt>
      <trkpt lat="49.48964" lon="-1.82839">
        <ele>18.3</ele>
        <time>2020-06-14T17:11:40Z</time>
      </trkpt>
      <trkpt lat="49.48969" lon="-1.82836">
        <ele>18.2</ele>
        <time>2020-06-14T17:11:41Z</time>
      </trkpt>
      <trkpt lat="49.48973" lon="-1.82833">
        <ele>18.1</ele>
        <time>2020-06-14T17:11:42Z</time>
      </trkpt>
      <trkpt lat="49.48977" lon="-1.82831">
        <ele>18</ele>
        <time>2020-06-14T17:11:43Z</time>
      </trkpt>
      <trkpt lat="49.48981" lon="-1.82828">
        <ele>17.8</ele>
        <time>2020-06-14T17:11:44Z</time>
      </trkpt>
      <trkpt lat="49.48983" lon="-1.82825">
        <ele>17.7</ele>
        <time>2020-06-14T17:11:45Z</time>
      </trkpt>
      <trkpt lat="49.48987" lon="-1.82823">
        <ele>17.6</ele>
        <time>2020-06-14T17:11:46Z</time>
      </trkpt>
      <trkpt lat="49.48991" lon="-1.8282">
        <ele>17.4</ele>
        <time>2020-06-14T17:11:47Z</time>
      </trkpt>
      <trkpt lat="49.48995" lon="-1.82818">
        <ele>17.1</ele>
        <time>2020-06-14T17:11:48Z</time>
      </trkpt>
      <trkpt lat="49.49" lon="-1.82816">
        <ele>16.9</ele>
        <time>2020-06-14T17:11:49Z</time>
      </trkpt>
      <trkpt lat="49.49003" lon="-1.82814">
        <ele>16.7</ele>
        <time>2020-06-14T17:11:50Z</time>
      </trkpt>
      <trkpt lat="49.49008" lon="-1.82812">
        <ele>16.3</ele>
        <time>2020-06-14T17:11:51Z</time>
      </trkpt>
      <trkpt lat="49.49014" lon="-1.82808">
        <ele>15.9</ele>
        <time>2020-06-14T17:11:52Z</time>
      </trkpt>
      <trkpt lat="49.4902" lon="-1.82805">
        <ele>15.5</ele>
        <time>2020-06-14T17:11:53Z</time>
      </trkpt>
      <trkpt lat="49.49026" lon="-1.828">
        <ele>15</ele>
        <time>2020-06-14T17:11:54Z</time>
      </trkpt>
      <trkpt lat="49.49033" lon="-1.82794">
        <ele>14.5</ele>
        <time>2020-06-14T17:11:55Z</time>
      </trkpt>
      <trkpt lat="49.49039" lon="-1.82789">
        <ele>14.1</ele>
        <time>2020-06-14T17:11:56Z</time>
      </trkpt>
      <trkpt lat="49.49045" lon="-1.82785">
        <ele>13.7</ele>
        <time>2020-06-14T17:11:57Z</time>
      </trkpt>
      <trkpt lat="49.49052" lon="-1.82781">
        <ele>13.3</ele>
        <time>2020-06-14T17:11:58Z</time>
      </trkpt>
      <trkpt lat="49.4906" lon="-1.82775">
        <ele>13</ele>
        <time>2020-06-14T17:11:59Z</time>
      </trkpt>
      <trkpt lat="49.49067" lon="-1.82769">
        <ele>12.6</ele>
        <time>2020-06-14T17:12:00Z</time>
      </trkpt>
      <trkpt lat="49.49075" lon="-1.82764">
        <ele>12.4</ele>
        <time>2020-06-14T17:12:01Z</time>
      </trkpt>
      <trkpt lat="49.49082" lon="-1.82759">
        <ele>12.2</ele>
        <time>2020-06-14T17:12:02Z</time>
      </trkpt>
      <trkpt lat="49.49089" lon="-1.82754">
        <ele>12.1</ele>
        <time>2020-06-14T17:12:03Z</time>
      </trkpt>
      <trkpt lat="49.49095" lon="-1.82749">
        <ele>12</ele>
        <time>2020-06-14T17:12:04Z</time>
      </trkpt>
      <trkpt lat="49.49102" lon="-1.82744">
        <ele>12</ele>
        <time>2020-06-14T17:12:05Z</time>
      </trkpt>
      <trkpt lat="49.49109" lon="-1.82741">
        <ele>11.9</ele>
        <time>2020-06-14T17:12:06Z</time>
      </trkpt>
      <trkpt lat="49.49116" lon="-1.8274">
        <ele>11.9</ele>
        <time>2020-06-14T17:12:07Z</time>
      </trkpt>
      <trkpt lat="49.49124" lon="-1.82738">
        <ele>12</ele>
        <time>2020-06-14T17:12:08Z</time>
      </trkpt>
      <trkpt lat="49.4913" lon="-1.82737">
        <ele>12</ele>
        <time>2020-06-14T17:12:09Z</time>
      </trkpt>
      <trkpt lat="49.49135" lon="-1.82735">
        <ele>12.1</ele>
        <time>2020-06-14T17:12:10Z</time>
      </trkpt>
      <trkpt lat="49.49139" lon="-1.82734">
        <ele>12.2</ele>
        <time>2020-06-14T17:12:11Z</time>
      </trkpt>
      <trkpt lat="49.49144" lon="-1.82733">
        <ele>12.2</ele>
        <time>2020-06-14T17:12:12Z</time>
      </trkpt>
      <trkpt lat="49.49149" lon="-1.82736">
        <ele>12.1</ele>
        <time>2020-06-14T17:12:13Z</time>
      </trkpt>
      <trkpt lat="49.49154" lon="-1.8274">
        <ele>11.9</ele>
        <time>2020-06-14T17:12:14Z</time>
      </trkpt>
      <trkpt lat="49.49161" lon="-1.82745">
        <ele>11.8</ele>
        <time>2020-06-14T17:12:15Z</time>
      </trkpt>
      <trkpt lat="49.49164" lon="-1.82754">
        <ele>11.6</ele>
        <time>2020-06-14T17:12:16Z</time>
      </trkpt>
      <trkpt lat="49.49167" lon="-1.82763">
        <ele>11.4</ele>
        <time>2020-06-14T17:12:17Z</time>
      </trkpt>
      <trkpt lat="49.4917" lon="-1.82773">
        <ele>11.2</ele>
        <time>2020-06-14T17:12:18Z</time>
      </trkpt>
      <trkpt lat="49.49172" lon="-1.82783">
        <ele>11.1</ele>
        <time>2020-06-14T17:12:19Z</time>
      </trkpt>
      <trkpt lat="49.49175" lon="-1.82794">
        <ele>11.1</ele>
        <time>2020-06-14T17:12:20Z</time>
      </trkpt>
      <trkpt lat="49.49179" lon="-1.82804">
        <ele>11.1</ele>
        <time>2020-06-14T17:12:21Z</time>
      </trkpt>
      <trkpt lat="49.49184" lon="-1.82812">
        <ele>11.1</ele>
        <time>2020-06-14T17:12:22Z</time>
      </trkpt>
      <trkpt lat="49.4919" lon="-1.82817">
        <ele>11.2</ele>
        <time>2020-06-14T17:12:23Z</time>
      </trkpt>
      <trkpt lat="49.49196" lon="-1.82821">
        <ele>11.3</ele>
        <time>2020-06-14T17:12:24Z</time>
      </trkpt>
      <trkpt lat="49.49203" lon="-1.82821">
        <ele>11.4</ele>
        <time>2020-06-14T17:12:25Z</time>
      </trkpt>
      <trkpt lat="49.49209" lon="-1.82822">
        <ele>11.6</ele>
        <time>2020-06-14T17:12:26Z</time>
      </trkpt>
      <trkpt lat="49.49215" lon="-1.82823">
        <ele>11.8</ele>
        <time>2020-06-14T17:12:27Z</time>
      </trkpt>
      <trkpt lat="49.49221" lon="-1.82824">
        <ele>12</ele>
        <time>2020-06-14T17:12:28Z</time>
      </trkpt>
      <trkpt lat="49.49227" lon="-1.82825">
        <ele>12.3</ele>
        <time>2020-06-14T17:12:29Z</time>
      </trkpt>
      <trkpt lat="49.49233" lon="-1.82825">
        <ele>12.5</ele>
        <time>2020-06-14T17:12:30Z</time>
      </trkpt>
      <trkpt lat="49.49238" lon="-1.82824">
        <ele>12.8</ele>
        <time>2020-06-14T17:12:31Z</time>
      </trkpt>
      <trkpt lat="49.49244" lon="-1.82825">
        <ele>13</ele>
        <time>2020-06-14T17:12:32Z</time>
      </trkpt>
      <trkpt lat="49.49249" lon="-1.82826">
        <ele>13.3</ele>
        <time>2020-06-14T17:12:33Z</time>
      </trkpt>
      <trkpt lat="49.49254" lon="-1.82827">
        <ele>13.6</ele>
        <time>2020-06-14T17:12:34Z</time>
      </trkpt>
      <trkpt lat="49.49259" lon="-1.82827">
        <ele>13.8</ele>
        <time>2020-06-14T17:12:35Z</time>
      </trkpt>
      <trkpt lat="49.49264" lon="-1.82827">
        <ele>14.1</ele>
        <time>2020-06-14T17:12:36Z</time>
      </trkpt>
      <trkpt lat="49.49268" lon="-1.82827">
        <ele>14.3</ele>
        <time>2020-06-14T17:12:37Z</time>
      </trkpt>
      <trkpt lat="49.49273" lon="-1.82828">
        <ele>14.6</ele>
        <time>2020-06-14T17:12:38Z</time>
      </trkpt>
      <trkpt lat="49.49277" lon="-1.82829">
        <ele>14.8</ele>
        <time>2020-06-14T17:12:39Z</time>
      </trkpt>
      <trkpt lat="49.49281" lon="-1.82828">
        <ele>15</ele>
        <time>2020-06-14T17:12:40Z</time>
      </trkpt>
      <trkpt lat="49.49285" lon="-1.8283">
        <ele>15.2</ele>
        <time>2020-06-14T17:12:41Z</time>
      </trkpt>
      <trkpt lat="49.49288" lon="-1.82831">
        <ele>15.4</ele>
        <time>2020-06-14T17:12:42Z</time>
      </trkpt>
      <trkpt lat="49.49291" lon="-1.82831">
        <ele>15.5</ele>
        <time>2020-06-14T17:12:43Z</time>
      </trkpt>
      <trkpt lat="49.49294" lon="-1.82831">
        <ele>15.6</ele>
        <time>2020-06-14T17:12:44Z</time>
      </trkpt>
      <trkpt lat="49.49297" lon="-1.82831">
        <ele>15.8</ele>
        <time>2020-06-14T17:12:45Z</time>
      </trkpt>
      <trkpt lat="49.49301" lon="-1.82831">
        <ele>15.9</ele>
        <time>2020-06-14T17:12:46Z</time>
      </trkpt>
      <trkpt lat="49.49304" lon="-1.82832">
        <ele>16.1</ele>
        <time>2020-06-14T17:12:47Z</time>
      </trkpt>
      <trkpt lat="49.49307" lon="-1.82834">
        <ele>16.3</ele>
        <time>2020-06-14T17:12:48Z</time>
      </trkpt>
      <trkpt lat="49.4931" lon="-1.82836">
        <ele>16.4</ele>
        <time>2020-06-14T17:12:49Z</time>
      </trkpt>
      <trkpt lat="49.49313" lon="-1.82837">
        <ele>16.6</ele>
        <time>2020-06-14T17:12:50Z</time>
      </trkpt>
      <trkpt lat="49.49315" lon="-1.8284">
        <ele>16.8</ele>
        <time>2020-06-14T17:12:51Z</time>
      </trkpt>
      <trkpt lat="49.49318" lon="-1.82842">
        <ele>17</ele>
        <time>2020-06-14T17:12:52Z</time>
      </trkpt>
      <trkpt lat="49.49322" lon="-1.82843">
        <ele>17.2</ele>
        <time>2020-06-14T17:12:53Z</time>
      </trkpt>
      <trkpt lat="49.49325" lon="-1.82845">
        <ele>17.4</ele>
        <time>2020-06-14T17:12:54Z</time>
      </trkpt>
      <trkpt lat="49.49328" lon="-1.82847">
        <ele>17.6</ele>
        <time>2020-06-14T17:12:55Z</time>
      </trkpt>
      <trkpt lat="49.49333" lon="-1.8285">
        <ele>17.9</ele>
        <time>2020-06-14T17:12:56Z</time>
      </trkpt>
      <trkpt lat="49.49336" lon="-1.82853">
        <ele>18.1</ele>
        <time>2020-06-14T17:12:57Z</time>
      </trkpt>
      <trkpt lat="49.49339" lon="-1.82856">
        <ele>18.3</ele>
        <time>2020-06-14T17:12:58Z</time>
      </trkpt>
      <trkpt lat="49.49342" lon="-1.82858">
        <ele>18.4</ele>
        <time>2020-06-14T17:12:59Z</time>
      </trkpt>
      <trkpt lat="49.49345" lon="-1.8286">
        <ele>18.6</ele>
        <time>2020-06-14T17:13:00Z</time>
      </trkpt>
      <trkpt lat="49.49348" lon="-1.82862">
        <ele>18.8</ele>
        <time>2020-06-14T17:13:01Z</time>
      </trkpt>
      <trkpt lat="49.49352" lon="-1.82863">
        <ele>19.1</ele>
        <time>2020-06-14T17:13:02Z</time>
      </trkpt>
      <trkpt lat="49.49355" lon="-1.82865">
        <ele>19.3</ele>
        <time>2020-06-14T17:13:03Z</time>
      </trkpt>
      <trkpt lat="49.49358" lon="-1.82866">
        <ele>19.4</ele>
        <time>2020-06-14T17:13:04Z</time>
      </trkpt>
      <trkpt lat="49.49362" lon="-1.82869">
        <ele>19.7</ele>
        <time>2020-06-14T17:13:05Z</time>
      </trkpt>
      <trkpt lat="49.49363" lon="-1.82869">
        <ele>19.7</ele>
        <time>2020-06-14T17:13:06Z</time>
      </trkpt>
      <trkpt lat="49.49368" lon="-1.82872">
        <ele>20</ele>
        <time>2020-06-14T17:13:07Z</time>
      </trkpt>
      <trkpt lat="49.4937" lon="-1.82874">
        <ele>20.2</ele>
        <time>2020-06-14T17:13:08Z</time>
      </trkpt>
      <trkpt lat="49.49374" lon="-1.82877">
        <ele>20.4</ele>
        <time>2020-06-14T17:13:09Z</time>
      </trkpt>
      <trkpt lat="49.49377" lon="-1.8288">
        <ele>20.6</ele>
        <time>2020-06-14T17:13:10Z</time>
      </trkpt>
      <trkpt lat="49.4938" lon="-1.82882">
        <ele>20.8</ele>
        <time>2020-06-14T17:13:11Z</time>
      </trkpt>
      <trkpt lat="49.49384" lon="-1.82885">
        <ele>21</ele>
        <time>2020-06-14T17:13:12Z</time>
      </trkpt>
      <trkpt lat="49.49387" lon="-1.82887">
        <ele>21.1</ele>
        <time>2020-06-14T17:13:13Z</time>
      </trkpt>
      <trkpt lat="49.4939" lon="-1.8289">
        <ele>21.3</ele>
        <time>2020-06-14T17:13:14Z</time>
      </trkpt>
      <trkpt lat="49.49393" lon="-1.82892">
        <ele>21.4</ele>
        <time>2020-06-14T17:13:15Z</time>
      </trkpt>
      <trkpt lat="49.49396" lon="-1.82895">
        <ele>21.5</ele>
        <time>2020-06-14T17:13:16Z</time>
      </trkpt>
      <trkpt lat="49.49399" lon="-1.82898">
        <ele>21.6</ele>
        <time>2020-06-14T17:13:17Z</time>
      </trkpt>
      <trkpt lat="49.49401" lon="-1.82899">
        <ele>21.6</ele>
        <time>2020-06-14T17:13:18Z</time>
      </trkpt>
      <trkpt lat="49.49404" lon="-1.82902">
        <ele>21.7</ele>
        <time>2020-06-14T17:13:19Z</time>
      </trkpt>
      <trkpt lat="49.49406" lon="-1.82904">
        <ele>21.8</ele>
        <time>2020-06-14T17:13:20Z</time>
      </trkpt>
      <trkpt lat="49.49409" lon="-1.82907">
        <ele>21.9</ele>
        <time>2020-06-14T17:13:21Z</time>
      </trkpt>
      <trkpt lat="49.49412" lon="-1.82909">
        <ele>21.9</ele>
        <time>2020-06-14T17:13:22Z</time>
      </trkpt>
      <trkpt lat="49.49415" lon="-1.82912">
        <ele>22</ele>
        <time>2020-06-14T17:13:23Z</time>
      </trkpt>
      <trkpt lat="49.49418" lon="-1.82914">
        <ele>22</ele>
        <time>2020-06-14T17:13:24Z</time>
      </trkpt>
      <trkpt lat="49.49422" lon="-1.82917">
        <ele>22.1</ele>
        <time>2020-06-14T17:13:25Z</time>
      </trkpt>
      <trkpt lat="49.49426" lon="-1.8292">
        <ele>22.1</ele>
        <time>2020-06-14T17:13:26Z</time>
      </trkpt>
      <trkpt lat="49.4943" lon="-1.82922">
        <ele>22</ele>
        <time>2020-06-14T17:13:27Z</time>
      </trkpt>
      <trkpt lat="49.49434" lon="-1.82925">
        <ele>22</ele>
        <time>2020-06-14T17:13:28Z</time>
      </trkpt>
      <trkpt lat="49.49438" lon="-1.82928">
        <ele>22</ele>
        <time>2020-06-14T17:13:29Z</time>
      </trkpt>
      <trkpt lat="49.4944" lon="-1.82931">
        <ele>21.9</ele>
        <time>2020-06-14T17:13:30Z</time>
      </trkpt>
      <trkpt lat="49.49444" lon="-1.82933">
        <ele>21.8</ele>
        <time>2020-06-14T17:13:31Z</time>
      </trkpt>
      <trkpt lat="49.49449" lon="-1.82935">
        <ele>21.7</ele>
        <time>2020-06-14T17:13:32Z</time>
      </trkpt>
      <trkpt lat="49.49452" lon="-1.8294">
        <ele>21.6</ele>
        <time>2020-06-14T17:13:33Z</time>
      </trkpt>
      <trkpt lat="49.49456" lon="-1.82947">
        <ele>21.4</ele>
        <time>2020-06-14T17:13:34Z</time>
      </trkpt>
      <trkpt lat="49.4946" lon="-1.82956">
        <ele>21.1</ele>
        <time>2020-06-14T17:13:35Z</time>
      </trkpt>
      <trkpt lat="49.49464" lon="-1.82965">
        <ele>20.8</ele>
        <time>2020-06-14T17:13:36Z</time>
      </trkpt>
      <trkpt lat="49.49468" lon="-1.82973">
        <ele>20.5</ele>
        <time>2020-06-14T17:13:37Z</time>
      </trkpt>
      <trkpt lat="49.4947" lon="-1.82981">
        <ele>20.3</ele>
        <time>2020-06-14T17:13:38Z</time>
      </trkpt>
      <trkpt lat="49.49474" lon="-1.8299">
        <ele>20</ele>
        <time>2020-06-14T17:13:39Z</time>
      </trkpt>
      <trkpt lat="49.49479" lon="-1.83">
        <ele>19.7</ele>
        <time>2020-06-14T17:13:40Z</time>
      </trkpt>
      <trkpt lat="49.49483" lon="-1.8301">
        <ele>19.4</ele>
        <time>2020-06-14T17:13:41Z</time>
      </trkpt>
      <trkpt lat="49.49486" lon="-1.83019">
        <ele>19.1</ele>
        <time>2020-06-14T17:13:42Z</time>
      </trkpt>
      <trkpt lat="49.49489" lon="-1.83029">
        <ele>18.8</ele>
        <time>2020-06-14T17:13:43Z</time>
      </trkpt>
      <trkpt lat="49.49493" lon="-1.83039">
        <ele>18.2</ele>
        <time>2020-06-14T17:13:44Z</time>
      </trkpt>
      <trkpt lat="49.49497" lon="-1.83048">
        <ele>18.1</ele>
        <time>2020-06-14T17:13:45Z</time>
      </trkpt>
      <trkpt lat="49.49503" lon="-1.83055">
        <ele>17.9</ele>
        <time>2020-06-14T17:13:46Z</time>
      </trkpt>
      <trkpt lat="49.49509" lon="-1.83061">
        <ele>17.8</ele>
        <time>2020-06-14T17:13:47Z</time>
      </trkpt>
      <trkpt lat="49.49516" lon="-1.83067">
        <ele>17.6</ele>
        <time>2020-06-14T17:13:48Z</time>
      </trkpt>
      <trkpt lat="49.49521" lon="-1.83074">
        <ele>17.5</ele>
        <time>2020-06-14T17:13:49Z</time>
      </trkpt>
      <trkpt lat="49.49525" lon="-1.83084">
        <ele>17.3</ele>
        <time>2020-06-14T17:13:50Z</time>
      </trkpt>
      <trkpt lat="49.49527" lon="-1.83095">
        <ele>17.2</ele>
        <time>2020-06-14T17:13:51Z</time>
      </trkpt>
      <trkpt lat="49.49529" lon="-1.83106">
        <ele>17.1</ele>
        <time>2020-06-14T17:13:52Z</time>
      </trkpt>
      <trkpt lat="49.49529" lon="-1.83119">
        <ele>16.9</ele>
        <time>2020-06-14T17:13:53Z</time>
      </trkpt>
      <trkpt lat="49.49529" lon="-1.83132">
        <ele>16.8</ele>
        <time>2020-06-14T17:13:54Z</time>
      </trkpt>
      <trkpt lat="49.4953" lon="-1.83144">
        <ele>16.6</ele>
        <time>2020-06-14T17:13:55Z</time>
      </trkpt>
      <trkpt lat="49.4953" lon="-1.83156">
        <ele>16.5</ele>
        <time>2020-06-14T17:13:56Z</time>
      </trkpt>
      <trkpt lat="49.49531" lon="-1.83168">
        <ele>16.3</ele>
        <time>2020-06-14T17:13:57Z</time>
      </trkpt>
      <trkpt lat="49.49531" lon="-1.8318">
        <ele>16.2</ele>
        <time>2020-06-14T17:13:58Z</time>
      </trkpt>
      <trkpt lat="49.49532" lon="-1.83192">
        <ele>16.1</ele>
        <time>2020-06-14T17:13:59Z</time>
      </trkpt>
      <trkpt lat="49.49533" lon="-1.83204">
        <ele>15.9</ele>
        <time>2020-06-14T17:14:00Z</time>
      </trkpt>
      <trkpt lat="49.49535" lon="-1.83216">
        <ele>15.4</ele>
        <time>2020-06-14T17:14:01Z</time>
      </trkpt>
      <trkpt lat="49.49538" lon="-1.83228">
        <ele>15.2</ele>
        <time>2020-06-14T17:14:02Z</time>
      </trkpt>
      <trkpt lat="49.49541" lon="-1.83239">
        <ele>15</ele>
        <time>2020-06-14T17:14:03Z</time>
      </trkpt>
      <trkpt lat="49.49543" lon="-1.83251">
        <ele>14.8</ele>
        <time>2020-06-14T17:14:04Z</time>
      </trkpt>
      <trkpt lat="49.49546" lon="-1.83263">
        <ele>14.6</ele>
        <time>2020-06-14T17:14:05Z</time>
      </trkpt>
      <trkpt lat="49.49548" lon="-1.83274">
        <ele>14.4</ele>
        <time>2020-06-14T17:14:06Z</time>
      </trkpt>
      <trkpt lat="49.4955" lon="-1.83286">
        <ele>14.2</ele>
        <time>2020-06-14T17:14:07Z</time>
      </trkpt>
      <trkpt lat="49.49552" lon="-1.83298">
        <ele>13.9</ele>
        <time>2020-06-14T17:14:08Z</time>
      </trkpt>
      <trkpt lat="49.49554" lon="-1.83309">
        <ele>13.7</ele>
        <time>2020-06-14T17:14:09Z</time>
      </trkpt>
      <trkpt lat="49.49556" lon="-1.83321">
        <ele>13.6</ele>
        <time>2020-06-14T17:14:10Z</time>
      </trkpt>
      <trkpt lat="49.49558" lon="-1.83333">
        <ele>13.4</ele>
        <time>2020-06-14T17:14:11Z</time>
      </trkpt>
      <trkpt lat="49.4956" lon="-1.83344">
        <ele>13.2</ele>
        <time>2020-06-14T17:14:12Z</time>
      </trkpt>
      <trkpt lat="49.49563" lon="-1.83355">
        <ele>13.1</ele>
        <time>2020-06-14T17:14:13Z</time>
      </trkpt>
      <trkpt lat="49.49566" lon="-1.83366">
        <ele>12.9</ele>
        <time>2020-06-14T17:14:14Z</time>
      </trkpt>
      <trkpt lat="49.49569" lon="-1.83376">
        <ele>12.8</ele>
        <time>2020-06-14T17:14:15Z</time>
      </trkpt>
      <trkpt lat="49.49573" lon="-1.83385">
        <ele>12.6</ele>
        <time>2020-06-14T17:14:16Z</time>
      </trkpt>
      <trkpt lat="49.49577" lon="-1.83395">
        <ele>12.4</ele>
        <time>2020-06-14T17:14:17Z</time>
      </trkpt>
      <trkpt lat="49.49581" lon="-1.83405">
        <ele>12.2</ele>
        <time>2020-06-14T17:14:18Z</time>
      </trkpt>
      <trkpt lat="49.49585" lon="-1.83415">
        <ele>12.1</ele>
        <time>2020-06-14T17:14:19Z</time>
      </trkpt>
      <trkpt lat="49.4959" lon="-1.83425">
        <ele>11.9</ele>
        <time>2020-06-14T17:14:20Z</time>
      </trkpt>
      <trkpt lat="49.49594" lon="-1.83435">
        <ele>11.8</ele>
        <time>2020-06-14T17:14:21Z</time>
      </trkpt>
      <trkpt lat="49.49597" lon="-1.83446">
        <ele>11.7</ele>
        <time>2020-06-14T17:14:22Z</time>
      </trkpt>
      <trkpt lat="49.496" lon="-1.83457">
        <ele>11.6</ele>
        <time>2020-06-14T17:14:23Z</time>
      </trkpt>
      <trkpt lat="49.49602" lon="-1.83468">
        <ele>11.6</ele>
        <time>2020-06-14T17:14:24Z</time>
      </trkpt>
      <trkpt lat="49.49605" lon="-1.83479">
        <ele>11.5</ele>
        <time>2020-06-14T17:14:25Z</time>
      </trkpt>
      <trkpt lat="49.49608" lon="-1.8349">
        <ele>11.5</ele>
        <time>2020-06-14T17:14:26Z</time>
      </trkpt>
      <trkpt lat="49.49611" lon="-1.835">
        <ele>11.4</ele>
        <time>2020-06-14T17:14:27Z</time>
      </trkpt>
      <trkpt lat="49.49614" lon="-1.83511">
        <ele>11.4</ele>
        <time>2020-06-14T17:14:28Z</time>
      </trkpt>
      <trkpt lat="49.49617" lon="-1.83521">
        <ele>11.3</ele>
        <time>2020-06-14T17:14:29Z</time>
      </trkpt>
      <trkpt lat="49.4962" lon="-1.83531">
        <ele>11.2</ele>
        <time>2020-06-14T17:14:30Z</time>
      </trkpt>
      <trkpt lat="49.49623" lon="-1.83541">
        <ele>11.1</ele>
        <time>2020-06-14T17:14:31Z</time>
      </trkpt>
      <trkpt lat="49.49626" lon="-1.83551">
        <ele>11</ele>
        <time>2020-06-14T17:14:32Z</time>
      </trkpt>
      <trkpt lat="49.49628" lon="-1.83562">
        <ele>10.9</ele>
        <time>2020-06-14T17:14:33Z</time>
      </trkpt>
      <trkpt lat="49.49631" lon="-1.83572">
        <ele>10.9</ele>
        <time>2020-06-14T17:14:34Z</time>
      </trkpt>
      <trkpt lat="49.49634" lon="-1.83583">
        <ele>10.8</ele>
        <time>2020-06-14T17:14:35Z</time>
      </trkpt>
      <trkpt lat="49.49636" lon="-1.83594">
        <ele>10.7</ele>
        <time>2020-06-14T17:14:36Z</time>
      </trkpt>
      <trkpt lat="49.49639" lon="-1.83604">
        <ele>10.7</ele>
        <time>2020-06-14T17:14:37Z</time>
      </trkpt>
      <trkpt lat="49.49642" lon="-1.83615">
        <ele>10.6</ele>
        <time>2020-06-14T17:14:38Z</time>
      </trkpt>
      <trkpt lat="49.49645" lon="-1.83625">
        <ele>10.6</ele>
        <time>2020-06-14T17:14:39Z</time>
      </trkpt>
      <trkpt lat="49.49648" lon="-1.83636">
        <ele>10.6</ele>
        <time>2020-06-14T17:14:40Z</time>
      </trkpt>
      <trkpt lat="49.49651" lon="-1.83646">
        <ele>10.5</ele>
        <time>2020-06-14T17:14:41Z</time>
      </trkpt>
      <trkpt lat="49.49653" lon="-1.83657">
        <ele>10.5</ele>
        <time>2020-06-14T17:14:42Z</time>
      </trkpt>
      <trkpt lat="49.49656" lon="-1.83667">
        <ele>10.5</ele>
        <time>2020-06-14T17:14:43Z</time>
      </trkpt>
      <trkpt lat="49.49659" lon="-1.83677">
        <ele>10.5</ele>
        <time>2020-06-14T17:14:44Z</time>
      </trkpt>
      <trkpt lat="49.49661" lon="-1.83688">
        <ele>10.4</ele>
        <time>2020-06-14T17:14:45Z</time>
      </trkpt>
      <trkpt lat="49.49663" lon="-1.83698">
        <ele>10.4</ele>
        <time>2020-06-14T17:14:46Z</time>
      </trkpt>
      <trkpt lat="49.49667" lon="-1.83707">
        <ele>10.4</ele>
        <time>2020-06-14T17:14:47Z</time>
      </trkpt>
      <trkpt lat="49.4967" lon="-1.83717">
        <ele>10.4</ele>
        <time>2020-06-14T17:14:48Z</time>
      </trkpt>
      <trkpt lat="49.49672" lon="-1.83726">
        <ele>10.4</ele>
        <time>2020-06-14T17:14:49Z</time>
      </trkpt>
      <trkpt lat="49.49674" lon="-1.83736">
        <ele>10.4</ele>
        <time>2020-06-14T17:14:50Z</time>
      </trkpt>
      <trkpt lat="49.49675" lon="-1.83746">
        <ele>10.3</ele>
        <time>2020-06-14T17:14:51Z</time>
      </trkpt>
      <trkpt lat="49.49676" lon="-1.83757">
        <ele>10.3</ele>
        <time>2020-06-14T17:14:52Z</time>
      </trkpt>
      <trkpt lat="49.49677" lon="-1.83767">
        <ele>10.3</ele>
        <time>2020-06-14T17:14:53Z</time>
      </trkpt>
      <trkpt lat="49.49677" lon="-1.83777">
        <ele>10.3</ele>
        <time>2020-06-14T17:14:54Z</time>
      </trkpt>
      <trkpt lat="49.49677" lon="-1.83788">
        <ele>10.3</ele>
        <time>2020-06-14T17:14:55Z</time>
      </trkpt>
      <trkpt lat="49.49677" lon="-1.83798">
        <ele>10.3</ele>
        <time>2020-06-14T17:14:56Z</time>
      </trkpt>
      <trkpt lat="49.49676" lon="-1.83808">
        <ele>10.3</ele>
        <time>2020-06-14T17:14:57Z</time>
      </trkpt>
      <trkpt lat="49.49677" lon="-1.83819">
        <ele>10.3</ele>
        <time>2020-06-14T17:14:58Z</time>
      </trkpt>
      <trkpt lat="49.49677" lon="-1.83829">
        <ele>10.3</ele>
        <time>2020-06-14T17:14:59Z</time>
      </trkpt>
      <trkpt lat="49.49677" lon="-1.83839">
        <ele>10.3</ele>
        <time>2020-06-14T17:15:00Z</time>
      </trkpt>
      <trkpt lat="49.49678" lon="-1.83849">
        <ele>10.4</ele>
        <time>2020-06-14T17:15:01Z</time>
      </trkpt>
      <trkpt lat="49.49678" lon="-1.83859">
        <ele>10.4</ele>
        <time>2020-06-14T17:15:02Z</time>
      </trkpt>
      <trkpt lat="49.49679" lon="-1.8387">
        <ele>10.4</ele>
        <time>2020-06-14T17:15:03Z</time>
      </trkpt>
      <trkpt lat="49.49679" lon="-1.83879">
        <ele>10.4</ele>
        <time>2020-06-14T17:15:04Z</time>
      </trkpt>
      <trkpt lat="49.4968" lon="-1.83889">
        <ele>10.3</ele>
        <time>2020-06-14T17:15:05Z</time>
      </trkpt>
      <trkpt lat="49.49681" lon="-1.83899">
        <ele>10.3</ele>
        <time>2020-06-14T17:15:06Z</time>
      </trkpt>
      <trkpt lat="49.49682" lon="-1.83908">
        <ele>10.3</ele>
        <time>2020-06-14T17:15:07Z</time>
      </trkpt>
      <trkpt lat="49.49681" lon="-1.83918">
        <ele>10.3</ele>
        <time>2020-06-14T17:15:08Z</time>
      </trkpt>
      <trkpt lat="49.49682" lon="-1.83928">
        <ele>10.2</ele>
        <time>2020-06-14T17:15:09Z</time>
      </trkpt>
      <trkpt lat="49.49682" lon="-1.83938">
        <ele>10.2</ele>
        <time>2020-06-14T17:15:10Z</time>
      </trkpt>
      <trkpt lat="49.49682" lon="-1.83948">
        <ele>10.1</ele>
        <time>2020-06-14T17:15:11Z</time>
      </trkpt>
      <trkpt lat="49.49683" lon="-1.83958">
        <ele>10.1</ele>
        <time>2020-06-14T17:15:12Z</time>
      </trkpt>
      <trkpt lat="49.49685" lon="-1.83969">
        <ele>10.1</ele>
        <time>2020-06-14T17:15:13Z</time>
      </trkpt>
      <trkpt lat="49.49686" lon="-1.83979">
        <ele>10.1</ele>
        <time>2020-06-14T17:15:14Z</time>
      </trkpt>
      <trkpt lat="49.49688" lon="-1.83989">
        <ele>10.1</ele>
        <time>2020-06-14T17:15:15Z</time>
      </trkpt>
      <trkpt lat="49.4969" lon="-1.83999">
        <ele>10.1</ele>
        <time>2020-06-14T17:15:16Z</time>
      </trkpt>
      <trkpt lat="49.49693" lon="-1.84008">
        <ele>10.1</ele>
        <time>2020-06-14T17:15:17Z</time>
      </trkpt>
      <trkpt lat="49.49695" lon="-1.84018">
        <ele>10.1</ele>
        <time>2020-06-14T17:15:18Z</time>
      </trkpt>
      <trkpt lat="49.49697" lon="-1.84027">
        <ele>10.1</ele>
        <time>2020-06-14T17:15:19Z</time>
      </trkpt>
      <trkpt lat="49.497" lon="-1.84036">
        <ele>10</ele>
        <time>2020-06-14T17:15:20Z</time>
      </trkpt>
      <trkpt lat="49.49703" lon="-1.84045">
        <ele>10</ele>
        <time>2020-06-14T17:15:21Z</time>
      </trkpt>
      <trkpt lat="49.49705" lon="-1.84055">
        <ele>10</ele>
        <time>2020-06-14T17:15:22Z</time>
      </trkpt>
      <trkpt lat="49.49709" lon="-1.84063">
        <ele>10</ele>
        <time>2020-06-14T17:15:23Z</time>
      </trkpt>
      <trkpt lat="49.49713" lon="-1.84071">
        <ele>10</ele>
        <time>2020-06-14T17:15:24Z</time>
      </trkpt>
      <trkpt lat="49.49716" lon="-1.84078">
        <ele>10</ele>
        <time>2020-06-14T17:15:25Z</time>
      </trkpt>
      <trkpt lat="49.4972" lon="-1.84087">
        <ele>10</ele>
        <time>2020-06-14T17:15:26Z</time>
      </trkpt>
      <trkpt lat="49.49723" lon="-1.84095">
        <ele>10</ele>
        <time>2020-06-14T17:15:27Z</time>
      </trkpt>
      <trkpt lat="49.49726" lon="-1.84103">
        <ele>9.9</ele>
        <time>2020-06-14T17:15:28Z</time>
      </trkpt>
      <trkpt lat="49.4973" lon="-1.84111">
        <ele>9.8</ele>
        <time>2020-06-14T17:15:29Z</time>
      </trkpt>
      <trkpt lat="49.49734" lon="-1.84119">
        <ele>9.8</ele>
        <time>2020-06-14T17:15:30Z</time>
      </trkpt>
      <trkpt lat="49.49738" lon="-1.84126">
        <ele>9.7</ele>
        <time>2020-06-14T17:15:31Z</time>
      </trkpt>
      <trkpt lat="49.49742" lon="-1.84134">
        <ele>9.7</ele>
        <time>2020-06-14T17:15:32Z</time>
      </trkpt>
      <trkpt lat="49.49746" lon="-1.84142">
        <ele>9.6</ele>
        <time>2020-06-14T17:15:33Z</time>
      </trkpt>
      <trkpt lat="49.49749" lon="-1.8415">
        <ele>9.5</ele>
        <time>2020-06-14T17:15:34Z</time>
      </trkpt>
      <trkpt lat="49.49753" lon="-1.84158">
        <ele>9.5</ele>
        <time>2020-06-14T17:15:35Z</time>
      </trkpt>
      <trkpt lat="49.49759" lon="-1.84165">
        <ele>9.4</ele>
        <time>2020-06-14T17:15:36Z</time>
      </trkpt>
      <trkpt lat="49.49764" lon="-1.84172">
        <ele>9.3</ele>
        <time>2020-06-14T17:15:37Z</time>
      </trkpt>
      <trkpt lat="49.49769" lon="-1.8418">
        <ele>9.3</ele>
        <time>2020-06-14T17:15:38Z</time>
      </trkpt>
      <trkpt lat="49.49774" lon="-1.84187">
        <ele>9.2</ele>
        <time>2020-06-14T17:15:39Z</time>
      </trkpt>
      <trkpt lat="49.4978" lon="-1.84192">
        <ele>9.2</ele>
        <time>2020-06-14T17:15:40Z</time>
      </trkpt>
      <trkpt lat="49.49785" lon="-1.84198">
        <ele>9.1</ele>
        <time>2020-06-14T17:15:41Z</time>
      </trkpt>
      <trkpt lat="49.49791" lon="-1.84204">
        <ele>9.1</ele>
        <time>2020-06-14T17:15:42Z</time>
      </trkpt>
      <trkpt lat="49.49797" lon="-1.84209">
        <ele>9</ele>
        <time>2020-06-14T17:15:43Z</time>
      </trkpt>
      <trkpt lat="49.49802" lon="-1.84214">
        <ele>8.9</ele>
        <time>2020-06-14T17:15:44Z</time>
      </trkpt>
      <trkpt lat="49.49808" lon="-1.8422">
        <ele>8.8</ele>
        <time>2020-06-14T17:15:45Z</time>
      </trkpt>
      <trkpt lat="49.49814" lon="-1.84224">
        <ele>8.8</ele>
        <time>2020-06-14T17:15:46Z</time>
      </trkpt>
      <trkpt lat="49.49819" lon="-1.84228">
        <ele>8.7</ele>
        <time>2020-06-14T17:15:47Z</time>
      </trkpt>
      <trkpt lat="49.49825" lon="-1.84233">
        <ele>8.7</ele>
        <time>2020-06-14T17:15:48Z</time>
      </trkpt>
      <trkpt lat="49.4983" lon="-1.84238">
        <ele>8.7</ele>
        <time>2020-06-14T17:15:49Z</time>
      </trkpt>
      <trkpt lat="49.49836" lon="-1.84244">
        <ele>8.7</ele>
        <time>2020-06-14T17:15:50Z</time>
      </trkpt>
      <trkpt lat="49.49841" lon="-1.84249">
        <ele>8.7</ele>
        <time>2020-06-14T17:15:51Z</time>
      </trkpt>
      <trkpt lat="49.49846" lon="-1.84254">
        <ele>8.7</ele>
        <time>2020-06-14T17:15:52Z</time>
      </trkpt>
      <trkpt lat="49.49851" lon="-1.8426">
        <ele>8.7</ele>
        <time>2020-06-14T17:15:53Z</time>
      </trkpt>
      <trkpt lat="49.49856" lon="-1.84266">
        <ele>8.8</ele>
        <time>2020-06-14T17:15:54Z</time>
      </trkpt>
      <trkpt lat="49.49861" lon="-1.84271">
        <ele>8.8</ele>
        <time>2020-06-14T17:15:55Z</time>
      </trkpt>
      <trkpt lat="49.49866" lon="-1.84277">
        <ele>8.9</ele>
        <time>2020-06-14T17:15:56Z</time>
      </trkpt>
      <trkpt lat="49.49871" lon="-1.84284">
        <ele>8.9</ele>
        <time>2020-06-14T17:15:57Z</time>
      </trkpt>
      <trkpt lat="49.49876" lon="-1.8429">
        <ele>8.9</ele>
        <time>2020-06-14T17:15:58Z</time>
      </trkpt>
      <trkpt lat="49.4988" lon="-1.84297">
        <ele>9</ele>
        <time>2020-06-14T17:15:59Z</time>
      </trkpt>
      <trkpt lat="49.49884" lon="-1.84304">
        <ele>9</ele>
        <time>2020-06-14T17:16:00Z</time>
      </trkpt>
      <trkpt lat="49.49889" lon="-1.8431">
        <ele>9</ele>
        <time>2020-06-14T17:16:01Z</time>
      </trkpt>
      <trkpt lat="49.49893" lon="-1.84317">
        <ele>9</ele>
        <time>2020-06-14T17:16:02Z</time>
      </trkpt>
      <trkpt lat="49.49898" lon="-1.84324">
        <ele>9</ele>
        <time>2020-06-14T17:16:03Z</time>
      </trkpt>
      <trkpt lat="49.49902" lon="-1.8433">
        <ele>9.1</ele>
        <time>2020-06-14T17:16:04Z</time>
      </trkpt>
      <trkpt lat="49.49906" lon="-1.84337">
        <ele>9.1</ele>
        <time>2020-06-14T17:16:05Z</time>
      </trkpt>
      <trkpt lat="49.49911" lon="-1.84344">
        <ele>9.1</ele>
        <time>2020-06-14T17:16:06Z</time>
      </trkpt>
      <trkpt lat="49.49916" lon="-1.84349">
        <ele>9.1</ele>
        <time>2020-06-14T17:16:07Z</time>
      </trkpt>
      <trkpt lat="49.4992" lon="-1.84355">
        <ele>9.1</ele>
        <time>2020-06-14T17:16:08Z</time>
      </trkpt>
      <trkpt lat="49.49925" lon="-1.84361">
        <ele>9.1</ele>
        <time>2020-06-14T17:16:09Z</time>
      </trkpt>
      <trkpt lat="49.49929" lon="-1.84368">
        <ele>9.1</ele>
        <time>2020-06-14T17:16:10Z</time>
      </trkpt>
      <trkpt lat="49.49934" lon="-1.84373">
        <ele>9.1</ele>
        <time>2020-06-14T17:16:11Z</time>
      </trkpt>
      <trkpt lat="49.49939" lon="-1.84377">
        <ele>9.1</ele>
        <time>2020-06-14T17:16:12Z</time>
      </trkpt>
      <trkpt lat="49.49944" lon="-1.84382">
        <ele>9.1</ele>
        <time>2020-06-14T17:16:13Z</time>
      </trkpt>
      <trkpt lat="49.4995" lon="-1.84385">
        <ele>9.1</ele>
        <time>2020-06-14T17:16:14Z</time>
      </trkpt>
      <trkpt lat="49.49955" lon="-1.84389">
        <ele>9.1</ele>
        <time>2020-06-14T17:16:15Z</time>
      </trkpt>
      <trkpt lat="49.49961" lon="-1.84393">
        <ele>9.1</ele>
        <time>2020-06-14T17:16:16Z</time>
      </trkpt>
      <trkpt lat="49.49966" lon="-1.84396">
        <ele>9.1</ele>
        <time>2020-06-14T17:16:17Z</time>
      </trkpt>
      <trkpt lat="49.49971" lon="-1.844">
        <ele>9.1</ele>
        <time>2020-06-14T17:16:18Z</time>
      </trkpt>
      <trkpt lat="49.49976" lon="-1.84404">
        <ele>9.1</ele>
        <time>2020-06-14T17:16:19Z</time>
      </trkpt>
      <trkpt lat="49.49981" lon="-1.84409">
        <ele>9.1</ele>
        <time>2020-06-14T17:16:20Z</time>
      </trkpt>
      <trkpt lat="49.49986" lon="-1.84414">
        <ele>9.1</ele>
        <time>2020-06-14T17:16:21Z</time>
      </trkpt>
      <trkpt lat="49.49991" lon="-1.84417">
        <ele>9.1</ele>
        <time>2020-06-14T17:16:22Z</time>
      </trkpt>
      <trkpt lat="49.49997" lon="-1.84421">
        <ele>9</ele>
        <time>2020-06-14T17:16:23Z</time>
      </trkpt>
      <trkpt lat="49.50002" lon="-1.84425">
        <ele>9</ele>
        <time>2020-06-14T17:16:24Z</time>
      </trkpt>
      <trkpt lat="49.50008" lon="-1.8443">
        <ele>9</ele>
        <time>2020-06-14T17:16:25Z</time>
      </trkpt>
      <trkpt lat="49.50013" lon="-1.84435">
        <ele>9.1</ele>
        <time>2020-06-14T17:16:26Z</time>
      </trkpt>
      <trkpt lat="49.50017" lon="-1.84441">
        <ele>9.1</ele>
        <time>2020-06-14T17:16:27Z</time>
      </trkpt>
      <trkpt lat="49.50023" lon="-1.84445">
        <ele>9.1</ele>
        <time>2020-06-14T17:16:28Z</time>
      </trkpt>
      <trkpt lat="49.50028" lon="-1.8445">
        <ele>9.1</ele>
        <time>2020-06-14T17:16:29Z</time>
      </trkpt>
      <trkpt lat="49.50031" lon="-1.84457">
        <ele>9.1</ele>
        <time>2020-06-14T17:16:30Z</time>
      </trkpt>
      <trkpt lat="49.50036" lon="-1.84463">
        <ele>9.2</ele>
        <time>2020-06-14T17:16:31Z</time>
      </trkpt>
      <trkpt lat="49.50041" lon="-1.84468">
        <ele>9.2</ele>
        <time>2020-06-14T17:16:32Z</time>
      </trkpt>
      <trkpt lat="49.50046" lon="-1.84474">
        <ele>9.2</ele>
        <time>2020-06-14T17:16:33Z</time>
      </trkpt>
      <trkpt lat="49.5005" lon="-1.84479">
        <ele>9.3</ele>
        <time>2020-06-14T17:16:34Z</time>
      </trkpt>
      <trkpt lat="49.50055" lon="-1.84486">
        <ele>9.3</ele>
        <time>2020-06-14T17:16:35Z</time>
      </trkpt>
      <trkpt lat="49.5006" lon="-1.84491">
        <ele>9.3</ele>
        <time>2020-06-14T17:16:36Z</time>
      </trkpt>
      <trkpt lat="49.50064" lon="-1.84497">
        <ele>9.3</ele>
        <time>2020-06-14T17:16:37Z</time>
      </trkpt>
      <trkpt lat="49.5007" lon="-1.84502">
        <ele>9.4</ele>
        <time>2020-06-14T17:16:38Z</time>
      </trkpt>
      <trkpt lat="49.50075" lon="-1.84508">
        <ele>9.5</ele>
        <time>2020-06-14T17:16:39Z</time>
      </trkpt>
      <trkpt lat="49.5008" lon="-1.84512">
        <ele>9.6</ele>
        <time>2020-06-14T17:16:40Z</time>
      </trkpt>
      <trkpt lat="49.50087" lon="-1.84514">
        <ele>9.7</ele>
        <time>2020-06-14T17:16:41Z</time>
      </trkpt>
      <trkpt lat="49.50093" lon="-1.84517">
        <ele>9.7</ele>
        <time>2020-06-14T17:16:42Z</time>
      </trkpt>
      <trkpt lat="49.50098" lon="-1.8452">
        <ele>9.8</ele>
        <time>2020-06-14T17:16:43Z</time>
      </trkpt>
      <trkpt lat="49.50103" lon="-1.84525">
        <ele>9.8</ele>
        <time>2020-06-14T17:16:44Z</time>
      </trkpt>
      <trkpt lat="49.50108" lon="-1.84529">
        <ele>9.9</ele>
        <time>2020-06-14T17:16:45Z</time>
      </trkpt>
      <trkpt lat="49.50113" lon="-1.84534">
        <ele>9.9</ele>
        <time>2020-06-14T17:16:46Z</time>
      </trkpt>
      <trkpt lat="49.50117" lon="-1.84538">
        <ele>10</ele>
        <time>2020-06-14T17:16:47Z</time>
      </trkpt>
      <trkpt lat="49.50122" lon="-1.84542">
        <ele>10</ele>
        <time>2020-06-14T17:16:48Z</time>
      </trkpt>
      <trkpt lat="49.50127" lon="-1.84546">
        <ele>10.1</ele>
        <time>2020-06-14T17:16:49Z</time>
      </trkpt>
      <trkpt lat="49.50132" lon="-1.84549">
        <ele>10</ele>
        <time>2020-06-14T17:16:50Z</time>
      </trkpt>
      <trkpt lat="49.50136" lon="-1.84553">
        <ele>10</ele>
        <time>2020-06-14T17:16:51Z</time>
      </trkpt>
      <trkpt lat="49.50141" lon="-1.84556">
        <ele>9.9</ele>
        <time>2020-06-14T17:16:52Z</time>
      </trkpt>
      <trkpt lat="49.50146" lon="-1.84561">
        <ele>9.9</ele>
        <time>2020-06-14T17:16:53Z</time>
      </trkpt>
      <trkpt lat="49.50151" lon="-1.84565">
        <ele>9.8</ele>
        <time>2020-06-14T17:16:54Z</time>
      </trkpt>
      <trkpt lat="49.50156" lon="-1.84569">
        <ele>9.8</ele>
        <time>2020-06-14T17:16:55Z</time>
      </trkpt>
      <trkpt lat="49.50162" lon="-1.84573">
        <ele>9.7</ele>
        <time>2020-06-14T17:16:56Z</time>
      </trkpt>
      <trkpt lat="49.50167" lon="-1.84577">
        <ele>9.7</ele>
        <time>2020-06-14T17:16:57Z</time>
      </trkpt>
      <trkpt lat="49.50172" lon="-1.84581">
        <ele>9.7</ele>
        <time>2020-06-14T17:16:58Z</time>
      </trkpt>
      <trkpt lat="49.50178" lon="-1.84585">
        <ele>9.7</ele>
        <time>2020-06-14T17:16:59Z</time>
      </trkpt>
      <trkpt lat="49.50183" lon="-1.84587">
        <ele>9.6</ele>
        <time>2020-06-14T17:17:00Z</time>
      </trkpt>
      <trkpt lat="49.50189" lon="-1.8459">
        <ele>9.6</ele>
        <time>2020-06-14T17:17:01Z</time>
      </trkpt>
      <trkpt lat="49.50194" lon="-1.84593">
        <ele>9.6</ele>
        <time>2020-06-14T17:17:02Z</time>
      </trkpt>
      <trkpt lat="49.50199" lon="-1.84596">
        <ele>9.6</ele>
        <time>2020-06-14T17:17:03Z</time>
      </trkpt>
      <trkpt lat="49.50205" lon="-1.846">
        <ele>9.6</ele>
        <time>2020-06-14T17:17:04Z</time>
      </trkpt>
      <trkpt lat="49.5021" lon="-1.84603">
        <ele>9.5</ele>
        <time>2020-06-14T17:17:05Z</time>
      </trkpt>
      <trkpt lat="49.50216" lon="-1.84606">
        <ele>9.5</ele>
        <time>2020-06-14T17:17:06Z</time>
      </trkpt>
      <trkpt lat="49.50221" lon="-1.8461">
        <ele>9.5</ele>
        <time>2020-06-14T17:17:07Z</time>
      </trkpt>
      <trkpt lat="49.50227" lon="-1.84611">
        <ele>9.5</ele>
        <time>2020-06-14T17:17:08Z</time>
      </trkpt>
      <trkpt lat="49.50232" lon="-1.84614">
        <ele>9.5</ele>
        <time>2020-06-14T17:17:09Z</time>
      </trkpt>
      <trkpt lat="49.50238" lon="-1.84614">
        <ele>9.5</ele>
        <time>2020-06-14T17:17:10Z</time>
      </trkpt>
      <trkpt lat="49.50244" lon="-1.84614">
        <ele>9.6</ele>
        <time>2020-06-14T17:17:11Z</time>
      </trkpt>
      <trkpt lat="49.5025" lon="-1.84614">
        <ele>9.6</ele>
        <time>2020-06-14T17:17:12Z</time>
      </trkpt>
      <trkpt lat="49.50256" lon="-1.84614">
        <ele>9.7</ele>
        <time>2020-06-14T17:17:13Z</time>
      </trkpt>
      <trkpt lat="49.50262" lon="-1.84613">
        <ele>9.7</ele>
        <time>2020-06-14T17:17:14Z</time>
      </trkpt>
      <trkpt lat="49.50267" lon="-1.84612">
        <ele>9.8</ele>
        <time>2020-06-14T17:17:15Z</time>
      </trkpt>
      <trkpt lat="49.50272" lon="-1.84613">
        <ele>9.8</ele>
        <time>2020-06-14T17:17:16Z</time>
      </trkpt>
      <trkpt lat="49.50277" lon="-1.84613">
        <ele>9.9</ele>
        <time>2020-06-14T17:17:17Z</time>
      </trkpt>
      <trkpt lat="49.50283" lon="-1.84612">
        <ele>10</ele>
        <time>2020-06-14T17:17:18Z</time>
      </trkpt>
      <trkpt lat="49.50288" lon="-1.84612">
        <ele>10</ele>
        <time>2020-06-14T17:17:19Z</time>
      </trkpt>
      <trkpt lat="49.50293" lon="-1.84613">
        <ele>10.1</ele>
        <time>2020-06-14T17:17:20Z</time>
      </trkpt>
      <trkpt lat="49.50299" lon="-1.84613">
        <ele>10.2</ele>
        <time>2020-06-14T17:17:21Z</time>
      </trkpt>
      <trkpt lat="49.50304" lon="-1.84614">
        <ele>10.2</ele>
        <time>2020-06-14T17:17:22Z</time>
      </trkpt>
      <trkpt lat="49.50309" lon="-1.84616">
        <ele>10.3</ele>
        <time>2020-06-14T17:17:23Z</time>
      </trkpt>
      <trkpt lat="49.50314" lon="-1.84616">
        <ele>10.4</ele>
        <time>2020-06-14T17:17:24Z</time>
      </trkpt>
      <trkpt lat="49.50319" lon="-1.84617">
        <ele>10.5</ele>
        <time>2020-06-14T17:17:25Z</time>
      </trkpt>
      <trkpt lat="49.50325" lon="-1.84619">
        <ele>10.5</ele>
        <time>2020-06-14T17:17:26Z</time>
      </trkpt>
      <trkpt lat="49.5033" lon="-1.84621">
        <ele>10.6</ele>
        <time>2020-06-14T17:17:27Z</time>
      </trkpt>
      <trkpt lat="49.50335" lon="-1.84624">
        <ele>10.7</ele>
        <time>2020-06-14T17:17:28Z</time>
      </trkpt>
      <trkpt lat="49.5034" lon="-1.84625">
        <ele>10.8</ele>
        <time>2020-06-14T17:17:29Z</time>
      </trkpt>
      <trkpt lat="49.50345" lon="-1.84627">
        <ele>10.8</ele>
        <time>2020-06-14T17:17:30Z</time>
      </trkpt>
      <trkpt lat="49.5035" lon="-1.8463">
        <ele>10.9</ele>
        <time>2020-06-14T17:17:31Z</time>
      </trkpt>
      <trkpt lat="49.50355" lon="-1.84633">
        <ele>10.9</ele>
        <time>2020-06-14T17:17:32Z</time>
      </trkpt>
      <trkpt lat="49.5036" lon="-1.84635">
        <ele>10.9</ele>
        <time>2020-06-14T17:17:33Z</time>
      </trkpt>
      <trkpt lat="49.50365" lon="-1.84638">
        <ele>11</ele>
        <time>2020-06-14T17:17:34Z</time>
      </trkpt>
      <trkpt lat="49.5037" lon="-1.84641">
        <ele>11</ele>
        <time>2020-06-14T17:17:35Z</time>
      </trkpt>
      <trkpt lat="49.50375" lon="-1.84642">
        <ele>11.1</ele>
        <time>2020-06-14T17:17:36Z</time>
      </trkpt>
      <trkpt lat="49.5038" lon="-1.84644">
        <ele>11.2</ele>
        <time>2020-06-14T17:17:37Z</time>
      </trkpt>
      <trkpt lat="49.50386" lon="-1.84645">
        <ele>11.3</ele>
        <time>2020-06-14T17:17:38Z</time>
      </trkpt>
      <trkpt lat="49.50391" lon="-1.84645">
        <ele>11.3</ele>
        <time>2020-06-14T17:17:39Z</time>
      </trkpt>
      <trkpt lat="49.50396" lon="-1.84645">
        <ele>11.4</ele>
        <time>2020-06-14T17:17:40Z</time>
      </trkpt>
      <trkpt lat="49.50402" lon="-1.84646">
        <ele>11.4</ele>
        <time>2020-06-14T17:17:41Z</time>
      </trkpt>
      <trkpt lat="49.50407" lon="-1.84648">
        <ele>11.5</ele>
        <time>2020-06-14T17:17:42Z</time>
      </trkpt>
      <trkpt lat="49.50412" lon="-1.84647">
        <ele>11.5</ele>
        <time>2020-06-14T17:17:43Z</time>
      </trkpt>
      <trkpt lat="49.50417" lon="-1.84647">
        <ele>11.6</ele>
        <time>2020-06-14T17:17:44Z</time>
      </trkpt>
      <trkpt lat="49.50421" lon="-1.84646">
        <ele>11.7</ele>
        <time>2020-06-14T17:17:45Z</time>
      </trkpt>
      <trkpt lat="49.50426" lon="-1.84646">
        <ele>11.7</ele>
        <time>2020-06-14T17:17:46Z</time>
      </trkpt>
      <trkpt lat="49.5043" lon="-1.84645">
        <ele>11.8</ele>
        <time>2020-06-14T17:17:47Z</time>
      </trkpt>
      <trkpt lat="49.50435" lon="-1.84645">
        <ele>11.8</ele>
        <time>2020-06-14T17:17:48Z</time>
      </trkpt>
      <trkpt lat="49.50439" lon="-1.84643">
        <ele>11.8</ele>
        <time>2020-06-14T17:17:49Z</time>
      </trkpt>
      <trkpt lat="49.50443" lon="-1.84643">
        <ele>11.9</ele>
        <time>2020-06-14T17:17:50Z</time>
      </trkpt>
      <trkpt lat="49.50447" lon="-1.84643">
        <ele>11.9</ele>
        <time>2020-06-14T17:17:51Z</time>
      </trkpt>
      <trkpt lat="49.50452" lon="-1.84642">
        <ele>12</ele>
        <time>2020-06-14T17:17:52Z</time>
      </trkpt>
      <trkpt lat="49.50456" lon="-1.84643">
        <ele>12</ele>
        <time>2020-06-14T17:17:53Z</time>
      </trkpt>
      <trkpt lat="49.50461" lon="-1.84643">
        <ele>12</ele>
        <time>2020-06-14T17:17:54Z</time>
      </trkpt>
      <trkpt lat="49.50466" lon="-1.84643">
        <ele>12.1</ele>
        <time>2020-06-14T17:17:55Z</time>
      </trkpt>
      <trkpt lat="49.50472" lon="-1.84643">
        <ele>12.2</ele>
        <time>2020-06-14T17:17:56Z</time>
      </trkpt>
      <trkpt lat="49.50478" lon="-1.84644">
        <ele>12.3</ele>
        <time>2020-06-14T17:17:57Z</time>
      </trkpt>
      <trkpt lat="49.50483" lon="-1.84646">
        <ele>12.4</ele>
        <time>2020-06-14T17:17:58Z</time>
      </trkpt>
      <trkpt lat="49.50488" lon="-1.84648">
        <ele>12.5</ele>
        <time>2020-06-14T17:17:59Z</time>
      </trkpt>
      <trkpt lat="49.50493" lon="-1.84649">
        <ele>12.6</ele>
        <time>2020-06-14T17:18:00Z</time>
      </trkpt>
      <trkpt lat="49.50498" lon="-1.84651">
        <ele>12.7</ele>
        <time>2020-06-14T17:18:01Z</time>
      </trkpt>
      <trkpt lat="49.50502" lon="-1.84652">
        <ele>12.9</ele>
        <time>2020-06-14T17:18:02Z</time>
      </trkpt>
      <trkpt lat="49.50507" lon="-1.84654">
        <ele>13</ele>
        <time>2020-06-14T17:18:03Z</time>
      </trkpt>
      <trkpt lat="49.50512" lon="-1.84655">
        <ele>13.1</ele>
        <time>2020-06-14T17:18:04Z</time>
      </trkpt>
      <trkpt lat="49.50516" lon="-1.84657">
        <ele>13.2</ele>
        <time>2020-06-14T17:18:05Z</time>
      </trkpt>
      <trkpt lat="49.5052" lon="-1.84659">
        <ele>13.3</ele>
        <time>2020-06-14T17:18:06Z</time>
      </trkpt>
      <trkpt lat="49.50524" lon="-1.8466">
        <ele>13.3</ele>
        <time>2020-06-14T17:18:07Z</time>
      </trkpt>
      <trkpt lat="49.50528" lon="-1.84661">
        <ele>13.4</ele>
        <time>2020-06-14T17:18:08Z</time>
      </trkpt>
      <trkpt lat="49.50531" lon="-1.84663">
        <ele>13.5</ele>
        <time>2020-06-14T17:18:09Z</time>
      </trkpt>
      <trkpt lat="49.50535" lon="-1.84663">
        <ele>13.6</ele>
        <time>2020-06-14T17:18:10Z</time>
      </trkpt>
      <trkpt lat="49.50539" lon="-1.84663">
        <ele>13.7</ele>
        <time>2020-06-14T17:18:11Z</time>
      </trkpt>
      <trkpt lat="49.50543" lon="-1.84663">
        <ele>13.8</ele>
        <time>2020-06-14T17:18:12Z</time>
      </trkpt>
      <trkpt lat="49.50547" lon="-1.84662">
        <ele>13.9</ele>
        <time>2020-06-14T17:18:13Z</time>
      </trkpt>
      <trkpt lat="49.50551" lon="-1.84661">
        <ele>14</ele>
        <time>2020-06-14T17:18:14Z</time>
      </trkpt>
      <trkpt lat="49.50555" lon="-1.8466">
        <ele>14</ele>
        <time>2020-06-14T17:18:15Z</time>
      </trkpt>
      <trkpt lat="49.50558" lon="-1.84659">
        <ele>14.3</ele>
        <time>2020-06-14T17:18:16Z</time>
      </trkpt>
      <trkpt lat="49.50563" lon="-1.84658">
        <ele>14.4</ele>
        <time>2020-06-14T17:18:17Z</time>
      </trkpt>
      <trkpt lat="49.50567" lon="-1.84656">
        <ele>14.6</ele>
        <time>2020-06-14T17:18:18Z</time>
      </trkpt>
      <trkpt lat="49.5057" lon="-1.84655">
        <ele>14.7</ele>
        <time>2020-06-14T17:18:19Z</time>
      </trkpt>
      <trkpt lat="49.50574" lon="-1.84653">
        <ele>14.8</ele>
        <time>2020-06-14T17:18:20Z</time>
      </trkpt>
      <trkpt lat="49.50577" lon="-1.84652">
        <ele>15</ele>
        <time>2020-06-14T17:18:21Z</time>
      </trkpt>
      <trkpt lat="49.50581" lon="-1.84651">
        <ele>15.1</ele>
        <time>2020-06-14T17:18:22Z</time>
      </trkpt>
      <trkpt lat="49.50584" lon="-1.8465">
        <ele>15.2</ele>
        <time>2020-06-14T17:18:23Z</time>
      </trkpt>
      <trkpt lat="49.50587" lon="-1.84648">
        <ele>15.3</ele>
        <time>2020-06-14T17:18:24Z</time>
      </trkpt>
      <trkpt lat="49.5059" lon="-1.84646">
        <ele>15.5</ele>
        <time>2020-06-14T17:18:25Z</time>
      </trkpt>
      <trkpt lat="49.50594" lon="-1.84645">
        <ele>15.6</ele>
        <time>2020-06-14T17:18:26Z</time>
      </trkpt>
      <trkpt lat="49.50597" lon="-1.84643">
        <ele>15.7</ele>
        <time>2020-06-14T17:18:27Z</time>
      </trkpt>
      <trkpt lat="49.50599" lon="-1.84641">
        <ele>15.9</ele>
        <time>2020-06-14T17:18:28Z</time>
      </trkpt>
      <trkpt lat="49.50603" lon="-1.8464">
        <ele>16</ele>
        <time>2020-06-14T17:18:29Z</time>
      </trkpt>
      <trkpt lat="49.50606" lon="-1.84639">
        <ele>16.1</ele>
        <time>2020-06-14T17:18:30Z</time>
      </trkpt>
      <trkpt lat="49.50609" lon="-1.84637">
        <ele>16.3</ele>
        <time>2020-06-14T17:18:31Z</time>
      </trkpt>
      <trkpt lat="49.50613" lon="-1.84636">
        <ele>16.4</ele>
        <time>2020-06-14T17:18:32Z</time>
      </trkpt>
      <trkpt lat="49.50616" lon="-1.84635">
        <ele>16.6</ele>
        <time>2020-06-14T17:18:33Z</time>
      </trkpt>
      <trkpt lat="49.50619" lon="-1.84636">
        <ele>16.7</ele>
        <time>2020-06-14T17:18:34Z</time>
      </trkpt>
      <trkpt lat="49.50623" lon="-1.84638">
        <ele>16.8</ele>
        <time>2020-06-14T17:18:35Z</time>
      </trkpt>
      <trkpt lat="49.50626" lon="-1.8464">
        <ele>16.8</ele>
        <time>2020-06-14T17:18:36Z</time>
      </trkpt>
      <trkpt lat="49.5063" lon="-1.84643">
        <ele>16.9</ele>
        <time>2020-06-14T17:18:37Z</time>
      </trkpt>
      <trkpt lat="49.50634" lon="-1.84645">
        <ele>16.9</ele>
        <time>2020-06-14T17:18:38Z</time>
      </trkpt>
      <trkpt lat="49.50637" lon="-1.84647">
        <ele>16.9</ele>
        <time>2020-06-14T17:18:39Z</time>
      </trkpt>
      <trkpt lat="49.50641" lon="-1.84648">
        <ele>16.9</ele>
        <time>2020-06-14T17:18:40Z</time>
      </trkpt>
      <trkpt lat="49.50645" lon="-1.8465">
        <ele>16.9</ele>
        <time>2020-06-14T17:18:41Z</time>
      </trkpt>
      <trkpt lat="49.50648" lon="-1.84654">
        <ele>16.9</ele>
        <time>2020-06-14T17:18:42Z</time>
      </trkpt>
      <trkpt lat="49.50652" lon="-1.84658">
        <ele>17</ele>
        <time>2020-06-14T17:18:43Z</time>
      </trkpt>
      <trkpt lat="49.50656" lon="-1.8466">
        <ele>17</ele>
        <time>2020-06-14T17:18:44Z</time>
      </trkpt>
      <trkpt lat="49.5066" lon="-1.84662">
        <ele>17.1</ele>
        <time>2020-06-14T17:18:45Z</time>
      </trkpt>
      <trkpt lat="49.50664" lon="-1.84663">
        <ele>17.2</ele>
        <time>2020-06-14T17:18:46Z</time>
      </trkpt>
      <trkpt lat="49.50667" lon="-1.84664">
        <ele>17.3</ele>
        <time>2020-06-14T17:18:47Z</time>
      </trkpt>
      <trkpt lat="49.50671" lon="-1.84664">
        <ele>17.4</ele>
        <time>2020-06-14T17:18:48Z</time>
      </trkpt>
      <trkpt lat="49.50674" lon="-1.84666">
        <ele>17.6</ele>
        <time>2020-06-14T17:18:49Z</time>
      </trkpt>
      <trkpt lat="49.50677" lon="-1.84665">
        <ele>17.7</ele>
        <time>2020-06-14T17:18:50Z</time>
      </trkpt>
      <trkpt lat="49.50681" lon="-1.84664">
        <ele>17.9</ele>
        <time>2020-06-14T17:18:51Z</time>
      </trkpt>
      <trkpt lat="49.50684" lon="-1.84663">
        <ele>18.1</ele>
        <time>2020-06-14T17:18:52Z</time>
      </trkpt>
      <trkpt lat="49.50687" lon="-1.84662">
        <ele>18.6</ele>
        <time>2020-06-14T17:18:53Z</time>
      </trkpt>
      <trkpt lat="49.50689" lon="-1.84658">
        <ele>18.8</ele>
        <time>2020-06-14T17:18:54Z</time>
      </trkpt>
      <trkpt lat="49.50692" lon="-1.84657">
        <ele>18.9</ele>
        <time>2020-06-14T17:18:55Z</time>
      </trkpt>
      <trkpt lat="49.50696" lon="-1.84654">
        <ele>19.1</ele>
        <time>2020-06-14T17:18:56Z</time>
      </trkpt>
      <trkpt lat="49.50697" lon="-1.84654">
        <ele>19.2</ele>
        <time>2020-06-14T17:18:57Z</time>
      </trkpt>
      <trkpt lat="49.507" lon="-1.84652">
        <ele>19.4</ele>
        <time>2020-06-14T17:18:58Z</time>
      </trkpt>
      <trkpt lat="49.50703" lon="-1.8465">
        <ele>19.6</ele>
        <time>2020-06-14T17:18:59Z</time>
      </trkpt>
      <trkpt lat="49.50705" lon="-1.84649">
        <ele>19.7</ele>
        <time>2020-06-14T17:19:00Z</time>
      </trkpt>
      <trkpt lat="49.50707" lon="-1.84646">
        <ele>19.8</ele>
        <time>2020-06-14T17:19:01Z</time>
      </trkpt>
      <trkpt lat="49.5071" lon="-1.84644">
        <ele>20</ele>
        <time>2020-06-14T17:19:02Z</time>
      </trkpt>
      <trkpt lat="49.50713" lon="-1.84644">
        <ele>20.2</ele>
        <time>2020-06-14T17:19:03Z</time>
      </trkpt>
      <trkpt lat="49.50715" lon="-1.84644">
        <ele>20.3</ele>
        <time>2020-06-14T17:19:04Z</time>
      </trkpt>
      <trkpt lat="49.50718" lon="-1.84643">
        <ele>20.5</ele>
        <time>2020-06-14T17:19:05Z</time>
      </trkpt>
      <trkpt lat="49.5072" lon="-1.84643">
        <ele>20.6</ele>
        <time>2020-06-14T17:19:06Z</time>
      </trkpt>
      <trkpt lat="49.50724" lon="-1.84641">
        <ele>20.8</ele>
        <time>2020-06-14T17:19:07Z</time>
      </trkpt>
      <trkpt lat="49.50725" lon="-1.8464">
        <ele>20.9</ele>
        <time>2020-06-14T17:19:08Z</time>
      </trkpt>
      <trkpt lat="49.50728" lon="-1.84639">
        <ele>21.1</ele>
        <time>2020-06-14T17:19:09Z</time>
      </trkpt>
      <trkpt lat="49.5073" lon="-1.84638">
        <ele>21.3</ele>
        <time>2020-06-14T17:19:10Z</time>
      </trkpt>
      <trkpt lat="49.50734" lon="-1.84637">
        <ele>21.6</ele>
        <time>2020-06-14T17:19:11Z</time>
      </trkpt>
      <trkpt lat="49.50736" lon="-1.84637">
        <ele>21.7</ele>
        <time>2020-06-14T17:19:12Z</time>
      </trkpt>
      <trkpt lat="49.50739" lon="-1.84637">
        <ele>21.9</ele>
        <time>2020-06-14T17:19:13Z</time>
      </trkpt>
      <trkpt lat="49.50741" lon="-1.84636">
        <ele>22.1</ele>
        <time>2020-06-14T17:19:14Z</time>
      </trkpt>
      <trkpt lat="49.50744" lon="-1.84635">
        <ele>22.4</ele>
        <time>2020-06-14T17:19:15Z</time>
      </trkpt>
      <trkpt lat="49.50748" lon="-1.84635">
        <ele>22.7</ele>
        <time>2020-06-14T17:19:16Z</time>
      </trkpt>
      <trkpt lat="49.50749" lon="-1.84635">
        <ele>22.8</ele>
        <time>2020-06-14T17:19:17Z</time>
      </trkpt>
      <trkpt lat="49.50752" lon="-1.84635">
        <ele>23.1</ele>
        <time>2020-06-14T17:19:18Z</time>
      </trkpt>
      <trkpt lat="49.50755" lon="-1.84634">
        <ele>23.3</ele>
        <time>2020-06-14T17:19:19Z</time>
      </trkpt>
      <trkpt lat="49.50758" lon="-1.84633">
        <ele>23.6</ele>
        <time>2020-06-14T17:19:20Z</time>
      </trkpt>
      <trkpt lat="49.50762" lon="-1.84634">
        <ele>23.9</ele>
        <time>2020-06-14T17:19:21Z</time>
      </trkpt>
      <trkpt lat="49.50765" lon="-1.84632">
        <ele>24.3</ele>
        <time>2020-06-14T17:19:22Z</time>
      </trkpt>
      <trkpt lat="49.50767" lon="-1.84632">
        <ele>24.4</ele>
        <time>2020-06-14T17:19:23Z</time>
      </trkpt>
      <trkpt lat="49.50771" lon="-1.84631">
        <ele>24.8</ele>
        <time>2020-06-14T17:19:24Z</time>
      </trkpt>
      <trkpt lat="49.50774" lon="-1.84631">
        <ele>25.1</ele>
        <time>2020-06-14T17:19:25Z</time>
      </trkpt>
      <trkpt lat="49.50777" lon="-1.8463">
        <ele>25.5</ele>
        <time>2020-06-14T17:19:26Z</time>
      </trkpt>
      <trkpt lat="49.50779" lon="-1.8463">
        <ele>25.6</ele>
        <time>2020-06-14T17:19:27Z</time>
      </trkpt>
      <trkpt lat="49.50781" lon="-1.84629">
        <ele>25.9</ele>
        <time>2020-06-14T17:19:28Z</time>
      </trkpt>
      <trkpt lat="49.50782" lon="-1.84628">
        <ele>26</ele>
        <time>2020-06-14T17:19:29Z</time>
      </trkpt>
      <trkpt lat="49.50784" lon="-1.84628">
        <ele>26.2</ele>
        <time>2020-06-14T17:19:30Z</time>
      </trkpt>
      <trkpt lat="49.50785" lon="-1.84627">
        <ele>26.3</ele>
        <time>2020-06-14T17:19:31Z</time>
      </trkpt>
      <trkpt lat="49.50788" lon="-1.84627">
        <ele>26.6</ele>
        <time>2020-06-14T17:19:32Z</time>
      </trkpt>
      <trkpt lat="49.50792" lon="-1.84625">
        <ele>27.1</ele>
        <time>2020-06-14T17:19:33Z</time>
      </trkpt>
      <trkpt lat="49.50794" lon="-1.84624">
        <ele>27.3</ele>
        <time>2020-06-14T17:19:34Z</time>
      </trkpt>
      <trkpt lat="49.50797" lon="-1.84622">
        <ele>27.6</ele>
        <time>2020-06-14T17:19:35Z</time>
      </trkpt>
      <trkpt lat="49.508" lon="-1.8462">
        <ele>28</ele>
        <time>2020-06-14T17:19:36Z</time>
      </trkpt>
      <trkpt lat="49.50803" lon="-1.84618">
        <ele>28.5</ele>
        <time>2020-06-14T17:19:37Z</time>
      </trkpt>
      <trkpt lat="49.50806" lon="-1.84617">
        <ele>28.9</ele>
        <time>2020-06-14T17:19:38Z</time>
      </trkpt>
      <trkpt lat="49.5081" lon="-1.84615">
        <ele>29.4</ele>
        <time>2020-06-14T17:19:39Z</time>
      </trkpt>
      <trkpt lat="49.50812" lon="-1.84614">
        <ele>29.6</ele>
        <time>2020-06-14T17:19:40Z</time>
      </trkpt>
      <trkpt lat="49.50814" lon="-1.84613">
        <ele>29.9</ele>
        <time>2020-06-14T17:19:41Z</time>
      </trkpt>
      <trkpt lat="49.50815" lon="-1.84612">
        <ele>30</ele>
        <time>2020-06-14T17:19:42Z</time>
      </trkpt>
      <trkpt lat="49.50818" lon="-1.84611">
        <ele>30.4</ele>
        <time>2020-06-14T17:19:43Z</time>
      </trkpt>
      <trkpt lat="49.50821" lon="-1.84609">
        <ele>30.9</ele>
        <time>2020-06-14T17:19:44Z</time>
      </trkpt>
      <trkpt lat="49.50822" lon="-1.84608">
        <ele>31</ele>
        <time>2020-06-14T17:19:45Z</time>
      </trkpt>
      <trkpt lat="49.50825" lon="-1.84606">
        <ele>31.3</ele>
        <time>2020-06-14T17:19:46Z</time>
      </trkpt>
      <trkpt lat="49.50828" lon="-1.84605">
        <ele>31.7</ele>
        <time>2020-06-14T17:19:47Z</time>
      </trkpt>
      <trkpt lat="49.50829" lon="-1.84604">
        <ele>31.9</ele>
        <time>2020-06-14T17:19:48Z</time>
      </trkpt>
      <trkpt lat="49.5083" lon="-1.84602">
        <ele>32.1</ele>
        <time>2020-06-14T17:19:49Z</time>
      </trkpt>
      <trkpt lat="49.50833" lon="-1.84601">
        <ele>32.5</ele>
        <time>2020-06-14T17:19:50Z</time>
      </trkpt>
      <trkpt lat="49.50834" lon="-1.84601">
        <ele>32.6</ele>
        <time>2020-06-14T17:19:51Z</time>
      </trkpt>
      <trkpt lat="49.50837" lon="-1.846">
        <ele>33</ele>
        <time>2020-06-14T17:19:52Z</time>
      </trkpt>
      <trkpt lat="49.50838" lon="-1.84599">
        <ele>33.1</ele>
        <time>2020-06-14T17:19:53Z</time>
      </trkpt>
      <trkpt lat="49.50841" lon="-1.84597">
        <ele>33.4</ele>
        <time>2020-06-14T17:19:54Z</time>
      </trkpt>
      <trkpt lat="49.50843" lon="-1.84596">
        <ele>33.7</ele>
        <time>2020-06-14T17:19:55Z</time>
      </trkpt>
      <trkpt lat="49.50844" lon="-1.84596">
        <ele>33.8</ele>
        <time>2020-06-14T17:19:56Z</time>
      </trkpt>
      <trkpt lat="49.50845" lon="-1.84596">
        <ele>33.9</ele>
        <time>2020-06-14T17:19:57Z</time>
      </trkpt>
      <trkpt lat="49.50847" lon="-1.84595">
        <ele>34.1</ele>
        <time>2020-06-14T17:19:58Z</time>
      </trkpt>
      <trkpt lat="49.5085" lon="-1.84595">
        <ele>34.4</ele>
        <time>2020-06-14T17:19:59Z</time>
      </trkpt>
      <trkpt lat="49.50853" lon="-1.84596">
        <ele>34.7</ele>
        <time>2020-06-14T17:20:00Z</time>
      </trkpt>
      <trkpt lat="49.50854" lon="-1.84596">
        <ele>34.8</ele>
        <time>2020-06-14T17:20:01Z</time>
      </trkpt>
      <trkpt lat="49.50857" lon="-1.84598">
        <ele>34.8</ele>
        <time>2020-06-14T17:20:02Z</time>
      </trkpt>
      <trkpt lat="49.50858" lon="-1.84599">
        <ele>34.8</ele>
        <time>2020-06-14T17:20:03Z</time>
      </trkpt>
      <trkpt lat="49.50861" lon="-1.84601">
        <ele>34.9</ele>
        <time>2020-06-14T17:20:04Z</time>
      </trkpt>
      <trkpt lat="49.50864" lon="-1.84603">
        <ele>34.9</ele>
        <time>2020-06-14T17:20:05Z</time>
      </trkpt>
      <trkpt lat="49.50867" lon="-1.84605">
        <ele>34.9</ele>
        <time>2020-06-14T17:20:06Z</time>
      </trkpt>
      <trkpt lat="49.5087" lon="-1.84607">
        <ele>34.9</ele>
        <time>2020-06-14T17:20:07Z</time>
      </trkpt>
      <trkpt lat="49.50873" lon="-1.8461">
        <ele>34.9</ele>
        <time>2020-06-14T17:20:08Z</time>
      </trkpt>
      <trkpt lat="49.50876" lon="-1.84614">
        <ele>34.8</ele>
        <time>2020-06-14T17:20:09Z</time>
      </trkpt>
      <trkpt lat="49.50879" lon="-1.84618">
        <ele>34.8</ele>
        <time>2020-06-14T17:20:10Z</time>
      </trkpt>
      <trkpt lat="49.50882" lon="-1.84623">
        <ele>34.8</ele>
        <time>2020-06-14T17:20:11Z</time>
      </trkpt>
      <trkpt lat="49.50885" lon="-1.84628">
        <ele>34.7</ele>
        <time>2020-06-14T17:20:12Z</time>
      </trkpt>
      <trkpt lat="49.50888" lon="-1.84633">
        <ele>34.7</ele>
        <time>2020-06-14T17:20:13Z</time>
      </trkpt>
      <trkpt lat="49.50892" lon="-1.84637">
        <ele>34.7</ele>
        <time>2020-06-14T17:20:14Z</time>
      </trkpt>
      <trkpt lat="49.50896" lon="-1.84641">
        <ele>34.6</ele>
        <time>2020-06-14T17:20:15Z</time>
      </trkpt>
      <trkpt lat="49.50899" lon="-1.84646">
        <ele>34.6</ele>
        <time>2020-06-14T17:20:16Z</time>
      </trkpt>
      <trkpt lat="49.50902" lon="-1.84652">
        <ele>34.6</ele>
        <time>2020-06-14T17:20:17Z</time>
      </trkpt>
      <trkpt lat="49.50903" lon="-1.84656">
        <ele>34.6</ele>
        <time>2020-06-14T17:20:18Z</time>
      </trkpt>
      <trkpt lat="49.50906" lon="-1.84662">
        <ele>34.5</ele>
        <time>2020-06-14T17:20:19Z</time>
      </trkpt>
      <trkpt lat="49.50909" lon="-1.84666">
        <ele>34.5</ele>
        <time>2020-06-14T17:20:20Z</time>
      </trkpt>
      <trkpt lat="49.50911" lon="-1.84668">
        <ele>34.4</ele>
        <time>2020-06-14T17:20:21Z</time>
      </trkpt>
      <trkpt lat="49.50914" lon="-1.84672">
        <ele>34.4</ele>
        <time>2020-06-14T17:20:22Z</time>
      </trkpt>
      <trkpt lat="49.50916" lon="-1.84673">
        <ele>34.3</ele>
        <time>2020-06-14T17:20:23Z</time>
      </trkpt>
      <trkpt lat="49.50918" lon="-1.84677">
        <ele>34.3</ele>
        <time>2020-06-14T17:20:24Z</time>
      </trkpt>
      <trkpt lat="49.50921" lon="-1.84679">
        <ele>34.2</ele>
        <time>2020-06-14T17:20:25Z</time>
      </trkpt>
      <trkpt lat="49.50923" lon="-1.84684">
        <ele>34.1</ele>
        <time>2020-06-14T17:20:26Z</time>
      </trkpt>
      <trkpt lat="49.50925" lon="-1.84688">
        <ele>34.1</ele>
        <time>2020-06-14T17:20:27Z</time>
      </trkpt>
      <trkpt lat="49.50927" lon="-1.84691">
        <ele>34</ele>
        <time>2020-06-14T17:20:28Z</time>
      </trkpt>
      <trkpt lat="49.5093" lon="-1.84695">
        <ele>33.9</ele>
        <time>2020-06-14T17:20:29Z</time>
      </trkpt>
      <trkpt lat="49.50931" lon="-1.84698">
        <ele>33.8</ele>
        <time>2020-06-14T17:20:30Z</time>
      </trkpt>
      <trkpt lat="49.50934" lon="-1.84701">
        <ele>33.7</ele>
        <time>2020-06-14T17:20:31Z</time>
      </trkpt>
      <trkpt lat="49.50937" lon="-1.84706">
        <ele>33.5</ele>
        <time>2020-06-14T17:20:32Z</time>
      </trkpt>
      <trkpt lat="49.5094" lon="-1.8471">
        <ele>33.4</ele>
        <time>2020-06-14T17:20:33Z</time>
      </trkpt>
      <trkpt lat="49.50943" lon="-1.84715">
        <ele>33.2</ele>
        <time>2020-06-14T17:20:34Z</time>
      </trkpt>
      <trkpt lat="49.50946" lon="-1.8472">
        <ele>33</ele>
        <time>2020-06-14T17:20:35Z</time>
      </trkpt>
      <trkpt lat="49.5095" lon="-1.84726">
        <ele>32.8</ele>
        <time>2020-06-14T17:20:36Z</time>
      </trkpt>
      <trkpt lat="49.50953" lon="-1.84732">
        <ele>32.6</ele>
        <time>2020-06-14T17:20:37Z</time>
      </trkpt>
      <trkpt lat="49.50958" lon="-1.84738">
        <ele>32.3</ele>
        <time>2020-06-14T17:20:38Z</time>
      </trkpt>
      <trkpt lat="49.50961" lon="-1.84744">
        <ele>32.1</ele>
        <time>2020-06-14T17:20:39Z</time>
      </trkpt>
      <trkpt lat="49.50965" lon="-1.8475">
        <ele>31.8</ele>
        <time>2020-06-14T17:20:40Z</time>
      </trkpt>
      <trkpt lat="49.5097" lon="-1.84756">
        <ele>31.5</ele>
        <time>2020-06-14T17:20:41Z</time>
      </trkpt>
      <trkpt lat="49.50974" lon="-1.84762">
        <ele>31.2</ele>
        <time>2020-06-14T17:20:42Z</time>
      </trkpt>
      <trkpt lat="49.50978" lon="-1.84768">
        <ele>31</ele>
        <time>2020-06-14T17:20:43Z</time>
      </trkpt>
      <trkpt lat="49.50982" lon="-1.84775">
        <ele>30.7</ele>
        <time>2020-06-14T17:20:44Z</time>
      </trkpt>
      <trkpt lat="49.50987" lon="-1.84783">
        <ele>30.4</ele>
        <time>2020-06-14T17:20:45Z</time>
      </trkpt>
      <trkpt lat="49.50992" lon="-1.8479">
        <ele>30.1</ele>
        <time>2020-06-14T17:20:46Z</time>
      </trkpt>
      <trkpt lat="49.50997" lon="-1.84797">
        <ele>29.9</ele>
        <time>2020-06-14T17:20:47Z</time>
      </trkpt>
      <trkpt lat="49.51002" lon="-1.84805">
        <ele>29.7</ele>
        <time>2020-06-14T17:20:48Z</time>
      </trkpt>
      <trkpt lat="49.51007" lon="-1.84812">
        <ele>29.6</ele>
        <time>2020-06-14T17:20:49Z</time>
      </trkpt>
      <trkpt lat="49.51012" lon="-1.84821">
        <ele>29.6</ele>
        <time>2020-06-14T17:20:50Z</time>
      </trkpt>
      <trkpt lat="49.51015" lon="-1.8483">
        <ele>29.6</ele>
        <time>2020-06-14T17:20:51Z</time>
      </trkpt>
      <trkpt lat="49.51017" lon="-1.84838">
        <ele>29.6</ele>
        <time>2020-06-14T17:20:52Z</time>
      </trkpt>
      <trkpt lat="49.5102" lon="-1.84845">
        <ele>29.6</ele>
        <time>2020-06-14T17:20:53Z</time>
      </trkpt>
      <trkpt lat="49.51023" lon="-1.84852">
        <ele>29.6</ele>
        <time>2020-06-14T17:20:54Z</time>
      </trkpt>
      <trkpt lat="49.51025" lon="-1.84858">
        <ele>29.6</ele>
        <time>2020-06-14T17:20:55Z</time>
      </trkpt>
      <trkpt lat="49.51026" lon="-1.84865">
        <ele>29.6</ele>
        <time>2020-06-14T17:20:56Z</time>
      </trkpt>
      <trkpt lat="49.51029" lon="-1.8487">
        <ele>29.6</ele>
        <time>2020-06-14T17:20:57Z</time>
      </trkpt>
      <trkpt lat="49.5103" lon="-1.84877">
        <ele>29.5</ele>
        <time>2020-06-14T17:20:58Z</time>
      </trkpt>
      <trkpt lat="49.51031" lon="-1.84881">
        <ele>29.5</ele>
        <time>2020-06-14T17:20:59Z</time>
      </trkpt>
      <trkpt lat="49.51034" lon="-1.84888">
        <ele>29.5</ele>
        <time>2020-06-14T17:21:00Z</time>
      </trkpt>
      <trkpt lat="49.51036" lon="-1.84895">
        <ele>29.4</ele>
        <time>2020-06-14T17:21:01Z</time>
      </trkpt>
      <trkpt lat="49.51039" lon="-1.84903">
        <ele>29.4</ele>
        <time>2020-06-14T17:21:02Z</time>
      </trkpt>
      <trkpt lat="49.51042" lon="-1.84911">
        <ele>29.3</ele>
        <time>2020-06-14T17:21:03Z</time>
      </trkpt>
      <trkpt lat="49.51045" lon="-1.84919">
        <ele>29.3</ele>
        <time>2020-06-14T17:21:04Z</time>
      </trkpt>
      <trkpt lat="49.51047" lon="-1.84926">
        <ele>29.3</ele>
        <time>2020-06-14T17:21:05Z</time>
      </trkpt>
      <trkpt lat="49.51049" lon="-1.84931">
        <ele>29.3</ele>
        <time>2020-06-14T17:21:06Z</time>
      </trkpt>
      <trkpt lat="49.51051" lon="-1.8494">
        <ele>29.2</ele>
        <time>2020-06-14T17:21:07Z</time>
      </trkpt>
      <trkpt lat="49.51054" lon="-1.84948">
        <ele>29.2</ele>
        <time>2020-06-14T17:21:08Z</time>
      </trkpt>
      <trkpt lat="49.51057" lon="-1.84956">
        <ele>29.2</ele>
        <time>2020-06-14T17:21:09Z</time>
      </trkpt>
      <trkpt lat="49.51061" lon="-1.84963">
        <ele>29.1</ele>
        <time>2020-06-14T17:21:10Z</time>
      </trkpt>
      <trkpt lat="49.51064" lon="-1.84969">
        <ele>29.1</ele>
        <time>2020-06-14T17:21:11Z</time>
      </trkpt>
      <trkpt lat="49.51067" lon="-1.84976">
        <ele>29</ele>
        <time>2020-06-14T17:21:12Z</time>
      </trkpt>
      <trkpt lat="49.5107" lon="-1.84982">
        <ele>29</ele>
        <time>2020-06-14T17:21:13Z</time>
      </trkpt>
      <trkpt lat="49.51072" lon="-1.84989">
        <ele>28.9</ele>
        <time>2020-06-14T17:21:14Z</time>
      </trkpt>
      <trkpt lat="49.51074" lon="-1.84997">
        <ele>28.8</ele>
        <time>2020-06-14T17:21:15Z</time>
      </trkpt>
      <trkpt lat="49.51077" lon="-1.85006">
        <ele>28.7</ele>
        <time>2020-06-14T17:21:16Z</time>
      </trkpt>
      <trkpt lat="49.5108" lon="-1.85014">
        <ele>28.6</ele>
        <time>2020-06-14T17:21:17Z</time>
      </trkpt>
      <trkpt lat="49.51083" lon="-1.85023">
        <ele>28.5</ele>
        <time>2020-06-14T17:21:18Z</time>
      </trkpt>
      <trkpt lat="49.51085" lon="-1.85032">
        <ele>28.5</ele>
        <time>2020-06-14T17:21:19Z</time>
      </trkpt>
      <trkpt lat="49.51087" lon="-1.85041">
        <ele>28.5</ele>
        <time>2020-06-14T17:21:20Z</time>
      </trkpt>
      <trkpt lat="49.5109" lon="-1.8505">
        <ele>28.5</ele>
        <time>2020-06-14T17:21:21Z</time>
      </trkpt>
      <trkpt lat="49.51093" lon="-1.85058">
        <ele>28.6</ele>
        <time>2020-06-14T17:21:22Z</time>
      </trkpt>
      <trkpt lat="49.51095" lon="-1.85066">
        <ele>28.7</ele>
        <time>2020-06-14T17:21:23Z</time>
      </trkpt>
      <trkpt lat="49.51098" lon="-1.85073">
        <ele>28.9</ele>
        <time>2020-06-14T17:21:24Z</time>
      </trkpt>
      <trkpt lat="49.51101" lon="-1.85081">
        <ele>29.1</ele>
        <time>2020-06-14T17:21:25Z</time>
      </trkpt>
      <trkpt lat="49.51104" lon="-1.85088">
        <ele>29.3</ele>
        <time>2020-06-14T17:21:26Z</time>
      </trkpt>
      <trkpt lat="49.51107" lon="-1.85095">
        <ele>29.6</ele>
        <time>2020-06-14T17:21:27Z</time>
      </trkpt>
      <trkpt lat="49.51109" lon="-1.85102">
        <ele>29.8</ele>
        <time>2020-06-14T17:21:28Z</time>
      </trkpt>
      <trkpt lat="49.5111" lon="-1.85107">
        <ele>30</ele>
        <time>2020-06-14T17:21:29Z</time>
      </trkpt>
      <trkpt lat="49.51111" lon="-1.85111">
        <ele>30.2</ele>
        <time>2020-06-14T17:21:30Z</time>
      </trkpt>
      <trkpt lat="49.51113" lon="-1.85115">
        <ele>30.4</ele>
        <time>2020-06-14T17:21:31Z</time>
      </trkpt>
      <trkpt lat="49.51113" lon="-1.8512">
        <ele>30.6</ele>
        <time>2020-06-14T17:21:32Z</time>
      </trkpt>
      <trkpt lat="49.51115" lon="-1.85126">
        <ele>30.9</ele>
        <time>2020-06-14T17:21:33Z</time>
      </trkpt>
      <trkpt lat="49.51116" lon="-1.85131">
        <ele>31.1</ele>
        <time>2020-06-14T17:21:34Z</time>
      </trkpt>
      <trkpt lat="49.51116" lon="-1.85133">
        <ele>31.2</ele>
        <time>2020-06-14T17:21:35Z</time>
      </trkpt>
      <trkpt lat="49.51117" lon="-1.85137">
        <ele>31.4</ele>
        <time>2020-06-14T17:21:36Z</time>
      </trkpt>
      <trkpt lat="49.51117" lon="-1.85139">
        <ele>31.5</ele>
        <time>2020-06-14T17:21:37Z</time>
      </trkpt>
      <trkpt lat="49.51118" lon="-1.85141">
        <ele>31.6</ele>
        <time>2020-06-14T17:21:38Z</time>
      </trkpt>
      <trkpt lat="49.51118" lon="-1.85143">
        <ele>31.7</ele>
        <time>2020-06-14T17:21:39Z</time>
      </trkpt>
      <trkpt lat="49.5112" lon="-1.85147">
        <ele>31.9</ele>
        <time>2020-06-14T17:21:40Z</time>
      </trkpt>
      <trkpt lat="49.51121" lon="-1.85148">
        <ele>32</ele>
        <time>2020-06-14T17:21:41Z</time>
      </trkpt>
      <trkpt lat="49.51121" lon="-1.8515">
        <ele>32.1</ele>
        <time>2020-06-14T17:21:42Z</time>
      </trkpt>
      <trkpt lat="49.51122" lon="-1.85152">
        <ele>32.2</ele>
        <time>2020-06-14T17:21:43Z</time>
      </trkpt>
      <trkpt lat="49.51122" lon="-1.85152">
        <ele>32.2</ele>
        <time>2020-06-14T17:21:44Z</time>
      </trkpt>
      <trkpt lat="49.51122" lon="-1.85154">
        <ele>32.3</ele>
        <time>2020-06-14T17:21:45Z</time>
      </trkpt>
      <trkpt lat="49.51122" lon="-1.85157">
        <ele>32.4</ele>
        <time>2020-06-14T17:21:46Z</time>
      </trkpt>
      <trkpt lat="49.51122" lon="-1.85158">
        <ele>32.5</ele>
        <time>2020-06-14T17:21:47Z</time>
      </trkpt>
      <trkpt lat="49.51123" lon="-1.85161">
        <ele>32.6</ele>
        <time>2020-06-14T17:21:48Z</time>
      </trkpt>
      <trkpt lat="49.51125" lon="-1.85165">
        <ele>32.8</ele>
        <time>2020-06-14T17:21:49Z</time>
      </trkpt>
      <trkpt lat="49.51125" lon="-1.85167">
        <ele>32.9</ele>
        <time>2020-06-14T17:21:50Z</time>
      </trkpt>
      <trkpt lat="49.51126" lon="-1.85168">
        <ele>32.9</ele>
        <time>2020-06-14T17:21:51Z</time>
      </trkpt>
      <trkpt lat="49.51126" lon="-1.85169">
        <ele>33</ele>
        <time>2020-06-14T17:21:52Z</time>
      </trkpt>
      <trkpt lat="49.51127" lon="-1.85171">
        <ele>33.1</ele>
        <time>2020-06-14T17:21:53Z</time>
      </trkpt>
      <trkpt lat="49.51128" lon="-1.85175">
        <ele>33.2</ele>
        <time>2020-06-14T17:21:54Z</time>
      </trkpt>
      <trkpt lat="49.51129" lon="-1.85176">
        <ele>33.3</ele>
        <time>2020-06-14T17:21:55Z</time>
      </trkpt>
      <trkpt lat="49.51131" lon="-1.85182">
        <ele>33.5</ele>
        <time>2020-06-14T17:21:56Z</time>
      </trkpt>
      <trkpt lat="49.51134" lon="-1.85189">
        <ele>33.8</ele>
        <time>2020-06-14T17:21:57Z</time>
      </trkpt>
      <trkpt lat="49.51137" lon="-1.85196">
        <ele>34</ele>
        <time>2020-06-14T17:21:58Z</time>
      </trkpt>
      <trkpt lat="49.5114" lon="-1.85204">
        <ele>34.2</ele>
        <time>2020-06-14T17:21:59Z</time>
      </trkpt>
      <trkpt lat="49.51143" lon="-1.85212">
        <ele>34.3</ele>
        <time>2020-06-14T17:22:00Z</time>
      </trkpt>
      <trkpt lat="49.51145" lon="-1.8522">
        <ele>34.4</ele>
        <time>2020-06-14T17:22:01Z</time>
      </trkpt>
      <trkpt lat="49.51146" lon="-1.85228">
        <ele>34.4</ele>
        <time>2020-06-14T17:22:02Z</time>
      </trkpt>
      <trkpt lat="49.51148" lon="-1.85236">
        <ele>34.3</ele>
        <time>2020-06-14T17:22:03Z</time>
      </trkpt>
      <trkpt lat="49.5115" lon="-1.85245">
        <ele>34.2</ele>
        <time>2020-06-14T17:22:04Z</time>
      </trkpt>
      <trkpt lat="49.51153" lon="-1.85255">
        <ele>34.1</ele>
        <time>2020-06-14T17:22:05Z</time>
      </trkpt>
      <trkpt lat="49.51156" lon="-1.85265">
        <ele>34</ele>
        <time>2020-06-14T17:22:06Z</time>
      </trkpt>
      <trkpt lat="49.51159" lon="-1.85276">
        <ele>33.9</ele>
        <time>2020-06-14T17:22:07Z</time>
      </trkpt>
      <trkpt lat="49.51162" lon="-1.85287">
        <ele>33.9</ele>
        <time>2020-06-14T17:22:08Z</time>
      </trkpt>
      <trkpt lat="49.51163" lon="-1.85297">
        <ele>33.8</ele>
        <time>2020-06-14T17:22:09Z</time>
      </trkpt>
      <trkpt lat="49.51165" lon="-1.85305">
        <ele>33.8</ele>
        <time>2020-06-14T17:22:10Z</time>
      </trkpt>
      <trkpt lat="49.51166" lon="-1.85315">
        <ele>33.7</ele>
        <time>2020-06-14T17:22:11Z</time>
      </trkpt>
      <trkpt lat="49.51167" lon="-1.85327">
        <ele>33.5</ele>
        <time>2020-06-14T17:22:12Z</time>
      </trkpt>
      <trkpt lat="49.51167" lon="-1.85339">
        <ele>33.3</ele>
        <time>2020-06-14T17:22:13Z</time>
      </trkpt>
      <trkpt lat="49.51167" lon="-1.8535">
        <ele>32.8</ele>
        <time>2020-06-14T17:22:14Z</time>
      </trkpt>
      <trkpt lat="49.51166" lon="-1.85362">
        <ele>32.3</ele>
        <time>2020-06-14T17:22:15Z</time>
      </trkpt>
      <trkpt lat="49.51166" lon="-1.85374">
        <ele>31.7</ele>
        <time>2020-06-14T17:22:16Z</time>
      </trkpt>
      <trkpt lat="49.51166" lon="-1.85387">
        <ele>30.9</ele>
        <time>2020-06-14T17:22:17Z</time>
      </trkpt>
      <trkpt lat="49.51166" lon="-1.854">
        <ele>30.1</ele>
        <time>2020-06-14T17:22:18Z</time>
      </trkpt>
      <trkpt lat="49.51167" lon="-1.85413">
        <ele>29.2</ele>
        <time>2020-06-14T17:22:19Z</time>
      </trkpt>
      <trkpt lat="49.51167" lon="-1.85428">
        <ele>28.3</ele>
        <time>2020-06-14T17:22:20Z</time>
      </trkpt>
      <trkpt lat="49.51168" lon="-1.85443">
        <ele>27.4</ele>
        <time>2020-06-14T17:22:21Z</time>
      </trkpt>
      <trkpt lat="49.51169" lon="-1.85459">
        <ele>26.6</ele>
        <time>2020-06-14T17:22:22Z</time>
      </trkpt>
      <trkpt lat="49.51172" lon="-1.85474">
        <ele>27</ele>
        <time>2020-06-14T17:22:23Z</time>
      </trkpt>
      <trkpt lat="49.51175" lon="-1.8549">
        <ele>27.3</ele>
        <time>2020-06-14T17:22:24Z</time>
      </trkpt>
      <trkpt lat="49.5118" lon="-1.85505">
        <ele>27.6</ele>
        <time>2020-06-14T17:22:25Z</time>
      </trkpt>
      <trkpt lat="49.51185" lon="-1.85518">
        <ele>28</ele>
        <time>2020-06-14T17:22:26Z</time>
      </trkpt>
      <trkpt lat="49.5119" lon="-1.85531">
        <ele>28.4</ele>
        <time>2020-06-14T17:22:27Z</time>
      </trkpt>
      <trkpt lat="49.51195" lon="-1.85544">
        <ele>28.8</ele>
        <time>2020-06-14T17:22:28Z</time>
      </trkpt>
      <trkpt lat="49.512" lon="-1.85556">
        <ele>29.3</ele>
        <time>2020-06-14T17:22:29Z</time>
      </trkpt>
      <trkpt lat="49.51204" lon="-1.85567">
        <ele>29.9</ele>
        <time>2020-06-14T17:22:30Z</time>
      </trkpt>
      <trkpt lat="49.51208" lon="-1.85578">
        <ele>30.4</ele>
        <time>2020-06-14T17:22:31Z</time>
      </trkpt>
      <trkpt lat="49.51211" lon="-1.85589">
        <ele>31</ele>
        <time>2020-06-14T17:22:32Z</time>
      </trkpt>
      <trkpt lat="49.51215" lon="-1.85599">
        <ele>31.4</ele>
        <time>2020-06-14T17:22:33Z</time>
      </trkpt>
      <trkpt lat="49.51218" lon="-1.85609">
        <ele>31.9</ele>
        <time>2020-06-14T17:22:34Z</time>
      </trkpt>
      <trkpt lat="49.51219" lon="-1.85619">
        <ele>32.3</ele>
        <time>2020-06-14T17:22:35Z</time>
      </trkpt>
      <trkpt lat="49.51222" lon="-1.85628">
        <ele>32.7</ele>
        <time>2020-06-14T17:22:36Z</time>
      </trkpt>
      <trkpt lat="49.51225" lon="-1.85638">
        <ele>33.1</ele>
        <time>2020-06-14T17:22:37Z</time>
      </trkpt>
      <trkpt lat="49.51227" lon="-1.85647">
        <ele>33.5</ele>
        <time>2020-06-14T17:22:38Z</time>
      </trkpt>
      <trkpt lat="49.51229" lon="-1.85655">
        <ele>33.9</ele>
        <time>2020-06-14T17:22:39Z</time>
      </trkpt>
      <trkpt lat="49.51232" lon="-1.85663">
        <ele>34.3</ele>
        <time>2020-06-14T17:22:40Z</time>
      </trkpt>
      <trkpt lat="49.51234" lon="-1.8567">
        <ele>34.6</ele>
        <time>2020-06-14T17:22:41Z</time>
      </trkpt>
      <trkpt lat="49.51236" lon="-1.85677">
        <ele>35</ele>
        <time>2020-06-14T17:22:42Z</time>
      </trkpt>
      <trkpt lat="49.51238" lon="-1.85684">
        <ele>35.3</ele>
        <time>2020-06-14T17:22:43Z</time>
      </trkpt>
      <trkpt lat="49.51241" lon="-1.8569">
        <ele>35.6</ele>
        <time>2020-06-14T17:22:44Z</time>
      </trkpt>
      <trkpt lat="49.51245" lon="-1.85696">
        <ele>36</ele>
        <time>2020-06-14T17:22:45Z</time>
      </trkpt>
      <trkpt lat="49.51248" lon="-1.85701">
        <ele>36.3</ele>
        <time>2020-06-14T17:22:46Z</time>
      </trkpt>
      <trkpt lat="49.51251" lon="-1.85707">
        <ele>36.7</ele>
        <time>2020-06-14T17:22:47Z</time>
      </trkpt>
      <trkpt lat="49.51255" lon="-1.85713">
        <ele>37.1</ele>
        <time>2020-06-14T17:22:48Z</time>
      </trkpt>
      <trkpt lat="49.51258" lon="-1.85718">
        <ele>37.4</ele>
        <time>2020-06-14T17:22:49Z</time>
      </trkpt>
      <trkpt lat="49.51261" lon="-1.85723">
        <ele>37.7</ele>
        <time>2020-06-14T17:22:50Z</time>
      </trkpt>
      <trkpt lat="49.51264" lon="-1.85729">
        <ele>38</ele>
        <time>2020-06-14T17:22:51Z</time>
      </trkpt>
      <trkpt lat="49.51266" lon="-1.85734">
        <ele>38.3</ele>
        <time>2020-06-14T17:22:52Z</time>
      </trkpt>
      <trkpt lat="49.51269" lon="-1.85739">
        <ele>38.6</ele>
        <time>2020-06-14T17:22:53Z</time>
      </trkpt>
      <trkpt lat="49.51271" lon="-1.85743">
        <ele>38.9</ele>
        <time>2020-06-14T17:22:54Z</time>
      </trkpt>
      <trkpt lat="49.51274" lon="-1.85748">
        <ele>39.1</ele>
        <time>2020-06-14T17:22:55Z</time>
      </trkpt>
      <trkpt lat="49.51275" lon="-1.85753">
        <ele>39.4</ele>
        <time>2020-06-14T17:22:56Z</time>
      </trkpt>
      <trkpt lat="49.51276" lon="-1.85759">
        <ele>39.6</ele>
        <time>2020-06-14T17:22:57Z</time>
      </trkpt>
      <trkpt lat="49.51277" lon="-1.85765">
        <ele>39.9</ele>
        <time>2020-06-14T17:22:58Z</time>
      </trkpt>
      <trkpt lat="49.51276" lon="-1.85771">
        <ele>40.1</ele>
        <time>2020-06-14T17:22:59Z</time>
      </trkpt>
      <trkpt lat="49.51276" lon="-1.85778">
        <ele>40.3</ele>
        <time>2020-06-14T17:23:00Z</time>
      </trkpt>
      <trkpt lat="49.51277" lon="-1.85783">
        <ele>40.5</ele>
        <time>2020-06-14T17:23:01Z</time>
      </trkpt>
      <trkpt lat="49.51278" lon="-1.85789">
        <ele>40.7</ele>
        <time>2020-06-14T17:23:02Z</time>
      </trkpt>
      <trkpt lat="49.51279" lon="-1.85795">
        <ele>40.8</ele>
        <time>2020-06-14T17:23:03Z</time>
      </trkpt>
      <trkpt lat="49.51279" lon="-1.85801">
        <ele>41</ele>
        <time>2020-06-14T17:23:04Z</time>
      </trkpt>
      <trkpt lat="49.51279" lon="-1.85806">
        <ele>41.2</ele>
        <time>2020-06-14T17:23:05Z</time>
      </trkpt>
      <trkpt lat="49.51279" lon="-1.85811">
        <ele>41.5</ele>
        <time>2020-06-14T17:23:06Z</time>
      </trkpt>
      <trkpt lat="49.51279" lon="-1.85817">
        <ele>41.9</ele>
        <time>2020-06-14T17:23:07Z</time>
      </trkpt>
      <trkpt lat="49.51279" lon="-1.85824">
        <ele>42.4</ele>
        <time>2020-06-14T17:23:08Z</time>
      </trkpt>
      <trkpt lat="49.51279" lon="-1.85829">
        <ele>42.7</ele>
        <time>2020-06-14T17:23:09Z</time>
      </trkpt>
      <trkpt lat="49.51279" lon="-1.85831">
        <ele>42.8</ele>
        <time>2020-06-14T17:23:10Z</time>
      </trkpt>
      <trkpt lat="49.5128" lon="-1.85836">
        <ele>43.2</ele>
        <time>2020-06-14T17:23:11Z</time>
      </trkpt>
      <trkpt lat="49.51281" lon="-1.8584">
        <ele>43.5</ele>
        <time>2020-06-14T17:23:12Z</time>
      </trkpt>
      <trkpt lat="49.51282" lon="-1.85842">
        <ele>43.6</ele>
        <time>2020-06-14T17:23:13Z</time>
      </trkpt>
      <trkpt lat="49.51283" lon="-1.85845">
        <ele>43.8</ele>
        <time>2020-06-14T17:23:14Z</time>
      </trkpt>
      <trkpt lat="49.51284" lon="-1.85845">
        <ele>43.9</ele>
        <time>2020-06-14T17:23:15Z</time>
      </trkpt>
      <trkpt lat="49.51286" lon="-1.85849">
        <ele>44.3</ele>
        <time>2020-06-14T17:23:16Z</time>
      </trkpt>
      <trkpt lat="49.51287" lon="-1.8585">
        <ele>44.4</ele>
        <time>2020-06-14T17:23:17Z</time>
      </trkpt>
      <trkpt lat="49.51289" lon="-1.85855">
        <ele>44.8</ele>
        <time>2020-06-14T17:23:18Z</time>
      </trkpt>
      <trkpt lat="49.5129" lon="-1.85858">
        <ele>45</ele>
        <time>2020-06-14T17:23:19Z</time>
      </trkpt>
      <trkpt lat="49.51293" lon="-1.85861">
        <ele>45.4</ele>
        <time>2020-06-14T17:23:20Z</time>
      </trkpt>
      <trkpt lat="49.51295" lon="-1.85863">
        <ele>45.5</ele>
        <time>2020-06-14T17:23:21Z</time>
      </trkpt>
      <trkpt lat="49.51297" lon="-1.85865">
        <ele>45.8</ele>
        <time>2020-06-14T17:23:22Z</time>
      </trkpt>
      <trkpt lat="49.51298" lon="-1.85866">
        <ele>46</ele>
        <time>2020-06-14T17:23:23Z</time>
      </trkpt>
      <trkpt lat="49.51301" lon="-1.8587">
        <ele>46.4</ele>
        <time>2020-06-14T17:23:24Z</time>
      </trkpt>
      <trkpt lat="49.51302" lon="-1.85871">
        <ele>46.5</ele>
        <time>2020-06-14T17:23:25Z</time>
      </trkpt>
      <trkpt lat="49.51304" lon="-1.85873">
        <ele>46.7</ele>
        <time>2020-06-14T17:23:26Z</time>
      </trkpt>
      <trkpt lat="49.51305" lon="-1.85874">
        <ele>46.9</ele>
        <time>2020-06-14T17:23:27Z</time>
      </trkpt>
      <trkpt lat="49.51307" lon="-1.85877">
        <ele>47.2</ele>
        <time>2020-06-14T17:23:28Z</time>
      </trkpt>
      <trkpt lat="49.5131" lon="-1.85881">
        <ele>47.6</ele>
        <time>2020-06-14T17:23:29Z</time>
      </trkpt>
      <trkpt lat="49.51311" lon="-1.85883">
        <ele>47.7</ele>
        <time>2020-06-14T17:23:30Z</time>
      </trkpt>
      <trkpt lat="49.51313" lon="-1.85886">
        <ele>48.1</ele>
        <time>2020-06-14T17:23:31Z</time>
      </trkpt>
      <trkpt lat="49.51313" lon="-1.85888">
        <ele>48.2</ele>
        <time>2020-06-14T17:23:32Z</time>
      </trkpt>
      <trkpt lat="49.51316" lon="-1.85891">
        <ele>48.6</ele>
        <time>2020-06-14T17:23:33Z</time>
      </trkpt>
      <trkpt lat="49.51317" lon="-1.85892">
        <ele>48.7</ele>
        <time>2020-06-14T17:23:34Z</time>
      </trkpt>
      <trkpt lat="49.51319" lon="-1.85895">
        <ele>49</ele>
        <time>2020-06-14T17:23:35Z</time>
      </trkpt>
      <trkpt lat="49.5132" lon="-1.85896">
        <ele>49.2</ele>
        <time>2020-06-14T17:23:36Z</time>
      </trkpt>
      <trkpt lat="49.51322" lon="-1.859">
        <ele>49.5</ele>
        <time>2020-06-14T17:23:37Z</time>
      </trkpt>
      <trkpt lat="49.51323" lon="-1.85901">
        <ele>49.6</ele>
        <time>2020-06-14T17:23:38Z</time>
      </trkpt>
      <trkpt lat="49.51324" lon="-1.85906">
        <ele>50</ele>
        <time>2020-06-14T17:23:39Z</time>
      </trkpt>
      <trkpt lat="49.51324" lon="-1.85908">
        <ele>50.1</ele>
        <time>2020-06-14T17:23:40Z</time>
      </trkpt>
      <trkpt lat="49.51326" lon="-1.85911">
        <ele>50.5</ele>
        <time>2020-06-14T17:23:41Z</time>
      </trkpt>
      <trkpt lat="49.51327" lon="-1.85912">
        <ele>50.6</ele>
        <time>2020-06-14T17:23:42Z</time>
      </trkpt>
      <trkpt lat="49.51329" lon="-1.85917">
        <ele>51</ele>
        <time>2020-06-14T17:23:43Z</time>
      </trkpt>
      <trkpt lat="49.51329" lon="-1.85918">
        <ele>51.1</ele>
        <time>2020-06-14T17:23:44Z</time>
      </trkpt>
      <trkpt lat="49.51331" lon="-1.85923">
        <ele>51.4</ele>
        <time>2020-06-14T17:23:45Z</time>
      </trkpt>
      <trkpt lat="49.51331" lon="-1.85924">
        <ele>51.6</ele>
        <time>2020-06-14T17:23:46Z</time>
      </trkpt>
      <trkpt lat="49.51333" lon="-1.85928">
        <ele>51.9</ele>
        <time>2020-06-14T17:23:47Z</time>
      </trkpt>
      <trkpt lat="49.51333" lon="-1.8593">
        <ele>52.1</ele>
        <time>2020-06-14T17:23:48Z</time>
      </trkpt>
      <trkpt lat="49.51335" lon="-1.85934">
        <ele>52.4</ele>
        <time>2020-06-14T17:23:49Z</time>
      </trkpt>
      <trkpt lat="49.51335" lon="-1.85935">
        <ele>52.5</ele>
        <time>2020-06-14T17:23:50Z</time>
      </trkpt>
      <trkpt lat="49.51337" lon="-1.8594">
        <ele>52.9</ele>
        <time>2020-06-14T17:23:51Z</time>
      </trkpt>
      <trkpt lat="49.51337" lon="-1.85941">
        <ele>53</ele>
        <time>2020-06-14T17:23:52Z</time>
      </trkpt>
      <trkpt lat="49.51337" lon="-1.85946">
        <ele>53.4</ele>
        <time>2020-06-14T17:23:53Z</time>
      </trkpt>
      <trkpt lat="49.51337" lon="-1.85948">
        <ele>53.5</ele>
        <time>2020-06-14T17:23:54Z</time>
      </trkpt>
      <trkpt lat="49.51338" lon="-1.85953">
        <ele>53.9</ele>
        <time>2020-06-14T17:23:55Z</time>
      </trkpt>
      <trkpt lat="49.51338" lon="-1.85954">
        <ele>54</ele>
        <time>2020-06-14T17:23:56Z</time>
      </trkpt>
      <trkpt lat="49.51339" lon="-1.85959">
        <ele>54.3</ele>
        <time>2020-06-14T17:23:57Z</time>
      </trkpt>
      <trkpt lat="49.51339" lon="-1.8596">
        <ele>54.4</ele>
        <time>2020-06-14T17:23:58Z</time>
      </trkpt>
      <trkpt lat="49.51339" lon="-1.85962">
        <ele>54.6</ele>
        <time>2020-06-14T17:23:59Z</time>
      </trkpt>
      <trkpt lat="49.5134" lon="-1.85965">
        <ele>54.8</ele>
        <time>2020-06-14T17:24:00Z</time>
      </trkpt>
      <trkpt lat="49.51342" lon="-1.8597">
        <ele>55.2</ele>
        <time>2020-06-14T17:24:01Z</time>
      </trkpt>
      <trkpt lat="49.51342" lon="-1.85971">
        <ele>55.4</ele>
        <time>2020-06-14T17:24:02Z</time>
      </trkpt>
      <trkpt lat="49.51343" lon="-1.85976">
        <ele>55.7</ele>
        <time>2020-06-14T17:24:03Z</time>
      </trkpt>
      <trkpt lat="49.51343" lon="-1.85978">
        <ele>55.9</ele>
        <time>2020-06-14T17:24:04Z</time>
      </trkpt>
      <trkpt lat="49.51344" lon="-1.85983">
        <ele>56.3</ele>
        <time>2020-06-14T17:24:05Z</time>
      </trkpt>
      <trkpt lat="49.51344" lon="-1.85985">
        <ele>56.4</ele>
        <time>2020-06-14T17:24:06Z</time>
      </trkpt>
      <trkpt lat="49.51344" lon="-1.8599">
        <ele>56.8</ele>
        <time>2020-06-14T17:24:07Z</time>
      </trkpt>
      <trkpt lat="49.51344" lon="-1.85991">
        <ele>56.9</ele>
        <time>2020-06-14T17:24:08Z</time>
      </trkpt>
      <trkpt lat="49.51345" lon="-1.85996">
        <ele>57.3</ele>
        <time>2020-06-14T17:24:09Z</time>
      </trkpt>
      <trkpt lat="49.51345" lon="-1.85998">
        <ele>57.5</ele>
        <time>2020-06-14T17:24:10Z</time>
      </trkpt>
      <trkpt lat="49.51346" lon="-1.86003">
        <ele>57.8</ele>
        <time>2020-06-14T17:24:11Z</time>
      </trkpt>
      <trkpt lat="49.51346" lon="-1.86005">
        <ele>58</ele>
        <time>2020-06-14T17:24:12Z</time>
      </trkpt>
      <trkpt lat="49.51346" lon="-1.86007">
        <ele>58.1</ele>
        <time>2020-06-14T17:24:13Z</time>
      </trkpt>
      <trkpt lat="49.51347" lon="-1.8601">
        <ele>58.4</ele>
        <time>2020-06-14T17:24:14Z</time>
      </trkpt>
      <trkpt lat="49.51349" lon="-1.86015">
        <ele>58.8</ele>
        <time>2020-06-14T17:24:15Z</time>
      </trkpt>
      <trkpt lat="49.51349" lon="-1.86017">
        <ele>58.9</ele>
        <time>2020-06-14T17:24:16Z</time>
      </trkpt>
      <trkpt lat="49.5135" lon="-1.86022">
        <ele>59.4</ele>
        <time>2020-06-14T17:24:17Z</time>
      </trkpt>
      <trkpt lat="49.51351" lon="-1.86024">
        <ele>59.5</ele>
        <time>2020-06-14T17:24:18Z</time>
      </trkpt>
      <trkpt lat="49.51351" lon="-1.86029">
        <ele>59.9</ele>
        <time>2020-06-14T17:24:19Z</time>
      </trkpt>
      <trkpt lat="49.51352" lon="-1.8603">
        <ele>60</ele>
        <time>2020-06-14T17:24:20Z</time>
      </trkpt>
      <trkpt lat="49.51352" lon="-1.86035">
        <ele>60.4</ele>
        <time>2020-06-14T17:24:21Z</time>
      </trkpt>
      <trkpt lat="49.51352" lon="-1.86037">
        <ele>60.5</ele>
        <time>2020-06-14T17:24:22Z</time>
      </trkpt>
      <trkpt lat="49.51353" lon="-1.86039">
        <ele>60.7</ele>
        <time>2020-06-14T17:24:23Z</time>
      </trkpt>
      <trkpt lat="49.51353" lon="-1.86041">
        <ele>60.8</ele>
        <time>2020-06-14T17:24:24Z</time>
      </trkpt>
      <trkpt lat="49.51354" lon="-1.86046">
        <ele>61.2</ele>
        <time>2020-06-14T17:24:25Z</time>
      </trkpt>
      <trkpt lat="49.51355" lon="-1.86047">
        <ele>61.3</ele>
        <time>2020-06-14T17:24:26Z</time>
      </trkpt>
      <trkpt lat="49.51355" lon="-1.86049">
        <ele>61.5</ele>
        <time>2020-06-14T17:24:27Z</time>
      </trkpt>
      <trkpt lat="49.51356" lon="-1.86052">
        <ele>61.6</ele>
        <time>2020-06-14T17:24:28Z</time>
      </trkpt>
      <trkpt lat="49.51357" lon="-1.86057">
        <ele>62.3</ele>
        <time>2020-06-14T17:24:29Z</time>
      </trkpt>
      <trkpt lat="49.51357" lon="-1.86059">
        <ele>62.4</ele>
        <time>2020-06-14T17:24:30Z</time>
      </trkpt>
      <trkpt lat="49.51358" lon="-1.86063">
        <ele>62.6</ele>
        <time>2020-06-14T17:24:31Z</time>
      </trkpt>
      <trkpt lat="49.51358" lon="-1.86064">
        <ele>62.6</ele>
        <time>2020-06-14T17:24:32Z</time>
      </trkpt>
      <trkpt lat="49.51359" lon="-1.86068">
        <ele>62.8</ele>
        <time>2020-06-14T17:24:33Z</time>
      </trkpt>
      <trkpt lat="49.51361" lon="-1.86073">
        <ele>63</ele>
        <time>2020-06-14T17:24:34Z</time>
      </trkpt>
      <trkpt lat="49.51361" lon="-1.86074">
        <ele>63.1</ele>
        <time>2020-06-14T17:24:35Z</time>
      </trkpt>
      <trkpt lat="49.51363" lon="-1.86078">
        <ele>63.2</ele>
        <time>2020-06-14T17:24:36Z</time>
      </trkpt>
      <trkpt lat="49.51365" lon="-1.86081">
        <ele>63.4</ele>
        <time>2020-06-14T17:24:37Z</time>
      </trkpt>
      <trkpt lat="49.51366" lon="-1.86082">
        <ele>63.4</ele>
        <time>2020-06-14T17:24:38Z</time>
      </trkpt>
      <trkpt lat="49.51369" lon="-1.86084">
        <ele>63.8</ele>
        <time>2020-06-14T17:24:39Z</time>
      </trkpt>
      <trkpt lat="49.5137" lon="-1.86085">
        <ele>63.9</ele>
        <time>2020-06-14T17:24:40Z</time>
      </trkpt>
      <trkpt lat="49.51374" lon="-1.86087">
        <ele>64.2</ele>
        <time>2020-06-14T17:24:41Z</time>
      </trkpt>
      <trkpt lat="49.51375" lon="-1.86088">
        <ele>64.4</ele>
        <time>2020-06-14T17:24:42Z</time>
      </trkpt>
      <trkpt lat="49.51378" lon="-1.8609">
        <ele>64.6</ele>
        <time>2020-06-14T17:24:43Z</time>
      </trkpt>
      <trkpt lat="49.51381" lon="-1.86091">
        <ele>64.9</ele>
        <time>2020-06-14T17:24:44Z</time>
      </trkpt>
      <trkpt lat="49.51383" lon="-1.86091">
        <ele>65</ele>
        <time>2020-06-14T17:24:45Z</time>
      </trkpt>
      <trkpt lat="49.51386" lon="-1.86091">
        <ele>65.4</ele>
        <time>2020-06-14T17:24:46Z</time>
      </trkpt>
      <trkpt lat="49.51387" lon="-1.86091">
        <ele>65.5</ele>
        <time>2020-06-14T17:24:47Z</time>
      </trkpt>
      <trkpt lat="49.51391" lon="-1.86092">
        <ele>65.8</ele>
        <time>2020-06-14T17:24:48Z</time>
      </trkpt>
      <trkpt lat="49.51392" lon="-1.86093">
        <ele>65.9</ele>
        <time>2020-06-14T17:24:49Z</time>
      </trkpt>
      <trkpt lat="49.51395" lon="-1.86094">
        <ele>66.2</ele>
        <time>2020-06-14T17:24:50Z</time>
      </trkpt>
      <trkpt lat="49.51395" lon="-1.86094">
        <ele>66.3</ele>
        <time>2020-06-14T17:24:51Z</time>
      </trkpt>
      <trkpt lat="49.51398" lon="-1.86096">
        <ele>66.6</ele>
        <time>2020-06-14T17:24:52Z</time>
      </trkpt>
      <trkpt lat="49.51399" lon="-1.86097">
        <ele>66.7</ele>
        <time>2020-06-14T17:24:53Z</time>
      </trkpt>
      <trkpt lat="49.51402" lon="-1.86098">
        <ele>67</ele>
        <time>2020-06-14T17:24:54Z</time>
      </trkpt>
      <trkpt lat="49.51404" lon="-1.86098">
        <ele>67.2</ele>
        <time>2020-06-14T17:24:55Z</time>
      </trkpt>
      <trkpt lat="49.51407" lon="-1.86099">
        <ele>67.5</ele>
        <time>2020-06-14T17:24:56Z</time>
      </trkpt>
      <trkpt lat="49.51408" lon="-1.861">
        <ele>67.6</ele>
        <time>2020-06-14T17:24:57Z</time>
      </trkpt>
      <trkpt lat="49.5141" lon="-1.86101">
        <ele>67.9</ele>
        <time>2020-06-14T17:24:58Z</time>
      </trkpt>
      <trkpt lat="49.51411" lon="-1.86101">
        <ele>68</ele>
        <time>2020-06-14T17:24:59Z</time>
      </trkpt>
      <trkpt lat="49.51415" lon="-1.86102">
        <ele>68.3</ele>
        <time>2020-06-14T17:25:00Z</time>
      </trkpt>
      <trkpt lat="49.51416" lon="-1.86103">
        <ele>68.4</ele>
        <time>2020-06-14T17:25:01Z</time>
      </trkpt>
      <trkpt lat="49.5142" lon="-1.86105">
        <ele>68.8</ele>
        <time>2020-06-14T17:25:02Z</time>
      </trkpt>
      <trkpt lat="49.51421" lon="-1.86105">
        <ele>68.9</ele>
        <time>2020-06-14T17:25:03Z</time>
      </trkpt>
      <trkpt lat="49.51424" lon="-1.86107">
        <ele>69.2</ele>
        <time>2020-06-14T17:25:04Z</time>
      </trkpt>
      <trkpt lat="49.51425" lon="-1.86107">
        <ele>69.3</ele>
        <time>2020-06-14T17:25:05Z</time>
      </trkpt>
      <trkpt lat="49.51428" lon="-1.86109">
        <ele>69.6</ele>
        <time>2020-06-14T17:25:06Z</time>
      </trkpt>
      <trkpt lat="49.51429" lon="-1.8611">
        <ele>69.7</ele>
        <time>2020-06-14T17:25:07Z</time>
      </trkpt>
      <trkpt lat="49.51433" lon="-1.86111">
        <ele>70.1</ele>
        <time>2020-06-14T17:25:08Z</time>
      </trkpt>
      <trkpt lat="49.51434" lon="-1.86112">
        <ele>70.2</ele>
        <time>2020-06-14T17:25:09Z</time>
      </trkpt>
      <trkpt lat="49.51438" lon="-1.86113">
        <ele>70.5</ele>
        <time>2020-06-14T17:25:10Z</time>
      </trkpt>
      <trkpt lat="49.51439" lon="-1.86114">
        <ele>70.6</ele>
        <time>2020-06-14T17:25:11Z</time>
      </trkpt>
      <trkpt lat="49.51443" lon="-1.86114">
        <ele>70.9</ele>
        <time>2020-06-14T17:25:12Z</time>
      </trkpt>
      <trkpt lat="49.51444" lon="-1.86115">
        <ele>71</ele>
        <time>2020-06-14T17:25:13Z</time>
      </trkpt>
      <trkpt lat="49.51446" lon="-1.86117">
        <ele>71.3</ele>
        <time>2020-06-14T17:25:14Z</time>
      </trkpt>
      <trkpt lat="49.51449" lon="-1.86119">
        <ele>71.5</ele>
        <time>2020-06-14T17:25:15Z</time>
      </trkpt>
      <trkpt lat="49.51451" lon="-1.86122">
        <ele>71.8</ele>
        <time>2020-06-14T17:25:16Z</time>
      </trkpt>
      <trkpt lat="49.51454" lon="-1.86124">
        <ele>72</ele>
        <time>2020-06-14T17:25:17Z</time>
      </trkpt>
      <trkpt lat="49.51457" lon="-1.86128">
        <ele>72.3</ele>
        <time>2020-06-14T17:25:18Z</time>
      </trkpt>
      <trkpt lat="49.5146" lon="-1.86131">
        <ele>72.6</ele>
        <time>2020-06-14T17:25:19Z</time>
      </trkpt>
      <trkpt lat="49.51463" lon="-1.86135">
        <ele>72.9</ele>
        <time>2020-06-14T17:25:20Z</time>
      </trkpt>
      <trkpt lat="49.51466" lon="-1.86138">
        <ele>73.2</ele>
        <time>2020-06-14T17:25:21Z</time>
      </trkpt>
      <trkpt lat="49.51468" lon="-1.86142">
        <ele>73.4</ele>
        <time>2020-06-14T17:25:22Z</time>
      </trkpt>
      <trkpt lat="49.51471" lon="-1.86145">
        <ele>73.6</ele>
        <time>2020-06-14T17:25:23Z</time>
      </trkpt>
      <trkpt lat="49.51475" lon="-1.86149">
        <ele>73.9</ele>
        <time>2020-06-14T17:25:24Z</time>
      </trkpt>
      <trkpt lat="49.51476" lon="-1.86151">
        <ele>74.1</ele>
        <time>2020-06-14T17:25:25Z</time>
      </trkpt>
      <trkpt lat="49.51479" lon="-1.86154">
        <ele>74.3</ele>
        <time>2020-06-14T17:25:26Z</time>
      </trkpt>
      <trkpt lat="49.51483" lon="-1.86156">
        <ele>74.5</ele>
        <time>2020-06-14T17:25:27Z</time>
      </trkpt>
      <trkpt lat="49.51484" lon="-1.86157">
        <ele>74.6</ele>
        <time>2020-06-14T17:25:28Z</time>
      </trkpt>
      <trkpt lat="49.51487" lon="-1.86159">
        <ele>74.8</ele>
        <time>2020-06-14T17:25:29Z</time>
      </trkpt>
      <trkpt lat="49.51491" lon="-1.8616">
        <ele>75</ele>
        <time>2020-06-14T17:25:30Z</time>
      </trkpt>
      <trkpt lat="49.51494" lon="-1.86161">
        <ele>75.2</ele>
        <time>2020-06-14T17:25:31Z</time>
      </trkpt>
      <trkpt lat="49.51497" lon="-1.86162">
        <ele>75.4</ele>
        <time>2020-06-14T17:25:32Z</time>
      </trkpt>
      <trkpt lat="49.515" lon="-1.86163">
        <ele>75.5</ele>
        <time>2020-06-14T17:25:33Z</time>
      </trkpt>
      <trkpt lat="49.51503" lon="-1.86164">
        <ele>75.7</ele>
        <time>2020-06-14T17:25:34Z</time>
      </trkpt>
      <trkpt lat="49.51506" lon="-1.86166">
        <ele>75.9</ele>
        <time>2020-06-14T17:25:35Z</time>
      </trkpt>
      <trkpt lat="49.5151" lon="-1.86169">
        <ele>76.1</ele>
        <time>2020-06-14T17:25:36Z</time>
      </trkpt>
      <trkpt lat="49.51512" lon="-1.8617">
        <ele>76.2</ele>
        <time>2020-06-14T17:25:37Z</time>
      </trkpt>
      <trkpt lat="49.51514" lon="-1.86171">
        <ele>76.4</ele>
        <time>2020-06-14T17:25:38Z</time>
      </trkpt>
      <trkpt lat="49.51517" lon="-1.86174">
        <ele>76.5</ele>
        <time>2020-06-14T17:25:39Z</time>
      </trkpt>
      <trkpt lat="49.5152" lon="-1.86177">
        <ele>76.7</ele>
        <time>2020-06-14T17:25:40Z</time>
      </trkpt>
      <trkpt lat="49.51523" lon="-1.86181">
        <ele>76.9</ele>
        <time>2020-06-14T17:25:41Z</time>
      </trkpt>
      <trkpt lat="49.51525" lon="-1.86186">
        <ele>77</ele>
        <time>2020-06-14T17:25:42Z</time>
      </trkpt>
      <trkpt lat="49.51527" lon="-1.8619">
        <ele>77.1</ele>
        <time>2020-06-14T17:25:43Z</time>
      </trkpt>
      <trkpt lat="49.51529" lon="-1.86195">
        <ele>77.2</ele>
        <time>2020-06-14T17:25:44Z</time>
      </trkpt>
      <trkpt lat="49.51531" lon="-1.86199">
        <ele>77.4</ele>
        <time>2020-06-14T17:25:45Z</time>
      </trkpt>
      <trkpt lat="49.51532" lon="-1.86204">
        <ele>77.5</ele>
        <time>2020-06-14T17:25:46Z</time>
      </trkpt>
      <trkpt lat="49.51534" lon="-1.86209">
        <ele>77.6</ele>
        <time>2020-06-14T17:25:47Z</time>
      </trkpt>
      <trkpt lat="49.51537" lon="-1.86214">
        <ele>77.7</ele>
        <time>2020-06-14T17:25:48Z</time>
      </trkpt>
      <trkpt lat="49.51539" lon="-1.86219">
        <ele>77.8</ele>
        <time>2020-06-14T17:25:49Z</time>
      </trkpt>
      <trkpt lat="49.51541" lon="-1.86224">
        <ele>78</ele>
        <time>2020-06-14T17:25:50Z</time>
      </trkpt>
      <trkpt lat="49.51543" lon="-1.86229">
        <ele>78.1</ele>
        <time>2020-06-14T17:25:51Z</time>
      </trkpt>
      <trkpt lat="49.51545" lon="-1.86235">
        <ele>78.2</ele>
        <time>2020-06-14T17:25:52Z</time>
      </trkpt>
      <trkpt lat="49.51547" lon="-1.8624">
        <ele>78.3</ele>
        <time>2020-06-14T17:25:53Z</time>
      </trkpt>
      <trkpt lat="49.51549" lon="-1.86246">
        <ele>78.3</ele>
        <time>2020-06-14T17:25:54Z</time>
      </trkpt>
      <trkpt lat="49.51551" lon="-1.86252">
        <ele>78.4</ele>
        <time>2020-06-14T17:25:55Z</time>
      </trkpt>
      <trkpt lat="49.51553" lon="-1.86257">
        <ele>78.4</ele>
        <time>2020-06-14T17:25:56Z</time>
      </trkpt>
      <trkpt lat="49.51556" lon="-1.86262">
        <ele>78.4</ele>
        <time>2020-06-14T17:25:57Z</time>
      </trkpt>
      <trkpt lat="49.51557" lon="-1.86267">
        <ele>78.5</ele>
        <time>2020-06-14T17:25:58Z</time>
      </trkpt>
      <trkpt lat="49.51559" lon="-1.86272">
        <ele>78.5</ele>
        <time>2020-06-14T17:25:59Z</time>
      </trkpt>
      <trkpt lat="49.51562" lon="-1.86278">
        <ele>78.6</ele>
        <time>2020-06-14T17:26:00Z</time>
      </trkpt>
      <trkpt lat="49.51565" lon="-1.86283">
        <ele>78.6</ele>
        <time>2020-06-14T17:26:01Z</time>
      </trkpt>
      <trkpt lat="49.51568" lon="-1.86289">
        <ele>78.7</ele>
        <time>2020-06-14T17:26:02Z</time>
      </trkpt>
      <trkpt lat="49.51571" lon="-1.86295">
        <ele>78.7</ele>
        <time>2020-06-14T17:26:03Z</time>
      </trkpt>
      <trkpt lat="49.51575" lon="-1.86299">
        <ele>78.8</ele>
        <time>2020-06-14T17:26:04Z</time>
      </trkpt>
      <trkpt lat="49.51578" lon="-1.86305">
        <ele>78.9</ele>
        <time>2020-06-14T17:26:05Z</time>
      </trkpt>
      <trkpt lat="49.51582" lon="-1.86311">
        <ele>79</ele>
        <time>2020-06-14T17:26:06Z</time>
      </trkpt>
      <trkpt lat="49.51586" lon="-1.86316">
        <ele>79.1</ele>
        <time>2020-06-14T17:26:07Z</time>
      </trkpt>
      <trkpt lat="49.51589" lon="-1.86321">
        <ele>79.2</ele>
        <time>2020-06-14T17:26:08Z</time>
      </trkpt>
      <trkpt lat="49.51594" lon="-1.86326">
        <ele>79.3</ele>
        <time>2020-06-14T17:26:09Z</time>
      </trkpt>
      <trkpt lat="49.51598" lon="-1.86331">
        <ele>79.5</ele>
        <time>2020-06-14T17:26:10Z</time>
      </trkpt>
      <trkpt lat="49.51602" lon="-1.86336">
        <ele>79.5</ele>
        <time>2020-06-14T17:26:11Z</time>
      </trkpt>
      <trkpt lat="49.51605" lon="-1.86342">
        <ele>79.6</ele>
        <time>2020-06-14T17:26:12Z</time>
      </trkpt>
      <trkpt lat="49.51608" lon="-1.86347">
        <ele>79.7</ele>
        <time>2020-06-14T17:26:13Z</time>
      </trkpt>
      <trkpt lat="49.51612" lon="-1.86352">
        <ele>79.7</ele>
        <time>2020-06-14T17:26:14Z</time>
      </trkpt>
      <trkpt lat="49.51615" lon="-1.86357">
        <ele>79.8</ele>
        <time>2020-06-14T17:26:15Z</time>
      </trkpt>
      <trkpt lat="49.51619" lon="-1.86363">
        <ele>79.9</ele>
        <time>2020-06-14T17:26:16Z</time>
      </trkpt>
      <trkpt lat="49.51623" lon="-1.86369">
        <ele>80.1</ele>
        <time>2020-06-14T17:26:17Z</time>
      </trkpt>
      <trkpt lat="49.51627" lon="-1.86376">
        <ele>80.2</ele>
        <time>2020-06-14T17:26:18Z</time>
      </trkpt>
      <trkpt lat="49.5163" lon="-1.86382">
        <ele>80.4</ele>
        <time>2020-06-14T17:26:19Z</time>
      </trkpt>
      <trkpt lat="49.51634" lon="-1.86387">
        <ele>80.5</ele>
        <time>2020-06-14T17:26:20Z</time>
      </trkpt>
      <trkpt lat="49.51638" lon="-1.86392">
        <ele>80.7</ele>
        <time>2020-06-14T17:26:21Z</time>
      </trkpt>
      <trkpt lat="49.51642" lon="-1.86397">
        <ele>80.9</ele>
        <time>2020-06-14T17:26:22Z</time>
      </trkpt>
      <trkpt lat="49.51646" lon="-1.86401">
        <ele>81.1</ele>
        <time>2020-06-14T17:26:23Z</time>
      </trkpt>
      <trkpt lat="49.51649" lon="-1.86406">
        <ele>81.2</ele>
        <time>2020-06-14T17:26:24Z</time>
      </trkpt>
      <trkpt lat="49.51652" lon="-1.86411">
        <ele>81.4</ele>
        <time>2020-06-14T17:26:25Z</time>
      </trkpt>
      <trkpt lat="49.51655" lon="-1.86415">
        <ele>81.6</ele>
        <time>2020-06-14T17:26:26Z</time>
      </trkpt>
      <trkpt lat="49.51658" lon="-1.86418">
        <ele>81.7</ele>
        <time>2020-06-14T17:26:27Z</time>
      </trkpt>
      <trkpt lat="49.51661" lon="-1.86421">
        <ele>81.8</ele>
        <time>2020-06-14T17:26:28Z</time>
      </trkpt>
      <trkpt lat="49.51665" lon="-1.86422">
        <ele>82</ele>
        <time>2020-06-14T17:26:29Z</time>
      </trkpt>
      <trkpt lat="49.51669" lon="-1.86421">
        <ele>81.9</ele>
        <time>2020-06-14T17:26:30Z</time>
      </trkpt>
      <trkpt lat="49.51673" lon="-1.86418">
        <ele>81.9</ele>
        <time>2020-06-14T17:26:31Z</time>
      </trkpt>
      <trkpt lat="49.51675" lon="-1.86415">
        <ele>81.9</ele>
        <time>2020-06-14T17:26:32Z</time>
      </trkpt>
      <trkpt lat="49.51678" lon="-1.8641">
        <ele>81.9</ele>
        <time>2020-06-14T17:26:33Z</time>
      </trkpt>
      <trkpt lat="49.5168" lon="-1.86405">
        <ele>81.8</ele>
        <time>2020-06-14T17:26:34Z</time>
      </trkpt>
      <trkpt lat="49.51683" lon="-1.86398">
        <ele>81.8</ele>
        <time>2020-06-14T17:26:35Z</time>
      </trkpt>
      <trkpt lat="49.51686" lon="-1.86391">
        <ele>81.7</ele>
        <time>2020-06-14T17:26:36Z</time>
      </trkpt>
      <trkpt lat="49.51688" lon="-1.86384">
        <ele>81.7</ele>
        <time>2020-06-14T17:26:37Z</time>
      </trkpt>
      <trkpt lat="49.5169" lon="-1.86377">
        <ele>81.6</ele>
        <time>2020-06-14T17:26:38Z</time>
      </trkpt>
      <trkpt lat="49.51693" lon="-1.86371">
        <ele>81.5</ele>
        <time>2020-06-14T17:26:39Z</time>
      </trkpt>
      <trkpt lat="49.51696" lon="-1.86364">
        <ele>81.5</ele>
        <time>2020-06-14T17:26:40Z</time>
      </trkpt>
      <trkpt lat="49.517" lon="-1.86358">
        <ele>81.4</ele>
        <time>2020-06-14T17:26:41Z</time>
      </trkpt>
      <trkpt lat="49.51703" lon="-1.86351">
        <ele>81.4</ele>
        <time>2020-06-14T17:26:42Z</time>
      </trkpt>
      <trkpt lat="49.51705" lon="-1.86344">
        <ele>81.3</ele>
        <time>2020-06-14T17:26:43Z</time>
      </trkpt>
      <trkpt lat="49.51708" lon="-1.86338">
        <ele>81.3</ele>
        <time>2020-06-14T17:26:44Z</time>
      </trkpt>
      <trkpt lat="49.51711" lon="-1.86332">
        <ele>81.3</ele>
        <time>2020-06-14T17:26:45Z</time>
      </trkpt>
      <trkpt lat="49.51714" lon="-1.86326">
        <ele>81.3</ele>
        <time>2020-06-14T17:26:46Z</time>
      </trkpt>
      <trkpt lat="49.51716" lon="-1.8632">
        <ele>81.4</ele>
        <time>2020-06-14T17:26:47Z</time>
      </trkpt>
      <trkpt lat="49.51718" lon="-1.86315">
        <ele>81.4</ele>
        <time>2020-06-14T17:26:48Z</time>
      </trkpt>
      <trkpt lat="49.5172" lon="-1.86311">
        <ele>81.4</ele>
        <time>2020-06-14T17:26:49Z</time>
      </trkpt>
      <trkpt lat="49.51721" lon="-1.8631">
        <ele>81.4</ele>
        <time>2020-06-14T17:26:50Z</time>
      </trkpt>
      <trkpt lat="49.5172" lon="-1.86309">
        <ele>81.4</ele>
        <time>2020-06-14T17:26:51Z</time>
      </trkpt>
      <trkpt lat="49.51721" lon="-1.86309">
        <ele>81.4</ele>
        <time>2020-06-14T17:26:52Z</time>
      </trkpt>
      <trkpt lat="49.51721" lon="-1.86309">
        <ele>81.4</ele>
        <time>2020-06-14T17:26:53Z</time>
      </trkpt>
      <trkpt lat="49.51722" lon="-1.8631">
        <ele>81.4</ele>
        <time>2020-06-14T17:26:54Z</time>
      </trkpt>
      <trkpt lat="49.51722" lon="-1.8631">
        <ele>81.4</ele>
        <time>2020-06-14T17:26:55Z</time>
      </trkpt>
      <trkpt lat="49.51723" lon="-1.8631">
        <ele>81.4</ele>
        <time>2020-06-14T17:26:56Z</time>
      </trkpt>
      <trkpt lat="49.51723" lon="-1.86311">
        <ele>81.4</ele>
        <time>2020-06-14T17:26:57Z</time>
      </trkpt>
      <trkpt lat="49.51724" lon="-1.86311">
        <ele>81.4</ele>
        <time>2020-06-14T17:26:58Z</time>
      </trkpt>
      <trkpt lat="49.51724" lon="-1.86311">
        <ele>81.4</ele>
        <time>2020-06-14T17:26:59Z</time>
      </trkpt>
      <trkpt lat="49.51725" lon="-1.86312">
        <ele>81.4</ele>
        <time>2020-06-14T17:27:00Z</time>
      </trkpt>
      <trkpt lat="49.51728" lon="-1.86314">
        <ele>81.4</ele>
        <time>2020-06-14T17:27:01Z</time>
      </trkpt>
      <trkpt lat="49.5173" lon="-1.86318">
        <ele>81.5</ele>
        <time>2020-06-14T17:27:02Z</time>
      </trkpt>
      <trkpt lat="49.51733" lon="-1.86323">
        <ele>81.5</ele>
        <time>2020-06-14T17:27:03Z</time>
      </trkpt>
      <trkpt lat="49.51736" lon="-1.86327">
        <ele>81.6</ele>
        <time>2020-06-14T17:27:04Z</time>
      </trkpt>
      <trkpt lat="49.51739" lon="-1.86331">
        <ele>81.6</ele>
        <time>2020-06-14T17:27:05Z</time>
      </trkpt>
      <trkpt lat="49.51742" lon="-1.86335">
        <ele>81.7</ele>
        <time>2020-06-14T17:27:06Z</time>
      </trkpt>
      <trkpt lat="49.51745" lon="-1.8634">
        <ele>81.7</ele>
        <time>2020-06-14T17:27:07Z</time>
      </trkpt>
      <trkpt lat="49.51748" lon="-1.86343">
        <ele>81.8</ele>
        <time>2020-06-14T17:27:08Z</time>
      </trkpt>
      <trkpt lat="49.51751" lon="-1.86348">
        <ele>81.8</ele>
        <time>2020-06-14T17:27:09Z</time>
      </trkpt>
      <trkpt lat="49.51754" lon="-1.86351">
        <ele>81.9</ele>
        <time>2020-06-14T17:27:10Z</time>
      </trkpt>
      <trkpt lat="49.51757" lon="-1.86354">
        <ele>81.9</ele>
        <time>2020-06-14T17:27:11Z</time>
      </trkpt>
      <trkpt lat="49.5176" lon="-1.86357">
        <ele>81.9</ele>
        <time>2020-06-14T17:27:12Z</time>
      </trkpt>
      <trkpt lat="49.51764" lon="-1.8636">
        <ele>82</ele>
        <time>2020-06-14T17:27:13Z</time>
      </trkpt>
      <trkpt lat="49.51767" lon="-1.86364">
        <ele>82.1</ele>
        <time>2020-06-14T17:27:14Z</time>
      </trkpt>
      <trkpt lat="49.51771" lon="-1.86369">
        <ele>82.2</ele>
        <time>2020-06-14T17:27:15Z</time>
      </trkpt>
      <trkpt lat="49.51774" lon="-1.86373">
        <ele>82.2</ele>
        <time>2020-06-14T17:27:16Z</time>
      </trkpt>
      <trkpt lat="49.51778" lon="-1.86376">
        <ele>82.3</ele>
        <time>2020-06-14T17:27:17Z</time>
      </trkpt>
      <trkpt lat="49.51781" lon="-1.86381">
        <ele>82.4</ele>
        <time>2020-06-14T17:27:18Z</time>
      </trkpt>
      <trkpt lat="49.51784" lon="-1.86387">
        <ele>82.5</ele>
        <time>2020-06-14T17:27:19Z</time>
      </trkpt>
      <trkpt lat="49.51788" lon="-1.86393">
        <ele>82.6</ele>
        <time>2020-06-14T17:27:20Z</time>
      </trkpt>
      <trkpt lat="49.51791" lon="-1.86398">
        <ele>82.7</ele>
        <time>2020-06-14T17:27:21Z</time>
      </trkpt>
      <trkpt lat="49.51795" lon="-1.86402">
        <ele>82.8</ele>
        <time>2020-06-14T17:27:22Z</time>
      </trkpt>
      <trkpt lat="49.51798" lon="-1.86405">
        <ele>82.9</ele>
        <time>2020-06-14T17:27:23Z</time>
      </trkpt>
      <trkpt lat="49.518" lon="-1.8641">
        <ele>82.9</ele>
        <time>2020-06-14T17:27:24Z</time>
      </trkpt>
      <trkpt lat="49.51803" lon="-1.86415">
        <ele>83</ele>
        <time>2020-06-14T17:27:25Z</time>
      </trkpt>
      <trkpt lat="49.51806" lon="-1.8642">
        <ele>83.1</ele>
        <time>2020-06-14T17:27:26Z</time>
      </trkpt>
      <trkpt lat="49.5181" lon="-1.86425">
        <ele>83.1</ele>
        <time>2020-06-14T17:27:27Z</time>
      </trkpt>
      <trkpt lat="49.51813" lon="-1.8643">
        <ele>83.2</ele>
        <time>2020-06-14T17:27:28Z</time>
      </trkpt>
      <trkpt lat="49.51816" lon="-1.86434">
        <ele>83.2</ele>
        <time>2020-06-14T17:27:29Z</time>
      </trkpt>
      <trkpt lat="49.51819" lon="-1.8644">
        <ele>83.3</ele>
        <time>2020-06-14T17:27:30Z</time>
      </trkpt>
      <trkpt lat="49.51822" lon="-1.86446">
        <ele>83.3</ele>
        <time>2020-06-14T17:27:31Z</time>
      </trkpt>
      <trkpt lat="49.51825" lon="-1.86452">
        <ele>83.3</ele>
        <time>2020-06-14T17:27:32Z</time>
      </trkpt>
      <trkpt lat="49.51829" lon="-1.86458">
        <ele>83.3</ele>
        <time>2020-06-14T17:27:33Z</time>
      </trkpt>
      <trkpt lat="49.51832" lon="-1.86464">
        <ele>83.3</ele>
        <time>2020-06-14T17:27:34Z</time>
      </trkpt>
      <trkpt lat="49.51836" lon="-1.8647">
        <ele>83.3</ele>
        <time>2020-06-14T17:27:35Z</time>
      </trkpt>
      <trkpt lat="49.51839" lon="-1.86476">
        <ele>83.3</ele>
        <time>2020-06-14T17:27:36Z</time>
      </trkpt>
      <trkpt lat="49.51843" lon="-1.86482">
        <ele>83.3</ele>
        <time>2020-06-14T17:27:37Z</time>
      </trkpt>
      <trkpt lat="49.51845" lon="-1.86487">
        <ele>83.3</ele>
        <time>2020-06-14T17:27:38Z</time>
      </trkpt>
      <trkpt lat="49.51849" lon="-1.86493">
        <ele>83.3</ele>
        <time>2020-06-14T17:27:39Z</time>
      </trkpt>
      <trkpt lat="49.51852" lon="-1.86497">
        <ele>83.3</ele>
        <time>2020-06-14T17:27:40Z</time>
      </trkpt>
      <trkpt lat="49.51855" lon="-1.86503">
        <ele>83.2</ele>
        <time>2020-06-14T17:27:41Z</time>
      </trkpt>
      <trkpt lat="49.51859" lon="-1.86508">
        <ele>83.2</ele>
        <time>2020-06-14T17:27:42Z</time>
      </trkpt>
      <trkpt lat="49.51863" lon="-1.86513">
        <ele>83.1</ele>
        <time>2020-06-14T17:27:43Z</time>
      </trkpt>
      <trkpt lat="49.51867" lon="-1.86518">
        <ele>83</ele>
        <time>2020-06-14T17:27:44Z</time>
      </trkpt>
      <trkpt lat="49.5187" lon="-1.86522">
        <ele>82.9</ele>
        <time>2020-06-14T17:27:45Z</time>
      </trkpt>
      <trkpt lat="49.51872" lon="-1.86527">
        <ele>82.8</ele>
        <time>2020-06-14T17:27:46Z</time>
      </trkpt>
      <trkpt lat="49.51876" lon="-1.86532">
        <ele>82.6</ele>
        <time>2020-06-14T17:27:47Z</time>
      </trkpt>
      <trkpt lat="49.51879" lon="-1.86536">
        <ele>82.5</ele>
        <time>2020-06-14T17:27:48Z</time>
      </trkpt>
      <trkpt lat="49.51882" lon="-1.86539">
        <ele>82.4</ele>
        <time>2020-06-14T17:27:49Z</time>
      </trkpt>
      <trkpt lat="49.51885" lon="-1.86545">
        <ele>82.2</ele>
        <time>2020-06-14T17:27:50Z</time>
      </trkpt>
      <trkpt lat="49.51889" lon="-1.8655">
        <ele>82</ele>
        <time>2020-06-14T17:27:51Z</time>
      </trkpt>
      <trkpt lat="49.51892" lon="-1.86555">
        <ele>81.8</ele>
        <time>2020-06-14T17:27:52Z</time>
      </trkpt>
      <trkpt lat="49.51896" lon="-1.86561">
        <ele>81.5</ele>
        <time>2020-06-14T17:27:53Z</time>
      </trkpt>
      <trkpt lat="49.51899" lon="-1.86567">
        <ele>81.3</ele>
        <time>2020-06-14T17:27:54Z</time>
      </trkpt>
      <trkpt lat="49.51903" lon="-1.86575">
        <ele>80.9</ele>
        <time>2020-06-14T17:27:55Z</time>
      </trkpt>
      <trkpt lat="49.51909" lon="-1.86582">
        <ele>80.5</ele>
        <time>2020-06-14T17:27:56Z</time>
      </trkpt>
      <trkpt lat="49.51912" lon="-1.86591">
        <ele>80.1</ele>
        <time>2020-06-14T17:27:57Z</time>
      </trkpt>
      <trkpt lat="49.51915" lon="-1.86601">
        <ele>79.6</ele>
        <time>2020-06-14T17:27:58Z</time>
      </trkpt>
      <trkpt lat="49.51918" lon="-1.86612">
        <ele>79.1</ele>
        <time>2020-06-14T17:27:59Z</time>
      </trkpt>
      <trkpt lat="49.51922" lon="-1.86623">
        <ele>78.7</ele>
        <time>2020-06-14T17:28:00Z</time>
      </trkpt>
      <trkpt lat="49.51926" lon="-1.86635">
        <ele>78.2</ele>
        <time>2020-06-14T17:28:01Z</time>
      </trkpt>
      <trkpt lat="49.51931" lon="-1.86645">
        <ele>77.9</ele>
        <time>2020-06-14T17:28:02Z</time>
      </trkpt>
      <trkpt lat="49.51937" lon="-1.86655">
        <ele>78.1</ele>
        <time>2020-06-14T17:28:03Z</time>
      </trkpt>
      <trkpt lat="49.51943" lon="-1.86663">
        <ele>77.7</ele>
        <time>2020-06-14T17:28:04Z</time>
      </trkpt>
      <trkpt lat="49.51949" lon="-1.86669">
        <ele>77.4</ele>
        <time>2020-06-14T17:28:05Z</time>
      </trkpt>
      <trkpt lat="49.51958" lon="-1.86674">
        <ele>77</ele>
        <time>2020-06-14T17:28:06Z</time>
      </trkpt>
      <trkpt lat="49.51965" lon="-1.86677">
        <ele>76.7</ele>
        <time>2020-06-14T17:28:07Z</time>
      </trkpt>
      <trkpt lat="49.51973" lon="-1.8668">
        <ele>76.4</ele>
        <time>2020-06-14T17:28:08Z</time>
      </trkpt>
      <trkpt lat="49.5198" lon="-1.86684">
        <ele>76.1</ele>
        <time>2020-06-14T17:28:09Z</time>
      </trkpt>
      <trkpt lat="49.51986" lon="-1.86687">
        <ele>76.1</ele>
        <time>2020-06-14T17:28:10Z</time>
      </trkpt>
      <trkpt lat="49.51992" lon="-1.86691">
        <ele>76.1</ele>
        <time>2020-06-14T17:28:11Z</time>
      </trkpt>
      <trkpt lat="49.51998" lon="-1.86693">
        <ele>76.1</ele>
        <time>2020-06-14T17:28:12Z</time>
      </trkpt>
      <trkpt lat="49.52005" lon="-1.86696">
        <ele>76.1</ele>
        <time>2020-06-14T17:28:13Z</time>
      </trkpt>
      <trkpt lat="49.52011" lon="-1.867">
        <ele>76.1</ele>
        <time>2020-06-14T17:28:14Z</time>
      </trkpt>
      <trkpt lat="49.52018" lon="-1.86703">
        <ele>76.2</ele>
        <time>2020-06-14T17:28:15Z</time>
      </trkpt>
      <trkpt lat="49.52024" lon="-1.86705">
        <ele>76.2</ele>
        <time>2020-06-14T17:28:16Z</time>
      </trkpt>
      <trkpt lat="49.52031" lon="-1.86706">
        <ele>76.2</ele>
        <time>2020-06-14T17:28:17Z</time>
      </trkpt>
      <trkpt lat="49.52037" lon="-1.86708">
        <ele>76.2</ele>
        <time>2020-06-14T17:28:18Z</time>
      </trkpt>
      <trkpt lat="49.52043" lon="-1.8671">
        <ele>76.2</ele>
        <time>2020-06-14T17:28:19Z</time>
      </trkpt>
      <trkpt lat="49.52049" lon="-1.8671">
        <ele>76.3</ele>
        <time>2020-06-14T17:28:20Z</time>
      </trkpt>
      <trkpt lat="49.52055" lon="-1.86712">
        <ele>76.4</ele>
        <time>2020-06-14T17:28:21Z</time>
      </trkpt>
      <trkpt lat="49.5206" lon="-1.86713">
        <ele>76.4</ele>
        <time>2020-06-14T17:28:22Z</time>
      </trkpt>
      <trkpt lat="49.52066" lon="-1.86715">
        <ele>76.5</ele>
        <time>2020-06-14T17:28:23Z</time>
      </trkpt>
      <trkpt lat="49.52072" lon="-1.86717">
        <ele>76.7</ele>
        <time>2020-06-14T17:28:24Z</time>
      </trkpt>
      <trkpt lat="49.52077" lon="-1.86719">
        <ele>76.8</ele>
        <time>2020-06-14T17:28:25Z</time>
      </trkpt>
      <trkpt lat="49.52082" lon="-1.86722">
        <ele>76.9</ele>
        <time>2020-06-14T17:28:26Z</time>
      </trkpt>
      <trkpt lat="49.52087" lon="-1.86726">
        <ele>77</ele>
        <time>2020-06-14T17:28:27Z</time>
      </trkpt>
      <trkpt lat="49.52092" lon="-1.86729">
        <ele>77.1</ele>
        <time>2020-06-14T17:28:28Z</time>
      </trkpt>
      <trkpt lat="49.52096" lon="-1.86734">
        <ele>77.2</ele>
        <time>2020-06-14T17:28:29Z</time>
      </trkpt>
      <trkpt lat="49.52101" lon="-1.86738">
        <ele>77.3</ele>
        <time>2020-06-14T17:28:30Z</time>
      </trkpt>
      <trkpt lat="49.52105" lon="-1.86743">
        <ele>77.3</ele>
        <time>2020-06-14T17:28:31Z</time>
      </trkpt>
      <trkpt lat="49.52109" lon="-1.86748">
        <ele>77.4</ele>
        <time>2020-06-14T17:28:32Z</time>
      </trkpt>
      <trkpt lat="49.52113" lon="-1.86752">
        <ele>77.5</ele>
        <time>2020-06-14T17:28:33Z</time>
      </trkpt>
      <trkpt lat="49.52117" lon="-1.86756">
        <ele>77.6</ele>
        <time>2020-06-14T17:28:34Z</time>
      </trkpt>
      <trkpt lat="49.52122" lon="-1.86761">
        <ele>77.8</ele>
        <time>2020-06-14T17:28:35Z</time>
      </trkpt>
      <trkpt lat="49.52126" lon="-1.86765">
        <ele>77.9</ele>
        <time>2020-06-14T17:28:36Z</time>
      </trkpt>
      <trkpt lat="49.52131" lon="-1.86769">
        <ele>78</ele>
        <time>2020-06-14T17:28:37Z</time>
      </trkpt>
      <trkpt lat="49.52135" lon="-1.86773">
        <ele>78.2</ele>
        <time>2020-06-14T17:28:38Z</time>
      </trkpt>
      <trkpt lat="49.52139" lon="-1.86777">
        <ele>78.3</ele>
        <time>2020-06-14T17:28:39Z</time>
      </trkpt>
      <trkpt lat="49.52144" lon="-1.86782">
        <ele>78.4</ele>
        <time>2020-06-14T17:28:40Z</time>
      </trkpt>
      <trkpt lat="49.52148" lon="-1.86787">
        <ele>78.5</ele>
        <time>2020-06-14T17:28:41Z</time>
      </trkpt>
      <trkpt lat="49.52153" lon="-1.86791">
        <ele>78.7</ele>
        <time>2020-06-14T17:28:42Z</time>
      </trkpt>
      <trkpt lat="49.52157" lon="-1.86795">
        <ele>78.8</ele>
        <time>2020-06-14T17:28:43Z</time>
      </trkpt>
      <trkpt lat="49.52161" lon="-1.868">
        <ele>79</ele>
        <time>2020-06-14T17:28:44Z</time>
      </trkpt>
      <trkpt lat="49.52165" lon="-1.86805">
        <ele>79.2</ele>
        <time>2020-06-14T17:28:45Z</time>
      </trkpt>
      <trkpt lat="49.52169" lon="-1.86809">
        <ele>79.4</ele>
        <time>2020-06-14T17:28:46Z</time>
      </trkpt>
      <trkpt lat="49.52172" lon="-1.86814">
        <ele>79.5</ele>
        <time>2020-06-14T17:28:47Z</time>
      </trkpt>
      <trkpt lat="49.52175" lon="-1.86819">
        <ele>79.7</ele>
        <time>2020-06-14T17:28:48Z</time>
      </trkpt>
      <trkpt lat="49.52179" lon="-1.86824">
        <ele>79.9</ele>
        <time>2020-06-14T17:28:49Z</time>
      </trkpt>
      <trkpt lat="49.52183" lon="-1.86828">
        <ele>80.1</ele>
        <time>2020-06-14T17:28:50Z</time>
      </trkpt>
      <trkpt lat="49.52186" lon="-1.86834">
        <ele>80.3</ele>
        <time>2020-06-14T17:28:51Z</time>
      </trkpt>
      <trkpt lat="49.52189" lon="-1.8684">
        <ele>80.4</ele>
        <time>2020-06-14T17:28:52Z</time>
      </trkpt>
      <trkpt lat="49.52192" lon="-1.86844">
        <ele>80.6</ele>
        <time>2020-06-14T17:28:53Z</time>
      </trkpt>
      <trkpt lat="49.52196" lon="-1.86847">
        <ele>80.7</ele>
        <time>2020-06-14T17:28:54Z</time>
      </trkpt>
      <trkpt lat="49.52201" lon="-1.86848">
        <ele>80.8</ele>
        <time>2020-06-14T17:28:55Z</time>
      </trkpt>
      <trkpt lat="49.52206" lon="-1.86848">
        <ele>81</ele>
        <time>2020-06-14T17:28:56Z</time>
      </trkpt>
      <trkpt lat="49.5221" lon="-1.86847">
        <ele>81.1</ele>
        <time>2020-06-14T17:28:57Z</time>
      </trkpt>
      <trkpt lat="49.52214" lon="-1.86847">
        <ele>81.2</ele>
        <time>2020-06-14T17:28:58Z</time>
      </trkpt>
      <trkpt lat="49.52219" lon="-1.86847">
        <ele>81.2</ele>
        <time>2020-06-14T17:28:59Z</time>
      </trkpt>
      <trkpt lat="49.52223" lon="-1.86849">
        <ele>81.3</ele>
        <time>2020-06-14T17:29:00Z</time>
      </trkpt>
      <trkpt lat="49.52228" lon="-1.86851">
        <ele>81.3</ele>
        <time>2020-06-14T17:29:01Z</time>
      </trkpt>
      <trkpt lat="49.52232" lon="-1.86855">
        <ele>81.2</ele>
        <time>2020-06-14T17:29:02Z</time>
      </trkpt>
      <trkpt lat="49.52235" lon="-1.86859">
        <ele>81</ele>
        <time>2020-06-14T17:29:03Z</time>
      </trkpt>
      <trkpt lat="49.52238" lon="-1.86861">
        <ele>80.9</ele>
        <time>2020-06-14T17:29:04Z</time>
      </trkpt>
      <trkpt lat="49.52242" lon="-1.86861">
        <ele>80.8</ele>
        <time>2020-06-14T17:29:05Z</time>
      </trkpt>
      <trkpt lat="49.52246" lon="-1.86859">
        <ele>80.6</ele>
        <time>2020-06-14T17:29:06Z</time>
      </trkpt>
      <trkpt lat="49.52249" lon="-1.86854">
        <ele>80.4</ele>
        <time>2020-06-14T17:29:07Z</time>
      </trkpt>
      <trkpt lat="49.52253" lon="-1.86848">
        <ele>80.2</ele>
        <time>2020-06-14T17:29:08Z</time>
      </trkpt>
      <trkpt lat="49.52256" lon="-1.86843">
        <ele>79.9</ele>
        <time>2020-06-14T17:29:09Z</time>
      </trkpt>
      <trkpt lat="49.5226" lon="-1.86839">
        <ele>79.7</ele>
        <time>2020-06-14T17:29:10Z</time>
      </trkpt>
      <trkpt lat="49.52263" lon="-1.86834">
        <ele>79.4</ele>
        <time>2020-06-14T17:29:11Z</time>
      </trkpt>
      <trkpt lat="49.52267" lon="-1.86829">
        <ele>79.1</ele>
        <time>2020-06-14T17:29:12Z</time>
      </trkpt>
      <trkpt lat="49.52271" lon="-1.86824">
        <ele>78.8</ele>
        <time>2020-06-14T17:29:13Z</time>
      </trkpt>
      <trkpt lat="49.52274" lon="-1.86819">
        <ele>78.6</ele>
        <time>2020-06-14T17:29:14Z</time>
      </trkpt>
      <trkpt lat="49.52278" lon="-1.86814">
        <ele>78.3</ele>
        <time>2020-06-14T17:29:15Z</time>
      </trkpt>
      <trkpt lat="49.52282" lon="-1.86809">
        <ele>78</ele>
        <time>2020-06-14T17:29:16Z</time>
      </trkpt>
      <trkpt lat="49.52289" lon="-1.86804">
        <ele>77.5</ele>
        <time>2020-06-14T17:29:17Z</time>
      </trkpt>
      <trkpt lat="49.52295" lon="-1.86801">
        <ele>77.1</ele>
        <time>2020-06-14T17:29:18Z</time>
      </trkpt>
      <trkpt lat="49.52303" lon="-1.86799">
        <ele>76.5</ele>
        <time>2020-06-14T17:29:19Z</time>
      </trkpt>
      <trkpt lat="49.52312" lon="-1.86797">
        <ele>75.9</ele>
        <time>2020-06-14T17:29:20Z</time>
      </trkpt>
      <trkpt lat="49.5232" lon="-1.86796">
        <ele>75.3</ele>
        <time>2020-06-14T17:29:21Z</time>
      </trkpt>
      <trkpt lat="49.52327" lon="-1.86794">
        <ele>74.7</ele>
        <time>2020-06-14T17:29:22Z</time>
      </trkpt>
      <trkpt lat="49.52335" lon="-1.86793">
        <ele>74.1</ele>
        <time>2020-06-14T17:29:23Z</time>
      </trkpt>
      <trkpt lat="49.52344" lon="-1.86793">
        <ele>73.4</ele>
        <time>2020-06-14T17:29:24Z</time>
      </trkpt>
      <trkpt lat="49.52353" lon="-1.86791">
        <ele>72.8</ele>
        <time>2020-06-14T17:29:25Z</time>
      </trkpt>
      <trkpt lat="49.52362" lon="-1.86789">
        <ele>72.1</ele>
        <time>2020-06-14T17:29:26Z</time>
      </trkpt>
      <trkpt lat="49.52371" lon="-1.86788">
        <ele>71.5</ele>
        <time>2020-06-14T17:29:27Z</time>
      </trkpt>
      <trkpt lat="49.5238" lon="-1.86787">
        <ele>70.9</ele>
        <time>2020-06-14T17:29:28Z</time>
      </trkpt>
      <trkpt lat="49.52389" lon="-1.86785">
        <ele>70.2</ele>
        <time>2020-06-14T17:29:29Z</time>
      </trkpt>
      <trkpt lat="49.52398" lon="-1.86785">
        <ele>69.7</ele>
        <time>2020-06-14T17:29:30Z</time>
      </trkpt>
      <trkpt lat="49.52408" lon="-1.86786">
        <ele>69.1</ele>
        <time>2020-06-14T17:29:31Z</time>
      </trkpt>
      <trkpt lat="49.52417" lon="-1.86788">
        <ele>68.6</ele>
        <time>2020-06-14T17:29:32Z</time>
      </trkpt>
      <trkpt lat="49.52426" lon="-1.86791">
        <ele>68.1</ele>
        <time>2020-06-14T17:29:33Z</time>
      </trkpt>
      <trkpt lat="49.52436" lon="-1.86793">
        <ele>67.7</ele>
        <time>2020-06-14T17:29:34Z</time>
      </trkpt>
      <trkpt lat="49.52445" lon="-1.86794">
        <ele>67.4</ele>
        <time>2020-06-14T17:29:35Z</time>
      </trkpt>
      <trkpt lat="49.52455" lon="-1.86793">
        <ele>67.2</ele>
        <time>2020-06-14T17:29:36Z</time>
      </trkpt>
      <trkpt lat="49.52464" lon="-1.86791">
        <ele>67</ele>
        <time>2020-06-14T17:29:37Z</time>
      </trkpt>
      <trkpt lat="49.52474" lon="-1.86789">
        <ele>66.9</ele>
        <time>2020-06-14T17:29:38Z</time>
      </trkpt>
      <trkpt lat="49.52483" lon="-1.86786">
        <ele>66.8</ele>
        <time>2020-06-14T17:29:39Z</time>
      </trkpt>
      <trkpt lat="49.52491" lon="-1.86779">
        <ele>66.7</ele>
        <time>2020-06-14T17:29:40Z</time>
      </trkpt>
      <trkpt lat="49.52499" lon="-1.86773">
        <ele>66.8</ele>
        <time>2020-06-14T17:29:41Z</time>
      </trkpt>
      <trkpt lat="49.52507" lon="-1.86767">
        <ele>67.1</ele>
        <time>2020-06-14T17:29:42Z</time>
      </trkpt>
      <trkpt lat="49.52515" lon="-1.86762">
        <ele>67.2</ele>
        <time>2020-06-14T17:29:43Z</time>
      </trkpt>
      <trkpt lat="49.52523" lon="-1.86758">
        <ele>67.2</ele>
        <time>2020-06-14T17:29:44Z</time>
      </trkpt>
      <trkpt lat="49.52531" lon="-1.86756">
        <ele>67.3</ele>
        <time>2020-06-14T17:29:45Z</time>
      </trkpt>
      <trkpt lat="49.52538" lon="-1.86755">
        <ele>67.3</ele>
        <time>2020-06-14T17:29:46Z</time>
      </trkpt>
      <trkpt lat="49.52545" lon="-1.86753">
        <ele>67.4</ele>
        <time>2020-06-14T17:29:47Z</time>
      </trkpt>
      <trkpt lat="49.52553" lon="-1.86753">
        <ele>67.4</ele>
        <time>2020-06-14T17:29:48Z</time>
      </trkpt>
      <trkpt lat="49.5256" lon="-1.86751">
        <ele>67.5</ele>
        <time>2020-06-14T17:29:49Z</time>
      </trkpt>
      <trkpt lat="49.52567" lon="-1.86752">
        <ele>67.5</ele>
        <time>2020-06-14T17:29:50Z</time>
      </trkpt>
      <trkpt lat="49.52574" lon="-1.86752">
        <ele>67.5</ele>
        <time>2020-06-14T17:29:51Z</time>
      </trkpt>
      <trkpt lat="49.52581" lon="-1.8675">
        <ele>67.4</ele>
        <time>2020-06-14T17:29:52Z</time>
      </trkpt>
      <trkpt lat="49.52587" lon="-1.86749">
        <ele>67.4</ele>
        <time>2020-06-14T17:29:53Z</time>
      </trkpt>
      <trkpt lat="49.52594" lon="-1.86749">
        <ele>67.3</ele>
        <time>2020-06-14T17:29:54Z</time>
      </trkpt>
      <trkpt lat="49.52601" lon="-1.86748">
        <ele>67.2</ele>
        <time>2020-06-14T17:29:55Z</time>
      </trkpt>
      <trkpt lat="49.52607" lon="-1.86747">
        <ele>67.1</ele>
        <time>2020-06-14T17:29:56Z</time>
      </trkpt>
      <trkpt lat="49.52614" lon="-1.86745">
        <ele>67</ele>
        <time>2020-06-14T17:29:57Z</time>
      </trkpt>
      <trkpt lat="49.52622" lon="-1.86744">
        <ele>66.8</ele>
        <time>2020-06-14T17:29:58Z</time>
      </trkpt>
      <trkpt lat="49.5263" lon="-1.86743">
        <ele>66.7</ele>
        <time>2020-06-14T17:29:59Z</time>
      </trkpt>
      <trkpt lat="49.52638" lon="-1.86742">
        <ele>66.6</ele>
        <time>2020-06-14T17:30:00Z</time>
      </trkpt>
      <trkpt lat="49.52647" lon="-1.86739">
        <ele>66.4</ele>
        <time>2020-06-14T17:30:01Z</time>
      </trkpt>
      <trkpt lat="49.52655" lon="-1.86737">
        <ele>66.3</ele>
        <time>2020-06-14T17:30:02Z</time>
      </trkpt>
      <trkpt lat="49.52664" lon="-1.86736">
        <ele>66.1</ele>
        <time>2020-06-14T17:30:03Z</time>
      </trkpt>
      <trkpt lat="49.52673" lon="-1.86735">
        <ele>65.9</ele>
        <time>2020-06-14T17:30:04Z</time>
      </trkpt>
      <trkpt lat="49.52681" lon="-1.86734">
        <ele>65.8</ele>
        <time>2020-06-14T17:30:05Z</time>
      </trkpt>
      <trkpt lat="49.52689" lon="-1.86733">
        <ele>65.7</ele>
        <time>2020-06-14T17:30:06Z</time>
      </trkpt>
      <trkpt lat="49.52697" lon="-1.86732">
        <ele>65.6</ele>
        <time>2020-06-14T17:30:07Z</time>
      </trkpt>
      <trkpt lat="49.52704" lon="-1.86731">
        <ele>65.6</ele>
        <time>2020-06-14T17:30:08Z</time>
      </trkpt>
      <trkpt lat="49.52712" lon="-1.86731">
        <ele>65.4</ele>
        <time>2020-06-14T17:30:09Z</time>
      </trkpt>
      <trkpt lat="49.52719" lon="-1.86731">
        <ele>65.3</ele>
        <time>2020-06-14T17:30:10Z</time>
      </trkpt>
      <trkpt lat="49.52727" lon="-1.8673">
        <ele>65.2</ele>
        <time>2020-06-14T17:30:11Z</time>
      </trkpt>
      <trkpt lat="49.52735" lon="-1.86729">
        <ele>65.1</ele>
        <time>2020-06-14T17:30:12Z</time>
      </trkpt>
      <trkpt lat="49.52743" lon="-1.86728">
        <ele>65.1</ele>
        <time>2020-06-14T17:30:13Z</time>
      </trkpt>
      <trkpt lat="49.52751" lon="-1.86726">
        <ele>65.1</ele>
        <time>2020-06-14T17:30:14Z</time>
      </trkpt>
      <trkpt lat="49.52758" lon="-1.86726">
        <ele>65.1</ele>
        <time>2020-06-14T17:30:15Z</time>
      </trkpt>
      <trkpt lat="49.52766" lon="-1.86725">
        <ele>65.2</ele>
        <time>2020-06-14T17:30:16Z</time>
      </trkpt>
      <trkpt lat="49.52773" lon="-1.86722">
        <ele>65.4</ele>
        <time>2020-06-14T17:30:17Z</time>
      </trkpt>
      <trkpt lat="49.52781" lon="-1.86719">
        <ele>65.5</ele>
        <time>2020-06-14T17:30:18Z</time>
      </trkpt>
      <trkpt lat="49.52787" lon="-1.86718">
        <ele>65.6</ele>
        <time>2020-06-14T17:30:19Z</time>
      </trkpt>
      <trkpt lat="49.52793" lon="-1.86716">
        <ele>65.8</ele>
        <time>2020-06-14T17:30:20Z</time>
      </trkpt>
      <trkpt lat="49.528" lon="-1.86716">
        <ele>66</ele>
        <time>2020-06-14T17:30:21Z</time>
      </trkpt>
      <trkpt lat="49.52806" lon="-1.86716">
        <ele>66.2</ele>
        <time>2020-06-14T17:30:22Z</time>
      </trkpt>
      <trkpt lat="49.52811" lon="-1.86715">
        <ele>66.4</ele>
        <time>2020-06-14T17:30:23Z</time>
      </trkpt>
      <trkpt lat="49.52818" lon="-1.86714">
        <ele>66.6</ele>
        <time>2020-06-14T17:30:24Z</time>
      </trkpt>
      <trkpt lat="49.52824" lon="-1.86714">
        <ele>66.9</ele>
        <time>2020-06-14T17:30:25Z</time>
      </trkpt>
      <trkpt lat="49.5283" lon="-1.86713">
        <ele>67.1</ele>
        <time>2020-06-14T17:30:26Z</time>
      </trkpt>
      <trkpt lat="49.52836" lon="-1.86712">
        <ele>67.4</ele>
        <time>2020-06-14T17:30:27Z</time>
      </trkpt>
      <trkpt lat="49.52842" lon="-1.86712">
        <ele>67.6</ele>
        <time>2020-06-14T17:30:28Z</time>
      </trkpt>
      <trkpt lat="49.52849" lon="-1.86707">
        <ele>67.9</ele>
        <time>2020-06-14T17:30:29Z</time>
      </trkpt>
      <trkpt lat="49.52855" lon="-1.86706">
        <ele>68.2</ele>
        <time>2020-06-14T17:30:30Z</time>
      </trkpt>
      <trkpt lat="49.5286" lon="-1.86705">
        <ele>68.4</ele>
        <time>2020-06-14T17:30:31Z</time>
      </trkpt>
      <trkpt lat="49.52866" lon="-1.86705">
        <ele>68.6</ele>
        <time>2020-06-14T17:30:32Z</time>
      </trkpt>
      <trkpt lat="49.52871" lon="-1.86703">
        <ele>68.8</ele>
        <time>2020-06-14T17:30:33Z</time>
      </trkpt>
      <trkpt lat="49.52877" lon="-1.86702">
        <ele>69.1</ele>
        <time>2020-06-14T17:30:34Z</time>
      </trkpt>
      <trkpt lat="49.52883" lon="-1.86701">
        <ele>69.4</ele>
        <time>2020-06-14T17:30:35Z</time>
      </trkpt>
      <trkpt lat="49.5289" lon="-1.867">
        <ele>69.8</ele>
        <time>2020-06-14T17:30:36Z</time>
      </trkpt>
      <trkpt lat="49.52896" lon="-1.86699">
        <ele>70.1</ele>
        <time>2020-06-14T17:30:37Z</time>
      </trkpt>
      <trkpt lat="49.52901" lon="-1.86698">
        <ele>70.4</ele>
        <time>2020-06-14T17:30:38Z</time>
      </trkpt>
      <trkpt lat="49.52908" lon="-1.86697">
        <ele>70.7</ele>
        <time>2020-06-14T17:30:39Z</time>
      </trkpt>
      <trkpt lat="49.52913" lon="-1.86696">
        <ele>71</ele>
        <time>2020-06-14T17:30:40Z</time>
      </trkpt>
      <trkpt lat="49.52918" lon="-1.86695">
        <ele>71.2</ele>
        <time>2020-06-14T17:30:41Z</time>
      </trkpt>
      <trkpt lat="49.52924" lon="-1.86694">
        <ele>71.4</ele>
        <time>2020-06-14T17:30:42Z</time>
      </trkpt>
      <trkpt lat="49.52929" lon="-1.86693">
        <ele>71.6</ele>
        <time>2020-06-14T17:30:43Z</time>
      </trkpt>
      <trkpt lat="49.52935" lon="-1.86693">
        <ele>71.8</ele>
        <time>2020-06-14T17:30:44Z</time>
      </trkpt>
      <trkpt lat="49.5294" lon="-1.86692">
        <ele>72</ele>
        <time>2020-06-14T17:30:45Z</time>
      </trkpt>
      <trkpt lat="49.52945" lon="-1.8669">
        <ele>72.2</ele>
        <time>2020-06-14T17:30:46Z</time>
      </trkpt>
      <trkpt lat="49.5295" lon="-1.86686">
        <ele>72.4</ele>
        <time>2020-06-14T17:30:47Z</time>
      </trkpt>
      <trkpt lat="49.52956" lon="-1.86681">
        <ele>72.5</ele>
        <time>2020-06-14T17:30:48Z</time>
      </trkpt>
      <trkpt lat="49.52962" lon="-1.86676">
        <ele>72.7</ele>
        <time>2020-06-14T17:30:49Z</time>
      </trkpt>
      <trkpt lat="49.52968" lon="-1.8667">
        <ele>72.8</ele>
        <time>2020-06-14T17:30:50Z</time>
      </trkpt>
      <trkpt lat="49.52973" lon="-1.86665">
        <ele>72.9</ele>
        <time>2020-06-14T17:30:51Z</time>
      </trkpt>
      <trkpt lat="49.52978" lon="-1.86661">
        <ele>72.9</ele>
        <time>2020-06-14T17:30:52Z</time>
      </trkpt>
      <trkpt lat="49.52982" lon="-1.86657">
        <ele>72.9</ele>
        <time>2020-06-14T17:30:53Z</time>
      </trkpt>
      <trkpt lat="49.52987" lon="-1.86652">
        <ele>73</ele>
        <time>2020-06-14T17:30:54Z</time>
      </trkpt>
      <trkpt lat="49.52991" lon="-1.86649">
        <ele>73</ele>
        <time>2020-06-14T17:30:55Z</time>
      </trkpt>
      <trkpt lat="49.52996" lon="-1.86646">
        <ele>73</ele>
        <time>2020-06-14T17:30:56Z</time>
      </trkpt>
      <trkpt lat="49.53002" lon="-1.86642">
        <ele>73</ele>
        <time>2020-06-14T17:30:57Z</time>
      </trkpt>
      <trkpt lat="49.53007" lon="-1.86637">
        <ele>73.1</ele>
        <time>2020-06-14T17:30:58Z</time>
      </trkpt>
      <trkpt lat="49.53012" lon="-1.86632">
        <ele>73.1</ele>
        <time>2020-06-14T17:30:59Z</time>
      </trkpt>
      <trkpt lat="49.53017" lon="-1.86628">
        <ele>73.1</ele>
        <time>2020-06-14T17:31:00Z</time>
      </trkpt>
      <trkpt lat="49.5302" lon="-1.86626">
        <ele>73.1</ele>
        <time>2020-06-14T17:31:01Z</time>
      </trkpt>
      <trkpt lat="49.53025" lon="-1.86624">
        <ele>73.1</ele>
        <time>2020-06-14T17:31:02Z</time>
      </trkpt>
      <trkpt lat="49.53031" lon="-1.86622">
        <ele>73.1</ele>
        <time>2020-06-14T17:31:03Z</time>
      </trkpt>
      <trkpt lat="49.53037" lon="-1.8662">
        <ele>73.1</ele>
        <time>2020-06-14T17:31:04Z</time>
      </trkpt>
      <trkpt lat="49.53042" lon="-1.8662">
        <ele>73.1</ele>
        <time>2020-06-14T17:31:05Z</time>
      </trkpt>
      <trkpt lat="49.53047" lon="-1.86618">
        <ele>73.1</ele>
        <time>2020-06-14T17:31:06Z</time>
      </trkpt>
      <trkpt lat="49.53053" lon="-1.86616">
        <ele>73.1</ele>
        <time>2020-06-14T17:31:07Z</time>
      </trkpt>
      <trkpt lat="49.53059" lon="-1.86616">
        <ele>73</ele>
        <time>2020-06-14T17:31:08Z</time>
      </trkpt>
      <trkpt lat="49.53065" lon="-1.86615">
        <ele>73</ele>
        <time>2020-06-14T17:31:09Z</time>
      </trkpt>
      <trkpt lat="49.53071" lon="-1.86614">
        <ele>72.9</ele>
        <time>2020-06-14T17:31:10Z</time>
      </trkpt>
      <trkpt lat="49.53078" lon="-1.86614">
        <ele>72.8</ele>
        <time>2020-06-14T17:31:11Z</time>
      </trkpt>
      <trkpt lat="49.53084" lon="-1.86613">
        <ele>72.8</ele>
        <time>2020-06-14T17:31:12Z</time>
      </trkpt>
      <trkpt lat="49.5309" lon="-1.86613">
        <ele>72.7</ele>
        <time>2020-06-14T17:31:13Z</time>
      </trkpt>
      <trkpt lat="49.53096" lon="-1.86613">
        <ele>72.7</ele>
        <time>2020-06-14T17:31:14Z</time>
      </trkpt>
      <trkpt lat="49.53102" lon="-1.86612">
        <ele>72.7</ele>
        <time>2020-06-14T17:31:15Z</time>
      </trkpt>
      <trkpt lat="49.53107" lon="-1.86612">
        <ele>72.8</ele>
        <time>2020-06-14T17:31:16Z</time>
      </trkpt>
      <trkpt lat="49.53113" lon="-1.86611">
        <ele>72.8</ele>
        <time>2020-06-14T17:31:17Z</time>
      </trkpt>
      <trkpt lat="49.53119" lon="-1.8661">
        <ele>72.8</ele>
        <time>2020-06-14T17:31:18Z</time>
      </trkpt>
      <trkpt lat="49.53125" lon="-1.86609">
        <ele>72.9</ele>
        <time>2020-06-14T17:31:19Z</time>
      </trkpt>
      <trkpt lat="49.5313" lon="-1.86608">
        <ele>72.9</ele>
        <time>2020-06-14T17:31:20Z</time>
      </trkpt>
      <trkpt lat="49.53135" lon="-1.86607">
        <ele>73</ele>
        <time>2020-06-14T17:31:21Z</time>
      </trkpt>
      <trkpt lat="49.53141" lon="-1.86606">
        <ele>73</ele>
        <time>2020-06-14T17:31:22Z</time>
      </trkpt>
      <trkpt lat="49.53145" lon="-1.86606">
        <ele>73.1</ele>
        <time>2020-06-14T17:31:23Z</time>
      </trkpt>
      <trkpt lat="49.53149" lon="-1.86606">
        <ele>73.1</ele>
        <time>2020-06-14T17:31:24Z</time>
      </trkpt>
      <trkpt lat="49.53155" lon="-1.86606">
        <ele>73.1</ele>
        <time>2020-06-14T17:31:25Z</time>
      </trkpt>
      <trkpt lat="49.53159" lon="-1.86607">
        <ele>73.2</ele>
        <time>2020-06-14T17:31:26Z</time>
      </trkpt>
      <trkpt lat="49.53166" lon="-1.86607">
        <ele>73.2</ele>
        <time>2020-06-14T17:31:27Z</time>
      </trkpt>
      <trkpt lat="49.53173" lon="-1.86607">
        <ele>73.3</ele>
        <time>2020-06-14T17:31:28Z</time>
      </trkpt>
      <trkpt lat="49.53179" lon="-1.86606">
        <ele>73.3</ele>
        <time>2020-06-14T17:31:29Z</time>
      </trkpt>
      <trkpt lat="49.53184" lon="-1.86606">
        <ele>73.3</ele>
        <time>2020-06-14T17:31:30Z</time>
      </trkpt>
      <trkpt lat="49.5319" lon="-1.86605">
        <ele>73.4</ele>
        <time>2020-06-14T17:31:31Z</time>
      </trkpt>
      <trkpt lat="49.53195" lon="-1.86603">
        <ele>73.5</ele>
        <time>2020-06-14T17:31:32Z</time>
      </trkpt>
      <trkpt lat="49.53199" lon="-1.86598">
        <ele>73.5</ele>
        <time>2020-06-14T17:31:33Z</time>
      </trkpt>
      <trkpt lat="49.53202" lon="-1.86593">
        <ele>73.6</ele>
        <time>2020-06-14T17:31:34Z</time>
      </trkpt>
      <trkpt lat="49.53206" lon="-1.86585">
        <ele>73.7</ele>
        <time>2020-06-14T17:31:35Z</time>
      </trkpt>
      <trkpt lat="49.53209" lon="-1.86578">
        <ele>73.8</ele>
        <time>2020-06-14T17:31:36Z</time>
      </trkpt>
      <trkpt lat="49.53212" lon="-1.86571">
        <ele>73.8</ele>
        <time>2020-06-14T17:31:37Z</time>
      </trkpt>
      <trkpt lat="49.53216" lon="-1.86566">
        <ele>73.8</ele>
        <time>2020-06-14T17:31:38Z</time>
      </trkpt>
      <trkpt lat="49.5322" lon="-1.86561">
        <ele>73.8</ele>
        <time>2020-06-14T17:31:39Z</time>
      </trkpt>
      <trkpt lat="49.53223" lon="-1.86558">
        <ele>73.7</ele>
        <time>2020-06-14T17:31:40Z</time>
      </trkpt>
      <trkpt lat="49.53229" lon="-1.86556">
        <ele>73.6</ele>
        <time>2020-06-14T17:31:41Z</time>
      </trkpt>
      <trkpt lat="49.53234" lon="-1.86557">
        <ele>73.6</ele>
        <time>2020-06-14T17:31:42Z</time>
      </trkpt>
      <trkpt lat="49.53239" lon="-1.86558">
        <ele>73.5</ele>
        <time>2020-06-14T17:31:43Z</time>
      </trkpt>
      <trkpt lat="49.53244" lon="-1.86558">
        <ele>73.4</ele>
        <time>2020-06-14T17:31:44Z</time>
      </trkpt>
      <trkpt lat="49.53248" lon="-1.86557">
        <ele>73.4</ele>
        <time>2020-06-14T17:31:45Z</time>
      </trkpt>
      <trkpt lat="49.53253" lon="-1.86556">
        <ele>73.3</ele>
        <time>2020-06-14T17:31:46Z</time>
      </trkpt>
      <trkpt lat="49.5326" lon="-1.86558">
        <ele>73.2</ele>
        <time>2020-06-14T17:31:47Z</time>
      </trkpt>
      <trkpt lat="49.53265" lon="-1.86557">
        <ele>73.1</ele>
        <time>2020-06-14T17:31:48Z</time>
      </trkpt>
      <trkpt lat="49.53271" lon="-1.86556">
        <ele>73</ele>
        <time>2020-06-14T17:31:49Z</time>
      </trkpt>
      <trkpt lat="49.53278" lon="-1.86555">
        <ele>72.9</ele>
        <time>2020-06-14T17:31:50Z</time>
      </trkpt>
      <trkpt lat="49.53283" lon="-1.86553">
        <ele>72.9</ele>
        <time>2020-06-14T17:31:51Z</time>
      </trkpt>
      <trkpt lat="49.53288" lon="-1.86553">
        <ele>72.8</ele>
        <time>2020-06-14T17:31:52Z</time>
      </trkpt>
      <trkpt lat="49.53293" lon="-1.86552">
        <ele>72.7</ele>
        <time>2020-06-14T17:31:53Z</time>
      </trkpt>
      <trkpt lat="49.53298" lon="-1.86553">
        <ele>72.7</ele>
        <time>2020-06-14T17:31:54Z</time>
      </trkpt>
      <trkpt lat="49.53303" lon="-1.86554">
        <ele>72.7</ele>
        <time>2020-06-14T17:31:55Z</time>
      </trkpt>
      <trkpt lat="49.53309" lon="-1.86557">
        <ele>72.7</ele>
        <time>2020-06-14T17:31:56Z</time>
      </trkpt>
      <trkpt lat="49.53316" lon="-1.86558">
        <ele>72.8</ele>
        <time>2020-06-14T17:31:57Z</time>
      </trkpt>
      <trkpt lat="49.5332" lon="-1.86561">
        <ele>72.8</ele>
        <time>2020-06-14T17:31:58Z</time>
      </trkpt>
      <trkpt lat="49.53324" lon="-1.86565">
        <ele>72.9</ele>
        <time>2020-06-14T17:31:59Z</time>
      </trkpt>
      <trkpt lat="49.53328" lon="-1.86568">
        <ele>72.9</ele>
        <time>2020-06-14T17:32:00Z</time>
      </trkpt>
      <trkpt lat="49.53333" lon="-1.86572">
        <ele>73</ele>
        <time>2020-06-14T17:32:01Z</time>
      </trkpt>
      <trkpt lat="49.53338" lon="-1.86575">
        <ele>73</ele>
        <time>2020-06-14T17:32:02Z</time>
      </trkpt>
      <trkpt lat="49.53343" lon="-1.86577">
        <ele>73.1</ele>
        <time>2020-06-14T17:32:03Z</time>
      </trkpt>
      <trkpt lat="49.53347" lon="-1.8658">
        <ele>73.1</ele>
        <time>2020-06-14T17:32:04Z</time>
      </trkpt>
      <trkpt lat="49.53352" lon="-1.86581">
        <ele>73.2</ele>
        <time>2020-06-14T17:32:05Z</time>
      </trkpt>
      <trkpt lat="49.53358" lon="-1.86581">
        <ele>73.2</ele>
        <time>2020-06-14T17:32:06Z</time>
      </trkpt>
      <trkpt lat="49.53364" lon="-1.86581">
        <ele>73.3</ele>
        <time>2020-06-14T17:32:07Z</time>
      </trkpt>
      <trkpt lat="49.53369" lon="-1.86581">
        <ele>73.3</ele>
        <time>2020-06-14T17:32:08Z</time>
      </trkpt>
      <trkpt lat="49.53375" lon="-1.8658">
        <ele>73.3</ele>
        <time>2020-06-14T17:32:09Z</time>
      </trkpt>
      <trkpt lat="49.5338" lon="-1.86579">
        <ele>73.3</ele>
        <time>2020-06-14T17:32:10Z</time>
      </trkpt>
      <trkpt lat="49.53386" lon="-1.86578">
        <ele>73.3</ele>
        <time>2020-06-14T17:32:11Z</time>
      </trkpt>
      <trkpt lat="49.53392" lon="-1.86576">
        <ele>73.3</ele>
        <time>2020-06-14T17:32:12Z</time>
      </trkpt>
      <trkpt lat="49.53397" lon="-1.86575">
        <ele>73.3</ele>
        <time>2020-06-14T17:32:13Z</time>
      </trkpt>
      <trkpt lat="49.53402" lon="-1.86574">
        <ele>73.3</ele>
        <time>2020-06-14T17:32:14Z</time>
      </trkpt>
      <trkpt lat="49.53407" lon="-1.86573">
        <ele>73.4</ele>
        <time>2020-06-14T17:32:15Z</time>
      </trkpt>
      <trkpt lat="49.53413" lon="-1.86572">
        <ele>73.4</ele>
        <time>2020-06-14T17:32:16Z</time>
      </trkpt>
      <trkpt lat="49.53419" lon="-1.86572">
        <ele>73.4</ele>
        <time>2020-06-14T17:32:17Z</time>
      </trkpt>
      <trkpt lat="49.53424" lon="-1.86571">
        <ele>73.4</ele>
        <time>2020-06-14T17:32:18Z</time>
      </trkpt>
      <trkpt lat="49.5343" lon="-1.8657">
        <ele>73.4</ele>
        <time>2020-06-14T17:32:19Z</time>
      </trkpt>
      <trkpt lat="49.53435" lon="-1.86569">
        <ele>73.3</ele>
        <time>2020-06-14T17:32:20Z</time>
      </trkpt>
      <trkpt lat="49.5344" lon="-1.86569">
        <ele>73.2</ele>
        <time>2020-06-14T17:32:21Z</time>
      </trkpt>
      <trkpt lat="49.53445" lon="-1.86569">
        <ele>73.1</ele>
        <time>2020-06-14T17:32:22Z</time>
      </trkpt>
      <trkpt lat="49.53451" lon="-1.86568">
        <ele>72.9</ele>
        <time>2020-06-14T17:32:23Z</time>
      </trkpt>
      <trkpt lat="49.53457" lon="-1.86567">
        <ele>72.8</ele>
        <time>2020-06-14T17:32:24Z</time>
      </trkpt>
      <trkpt lat="49.53461" lon="-1.86566">
        <ele>72.7</ele>
        <time>2020-06-14T17:32:25Z</time>
      </trkpt>
      <trkpt lat="49.53467" lon="-1.86566">
        <ele>72.5</ele>
        <time>2020-06-14T17:32:26Z</time>
      </trkpt>
      <trkpt lat="49.53471" lon="-1.86565">
        <ele>72.4</ele>
        <time>2020-06-14T17:32:27Z</time>
      </trkpt>
      <trkpt lat="49.53478" lon="-1.86564">
        <ele>72.2</ele>
        <time>2020-06-14T17:32:28Z</time>
      </trkpt>
      <trkpt lat="49.53485" lon="-1.86563">
        <ele>72</ele>
        <time>2020-06-14T17:32:29Z</time>
      </trkpt>
      <trkpt lat="49.53491" lon="-1.86563">
        <ele>71.8</ele>
        <time>2020-06-14T17:32:30Z</time>
      </trkpt>
      <trkpt lat="49.53498" lon="-1.86561">
        <ele>71.6</ele>
        <time>2020-06-14T17:32:31Z</time>
      </trkpt>
      <trkpt lat="49.53505" lon="-1.8656">
        <ele>71.3</ele>
        <time>2020-06-14T17:32:32Z</time>
      </trkpt>
      <trkpt lat="49.5351" lon="-1.86559">
        <ele>71.1</ele>
        <time>2020-06-14T17:32:33Z</time>
      </trkpt>
      <trkpt lat="49.53517" lon="-1.86558">
        <ele>70.9</ele>
        <time>2020-06-14T17:32:34Z</time>
      </trkpt>
      <trkpt lat="49.53524" lon="-1.86557">
        <ele>70.6</ele>
        <time>2020-06-14T17:32:35Z</time>
      </trkpt>
      <trkpt lat="49.5353" lon="-1.86556">
        <ele>70.4</ele>
        <time>2020-06-14T17:32:36Z</time>
      </trkpt>
      <trkpt lat="49.53537" lon="-1.86556">
        <ele>70.2</ele>
        <time>2020-06-14T17:32:37Z</time>
      </trkpt>
      <trkpt lat="49.53544" lon="-1.86555">
        <ele>69.9</ele>
        <time>2020-06-14T17:32:38Z</time>
      </trkpt>
      <trkpt lat="49.5355" lon="-1.86555">
        <ele>69.7</ele>
        <time>2020-06-14T17:32:39Z</time>
      </trkpt>
      <trkpt lat="49.53557" lon="-1.86555">
        <ele>69.5</ele>
        <time>2020-06-14T17:32:40Z</time>
      </trkpt>
      <trkpt lat="49.53564" lon="-1.86554">
        <ele>69.2</ele>
        <time>2020-06-14T17:32:41Z</time>
      </trkpt>
      <trkpt lat="49.53571" lon="-1.86554">
        <ele>68.8</ele>
        <time>2020-06-14T17:32:42Z</time>
      </trkpt>
      <trkpt lat="49.53578" lon="-1.86553">
        <ele>68.4</ele>
        <time>2020-06-14T17:32:43Z</time>
      </trkpt>
      <trkpt lat="49.53585" lon="-1.86553">
        <ele>68.2</ele>
        <time>2020-06-14T17:32:44Z</time>
      </trkpt>
      <trkpt lat="49.53592" lon="-1.86552">
        <ele>67.9</ele>
        <time>2020-06-14T17:32:45Z</time>
      </trkpt>
      <trkpt lat="49.536" lon="-1.86551">
        <ele>67.6</ele>
        <time>2020-06-14T17:32:46Z</time>
      </trkpt>
      <trkpt lat="49.53608" lon="-1.86551">
        <ele>67.3</ele>
        <time>2020-06-14T17:32:47Z</time>
      </trkpt>
      <trkpt lat="49.53615" lon="-1.86551">
        <ele>67</ele>
        <time>2020-06-14T17:32:48Z</time>
      </trkpt>
      <trkpt lat="49.53623" lon="-1.8655">
        <ele>66.8</ele>
        <time>2020-06-14T17:32:49Z</time>
      </trkpt>
      <trkpt lat="49.5363" lon="-1.86549">
        <ele>66.5</ele>
        <time>2020-06-14T17:32:50Z</time>
      </trkpt>
      <trkpt lat="49.53639" lon="-1.86546">
        <ele>66.2</ele>
        <time>2020-06-14T17:32:51Z</time>
      </trkpt>
      <trkpt lat="49.53646" lon="-1.86546">
        <ele>65.9</ele>
        <time>2020-06-14T17:32:52Z</time>
      </trkpt>
      <trkpt lat="49.53654" lon="-1.86546">
        <ele>65.7</ele>
        <time>2020-06-14T17:32:53Z</time>
      </trkpt>
      <trkpt lat="49.53661" lon="-1.86546">
        <ele>65.4</ele>
        <time>2020-06-14T17:32:54Z</time>
      </trkpt>
      <trkpt lat="49.53669" lon="-1.86546">
        <ele>65.1</ele>
        <time>2020-06-14T17:32:55Z</time>
      </trkpt>
      <trkpt lat="49.53677" lon="-1.86546">
        <ele>64.8</ele>
        <time>2020-06-14T17:32:56Z</time>
      </trkpt>
      <trkpt lat="49.53684" lon="-1.86544">
        <ele>64.6</ele>
        <time>2020-06-14T17:32:57Z</time>
      </trkpt>
      <trkpt lat="49.53692" lon="-1.86543">
        <ele>64.3</ele>
        <time>2020-06-14T17:32:58Z</time>
      </trkpt>
      <trkpt lat="49.53701" lon="-1.86541">
        <ele>64</ele>
        <time>2020-06-14T17:32:59Z</time>
      </trkpt>
      <trkpt lat="49.53709" lon="-1.8654">
        <ele>63.6</ele>
        <time>2020-06-14T17:33:00Z</time>
      </trkpt>
      <trkpt lat="49.53717" lon="-1.86538">
        <ele>63.4</ele>
        <time>2020-06-14T17:33:01Z</time>
      </trkpt>
      <trkpt lat="49.53725" lon="-1.86537">
        <ele>63.1</ele>
        <time>2020-06-14T17:33:02Z</time>
      </trkpt>
      <trkpt lat="49.53733" lon="-1.86536">
        <ele>62.9</ele>
        <time>2020-06-14T17:33:03Z</time>
      </trkpt>
      <trkpt lat="49.53741" lon="-1.86534">
        <ele>62.6</ele>
        <time>2020-06-14T17:33:04Z</time>
      </trkpt>
      <trkpt lat="49.53749" lon="-1.86533">
        <ele>62.4</ele>
        <time>2020-06-14T17:33:05Z</time>
      </trkpt>
      <trkpt lat="49.53757" lon="-1.86533">
        <ele>62.2</ele>
        <time>2020-06-14T17:33:06Z</time>
      </trkpt>
      <trkpt lat="49.53765" lon="-1.86531">
        <ele>61.9</ele>
        <time>2020-06-14T17:33:07Z</time>
      </trkpt>
      <trkpt lat="49.53772" lon="-1.86532">
        <ele>61.7</ele>
        <time>2020-06-14T17:33:08Z</time>
      </trkpt>
      <trkpt lat="49.5378" lon="-1.86531">
        <ele>61.4</ele>
        <time>2020-06-14T17:33:09Z</time>
      </trkpt>
      <trkpt lat="49.53788" lon="-1.86529">
        <ele>61.4</ele>
        <time>2020-06-14T17:33:10Z</time>
      </trkpt>
      <trkpt lat="49.53796" lon="-1.86528">
        <ele>61.3</ele>
        <time>2020-06-14T17:33:11Z</time>
      </trkpt>
      <trkpt lat="49.53804" lon="-1.86527">
        <ele>61.1</ele>
        <time>2020-06-14T17:33:12Z</time>
      </trkpt>
      <trkpt lat="49.53812" lon="-1.86526">
        <ele>61</ele>
        <time>2020-06-14T17:33:13Z</time>
      </trkpt>
      <trkpt lat="49.5382" lon="-1.86526">
        <ele>60.8</ele>
        <time>2020-06-14T17:33:14Z</time>
      </trkpt>
      <trkpt lat="49.53828" lon="-1.86526">
        <ele>60.6</ele>
        <time>2020-06-14T17:33:15Z</time>
      </trkpt>
      <trkpt lat="49.53836" lon="-1.86525">
        <ele>60.4</ele>
        <time>2020-06-14T17:33:16Z</time>
      </trkpt>
      <trkpt lat="49.53844" lon="-1.86523">
        <ele>60.2</ele>
        <time>2020-06-14T17:33:17Z</time>
      </trkpt>
      <trkpt lat="49.53852" lon="-1.86522">
        <ele>60.1</ele>
        <time>2020-06-14T17:33:18Z</time>
      </trkpt>
      <trkpt lat="49.5386" lon="-1.86519">
        <ele>59.9</ele>
        <time>2020-06-14T17:33:19Z</time>
      </trkpt>
      <trkpt lat="49.53868" lon="-1.86518">
        <ele>59.8</ele>
        <time>2020-06-14T17:33:20Z</time>
      </trkpt>
      <trkpt lat="49.53876" lon="-1.86516">
        <ele>59.7</ele>
        <time>2020-06-14T17:33:21Z</time>
      </trkpt>
      <trkpt lat="49.53883" lon="-1.86514">
        <ele>59.6</ele>
        <time>2020-06-14T17:33:22Z</time>
      </trkpt>
      <trkpt lat="49.53891" lon="-1.86512">
        <ele>59.5</ele>
        <time>2020-06-14T17:33:23Z</time>
      </trkpt>
      <trkpt lat="49.53898" lon="-1.86511">
        <ele>59.5</ele>
        <time>2020-06-14T17:33:24Z</time>
      </trkpt>
      <trkpt lat="49.53906" lon="-1.86509">
        <ele>59.1</ele>
        <time>2020-06-14T17:33:25Z</time>
      </trkpt>
      <trkpt lat="49.53914" lon="-1.86508">
        <ele>58.9</ele>
        <time>2020-06-14T17:33:26Z</time>
      </trkpt>
      <trkpt lat="49.53921" lon="-1.86506">
        <ele>58.7</ele>
        <time>2020-06-14T17:33:27Z</time>
      </trkpt>
      <trkpt lat="49.53929" lon="-1.86505">
        <ele>58.5</ele>
        <time>2020-06-14T17:33:28Z</time>
      </trkpt>
      <trkpt lat="49.53936" lon="-1.86504">
        <ele>58.3</ele>
        <time>2020-06-14T17:33:29Z</time>
      </trkpt>
      <trkpt lat="49.53944" lon="-1.86503">
        <ele>58.1</ele>
        <time>2020-06-14T17:33:30Z</time>
      </trkpt>
      <trkpt lat="49.53951" lon="-1.86503">
        <ele>57.9</ele>
        <time>2020-06-14T17:33:31Z</time>
      </trkpt>
      <trkpt lat="49.53959" lon="-1.86503">
        <ele>57.7</ele>
        <time>2020-06-14T17:33:32Z</time>
      </trkpt>
      <trkpt lat="49.53966" lon="-1.86505">
        <ele>57.5</ele>
        <time>2020-06-14T17:33:33Z</time>
      </trkpt>
      <trkpt lat="49.53974" lon="-1.86505">
        <ele>57.3</ele>
        <time>2020-06-14T17:33:34Z</time>
      </trkpt>
      <trkpt lat="49.53982" lon="-1.86506">
        <ele>57.1</ele>
        <time>2020-06-14T17:33:35Z</time>
      </trkpt>
      <trkpt lat="49.53989" lon="-1.86507">
        <ele>57</ele>
        <time>2020-06-14T17:33:36Z</time>
      </trkpt>
      <trkpt lat="49.53997" lon="-1.86507">
        <ele>56.9</ele>
        <time>2020-06-14T17:33:37Z</time>
      </trkpt>
      <trkpt lat="49.54004" lon="-1.86507">
        <ele>56.8</ele>
        <time>2020-06-14T17:33:38Z</time>
      </trkpt>
      <trkpt lat="49.54012" lon="-1.86506">
        <ele>56.7</ele>
        <time>2020-06-14T17:33:39Z</time>
      </trkpt>
      <trkpt lat="49.54018" lon="-1.86505">
        <ele>56.7</ele>
        <time>2020-06-14T17:33:40Z</time>
      </trkpt>
      <trkpt lat="49.54025" lon="-1.86502">
        <ele>56.6</ele>
        <time>2020-06-14T17:33:41Z</time>
      </trkpt>
      <trkpt lat="49.54032" lon="-1.865">
        <ele>56.5</ele>
        <time>2020-06-14T17:33:42Z</time>
      </trkpt>
      <trkpt lat="49.54039" lon="-1.86498">
        <ele>56.5</ele>
        <time>2020-06-14T17:33:43Z</time>
      </trkpt>
      <trkpt lat="49.54045" lon="-1.86496">
        <ele>56.4</ele>
        <time>2020-06-14T17:33:44Z</time>
      </trkpt>
      <trkpt lat="49.54052" lon="-1.86494">
        <ele>56.4</ele>
        <time>2020-06-14T17:33:45Z</time>
      </trkpt>
      <trkpt lat="49.54058" lon="-1.86492">
        <ele>56.4</ele>
        <time>2020-06-14T17:33:46Z</time>
      </trkpt>
      <trkpt lat="49.54065" lon="-1.86491">
        <ele>56.3</ele>
        <time>2020-06-14T17:33:47Z</time>
      </trkpt>
      <trkpt lat="49.54071" lon="-1.86488">
        <ele>56.3</ele>
        <time>2020-06-14T17:33:48Z</time>
      </trkpt>
      <trkpt lat="49.54077" lon="-1.86488">
        <ele>56.3</ele>
        <time>2020-06-14T17:33:49Z</time>
      </trkpt>
      <trkpt lat="49.54083" lon="-1.86487">
        <ele>56.2</ele>
        <time>2020-06-14T17:33:50Z</time>
      </trkpt>
      <trkpt lat="49.54089" lon="-1.86485">
        <ele>56.1</ele>
        <time>2020-06-14T17:33:51Z</time>
      </trkpt>
      <trkpt lat="49.54095" lon="-1.86483">
        <ele>56</ele>
        <time>2020-06-14T17:33:52Z</time>
      </trkpt>
      <trkpt lat="49.541" lon="-1.86482">
        <ele>56</ele>
        <time>2020-06-14T17:33:53Z</time>
      </trkpt>
      <trkpt lat="49.54105" lon="-1.86479">
        <ele>55.9</ele>
        <time>2020-06-14T17:33:54Z</time>
      </trkpt>
      <trkpt lat="49.5411" lon="-1.86478">
        <ele>55.8</ele>
        <time>2020-06-14T17:33:55Z</time>
      </trkpt>
      <trkpt lat="49.54115" lon="-1.86475">
        <ele>55.8</ele>
        <time>2020-06-14T17:33:56Z</time>
      </trkpt>
      <trkpt lat="49.5412" lon="-1.86473">
        <ele>55.7</ele>
        <time>2020-06-14T17:33:57Z</time>
      </trkpt>
      <trkpt lat="49.54125" lon="-1.86471">
        <ele>55.7</ele>
        <time>2020-06-14T17:33:58Z</time>
      </trkpt>
      <trkpt lat="49.54131" lon="-1.86469">
        <ele>55.7</ele>
        <time>2020-06-14T17:33:59Z</time>
      </trkpt>
      <trkpt lat="49.54137" lon="-1.86467">
        <ele>55.6</ele>
        <time>2020-06-14T17:34:00Z</time>
      </trkpt>
      <trkpt lat="49.54143" lon="-1.86465">
        <ele>55.6</ele>
        <time>2020-06-14T17:34:01Z</time>
      </trkpt>
      <trkpt lat="49.54148" lon="-1.86464">
        <ele>55.5</ele>
        <time>2020-06-14T17:34:02Z</time>
      </trkpt>
      <trkpt lat="49.54154" lon="-1.86462">
        <ele>55.4</ele>
        <time>2020-06-14T17:34:03Z</time>
      </trkpt>
      <trkpt lat="49.5416" lon="-1.86459">
        <ele>55.4</ele>
        <time>2020-06-14T17:34:04Z</time>
      </trkpt>
      <trkpt lat="49.54166" lon="-1.86457">
        <ele>55.3</ele>
        <time>2020-06-14T17:34:05Z</time>
      </trkpt>
      <trkpt lat="49.54173" lon="-1.86453">
        <ele>55.3</ele>
        <time>2020-06-14T17:34:06Z</time>
      </trkpt>
      <trkpt lat="49.54179" lon="-1.86451">
        <ele>55.2</ele>
        <time>2020-06-14T17:34:07Z</time>
      </trkpt>
      <trkpt lat="49.54185" lon="-1.86448">
        <ele>55.1</ele>
        <time>2020-06-14T17:34:08Z</time>
      </trkpt>
      <trkpt lat="49.54191" lon="-1.86444">
        <ele>55.1</ele>
        <time>2020-06-14T17:34:09Z</time>
      </trkpt>
      <trkpt lat="49.54197" lon="-1.86441">
        <ele>55</ele>
        <time>2020-06-14T17:34:10Z</time>
      </trkpt>
      <trkpt lat="49.54204" lon="-1.86438">
        <ele>54.9</ele>
        <time>2020-06-14T17:34:11Z</time>
      </trkpt>
      <trkpt lat="49.54211" lon="-1.86435">
        <ele>54.8</ele>
        <time>2020-06-14T17:34:12Z</time>
      </trkpt>
      <trkpt lat="49.54217" lon="-1.86432">
        <ele>54.7</ele>
        <time>2020-06-14T17:34:13Z</time>
      </trkpt>
      <trkpt lat="49.54224" lon="-1.86429">
        <ele>54.6</ele>
        <time>2020-06-14T17:34:14Z</time>
      </trkpt>
      <trkpt lat="49.54231" lon="-1.86425">
        <ele>54.4</ele>
        <time>2020-06-14T17:34:15Z</time>
      </trkpt>
      <trkpt lat="49.54237" lon="-1.86422">
        <ele>54.3</ele>
        <time>2020-06-14T17:34:16Z</time>
      </trkpt>
      <trkpt lat="49.54244" lon="-1.8642">
        <ele>54.2</ele>
        <time>2020-06-14T17:34:17Z</time>
      </trkpt>
      <trkpt lat="49.5425" lon="-1.86417">
        <ele>54.1</ele>
        <time>2020-06-14T17:34:18Z</time>
      </trkpt>
      <trkpt lat="49.54256" lon="-1.86415">
        <ele>53.9</ele>
        <time>2020-06-14T17:34:19Z</time>
      </trkpt>
      <trkpt lat="49.54263" lon="-1.86413">
        <ele>53.8</ele>
        <time>2020-06-14T17:34:20Z</time>
      </trkpt>
      <trkpt lat="49.54269" lon="-1.8641">
        <ele>53.6</ele>
        <time>2020-06-14T17:34:21Z</time>
      </trkpt>
      <trkpt lat="49.54275" lon="-1.86408">
        <ele>53.4</ele>
        <time>2020-06-14T17:34:22Z</time>
      </trkpt>
      <trkpt lat="49.54281" lon="-1.86407">
        <ele>53.3</ele>
        <time>2020-06-14T17:34:23Z</time>
      </trkpt>
      <trkpt lat="49.54288" lon="-1.86405">
        <ele>53.1</ele>
        <time>2020-06-14T17:34:24Z</time>
      </trkpt>
      <trkpt lat="49.54295" lon="-1.86404">
        <ele>52.8</ele>
        <time>2020-06-14T17:34:25Z</time>
      </trkpt>
      <trkpt lat="49.54302" lon="-1.86402">
        <ele>52.6</ele>
        <time>2020-06-14T17:34:26Z</time>
      </trkpt>
      <trkpt lat="49.54308" lon="-1.864">
        <ele>52.3</ele>
        <time>2020-06-14T17:34:27Z</time>
      </trkpt>
      <trkpt lat="49.54315" lon="-1.86398">
        <ele>52.1</ele>
        <time>2020-06-14T17:34:28Z</time>
      </trkpt>
      <trkpt lat="49.54322" lon="-1.86396">
        <ele>51.8</ele>
        <time>2020-06-14T17:34:29Z</time>
      </trkpt>
      <trkpt lat="49.54329" lon="-1.86395">
        <ele>51.5</ele>
        <time>2020-06-14T17:34:30Z</time>
      </trkpt>
      <trkpt lat="49.54336" lon="-1.86393">
        <ele>51.1</ele>
        <time>2020-06-14T17:34:31Z</time>
      </trkpt>
      <trkpt lat="49.54343" lon="-1.86391">
        <ele>50.8</ele>
        <time>2020-06-14T17:34:32Z</time>
      </trkpt>
      <trkpt lat="49.54351" lon="-1.86391">
        <ele>50.4</ele>
        <time>2020-06-14T17:34:33Z</time>
      </trkpt>
      <trkpt lat="49.54358" lon="-1.86389">
        <ele>50.2</ele>
        <time>2020-06-14T17:34:34Z</time>
      </trkpt>
      <trkpt lat="49.54366" lon="-1.86387">
        <ele>49.7</ele>
        <time>2020-06-14T17:34:35Z</time>
      </trkpt>
      <trkpt lat="49.54373" lon="-1.86383">
        <ele>49.3</ele>
        <time>2020-06-14T17:34:36Z</time>
      </trkpt>
      <trkpt lat="49.54381" lon="-1.8638">
        <ele>48.8</ele>
        <time>2020-06-14T17:34:37Z</time>
      </trkpt>
      <trkpt lat="49.54388" lon="-1.86377">
        <ele>48.3</ele>
        <time>2020-06-14T17:34:38Z</time>
      </trkpt>
      <trkpt lat="49.54396" lon="-1.86374">
        <ele>47.9</ele>
        <time>2020-06-14T17:34:39Z</time>
      </trkpt>
      <trkpt lat="49.54403" lon="-1.8637">
        <ele>47.4</ele>
        <time>2020-06-14T17:34:40Z</time>
      </trkpt>
      <trkpt lat="49.54411" lon="-1.86366">
        <ele>46.9</ele>
        <time>2020-06-14T17:34:41Z</time>
      </trkpt>
      <trkpt lat="49.54418" lon="-1.86361">
        <ele>46.3</ele>
        <time>2020-06-14T17:34:42Z</time>
      </trkpt>
      <trkpt lat="49.54427" lon="-1.86358">
        <ele>45.8</ele>
        <time>2020-06-14T17:34:43Z</time>
      </trkpt>
      <trkpt lat="49.54435" lon="-1.86353">
        <ele>45.3</ele>
        <time>2020-06-14T17:34:44Z</time>
      </trkpt>
      <trkpt lat="49.54443" lon="-1.86351">
        <ele>44.8</ele>
        <time>2020-06-14T17:34:45Z</time>
      </trkpt>
      <trkpt lat="49.54452" lon="-1.86347">
        <ele>44.4</ele>
        <time>2020-06-14T17:34:46Z</time>
      </trkpt>
      <trkpt lat="49.54461" lon="-1.86343">
        <ele>43.8</ele>
        <time>2020-06-14T17:34:47Z</time>
      </trkpt>
      <trkpt lat="49.5447" lon="-1.86338">
        <ele>43.4</ele>
        <time>2020-06-14T17:34:48Z</time>
      </trkpt>
      <trkpt lat="49.54479" lon="-1.86334">
        <ele>42.9</ele>
        <time>2020-06-14T17:34:49Z</time>
      </trkpt>
      <trkpt lat="49.54488" lon="-1.86328">
        <ele>42.5</ele>
        <time>2020-06-14T17:34:50Z</time>
      </trkpt>
      <trkpt lat="49.54497" lon="-1.86323">
        <ele>42</ele>
        <time>2020-06-14T17:34:51Z</time>
      </trkpt>
      <trkpt lat="49.54506" lon="-1.86318">
        <ele>41.6</ele>
        <time>2020-06-14T17:34:52Z</time>
      </trkpt>
      <trkpt lat="49.54515" lon="-1.86314">
        <ele>41.2</ele>
        <time>2020-06-14T17:34:53Z</time>
      </trkpt>
      <trkpt lat="49.54524" lon="-1.86311">
        <ele>40.8</ele>
        <time>2020-06-14T17:34:54Z</time>
      </trkpt>
      <trkpt lat="49.54532" lon="-1.86306">
        <ele>40.5</ele>
        <time>2020-06-14T17:34:55Z</time>
      </trkpt>
      <trkpt lat="49.5454" lon="-1.863">
        <ele>40.1</ele>
        <time>2020-06-14T17:34:56Z</time>
      </trkpt>
      <trkpt lat="49.54548" lon="-1.86294">
        <ele>39.7</ele>
        <time>2020-06-14T17:34:57Z</time>
      </trkpt>
      <trkpt lat="49.54556" lon="-1.86287">
        <ele>39.4</ele>
        <time>2020-06-14T17:34:58Z</time>
      </trkpt>
      <trkpt lat="49.54564" lon="-1.8628">
        <ele>39</ele>
        <time>2020-06-14T17:34:59Z</time>
      </trkpt>
      <trkpt lat="49.54571" lon="-1.86273">
        <ele>38.7</ele>
        <time>2020-06-14T17:35:00Z</time>
      </trkpt>
      <trkpt lat="49.54579" lon="-1.86265">
        <ele>38.5</ele>
        <time>2020-06-14T17:35:01Z</time>
      </trkpt>
      <trkpt lat="49.54587" lon="-1.86258">
        <ele>38.3</ele>
        <time>2020-06-14T17:35:02Z</time>
      </trkpt>
      <trkpt lat="49.54593" lon="-1.86248">
        <ele>38.1</ele>
        <time>2020-06-14T17:35:03Z</time>
      </trkpt>
      <trkpt lat="49.54599" lon="-1.86241">
        <ele>37.8</ele>
        <time>2020-06-14T17:35:04Z</time>
      </trkpt>
      <trkpt lat="49.54606" lon="-1.86234">
        <ele>37.6</ele>
        <time>2020-06-14T17:35:05Z</time>
      </trkpt>
      <trkpt lat="49.54613" lon="-1.86228">
        <ele>37.4</ele>
        <time>2020-06-14T17:35:06Z</time>
      </trkpt>
      <trkpt lat="49.54619" lon="-1.86221">
        <ele>37.2</ele>
        <time>2020-06-14T17:35:07Z</time>
      </trkpt>
      <trkpt lat="49.54625" lon="-1.86214">
        <ele>37.1</ele>
        <time>2020-06-14T17:35:08Z</time>
      </trkpt>
      <trkpt lat="49.54631" lon="-1.86208">
        <ele>37</ele>
        <time>2020-06-14T17:35:09Z</time>
      </trkpt>
      <trkpt lat="49.54637" lon="-1.862">
        <ele>36.9</ele>
        <time>2020-06-14T17:35:10Z</time>
      </trkpt>
      <trkpt lat="49.54643" lon="-1.86194">
        <ele>36.7</ele>
        <time>2020-06-14T17:35:11Z</time>
      </trkpt>
      <trkpt lat="49.54648" lon="-1.86187">
        <ele>36.7</ele>
        <time>2020-06-14T17:35:12Z</time>
      </trkpt>
      <trkpt lat="49.54653" lon="-1.86181">
        <ele>36.6</ele>
        <time>2020-06-14T17:35:13Z</time>
      </trkpt>
      <trkpt lat="49.54658" lon="-1.86175">
        <ele>36.6</ele>
        <time>2020-06-14T17:35:14Z</time>
      </trkpt>
      <trkpt lat="49.54664" lon="-1.86169">
        <ele>36.5</ele>
        <time>2020-06-14T17:35:15Z</time>
      </trkpt>
      <trkpt lat="49.54669" lon="-1.86162">
        <ele>36.4</ele>
        <time>2020-06-14T17:35:16Z</time>
      </trkpt>
      <trkpt lat="49.54674" lon="-1.86157">
        <ele>36.3</ele>
        <time>2020-06-14T17:35:17Z</time>
      </trkpt>
      <trkpt lat="49.54679" lon="-1.86151">
        <ele>36.3</ele>
        <time>2020-06-14T17:35:18Z</time>
      </trkpt>
      <trkpt lat="49.54683" lon="-1.86145">
        <ele>36.2</ele>
        <time>2020-06-14T17:35:19Z</time>
      </trkpt>
      <trkpt lat="49.54688" lon="-1.86139">
        <ele>36.3</ele>
        <time>2020-06-14T17:35:20Z</time>
      </trkpt>
      <trkpt lat="49.54692" lon="-1.86133">
        <ele>36.3</ele>
        <time>2020-06-14T17:35:21Z</time>
      </trkpt>
      <trkpt lat="49.54696" lon="-1.86127">
        <ele>36.3</ele>
        <time>2020-06-14T17:35:22Z</time>
      </trkpt>
      <trkpt lat="49.547" lon="-1.86121">
        <ele>36.3</ele>
        <time>2020-06-14T17:35:23Z</time>
      </trkpt>
      <trkpt lat="49.54703" lon="-1.86114">
        <ele>36.3</ele>
        <time>2020-06-14T17:35:24Z</time>
      </trkpt>
      <trkpt lat="49.54707" lon="-1.86106">
        <ele>36.3</ele>
        <time>2020-06-14T17:35:25Z</time>
      </trkpt>
      <trkpt lat="49.5471" lon="-1.861">
        <ele>36.4</ele>
        <time>2020-06-14T17:35:26Z</time>
      </trkpt>
      <trkpt lat="49.54714" lon="-1.86094">
        <ele>36.5</ele>
        <time>2020-06-14T17:35:27Z</time>
      </trkpt>
      <trkpt lat="49.54717" lon="-1.86088">
        <ele>36.6</ele>
        <time>2020-06-14T17:35:28Z</time>
      </trkpt>
      <trkpt lat="49.54721" lon="-1.86082">
        <ele>36.7</ele>
        <time>2020-06-14T17:35:29Z</time>
      </trkpt>
      <trkpt lat="49.54725" lon="-1.86076">
        <ele>36.9</ele>
        <time>2020-06-14T17:35:30Z</time>
      </trkpt>
      <trkpt lat="49.54729" lon="-1.8607">
        <ele>37</ele>
        <time>2020-06-14T17:35:31Z</time>
      </trkpt>
      <trkpt lat="49.54733" lon="-1.86065">
        <ele>37.2</ele>
        <time>2020-06-14T17:35:32Z</time>
      </trkpt>
      <trkpt lat="49.54736" lon="-1.8606">
        <ele>37.3</ele>
        <time>2020-06-14T17:35:33Z</time>
      </trkpt>
      <trkpt lat="49.54739" lon="-1.86054">
        <ele>37.5</ele>
        <time>2020-06-14T17:35:34Z</time>
      </trkpt>
      <trkpt lat="49.54742" lon="-1.86048">
        <ele>37.7</ele>
        <time>2020-06-14T17:35:35Z</time>
      </trkpt>
      <trkpt lat="49.54746" lon="-1.86043">
        <ele>37.8</ele>
        <time>2020-06-14T17:35:36Z</time>
      </trkpt>
      <trkpt lat="49.5475" lon="-1.86038">
        <ele>38</ele>
        <time>2020-06-14T17:35:37Z</time>
      </trkpt>
      <trkpt lat="49.54755" lon="-1.86034">
        <ele>38.1</ele>
        <time>2020-06-14T17:35:38Z</time>
      </trkpt>
      <trkpt lat="49.54758" lon="-1.86028">
        <ele>38.2</ele>
        <time>2020-06-14T17:35:39Z</time>
      </trkpt>
      <trkpt lat="49.54761" lon="-1.86023">
        <ele>38.3</ele>
        <time>2020-06-14T17:35:40Z</time>
      </trkpt>
      <trkpt lat="49.54765" lon="-1.86019">
        <ele>38.4</ele>
        <time>2020-06-14T17:35:41Z</time>
      </trkpt>
      <trkpt lat="49.54769" lon="-1.86015">
        <ele>38.5</ele>
        <time>2020-06-14T17:35:42Z</time>
      </trkpt>
      <trkpt lat="49.54772" lon="-1.86011">
        <ele>38.6</ele>
        <time>2020-06-14T17:35:43Z</time>
      </trkpt>
      <trkpt lat="49.54775" lon="-1.86005">
        <ele>38.8</ele>
        <time>2020-06-14T17:35:44Z</time>
      </trkpt>
      <trkpt lat="49.54777" lon="-1.86002">
        <ele>38.9</ele>
        <time>2020-06-14T17:35:45Z</time>
      </trkpt>
      <trkpt lat="49.5478" lon="-1.85999">
        <ele>39</ele>
        <time>2020-06-14T17:35:46Z</time>
      </trkpt>
      <trkpt lat="49.54783" lon="-1.85995">
        <ele>39.1</ele>
        <time>2020-06-14T17:35:47Z</time>
      </trkpt>
      <trkpt lat="49.54787" lon="-1.85991">
        <ele>39.2</ele>
        <time>2020-06-14T17:35:48Z</time>
      </trkpt>
      <trkpt lat="49.5479" lon="-1.85987">
        <ele>39.3</ele>
        <time>2020-06-14T17:35:49Z</time>
      </trkpt>
      <trkpt lat="49.54794" lon="-1.85983">
        <ele>39.4</ele>
        <time>2020-06-14T17:35:50Z</time>
      </trkpt>
      <trkpt lat="49.54797" lon="-1.8598">
        <ele>39.5</ele>
        <time>2020-06-14T17:35:51Z</time>
      </trkpt>
      <trkpt lat="49.54801" lon="-1.85976">
        <ele>39.6</ele>
        <time>2020-06-14T17:35:52Z</time>
      </trkpt>
      <trkpt lat="49.54806" lon="-1.85971">
        <ele>39.7</ele>
        <time>2020-06-14T17:35:53Z</time>
      </trkpt>
      <trkpt lat="49.5481" lon="-1.85967">
        <ele>39.8</ele>
        <time>2020-06-14T17:35:54Z</time>
      </trkpt>
      <trkpt lat="49.54814" lon="-1.85964">
        <ele>39.8</ele>
        <time>2020-06-14T17:35:55Z</time>
      </trkpt>
      <trkpt lat="49.54817" lon="-1.85963">
        <ele>39.8</ele>
        <time>2020-06-14T17:35:56Z</time>
      </trkpt>
      <trkpt lat="49.54822" lon="-1.85961">
        <ele>39.7</ele>
        <time>2020-06-14T17:35:57Z</time>
      </trkpt>
      <trkpt lat="49.54826" lon="-1.85961">
        <ele>39.7</ele>
        <time>2020-06-14T17:35:58Z</time>
      </trkpt>
      <trkpt lat="49.54831" lon="-1.8596">
        <ele>39.6</ele>
        <time>2020-06-14T17:35:59Z</time>
      </trkpt>
      <trkpt lat="49.54835" lon="-1.85959">
        <ele>39.5</ele>
        <time>2020-06-14T17:36:00Z</time>
      </trkpt>
      <trkpt lat="49.5484" lon="-1.85957">
        <ele>39.3</ele>
        <time>2020-06-14T17:36:01Z</time>
      </trkpt>
      <trkpt lat="49.54845" lon="-1.85956">
        <ele>39.2</ele>
        <time>2020-06-14T17:36:02Z</time>
      </trkpt>
      <trkpt lat="49.54851" lon="-1.85954">
        <ele>39</ele>
        <time>2020-06-14T17:36:03Z</time>
      </trkpt>
      <trkpt lat="49.54856" lon="-1.85952">
        <ele>38.8</ele>
        <time>2020-06-14T17:36:04Z</time>
      </trkpt>
      <trkpt lat="49.54862" lon="-1.85951">
        <ele>38.5</ele>
        <time>2020-06-14T17:36:05Z</time>
      </trkpt>
      <trkpt lat="49.54867" lon="-1.85951">
        <ele>38.3</ele>
        <time>2020-06-14T17:36:06Z</time>
      </trkpt>
      <trkpt lat="49.54872" lon="-1.85951">
        <ele>38.1</ele>
        <time>2020-06-14T17:36:07Z</time>
      </trkpt>
      <trkpt lat="49.54878" lon="-1.8595">
        <ele>37.8</ele>
        <time>2020-06-14T17:36:08Z</time>
      </trkpt>
      <trkpt lat="49.54883" lon="-1.85949">
        <ele>37.5</ele>
        <time>2020-06-14T17:36:09Z</time>
      </trkpt>
      <trkpt lat="49.54889" lon="-1.85948">
        <ele>37.2</ele>
        <time>2020-06-14T17:36:10Z</time>
      </trkpt>
      <trkpt lat="49.54896" lon="-1.85949">
        <ele>36.8</ele>
        <time>2020-06-14T17:36:11Z</time>
      </trkpt>
      <trkpt lat="49.54903" lon="-1.8595">
        <ele>36.4</ele>
        <time>2020-06-14T17:36:12Z</time>
      </trkpt>
      <trkpt lat="49.54911" lon="-1.8595">
        <ele>36</ele>
        <time>2020-06-14T17:36:13Z</time>
      </trkpt>
      <trkpt lat="49.54917" lon="-1.8595">
        <ele>35.7</ele>
        <time>2020-06-14T17:36:14Z</time>
      </trkpt>
      <trkpt lat="49.54923" lon="-1.85949">
        <ele>35.3</ele>
        <time>2020-06-14T17:36:15Z</time>
      </trkpt>
      <trkpt lat="49.54929" lon="-1.85949">
        <ele>34.8</ele>
        <time>2020-06-14T17:36:16Z</time>
      </trkpt>
      <trkpt lat="49.54935" lon="-1.85948">
        <ele>34.4</ele>
        <time>2020-06-14T17:36:17Z</time>
      </trkpt>
      <trkpt lat="49.54942" lon="-1.85947">
        <ele>33.9</ele>
        <time>2020-06-14T17:36:18Z</time>
      </trkpt>
      <trkpt lat="49.54946" lon="-1.85945">
        <ele>33.5</ele>
        <time>2020-06-14T17:36:19Z</time>
      </trkpt>
      <trkpt lat="49.54951" lon="-1.85944">
        <ele>33.1</ele>
        <time>2020-06-14T17:36:20Z</time>
      </trkpt>
      <trkpt lat="49.54957" lon="-1.85942">
        <ele>32.6</ele>
        <time>2020-06-14T17:36:21Z</time>
      </trkpt>
      <trkpt lat="49.54961" lon="-1.85941">
        <ele>32.2</ele>
        <time>2020-06-14T17:36:22Z</time>
      </trkpt>
      <trkpt lat="49.54964" lon="-1.85939">
        <ele>31.8</ele>
        <time>2020-06-14T17:36:23Z</time>
      </trkpt>
      <trkpt lat="49.54967" lon="-1.85935">
        <ele>31.5</ele>
        <time>2020-06-14T17:36:24Z</time>
      </trkpt>
      <trkpt lat="49.5497" lon="-1.85932">
        <ele>31.2</ele>
        <time>2020-06-14T17:36:25Z</time>
      </trkpt>
      <trkpt lat="49.54972" lon="-1.85928">
        <ele>30.8</ele>
        <time>2020-06-14T17:36:26Z</time>
      </trkpt>
      <trkpt lat="49.54976" lon="-1.85925">
        <ele>30.4</ele>
        <time>2020-06-14T17:36:27Z</time>
      </trkpt>
      <trkpt lat="49.5498" lon="-1.8592">
        <ele>29.7</ele>
        <time>2020-06-14T17:36:28Z</time>
      </trkpt>
      <trkpt lat="49.54986" lon="-1.85914">
        <ele>29</ele>
        <time>2020-06-14T17:36:29Z</time>
      </trkpt>
      <trkpt lat="49.54991" lon="-1.85907">
        <ele>28.2</ele>
        <time>2020-06-14T17:36:30Z</time>
      </trkpt>
      <trkpt lat="49.54997" lon="-1.85901">
        <ele>27.4</ele>
        <time>2020-06-14T17:36:31Z</time>
      </trkpt>
      <trkpt lat="49.55004" lon="-1.85895">
        <ele>26.5</ele>
        <time>2020-06-14T17:36:32Z</time>
      </trkpt>
      <trkpt lat="49.55009" lon="-1.8589">
        <ele>25.7</ele>
        <time>2020-06-14T17:36:33Z</time>
      </trkpt>
      <trkpt lat="49.55016" lon="-1.85886">
        <ele>24.9</ele>
        <time>2020-06-14T17:36:34Z</time>
      </trkpt>
      <trkpt lat="49.55021" lon="-1.85883">
        <ele>24.2</ele>
        <time>2020-06-14T17:36:35Z</time>
      </trkpt>
      <trkpt lat="49.55027" lon="-1.8588">
        <ele>23.5</ele>
        <time>2020-06-14T17:36:36Z</time>
      </trkpt>
      <trkpt lat="49.55032" lon="-1.85878">
        <ele>22.9</ele>
        <time>2020-06-14T17:36:37Z</time>
      </trkpt>
      <trkpt lat="49.55037" lon="-1.85875">
        <ele>22.3</ele>
        <time>2020-06-14T17:36:38Z</time>
      </trkpt>
      <trkpt lat="49.55042" lon="-1.85871">
        <ele>21.6</ele>
        <time>2020-06-14T17:36:39Z</time>
      </trkpt>
      <trkpt lat="49.55048" lon="-1.85868">
        <ele>20.9</ele>
        <time>2020-06-14T17:36:40Z</time>
      </trkpt>
      <trkpt lat="49.55055" lon="-1.85864">
        <ele>20.2</ele>
        <time>2020-06-14T17:36:41Z</time>
      </trkpt>
      <trkpt lat="49.55061" lon="-1.85861">
        <ele>19.4</ele>
        <time>2020-06-14T17:36:42Z</time>
      </trkpt>
      <trkpt lat="49.55066" lon="-1.85858">
        <ele>19</ele>
        <time>2020-06-14T17:36:43Z</time>
      </trkpt>
      <trkpt lat="49.55072" lon="-1.85854">
        <ele>18.4</ele>
        <time>2020-06-14T17:36:44Z</time>
      </trkpt>
      <trkpt lat="49.55076" lon="-1.85846">
        <ele>17.8</ele>
        <time>2020-06-14T17:36:45Z</time>
      </trkpt>
      <trkpt lat="49.55079" lon="-1.85836">
        <ele>17.2</ele>
        <time>2020-06-14T17:36:46Z</time>
      </trkpt>
      <trkpt lat="49.5508" lon="-1.85826">
        <ele>16.7</ele>
        <time>2020-06-14T17:36:47Z</time>
      </trkpt>
      <trkpt lat="49.5508" lon="-1.85814">
        <ele>16.2</ele>
        <time>2020-06-14T17:36:48Z</time>
      </trkpt>
      <trkpt lat="49.5508" lon="-1.85803">
        <ele>15.7</ele>
        <time>2020-06-14T17:36:49Z</time>
      </trkpt>
      <trkpt lat="49.55079" lon="-1.85792">
        <ele>15.4</ele>
        <time>2020-06-14T17:36:50Z</time>
      </trkpt>
      <trkpt lat="49.55077" lon="-1.8578">
        <ele>15.1</ele>
        <time>2020-06-14T17:36:51Z</time>
      </trkpt>
      <trkpt lat="49.55074" lon="-1.85769">
        <ele>14.8</ele>
        <time>2020-06-14T17:36:52Z</time>
      </trkpt>
      <trkpt lat="49.5507" lon="-1.85758">
        <ele>14.6</ele>
        <time>2020-06-14T17:36:53Z</time>
      </trkpt>
      <trkpt lat="49.55065" lon="-1.85748">
        <ele>14.5</ele>
        <time>2020-06-14T17:36:54Z</time>
      </trkpt>
      <trkpt lat="49.55059" lon="-1.85741">
        <ele>14.3</ele>
        <time>2020-06-14T17:36:55Z</time>
      </trkpt>
      <trkpt lat="49.55052" lon="-1.85734">
        <ele>14.2</ele>
        <time>2020-06-14T17:36:56Z</time>
      </trkpt>
      <trkpt lat="49.55046" lon="-1.85728">
        <ele>14.1</ele>
        <time>2020-06-14T17:36:57Z</time>
      </trkpt>
      <trkpt lat="49.5504" lon="-1.85722">
        <ele>14</ele>
        <time>2020-06-14T17:36:58Z</time>
      </trkpt>
      <trkpt lat="49.55035" lon="-1.85717">
        <ele>14</ele>
        <time>2020-06-14T17:36:59Z</time>
      </trkpt>
      <trkpt lat="49.5503" lon="-1.85712">
        <ele>14.1</ele>
        <time>2020-06-14T17:37:00Z</time>
      </trkpt>
      <trkpt lat="49.55025" lon="-1.85706">
        <ele>14.1</ele>
        <time>2020-06-14T17:37:01Z</time>
      </trkpt>
      <trkpt lat="49.5502" lon="-1.857">
        <ele>14.2</ele>
        <time>2020-06-14T17:37:02Z</time>
      </trkpt>
      <trkpt lat="49.55016" lon="-1.85695">
        <ele>14.2</ele>
        <time>2020-06-14T17:37:03Z</time>
      </trkpt>
      <trkpt lat="49.55011" lon="-1.85689">
        <ele>14.3</ele>
        <time>2020-06-14T17:37:04Z</time>
      </trkpt>
      <trkpt lat="49.55007" lon="-1.85684">
        <ele>14.4</ele>
        <time>2020-06-14T17:37:05Z</time>
      </trkpt>
      <trkpt lat="49.55005" lon="-1.85677">
        <ele>14.5</ele>
        <time>2020-06-14T17:37:06Z</time>
      </trkpt>
      <trkpt lat="49.55002" lon="-1.85672">
        <ele>14.6</ele>
        <time>2020-06-14T17:37:07Z</time>
      </trkpt>
      <trkpt lat="49.55004" lon="-1.85665">
        <ele>14.6</ele>
        <time>2020-06-14T17:37:08Z</time>
      </trkpt>
      <trkpt lat="49.55006" lon="-1.85659">
        <ele>14.6</ele>
        <time>2020-06-14T17:37:09Z</time>
      </trkpt>
      <trkpt lat="49.55008" lon="-1.85657">
        <ele>14.6</ele>
        <time>2020-06-14T17:37:10Z</time>
      </trkpt>
      <trkpt lat="49.55011" lon="-1.85656">
        <ele>14.5</ele>
        <time>2020-06-14T17:37:11Z</time>
      </trkpt>
      <trkpt lat="49.55016" lon="-1.85655">
        <ele>14.3</ele>
        <time>2020-06-14T17:37:12Z</time>
      </trkpt>
      <trkpt lat="49.55021" lon="-1.85657">
        <ele>13.9</ele>
        <time>2020-06-14T17:37:13Z</time>
      </trkpt>
      <trkpt lat="49.55026" lon="-1.85659">
        <ele>13.6</ele>
        <time>2020-06-14T17:37:14Z</time>
      </trkpt>
      <trkpt lat="49.55031" lon="-1.85664">
        <ele>13.2</ele>
        <time>2020-06-14T17:37:15Z</time>
      </trkpt>
      <trkpt lat="49.55036" lon="-1.85668">
        <ele>12.8</ele>
        <time>2020-06-14T17:37:16Z</time>
      </trkpt>
      <trkpt lat="49.5504" lon="-1.85673">
        <ele>12.5</ele>
        <time>2020-06-14T17:37:17Z</time>
      </trkpt>
      <trkpt lat="49.55045" lon="-1.85677">
        <ele>12.2</ele>
        <time>2020-06-14T17:37:18Z</time>
      </trkpt>
      <trkpt lat="49.5505" lon="-1.85682">
        <ele>11.8</ele>
        <time>2020-06-14T17:37:19Z</time>
      </trkpt>
      <trkpt lat="49.55055" lon="-1.85687">
        <ele>11.4</ele>
        <time>2020-06-14T17:37:20Z</time>
      </trkpt>
      <trkpt lat="49.5506" lon="-1.85692">
        <ele>11.1</ele>
        <time>2020-06-14T17:37:21Z</time>
      </trkpt>
      <trkpt lat="49.55066" lon="-1.85694">
        <ele>10.7</ele>
        <time>2020-06-14T17:37:22Z</time>
      </trkpt>
      <trkpt lat="49.55073" lon="-1.85694">
        <ele>10.3</ele>
        <time>2020-06-14T17:37:23Z</time>
      </trkpt>
      <trkpt lat="49.5508" lon="-1.85691">
        <ele>10.1</ele>
        <time>2020-06-14T17:37:24Z</time>
      </trkpt>
      <trkpt lat="49.55088" lon="-1.85686">
        <ele>9.8</ele>
        <time>2020-06-14T17:37:25Z</time>
      </trkpt>
      <trkpt lat="49.55096" lon="-1.85681">
        <ele>9.4</ele>
        <time>2020-06-14T17:37:26Z</time>
      </trkpt>
      <trkpt lat="49.55104" lon="-1.85677">
        <ele>9.1</ele>
        <time>2020-06-14T17:37:27Z</time>
      </trkpt>
      <trkpt lat="49.55112" lon="-1.85672">
        <ele>8.8</ele>
        <time>2020-06-14T17:37:28Z</time>
      </trkpt>
      <trkpt lat="49.55121" lon="-1.85668">
        <ele>8.4</ele>
        <time>2020-06-14T17:37:29Z</time>
      </trkpt>
      <trkpt lat="49.55129" lon="-1.85664">
        <ele>8.1</ele>
        <time>2020-06-14T17:37:30Z</time>
      </trkpt>
      <trkpt lat="49.55137" lon="-1.85661">
        <ele>7.8</ele>
        <time>2020-06-14T17:37:31Z</time>
      </trkpt>
      <trkpt lat="49.55146" lon="-1.85656">
        <ele>7.6</ele>
        <time>2020-06-14T17:37:32Z</time>
      </trkpt>
      <trkpt lat="49.55154" lon="-1.85653">
        <ele>7.4</ele>
        <time>2020-06-14T17:37:33Z</time>
      </trkpt>
      <trkpt lat="49.55162" lon="-1.85649">
        <ele>7.3</ele>
        <time>2020-06-14T17:37:34Z</time>
      </trkpt>
      <trkpt lat="49.55171" lon="-1.85646">
        <ele>7.4</ele>
        <time>2020-06-14T17:37:35Z</time>
      </trkpt>
      <trkpt lat="49.55179" lon="-1.85644">
        <ele>7.5</ele>
        <time>2020-06-14T17:37:36Z</time>
      </trkpt>
      <trkpt lat="49.55187" lon="-1.85643">
        <ele>7.6</ele>
        <time>2020-06-14T17:37:37Z</time>
      </trkpt>
      <trkpt lat="49.55194" lon="-1.85643">
        <ele>7.6</ele>
        <time>2020-06-14T17:37:38Z</time>
      </trkpt>
      <trkpt lat="49.552" lon="-1.85644">
        <ele>7.7</ele>
        <time>2020-06-14T17:37:39Z</time>
      </trkpt>
      <trkpt lat="49.55207" lon="-1.85644">
        <ele>7.7</ele>
        <time>2020-06-14T17:37:40Z</time>
      </trkpt>
      <trkpt lat="49.55213" lon="-1.85646">
        <ele>8</ele>
        <time>2020-06-14T17:37:41Z</time>
      </trkpt>
      <trkpt lat="49.55218" lon="-1.85648">
        <ele>8</ele>
        <time>2020-06-14T17:37:42Z</time>
      </trkpt>
      <trkpt lat="49.55224" lon="-1.8565">
        <ele>7.9</ele>
        <time>2020-06-14T17:37:43Z</time>
      </trkpt>
      <trkpt lat="49.55229" lon="-1.85651">
        <ele>7.9</ele>
        <time>2020-06-14T17:37:44Z</time>
      </trkpt>
      <trkpt lat="49.55234" lon="-1.85652">
        <ele>7.9</ele>
        <time>2020-06-14T17:37:45Z</time>
      </trkpt>
      <trkpt lat="49.55239" lon="-1.85653">
        <ele>7.9</ele>
        <time>2020-06-14T17:37:46Z</time>
      </trkpt>
      <trkpt lat="49.55244" lon="-1.85655">
        <ele>7.9</ele>
        <time>2020-06-14T17:37:47Z</time>
      </trkpt>
      <trkpt lat="49.55248" lon="-1.85658">
        <ele>8.2</ele>
        <time>2020-06-14T17:37:48Z</time>
      </trkpt>
      <trkpt lat="49.55252" lon="-1.85659">
        <ele>8.5</ele>
        <time>2020-06-14T17:37:49Z</time>
      </trkpt>
      <trkpt lat="49.55256" lon="-1.8566">
        <ele>8.8</ele>
        <time>2020-06-14T17:37:50Z</time>
      </trkpt>
      <trkpt lat="49.55259" lon="-1.85661">
        <ele>9</ele>
        <time>2020-06-14T17:37:51Z</time>
      </trkpt>
      <trkpt lat="49.55263" lon="-1.85663">
        <ele>9.3</ele>
        <time>2020-06-14T17:37:52Z</time>
      </trkpt>
      <trkpt lat="49.55267" lon="-1.85665">
        <ele>9.6</ele>
        <time>2020-06-14T17:37:53Z</time>
      </trkpt>
      <trkpt lat="49.55272" lon="-1.85665">
        <ele>9.9</ele>
        <time>2020-06-14T17:37:54Z</time>
      </trkpt>
      <trkpt lat="49.55275" lon="-1.85666">
        <ele>10.2</ele>
        <time>2020-06-14T17:37:55Z</time>
      </trkpt>
      <trkpt lat="49.55279" lon="-1.85668">
        <ele>10.5</ele>
        <time>2020-06-14T17:37:56Z</time>
      </trkpt>
      <trkpt lat="49.55282" lon="-1.85668">
        <ele>10.7</ele>
        <time>2020-06-14T17:37:57Z</time>
      </trkpt>
      <trkpt lat="49.55286" lon="-1.85669">
        <ele>11</ele>
        <time>2020-06-14T17:37:58Z</time>
      </trkpt>
      <trkpt lat="49.55289" lon="-1.85671">
        <ele>11.3</ele>
        <time>2020-06-14T17:37:59Z</time>
      </trkpt>
      <trkpt lat="49.55293" lon="-1.85672">
        <ele>11.6</ele>
        <time>2020-06-14T17:38:00Z</time>
      </trkpt>
      <trkpt lat="49.55297" lon="-1.85672">
        <ele>11.8</ele>
        <time>2020-06-14T17:38:01Z</time>
      </trkpt>
      <trkpt lat="49.553" lon="-1.85672">
        <ele>12.1</ele>
        <time>2020-06-14T17:38:02Z</time>
      </trkpt>
      <trkpt lat="49.55305" lon="-1.85673">
        <ele>12.4</ele>
        <time>2020-06-14T17:38:03Z</time>
      </trkpt>
      <trkpt lat="49.55309" lon="-1.85673">
        <ele>12.7</ele>
        <time>2020-06-14T17:38:04Z</time>
      </trkpt>
      <trkpt lat="49.55311" lon="-1.85673">
        <ele>12.8</ele>
        <time>2020-06-14T17:38:05Z</time>
      </trkpt>
      <trkpt lat="49.55315" lon="-1.85675">
        <ele>13.2</ele>
        <time>2020-06-14T17:38:06Z</time>
      </trkpt>
      <trkpt lat="49.5532" lon="-1.85676">
        <ele>13.5</ele>
        <time>2020-06-14T17:38:07Z</time>
      </trkpt>
      <trkpt lat="49.55324" lon="-1.85676">
        <ele>13.8</ele>
        <time>2020-06-14T17:38:08Z</time>
      </trkpt>
      <trkpt lat="49.55327" lon="-1.85678">
        <ele>14.1</ele>
        <time>2020-06-14T17:38:09Z</time>
      </trkpt>
      <trkpt lat="49.55331" lon="-1.85679">
        <ele>14.4</ele>
        <time>2020-06-14T17:38:10Z</time>
      </trkpt>
      <trkpt lat="49.55335" lon="-1.8568">
        <ele>14.7</ele>
        <time>2020-06-14T17:38:11Z</time>
      </trkpt>
      <trkpt lat="49.55338" lon="-1.8568">
        <ele>14.9</ele>
        <time>2020-06-14T17:38:12Z</time>
      </trkpt>
      <trkpt lat="49.55341" lon="-1.8568">
        <ele>15.2</ele>
        <time>2020-06-14T17:38:13Z</time>
      </trkpt>
      <trkpt lat="49.55345" lon="-1.85679">
        <ele>15.4</ele>
        <time>2020-06-14T17:38:14Z</time>
      </trkpt>
      <trkpt lat="49.55349" lon="-1.85678">
        <ele>15.9</ele>
        <time>2020-06-14T17:38:15Z</time>
      </trkpt>
      <trkpt lat="49.55354" lon="-1.85676">
        <ele>16.3</ele>
        <time>2020-06-14T17:38:16Z</time>
      </trkpt>
      <trkpt lat="49.55358" lon="-1.85674">
        <ele>16.7</ele>
        <time>2020-06-14T17:38:17Z</time>
      </trkpt>
      <trkpt lat="49.55361" lon="-1.85672">
        <ele>17.1</ele>
        <time>2020-06-14T17:38:18Z</time>
      </trkpt>
      <trkpt lat="49.55365" lon="-1.85671">
        <ele>17.3</ele>
        <time>2020-06-14T17:38:19Z</time>
      </trkpt>
      <trkpt lat="49.55368" lon="-1.85669">
        <ele>17.6</ele>
        <time>2020-06-14T17:38:20Z</time>
      </trkpt>
      <trkpt lat="49.55372" lon="-1.85664">
        <ele>18</ele>
        <time>2020-06-14T17:38:21Z</time>
      </trkpt>
      <trkpt lat="49.55373" lon="-1.85662">
        <ele>18.2</ele>
        <time>2020-06-14T17:38:22Z</time>
      </trkpt>
      <trkpt lat="49.55377" lon="-1.85658">
        <ele>18.5</ele>
        <time>2020-06-14T17:38:23Z</time>
      </trkpt>
      <trkpt lat="49.5538" lon="-1.85655">
        <ele>18.8</ele>
        <time>2020-06-14T17:38:24Z</time>
      </trkpt>
      <trkpt lat="49.55383" lon="-1.85651">
        <ele>19.1</ele>
        <time>2020-06-14T17:38:25Z</time>
      </trkpt>
      <trkpt lat="49.55385" lon="-1.85648">
        <ele>19.4</ele>
        <time>2020-06-14T17:38:26Z</time>
      </trkpt>
      <trkpt lat="49.55388" lon="-1.85644">
        <ele>19.6</ele>
        <time>2020-06-14T17:38:27Z</time>
      </trkpt>
      <trkpt lat="49.55389" lon="-1.85643">
        <ele>19.7</ele>
        <time>2020-06-14T17:38:28Z</time>
      </trkpt>
      <trkpt lat="49.55391" lon="-1.8564">
        <ele>20</ele>
        <time>2020-06-14T17:38:29Z</time>
      </trkpt>
      <trkpt lat="49.55395" lon="-1.85634">
        <ele>20.4</ele>
        <time>2020-06-14T17:38:30Z</time>
      </trkpt>
      <trkpt lat="49.55397" lon="-1.8563">
        <ele>20.6</ele>
        <time>2020-06-14T17:38:31Z</time>
      </trkpt>
      <trkpt lat="49.554" lon="-1.85627">
        <ele>21</ele>
        <time>2020-06-14T17:38:32Z</time>
      </trkpt>
      <trkpt lat="49.55402" lon="-1.85625">
        <ele>21.1</ele>
        <time>2020-06-14T17:38:33Z</time>
      </trkpt>
      <trkpt lat="49.55405" lon="-1.85622">
        <ele>21.4</ele>
        <time>2020-06-14T17:38:34Z</time>
      </trkpt>
      <trkpt lat="49.55408" lon="-1.85619">
        <ele>21.7</ele>
        <time>2020-06-14T17:38:35Z</time>
      </trkpt>
      <trkpt lat="49.55409" lon="-1.85617">
        <ele>21.8</ele>
        <time>2020-06-14T17:38:36Z</time>
      </trkpt>
      <trkpt lat="49.55412" lon="-1.85612">
        <ele>22.1</ele>
        <time>2020-06-14T17:38:37Z</time>
      </trkpt>
      <trkpt lat="49.55414" lon="-1.85607">
        <ele>22.4</ele>
        <time>2020-06-14T17:38:38Z</time>
      </trkpt>
      <trkpt lat="49.55417" lon="-1.85604">
        <ele>22.6</ele>
        <time>2020-06-14T17:38:39Z</time>
      </trkpt>
      <trkpt lat="49.5542" lon="-1.85601">
        <ele>22.9</ele>
        <time>2020-06-14T17:38:40Z</time>
      </trkpt>
      <trkpt lat="49.55422" lon="-1.85597">
        <ele>23.1</ele>
        <time>2020-06-14T17:38:41Z</time>
      </trkpt>
      <trkpt lat="49.55425" lon="-1.85593">
        <ele>23.3</ele>
        <time>2020-06-14T17:38:42Z</time>
      </trkpt>
      <trkpt lat="49.55428" lon="-1.85589">
        <ele>23.6</ele>
        <time>2020-06-14T17:38:43Z</time>
      </trkpt>
      <trkpt lat="49.5543" lon="-1.85586">
        <ele>23.8</ele>
        <time>2020-06-14T17:38:44Z</time>
      </trkpt>
      <trkpt lat="49.55433" lon="-1.85581">
        <ele>24</ele>
        <time>2020-06-14T17:38:45Z</time>
      </trkpt>
      <trkpt lat="49.55434" lon="-1.85577">
        <ele>24.2</ele>
        <time>2020-06-14T17:38:46Z</time>
      </trkpt>
      <trkpt lat="49.55437" lon="-1.85571">
        <ele>24.4</ele>
        <time>2020-06-14T17:38:47Z</time>
      </trkpt>
      <trkpt lat="49.5544" lon="-1.85567">
        <ele>24.5</ele>
        <time>2020-06-14T17:38:48Z</time>
      </trkpt>
      <trkpt lat="49.55443" lon="-1.85562">
        <ele>24.6</ele>
        <time>2020-06-14T17:38:49Z</time>
      </trkpt>
      <trkpt lat="49.55446" lon="-1.85558">
        <ele>24.7</ele>
        <time>2020-06-14T17:38:50Z</time>
      </trkpt>
      <trkpt lat="49.55447" lon="-1.85556">
        <ele>24.8</ele>
        <time>2020-06-14T17:38:51Z</time>
      </trkpt>
      <trkpt lat="49.5545" lon="-1.85552">
        <ele>24.9</ele>
        <time>2020-06-14T17:38:52Z</time>
      </trkpt>
      <trkpt lat="49.55453" lon="-1.85547">
        <ele>25</ele>
        <time>2020-06-14T17:38:53Z</time>
      </trkpt>
      <trkpt lat="49.55454" lon="-1.85543">
        <ele>25.1</ele>
        <time>2020-06-14T17:38:54Z</time>
      </trkpt>
      <trkpt lat="49.55456" lon="-1.85538">
        <ele>25.2</ele>
        <time>2020-06-14T17:38:55Z</time>
      </trkpt>
      <trkpt lat="49.55459" lon="-1.85533">
        <ele>25.2</ele>
        <time>2020-06-14T17:38:56Z</time>
      </trkpt>
      <trkpt lat="49.55461" lon="-1.85528">
        <ele>25.3</ele>
        <time>2020-06-14T17:38:57Z</time>
      </trkpt>
      <trkpt lat="49.55463" lon="-1.85523">
        <ele>25.4</ele>
        <time>2020-06-14T17:38:58Z</time>
      </trkpt>
      <trkpt lat="49.55466" lon="-1.85518">
        <ele>25.4</ele>
        <time>2020-06-14T17:38:59Z</time>
      </trkpt>
      <trkpt lat="49.55468" lon="-1.85513">
        <ele>25.5</ele>
        <time>2020-06-14T17:39:00Z</time>
      </trkpt>
      <trkpt lat="49.55471" lon="-1.85509">
        <ele>25.5</ele>
        <time>2020-06-14T17:39:01Z</time>
      </trkpt>
      <trkpt lat="49.55474" lon="-1.85504">
        <ele>25.6</ele>
        <time>2020-06-14T17:39:02Z</time>
      </trkpt>
      <trkpt lat="49.55477" lon="-1.85499">
        <ele>25.6</ele>
        <time>2020-06-14T17:39:03Z</time>
      </trkpt>
      <trkpt lat="49.5548" lon="-1.85495">
        <ele>25.7</ele>
        <time>2020-06-14T17:39:04Z</time>
      </trkpt>
      <trkpt lat="49.55484" lon="-1.85489">
        <ele>25.8</ele>
        <time>2020-06-14T17:39:05Z</time>
      </trkpt>
      <trkpt lat="49.55487" lon="-1.85484">
        <ele>25.9</ele>
        <time>2020-06-14T17:39:06Z</time>
      </trkpt>
      <trkpt lat="49.5549" lon="-1.85479">
        <ele>25.9</ele>
        <time>2020-06-14T17:39:07Z</time>
      </trkpt>
      <trkpt lat="49.55492" lon="-1.85474">
        <ele>26</ele>
        <time>2020-06-14T17:39:08Z</time>
      </trkpt>
      <trkpt lat="49.55495" lon="-1.85469">
        <ele>26.1</ele>
        <time>2020-06-14T17:39:09Z</time>
      </trkpt>
      <trkpt lat="49.55498" lon="-1.85463">
        <ele>26.1</ele>
        <time>2020-06-14T17:39:10Z</time>
      </trkpt>
      <trkpt lat="49.555" lon="-1.85459">
        <ele>26.2</ele>
        <time>2020-06-14T17:39:11Z</time>
      </trkpt>
      <trkpt lat="49.55502" lon="-1.85453">
        <ele>26.2</ele>
        <time>2020-06-14T17:39:12Z</time>
      </trkpt>
      <trkpt lat="49.55505" lon="-1.85447">
        <ele>26.3</ele>
        <time>2020-06-14T17:39:13Z</time>
      </trkpt>
      <trkpt lat="49.55507" lon="-1.85441">
        <ele>26.3</ele>
        <time>2020-06-14T17:39:14Z</time>
      </trkpt>
      <trkpt lat="49.5551" lon="-1.85435">
        <ele>26.3</ele>
        <time>2020-06-14T17:39:15Z</time>
      </trkpt>
      <trkpt lat="49.55514" lon="-1.8543">
        <ele>26.4</ele>
        <time>2020-06-14T17:39:16Z</time>
      </trkpt>
      <trkpt lat="49.55517" lon="-1.85424">
        <ele>26.4</ele>
        <time>2020-06-14T17:39:17Z</time>
      </trkpt>
      <trkpt lat="49.55519" lon="-1.85418">
        <ele>26.4</ele>
        <time>2020-06-14T17:39:18Z</time>
      </trkpt>
      <trkpt lat="49.55521" lon="-1.85412">
        <ele>26.5</ele>
        <time>2020-06-14T17:39:19Z</time>
      </trkpt>
      <trkpt lat="49.55524" lon="-1.85407">
        <ele>26.5</ele>
        <time>2020-06-14T17:39:20Z</time>
      </trkpt>
      <trkpt lat="49.55527" lon="-1.85402">
        <ele>26.6</ele>
        <time>2020-06-14T17:39:21Z</time>
      </trkpt>
      <trkpt lat="49.5553" lon="-1.85397">
        <ele>26.7</ele>
        <time>2020-06-14T17:39:22Z</time>
      </trkpt>
      <trkpt lat="49.55532" lon="-1.85391">
        <ele>26.7</ele>
        <time>2020-06-14T17:39:23Z</time>
      </trkpt>
      <trkpt lat="49.55534" lon="-1.85385">
        <ele>26.8</ele>
        <time>2020-06-14T17:39:24Z</time>
      </trkpt>
      <trkpt lat="49.55536" lon="-1.8538">
        <ele>26.9</ele>
        <time>2020-06-14T17:39:25Z</time>
      </trkpt>
      <trkpt lat="49.55539" lon="-1.85375">
        <ele>26.9</ele>
        <time>2020-06-14T17:39:26Z</time>
      </trkpt>
      <trkpt lat="49.55541" lon="-1.85369">
        <ele>27</ele>
        <time>2020-06-14T17:39:27Z</time>
      </trkpt>
      <trkpt lat="49.55542" lon="-1.85365">
        <ele>27</ele>
        <time>2020-06-14T17:39:28Z</time>
      </trkpt>
      <trkpt lat="49.55544" lon="-1.85361">
        <ele>27</ele>
        <time>2020-06-14T17:39:29Z</time>
      </trkpt>
      <trkpt lat="49.55546" lon="-1.85354">
        <ele>27.1</ele>
        <time>2020-06-14T17:39:30Z</time>
      </trkpt>
      <trkpt lat="49.55548" lon="-1.8535">
        <ele>27.2</ele>
        <time>2020-06-14T17:39:31Z</time>
      </trkpt>
      <trkpt lat="49.5555" lon="-1.85344">
        <ele>27.2</ele>
        <time>2020-06-14T17:39:32Z</time>
      </trkpt>
      <trkpt lat="49.55553" lon="-1.85339">
        <ele>27.3</ele>
        <time>2020-06-14T17:39:33Z</time>
      </trkpt>
      <trkpt lat="49.55556" lon="-1.85334">
        <ele>27.3</ele>
        <time>2020-06-14T17:39:34Z</time>
      </trkpt>
      <trkpt lat="49.55558" lon="-1.85331">
        <ele>27.4</ele>
        <time>2020-06-14T17:39:35Z</time>
      </trkpt>
      <trkpt lat="49.55561" lon="-1.85326">
        <ele>27.4</ele>
        <time>2020-06-14T17:39:36Z</time>
      </trkpt>
      <trkpt lat="49.55563" lon="-1.8532">
        <ele>27.5</ele>
        <time>2020-06-14T17:39:37Z</time>
      </trkpt>
      <trkpt lat="49.55566" lon="-1.85314">
        <ele>27.6</ele>
        <time>2020-06-14T17:39:38Z</time>
      </trkpt>
      <trkpt lat="49.55568" lon="-1.85307">
        <ele>27.7</ele>
        <time>2020-06-14T17:39:39Z</time>
      </trkpt>
      <trkpt lat="49.55571" lon="-1.85302">
        <ele>27.8</ele>
        <time>2020-06-14T17:39:40Z</time>
      </trkpt>
      <trkpt lat="49.55573" lon="-1.85296">
        <ele>27.9</ele>
        <time>2020-06-14T17:39:41Z</time>
      </trkpt>
      <trkpt lat="49.55577" lon="-1.85292">
        <ele>28</ele>
        <time>2020-06-14T17:39:42Z</time>
      </trkpt>
      <trkpt lat="49.5558" lon="-1.85286">
        <ele>28.1</ele>
        <time>2020-06-14T17:39:43Z</time>
      </trkpt>
      <trkpt lat="49.55582" lon="-1.85282">
        <ele>28.2</ele>
        <time>2020-06-14T17:39:44Z</time>
      </trkpt>
      <trkpt lat="49.55585" lon="-1.85276">
        <ele>28.3</ele>
        <time>2020-06-14T17:39:45Z</time>
      </trkpt>
      <trkpt lat="49.55588" lon="-1.85271">
        <ele>28.4</ele>
        <time>2020-06-14T17:39:46Z</time>
      </trkpt>
      <trkpt lat="49.5559" lon="-1.85265">
        <ele>28.5</ele>
        <time>2020-06-14T17:39:47Z</time>
      </trkpt>
      <trkpt lat="49.55591" lon="-1.85261">
        <ele>28.6</ele>
        <time>2020-06-14T17:39:48Z</time>
      </trkpt>
      <trkpt lat="49.55594" lon="-1.85256">
        <ele>28.7</ele>
        <time>2020-06-14T17:39:49Z</time>
      </trkpt>
      <trkpt lat="49.55597" lon="-1.85251">
        <ele>28.8</ele>
        <time>2020-06-14T17:39:50Z</time>
      </trkpt>
      <trkpt lat="49.55599" lon="-1.85245">
        <ele>29</ele>
        <time>2020-06-14T17:39:51Z</time>
      </trkpt>
      <trkpt lat="49.55601" lon="-1.85242">
        <ele>29.1</ele>
        <time>2020-06-14T17:39:52Z</time>
      </trkpt>
      <trkpt lat="49.55604" lon="-1.85238">
        <ele>29.2</ele>
        <time>2020-06-14T17:39:53Z</time>
      </trkpt>
      <trkpt lat="49.55607" lon="-1.85233">
        <ele>29.4</ele>
        <time>2020-06-14T17:39:54Z</time>
      </trkpt>
      <trkpt lat="49.55608" lon="-1.85227">
        <ele>29.5</ele>
        <time>2020-06-14T17:39:55Z</time>
      </trkpt>
      <trkpt lat="49.55611" lon="-1.85222">
        <ele>29.7</ele>
        <time>2020-06-14T17:39:56Z</time>
      </trkpt>
      <trkpt lat="49.55613" lon="-1.85217">
        <ele>29.9</ele>
        <time>2020-06-14T17:39:57Z</time>
      </trkpt>
      <trkpt lat="49.55614" lon="-1.85213">
        <ele>30.1</ele>
        <time>2020-06-14T17:39:58Z</time>
      </trkpt>
      <trkpt lat="49.55618" lon="-1.85209">
        <ele>30.3</ele>
        <time>2020-06-14T17:39:59Z</time>
      </trkpt>
      <trkpt lat="49.5562" lon="-1.85207">
        <ele>30.4</ele>
        <time>2020-06-14T17:40:00Z</time>
      </trkpt>
      <trkpt lat="49.55622" lon="-1.85204">
        <ele>30.5</ele>
        <time>2020-06-14T17:40:01Z</time>
      </trkpt>
      <trkpt lat="49.55625" lon="-1.85198">
        <ele>30.8</ele>
        <time>2020-06-14T17:40:02Z</time>
      </trkpt>
      <trkpt lat="49.5563" lon="-1.85193">
        <ele>31.1</ele>
        <time>2020-06-14T17:40:03Z</time>
      </trkpt>
      <trkpt lat="49.55632" lon="-1.8519">
        <ele>31.3</ele>
        <time>2020-06-14T17:40:04Z</time>
      </trkpt>
      <trkpt lat="49.55635" lon="-1.85187">
        <ele>31.5</ele>
        <time>2020-06-14T17:40:05Z</time>
      </trkpt>
      <trkpt lat="49.55637" lon="-1.85184">
        <ele>31.7</ele>
        <time>2020-06-14T17:40:06Z</time>
      </trkpt>
      <trkpt lat="49.55641" lon="-1.8518">
        <ele>32</ele>
        <time>2020-06-14T17:40:07Z</time>
      </trkpt>
      <trkpt lat="49.55644" lon="-1.85176">
        <ele>32.3</ele>
        <time>2020-06-14T17:40:08Z</time>
      </trkpt>
      <trkpt lat="49.55647" lon="-1.85173">
        <ele>32.5</ele>
        <time>2020-06-14T17:40:09Z</time>
      </trkpt>
      <trkpt lat="49.5565" lon="-1.85169">
        <ele>32.8</ele>
        <time>2020-06-14T17:40:10Z</time>
      </trkpt>
      <trkpt lat="49.55654" lon="-1.85166">
        <ele>33.1</ele>
        <time>2020-06-14T17:40:11Z</time>
      </trkpt>
      <trkpt lat="49.55658" lon="-1.85161">
        <ele>33.4</ele>
        <time>2020-06-14T17:40:12Z</time>
      </trkpt>
      <trkpt lat="49.55661" lon="-1.85158">
        <ele>33.7</ele>
        <time>2020-06-14T17:40:13Z</time>
      </trkpt>
      <trkpt lat="49.55665" lon="-1.85155">
        <ele>33.9</ele>
        <time>2020-06-14T17:40:14Z</time>
      </trkpt>
      <trkpt lat="49.55667" lon="-1.85152">
        <ele>34.2</ele>
        <time>2020-06-14T17:40:15Z</time>
      </trkpt>
      <trkpt lat="49.55671" lon="-1.85149">
        <ele>34.4</ele>
        <time>2020-06-14T17:40:16Z</time>
      </trkpt>
      <trkpt lat="49.55674" lon="-1.85146">
        <ele>34.7</ele>
        <time>2020-06-14T17:40:17Z</time>
      </trkpt>
      <trkpt lat="49.55677" lon="-1.85142">
        <ele>35</ele>
        <time>2020-06-14T17:40:18Z</time>
      </trkpt>
      <trkpt lat="49.55681" lon="-1.85137">
        <ele>35.4</ele>
        <time>2020-06-14T17:40:19Z</time>
      </trkpt>
      <trkpt lat="49.55684" lon="-1.85135">
        <ele>35.7</ele>
        <time>2020-06-14T17:40:20Z</time>
      </trkpt>
      <trkpt lat="49.55685" lon="-1.85134">
        <ele>35.8</ele>
        <time>2020-06-14T17:40:21Z</time>
      </trkpt>
      <trkpt lat="49.55688" lon="-1.85131">
        <ele>36.1</ele>
        <time>2020-06-14T17:40:22Z</time>
      </trkpt>
      <trkpt lat="49.55691" lon="-1.85128">
        <ele>36.3</ele>
        <time>2020-06-14T17:40:23Z</time>
      </trkpt>
      <trkpt lat="49.55693" lon="-1.85126">
        <ele>36.5</ele>
        <time>2020-06-14T17:40:24Z</time>
      </trkpt>
      <trkpt lat="49.55695" lon="-1.85123">
        <ele>36.7</ele>
        <time>2020-06-14T17:40:25Z</time>
      </trkpt>
      <trkpt lat="49.557" lon="-1.85117">
        <ele>37.2</ele>
        <time>2020-06-14T17:40:26Z</time>
      </trkpt>
      <trkpt lat="49.55703" lon="-1.85113">
        <ele>37.5</ele>
        <time>2020-06-14T17:40:27Z</time>
      </trkpt>
      <trkpt lat="49.55706" lon="-1.85109">
        <ele>37.9</ele>
        <time>2020-06-14T17:40:28Z</time>
      </trkpt>
      <trkpt lat="49.55709" lon="-1.85105">
        <ele>38.2</ele>
        <time>2020-06-14T17:40:29Z</time>
      </trkpt>
      <trkpt lat="49.55713" lon="-1.85101">
        <ele>38.6</ele>
        <time>2020-06-14T17:40:30Z</time>
      </trkpt>
      <trkpt lat="49.55715" lon="-1.85099">
        <ele>38.8</ele>
        <time>2020-06-14T17:40:31Z</time>
      </trkpt>
      <trkpt lat="49.55718" lon="-1.85095">
        <ele>39.1</ele>
        <time>2020-06-14T17:40:32Z</time>
      </trkpt>
      <trkpt lat="49.5572" lon="-1.85091">
        <ele>39.3</ele>
        <time>2020-06-14T17:40:33Z</time>
      </trkpt>
      <trkpt lat="49.55722" lon="-1.85088">
        <ele>39.6</ele>
        <time>2020-06-14T17:40:34Z</time>
      </trkpt>
      <trkpt lat="49.55724" lon="-1.85084">
        <ele>39.8</ele>
        <time>2020-06-14T17:40:35Z</time>
      </trkpt>
      <trkpt lat="49.55728" lon="-1.8508">
        <ele>40.2</ele>
        <time>2020-06-14T17:40:36Z</time>
      </trkpt>
      <trkpt lat="49.5573" lon="-1.85076">
        <ele>40.5</ele>
        <time>2020-06-14T17:40:37Z</time>
      </trkpt>
      <trkpt lat="49.55733" lon="-1.85072">
        <ele>40.8</ele>
        <time>2020-06-14T17:40:38Z</time>
      </trkpt>
      <trkpt lat="49.55736" lon="-1.85068">
        <ele>41.1</ele>
        <time>2020-06-14T17:40:39Z</time>
      </trkpt>
      <trkpt lat="49.55739" lon="-1.85064">
        <ele>41.4</ele>
        <time>2020-06-14T17:40:40Z</time>
      </trkpt>
      <trkpt lat="49.55741" lon="-1.85062">
        <ele>41.6</ele>
        <time>2020-06-14T17:40:41Z</time>
      </trkpt>
      <trkpt lat="49.55744" lon="-1.85057">
        <ele>41.9</ele>
        <time>2020-06-14T17:40:42Z</time>
      </trkpt>
      <trkpt lat="49.55746" lon="-1.85052">
        <ele>42.2</ele>
        <time>2020-06-14T17:40:43Z</time>
      </trkpt>
      <trkpt lat="49.55747" lon="-1.8505">
        <ele>42.3</ele>
        <time>2020-06-14T17:40:44Z</time>
      </trkpt>
      <trkpt lat="49.55749" lon="-1.85045">
        <ele>42.6</ele>
        <time>2020-06-14T17:40:45Z</time>
      </trkpt>
      <trkpt lat="49.55752" lon="-1.85039">
        <ele>42.9</ele>
        <time>2020-06-14T17:40:46Z</time>
      </trkpt>
      <trkpt lat="49.55755" lon="-1.85034">
        <ele>43.2</ele>
        <time>2020-06-14T17:40:47Z</time>
      </trkpt>
      <trkpt lat="49.55758" lon="-1.85029">
        <ele>43.5</ele>
        <time>2020-06-14T17:40:48Z</time>
      </trkpt>
      <trkpt lat="49.5576" lon="-1.85025">
        <ele>43.8</ele>
        <time>2020-06-14T17:40:49Z</time>
      </trkpt>
      <trkpt lat="49.55761" lon="-1.85017">
        <ele>44.2</ele>
        <time>2020-06-14T17:40:50Z</time>
      </trkpt>
      <trkpt lat="49.55762" lon="-1.85008">
        <ele>44.6</ele>
        <time>2020-06-14T17:40:51Z</time>
      </trkpt>
      <trkpt lat="49.55763" lon="-1.85003">
        <ele>44.9</ele>
        <time>2020-06-14T17:40:52Z</time>
      </trkpt>
      <trkpt lat="49.55764" lon="-1.84998">
        <ele>45.2</ele>
        <time>2020-06-14T17:40:53Z</time>
      </trkpt>
      <trkpt lat="49.55764" lon="-1.84993">
        <ele>45.5</ele>
        <time>2020-06-14T17:40:54Z</time>
      </trkpt>
      <trkpt lat="49.55763" lon="-1.84987">
        <ele>45.8</ele>
        <time>2020-06-14T17:40:55Z</time>
      </trkpt>
      <trkpt lat="49.55763" lon="-1.84982">
        <ele>46.1</ele>
        <time>2020-06-14T17:40:56Z</time>
      </trkpt>
      <trkpt lat="49.55763" lon="-1.84981">
        <ele>46.1</ele>
        <time>2020-06-14T17:40:57Z</time>
      </trkpt>
      <trkpt lat="49.55764" lon="-1.84976">
        <ele>46.4</ele>
        <time>2020-06-14T17:40:58Z</time>
      </trkpt>
      <trkpt lat="49.55763" lon="-1.84974">
        <ele>46.5</ele>
        <time>2020-06-14T17:40:59Z</time>
      </trkpt>
      <trkpt lat="49.55764" lon="-1.84968">
        <ele>46.9</ele>
        <time>2020-06-14T17:41:00Z</time>
      </trkpt>
      <trkpt lat="49.55764" lon="-1.84966">
        <ele>47</ele>
        <time>2020-06-14T17:41:01Z</time>
      </trkpt>
      <trkpt lat="49.55763" lon="-1.84962">
        <ele>47.2</ele>
        <time>2020-06-14T17:41:02Z</time>
      </trkpt>
      <trkpt lat="49.55762" lon="-1.84957">
        <ele>47.4</ele>
        <time>2020-06-14T17:41:03Z</time>
      </trkpt>
      <trkpt lat="49.55762" lon="-1.84952">
        <ele>47.7</ele>
        <time>2020-06-14T17:41:04Z</time>
      </trkpt>
      <trkpt lat="49.55761" lon="-1.84948">
        <ele>48</ele>
        <time>2020-06-14T17:41:05Z</time>
      </trkpt>
      <trkpt lat="49.5576" lon="-1.84941">
        <ele>48.3</ele>
        <time>2020-06-14T17:41:06Z</time>
      </trkpt>
      <trkpt lat="49.5576" lon="-1.84938">
        <ele>48.4</ele>
        <time>2020-06-14T17:41:07Z</time>
      </trkpt>
      <trkpt lat="49.55759" lon="-1.84933">
        <ele>48.7</ele>
        <time>2020-06-14T17:41:08Z</time>
      </trkpt>
      <trkpt lat="49.55759" lon="-1.84929">
        <ele>48.9</ele>
        <time>2020-06-14T17:41:09Z</time>
      </trkpt>
      <trkpt lat="49.55758" lon="-1.84922">
        <ele>49.2</ele>
        <time>2020-06-14T17:41:10Z</time>
      </trkpt>
      <trkpt lat="49.55758" lon="-1.84916">
        <ele>49.5</ele>
        <time>2020-06-14T17:41:11Z</time>
      </trkpt>
      <trkpt lat="49.55757" lon="-1.84911">
        <ele>49.7</ele>
        <time>2020-06-14T17:41:12Z</time>
      </trkpt>
      <trkpt lat="49.55757" lon="-1.84906">
        <ele>49.9</ele>
        <time>2020-06-14T17:41:13Z</time>
      </trkpt>
      <trkpt lat="49.55756" lon="-1.849">
        <ele>50.2</ele>
        <time>2020-06-14T17:41:14Z</time>
      </trkpt>
      <trkpt lat="49.55756" lon="-1.84898">
        <ele>50.3</ele>
        <time>2020-06-14T17:41:15Z</time>
      </trkpt>
      <trkpt lat="49.55756" lon="-1.84893">
        <ele>50.5</ele>
        <time>2020-06-14T17:41:16Z</time>
      </trkpt>
      <trkpt lat="49.55756" lon="-1.84888">
        <ele>50.8</ele>
        <time>2020-06-14T17:41:17Z</time>
      </trkpt>
      <trkpt lat="49.55756" lon="-1.84883">
        <ele>51</ele>
        <time>2020-06-14T17:41:18Z</time>
      </trkpt>
      <trkpt lat="49.55755" lon="-1.84878">
        <ele>51.2</ele>
        <time>2020-06-14T17:41:19Z</time>
      </trkpt>
      <trkpt lat="49.55756" lon="-1.84873">
        <ele>51.4</ele>
        <time>2020-06-14T17:41:20Z</time>
      </trkpt>
      <trkpt lat="49.55756" lon="-1.84868">
        <ele>51.6</ele>
        <time>2020-06-14T17:41:21Z</time>
      </trkpt>
      <trkpt lat="49.55756" lon="-1.84862">
        <ele>51.9</ele>
        <time>2020-06-14T17:41:22Z</time>
      </trkpt>
      <trkpt lat="49.55755" lon="-1.84857">
        <ele>52.1</ele>
        <time>2020-06-14T17:41:23Z</time>
      </trkpt>
      <trkpt lat="49.55755" lon="-1.84852">
        <ele>52.4</ele>
        <time>2020-06-14T17:41:24Z</time>
      </trkpt>
      <trkpt lat="49.55755" lon="-1.84847">
        <ele>52.6</ele>
        <time>2020-06-14T17:41:25Z</time>
      </trkpt>
      <trkpt lat="49.55754" lon="-1.84843">
        <ele>52.7</ele>
        <time>2020-06-14T17:41:26Z</time>
      </trkpt>
      <trkpt lat="49.55754" lon="-1.84837">
        <ele>52.9</ele>
        <time>2020-06-14T17:41:27Z</time>
      </trkpt>
      <trkpt lat="49.55753" lon="-1.84832">
        <ele>53</ele>
        <time>2020-06-14T17:41:28Z</time>
      </trkpt>
      <trkpt lat="49.55752" lon="-1.84826">
        <ele>53.1</ele>
        <time>2020-06-14T17:41:29Z</time>
      </trkpt>
      <trkpt lat="49.55752" lon="-1.84822">
        <ele>53.3</ele>
        <time>2020-06-14T17:41:30Z</time>
      </trkpt>
      <trkpt lat="49.5575" lon="-1.84816">
        <ele>53.4</ele>
        <time>2020-06-14T17:41:31Z</time>
      </trkpt>
      <trkpt lat="49.55749" lon="-1.8481">
        <ele>53.5</ele>
        <time>2020-06-14T17:41:32Z</time>
      </trkpt>
      <trkpt lat="49.55749" lon="-1.84805">
        <ele>53.6</ele>
        <time>2020-06-14T17:41:33Z</time>
      </trkpt>
      <trkpt lat="49.55748" lon="-1.848">
        <ele>53.6</ele>
        <time>2020-06-14T17:41:34Z</time>
      </trkpt>
      <trkpt lat="49.55747" lon="-1.84795">
        <ele>53.7</ele>
        <time>2020-06-14T17:41:35Z</time>
      </trkpt>
      <trkpt lat="49.55747" lon="-1.8479">
        <ele>53.7</ele>
        <time>2020-06-14T17:41:36Z</time>
      </trkpt>
      <trkpt lat="49.55746" lon="-1.84784">
        <ele>53.8</ele>
        <time>2020-06-14T17:41:37Z</time>
      </trkpt>
      <trkpt lat="49.55745" lon="-1.84778">
        <ele>53.8</ele>
        <time>2020-06-14T17:41:38Z</time>
      </trkpt>
      <trkpt lat="49.55744" lon="-1.84772">
        <ele>53.9</ele>
        <time>2020-06-14T17:41:39Z</time>
      </trkpt>
      <trkpt lat="49.55742" lon="-1.84767">
        <ele>53.9</ele>
        <time>2020-06-14T17:41:40Z</time>
      </trkpt>
      <trkpt lat="49.55741" lon="-1.84761">
        <ele>53.9</ele>
        <time>2020-06-14T17:41:41Z</time>
      </trkpt>
      <trkpt lat="49.55739" lon="-1.84754">
        <ele>53.9</ele>
        <time>2020-06-14T17:41:42Z</time>
      </trkpt>
      <trkpt lat="49.55737" lon="-1.84748">
        <ele>53.9</ele>
        <time>2020-06-14T17:41:43Z</time>
      </trkpt>
      <trkpt lat="49.55735" lon="-1.84741">
        <ele>53.8</ele>
        <time>2020-06-14T17:41:44Z</time>
      </trkpt>
      <trkpt lat="49.55734" lon="-1.84735">
        <ele>53.8</ele>
        <time>2020-06-14T17:41:45Z</time>
      </trkpt>
      <trkpt lat="49.55732" lon="-1.84727">
        <ele>53.8</ele>
        <time>2020-06-14T17:41:46Z</time>
      </trkpt>
      <trkpt lat="49.5573" lon="-1.84719">
        <ele>53.7</ele>
        <time>2020-06-14T17:41:47Z</time>
      </trkpt>
      <trkpt lat="49.55729" lon="-1.84713">
        <ele>53.7</ele>
        <time>2020-06-14T17:41:48Z</time>
      </trkpt>
      <trkpt lat="49.55728" lon="-1.84706">
        <ele>53.6</ele>
        <time>2020-06-14T17:41:49Z</time>
      </trkpt>
      <trkpt lat="49.55728" lon="-1.847">
        <ele>53.5</ele>
        <time>2020-06-14T17:41:50Z</time>
      </trkpt>
      <trkpt lat="49.55729" lon="-1.84694">
        <ele>53.5</ele>
        <time>2020-06-14T17:41:51Z</time>
      </trkpt>
      <trkpt lat="49.55732" lon="-1.84691">
        <ele>53.5</ele>
        <time>2020-06-14T17:41:52Z</time>
      </trkpt>
      <trkpt lat="49.55737" lon="-1.84691">
        <ele>53.5</ele>
        <time>2020-06-14T17:41:53Z</time>
      </trkpt>
      <trkpt lat="49.55742" lon="-1.8469">
        <ele>53.4</ele>
        <time>2020-06-14T17:41:54Z</time>
      </trkpt>
      <trkpt lat="49.55749" lon="-1.8469">
        <ele>53.4</ele>
        <time>2020-06-14T17:41:55Z</time>
      </trkpt>
      <trkpt lat="49.55755" lon="-1.84691">
        <ele>53.3</ele>
        <time>2020-06-14T17:41:56Z</time>
      </trkpt>
      <trkpt lat="49.5576" lon="-1.84691">
        <ele>53.3</ele>
        <time>2020-06-14T17:41:57Z</time>
      </trkpt>
      <trkpt lat="49.55764" lon="-1.84691">
        <ele>53.3</ele>
        <time>2020-06-14T17:41:58Z</time>
      </trkpt>
      <trkpt lat="49.55769" lon="-1.84691">
        <ele>53.3</ele>
        <time>2020-06-14T17:41:59Z</time>
      </trkpt>
      <trkpt lat="49.55773" lon="-1.8469">
        <ele>53.3</ele>
        <time>2020-06-14T17:42:00Z</time>
      </trkpt>
      <trkpt lat="49.55777" lon="-1.84689">
        <ele>53.3</ele>
        <time>2020-06-14T17:42:01Z</time>
      </trkpt>
      <trkpt lat="49.55782" lon="-1.84689">
        <ele>53.3</ele>
        <time>2020-06-14T17:42:02Z</time>
      </trkpt>
      <trkpt lat="49.55786" lon="-1.84688">
        <ele>53.3</ele>
        <time>2020-06-14T17:42:03Z</time>
      </trkpt>
      <trkpt lat="49.5579" lon="-1.84687">
        <ele>53.3</ele>
        <time>2020-06-14T17:42:04Z</time>
      </trkpt>
      <trkpt lat="49.55795" lon="-1.84686">
        <ele>53.3</ele>
        <time>2020-06-14T17:42:05Z</time>
      </trkpt>
      <trkpt lat="49.55799" lon="-1.84685">
        <ele>53.3</ele>
        <time>2020-06-14T17:42:06Z</time>
      </trkpt>
      <trkpt lat="49.55804" lon="-1.84684">
        <ele>53.3</ele>
        <time>2020-06-14T17:42:07Z</time>
      </trkpt>
      <trkpt lat="49.55808" lon="-1.84683">
        <ele>53.3</ele>
        <time>2020-06-14T17:42:08Z</time>
      </trkpt>
      <trkpt lat="49.55813" lon="-1.8468">
        <ele>53.3</ele>
        <time>2020-06-14T17:42:09Z</time>
      </trkpt>
      <trkpt lat="49.55816" lon="-1.8468">
        <ele>53.3</ele>
        <time>2020-06-14T17:42:10Z</time>
      </trkpt>
      <trkpt lat="49.5582" lon="-1.84678">
        <ele>53.3</ele>
        <time>2020-06-14T17:42:11Z</time>
      </trkpt>
      <trkpt lat="49.55825" lon="-1.84676">
        <ele>53.3</ele>
        <time>2020-06-14T17:42:12Z</time>
      </trkpt>
      <trkpt lat="49.55828" lon="-1.84673">
        <ele>53.3</ele>
        <time>2020-06-14T17:42:13Z</time>
      </trkpt>
      <trkpt lat="49.5583" lon="-1.84667">
        <ele>53.3</ele>
        <time>2020-06-14T17:42:14Z</time>
      </trkpt>
      <trkpt lat="49.55831" lon="-1.84661">
        <ele>53.3</ele>
        <time>2020-06-14T17:42:15Z</time>
      </trkpt>
      <trkpt lat="49.5583" lon="-1.84655">
        <ele>53.3</ele>
        <time>2020-06-14T17:42:16Z</time>
      </trkpt>
      <trkpt lat="49.55829" lon="-1.84647">
        <ele>53.3</ele>
        <time>2020-06-14T17:42:17Z</time>
      </trkpt>
      <trkpt lat="49.55828" lon="-1.84641">
        <ele>53.3</ele>
        <time>2020-06-14T17:42:18Z</time>
      </trkpt>
      <trkpt lat="49.55827" lon="-1.84634">
        <ele>53.3</ele>
        <time>2020-06-14T17:42:19Z</time>
      </trkpt>
      <trkpt lat="49.55827" lon="-1.84628">
        <ele>53.2</ele>
        <time>2020-06-14T17:42:20Z</time>
      </trkpt>
      <trkpt lat="49.55826" lon="-1.84621">
        <ele>53.1</ele>
        <time>2020-06-14T17:42:21Z</time>
      </trkpt>
      <trkpt lat="49.55824" lon="-1.84613">
        <ele>53</ele>
        <time>2020-06-14T17:42:22Z</time>
      </trkpt>
      <trkpt lat="49.55823" lon="-1.84605">
        <ele>52.9</ele>
        <time>2020-06-14T17:42:23Z</time>
      </trkpt>
      <trkpt lat="49.55823" lon="-1.84599">
        <ele>52.9</ele>
        <time>2020-06-14T17:42:24Z</time>
      </trkpt>
      <trkpt lat="49.55822" lon="-1.84593">
        <ele>52.8</ele>
        <time>2020-06-14T17:42:25Z</time>
      </trkpt>
      <trkpt lat="49.55821" lon="-1.84585">
        <ele>52.7</ele>
        <time>2020-06-14T17:42:26Z</time>
      </trkpt>
      <trkpt lat="49.5582" lon="-1.84576">
        <ele>52.5</ele>
        <time>2020-06-14T17:42:27Z</time>
      </trkpt>
      <trkpt lat="49.5582" lon="-1.84569">
        <ele>52.4</ele>
        <time>2020-06-14T17:42:28Z</time>
      </trkpt>
      <trkpt lat="49.55819" lon="-1.84561">
        <ele>52.2</ele>
        <time>2020-06-14T17:42:29Z</time>
      </trkpt>
      <trkpt lat="49.55818" lon="-1.84553">
        <ele>52</ele>
        <time>2020-06-14T17:42:30Z</time>
      </trkpt>
      <trkpt lat="49.55817" lon="-1.84544">
        <ele>51.9</ele>
        <time>2020-06-14T17:42:31Z</time>
      </trkpt>
      <trkpt lat="49.55817" lon="-1.84536">
        <ele>51.7</ele>
        <time>2020-06-14T17:42:32Z</time>
      </trkpt>
      <trkpt lat="49.55816" lon="-1.84527">
        <ele>51.5</ele>
        <time>2020-06-14T17:42:33Z</time>
      </trkpt>
      <trkpt lat="49.55816" lon="-1.84518">
        <ele>51.4</ele>
        <time>2020-06-14T17:42:34Z</time>
      </trkpt>
      <trkpt lat="49.55815" lon="-1.84509">
        <ele>51.2</ele>
        <time>2020-06-14T17:42:35Z</time>
      </trkpt>
      <trkpt lat="49.55816" lon="-1.84497">
        <ele>51</ele>
        <time>2020-06-14T17:42:36Z</time>
      </trkpt>
      <trkpt lat="49.55816" lon="-1.84487">
        <ele>50.8</ele>
        <time>2020-06-14T17:42:37Z</time>
      </trkpt>
      <trkpt lat="49.55817" lon="-1.84478">
        <ele>50.6</ele>
        <time>2020-06-14T17:42:38Z</time>
      </trkpt>
      <trkpt lat="49.55817" lon="-1.84469">
        <ele>50.5</ele>
        <time>2020-06-14T17:42:39Z</time>
      </trkpt>
      <trkpt lat="49.55818" lon="-1.84461">
        <ele>50.3</ele>
        <time>2020-06-14T17:42:40Z</time>
      </trkpt>
      <trkpt lat="49.55818" lon="-1.84453">
        <ele>50.2</ele>
        <time>2020-06-14T17:42:41Z</time>
      </trkpt>
      <trkpt lat="49.55818" lon="-1.84445">
        <ele>50</ele>
        <time>2020-06-14T17:42:42Z</time>
      </trkpt>
      <trkpt lat="49.55818" lon="-1.84437">
        <ele>49.9</ele>
        <time>2020-06-14T17:42:43Z</time>
      </trkpt>
      <trkpt lat="49.55818" lon="-1.84429">
        <ele>49.7</ele>
        <time>2020-06-14T17:42:44Z</time>
      </trkpt>
      <trkpt lat="49.55818" lon="-1.84421">
        <ele>49.6</ele>
        <time>2020-06-14T17:42:45Z</time>
      </trkpt>
      <trkpt lat="49.55818" lon="-1.84414">
        <ele>49.4</ele>
        <time>2020-06-14T17:42:46Z</time>
      </trkpt>
      <trkpt lat="49.55818" lon="-1.84407">
        <ele>49.3</ele>
        <time>2020-06-14T17:42:47Z</time>
      </trkpt>
      <trkpt lat="49.55819" lon="-1.84399">
        <ele>49.2</ele>
        <time>2020-06-14T17:42:48Z</time>
      </trkpt>
      <trkpt lat="49.55819" lon="-1.84392">
        <ele>49.1</ele>
        <time>2020-06-14T17:42:49Z</time>
      </trkpt>
      <trkpt lat="49.55819" lon="-1.84386">
        <ele>49</ele>
        <time>2020-06-14T17:42:50Z</time>
      </trkpt>
      <trkpt lat="49.55819" lon="-1.8438">
        <ele>48.9</ele>
        <time>2020-06-14T17:42:51Z</time>
      </trkpt>
      <trkpt lat="49.55819" lon="-1.84376">
        <ele>48.9</ele>
        <time>2020-06-14T17:42:52Z</time>
      </trkpt>
      <trkpt lat="49.55818" lon="-1.84371">
        <ele>48.8</ele>
        <time>2020-06-14T17:42:53Z</time>
      </trkpt>
      <trkpt lat="49.55818" lon="-1.84369">
        <ele>48.8</ele>
        <time>2020-06-14T17:42:54Z</time>
      </trkpt>
      <trkpt lat="49.55814" lon="-1.84367">
        <ele>49.6</ele>
        <time>2020-06-14T17:42:55Z</time>
      </trkpt>
      <trkpt lat="49.55812" lon="-1.84367">
        <ele>49.7</ele>
        <time>2020-06-14T17:42:56Z</time>
      </trkpt>
      <trkpt lat="49.55809" lon="-1.84366">
        <ele>49.9</ele>
        <time>2020-06-14T17:42:57Z</time>
      </trkpt>
      <trkpt lat="49.55805" lon="-1.84365">
        <ele>50.2</ele>
        <time>2020-06-14T17:42:58Z</time>
      </trkpt>
      <trkpt lat="49.55802" lon="-1.84364">
        <ele>50.4</ele>
        <time>2020-06-14T17:42:59Z</time>
      </trkpt>
      <trkpt lat="49.55798" lon="-1.84362">
        <ele>50.7</ele>
        <time>2020-06-14T17:43:00Z</time>
      </trkpt>
      <trkpt lat="49.55794" lon="-1.8436">
        <ele>50.9</ele>
        <time>2020-06-14T17:43:01Z</time>
      </trkpt>
      <trkpt lat="49.5579" lon="-1.84358">
        <ele>51.2</ele>
        <time>2020-06-14T17:43:02Z</time>
      </trkpt>
      <trkpt lat="49.55787" lon="-1.84356">
        <ele>51.5</ele>
        <time>2020-06-14T17:43:03Z</time>
      </trkpt>
      <trkpt lat="49.55784" lon="-1.84353">
        <ele>51.7</ele>
        <time>2020-06-14T17:43:04Z</time>
      </trkpt>
      <trkpt lat="49.55782" lon="-1.84351">
        <ele>51.9</ele>
        <time>2020-06-14T17:43:05Z</time>
      </trkpt>
      <trkpt lat="49.55779" lon="-1.84346">
        <ele>52.2</ele>
        <time>2020-06-14T17:43:06Z</time>
      </trkpt>
      <trkpt lat="49.55778" lon="-1.84344">
        <ele>52.3</ele>
        <time>2020-06-14T17:43:07Z</time>
      </trkpt>
      <trkpt lat="49.55776" lon="-1.84341">
        <ele>52.5</ele>
        <time>2020-06-14T17:43:08Z</time>
      </trkpt>
      <trkpt lat="49.55774" lon="-1.84337">
        <ele>52.7</ele>
        <time>2020-06-14T17:43:09Z</time>
      </trkpt>
      <trkpt lat="49.55771" lon="-1.84333">
        <ele>53</ele>
        <time>2020-06-14T17:43:10Z</time>
      </trkpt>
      <trkpt lat="49.5577" lon="-1.84328">
        <ele>53.2</ele>
        <time>2020-06-14T17:43:11Z</time>
      </trkpt>
      <trkpt lat="49.55769" lon="-1.84323">
        <ele>53.5</ele>
        <time>2020-06-14T17:43:12Z</time>
      </trkpt>
      <trkpt lat="49.55767" lon="-1.8432">
        <ele>53.7</ele>
        <time>2020-06-14T17:43:13Z</time>
      </trkpt>
      <trkpt lat="49.55766" lon="-1.84315">
        <ele>53.9</ele>
        <time>2020-06-14T17:43:14Z</time>
      </trkpt>
      <trkpt lat="49.55764" lon="-1.84311">
        <ele>54.2</ele>
        <time>2020-06-14T17:43:15Z</time>
      </trkpt>
      <trkpt lat="49.55762" lon="-1.84308">
        <ele>54.4</ele>
        <time>2020-06-14T17:43:16Z</time>
      </trkpt>
      <trkpt lat="49.55759" lon="-1.84305">
        <ele>54.7</ele>
        <time>2020-06-14T17:43:17Z</time>
      </trkpt>
      <trkpt lat="49.55757" lon="-1.84301">
        <ele>54.9</ele>
        <time>2020-06-14T17:43:18Z</time>
      </trkpt>
      <trkpt lat="49.55755" lon="-1.84296">
        <ele>55.2</ele>
        <time>2020-06-14T17:43:19Z</time>
      </trkpt>
      <trkpt lat="49.55753" lon="-1.84293">
        <ele>55.5</ele>
        <time>2020-06-14T17:43:20Z</time>
      </trkpt>
      <trkpt lat="49.55751" lon="-1.84289">
        <ele>55.7</ele>
        <time>2020-06-14T17:43:21Z</time>
      </trkpt>
      <trkpt lat="49.55749" lon="-1.84285">
        <ele>56</ele>
        <time>2020-06-14T17:43:22Z</time>
      </trkpt>
      <trkpt lat="49.55747" lon="-1.84282">
        <ele>56.2</ele>
        <time>2020-06-14T17:43:23Z</time>
      </trkpt>
      <trkpt lat="49.55744" lon="-1.84279">
        <ele>56.5</ele>
        <time>2020-06-14T17:43:24Z</time>
      </trkpt>
      <trkpt lat="49.55742" lon="-1.84276">
        <ele>56.8</ele>
        <time>2020-06-14T17:43:25Z</time>
      </trkpt>
      <trkpt lat="49.55741" lon="-1.84273">
        <ele>57</ele>
        <time>2020-06-14T17:43:26Z</time>
      </trkpt>
      <trkpt lat="49.55739" lon="-1.84268">
        <ele>57.4</ele>
        <time>2020-06-14T17:43:27Z</time>
      </trkpt>
      <trkpt lat="49.55737" lon="-1.84264">
        <ele>57.7</ele>
        <time>2020-06-14T17:43:28Z</time>
      </trkpt>
      <trkpt lat="49.55735" lon="-1.8426">
        <ele>58.1</ele>
        <time>2020-06-14T17:43:29Z</time>
      </trkpt>
      <trkpt lat="49.55733" lon="-1.84256">
        <ele>58.5</ele>
        <time>2020-06-14T17:43:30Z</time>
      </trkpt>
      <trkpt lat="49.55732" lon="-1.84252">
        <ele>58.8</ele>
        <time>2020-06-14T17:43:31Z</time>
      </trkpt>
      <trkpt lat="49.5573" lon="-1.84247">
        <ele>59.3</ele>
        <time>2020-06-14T17:43:32Z</time>
      </trkpt>
      <trkpt lat="49.5573" lon="-1.84242">
        <ele>59.2</ele>
        <time>2020-06-14T17:43:33Z</time>
      </trkpt>
      <trkpt lat="49.55729" lon="-1.84237">
        <ele>59.2</ele>
        <time>2020-06-14T17:43:34Z</time>
      </trkpt>
      <trkpt lat="49.55729" lon="-1.84233">
        <ele>59.2</ele>
        <time>2020-06-14T17:43:35Z</time>
      </trkpt>
      <trkpt lat="49.55731" lon="-1.84226">
        <ele>59.2</ele>
        <time>2020-06-14T17:43:36Z</time>
      </trkpt>
      <trkpt lat="49.55732" lon="-1.84224">
        <ele>59.2</ele>
        <time>2020-06-14T17:43:37Z</time>
      </trkpt>
      <trkpt lat="49.55733" lon="-1.84218">
        <ele>59.2</ele>
        <time>2020-06-14T17:43:38Z</time>
      </trkpt>
      <trkpt lat="49.55735" lon="-1.84212">
        <ele>59.3</ele>
        <time>2020-06-14T17:43:39Z</time>
      </trkpt>
      <trkpt lat="49.55737" lon="-1.84208">
        <ele>59.4</ele>
        <time>2020-06-14T17:43:40Z</time>
      </trkpt>
      <trkpt lat="49.55739" lon="-1.84203">
        <ele>59.4</ele>
        <time>2020-06-14T17:43:41Z</time>
      </trkpt>
      <trkpt lat="49.5574" lon="-1.84197">
        <ele>59.5</ele>
        <time>2020-06-14T17:43:42Z</time>
      </trkpt>
      <trkpt lat="49.55742" lon="-1.84191">
        <ele>59.7</ele>
        <time>2020-06-14T17:43:43Z</time>
      </trkpt>
      <trkpt lat="49.55744" lon="-1.84186">
        <ele>59.9</ele>
        <time>2020-06-14T17:43:44Z</time>
      </trkpt>
      <trkpt lat="49.55745" lon="-1.84181">
        <ele>60</ele>
        <time>2020-06-14T17:43:45Z</time>
      </trkpt>
      <trkpt lat="49.55746" lon="-1.84175">
        <ele>60.2</ele>
        <time>2020-06-14T17:43:46Z</time>
      </trkpt>
      <trkpt lat="49.55748" lon="-1.84169">
        <ele>60.4</ele>
        <time>2020-06-14T17:43:47Z</time>
      </trkpt>
      <trkpt lat="49.55749" lon="-1.84167">
        <ele>60.5</ele>
        <time>2020-06-14T17:43:48Z</time>
      </trkpt>
      <trkpt lat="49.5575" lon="-1.84163">
        <ele>60.7</ele>
        <time>2020-06-14T17:43:49Z</time>
      </trkpt>
      <trkpt lat="49.55751" lon="-1.84159">
        <ele>60.9</ele>
        <time>2020-06-14T17:43:50Z</time>
      </trkpt>
      <trkpt lat="49.55752" lon="-1.84155">
        <ele>61</ele>
        <time>2020-06-14T17:43:51Z</time>
      </trkpt>
      <trkpt lat="49.55753" lon="-1.84149">
        <ele>61.3</ele>
        <time>2020-06-14T17:43:52Z</time>
      </trkpt>
      <trkpt lat="49.55755" lon="-1.84145">
        <ele>61.5</ele>
        <time>2020-06-14T17:43:53Z</time>
      </trkpt>
      <trkpt lat="49.55756" lon="-1.8414">
        <ele>61.7</ele>
        <time>2020-06-14T17:43:54Z</time>
      </trkpt>
      <trkpt lat="49.55757" lon="-1.84135">
        <ele>61.9</ele>
        <time>2020-06-14T17:43:55Z</time>
      </trkpt>
      <trkpt lat="49.55759" lon="-1.84131">
        <ele>62.3</ele>
        <time>2020-06-14T17:43:56Z</time>
      </trkpt>
      <trkpt lat="49.5576" lon="-1.8413">
        <ele>62.4</ele>
        <time>2020-06-14T17:43:57Z</time>
      </trkpt>
      <trkpt lat="49.55762" lon="-1.84127">
        <ele>62.6</ele>
        <time>2020-06-14T17:43:58Z</time>
      </trkpt>
      <trkpt lat="49.55764" lon="-1.84124">
        <ele>62.9</ele>
        <time>2020-06-14T17:43:59Z</time>
      </trkpt>
      <trkpt lat="49.55766" lon="-1.8412">
        <ele>63.1</ele>
        <time>2020-06-14T17:44:00Z</time>
      </trkpt>
      <trkpt lat="49.55768" lon="-1.84117">
        <ele>63.3</ele>
        <time>2020-06-14T17:44:01Z</time>
      </trkpt>
      <trkpt lat="49.55771" lon="-1.84112">
        <ele>63.6</ele>
        <time>2020-06-14T17:44:02Z</time>
      </trkpt>
      <trkpt lat="49.55772" lon="-1.8411">
        <ele>63.7</ele>
        <time>2020-06-14T17:44:03Z</time>
      </trkpt>
      <trkpt lat="49.55775" lon="-1.84107">
        <ele>64</ele>
        <time>2020-06-14T17:44:04Z</time>
      </trkpt>
      <trkpt lat="49.55777" lon="-1.84106">
        <ele>64.1</ele>
        <time>2020-06-14T17:44:05Z</time>
      </trkpt>
      <trkpt lat="49.55779" lon="-1.84105">
        <ele>64.3</ele>
        <time>2020-06-14T17:44:06Z</time>
      </trkpt>
      <trkpt lat="49.55782" lon="-1.84103">
        <ele>64.5</ele>
        <time>2020-06-14T17:44:07Z</time>
      </trkpt>
      <trkpt lat="49.55784" lon="-1.84101">
        <ele>64.7</ele>
        <time>2020-06-14T17:44:08Z</time>
      </trkpt>
      <trkpt lat="49.55788" lon="-1.84095">
        <ele>65.1</ele>
        <time>2020-06-14T17:44:09Z</time>
      </trkpt>
      <trkpt lat="49.5579" lon="-1.84092">
        <ele>65.3</ele>
        <time>2020-06-14T17:44:10Z</time>
      </trkpt>
      <trkpt lat="49.55793" lon="-1.84089">
        <ele>65.5</ele>
        <time>2020-06-14T17:44:11Z</time>
      </trkpt>
      <trkpt lat="49.55797" lon="-1.84086">
        <ele>65.8</ele>
        <time>2020-06-14T17:44:12Z</time>
      </trkpt>
      <trkpt lat="49.55798" lon="-1.84085">
        <ele>65.9</ele>
        <time>2020-06-14T17:44:13Z</time>
      </trkpt>
      <trkpt lat="49.55801" lon="-1.84083">
        <ele>66.2</ele>
        <time>2020-06-14T17:44:14Z</time>
      </trkpt>
      <trkpt lat="49.55803" lon="-1.8408">
        <ele>66.4</ele>
        <time>2020-06-14T17:44:15Z</time>
      </trkpt>
      <trkpt lat="49.55804" lon="-1.84076">
        <ele>66.6</ele>
        <time>2020-06-14T17:44:16Z</time>
      </trkpt>
      <trkpt lat="49.55806" lon="-1.84072">
        <ele>66.8</ele>
        <time>2020-06-14T17:44:17Z</time>
      </trkpt>
      <trkpt lat="49.55808" lon="-1.84068">
        <ele>67.1</ele>
        <time>2020-06-14T17:44:18Z</time>
      </trkpt>
      <trkpt lat="49.5581" lon="-1.84065">
        <ele>67.3</ele>
        <time>2020-06-14T17:44:19Z</time>
      </trkpt>
      <trkpt lat="49.55812" lon="-1.84062">
        <ele>67.5</ele>
        <time>2020-06-14T17:44:20Z</time>
      </trkpt>
      <trkpt lat="49.55815" lon="-1.8406">
        <ele>67.7</ele>
        <time>2020-06-14T17:44:21Z</time>
      </trkpt>
      <trkpt lat="49.55817" lon="-1.84056">
        <ele>68</ele>
        <time>2020-06-14T17:44:22Z</time>
      </trkpt>
      <trkpt lat="49.55819" lon="-1.84051">
        <ele>68.3</ele>
        <time>2020-06-14T17:44:23Z</time>
      </trkpt>
      <trkpt lat="49.55819" lon="-1.84049">
        <ele>68.3</ele>
        <time>2020-06-14T17:44:24Z</time>
      </trkpt>
      <trkpt lat="49.55821" lon="-1.84046">
        <ele>68.6</ele>
        <time>2020-06-14T17:44:25Z</time>
      </trkpt>
      <trkpt lat="49.55823" lon="-1.84043">
        <ele>68.8</ele>
        <time>2020-06-14T17:44:26Z</time>
      </trkpt>
      <trkpt lat="49.55824" lon="-1.84039">
        <ele>69</ele>
        <time>2020-06-14T17:44:27Z</time>
      </trkpt>
      <trkpt lat="49.55826" lon="-1.84034">
        <ele>69.2</ele>
        <time>2020-06-14T17:44:28Z</time>
      </trkpt>
      <trkpt lat="49.55828" lon="-1.84029">
        <ele>69.5</ele>
        <time>2020-06-14T17:44:29Z</time>
      </trkpt>
      <trkpt lat="49.55829" lon="-1.84026">
        <ele>69.6</ele>
        <time>2020-06-14T17:44:30Z</time>
      </trkpt>
      <trkpt lat="49.55831" lon="-1.8402">
        <ele>70</ele>
        <time>2020-06-14T17:44:31Z</time>
      </trkpt>
      <trkpt lat="49.55833" lon="-1.84015">
        <ele>70.5</ele>
        <time>2020-06-14T17:44:32Z</time>
      </trkpt>
      <trkpt lat="49.55835" lon="-1.84011">
        <ele>70.6</ele>
        <time>2020-06-14T17:44:33Z</time>
      </trkpt>
      <trkpt lat="49.55837" lon="-1.84005">
        <ele>70.8</ele>
        <time>2020-06-14T17:44:34Z</time>
      </trkpt>
      <trkpt lat="49.55837" lon="-1.84004">
        <ele>70.8</ele>
        <time>2020-06-14T17:44:35Z</time>
      </trkpt>
      <trkpt lat="49.55838" lon="-1.84">
        <ele>71</ele>
        <time>2020-06-14T17:44:36Z</time>
      </trkpt>
      <trkpt lat="49.5584" lon="-1.83997">
        <ele>71.1</ele>
        <time>2020-06-14T17:44:37Z</time>
      </trkpt>
      <trkpt lat="49.55843" lon="-1.83993">
        <ele>71.3</ele>
        <time>2020-06-14T17:44:38Z</time>
      </trkpt>
      <trkpt lat="49.55844" lon="-1.83992">
        <ele>71.3</ele>
        <time>2020-06-14T17:44:39Z</time>
      </trkpt>
      <trkpt lat="49.55845" lon="-1.83987">
        <ele>71.5</ele>
        <time>2020-06-14T17:44:40Z</time>
      </trkpt>
      <trkpt lat="49.55847" lon="-1.83982">
        <ele>71.6</ele>
        <time>2020-06-14T17:44:41Z</time>
      </trkpt>
      <trkpt lat="49.55848" lon="-1.83977">
        <ele>71.7</ele>
        <time>2020-06-14T17:44:42Z</time>
      </trkpt>
      <trkpt lat="49.5585" lon="-1.83971">
        <ele>71.9</ele>
        <time>2020-06-14T17:44:43Z</time>
      </trkpt>
      <trkpt lat="49.5585" lon="-1.83966">
        <ele>72</ele>
        <time>2020-06-14T17:44:44Z</time>
      </trkpt>
      <trkpt lat="49.55852" lon="-1.8396">
        <ele>72</ele>
        <time>2020-06-14T17:44:45Z</time>
      </trkpt>
      <trkpt lat="49.55853" lon="-1.83958">
        <ele>72.1</ele>
        <time>2020-06-14T17:44:46Z</time>
      </trkpt>
      <trkpt lat="49.55854" lon="-1.83954">
        <ele>72.1</ele>
        <time>2020-06-14T17:44:47Z</time>
      </trkpt>
      <trkpt lat="49.55855" lon="-1.83949">
        <ele>72.2</ele>
        <time>2020-06-14T17:44:48Z</time>
      </trkpt>
      <trkpt lat="49.55856" lon="-1.83944">
        <ele>72.3</ele>
        <time>2020-06-14T17:44:49Z</time>
      </trkpt>
      <trkpt lat="49.55856" lon="-1.83938">
        <ele>72.4</ele>
        <time>2020-06-14T17:44:50Z</time>
      </trkpt>
      <trkpt lat="49.55857" lon="-1.83933">
        <ele>72.4</ele>
        <time>2020-06-14T17:44:51Z</time>
      </trkpt>
      <trkpt lat="49.55858" lon="-1.83927">
        <ele>72.5</ele>
        <time>2020-06-14T17:44:52Z</time>
      </trkpt>
      <trkpt lat="49.55859" lon="-1.83921">
        <ele>72.6</ele>
        <time>2020-06-14T17:44:53Z</time>
      </trkpt>
      <trkpt lat="49.5586" lon="-1.83915">
        <ele>72.7</ele>
        <time>2020-06-14T17:44:54Z</time>
      </trkpt>
      <trkpt lat="49.55862" lon="-1.83909">
        <ele>72.7</ele>
        <time>2020-06-14T17:44:55Z</time>
      </trkpt>
      <trkpt lat="49.55864" lon="-1.83903">
        <ele>72.7</ele>
        <time>2020-06-14T17:44:56Z</time>
      </trkpt>
      <trkpt lat="49.55865" lon="-1.83896">
        <ele>72.7</ele>
        <time>2020-06-14T17:44:57Z</time>
      </trkpt>
      <trkpt lat="49.55866" lon="-1.8389">
        <ele>72.7</ele>
        <time>2020-06-14T17:44:58Z</time>
      </trkpt>
      <trkpt lat="49.55868" lon="-1.83882">
        <ele>72.7</ele>
        <time>2020-06-14T17:44:59Z</time>
      </trkpt>
      <trkpt lat="49.55869" lon="-1.83876">
        <ele>72.7</ele>
        <time>2020-06-14T17:45:00Z</time>
      </trkpt>
      <trkpt lat="49.5587" lon="-1.83869">
        <ele>72.7</ele>
        <time>2020-06-14T17:45:01Z</time>
      </trkpt>
      <trkpt lat="49.55871" lon="-1.83862">
        <ele>72.7</ele>
        <time>2020-06-14T17:45:02Z</time>
      </trkpt>
      <trkpt lat="49.55872" lon="-1.83856">
        <ele>72.8</ele>
        <time>2020-06-14T17:45:03Z</time>
      </trkpt>
      <trkpt lat="49.55873" lon="-1.83849">
        <ele>72.8</ele>
        <time>2020-06-14T17:45:04Z</time>
      </trkpt>
      <trkpt lat="49.55875" lon="-1.83842">
        <ele>72.8</ele>
        <time>2020-06-14T17:45:05Z</time>
      </trkpt>
      <trkpt lat="49.55876" lon="-1.83835">
        <ele>72.9</ele>
        <time>2020-06-14T17:45:06Z</time>
      </trkpt>
      <trkpt lat="49.55878" lon="-1.83828">
        <ele>72.9</ele>
        <time>2020-06-14T17:45:07Z</time>
      </trkpt>
      <trkpt lat="49.55879" lon="-1.83821">
        <ele>72.9</ele>
        <time>2020-06-14T17:45:08Z</time>
      </trkpt>
      <trkpt lat="49.5588" lon="-1.83814">
        <ele>72.9</ele>
        <time>2020-06-14T17:45:09Z</time>
      </trkpt>
      <trkpt lat="49.55881" lon="-1.83807">
        <ele>72.9</ele>
        <time>2020-06-14T17:45:10Z</time>
      </trkpt>
      <trkpt lat="49.55882" lon="-1.838">
        <ele>72.9</ele>
        <time>2020-06-14T17:45:11Z</time>
      </trkpt>
      <trkpt lat="49.55883" lon="-1.83793">
        <ele>72.9</ele>
        <time>2020-06-14T17:45:12Z</time>
      </trkpt>
      <trkpt lat="49.55884" lon="-1.83786">
        <ele>72.9</ele>
        <time>2020-06-14T17:45:13Z</time>
      </trkpt>
      <trkpt lat="49.55885" lon="-1.8378">
        <ele>73</ele>
        <time>2020-06-14T17:45:14Z</time>
      </trkpt>
      <trkpt lat="49.55886" lon="-1.83773">
        <ele>73</ele>
        <time>2020-06-14T17:45:15Z</time>
      </trkpt>
      <trkpt lat="49.55887" lon="-1.83767">
        <ele>73</ele>
        <time>2020-06-14T17:45:16Z</time>
      </trkpt>
      <trkpt lat="49.55889" lon="-1.8376">
        <ele>73.1</ele>
        <time>2020-06-14T17:45:17Z</time>
      </trkpt>
      <trkpt lat="49.5589" lon="-1.83754">
        <ele>73.2</ele>
        <time>2020-06-14T17:45:18Z</time>
      </trkpt>
      <trkpt lat="49.5589" lon="-1.83747">
        <ele>73.3</ele>
        <time>2020-06-14T17:45:19Z</time>
      </trkpt>
      <trkpt lat="49.55891" lon="-1.83739">
        <ele>73.4</ele>
        <time>2020-06-14T17:45:20Z</time>
      </trkpt>
      <trkpt lat="49.55893" lon="-1.83732">
        <ele>73.5</ele>
        <time>2020-06-14T17:45:21Z</time>
      </trkpt>
      <trkpt lat="49.55894" lon="-1.83725">
        <ele>73.5</ele>
        <time>2020-06-14T17:45:22Z</time>
      </trkpt>
      <trkpt lat="49.55896" lon="-1.83718">
        <ele>73.6</ele>
        <time>2020-06-14T17:45:23Z</time>
      </trkpt>
      <trkpt lat="49.55899" lon="-1.83709">
        <ele>73.7</ele>
        <time>2020-06-14T17:45:24Z</time>
      </trkpt>
      <trkpt lat="49.559" lon="-1.83702">
        <ele>73.8</ele>
        <time>2020-06-14T17:45:25Z</time>
      </trkpt>
      <trkpt lat="49.55902" lon="-1.83696">
        <ele>73.9</ele>
        <time>2020-06-14T17:45:26Z</time>
      </trkpt>
      <trkpt lat="49.55903" lon="-1.83688">
        <ele>74</ele>
        <time>2020-06-14T17:45:27Z</time>
      </trkpt>
      <trkpt lat="49.55904" lon="-1.83681">
        <ele>74.2</ele>
        <time>2020-06-14T17:45:28Z</time>
      </trkpt>
      <trkpt lat="49.55906" lon="-1.83674">
        <ele>74.3</ele>
        <time>2020-06-14T17:45:29Z</time>
      </trkpt>
      <trkpt lat="49.55907" lon="-1.83668">
        <ele>74.5</ele>
        <time>2020-06-14T17:45:30Z</time>
      </trkpt>
      <trkpt lat="49.5591" lon="-1.83663">
        <ele>74.6</ele>
        <time>2020-06-14T17:45:31Z</time>
      </trkpt>
      <trkpt lat="49.55911" lon="-1.83657">
        <ele>74.7</ele>
        <time>2020-06-14T17:45:32Z</time>
      </trkpt>
      <trkpt lat="49.55913" lon="-1.83651">
        <ele>74.8</ele>
        <time>2020-06-14T17:45:33Z</time>
      </trkpt>
      <trkpt lat="49.55915" lon="-1.83645">
        <ele>74.9</ele>
        <time>2020-06-14T17:45:34Z</time>
      </trkpt>
      <trkpt lat="49.55916" lon="-1.83639">
        <ele>74.9</ele>
        <time>2020-06-14T17:45:35Z</time>
      </trkpt>
      <trkpt lat="49.55918" lon="-1.83634">
        <ele>74.8</ele>
        <time>2020-06-14T17:45:36Z</time>
      </trkpt>
      <trkpt lat="49.5592" lon="-1.83628">
        <ele>74.3</ele>
        <time>2020-06-14T17:45:37Z</time>
      </trkpt>
      <trkpt lat="49.55922" lon="-1.83622">
        <ele>74.6</ele>
        <time>2020-06-14T17:45:38Z</time>
      </trkpt>
      <trkpt lat="49.55925" lon="-1.83616">
        <ele>74.9</ele>
        <time>2020-06-14T17:45:39Z</time>
      </trkpt>
      <trkpt lat="49.55927" lon="-1.8361">
        <ele>75.2</ele>
        <time>2020-06-14T17:45:40Z</time>
      </trkpt>
      <trkpt lat="49.55928" lon="-1.83603">
        <ele>75.4</ele>
        <time>2020-06-14T17:45:41Z</time>
      </trkpt>
      <trkpt lat="49.55929" lon="-1.83597">
        <ele>75.6</ele>
        <time>2020-06-14T17:45:42Z</time>
      </trkpt>
      <trkpt lat="49.5593" lon="-1.83591">
        <ele>75.7</ele>
        <time>2020-06-14T17:45:43Z</time>
      </trkpt>
      <trkpt lat="49.55931" lon="-1.83585">
        <ele>75.9</ele>
        <time>2020-06-14T17:45:44Z</time>
      </trkpt>
      <trkpt lat="49.55933" lon="-1.8358">
        <ele>76.1</ele>
        <time>2020-06-14T17:45:45Z</time>
      </trkpt>
      <trkpt lat="49.55935" lon="-1.83575">
        <ele>76.2</ele>
        <time>2020-06-14T17:45:46Z</time>
      </trkpt>
      <trkpt lat="49.55936" lon="-1.83569">
        <ele>76.5</ele>
        <time>2020-06-14T17:45:47Z</time>
      </trkpt>
      <trkpt lat="49.55938" lon="-1.83564">
        <ele>76.7</ele>
        <time>2020-06-14T17:45:48Z</time>
      </trkpt>
      <trkpt lat="49.5594" lon="-1.83558">
        <ele>76.9</ele>
        <time>2020-06-14T17:45:49Z</time>
      </trkpt>
      <trkpt lat="49.55943" lon="-1.83552">
        <ele>77.2</ele>
        <time>2020-06-14T17:45:50Z</time>
      </trkpt>
      <trkpt lat="49.55945" lon="-1.83547">
        <ele>77.4</ele>
        <time>2020-06-14T17:45:51Z</time>
      </trkpt>
      <trkpt lat="49.55947" lon="-1.83541">
        <ele>77.7</ele>
        <time>2020-06-14T17:45:52Z</time>
      </trkpt>
      <trkpt lat="49.55949" lon="-1.83534">
        <ele>77.9</ele>
        <time>2020-06-14T17:45:53Z</time>
      </trkpt>
      <trkpt lat="49.55951" lon="-1.83528">
        <ele>78.2</ele>
        <time>2020-06-14T17:45:54Z</time>
      </trkpt>
      <trkpt lat="49.55953" lon="-1.83522">
        <ele>78.4</ele>
        <time>2020-06-14T17:45:55Z</time>
      </trkpt>
      <trkpt lat="49.55954" lon="-1.83516">
        <ele>78.6</ele>
        <time>2020-06-14T17:45:56Z</time>
      </trkpt>
      <trkpt lat="49.55956" lon="-1.8351">
        <ele>78.8</ele>
        <time>2020-06-14T17:45:57Z</time>
      </trkpt>
      <trkpt lat="49.55959" lon="-1.83504">
        <ele>79</ele>
        <time>2020-06-14T17:45:58Z</time>
      </trkpt>
      <trkpt lat="49.55962" lon="-1.83498">
        <ele>79.3</ele>
        <time>2020-06-14T17:45:59Z</time>
      </trkpt>
      <trkpt lat="49.55964" lon="-1.83493">
        <ele>79.5</ele>
        <time>2020-06-14T17:46:00Z</time>
      </trkpt>
      <trkpt lat="49.55966" lon="-1.83488">
        <ele>79.6</ele>
        <time>2020-06-14T17:46:01Z</time>
      </trkpt>
      <trkpt lat="49.55968" lon="-1.83483">
        <ele>79.8</ele>
        <time>2020-06-14T17:46:02Z</time>
      </trkpt>
      <trkpt lat="49.5597" lon="-1.83478">
        <ele>80</ele>
        <time>2020-06-14T17:46:03Z</time>
      </trkpt>
      <trkpt lat="49.55972" lon="-1.83473">
        <ele>80.2</ele>
        <time>2020-06-14T17:46:04Z</time>
      </trkpt>
      <trkpt lat="49.55974" lon="-1.83468">
        <ele>80.4</ele>
        <time>2020-06-14T17:46:05Z</time>
      </trkpt>
      <trkpt lat="49.55976" lon="-1.83462">
        <ele>80.6</ele>
        <time>2020-06-14T17:46:06Z</time>
      </trkpt>
      <trkpt lat="49.55978" lon="-1.83457">
        <ele>80.7</ele>
        <time>2020-06-14T17:46:07Z</time>
      </trkpt>
      <trkpt lat="49.55982" lon="-1.83449">
        <ele>81</ele>
        <time>2020-06-14T17:46:08Z</time>
      </trkpt>
      <trkpt lat="49.55984" lon="-1.83444">
        <ele>81.2</ele>
        <time>2020-06-14T17:46:09Z</time>
      </trkpt>
      <trkpt lat="49.55985" lon="-1.83439">
        <ele>81.4</ele>
        <time>2020-06-14T17:46:10Z</time>
      </trkpt>
      <trkpt lat="49.55987" lon="-1.83434">
        <ele>81.5</ele>
        <time>2020-06-14T17:46:11Z</time>
      </trkpt>
      <trkpt lat="49.55989" lon="-1.83428">
        <ele>81.7</ele>
        <time>2020-06-14T17:46:12Z</time>
      </trkpt>
      <trkpt lat="49.55991" lon="-1.83422">
        <ele>81.9</ele>
        <time>2020-06-14T17:46:13Z</time>
      </trkpt>
      <trkpt lat="49.55993" lon="-1.83416">
        <ele>82</ele>
        <time>2020-06-14T17:46:14Z</time>
      </trkpt>
      <trkpt lat="49.55996" lon="-1.8341">
        <ele>82.2</ele>
        <time>2020-06-14T17:46:15Z</time>
      </trkpt>
      <trkpt lat="49.55997" lon="-1.83404">
        <ele>82.3</ele>
        <time>2020-06-14T17:46:16Z</time>
      </trkpt>
      <trkpt lat="49.55998" lon="-1.83398">
        <ele>82.4</ele>
        <time>2020-06-14T17:46:17Z</time>
      </trkpt>
      <trkpt lat="49.56" lon="-1.83391">
        <ele>82.6</ele>
        <time>2020-06-14T17:46:18Z</time>
      </trkpt>
      <trkpt lat="49.56002" lon="-1.83385">
        <ele>82.7</ele>
        <time>2020-06-14T17:46:19Z</time>
      </trkpt>
      <trkpt lat="49.56004" lon="-1.8338">
        <ele>82.9</ele>
        <time>2020-06-14T17:46:20Z</time>
      </trkpt>
      <trkpt lat="49.56006" lon="-1.83374">
        <ele>83</ele>
        <time>2020-06-14T17:46:21Z</time>
      </trkpt>
      <trkpt lat="49.56008" lon="-1.83367">
        <ele>83.2</ele>
        <time>2020-06-14T17:46:22Z</time>
      </trkpt>
      <trkpt lat="49.5601" lon="-1.83362">
        <ele>83.3</ele>
        <time>2020-06-14T17:46:23Z</time>
      </trkpt>
      <trkpt lat="49.56011" lon="-1.83354">
        <ele>83.4</ele>
        <time>2020-06-14T17:46:24Z</time>
      </trkpt>
      <trkpt lat="49.56012" lon="-1.83348">
        <ele>83.5</ele>
        <time>2020-06-14T17:46:25Z</time>
      </trkpt>
      <trkpt lat="49.56014" lon="-1.83341">
        <ele>83.7</ele>
        <time>2020-06-14T17:46:26Z</time>
      </trkpt>
      <trkpt lat="49.56016" lon="-1.83335">
        <ele>83.8</ele>
        <time>2020-06-14T17:46:27Z</time>
      </trkpt>
      <trkpt lat="49.56018" lon="-1.8333">
        <ele>83.9</ele>
        <time>2020-06-14T17:46:28Z</time>
      </trkpt>
      <trkpt lat="49.5602" lon="-1.83324">
        <ele>84.1</ele>
        <time>2020-06-14T17:46:29Z</time>
      </trkpt>
      <trkpt lat="49.56022" lon="-1.83318">
        <ele>84.2</ele>
        <time>2020-06-14T17:46:30Z</time>
      </trkpt>
      <trkpt lat="49.56024" lon="-1.83312">
        <ele>84.3</ele>
        <time>2020-06-14T17:46:31Z</time>
      </trkpt>
      <trkpt lat="49.56025" lon="-1.83305">
        <ele>84.3</ele>
        <time>2020-06-14T17:46:32Z</time>
      </trkpt>
      <trkpt lat="49.56027" lon="-1.83299">
        <ele>84.4</ele>
        <time>2020-06-14T17:46:33Z</time>
      </trkpt>
      <trkpt lat="49.56028" lon="-1.83293">
        <ele>84.4</ele>
        <time>2020-06-14T17:46:34Z</time>
      </trkpt>
      <trkpt lat="49.5603" lon="-1.83288">
        <ele>84.5</ele>
        <time>2020-06-14T17:46:35Z</time>
      </trkpt>
      <trkpt lat="49.56032" lon="-1.83283">
        <ele>84.5</ele>
        <time>2020-06-14T17:46:36Z</time>
      </trkpt>
      <trkpt lat="49.56033" lon="-1.83276">
        <ele>84.6</ele>
        <time>2020-06-14T17:46:37Z</time>
      </trkpt>
      <trkpt lat="49.56035" lon="-1.8327">
        <ele>84.6</ele>
        <time>2020-06-14T17:46:38Z</time>
      </trkpt>
      <trkpt lat="49.56036" lon="-1.83264">
        <ele>84.7</ele>
        <time>2020-06-14T17:46:39Z</time>
      </trkpt>
      <trkpt lat="49.56037" lon="-1.83258">
        <ele>84.7</ele>
        <time>2020-06-14T17:46:40Z</time>
      </trkpt>
      <trkpt lat="49.56038" lon="-1.83251">
        <ele>84.7</ele>
        <time>2020-06-14T17:46:41Z</time>
      </trkpt>
      <trkpt lat="49.56039" lon="-1.83245">
        <ele>84.7</ele>
        <time>2020-06-14T17:46:42Z</time>
      </trkpt>
      <trkpt lat="49.56041" lon="-1.8324">
        <ele>84.7</ele>
        <time>2020-06-14T17:46:43Z</time>
      </trkpt>
      <trkpt lat="49.56042" lon="-1.83236">
        <ele>84.7</ele>
        <time>2020-06-14T17:46:44Z</time>
      </trkpt>
      <trkpt lat="49.56043" lon="-1.83234">
        <ele>84.8</ele>
        <time>2020-06-14T17:46:45Z</time>
      </trkpt>
      <trkpt lat="49.56044" lon="-1.83233">
        <ele>84.8</ele>
        <time>2020-06-14T17:46:46Z</time>
      </trkpt>
      <trkpt lat="49.56044" lon="-1.83233">
        <ele>84.8</ele>
        <time>2020-06-14T17:46:47Z</time>
      </trkpt>
      <trkpt lat="49.56045" lon="-1.83234">
        <ele>84.8</ele>
        <time>2020-06-14T17:46:48Z</time>
      </trkpt>
      <trkpt lat="49.56044" lon="-1.83234">
        <ele>84.8</ele>
        <time>2020-06-14T17:46:49Z</time>
      </trkpt>
      <trkpt lat="49.56045" lon="-1.83236">
        <ele>84.7</ele>
        <time>2020-06-14T17:46:50Z</time>
      </trkpt>
      <trkpt lat="49.56045" lon="-1.83237">
        <ele>84.7</ele>
        <time>2020-06-14T17:46:51Z</time>
      </trkpt>
      <trkpt lat="49.56045" lon="-1.83236">
        <ele>84.7</ele>
        <time>2020-06-14T17:46:52Z</time>
      </trkpt>
      <trkpt lat="49.56045" lon="-1.83234">
        <ele>84.7</ele>
        <time>2020-06-14T17:46:53Z</time>
      </trkpt>
      <trkpt lat="49.56045" lon="-1.83233">
        <ele>84.7</ele>
        <time>2020-06-14T17:46:54Z</time>
      </trkpt>
      <trkpt lat="49.56045" lon="-1.83231">
        <ele>84.7</ele>
        <time>2020-06-14T17:46:55Z</time>
      </trkpt>
      <trkpt lat="49.56045" lon="-1.8323">
        <ele>84.7</ele>
        <time>2020-06-14T17:46:56Z</time>
      </trkpt>
      <trkpt lat="49.56045" lon="-1.83228">
        <ele>84.7</ele>
        <time>2020-06-14T17:46:57Z</time>
      </trkpt>
      <trkpt lat="49.56045" lon="-1.83227">
        <ele>84.7</ele>
        <time>2020-06-14T17:47:16Z</time>
      </trkpt>
      <trkpt lat="49.56045" lon="-1.83225">
        <ele>84.7</ele>
        <time>2020-06-14T17:47:17Z</time>
      </trkpt>
      <trkpt lat="49.56046" lon="-1.83221">
        <ele>84.6</ele>
        <time>2020-06-14T17:47:18Z</time>
      </trkpt>
      <trkpt lat="49.56047" lon="-1.83215">
        <ele>84.5</ele>
        <time>2020-06-14T17:47:19Z</time>
      </trkpt>
      <trkpt lat="49.56047" lon="-1.83213">
        <ele>84.5</ele>
        <time>2020-06-14T17:47:20Z</time>
      </trkpt>
      <trkpt lat="49.56048" lon="-1.83209">
        <ele>84.5</ele>
        <time>2020-06-14T17:47:21Z</time>
      </trkpt>
      <trkpt lat="49.56048" lon="-1.83204">
        <ele>84.4</ele>
        <time>2020-06-14T17:47:22Z</time>
      </trkpt>
      <trkpt lat="49.56048" lon="-1.83202">
        <ele>84.4</ele>
        <time>2020-06-14T17:47:23Z</time>
      </trkpt>
      <trkpt lat="49.56048" lon="-1.832">
        <ele>84.4</ele>
        <time>2020-06-14T17:47:24Z</time>
      </trkpt>
      <trkpt lat="49.56048" lon="-1.83202">
        <ele>84.3</ele>
        <time>2020-06-14T17:47:25Z</time>
      </trkpt>
      <trkpt lat="49.56049" lon="-1.83204">
        <ele>84.3</ele>
        <time>2020-06-14T17:47:26Z</time>
      </trkpt>
      <trkpt lat="49.56048" lon="-1.83205">
        <ele>84.3</ele>
        <time>2020-06-14T17:47:27Z</time>
      </trkpt>
      <trkpt lat="49.56048" lon="-1.83205">
        <ele>84.3</ele>
        <time>2020-06-14T17:47:28Z</time>
      </trkpt>
      <trkpt lat="49.56048" lon="-1.83205">
        <ele>84.3</ele>
        <time>2020-06-14T17:47:29Z</time>
      </trkpt>
      <trkpt lat="49.56047" lon="-1.83206">
        <ele>84.3</ele>
        <time>2020-06-14T17:47:30Z</time>
      </trkpt>
      <trkpt lat="49.56047" lon="-1.83206">
        <ele>84.3</ele>
        <time>2020-06-14T17:47:31Z</time>
      </trkpt>
      <trkpt lat="49.56047" lon="-1.83206">
        <ele>84.3</ele>
        <time>2020-06-14T17:47:32Z</time>
      </trkpt>
      <trkpt lat="49.56047" lon="-1.83206">
        <ele>84.3</ele>
        <time>2020-06-14T17:47:33Z</time>
      </trkpt>
      <trkpt lat="49.56047" lon="-1.83206">
        <ele>84.3</ele>
        <time>2020-06-14T17:47:34Z</time>
      </trkpt>
      <trkpt lat="49.56047" lon="-1.83206">
        <ele>84.3</ele>
        <time>2020-06-14T17:47:35Z</time>
      </trkpt>
      <trkpt lat="49.56047" lon="-1.83206">
        <ele>84.3</ele>
        <time>2020-06-14T17:47:36Z</time>
      </trkpt>
      <trkpt lat="49.56048" lon="-1.83194">
        <ele>84.1</ele>
        <time>2020-06-14T17:48:44Z</time>
      </trkpt>
      <trkpt lat="49.56049" lon="-1.83189">
        <ele>84.1</ele>
        <time>2020-06-14T17:48:45Z</time>
      </trkpt>
      <trkpt lat="49.5605" lon="-1.83183">
        <ele>83.9</ele>
        <time>2020-06-14T17:48:46Z</time>
      </trkpt>
      <trkpt lat="49.56052" lon="-1.83177">
        <ele>83.8</ele>
        <time>2020-06-14T17:48:47Z</time>
      </trkpt>
      <trkpt lat="49.56052" lon="-1.8317">
        <ele>83.6</ele>
        <time>2020-06-14T17:48:48Z</time>
      </trkpt>
      <trkpt lat="49.56054" lon="-1.83161">
        <ele>83.3</ele>
        <time>2020-06-14T17:48:49Z</time>
      </trkpt>
      <trkpt lat="49.56055" lon="-1.83151">
        <ele>83</ele>
        <time>2020-06-14T17:48:50Z</time>
      </trkpt>
      <trkpt lat="49.56056" lon="-1.83142">
        <ele>82.8</ele>
        <time>2020-06-14T17:48:51Z</time>
      </trkpt>
      <trkpt lat="49.56056" lon="-1.83133">
        <ele>82.6</ele>
        <time>2020-06-14T17:48:52Z</time>
      </trkpt>
      <trkpt lat="49.56056" lon="-1.83125">
        <ele>82.5</ele>
        <time>2020-06-14T17:48:53Z</time>
      </trkpt>
      <trkpt lat="49.56055" lon="-1.83116">
        <ele>82.4</ele>
        <time>2020-06-14T17:48:54Z</time>
      </trkpt>
      <trkpt lat="49.56056" lon="-1.83108">
        <ele>82.3</ele>
        <time>2020-06-14T17:48:55Z</time>
      </trkpt>
      <trkpt lat="49.56056" lon="-1.83099">
        <ele>82.2</ele>
        <time>2020-06-14T17:48:56Z</time>
      </trkpt>
      <trkpt lat="49.56055" lon="-1.83088">
        <ele>82.1</ele>
        <time>2020-06-14T17:48:57Z</time>
      </trkpt>
      <trkpt lat="49.56055" lon="-1.83079">
        <ele>82</ele>
        <time>2020-06-14T17:48:58Z</time>
      </trkpt>
      <trkpt lat="49.56055" lon="-1.83069">
        <ele>81.8</ele>
        <time>2020-06-14T17:48:59Z</time>
      </trkpt>
      <trkpt lat="49.56055" lon="-1.83059">
        <ele>81.7</ele>
        <time>2020-06-14T17:49:00Z</time>
      </trkpt>
      <trkpt lat="49.56055" lon="-1.8305">
        <ele>81.5</ele>
        <time>2020-06-14T17:49:01Z</time>
      </trkpt>
      <trkpt lat="49.56056" lon="-1.83041">
        <ele>81.4</ele>
        <time>2020-06-14T17:49:02Z</time>
      </trkpt>
      <trkpt lat="49.56055" lon="-1.83031">
        <ele>81.3</ele>
        <time>2020-06-14T17:49:03Z</time>
      </trkpt>
      <trkpt lat="49.56055" lon="-1.83022">
        <ele>81.1</ele>
        <time>2020-06-14T17:49:04Z</time>
      </trkpt>
      <trkpt lat="49.56055" lon="-1.83012">
        <ele>80.8</ele>
        <time>2020-06-14T17:49:05Z</time>
      </trkpt>
      <trkpt lat="49.56056" lon="-1.83004">
        <ele>80.6</ele>
        <time>2020-06-14T17:49:06Z</time>
      </trkpt>
      <trkpt lat="49.56056" lon="-1.82994">
        <ele>80.5</ele>
        <time>2020-06-14T17:49:07Z</time>
      </trkpt>
      <trkpt lat="49.56057" lon="-1.82983">
        <ele>80.4</ele>
        <time>2020-06-14T17:49:08Z</time>
      </trkpt>
      <trkpt lat="49.56057" lon="-1.82973">
        <ele>80.2</ele>
        <time>2020-06-14T17:49:09Z</time>
      </trkpt>
      <trkpt lat="49.56057" lon="-1.82963">
        <ele>79.9</ele>
        <time>2020-06-14T17:49:10Z</time>
      </trkpt>
      <trkpt lat="49.56058" lon="-1.82953">
        <ele>79.7</ele>
        <time>2020-06-14T17:49:11Z</time>
      </trkpt>
      <trkpt lat="49.56058" lon="-1.82942">
        <ele>79.5</ele>
        <time>2020-06-14T17:49:12Z</time>
      </trkpt>
      <trkpt lat="49.56059" lon="-1.82931">
        <ele>79.3</ele>
        <time>2020-06-14T17:49:13Z</time>
      </trkpt>
      <trkpt lat="49.5606" lon="-1.82919">
        <ele>79</ele>
        <time>2020-06-14T17:49:14Z</time>
      </trkpt>
      <trkpt lat="49.5606" lon="-1.82908">
        <ele>78.7</ele>
        <time>2020-06-14T17:49:15Z</time>
      </trkpt>
      <trkpt lat="49.5606" lon="-1.82898">
        <ele>78.3</ele>
        <time>2020-06-14T17:49:16Z</time>
      </trkpt>
      <trkpt lat="49.56061" lon="-1.82886">
        <ele>78</ele>
        <time>2020-06-14T17:49:17Z</time>
      </trkpt>
      <trkpt lat="49.56061" lon="-1.82874">
        <ele>77.7</ele>
        <time>2020-06-14T17:49:18Z</time>
      </trkpt>
      <trkpt lat="49.56061" lon="-1.82863">
        <ele>77.4</ele>
        <time>2020-06-14T17:49:19Z</time>
      </trkpt>
      <trkpt lat="49.56062" lon="-1.82851">
        <ele>77</ele>
        <time>2020-06-14T17:49:20Z</time>
      </trkpt>
      <trkpt lat="49.56062" lon="-1.82839">
        <ele>76.7</ele>
        <time>2020-06-14T17:49:21Z</time>
      </trkpt>
      <trkpt lat="49.56063" lon="-1.82826">
        <ele>76.3</ele>
        <time>2020-06-14T17:49:22Z</time>
      </trkpt>
      <trkpt lat="49.56063" lon="-1.82814">
        <ele>75.8</ele>
        <time>2020-06-14T17:49:23Z</time>
      </trkpt>
      <trkpt lat="49.56063" lon="-1.82802">
        <ele>75.4</ele>
        <time>2020-06-14T17:49:24Z</time>
      </trkpt>
      <trkpt lat="49.56064" lon="-1.8279">
        <ele>74.7</ele>
        <time>2020-06-14T17:49:25Z</time>
      </trkpt>
      <trkpt lat="49.56064" lon="-1.82777">
        <ele>74</ele>
        <time>2020-06-14T17:49:26Z</time>
      </trkpt>
      <trkpt lat="49.56064" lon="-1.82764">
        <ele>73.2</ele>
        <time>2020-06-14T17:49:27Z</time>
      </trkpt>
      <trkpt lat="49.56064" lon="-1.82751">
        <ele>72.4</ele>
        <time>2020-06-14T17:49:28Z</time>
      </trkpt>
      <trkpt lat="49.56063" lon="-1.82739">
        <ele>71.6</ele>
        <time>2020-06-14T17:49:29Z</time>
      </trkpt>
      <trkpt lat="49.56061" lon="-1.82726">
        <ele>70.8</ele>
        <time>2020-06-14T17:49:30Z</time>
      </trkpt>
      <trkpt lat="49.56059" lon="-1.82714">
        <ele>70</ele>
        <time>2020-06-14T17:49:31Z</time>
      </trkpt>
      <trkpt lat="49.56057" lon="-1.82702">
        <ele>69.2</ele>
        <time>2020-06-14T17:49:32Z</time>
      </trkpt>
      <trkpt lat="49.56054" lon="-1.8269">
        <ele>68.5</ele>
        <time>2020-06-14T17:49:33Z</time>
      </trkpt>
      <trkpt lat="49.56052" lon="-1.82679">
        <ele>67.8</ele>
        <time>2020-06-14T17:49:34Z</time>
      </trkpt>
      <trkpt lat="49.5605" lon="-1.82669">
        <ele>67.1</ele>
        <time>2020-06-14T17:49:35Z</time>
      </trkpt>
      <trkpt lat="49.56048" lon="-1.82661">
        <ele>66.6</ele>
        <time>2020-06-14T17:49:36Z</time>
      </trkpt>
      <trkpt lat="49.56047" lon="-1.82654">
        <ele>66</ele>
        <time>2020-06-14T17:49:37Z</time>
      </trkpt>
      <trkpt lat="49.56049" lon="-1.82648">
        <ele>65.5</ele>
        <time>2020-06-14T17:49:38Z</time>
      </trkpt>
      <trkpt lat="49.56052" lon="-1.82643">
        <ele>64.3</ele>
        <time>2020-06-14T17:49:39Z</time>
      </trkpt>
      <trkpt lat="49.56055" lon="-1.82639">
        <ele>64.1</ele>
        <time>2020-06-14T17:49:40Z</time>
      </trkpt>
      <trkpt lat="49.56059" lon="-1.82636">
        <ele>63.8</ele>
        <time>2020-06-14T17:49:41Z</time>
      </trkpt>
      <trkpt lat="49.56062" lon="-1.82634">
        <ele>63.6</ele>
        <time>2020-06-14T17:49:42Z</time>
      </trkpt>
      <trkpt lat="49.56066" lon="-1.82633">
        <ele>63.5</ele>
        <time>2020-06-14T17:49:43Z</time>
      </trkpt>
      <trkpt lat="49.56069" lon="-1.82629">
        <ele>63.3</ele>
        <time>2020-06-14T17:49:44Z</time>
      </trkpt>
      <trkpt lat="49.5607" lon="-1.82624">
        <ele>63.8</ele>
        <time>2020-06-14T17:49:45Z</time>
      </trkpt>
      <trkpt lat="49.5607" lon="-1.82618">
        <ele>64.1</ele>
        <time>2020-06-14T17:49:46Z</time>
      </trkpt>
      <trkpt lat="49.56068" lon="-1.82613">
        <ele>64.3</ele>
        <time>2020-06-14T17:49:47Z</time>
      </trkpt>
      <trkpt lat="49.56068" lon="-1.82608">
        <ele>64.4</ele>
        <time>2020-06-14T17:49:48Z</time>
      </trkpt>
      <trkpt lat="49.56067" lon="-1.82603">
        <ele>64.6</ele>
        <time>2020-06-14T17:49:49Z</time>
      </trkpt>
      <trkpt lat="49.56068" lon="-1.82598">
        <ele>64.7</ele>
        <time>2020-06-14T17:49:50Z</time>
      </trkpt>
      <trkpt lat="49.5607" lon="-1.82595">
        <ele>64.8</ele>
        <time>2020-06-14T17:49:51Z</time>
      </trkpt>
      <trkpt lat="49.56072" lon="-1.82591">
        <ele>65</ele>
        <time>2020-06-14T17:49:52Z</time>
      </trkpt>
      <trkpt lat="49.56074" lon="-1.82586">
        <ele>65.2</ele>
        <time>2020-06-14T17:49:53Z</time>
      </trkpt>
      <trkpt lat="49.56076" lon="-1.82582">
        <ele>65.4</ele>
        <time>2020-06-14T17:49:54Z</time>
      </trkpt>
      <trkpt lat="49.56078" lon="-1.82578">
        <ele>65.6</ele>
        <time>2020-06-14T17:49:55Z</time>
      </trkpt>
      <trkpt lat="49.5608" lon="-1.82574">
        <ele>65.8</ele>
        <time>2020-06-14T17:49:56Z</time>
      </trkpt>
      <trkpt lat="49.56081" lon="-1.8257">
        <ele>66.1</ele>
        <time>2020-06-14T17:49:57Z</time>
      </trkpt>
      <trkpt lat="49.56083" lon="-1.82566">
        <ele>66.4</ele>
        <time>2020-06-14T17:49:58Z</time>
      </trkpt>
      <trkpt lat="49.56086" lon="-1.82563">
        <ele>66.7</ele>
        <time>2020-06-14T17:49:59Z</time>
      </trkpt>
      <trkpt lat="49.56089" lon="-1.82559">
        <ele>67.1</ele>
        <time>2020-06-14T17:50:00Z</time>
      </trkpt>
      <trkpt lat="49.5609" lon="-1.82555">
        <ele>67.4</ele>
        <time>2020-06-14T17:50:01Z</time>
      </trkpt>
      <trkpt lat="49.56091" lon="-1.8255">
        <ele>67.7</ele>
        <time>2020-06-14T17:50:02Z</time>
      </trkpt>
      <trkpt lat="49.56091" lon="-1.82546">
        <ele>68</ele>
        <time>2020-06-14T17:50:03Z</time>
      </trkpt>
      <trkpt lat="49.56091" lon="-1.8254">
        <ele>68.4</ele>
        <time>2020-06-14T17:50:04Z</time>
      </trkpt>
      <trkpt lat="49.56091" lon="-1.82538">
        <ele>68.6</ele>
        <time>2020-06-14T17:50:05Z</time>
      </trkpt>
      <trkpt lat="49.56089" lon="-1.82534">
        <ele>68.9</ele>
        <time>2020-06-14T17:50:06Z</time>
      </trkpt>
      <trkpt lat="49.56089" lon="-1.82529">
        <ele>69.2</ele>
        <time>2020-06-14T17:50:07Z</time>
      </trkpt>
      <trkpt lat="49.56088" lon="-1.82524">
        <ele>69.6</ele>
        <time>2020-06-14T17:50:08Z</time>
      </trkpt>
      <trkpt lat="49.56087" lon="-1.82519">
        <ele>69.9</ele>
        <time>2020-06-14T17:50:09Z</time>
      </trkpt>
      <trkpt lat="49.56086" lon="-1.82513">
        <ele>70.3</ele>
        <time>2020-06-14T17:50:10Z</time>
      </trkpt>
      <trkpt lat="49.56086" lon="-1.82511">
        <ele>70.4</ele>
        <time>2020-06-14T17:50:11Z</time>
      </trkpt>
      <trkpt lat="49.56084" lon="-1.82505">
        <ele>70.8</ele>
        <time>2020-06-14T17:50:12Z</time>
      </trkpt>
      <trkpt lat="49.56084" lon="-1.82503">
        <ele>70.9</ele>
        <time>2020-06-14T17:50:13Z</time>
      </trkpt>
      <trkpt lat="49.56083" lon="-1.82497">
        <ele>71.2</ele>
        <time>2020-06-14T17:50:14Z</time>
      </trkpt>
      <trkpt lat="49.56081" lon="-1.82492">
        <ele>71.5</ele>
        <time>2020-06-14T17:50:15Z</time>
      </trkpt>
      <trkpt lat="49.56081" lon="-1.82485">
        <ele>71.8</ele>
        <time>2020-06-14T17:50:16Z</time>
      </trkpt>
      <trkpt lat="49.56081" lon="-1.82479">
        <ele>72.2</ele>
        <time>2020-06-14T17:50:17Z</time>
      </trkpt>
      <trkpt lat="49.5608" lon="-1.82474">
        <ele>72.5</ele>
        <time>2020-06-14T17:50:18Z</time>
      </trkpt>
      <trkpt lat="49.56079" lon="-1.8247">
        <ele>72.7</ele>
        <time>2020-06-14T17:50:19Z</time>
      </trkpt>
      <trkpt lat="49.56078" lon="-1.82468">
        <ele>72.9</ele>
        <time>2020-06-14T17:50:20Z</time>
      </trkpt>
      <trkpt lat="49.56078" lon="-1.82464">
        <ele>73.1</ele>
        <time>2020-06-14T17:50:21Z</time>
      </trkpt>
      <trkpt lat="49.56077" lon="-1.8246">
        <ele>73.4</ele>
        <time>2020-06-14T17:50:22Z</time>
      </trkpt>
      <trkpt lat="49.56077" lon="-1.82454">
        <ele>73.7</ele>
        <time>2020-06-14T17:50:23Z</time>
      </trkpt>
      <trkpt lat="49.56078" lon="-1.8245">
        <ele>74</ele>
        <time>2020-06-14T17:50:24Z</time>
      </trkpt>
      <trkpt lat="49.56077" lon="-1.82445">
        <ele>74.2</ele>
        <time>2020-06-14T17:50:25Z</time>
      </trkpt>
      <trkpt lat="49.56077" lon="-1.82441">
        <ele>74.4</ele>
        <time>2020-06-14T17:50:26Z</time>
      </trkpt>
      <trkpt lat="49.56076" lon="-1.82435">
        <ele>74.8</ele>
        <time>2020-06-14T17:50:27Z</time>
      </trkpt>
      <trkpt lat="49.56076" lon="-1.82433">
        <ele>74.9</ele>
        <time>2020-06-14T17:50:28Z</time>
      </trkpt>
      <trkpt lat="49.56075" lon="-1.82427">
        <ele>75.2</ele>
        <time>2020-06-14T17:50:29Z</time>
      </trkpt>
      <trkpt lat="49.56075" lon="-1.82425">
        <ele>75.4</ele>
        <time>2020-06-14T17:50:30Z</time>
      </trkpt>
      <trkpt lat="49.56074" lon="-1.8242">
        <ele>75.6</ele>
        <time>2020-06-14T17:50:31Z</time>
      </trkpt>
      <trkpt lat="49.56075" lon="-1.82415">
        <ele>75.9</ele>
        <time>2020-06-14T17:50:32Z</time>
      </trkpt>
      <trkpt lat="49.56075" lon="-1.82413">
        <ele>76.1</ele>
        <time>2020-06-14T17:50:33Z</time>
      </trkpt>
      <trkpt lat="49.56075" lon="-1.82408">
        <ele>76.3</ele>
        <time>2020-06-14T17:50:34Z</time>
      </trkpt>
      <trkpt lat="49.56074" lon="-1.82403">
        <ele>76.5</ele>
        <time>2020-06-14T17:50:35Z</time>
      </trkpt>
      <trkpt lat="49.56074" lon="-1.82398">
        <ele>76.7</ele>
        <time>2020-06-14T17:50:36Z</time>
      </trkpt>
      <trkpt lat="49.56074" lon="-1.82394">
        <ele>76.9</ele>
        <time>2020-06-14T17:50:37Z</time>
      </trkpt>
      <trkpt lat="49.56074" lon="-1.82387">
        <ele>77.1</ele>
        <time>2020-06-14T17:50:38Z</time>
      </trkpt>
      <trkpt lat="49.56075" lon="-1.82382">
        <ele>77.3</ele>
        <time>2020-06-14T17:50:39Z</time>
      </trkpt>
      <trkpt lat="49.56075" lon="-1.8238">
        <ele>77.4</ele>
        <time>2020-06-14T17:50:40Z</time>
      </trkpt>
      <trkpt lat="49.56075" lon="-1.82375">
        <ele>77.5</ele>
        <time>2020-06-14T17:50:41Z</time>
      </trkpt>
      <trkpt lat="49.56075" lon="-1.8237">
        <ele>77.6</ele>
        <time>2020-06-14T17:50:42Z</time>
      </trkpt>
      <trkpt lat="49.56076" lon="-1.82365">
        <ele>77.8</ele>
        <time>2020-06-14T17:50:43Z</time>
      </trkpt>
      <trkpt lat="49.56076" lon="-1.8236">
        <ele>77.9</ele>
        <time>2020-06-14T17:50:44Z</time>
      </trkpt>
      <trkpt lat="49.56076" lon="-1.82355">
        <ele>78</ele>
        <time>2020-06-14T17:50:45Z</time>
      </trkpt>
      <trkpt lat="49.56077" lon="-1.8235">
        <ele>78</ele>
        <time>2020-06-14T17:50:46Z</time>
      </trkpt>
      <trkpt lat="49.56077" lon="-1.82345">
        <ele>78.1</ele>
        <time>2020-06-14T17:50:47Z</time>
      </trkpt>
      <trkpt lat="49.56078" lon="-1.82341">
        <ele>78.1</ele>
        <time>2020-06-14T17:50:48Z</time>
      </trkpt>
      <trkpt lat="49.56079" lon="-1.82336">
        <ele>78.1</ele>
        <time>2020-06-14T17:50:49Z</time>
      </trkpt>
      <trkpt lat="49.5608" lon="-1.82332">
        <ele>78.2</ele>
        <time>2020-06-14T17:50:50Z</time>
      </trkpt>
      <trkpt lat="49.56081" lon="-1.82328">
        <ele>78.2</ele>
        <time>2020-06-14T17:50:51Z</time>
      </trkpt>
      <trkpt lat="49.56083" lon="-1.82323">
        <ele>78.2</ele>
        <time>2020-06-14T17:50:52Z</time>
      </trkpt>
      <trkpt lat="49.56085" lon="-1.82318">
        <ele>78.2</ele>
        <time>2020-06-14T17:50:53Z</time>
      </trkpt>
      <trkpt lat="49.56087" lon="-1.82312">
        <ele>78.2</ele>
        <time>2020-06-14T17:50:54Z</time>
      </trkpt>
      <trkpt lat="49.56089" lon="-1.82308">
        <ele>78.1</ele>
        <time>2020-06-14T17:50:55Z</time>
      </trkpt>
      <trkpt lat="49.56092" lon="-1.82301">
        <ele>77.9</ele>
        <time>2020-06-14T17:50:56Z</time>
      </trkpt>
      <trkpt lat="49.56094" lon="-1.82294">
        <ele>77.7</ele>
        <time>2020-06-14T17:50:57Z</time>
      </trkpt>
      <trkpt lat="49.56098" lon="-1.82288">
        <ele>77.5</ele>
        <time>2020-06-14T17:50:58Z</time>
      </trkpt>
      <trkpt lat="49.561" lon="-1.82282">
        <ele>77.4</ele>
        <time>2020-06-14T17:50:59Z</time>
      </trkpt>
      <trkpt lat="49.56103" lon="-1.82276">
        <ele>77.2</ele>
        <time>2020-06-14T17:51:00Z</time>
      </trkpt>
      <trkpt lat="49.56105" lon="-1.82268">
        <ele>76.9</ele>
        <time>2020-06-14T17:51:01Z</time>
      </trkpt>
      <trkpt lat="49.56106" lon="-1.82262">
        <ele>76.7</ele>
        <time>2020-06-14T17:51:02Z</time>
      </trkpt>
      <trkpt lat="49.56107" lon="-1.82257">
        <ele>76.6</ele>
        <time>2020-06-14T17:51:03Z</time>
      </trkpt>
      <trkpt lat="49.5611" lon="-1.8225">
        <ele>76.3</ele>
        <time>2020-06-14T17:51:04Z</time>
      </trkpt>
      <trkpt lat="49.56113" lon="-1.82242">
        <ele>76.1</ele>
        <time>2020-06-14T17:51:05Z</time>
      </trkpt>
      <trkpt lat="49.56117" lon="-1.82234">
        <ele>75.8</ele>
        <time>2020-06-14T17:51:06Z</time>
      </trkpt>
      <trkpt lat="49.56121" lon="-1.82226">
        <ele>75.5</ele>
        <time>2020-06-14T17:51:07Z</time>
      </trkpt>
      <trkpt lat="49.56125" lon="-1.82221">
        <ele>75.1</ele>
        <time>2020-06-14T17:51:08Z</time>
      </trkpt>
      <trkpt lat="49.5613" lon="-1.82214">
        <ele>74.5</ele>
        <time>2020-06-14T17:51:09Z</time>
      </trkpt>
      <trkpt lat="49.56134" lon="-1.82206">
        <ele>73.9</ele>
        <time>2020-06-14T17:51:10Z</time>
      </trkpt>
      <trkpt lat="49.56138" lon="-1.82199">
        <ele>73.3</ele>
        <time>2020-06-14T17:51:11Z</time>
      </trkpt>
      <trkpt lat="49.56141" lon="-1.82192">
        <ele>72.6</ele>
        <time>2020-06-14T17:51:12Z</time>
      </trkpt>
      <trkpt lat="49.56144" lon="-1.82186">
        <ele>72.2</ele>
        <time>2020-06-14T17:51:13Z</time>
      </trkpt>
      <trkpt lat="49.56146" lon="-1.82181">
        <ele>72.1</ele>
        <time>2020-06-14T17:51:14Z</time>
      </trkpt>
      <trkpt lat="49.56148" lon="-1.82177">
        <ele>71.9</ele>
        <time>2020-06-14T17:51:15Z</time>
      </trkpt>
      <trkpt lat="49.56149" lon="-1.82175">
        <ele>71.8</ele>
        <time>2020-06-14T17:51:16Z</time>
      </trkpt>
      <trkpt lat="49.56151" lon="-1.8217">
        <ele>71.6</ele>
        <time>2020-06-14T17:51:17Z</time>
      </trkpt>
      <trkpt lat="49.56154" lon="-1.82164">
        <ele>71.3</ele>
        <time>2020-06-14T17:51:18Z</time>
      </trkpt>
      <trkpt lat="49.56157" lon="-1.82158">
        <ele>70.9</ele>
        <time>2020-06-14T17:51:19Z</time>
      </trkpt>
      <trkpt lat="49.56159" lon="-1.82151">
        <ele>70.5</ele>
        <time>2020-06-14T17:51:20Z</time>
      </trkpt>
      <trkpt lat="49.56162" lon="-1.82145">
        <ele>70.1</ele>
        <time>2020-06-14T17:51:21Z</time>
      </trkpt>
      <trkpt lat="49.56165" lon="-1.82139">
        <ele>69.7</ele>
        <time>2020-06-14T17:51:22Z</time>
      </trkpt>
      <trkpt lat="49.56167" lon="-1.82134">
        <ele>69.3</ele>
        <time>2020-06-14T17:51:23Z</time>
      </trkpt>
      <trkpt lat="49.5617" lon="-1.82129">
        <ele>68.9</ele>
        <time>2020-06-14T17:51:24Z</time>
      </trkpt>
      <trkpt lat="49.56173" lon="-1.82123">
        <ele>68.5</ele>
        <time>2020-06-14T17:51:25Z</time>
      </trkpt>
      <trkpt lat="49.56177" lon="-1.82118">
        <ele>68.1</ele>
        <time>2020-06-14T17:51:26Z</time>
      </trkpt>
      <trkpt lat="49.56181" lon="-1.82114">
        <ele>67.7</ele>
        <time>2020-06-14T17:51:27Z</time>
      </trkpt>
      <trkpt lat="49.56185" lon="-1.8211">
        <ele>67.4</ele>
        <time>2020-06-14T17:51:28Z</time>
      </trkpt>
      <trkpt lat="49.56188" lon="-1.82106">
        <ele>67.1</ele>
        <time>2020-06-14T17:51:29Z</time>
      </trkpt>
      <trkpt lat="49.56193" lon="-1.82101">
        <ele>66.7</ele>
        <time>2020-06-14T17:51:30Z</time>
      </trkpt>
      <trkpt lat="49.56196" lon="-1.82096">
        <ele>66.4</ele>
        <time>2020-06-14T17:51:31Z</time>
      </trkpt>
      <trkpt lat="49.562" lon="-1.82092">
        <ele>66</ele>
        <time>2020-06-14T17:51:32Z</time>
      </trkpt>
      <trkpt lat="49.56204" lon="-1.82089">
        <ele>65.8</ele>
        <time>2020-06-14T17:51:33Z</time>
      </trkpt>
      <trkpt lat="49.56207" lon="-1.82086">
        <ele>65.5</ele>
        <time>2020-06-14T17:51:34Z</time>
      </trkpt>
      <trkpt lat="49.5621" lon="-1.82082">
        <ele>65.2</ele>
        <time>2020-06-14T17:51:35Z</time>
      </trkpt>
      <trkpt lat="49.56216" lon="-1.82074">
        <ele>64.7</ele>
        <time>2020-06-14T17:51:36Z</time>
      </trkpt>
      <trkpt lat="49.5622" lon="-1.82069">
        <ele>64.3</ele>
        <time>2020-06-14T17:51:37Z</time>
      </trkpt>
      <trkpt lat="49.56223" lon="-1.82063">
        <ele>64</ele>
        <time>2020-06-14T17:51:38Z</time>
      </trkpt>
      <trkpt lat="49.56227" lon="-1.82058">
        <ele>63.6</ele>
        <time>2020-06-14T17:51:39Z</time>
      </trkpt>
      <trkpt lat="49.5623" lon="-1.82052">
        <ele>63.2</ele>
        <time>2020-06-14T17:51:40Z</time>
      </trkpt>
      <trkpt lat="49.56236" lon="-1.82045">
        <ele>62.6</ele>
        <time>2020-06-14T17:51:41Z</time>
      </trkpt>
      <trkpt lat="49.56241" lon="-1.82038">
        <ele>62.1</ele>
        <time>2020-06-14T17:51:42Z</time>
      </trkpt>
      <trkpt lat="49.56246" lon="-1.82029">
        <ele>61.6</ele>
        <time>2020-06-14T17:51:43Z</time>
      </trkpt>
      <trkpt lat="49.56252" lon="-1.82024">
        <ele>61.1</ele>
        <time>2020-06-14T17:51:44Z</time>
      </trkpt>
      <trkpt lat="49.56257" lon="-1.82018">
        <ele>60.7</ele>
        <time>2020-06-14T17:51:45Z</time>
      </trkpt>
      <trkpt lat="49.56261" lon="-1.82014">
        <ele>60.3</ele>
        <time>2020-06-14T17:51:46Z</time>
      </trkpt>
      <trkpt lat="49.56265" lon="-1.82011">
        <ele>60</ele>
        <time>2020-06-14T17:51:47Z</time>
      </trkpt>
      <trkpt lat="49.56269" lon="-1.82007">
        <ele>59.6</ele>
        <time>2020-06-14T17:51:48Z</time>
      </trkpt>
      <trkpt lat="49.56274" lon="-1.82002">
        <ele>59.2</ele>
        <time>2020-06-14T17:51:49Z</time>
      </trkpt>
      <trkpt lat="49.56279" lon="-1.81996">
        <ele>58.8</ele>
        <time>2020-06-14T17:51:50Z</time>
      </trkpt>
      <trkpt lat="49.56282" lon="-1.81992">
        <ele>58.5</ele>
        <time>2020-06-14T17:51:51Z</time>
      </trkpt>
      <trkpt lat="49.56286" lon="-1.81987">
        <ele>58.2</ele>
        <time>2020-06-14T17:51:52Z</time>
      </trkpt>
      <trkpt lat="49.5629" lon="-1.81981">
        <ele>57.8</ele>
        <time>2020-06-14T17:51:53Z</time>
      </trkpt>
      <trkpt lat="49.56295" lon="-1.81975">
        <ele>57.4</ele>
        <time>2020-06-14T17:51:54Z</time>
      </trkpt>
      <trkpt lat="49.563" lon="-1.81966">
        <ele>56.9</ele>
        <time>2020-06-14T17:51:55Z</time>
      </trkpt>
      <trkpt lat="49.56305" lon="-1.81957">
        <ele>56.4</ele>
        <time>2020-06-14T17:51:56Z</time>
      </trkpt>
      <trkpt lat="49.56309" lon="-1.8195">
        <ele>56.1</ele>
        <time>2020-06-14T17:51:57Z</time>
      </trkpt>
      <trkpt lat="49.56313" lon="-1.8194">
        <ele>55.6</ele>
        <time>2020-06-14T17:51:58Z</time>
      </trkpt>
      <trkpt lat="49.56317" lon="-1.81931">
        <ele>55.3</ele>
        <time>2020-06-14T17:51:59Z</time>
      </trkpt>
      <trkpt lat="49.56321" lon="-1.81923">
        <ele>55</ele>
        <time>2020-06-14T17:52:00Z</time>
      </trkpt>
      <trkpt lat="49.56324" lon="-1.81914">
        <ele>54.7</ele>
        <time>2020-06-14T17:52:01Z</time>
      </trkpt>
      <trkpt lat="49.56327" lon="-1.81909">
        <ele>54.5</ele>
        <time>2020-06-14T17:52:02Z</time>
      </trkpt>
      <trkpt lat="49.5633" lon="-1.81903">
        <ele>54.2</ele>
        <time>2020-06-14T17:52:03Z</time>
      </trkpt>
      <trkpt lat="49.56334" lon="-1.81896">
        <ele>53.9</ele>
        <time>2020-06-14T17:52:04Z</time>
      </trkpt>
      <trkpt lat="49.56339" lon="-1.8189">
        <ele>53.5</ele>
        <time>2020-06-14T17:52:05Z</time>
      </trkpt>
      <trkpt lat="49.56343" lon="-1.81884">
        <ele>53.2</ele>
        <time>2020-06-14T17:52:06Z</time>
      </trkpt>
      <trkpt lat="49.56348" lon="-1.81877">
        <ele>52.8</ele>
        <time>2020-06-14T17:52:07Z</time>
      </trkpt>
      <trkpt lat="49.56353" lon="-1.81871">
        <ele>52.5</ele>
        <time>2020-06-14T17:52:08Z</time>
      </trkpt>
      <trkpt lat="49.56358" lon="-1.81864">
        <ele>52</ele>
        <time>2020-06-14T17:52:09Z</time>
      </trkpt>
      <trkpt lat="49.56364" lon="-1.81858">
        <ele>51.5</ele>
        <time>2020-06-14T17:52:10Z</time>
      </trkpt>
      <trkpt lat="49.5637" lon="-1.8185">
        <ele>51.1</ele>
        <time>2020-06-14T17:52:11Z</time>
      </trkpt>
      <trkpt lat="49.56376" lon="-1.81843">
        <ele>50.7</ele>
        <time>2020-06-14T17:52:12Z</time>
      </trkpt>
      <trkpt lat="49.56382" lon="-1.81835">
        <ele>50.3</ele>
        <time>2020-06-14T17:52:13Z</time>
      </trkpt>
      <trkpt lat="49.56387" lon="-1.81827">
        <ele>49.9</ele>
        <time>2020-06-14T17:52:14Z</time>
      </trkpt>
      <trkpt lat="49.56392" lon="-1.81818">
        <ele>49.5</ele>
        <time>2020-06-14T17:52:15Z</time>
      </trkpt>
      <trkpt lat="49.56397" lon="-1.8181">
        <ele>49.2</ele>
        <time>2020-06-14T17:52:16Z</time>
      </trkpt>
      <trkpt lat="49.56402" lon="-1.81803">
        <ele>48.8</ele>
        <time>2020-06-14T17:52:17Z</time>
      </trkpt>
      <trkpt lat="49.56407" lon="-1.81795">
        <ele>48.5</ele>
        <time>2020-06-14T17:52:18Z</time>
      </trkpt>
      <trkpt lat="49.56412" lon="-1.81788">
        <ele>48.2</ele>
        <time>2020-06-14T17:52:19Z</time>
      </trkpt>
      <trkpt lat="49.56418" lon="-1.8178">
        <ele>48</ele>
        <time>2020-06-14T17:52:20Z</time>
      </trkpt>
      <trkpt lat="49.56426" lon="-1.81775">
        <ele>47.7</ele>
        <time>2020-06-14T17:52:21Z</time>
      </trkpt>
      <trkpt lat="49.56434" lon="-1.81768">
        <ele>47.3</ele>
        <time>2020-06-14T17:52:22Z</time>
      </trkpt>
      <trkpt lat="49.56442" lon="-1.8176">
        <ele>47</ele>
        <time>2020-06-14T17:52:23Z</time>
      </trkpt>
      <trkpt lat="49.5645" lon="-1.8175">
        <ele>46.6</ele>
        <time>2020-06-14T17:52:24Z</time>
      </trkpt>
      <trkpt lat="49.56457" lon="-1.81742">
        <ele>46.4</ele>
        <time>2020-06-14T17:52:25Z</time>
      </trkpt>
      <trkpt lat="49.56465" lon="-1.81732">
        <ele>46.1</ele>
        <time>2020-06-14T17:52:26Z</time>
      </trkpt>
      <trkpt lat="49.5647" lon="-1.81724">
        <ele>46</ele>
        <time>2020-06-14T17:52:27Z</time>
      </trkpt>
      <trkpt lat="49.56472" lon="-1.81718">
        <ele>45.9</ele>
        <time>2020-06-14T17:52:28Z</time>
      </trkpt>
      <trkpt lat="49.56474" lon="-1.8171">
        <ele>45.8</ele>
        <time>2020-06-14T17:52:29Z</time>
      </trkpt>
      <trkpt lat="49.56475" lon="-1.81704">
        <ele>46</ele>
        <time>2020-06-14T17:52:30Z</time>
      </trkpt>
      <trkpt lat="49.56475" lon="-1.81697">
        <ele>46.3</ele>
        <time>2020-06-14T17:52:31Z</time>
      </trkpt>
      <trkpt lat="49.56474" lon="-1.81692">
        <ele>46.4</ele>
        <time>2020-06-14T17:52:32Z</time>
      </trkpt>
      <trkpt lat="49.56473" lon="-1.81688">
        <ele>46.6</ele>
        <time>2020-06-14T17:52:33Z</time>
      </trkpt>
      <trkpt lat="49.56472" lon="-1.81683">
        <ele>46.7</ele>
        <time>2020-06-14T17:52:34Z</time>
      </trkpt>
      <trkpt lat="49.56471" lon="-1.81677">
        <ele>46.9</ele>
        <time>2020-06-14T17:52:35Z</time>
      </trkpt>
      <trkpt lat="49.56471" lon="-1.8167">
        <ele>47.1</ele>
        <time>2020-06-14T17:52:36Z</time>
      </trkpt>
      <trkpt lat="49.56472" lon="-1.81664">
        <ele>47.3</ele>
        <time>2020-06-14T17:52:37Z</time>
      </trkpt>
      <trkpt lat="49.56471" lon="-1.81659">
        <ele>47.5</ele>
        <time>2020-06-14T17:52:38Z</time>
      </trkpt>
      <trkpt lat="49.56471" lon="-1.81653">
        <ele>47.6</ele>
        <time>2020-06-14T17:52:39Z</time>
      </trkpt>
      <trkpt lat="49.56471" lon="-1.81646">
        <ele>47.8</ele>
        <time>2020-06-14T17:52:40Z</time>
      </trkpt>
      <trkpt lat="49.5647" lon="-1.8164">
        <ele>47.9</ele>
        <time>2020-06-14T17:52:41Z</time>
      </trkpt>
      <trkpt lat="49.5647" lon="-1.81635">
        <ele>48</ele>
        <time>2020-06-14T17:52:42Z</time>
      </trkpt>
      <trkpt lat="49.56462" lon="-1.81629">
        <ele>48.3</ele>
        <time>2020-06-14T17:52:43Z</time>
      </trkpt>
      <trkpt lat="49.56462" lon="-1.81623">
        <ele>48.4</ele>
        <time>2020-06-14T17:52:44Z</time>
      </trkpt>
      <trkpt lat="49.56461" lon="-1.81616">
        <ele>48.6</ele>
        <time>2020-06-14T17:52:45Z</time>
      </trkpt>
      <trkpt lat="49.56461" lon="-1.8161">
        <ele>48.7</ele>
        <time>2020-06-14T17:52:46Z</time>
      </trkpt>
      <trkpt lat="49.56461" lon="-1.81604">
        <ele>48.8</ele>
        <time>2020-06-14T17:52:47Z</time>
      </trkpt>
      <trkpt lat="49.56461" lon="-1.81599">
        <ele>48.9</ele>
        <time>2020-06-14T17:52:48Z</time>
      </trkpt>
      <trkpt lat="49.5646" lon="-1.81594">
        <ele>48.9</ele>
        <time>2020-06-14T17:52:49Z</time>
      </trkpt>
      <trkpt lat="49.5646" lon="-1.81588">
        <ele>49</ele>
        <time>2020-06-14T17:52:50Z</time>
      </trkpt>
      <trkpt lat="49.5646" lon="-1.81583">
        <ele>49.1</ele>
        <time>2020-06-14T17:52:51Z</time>
      </trkpt>
      <trkpt lat="49.56461" lon="-1.81576">
        <ele>49.1</ele>
        <time>2020-06-14T17:52:52Z</time>
      </trkpt>
      <trkpt lat="49.56462" lon="-1.81574">
        <ele>49.1</ele>
        <time>2020-06-14T17:52:53Z</time>
      </trkpt>
      <trkpt lat="49.56461" lon="-1.81567">
        <ele>49</ele>
        <time>2020-06-14T17:52:54Z</time>
      </trkpt>
      <trkpt lat="49.5646" lon="-1.81565">
        <ele>49</ele>
        <time>2020-06-14T17:52:55Z</time>
      </trkpt>
      <trkpt lat="49.5646" lon="-1.81559">
        <ele>48.9</ele>
        <time>2020-06-14T17:52:56Z</time>
      </trkpt>
      <trkpt lat="49.5646" lon="-1.81554">
        <ele>48.8</ele>
        <time>2020-06-14T17:52:57Z</time>
      </trkpt>
      <trkpt lat="49.56461" lon="-1.81549">
        <ele>48.6</ele>
        <time>2020-06-14T17:52:58Z</time>
      </trkpt>
      <trkpt lat="49.56461" lon="-1.81543">
        <ele>48.5</ele>
        <time>2020-06-14T17:52:59Z</time>
      </trkpt>
      <trkpt lat="49.56462" lon="-1.81538">
        <ele>48.3</ele>
        <time>2020-06-14T17:53:00Z</time>
      </trkpt>
      <trkpt lat="49.56463" lon="-1.81532">
        <ele>48.2</ele>
        <time>2020-06-14T17:53:01Z</time>
      </trkpt>
      <trkpt lat="49.56465" lon="-1.81527">
        <ele>48</ele>
        <time>2020-06-14T17:53:02Z</time>
      </trkpt>
      <trkpt lat="49.56469" lon="-1.81521">
        <ele>47.3</ele>
        <time>2020-06-14T17:53:03Z</time>
      </trkpt>
      <trkpt lat="49.56473" lon="-1.81517">
        <ele>47.1</ele>
        <time>2020-06-14T17:53:04Z</time>
      </trkpt>
      <trkpt lat="49.56477" lon="-1.81514">
        <ele>46.9</ele>
        <time>2020-06-14T17:53:05Z</time>
      </trkpt>
      <trkpt lat="49.56481" lon="-1.81512">
        <ele>46.7</ele>
        <time>2020-06-14T17:53:06Z</time>
      </trkpt>
      <trkpt lat="49.56485" lon="-1.81507">
        <ele>46.5</ele>
        <time>2020-06-14T17:53:07Z</time>
      </trkpt>
      <trkpt lat="49.56489" lon="-1.81502">
        <ele>46.3</ele>
        <time>2020-06-14T17:53:08Z</time>
      </trkpt>
      <trkpt lat="49.56492" lon="-1.81495">
        <ele>46.1</ele>
        <time>2020-06-14T17:53:09Z</time>
      </trkpt>
      <trkpt lat="49.56496" lon="-1.81491">
        <ele>46</ele>
        <time>2020-06-14T17:53:10Z</time>
      </trkpt>
      <trkpt lat="49.565" lon="-1.81488">
        <ele>45.8</ele>
        <time>2020-06-14T17:53:11Z</time>
      </trkpt>
      <trkpt lat="49.56505" lon="-1.81484">
        <ele>45.7</ele>
        <time>2020-06-14T17:53:12Z</time>
      </trkpt>
      <trkpt lat="49.56508" lon="-1.81479">
        <ele>45.6</ele>
        <time>2020-06-14T17:53:13Z</time>
      </trkpt>
      <trkpt lat="49.56512" lon="-1.81475">
        <ele>45.5</ele>
        <time>2020-06-14T17:53:14Z</time>
      </trkpt>
      <trkpt lat="49.56515" lon="-1.8147">
        <ele>45.5</ele>
        <time>2020-06-14T17:53:15Z</time>
      </trkpt>
      <trkpt lat="49.56518" lon="-1.81466">
        <ele>45.6</ele>
        <time>2020-06-14T17:53:16Z</time>
      </trkpt>
      <trkpt lat="49.56522" lon="-1.81464">
        <ele>45.7</ele>
        <time>2020-06-14T17:53:17Z</time>
      </trkpt>
      <trkpt lat="49.56523" lon="-1.81459">
        <ele>45.8</ele>
        <time>2020-06-14T17:53:18Z</time>
      </trkpt>
      <trkpt lat="49.56526" lon="-1.81455">
        <ele>45.9</ele>
        <time>2020-06-14T17:53:19Z</time>
      </trkpt>
      <trkpt lat="49.56528" lon="-1.8145">
        <ele>46</ele>
        <time>2020-06-14T17:53:20Z</time>
      </trkpt>
      <trkpt lat="49.5653" lon="-1.81445">
        <ele>46.2</ele>
        <time>2020-06-14T17:53:21Z</time>
      </trkpt>
      <trkpt lat="49.56532" lon="-1.81441">
        <ele>46.3</ele>
        <time>2020-06-14T17:53:22Z</time>
      </trkpt>
      <trkpt lat="49.56533" lon="-1.81437">
        <ele>46.4</ele>
        <time>2020-06-14T17:53:23Z</time>
      </trkpt>
      <trkpt lat="49.56533" lon="-1.81433">
        <ele>46.5</ele>
        <time>2020-06-14T17:53:24Z</time>
      </trkpt>
      <trkpt lat="49.56535" lon="-1.81428">
        <ele>46.7</ele>
        <time>2020-06-14T17:53:25Z</time>
      </trkpt>
      <trkpt lat="49.56536" lon="-1.81426">
        <ele>46.8</ele>
        <time>2020-06-14T17:53:26Z</time>
      </trkpt>
      <trkpt lat="49.56536" lon="-1.81418">
        <ele>47.1</ele>
        <time>2020-06-14T17:53:27Z</time>
      </trkpt>
      <trkpt lat="49.56535" lon="-1.81415">
        <ele>47.2</ele>
        <time>2020-06-14T17:53:28Z</time>
      </trkpt>
      <trkpt lat="49.56536" lon="-1.8141">
        <ele>47.4</ele>
        <time>2020-06-14T17:53:29Z</time>
      </trkpt>
      <trkpt lat="49.56538" lon="-1.81406">
        <ele>47.6</ele>
        <time>2020-06-14T17:53:30Z</time>
      </trkpt>
      <trkpt lat="49.56538" lon="-1.81402">
        <ele>47.8</ele>
        <time>2020-06-14T17:53:31Z</time>
      </trkpt>
      <trkpt lat="49.5654" lon="-1.81396">
        <ele>48.1</ele>
        <time>2020-06-14T17:53:32Z</time>
      </trkpt>
      <trkpt lat="49.56541" lon="-1.81395">
        <ele>48.1</ele>
        <time>2020-06-14T17:53:33Z</time>
      </trkpt>
      <trkpt lat="49.56543" lon="-1.8139">
        <ele>48.4</ele>
        <time>2020-06-14T17:53:34Z</time>
      </trkpt>
      <trkpt lat="49.56544" lon="-1.81388">
        <ele>48.5</ele>
        <time>2020-06-14T17:53:35Z</time>
      </trkpt>
      <trkpt lat="49.56546" lon="-1.81384">
        <ele>48.7</ele>
        <time>2020-06-14T17:53:36Z</time>
      </trkpt>
      <trkpt lat="49.56547" lon="-1.8138">
        <ele>49</ele>
        <time>2020-06-14T17:53:37Z</time>
      </trkpt>
      <trkpt lat="49.56549" lon="-1.81376">
        <ele>49.2</ele>
        <time>2020-06-14T17:53:38Z</time>
      </trkpt>
      <trkpt lat="49.5655" lon="-1.81372">
        <ele>49.4</ele>
        <time>2020-06-14T17:53:39Z</time>
      </trkpt>
      <trkpt lat="49.56553" lon="-1.81367">
        <ele>49.8</ele>
        <time>2020-06-14T17:53:40Z</time>
      </trkpt>
      <trkpt lat="49.56553" lon="-1.81365">
        <ele>49.9</ele>
        <time>2020-06-14T17:53:41Z</time>
      </trkpt>
      <trkpt lat="49.56555" lon="-1.8136">
        <ele>50.2</ele>
        <time>2020-06-14T17:53:42Z</time>
      </trkpt>
      <trkpt lat="49.56556" lon="-1.81358">
        <ele>50.3</ele>
        <time>2020-06-14T17:53:43Z</time>
      </trkpt>
      <trkpt lat="49.56558" lon="-1.81354">
        <ele>50.6</ele>
        <time>2020-06-14T17:53:44Z</time>
      </trkpt>
      <trkpt lat="49.56559" lon="-1.8135">
        <ele>50.9</ele>
        <time>2020-06-14T17:53:45Z</time>
      </trkpt>
      <trkpt lat="49.56561" lon="-1.81346">
        <ele>51.1</ele>
        <time>2020-06-14T17:53:46Z</time>
      </trkpt>
      <trkpt lat="49.56562" lon="-1.81342">
        <ele>51.4</ele>
        <time>2020-06-14T17:53:47Z</time>
      </trkpt>
      <trkpt lat="49.56565" lon="-1.81338">
        <ele>51.7</ele>
        <time>2020-06-14T17:53:48Z</time>
      </trkpt>
      <trkpt lat="49.56565" lon="-1.81336">
        <ele>51.8</ele>
        <time>2020-06-14T17:53:49Z</time>
      </trkpt>
      <trkpt lat="49.56567" lon="-1.81331">
        <ele>52.1</ele>
        <time>2020-06-14T17:53:50Z</time>
      </trkpt>
      <trkpt lat="49.56568" lon="-1.8133">
        <ele>52.2</ele>
        <time>2020-06-14T17:53:51Z</time>
      </trkpt>
      <trkpt lat="49.56569" lon="-1.81324">
        <ele>52.5</ele>
        <time>2020-06-14T17:53:52Z</time>
      </trkpt>
      <trkpt lat="49.5657" lon="-1.81323">
        <ele>52.7</ele>
        <time>2020-06-14T17:53:53Z</time>
      </trkpt>
      <trkpt lat="49.56572" lon="-1.81318">
        <ele>53</ele>
        <time>2020-06-14T17:53:54Z</time>
      </trkpt>
      <trkpt lat="49.56572" lon="-1.81316">
        <ele>53.1</ele>
        <time>2020-06-14T17:53:55Z</time>
      </trkpt>
      <trkpt lat="49.56574" lon="-1.81312">
        <ele>53.3</ele>
        <time>2020-06-14T17:53:56Z</time>
      </trkpt>
      <trkpt lat="49.56576" lon="-1.81307">
        <ele>53.7</ele>
        <time>2020-06-14T17:53:57Z</time>
      </trkpt>
      <trkpt lat="49.56576" lon="-1.81305">
        <ele>53.8</ele>
        <time>2020-06-14T17:53:58Z</time>
      </trkpt>
      <trkpt lat="49.56578" lon="-1.81302">
        <ele>54</ele>
        <time>2020-06-14T17:53:59Z</time>
      </trkpt>
      <trkpt lat="49.5658" lon="-1.81298">
        <ele>54.3</ele>
        <time>2020-06-14T17:54:00Z</time>
      </trkpt>
      <trkpt lat="49.56582" lon="-1.81294">
        <ele>54.5</ele>
        <time>2020-06-14T17:54:01Z</time>
      </trkpt>
      <trkpt lat="49.56583" lon="-1.8129">
        <ele>54.7</ele>
        <time>2020-06-14T17:54:02Z</time>
      </trkpt>
      <trkpt lat="49.56585" lon="-1.81284">
        <ele>55</ele>
        <time>2020-06-14T17:54:03Z</time>
      </trkpt>
      <trkpt lat="49.56586" lon="-1.81282">
        <ele>55.1</ele>
        <time>2020-06-14T17:54:04Z</time>
      </trkpt>
      <trkpt lat="49.56587" lon="-1.81278">
        <ele>55.3</ele>
        <time>2020-06-14T17:54:05Z</time>
      </trkpt>
      <trkpt lat="49.56589" lon="-1.81273">
        <ele>55.5</ele>
        <time>2020-06-14T17:54:06Z</time>
      </trkpt>
      <trkpt lat="49.5659" lon="-1.81271">
        <ele>55.6</ele>
        <time>2020-06-14T17:54:07Z</time>
      </trkpt>
      <trkpt lat="49.56592" lon="-1.81267">
        <ele>55.8</ele>
        <time>2020-06-14T17:54:08Z</time>
      </trkpt>
      <trkpt lat="49.56593" lon="-1.81265">
        <ele>55.9</ele>
        <time>2020-06-14T17:54:09Z</time>
      </trkpt>
      <trkpt lat="49.56595" lon="-1.8126">
        <ele>56.1</ele>
        <time>2020-06-14T17:54:10Z</time>
      </trkpt>
      <trkpt lat="49.56596" lon="-1.81257">
        <ele>56.3</ele>
        <time>2020-06-14T17:54:11Z</time>
      </trkpt>
      <trkpt lat="49.56597" lon="-1.81252">
        <ele>56.5</ele>
        <time>2020-06-14T17:54:12Z</time>
      </trkpt>
      <trkpt lat="49.56599" lon="-1.81248">
        <ele>56.7</ele>
        <time>2020-06-14T17:54:13Z</time>
      </trkpt>
      <trkpt lat="49.56601" lon="-1.81243">
        <ele>57</ele>
        <time>2020-06-14T17:54:14Z</time>
      </trkpt>
      <trkpt lat="49.56602" lon="-1.81241">
        <ele>57.1</ele>
        <time>2020-06-14T17:54:15Z</time>
      </trkpt>
      <trkpt lat="49.56604" lon="-1.81237">
        <ele>57.3</ele>
        <time>2020-06-14T17:54:16Z</time>
      </trkpt>
      <trkpt lat="49.56605" lon="-1.81235">
        <ele>57.4</ele>
        <time>2020-06-14T17:54:17Z</time>
      </trkpt>
      <trkpt lat="49.56606" lon="-1.81231">
        <ele>57.6</ele>
        <time>2020-06-14T17:54:18Z</time>
      </trkpt>
      <trkpt lat="49.56608" lon="-1.81228">
        <ele>57.8</ele>
        <time>2020-06-14T17:54:19Z</time>
      </trkpt>
      <trkpt lat="49.5661" lon="-1.81223">
        <ele>58.1</ele>
        <time>2020-06-14T17:54:20Z</time>
      </trkpt>
      <trkpt lat="49.5661" lon="-1.81221">
        <ele>58.1</ele>
        <time>2020-06-14T17:54:21Z</time>
      </trkpt>
      <trkpt lat="49.56612" lon="-1.81216">
        <ele>58.4</ele>
        <time>2020-06-14T17:54:22Z</time>
      </trkpt>
      <trkpt lat="49.56613" lon="-1.81215">
        <ele>58.5</ele>
        <time>2020-06-14T17:54:23Z</time>
      </trkpt>
      <trkpt lat="49.56614" lon="-1.81211">
        <ele>58.7</ele>
        <time>2020-06-14T17:54:24Z</time>
      </trkpt>
      <trkpt lat="49.56615" lon="-1.81209">
        <ele>58.8</ele>
        <time>2020-06-14T17:54:25Z</time>
      </trkpt>
      <trkpt lat="49.56616" lon="-1.81205">
        <ele>59</ele>
        <time>2020-06-14T17:54:26Z</time>
      </trkpt>
      <trkpt lat="49.56617" lon="-1.81201">
        <ele>59.2</ele>
        <time>2020-06-14T17:54:27Z</time>
      </trkpt>
      <trkpt lat="49.56619" lon="-1.81197">
        <ele>59.4</ele>
        <time>2020-06-14T17:54:28Z</time>
      </trkpt>
      <trkpt lat="49.56621" lon="-1.81191">
        <ele>59.7</ele>
        <time>2020-06-14T17:54:29Z</time>
      </trkpt>
      <trkpt lat="49.56622" lon="-1.8119">
        <ele>59.8</ele>
        <time>2020-06-14T17:54:30Z</time>
      </trkpt>
      <trkpt lat="49.56623" lon="-1.81186">
        <ele>60</ele>
        <time>2020-06-14T17:54:31Z</time>
      </trkpt>
      <trkpt lat="49.56624" lon="-1.81182">
        <ele>60.2</ele>
        <time>2020-06-14T17:54:32Z</time>
      </trkpt>
      <trkpt lat="49.56626" lon="-1.81178">
        <ele>60.4</ele>
        <time>2020-06-14T17:54:33Z</time>
      </trkpt>
      <trkpt lat="49.56627" lon="-1.81174">
        <ele>60.6</ele>
        <time>2020-06-14T17:54:34Z</time>
      </trkpt>
      <trkpt lat="49.56629" lon="-1.81169">
        <ele>60.8</ele>
        <time>2020-06-14T17:54:35Z</time>
      </trkpt>
      <trkpt lat="49.5663" lon="-1.81167">
        <ele>60.9</ele>
        <time>2020-06-14T17:54:36Z</time>
      </trkpt>
      <trkpt lat="49.56631" lon="-1.81162">
        <ele>61.2</ele>
        <time>2020-06-14T17:54:37Z</time>
      </trkpt>
      <trkpt lat="49.56632" lon="-1.8116">
        <ele>61.3</ele>
        <time>2020-06-14T17:54:38Z</time>
      </trkpt>
      <trkpt lat="49.56634" lon="-1.81155">
        <ele>61.6</ele>
        <time>2020-06-14T17:54:39Z</time>
      </trkpt>
      <trkpt lat="49.56634" lon="-1.81153">
        <ele>61.7</ele>
        <time>2020-06-14T17:54:40Z</time>
      </trkpt>
      <trkpt lat="49.56636" lon="-1.8115">
        <ele>61.9</ele>
        <time>2020-06-14T17:54:41Z</time>
      </trkpt>
      <trkpt lat="49.56637" lon="-1.81145">
        <ele>62.1</ele>
        <time>2020-06-14T17:54:42Z</time>
      </trkpt>
      <trkpt lat="49.56638" lon="-1.81141">
        <ele>62.3</ele>
        <time>2020-06-14T17:54:43Z</time>
      </trkpt>
      <trkpt lat="49.56639" lon="-1.81137">
        <ele>62.5</ele>
        <time>2020-06-14T17:54:44Z</time>
      </trkpt>
      <trkpt lat="49.5664" lon="-1.81131">
        <ele>62.7</ele>
        <time>2020-06-14T17:54:45Z</time>
      </trkpt>
      <trkpt lat="49.56641" lon="-1.81129">
        <ele>62.8</ele>
        <time>2020-06-14T17:54:46Z</time>
      </trkpt>
      <trkpt lat="49.56643" lon="-1.81124">
        <ele>63.1</ele>
        <time>2020-06-14T17:54:47Z</time>
      </trkpt>
      <trkpt lat="49.56643" lon="-1.81122">
        <ele>63.2</ele>
        <time>2020-06-14T17:54:48Z</time>
      </trkpt>
      <trkpt lat="49.56644" lon="-1.81118">
        <ele>63.3</ele>
        <time>2020-06-14T17:54:49Z</time>
      </trkpt>
      <trkpt lat="49.56645" lon="-1.81114">
        <ele>63.5</ele>
        <time>2020-06-14T17:54:50Z</time>
      </trkpt>
      <trkpt lat="49.56647" lon="-1.8111">
        <ele>63.7</ele>
        <time>2020-06-14T17:54:51Z</time>
      </trkpt>
      <trkpt lat="49.56649" lon="-1.81105">
        <ele>63.9</ele>
        <time>2020-06-14T17:54:52Z</time>
      </trkpt>
      <trkpt lat="49.56649" lon="-1.81103">
        <ele>64</ele>
        <time>2020-06-14T17:54:53Z</time>
      </trkpt>
      <trkpt lat="49.56651" lon="-1.81097">
        <ele>64.3</ele>
        <time>2020-06-14T17:54:54Z</time>
      </trkpt>
      <trkpt lat="49.56652" lon="-1.81095">
        <ele>64.4</ele>
        <time>2020-06-14T17:54:55Z</time>
      </trkpt>
      <trkpt lat="49.56654" lon="-1.81091">
        <ele>64.6</ele>
        <time>2020-06-14T17:54:56Z</time>
      </trkpt>
      <trkpt lat="49.56655" lon="-1.81087">
        <ele>64.8</ele>
        <time>2020-06-14T17:54:57Z</time>
      </trkpt>
      <trkpt lat="49.56657" lon="-1.81081">
        <ele>65</ele>
        <time>2020-06-14T17:54:58Z</time>
      </trkpt>
      <trkpt lat="49.56658" lon="-1.81079">
        <ele>65.1</ele>
        <time>2020-06-14T17:54:59Z</time>
      </trkpt>
      <trkpt lat="49.56659" lon="-1.81075">
        <ele>65.3</ele>
        <time>2020-06-14T17:55:00Z</time>
      </trkpt>
      <trkpt lat="49.5666" lon="-1.8107">
        <ele>65.5</ele>
        <time>2020-06-14T17:55:01Z</time>
      </trkpt>
      <trkpt lat="49.56661" lon="-1.81066">
        <ele>65.7</ele>
        <time>2020-06-14T17:55:02Z</time>
      </trkpt>
      <trkpt lat="49.56662" lon="-1.8106">
        <ele>65.9</ele>
        <time>2020-06-14T17:55:03Z</time>
      </trkpt>
      <trkpt lat="49.56663" lon="-1.81058">
        <ele>66</ele>
        <time>2020-06-14T17:55:04Z</time>
      </trkpt>
      <trkpt lat="49.56664" lon="-1.81054">
        <ele>66.1</ele>
        <time>2020-06-14T17:55:05Z</time>
      </trkpt>
      <trkpt lat="49.56666" lon="-1.8105">
        <ele>66.3</ele>
        <time>2020-06-14T17:55:06Z</time>
      </trkpt>
      <trkpt lat="49.56666" lon="-1.81048">
        <ele>66.4</ele>
        <time>2020-06-14T17:55:07Z</time>
      </trkpt>
      <trkpt lat="49.56667" lon="-1.81044">
        <ele>66.5</ele>
        <time>2020-06-14T17:55:08Z</time>
      </trkpt>
      <trkpt lat="49.56668" lon="-1.8104">
        <ele>66.6</ele>
        <time>2020-06-14T17:55:09Z</time>
      </trkpt>
      <trkpt lat="49.56669" lon="-1.81034">
        <ele>66.8</ele>
        <time>2020-06-14T17:55:10Z</time>
      </trkpt>
      <trkpt lat="49.5667" lon="-1.81032">
        <ele>66.8</ele>
        <time>2020-06-14T17:55:11Z</time>
      </trkpt>
      <trkpt lat="49.56671" lon="-1.81028">
        <ele>66.9</ele>
        <time>2020-06-14T17:55:12Z</time>
      </trkpt>
      <trkpt lat="49.56673" lon="-1.81024">
        <ele>66.9</ele>
        <time>2020-06-14T17:55:13Z</time>
      </trkpt>
      <trkpt lat="49.56674" lon="-1.81019">
        <ele>66.9</ele>
        <time>2020-06-14T17:55:14Z</time>
      </trkpt>
      <trkpt lat="49.56674" lon="-1.81017">
        <ele>66.9</ele>
        <time>2020-06-14T17:55:15Z</time>
      </trkpt>
      <trkpt lat="49.56675" lon="-1.81012">
        <ele>66.8</ele>
        <time>2020-06-14T17:55:16Z</time>
      </trkpt>
      <trkpt lat="49.56675" lon="-1.8101">
        <ele>66.8</ele>
        <time>2020-06-14T17:55:17Z</time>
      </trkpt>
      <trkpt lat="49.56676" lon="-1.81006">
        <ele>67.2</ele>
        <time>2020-06-14T17:55:18Z</time>
      </trkpt>
      <trkpt lat="49.56677" lon="-1.81002">
        <ele>67.5</ele>
        <time>2020-06-14T17:55:19Z</time>
      </trkpt>
      <trkpt lat="49.56677" lon="-1.80997">
        <ele>67.8</ele>
        <time>2020-06-14T17:55:20Z</time>
      </trkpt>
      <trkpt lat="49.56678" lon="-1.80993">
        <ele>68</ele>
        <time>2020-06-14T17:55:21Z</time>
      </trkpt>
      <trkpt lat="49.56679" lon="-1.80988">
        <ele>68.3</ele>
        <time>2020-06-14T17:55:22Z</time>
      </trkpt>
      <trkpt lat="49.5668" lon="-1.80984">
        <ele>68.5</ele>
        <time>2020-06-14T17:55:23Z</time>
      </trkpt>
      <trkpt lat="49.56681" lon="-1.80979">
        <ele>68.7</ele>
        <time>2020-06-14T17:55:24Z</time>
      </trkpt>
      <trkpt lat="49.56682" lon="-1.80975">
        <ele>68.8</ele>
        <time>2020-06-14T17:55:25Z</time>
      </trkpt>
      <trkpt lat="49.56683" lon="-1.80971">
        <ele>69</ele>
        <time>2020-06-14T17:55:26Z</time>
      </trkpt>
      <trkpt lat="49.56684" lon="-1.80966">
        <ele>69.1</ele>
        <time>2020-06-14T17:55:27Z</time>
      </trkpt>
      <trkpt lat="49.56685" lon="-1.80961">
        <ele>69.3</ele>
        <time>2020-06-14T17:55:28Z</time>
      </trkpt>
      <trkpt lat="49.56686" lon="-1.80956">
        <ele>69.4</ele>
        <time>2020-06-14T17:55:29Z</time>
      </trkpt>
      <trkpt lat="49.56687" lon="-1.80954">
        <ele>69.5</ele>
        <time>2020-06-14T17:55:30Z</time>
      </trkpt>
      <trkpt lat="49.56687" lon="-1.80948">
        <ele>69.6</ele>
        <time>2020-06-14T17:55:31Z</time>
      </trkpt>
      <trkpt lat="49.56688" lon="-1.80946">
        <ele>69.7</ele>
        <time>2020-06-14T17:55:32Z</time>
      </trkpt>
      <trkpt lat="49.56688" lon="-1.80942">
        <ele>69.8</ele>
        <time>2020-06-14T17:55:33Z</time>
      </trkpt>
      <trkpt lat="49.56689" lon="-1.80937">
        <ele>69.9</ele>
        <time>2020-06-14T17:55:34Z</time>
      </trkpt>
      <trkpt lat="49.5669" lon="-1.80932">
        <ele>70.2</ele>
        <time>2020-06-14T17:55:35Z</time>
      </trkpt>
      <trkpt lat="49.5669" lon="-1.8093">
        <ele>70.2</ele>
        <time>2020-06-14T17:55:36Z</time>
      </trkpt>
      <trkpt lat="49.56691" lon="-1.80925">
        <ele>70.4</ele>
        <time>2020-06-14T17:55:37Z</time>
      </trkpt>
      <trkpt lat="49.56692" lon="-1.80921">
        <ele>70.5</ele>
        <time>2020-06-14T17:55:38Z</time>
      </trkpt>
      <trkpt lat="49.56692" lon="-1.80917">
        <ele>70.7</ele>
        <time>2020-06-14T17:55:39Z</time>
      </trkpt>
      <trkpt lat="49.56692" lon="-1.80912">
        <ele>70.8</ele>
        <time>2020-06-14T17:55:40Z</time>
      </trkpt>
      <trkpt lat="49.56693" lon="-1.80907">
        <ele>71</ele>
        <time>2020-06-14T17:55:41Z</time>
      </trkpt>
      <trkpt lat="49.56694" lon="-1.80902">
        <ele>71.1</ele>
        <time>2020-06-14T17:55:42Z</time>
      </trkpt>
      <trkpt lat="49.56694" lon="-1.80898">
        <ele>71.3</ele>
        <time>2020-06-14T17:55:43Z</time>
      </trkpt>
      <trkpt lat="49.56695" lon="-1.80892">
        <ele>71.5</ele>
        <time>2020-06-14T17:55:44Z</time>
      </trkpt>
      <trkpt lat="49.56695" lon="-1.80889">
        <ele>71.6</ele>
        <time>2020-06-14T17:55:45Z</time>
      </trkpt>
      <trkpt lat="49.56696" lon="-1.80885">
        <ele>71.7</ele>
        <time>2020-06-14T17:55:46Z</time>
      </trkpt>
      <trkpt lat="49.56697" lon="-1.80881">
        <ele>71.9</ele>
        <time>2020-06-14T17:55:47Z</time>
      </trkpt>
      <trkpt lat="49.56698" lon="-1.80876">
        <ele>72.1</ele>
        <time>2020-06-14T17:55:48Z</time>
      </trkpt>
      <trkpt lat="49.56698" lon="-1.80871">
        <ele>72.3</ele>
        <time>2020-06-14T17:55:49Z</time>
      </trkpt>
      <trkpt lat="49.56699" lon="-1.80866">
        <ele>72.5</ele>
        <time>2020-06-14T17:55:50Z</time>
      </trkpt>
      <trkpt lat="49.567" lon="-1.80861">
        <ele>72.7</ele>
        <time>2020-06-14T17:55:51Z</time>
      </trkpt>
      <trkpt lat="49.56701" lon="-1.80857">
        <ele>72.8</ele>
        <time>2020-06-14T17:55:52Z</time>
      </trkpt>
      <trkpt lat="49.56702" lon="-1.80852">
        <ele>73</ele>
        <time>2020-06-14T17:55:53Z</time>
      </trkpt>
      <trkpt lat="49.56703" lon="-1.80847">
        <ele>73.2</ele>
        <time>2020-06-14T17:55:54Z</time>
      </trkpt>
      <trkpt lat="49.56704" lon="-1.80842">
        <ele>73.3</ele>
        <time>2020-06-14T17:55:55Z</time>
      </trkpt>
      <trkpt lat="49.56705" lon="-1.80837">
        <ele>73.5</ele>
        <time>2020-06-14T17:55:56Z</time>
      </trkpt>
      <trkpt lat="49.56706" lon="-1.80831">
        <ele>73.8</ele>
        <time>2020-06-14T17:55:57Z</time>
      </trkpt>
      <trkpt lat="49.56708" lon="-1.80826">
        <ele>74</ele>
        <time>2020-06-14T17:55:58Z</time>
      </trkpt>
      <trkpt lat="49.56708" lon="-1.80821">
        <ele>74.2</ele>
        <time>2020-06-14T17:55:59Z</time>
      </trkpt>
      <trkpt lat="49.56709" lon="-1.80816">
        <ele>74.3</ele>
        <time>2020-06-14T17:56:00Z</time>
      </trkpt>
      <trkpt lat="49.5671" lon="-1.80812">
        <ele>74.5</ele>
        <time>2020-06-14T17:56:01Z</time>
      </trkpt>
      <trkpt lat="49.56711" lon="-1.80807">
        <ele>74.7</ele>
        <time>2020-06-14T17:56:02Z</time>
      </trkpt>
      <trkpt lat="49.56711" lon="-1.80802">
        <ele>74.8</ele>
        <time>2020-06-14T17:56:03Z</time>
      </trkpt>
      <trkpt lat="49.56711" lon="-1.80795">
        <ele>75</ele>
        <time>2020-06-14T17:56:04Z</time>
      </trkpt>
      <trkpt lat="49.56711" lon="-1.80793">
        <ele>75.1</ele>
        <time>2020-06-14T17:56:05Z</time>
      </trkpt>
      <trkpt lat="49.56711" lon="-1.80788">
        <ele>75.2</ele>
        <time>2020-06-14T17:56:06Z</time>
      </trkpt>
      <trkpt lat="49.56712" lon="-1.80782">
        <ele>75.4</ele>
        <time>2020-06-14T17:56:07Z</time>
      </trkpt>
      <trkpt lat="49.56712" lon="-1.80777">
        <ele>75.6</ele>
        <time>2020-06-14T17:56:08Z</time>
      </trkpt>
      <trkpt lat="49.56712" lon="-1.80771">
        <ele>75.9</ele>
        <time>2020-06-14T17:56:09Z</time>
      </trkpt>
      <trkpt lat="49.56714" lon="-1.80767">
        <ele>76.1</ele>
        <time>2020-06-14T17:56:10Z</time>
      </trkpt>
      <trkpt lat="49.56714" lon="-1.8076">
        <ele>76.3</ele>
        <time>2020-06-14T17:56:11Z</time>
      </trkpt>
      <trkpt lat="49.56714" lon="-1.80757">
        <ele>76.4</ele>
        <time>2020-06-14T17:56:12Z</time>
      </trkpt>
      <trkpt lat="49.56714" lon="-1.80752">
        <ele>76.6</ele>
        <time>2020-06-14T17:56:13Z</time>
      </trkpt>
      <trkpt lat="49.56715" lon="-1.80748">
        <ele>76.7</ele>
        <time>2020-06-14T17:56:14Z</time>
      </trkpt>
      <trkpt lat="49.56716" lon="-1.80743">
        <ele>76.9</ele>
        <time>2020-06-14T17:56:15Z</time>
      </trkpt>
      <trkpt lat="49.56717" lon="-1.80738">
        <ele>77</ele>
        <time>2020-06-14T17:56:16Z</time>
      </trkpt>
      <trkpt lat="49.56717" lon="-1.80732">
        <ele>77.1</ele>
        <time>2020-06-14T17:56:17Z</time>
      </trkpt>
      <trkpt lat="49.56717" lon="-1.80727">
        <ele>77.3</ele>
        <time>2020-06-14T17:56:18Z</time>
      </trkpt>
      <trkpt lat="49.56717" lon="-1.80722">
        <ele>77.4</ele>
        <time>2020-06-14T17:56:19Z</time>
      </trkpt>
      <trkpt lat="49.56718" lon="-1.80717">
        <ele>77.5</ele>
        <time>2020-06-14T17:56:20Z</time>
      </trkpt>
      <trkpt lat="49.56718" lon="-1.80711">
        <ele>77.7</ele>
        <time>2020-06-14T17:56:21Z</time>
      </trkpt>
      <trkpt lat="49.56718" lon="-1.80705">
        <ele>77.9</ele>
        <time>2020-06-14T17:56:22Z</time>
      </trkpt>
      <trkpt lat="49.56718" lon="-1.807">
        <ele>78</ele>
        <time>2020-06-14T17:56:23Z</time>
      </trkpt>
      <trkpt lat="49.56718" lon="-1.80695">
        <ele>78.1</ele>
        <time>2020-06-14T17:56:24Z</time>
      </trkpt>
      <trkpt lat="49.56718" lon="-1.8069">
        <ele>78.2</ele>
        <time>2020-06-14T17:56:25Z</time>
      </trkpt>
      <trkpt lat="49.56719" lon="-1.80685">
        <ele>78.3</ele>
        <time>2020-06-14T17:56:26Z</time>
      </trkpt>
      <trkpt lat="49.56719" lon="-1.8068">
        <ele>78.4</ele>
        <time>2020-06-14T17:56:27Z</time>
      </trkpt>
      <trkpt lat="49.56721" lon="-1.80676">
        <ele>78.5</ele>
        <time>2020-06-14T17:56:28Z</time>
      </trkpt>
      <trkpt lat="49.56721" lon="-1.80671">
        <ele>78.6</ele>
        <time>2020-06-14T17:56:29Z</time>
      </trkpt>
      <trkpt lat="49.56721" lon="-1.80666">
        <ele>78.7</ele>
        <time>2020-06-14T17:56:30Z</time>
      </trkpt>
      <trkpt lat="49.56722" lon="-1.8066">
        <ele>78.8</ele>
        <time>2020-06-14T17:56:31Z</time>
      </trkpt>
      <trkpt lat="49.56722" lon="-1.80655">
        <ele>79</ele>
        <time>2020-06-14T17:56:32Z</time>
      </trkpt>
      <trkpt lat="49.56722" lon="-1.80649">
        <ele>79.1</ele>
        <time>2020-06-14T17:56:33Z</time>
      </trkpt>
      <trkpt lat="49.56722" lon="-1.80643">
        <ele>79.3</ele>
        <time>2020-06-14T17:56:34Z</time>
      </trkpt>
      <trkpt lat="49.56724" lon="-1.80638">
        <ele>79.4</ele>
        <time>2020-06-14T17:56:35Z</time>
      </trkpt>
      <trkpt lat="49.56725" lon="-1.80632">
        <ele>79.6</ele>
        <time>2020-06-14T17:56:36Z</time>
      </trkpt>
      <trkpt lat="49.56726" lon="-1.80628">
        <ele>79.7</ele>
        <time>2020-06-14T17:56:37Z</time>
      </trkpt>
      <trkpt lat="49.56726" lon="-1.80623">
        <ele>79.8</ele>
        <time>2020-06-14T17:56:38Z</time>
      </trkpt>
      <trkpt lat="49.56728" lon="-1.80618">
        <ele>79.9</ele>
        <time>2020-06-14T17:56:39Z</time>
      </trkpt>
      <trkpt lat="49.56729" lon="-1.80612">
        <ele>80.1</ele>
        <time>2020-06-14T17:56:40Z</time>
      </trkpt>
      <trkpt lat="49.56731" lon="-1.80608">
        <ele>80.2</ele>
        <time>2020-06-14T17:56:41Z</time>
      </trkpt>
      <trkpt lat="49.56732" lon="-1.80602">
        <ele>80.3</ele>
        <time>2020-06-14T17:56:42Z</time>
      </trkpt>
      <trkpt lat="49.56733" lon="-1.80597">
        <ele>80.4</ele>
        <time>2020-06-14T17:56:43Z</time>
      </trkpt>
      <trkpt lat="49.56734" lon="-1.80592">
        <ele>80.6</ele>
        <time>2020-06-14T17:56:44Z</time>
      </trkpt>
      <trkpt lat="49.56735" lon="-1.80587">
        <ele>80.7</ele>
        <time>2020-06-14T17:56:45Z</time>
      </trkpt>
      <trkpt lat="49.56735" lon="-1.80582">
        <ele>80.9</ele>
        <time>2020-06-14T17:56:46Z</time>
      </trkpt>
      <trkpt lat="49.56736" lon="-1.80577">
        <ele>81</ele>
        <time>2020-06-14T17:56:47Z</time>
      </trkpt>
      <trkpt lat="49.56736" lon="-1.80572">
        <ele>81.2</ele>
        <time>2020-06-14T17:56:48Z</time>
      </trkpt>
      <trkpt lat="49.56736" lon="-1.80567">
        <ele>81.3</ele>
        <time>2020-06-14T17:56:49Z</time>
      </trkpt>
      <trkpt lat="49.56736" lon="-1.80561">
        <ele>81.4</ele>
        <time>2020-06-14T17:56:50Z</time>
      </trkpt>
      <trkpt lat="49.56737" lon="-1.80555">
        <ele>81.5</ele>
        <time>2020-06-14T17:56:51Z</time>
      </trkpt>
      <trkpt lat="49.56738" lon="-1.80549">
        <ele>81.7</ele>
        <time>2020-06-14T17:56:52Z</time>
      </trkpt>
      <trkpt lat="49.56739" lon="-1.80545">
        <ele>81.8</ele>
        <time>2020-06-14T17:56:53Z</time>
      </trkpt>
      <trkpt lat="49.5674" lon="-1.80539">
        <ele>81.9</ele>
        <time>2020-06-14T17:56:54Z</time>
      </trkpt>
      <trkpt lat="49.5674" lon="-1.80534">
        <ele>82.1</ele>
        <time>2020-06-14T17:56:55Z</time>
      </trkpt>
      <trkpt lat="49.56741" lon="-1.80528">
        <ele>82.2</ele>
        <time>2020-06-14T17:56:56Z</time>
      </trkpt>
      <trkpt lat="49.56742" lon="-1.80523">
        <ele>82.3</ele>
        <time>2020-06-14T17:56:57Z</time>
      </trkpt>
      <trkpt lat="49.56743" lon="-1.80518">
        <ele>82.4</ele>
        <time>2020-06-14T17:56:58Z</time>
      </trkpt>
      <trkpt lat="49.56745" lon="-1.80514">
        <ele>82.4</ele>
        <time>2020-06-14T17:56:59Z</time>
      </trkpt>
      <trkpt lat="49.56746" lon="-1.80509">
        <ele>82.4</ele>
        <time>2020-06-14T17:57:00Z</time>
      </trkpt>
      <trkpt lat="49.56748" lon="-1.80503">
        <ele>82.5</ele>
        <time>2020-06-14T17:57:01Z</time>
      </trkpt>
      <trkpt lat="49.56749" lon="-1.80498">
        <ele>82.5</ele>
        <time>2020-06-14T17:57:02Z</time>
      </trkpt>
      <trkpt lat="49.56751" lon="-1.80492">
        <ele>82.5</ele>
        <time>2020-06-14T17:57:03Z</time>
      </trkpt>
      <trkpt lat="49.56753" lon="-1.80486">
        <ele>82.4</ele>
        <time>2020-06-14T17:57:04Z</time>
      </trkpt>
      <trkpt lat="49.56755" lon="-1.80479">
        <ele>82.4</ele>
        <time>2020-06-14T17:57:05Z</time>
      </trkpt>
      <trkpt lat="49.56757" lon="-1.80473">
        <ele>82.3</ele>
        <time>2020-06-14T17:57:06Z</time>
      </trkpt>
      <trkpt lat="49.56759" lon="-1.80466">
        <ele>82.3</ele>
        <time>2020-06-14T17:57:07Z</time>
      </trkpt>
      <trkpt lat="49.56761" lon="-1.80458">
        <ele>82.2</ele>
        <time>2020-06-14T17:57:08Z</time>
      </trkpt>
      <trkpt lat="49.56762" lon="-1.80451">
        <ele>82.2</ele>
        <time>2020-06-14T17:57:09Z</time>
      </trkpt>
      <trkpt lat="49.56765" lon="-1.80444">
        <ele>82.2</ele>
        <time>2020-06-14T17:57:10Z</time>
      </trkpt>
      <trkpt lat="49.56766" lon="-1.80436">
        <ele>82.1</ele>
        <time>2020-06-14T17:57:11Z</time>
      </trkpt>
      <trkpt lat="49.56769" lon="-1.80428">
        <ele>82.1</ele>
        <time>2020-06-14T17:57:12Z</time>
      </trkpt>
      <trkpt lat="49.56771" lon="-1.80421">
        <ele>82.1</ele>
        <time>2020-06-14T17:57:13Z</time>
      </trkpt>
      <trkpt lat="49.56772" lon="-1.80414">
        <ele>82</ele>
        <time>2020-06-14T17:57:14Z</time>
      </trkpt>
      <trkpt lat="49.56774" lon="-1.80407">
        <ele>82</ele>
        <time>2020-06-14T17:57:15Z</time>
      </trkpt>
      <trkpt lat="49.56776" lon="-1.80399">
        <ele>82</ele>
        <time>2020-06-14T17:57:16Z</time>
      </trkpt>
      <trkpt lat="49.56778" lon="-1.8039">
        <ele>81.9</ele>
        <time>2020-06-14T17:57:17Z</time>
      </trkpt>
      <trkpt lat="49.5678" lon="-1.80382">
        <ele>81.9</ele>
        <time>2020-06-14T17:57:18Z</time>
      </trkpt>
      <trkpt lat="49.56782" lon="-1.80374">
        <ele>81.9</ele>
        <time>2020-06-14T17:57:19Z</time>
      </trkpt>
      <trkpt lat="49.56783" lon="-1.80367">
        <ele>82</ele>
        <time>2020-06-14T17:57:20Z</time>
      </trkpt>
      <trkpt lat="49.56785" lon="-1.8036">
        <ele>82.1</ele>
        <time>2020-06-14T17:57:21Z</time>
      </trkpt>
      <trkpt lat="49.56786" lon="-1.80354">
        <ele>82.2</ele>
        <time>2020-06-14T17:57:22Z</time>
      </trkpt>
      <trkpt lat="49.56787" lon="-1.80348">
        <ele>82.3</ele>
        <time>2020-06-14T17:57:23Z</time>
      </trkpt>
      <trkpt lat="49.56788" lon="-1.80342">
        <ele>82.4</ele>
        <time>2020-06-14T17:57:24Z</time>
      </trkpt>
      <trkpt lat="49.5679" lon="-1.80336">
        <ele>82.5</ele>
        <time>2020-06-14T17:57:25Z</time>
      </trkpt>
      <trkpt lat="49.5679" lon="-1.8033">
        <ele>82.7</ele>
        <time>2020-06-14T17:57:26Z</time>
      </trkpt>
      <trkpt lat="49.56792" lon="-1.80324">
        <ele>82.9</ele>
        <time>2020-06-14T17:57:27Z</time>
      </trkpt>
      <trkpt lat="49.56793" lon="-1.80318">
        <ele>83</ele>
        <time>2020-06-14T17:57:28Z</time>
      </trkpt>
      <trkpt lat="49.56794" lon="-1.80312">
        <ele>83.2</ele>
        <time>2020-06-14T17:57:29Z</time>
      </trkpt>
      <trkpt lat="49.56796" lon="-1.80306">
        <ele>83.4</ele>
        <time>2020-06-14T17:57:30Z</time>
      </trkpt>
      <trkpt lat="49.56799" lon="-1.80302">
        <ele>83.5</ele>
        <time>2020-06-14T17:57:31Z</time>
      </trkpt>
      <trkpt lat="49.56801" lon="-1.80298">
        <ele>83.6</ele>
        <time>2020-06-14T17:57:32Z</time>
      </trkpt>
      <trkpt lat="49.56803" lon="-1.80293">
        <ele>83.8</ele>
        <time>2020-06-14T17:57:33Z</time>
      </trkpt>
      <trkpt lat="49.56804" lon="-1.80289">
        <ele>83.8</ele>
        <time>2020-06-14T17:57:34Z</time>
      </trkpt>
      <trkpt lat="49.56806" lon="-1.80284">
        <ele>83.9</ele>
        <time>2020-06-14T17:57:35Z</time>
      </trkpt>
      <trkpt lat="49.56808" lon="-1.80279">
        <ele>84</ele>
        <time>2020-06-14T17:57:36Z</time>
      </trkpt>
      <trkpt lat="49.5681" lon="-1.80273">
        <ele>84.1</ele>
        <time>2020-06-14T17:57:37Z</time>
      </trkpt>
      <trkpt lat="49.56812" lon="-1.80268">
        <ele>84.2</ele>
        <time>2020-06-14T17:57:38Z</time>
      </trkpt>
      <trkpt lat="49.56814" lon="-1.80263">
        <ele>84.2</ele>
        <time>2020-06-14T17:57:39Z</time>
      </trkpt>
      <trkpt lat="49.56816" lon="-1.80258">
        <ele>84.3</ele>
        <time>2020-06-14T17:57:40Z</time>
      </trkpt>
      <trkpt lat="49.56817" lon="-1.80253">
        <ele>84.4</ele>
        <time>2020-06-14T17:57:41Z</time>
      </trkpt>
      <trkpt lat="49.5682" lon="-1.80246">
        <ele>84.5</ele>
        <time>2020-06-14T17:57:42Z</time>
      </trkpt>
      <trkpt lat="49.56822" lon="-1.80241">
        <ele>84.6</ele>
        <time>2020-06-14T17:57:43Z</time>
      </trkpt>
      <trkpt lat="49.56824" lon="-1.80235">
        <ele>84.7</ele>
        <time>2020-06-14T17:57:44Z</time>
      </trkpt>
      <trkpt lat="49.56827" lon="-1.80231">
        <ele>84.8</ele>
        <time>2020-06-14T17:57:45Z</time>
      </trkpt>
      <trkpt lat="49.56829" lon="-1.80226">
        <ele>84.8</ele>
        <time>2020-06-14T17:57:46Z</time>
      </trkpt>
      <trkpt lat="49.56832" lon="-1.80221">
        <ele>84.8</ele>
        <time>2020-06-14T17:57:47Z</time>
      </trkpt>
      <trkpt lat="49.56834" lon="-1.80215">
        <ele>84.9</ele>
        <time>2020-06-14T17:57:48Z</time>
      </trkpt>
      <trkpt lat="49.56835" lon="-1.80209">
        <ele>85</ele>
        <time>2020-06-14T17:57:49Z</time>
      </trkpt>
      <trkpt lat="49.56837" lon="-1.80203">
        <ele>85.1</ele>
        <time>2020-06-14T17:57:50Z</time>
      </trkpt>
      <trkpt lat="49.5684" lon="-1.80198">
        <ele>85.3</ele>
        <time>2020-06-14T17:57:51Z</time>
      </trkpt>
      <trkpt lat="49.56842" lon="-1.80193">
        <ele>85.5</ele>
        <time>2020-06-14T17:57:52Z</time>
      </trkpt>
      <trkpt lat="49.56844" lon="-1.80187">
        <ele>85.6</ele>
        <time>2020-06-14T17:57:53Z</time>
      </trkpt>
      <trkpt lat="49.56846" lon="-1.80182">
        <ele>85.8</ele>
        <time>2020-06-14T17:57:54Z</time>
      </trkpt>
      <trkpt lat="49.56849" lon="-1.80177">
        <ele>85.9</ele>
        <time>2020-06-14T17:57:55Z</time>
      </trkpt>
      <trkpt lat="49.56851" lon="-1.80172">
        <ele>86</ele>
        <time>2020-06-14T17:57:56Z</time>
      </trkpt>
      <trkpt lat="49.56854" lon="-1.80167">
        <ele>86</ele>
        <time>2020-06-14T17:57:57Z</time>
      </trkpt>
      <trkpt lat="49.56856" lon="-1.80161">
        <ele>86.1</ele>
        <time>2020-06-14T17:57:58Z</time>
      </trkpt>
      <trkpt lat="49.56858" lon="-1.80156">
        <ele>86.1</ele>
        <time>2020-06-14T17:57:59Z</time>
      </trkpt>
      <trkpt lat="49.5686" lon="-1.8015">
        <ele>86.2</ele>
        <time>2020-06-14T17:58:00Z</time>
      </trkpt>
      <trkpt lat="49.56862" lon="-1.80145">
        <ele>86.2</ele>
        <time>2020-06-14T17:58:01Z</time>
      </trkpt>
      <trkpt lat="49.56864" lon="-1.8014">
        <ele>86.3</ele>
        <time>2020-06-14T17:58:02Z</time>
      </trkpt>
      <trkpt lat="49.56865" lon="-1.80135">
        <ele>86.4</ele>
        <time>2020-06-14T17:58:03Z</time>
      </trkpt>
      <trkpt lat="49.56867" lon="-1.8013">
        <ele>86.5</ele>
        <time>2020-06-14T17:58:04Z</time>
      </trkpt>
      <trkpt lat="49.5687" lon="-1.80125">
        <ele>86.6</ele>
        <time>2020-06-14T17:58:05Z</time>
      </trkpt>
      <trkpt lat="49.56872" lon="-1.80121">
        <ele>86.8</ele>
        <time>2020-06-14T17:58:06Z</time>
      </trkpt>
      <trkpt lat="49.56875" lon="-1.80116">
        <ele>86.9</ele>
        <time>2020-06-14T17:58:07Z</time>
      </trkpt>
      <trkpt lat="49.56877" lon="-1.8011">
        <ele>87</ele>
        <time>2020-06-14T17:58:08Z</time>
      </trkpt>
      <trkpt lat="49.5688" lon="-1.80106">
        <ele>87.1</ele>
        <time>2020-06-14T17:58:09Z</time>
      </trkpt>
      <trkpt lat="49.56882" lon="-1.80101">
        <ele>87.1</ele>
        <time>2020-06-14T17:58:10Z</time>
      </trkpt>
      <trkpt lat="49.56884" lon="-1.80097">
        <ele>87.2</ele>
        <time>2020-06-14T17:58:11Z</time>
      </trkpt>
      <trkpt lat="49.56884" lon="-1.80092">
        <ele>87.2</ele>
        <time>2020-06-14T17:58:12Z</time>
      </trkpt>
      <trkpt lat="49.56885" lon="-1.80087">
        <ele>87.2</ele>
        <time>2020-06-14T17:58:13Z</time>
      </trkpt>
      <trkpt lat="49.56886" lon="-1.80084">
        <ele>87.2</ele>
        <time>2020-06-14T17:58:14Z</time>
      </trkpt>
      <trkpt lat="49.56887" lon="-1.8008">
        <ele>87.3</ele>
        <time>2020-06-14T17:58:15Z</time>
      </trkpt>
      <trkpt lat="49.56889" lon="-1.80075">
        <ele>87.3</ele>
        <time>2020-06-14T17:58:16Z</time>
      </trkpt>
      <trkpt lat="49.56891" lon="-1.8007">
        <ele>87.3</ele>
        <time>2020-06-14T17:58:17Z</time>
      </trkpt>
      <trkpt lat="49.56893" lon="-1.80064">
        <ele>87.3</ele>
        <time>2020-06-14T17:58:18Z</time>
      </trkpt>
      <trkpt lat="49.56895" lon="-1.80059">
        <ele>87.3</ele>
        <time>2020-06-14T17:58:19Z</time>
      </trkpt>
      <trkpt lat="49.56897" lon="-1.80054">
        <ele>87.3</ele>
        <time>2020-06-14T17:58:20Z</time>
      </trkpt>
      <trkpt lat="49.569" lon="-1.80049">
        <ele>87.3</ele>
        <time>2020-06-14T17:58:21Z</time>
      </trkpt>
      <trkpt lat="49.56902" lon="-1.80044">
        <ele>87.2</ele>
        <time>2020-06-14T17:58:22Z</time>
      </trkpt>
      <trkpt lat="49.56904" lon="-1.80039">
        <ele>87.2</ele>
        <time>2020-06-14T17:58:23Z</time>
      </trkpt>
      <trkpt lat="49.56906" lon="-1.80034">
        <ele>87.1</ele>
        <time>2020-06-14T17:58:24Z</time>
      </trkpt>
      <trkpt lat="49.56909" lon="-1.80028">
        <ele>87.1</ele>
        <time>2020-06-14T17:58:25Z</time>
      </trkpt>
      <trkpt lat="49.56911" lon="-1.80023">
        <ele>87</ele>
        <time>2020-06-14T17:58:26Z</time>
      </trkpt>
      <trkpt lat="49.56913" lon="-1.80019">
        <ele>87</ele>
        <time>2020-06-14T17:58:27Z</time>
      </trkpt>
      <trkpt lat="49.56916" lon="-1.80014">
        <ele>86.9</ele>
        <time>2020-06-14T17:58:28Z</time>
      </trkpt>
      <trkpt lat="49.56919" lon="-1.80008">
        <ele>86.9</ele>
        <time>2020-06-14T17:58:29Z</time>
      </trkpt>
      <trkpt lat="49.5692" lon="-1.80002">
        <ele>86.8</ele>
        <time>2020-06-14T17:58:30Z</time>
      </trkpt>
      <trkpt lat="49.56923" lon="-1.79995">
        <ele>86.7</ele>
        <time>2020-06-14T17:58:31Z</time>
      </trkpt>
      <trkpt lat="49.56925" lon="-1.79988">
        <ele>86.7</ele>
        <time>2020-06-14T17:58:32Z</time>
      </trkpt>
      <trkpt lat="49.56927" lon="-1.7998">
        <ele>86.6</ele>
        <time>2020-06-14T17:58:33Z</time>
      </trkpt>
      <trkpt lat="49.56929" lon="-1.79973">
        <ele>86.5</ele>
        <time>2020-06-14T17:58:34Z</time>
      </trkpt>
      <trkpt lat="49.56931" lon="-1.79965">
        <ele>86.4</ele>
        <time>2020-06-14T17:58:35Z</time>
      </trkpt>
      <trkpt lat="49.56933" lon="-1.79956">
        <ele>86.4</ele>
        <time>2020-06-14T17:58:36Z</time>
      </trkpt>
      <trkpt lat="49.56935" lon="-1.79949">
        <ele>86.3</ele>
        <time>2020-06-14T17:58:37Z</time>
      </trkpt>
      <trkpt lat="49.56937" lon="-1.79941">
        <ele>86.2</ele>
        <time>2020-06-14T17:58:38Z</time>
      </trkpt>
      <trkpt lat="49.56939" lon="-1.79934">
        <ele>86.1</ele>
        <time>2020-06-14T17:58:39Z</time>
      </trkpt>
      <trkpt lat="49.56942" lon="-1.79927">
        <ele>86.1</ele>
        <time>2020-06-14T17:58:40Z</time>
      </trkpt>
      <trkpt lat="49.56944" lon="-1.7992">
        <ele>86.1</ele>
        <time>2020-06-14T17:58:41Z</time>
      </trkpt>
      <trkpt lat="49.56946" lon="-1.79914">
        <ele>86.1</ele>
        <time>2020-06-14T17:58:42Z</time>
      </trkpt>
      <trkpt lat="49.56948" lon="-1.79907">
        <ele>86</ele>
        <time>2020-06-14T17:58:43Z</time>
      </trkpt>
      <trkpt lat="49.5695" lon="-1.79899">
        <ele>86.1</ele>
        <time>2020-06-14T17:58:44Z</time>
      </trkpt>
      <trkpt lat="49.56952" lon="-1.79892">
        <ele>86.1</ele>
        <time>2020-06-14T17:58:45Z</time>
      </trkpt>
      <trkpt lat="49.56954" lon="-1.79885">
        <ele>86.1</ele>
        <time>2020-06-14T17:58:46Z</time>
      </trkpt>
      <trkpt lat="49.56957" lon="-1.79878">
        <ele>86.1</ele>
        <time>2020-06-14T17:58:47Z</time>
      </trkpt>
      <trkpt lat="49.56959" lon="-1.79871">
        <ele>86.1</ele>
        <time>2020-06-14T17:58:48Z</time>
      </trkpt>
      <trkpt lat="49.56961" lon="-1.79864">
        <ele>86.1</ele>
        <time>2020-06-14T17:58:49Z</time>
      </trkpt>
      <trkpt lat="49.56962" lon="-1.79857">
        <ele>86.1</ele>
        <time>2020-06-14T17:58:50Z</time>
      </trkpt>
      <trkpt lat="49.56964" lon="-1.79849">
        <ele>86.1</ele>
        <time>2020-06-14T17:58:51Z</time>
      </trkpt>
      <trkpt lat="49.56967" lon="-1.79841">
        <ele>86.1</ele>
        <time>2020-06-14T17:58:52Z</time>
      </trkpt>
      <trkpt lat="49.56969" lon="-1.79834">
        <ele>86.2</ele>
        <time>2020-06-14T17:58:53Z</time>
      </trkpt>
      <trkpt lat="49.56971" lon="-1.79827">
        <ele>86.2</ele>
        <time>2020-06-14T17:58:54Z</time>
      </trkpt>
      <trkpt lat="49.56973" lon="-1.7982">
        <ele>86.3</ele>
        <time>2020-06-14T17:58:55Z</time>
      </trkpt>
      <trkpt lat="49.56975" lon="-1.79813">
        <ele>86.4</ele>
        <time>2020-06-14T17:58:56Z</time>
      </trkpt>
      <trkpt lat="49.56976" lon="-1.79805">
        <ele>86.4</ele>
        <time>2020-06-14T17:58:57Z</time>
      </trkpt>
      <trkpt lat="49.56978" lon="-1.79798">
        <ele>86.6</ele>
        <time>2020-06-14T17:58:58Z</time>
      </trkpt>
      <trkpt lat="49.56979" lon="-1.79791">
        <ele>86.7</ele>
        <time>2020-06-14T17:58:59Z</time>
      </trkpt>
      <trkpt lat="49.56981" lon="-1.79785">
        <ele>86.8</ele>
        <time>2020-06-14T17:59:00Z</time>
      </trkpt>
      <trkpt lat="49.56983" lon="-1.79778">
        <ele>87</ele>
        <time>2020-06-14T17:59:01Z</time>
      </trkpt>
      <trkpt lat="49.56984" lon="-1.79772">
        <ele>87.1</ele>
        <time>2020-06-14T17:59:02Z</time>
      </trkpt>
      <trkpt lat="49.56985" lon="-1.79766">
        <ele>87.1</ele>
        <time>2020-06-14T17:59:03Z</time>
      </trkpt>
      <trkpt lat="49.56986" lon="-1.79759">
        <ele>87.1</ele>
        <time>2020-06-14T17:59:04Z</time>
      </trkpt>
      <trkpt lat="49.56987" lon="-1.79752">
        <ele>87.1</ele>
        <time>2020-06-14T17:59:05Z</time>
      </trkpt>
      <trkpt lat="49.56987" lon="-1.79746">
        <ele>87.1</ele>
        <time>2020-06-14T17:59:06Z</time>
      </trkpt>
      <trkpt lat="49.56988" lon="-1.79739">
        <ele>87.1</ele>
        <time>2020-06-14T17:59:07Z</time>
      </trkpt>
      <trkpt lat="49.56989" lon="-1.79733">
        <ele>87.1</ele>
        <time>2020-06-14T17:59:08Z</time>
      </trkpt>
      <trkpt lat="49.5699" lon="-1.79726">
        <ele>87.1</ele>
        <time>2020-06-14T17:59:09Z</time>
      </trkpt>
      <trkpt lat="49.5699" lon="-1.7972">
        <ele>87</ele>
        <time>2020-06-14T17:59:10Z</time>
      </trkpt>
      <trkpt lat="49.56991" lon="-1.79715">
        <ele>86.9</ele>
        <time>2020-06-14T17:59:11Z</time>
      </trkpt>
      <trkpt lat="49.56989" lon="-1.7971">
        <ele>86.8</ele>
        <time>2020-06-14T17:59:12Z</time>
      </trkpt>
      <trkpt lat="49.56987" lon="-1.79704">
        <ele>86.7</ele>
        <time>2020-06-14T17:59:13Z</time>
      </trkpt>
      <trkpt lat="49.56986" lon="-1.79697">
        <ele>86.5</ele>
        <time>2020-06-14T17:59:14Z</time>
      </trkpt>
      <trkpt lat="49.56986" lon="-1.79688">
        <ele>86.2</ele>
        <time>2020-06-14T17:59:15Z</time>
      </trkpt>
      <trkpt lat="49.56986" lon="-1.79679">
        <ele>85.9</ele>
        <time>2020-06-14T17:59:16Z</time>
      </trkpt>
      <trkpt lat="49.56986" lon="-1.79667">
        <ele>85.6</ele>
        <time>2020-06-14T17:59:17Z</time>
      </trkpt>
      <trkpt lat="49.56986" lon="-1.79656">
        <ele>85.3</ele>
        <time>2020-06-14T17:59:18Z</time>
      </trkpt>
      <trkpt lat="49.56988" lon="-1.79647">
        <ele>85.1</ele>
        <time>2020-06-14T17:59:19Z</time>
      </trkpt>
      <trkpt lat="49.56988" lon="-1.79634">
        <ele>84.8</ele>
        <time>2020-06-14T17:59:20Z</time>
      </trkpt>
      <trkpt lat="49.56989" lon="-1.79625">
        <ele>84.7</ele>
        <time>2020-06-14T17:59:21Z</time>
      </trkpt>
      <trkpt lat="49.56992" lon="-1.79614">
        <ele>84.5</ele>
        <time>2020-06-14T17:59:22Z</time>
      </trkpt>
      <trkpt lat="49.56996" lon="-1.79606">
        <ele>84.2</ele>
        <time>2020-06-14T17:59:23Z</time>
      </trkpt>
      <trkpt lat="49.57001" lon="-1.79601">
        <ele>84</ele>
        <time>2020-06-14T17:59:24Z</time>
      </trkpt>
      <trkpt lat="49.57005" lon="-1.79597">
        <ele>83.9</ele>
        <time>2020-06-14T17:59:25Z</time>
      </trkpt>
      <trkpt lat="49.57009" lon="-1.79591">
        <ele>83.6</ele>
        <time>2020-06-14T17:59:26Z</time>
      </trkpt>
      <trkpt lat="49.57011" lon="-1.79588">
        <ele>83.5</ele>
        <time>2020-06-14T17:59:27Z</time>
      </trkpt>
      <trkpt lat="49.57013" lon="-1.79581">
        <ele>83.2</ele>
        <time>2020-06-14T17:59:28Z</time>
      </trkpt>
      <trkpt lat="49.57014" lon="-1.79576">
        <ele>83</ele>
        <time>2020-06-14T17:59:29Z</time>
      </trkpt>
      <trkpt lat="49.57016" lon="-1.79572">
        <ele>82.8</ele>
        <time>2020-06-14T17:59:30Z</time>
      </trkpt>
      <trkpt lat="49.57019" lon="-1.7957">
        <ele>82.6</ele>
        <time>2020-06-14T17:59:31Z</time>
      </trkpt>
      <trkpt lat="49.57022" lon="-1.79567">
        <ele>82.5</ele>
        <time>2020-06-14T17:59:32Z</time>
      </trkpt>
      <trkpt lat="49.57026" lon="-1.79563">
        <ele>82.2</ele>
        <time>2020-06-14T17:59:33Z</time>
      </trkpt>
      <trkpt lat="49.57029" lon="-1.7956">
        <ele>82.1</ele>
        <time>2020-06-14T17:59:34Z</time>
      </trkpt>
      <trkpt lat="49.57034" lon="-1.79555">
        <ele>81.9</ele>
        <time>2020-06-14T17:59:35Z</time>
      </trkpt>
      <trkpt lat="49.57038" lon="-1.79552">
        <ele>81.8</ele>
        <time>2020-06-14T17:59:36Z</time>
      </trkpt>
      <trkpt lat="49.57041" lon="-1.79549">
        <ele>81.7</ele>
        <time>2020-06-14T17:59:37Z</time>
      </trkpt>
      <trkpt lat="49.57045" lon="-1.79546">
        <ele>81.6</ele>
        <time>2020-06-14T17:59:38Z</time>
      </trkpt>
      <trkpt lat="49.57048" lon="-1.79543">
        <ele>81.5</ele>
        <time>2020-06-14T17:59:39Z</time>
      </trkpt>
      <trkpt lat="49.57054" lon="-1.79541">
        <ele>81.4</ele>
        <time>2020-06-14T17:59:40Z</time>
      </trkpt>
      <trkpt lat="49.57058" lon="-1.79542">
        <ele>81.4</ele>
        <time>2020-06-14T17:59:41Z</time>
      </trkpt>
      <trkpt lat="49.57063" lon="-1.79543">
        <ele>81.1</ele>
        <time>2020-06-14T17:59:42Z</time>
      </trkpt>
      <trkpt lat="49.57068" lon="-1.79545">
        <ele>80.8</ele>
        <time>2020-06-14T17:59:43Z</time>
      </trkpt>
      <trkpt lat="49.57072" lon="-1.79546">
        <ele>80.6</ele>
        <time>2020-06-14T17:59:44Z</time>
      </trkpt>
      <trkpt lat="49.57078" lon="-1.79548">
        <ele>80.2</ele>
        <time>2020-06-14T17:59:45Z</time>
      </trkpt>
      <trkpt lat="49.57083" lon="-1.79549">
        <ele>79.9</ele>
        <time>2020-06-14T17:59:46Z</time>
      </trkpt>
      <trkpt lat="49.57089" lon="-1.79549">
        <ele>79.6</ele>
        <time>2020-06-14T17:59:47Z</time>
      </trkpt>
      <trkpt lat="49.57095" lon="-1.7955">
        <ele>79.4</ele>
        <time>2020-06-14T17:59:48Z</time>
      </trkpt>
      <trkpt lat="49.571" lon="-1.7955">
        <ele>79.1</ele>
        <time>2020-06-14T17:59:49Z</time>
      </trkpt>
      <trkpt lat="49.57107" lon="-1.79552">
        <ele>79</ele>
        <time>2020-06-14T17:59:50Z</time>
      </trkpt>
      <trkpt lat="49.57113" lon="-1.79553">
        <ele>78.8</ele>
        <time>2020-06-14T17:59:51Z</time>
      </trkpt>
      <trkpt lat="49.5712" lon="-1.79555">
        <ele>78.7</ele>
        <time>2020-06-14T17:59:52Z</time>
      </trkpt>
      <trkpt lat="49.57126" lon="-1.79556">
        <ele>78.6</ele>
        <time>2020-06-14T17:59:53Z</time>
      </trkpt>
      <trkpt lat="49.57131" lon="-1.79558">
        <ele>78.6</ele>
        <time>2020-06-14T17:59:54Z</time>
      </trkpt>
      <trkpt lat="49.57136" lon="-1.7956">
        <ele>78.6</ele>
        <time>2020-06-14T17:59:55Z</time>
      </trkpt>
      <trkpt lat="49.57141" lon="-1.79562">
        <ele>78.6</ele>
        <time>2020-06-14T17:59:56Z</time>
      </trkpt>
      <trkpt lat="49.57146" lon="-1.79564">
        <ele>78.6</ele>
        <time>2020-06-14T17:59:57Z</time>
      </trkpt>
      <trkpt lat="49.57152" lon="-1.79567">
        <ele>78.7</ele>
        <time>2020-06-14T17:59:58Z</time>
      </trkpt>
      <trkpt lat="49.57158" lon="-1.7957">
        <ele>78.7</ele>
        <time>2020-06-14T17:59:59Z</time>
      </trkpt>
      <trkpt lat="49.57164" lon="-1.79573">
        <ele>78.8</ele>
        <time>2020-06-14T18:00:00Z</time>
      </trkpt>
      <trkpt lat="49.57169" lon="-1.79576">
        <ele>78.9</ele>
        <time>2020-06-14T18:00:01Z</time>
      </trkpt>
      <trkpt lat="49.57173" lon="-1.79578">
        <ele>79</ele>
        <time>2020-06-14T18:00:02Z</time>
      </trkpt>
      <trkpt lat="49.57176" lon="-1.7958">
        <ele>79.1</ele>
        <time>2020-06-14T18:00:03Z</time>
      </trkpt>
      <trkpt lat="49.57181" lon="-1.79584">
        <ele>79.1</ele>
        <time>2020-06-14T18:00:04Z</time>
      </trkpt>
      <trkpt lat="49.57186" lon="-1.79586">
        <ele>79.2</ele>
        <time>2020-06-14T18:00:05Z</time>
      </trkpt>
      <trkpt lat="49.5719" lon="-1.79588">
        <ele>79.2</ele>
        <time>2020-06-14T18:00:06Z</time>
      </trkpt>
      <trkpt lat="49.57195" lon="-1.7959">
        <ele>79.2</ele>
        <time>2020-06-14T18:00:07Z</time>
      </trkpt>
      <trkpt lat="49.57198" lon="-1.79592">
        <ele>79.2</ele>
        <time>2020-06-14T18:00:08Z</time>
      </trkpt>
      <trkpt lat="49.57202" lon="-1.79592">
        <ele>79.2</ele>
        <time>2020-06-14T18:00:09Z</time>
      </trkpt>
      <trkpt lat="49.57206" lon="-1.79593">
        <ele>79.2</ele>
        <time>2020-06-14T18:00:10Z</time>
      </trkpt>
      <trkpt lat="49.5721" lon="-1.79593">
        <ele>79.1</ele>
        <time>2020-06-14T18:00:11Z</time>
      </trkpt>
      <trkpt lat="49.57215" lon="-1.79593">
        <ele>79</ele>
        <time>2020-06-14T18:00:12Z</time>
      </trkpt>
      <trkpt lat="49.57221" lon="-1.79592">
        <ele>78.8</ele>
        <time>2020-06-14T18:00:13Z</time>
      </trkpt>
      <trkpt lat="49.57225" lon="-1.79591">
        <ele>78.6</ele>
        <time>2020-06-14T18:00:14Z</time>
      </trkpt>
      <trkpt lat="49.5723" lon="-1.79588">
        <ele>78.4</ele>
        <time>2020-06-14T18:00:15Z</time>
      </trkpt>
      <trkpt lat="49.57238" lon="-1.79584">
        <ele>78</ele>
        <time>2020-06-14T18:00:16Z</time>
      </trkpt>
      <trkpt lat="49.57245" lon="-1.79581">
        <ele>77.6</ele>
        <time>2020-06-14T18:00:17Z</time>
      </trkpt>
      <trkpt lat="49.57252" lon="-1.79578">
        <ele>77.3</ele>
        <time>2020-06-14T18:00:18Z</time>
      </trkpt>
      <trkpt lat="49.57258" lon="-1.79574">
        <ele>76.9</ele>
        <time>2020-06-14T18:00:19Z</time>
      </trkpt>
      <trkpt lat="49.57264" lon="-1.7957">
        <ele>76.6</ele>
        <time>2020-06-14T18:00:20Z</time>
      </trkpt>
      <trkpt lat="49.57269" lon="-1.79568">
        <ele>76.2</ele>
        <time>2020-06-14T18:00:21Z</time>
      </trkpt>
      <trkpt lat="49.57274" lon="-1.79565">
        <ele>75.9</ele>
        <time>2020-06-14T18:00:22Z</time>
      </trkpt>
      <trkpt lat="49.5728" lon="-1.79561">
        <ele>75.4</ele>
        <time>2020-06-14T18:00:23Z</time>
      </trkpt>
      <trkpt lat="49.57285" lon="-1.79557">
        <ele>74.9</ele>
        <time>2020-06-14T18:00:24Z</time>
      </trkpt>
      <trkpt lat="49.57291" lon="-1.79551">
        <ele>74.2</ele>
        <time>2020-06-14T18:00:25Z</time>
      </trkpt>
      <trkpt lat="49.57296" lon="-1.79545">
        <ele>73.6</ele>
        <time>2020-06-14T18:00:26Z</time>
      </trkpt>
      <trkpt lat="49.57302" lon="-1.79537">
        <ele>72.8</ele>
        <time>2020-06-14T18:00:27Z</time>
      </trkpt>
      <trkpt lat="49.57309" lon="-1.79529">
        <ele>71.9</ele>
        <time>2020-06-14T18:00:28Z</time>
      </trkpt>
      <trkpt lat="49.57316" lon="-1.7952">
        <ele>70.7</ele>
        <time>2020-06-14T18:00:29Z</time>
      </trkpt>
      <trkpt lat="49.57323" lon="-1.7951">
        <ele>69.5</ele>
        <time>2020-06-14T18:00:30Z</time>
      </trkpt>
      <trkpt lat="49.57331" lon="-1.795">
        <ele>68.3</ele>
        <time>2020-06-14T18:00:31Z</time>
      </trkpt>
      <trkpt lat="49.57338" lon="-1.79492">
        <ele>67.3</ele>
        <time>2020-06-14T18:00:32Z</time>
      </trkpt>
      <trkpt lat="49.57346" lon="-1.79484">
        <ele>66.3</ele>
        <time>2020-06-14T18:00:33Z</time>
      </trkpt>
      <trkpt lat="49.57356" lon="-1.79475">
        <ele>65</ele>
        <time>2020-06-14T18:00:34Z</time>
      </trkpt>
      <trkpt lat="49.57366" lon="-1.79468">
        <ele>63.8</ele>
        <time>2020-06-14T18:00:35Z</time>
      </trkpt>
      <trkpt lat="49.57377" lon="-1.79464">
        <ele>62.7</ele>
        <time>2020-06-14T18:00:36Z</time>
      </trkpt>
      <trkpt lat="49.5739" lon="-1.79458">
        <ele>61.7</ele>
        <time>2020-06-14T18:00:37Z</time>
      </trkpt>
      <trkpt lat="49.574" lon="-1.79454">
        <ele>61.2</ele>
        <time>2020-06-14T18:00:38Z</time>
      </trkpt>
      <trkpt lat="49.5741" lon="-1.7945">
        <ele>60.8</ele>
        <time>2020-06-14T18:00:39Z</time>
      </trkpt>
      <trkpt lat="49.57419" lon="-1.79446">
        <ele>60.7</ele>
        <time>2020-06-14T18:00:40Z</time>
      </trkpt>
      <trkpt lat="49.57427" lon="-1.79442">
        <ele>60.6</ele>
        <time>2020-06-14T18:00:41Z</time>
      </trkpt>
      <trkpt lat="49.57434" lon="-1.79439">
        <ele>60.6</ele>
        <time>2020-06-14T18:00:42Z</time>
      </trkpt>
      <trkpt lat="49.57441" lon="-1.79437">
        <ele>60.7</ele>
        <time>2020-06-14T18:00:43Z</time>
      </trkpt>
      <trkpt lat="49.57447" lon="-1.79435">
        <ele>60.7</ele>
        <time>2020-06-14T18:00:44Z</time>
      </trkpt>
      <trkpt lat="49.57452" lon="-1.79433">
        <ele>60.8</ele>
        <time>2020-06-14T18:00:45Z</time>
      </trkpt>
      <trkpt lat="49.57458" lon="-1.79431">
        <ele>60.8</ele>
        <time>2020-06-14T18:00:46Z</time>
      </trkpt>
      <trkpt lat="49.57463" lon="-1.79429">
        <ele>63</ele>
        <time>2020-06-14T18:00:47Z</time>
      </trkpt>
      <trkpt lat="49.57468" lon="-1.79428">
        <ele>62.9</ele>
        <time>2020-06-14T18:00:48Z</time>
      </trkpt>
      <trkpt lat="49.57473" lon="-1.79428">
        <ele>62.7</ele>
        <time>2020-06-14T18:00:49Z</time>
      </trkpt>
      <trkpt lat="49.57477" lon="-1.7943">
        <ele>62.7</ele>
        <time>2020-06-14T18:00:50Z</time>
      </trkpt>
      <trkpt lat="49.57479" lon="-1.79436">
        <ele>62.8</ele>
        <time>2020-06-14T18:00:51Z</time>
      </trkpt>
      <trkpt lat="49.57481" lon="-1.7944">
        <ele>62.9</ele>
        <time>2020-06-14T18:00:52Z</time>
      </trkpt>
      <trkpt lat="49.57483" lon="-1.79444">
        <ele>62.9</ele>
        <time>2020-06-14T18:00:53Z</time>
      </trkpt>
      <trkpt lat="49.57485" lon="-1.79447">
        <ele>63</ele>
        <time>2020-06-14T18:00:54Z</time>
      </trkpt>
      <trkpt lat="49.57489" lon="-1.79448">
        <ele>63</ele>
        <time>2020-06-14T18:00:55Z</time>
      </trkpt>
      <trkpt lat="49.5749" lon="-1.79447">
        <ele>63.6</ele>
        <time>2020-06-14T18:00:56Z</time>
      </trkpt>
      <trkpt lat="49.57493" lon="-1.79447">
        <ele>63.7</ele>
        <time>2020-06-14T18:00:57Z</time>
      </trkpt>
      <trkpt lat="49.57497" lon="-1.79445">
        <ele>63.9</ele>
        <time>2020-06-14T18:00:58Z</time>
      </trkpt>
      <trkpt lat="49.57498" lon="-1.79444">
        <ele>63.9</ele>
        <time>2020-06-14T18:00:59Z</time>
      </trkpt>
      <trkpt lat="49.57501" lon="-1.79442">
        <ele>64.1</ele>
        <time>2020-06-14T18:01:00Z</time>
      </trkpt>
      <trkpt lat="49.57504" lon="-1.7944">
        <ele>64.2</ele>
        <time>2020-06-14T18:01:01Z</time>
      </trkpt>
      <trkpt lat="49.57506" lon="-1.79438">
        <ele>64.3</ele>
        <time>2020-06-14T18:01:02Z</time>
      </trkpt>
      <trkpt lat="49.57509" lon="-1.79437">
        <ele>64.5</ele>
        <time>2020-06-14T18:01:03Z</time>
      </trkpt>
      <trkpt lat="49.57512" lon="-1.79437">
        <ele>64.6</ele>
        <time>2020-06-14T18:01:04Z</time>
      </trkpt>
      <trkpt lat="49.57516" lon="-1.79438">
        <ele>64.9</ele>
        <time>2020-06-14T18:01:05Z</time>
      </trkpt>
      <trkpt lat="49.5752" lon="-1.79437">
        <ele>65.1</ele>
        <time>2020-06-14T18:01:06Z</time>
      </trkpt>
      <trkpt lat="49.57523" lon="-1.79437">
        <ele>65.3</ele>
        <time>2020-06-14T18:01:07Z</time>
      </trkpt>
      <trkpt lat="49.57527" lon="-1.79438">
        <ele>65.6</ele>
        <time>2020-06-14T18:01:08Z</time>
      </trkpt>
      <trkpt lat="49.57532" lon="-1.79438">
        <ele>65.9</ele>
        <time>2020-06-14T18:01:09Z</time>
      </trkpt>
      <trkpt lat="49.57536" lon="-1.79439">
        <ele>66.2</ele>
        <time>2020-06-14T18:01:10Z</time>
      </trkpt>
      <trkpt lat="49.57539" lon="-1.79439">
        <ele>66.4</ele>
        <time>2020-06-14T18:01:11Z</time>
      </trkpt>
      <trkpt lat="49.57544" lon="-1.79442">
        <ele>66.8</ele>
        <time>2020-06-14T18:01:12Z</time>
      </trkpt>
      <trkpt lat="49.57546" lon="-1.79444">
        <ele>67</ele>
        <time>2020-06-14T18:01:13Z</time>
      </trkpt>
      <trkpt lat="49.57549" lon="-1.79446">
        <ele>67.3</ele>
        <time>2020-06-14T18:01:14Z</time>
      </trkpt>
      <trkpt lat="49.57552" lon="-1.79448">
        <ele>67.5</ele>
        <time>2020-06-14T18:01:15Z</time>
      </trkpt>
      <trkpt lat="49.57556" lon="-1.79451">
        <ele>67.8</ele>
        <time>2020-06-14T18:01:16Z</time>
      </trkpt>
      <trkpt lat="49.57558" lon="-1.79454">
        <ele>68.1</ele>
        <time>2020-06-14T18:01:17Z</time>
      </trkpt>
      <trkpt lat="49.57561" lon="-1.79457">
        <ele>68.3</ele>
        <time>2020-06-14T18:01:18Z</time>
      </trkpt>
      <trkpt lat="49.57563" lon="-1.7946">
        <ele>68.5</ele>
        <time>2020-06-14T18:01:19Z</time>
      </trkpt>
      <trkpt lat="49.57566" lon="-1.79462">
        <ele>68.7</ele>
        <time>2020-06-14T18:01:20Z</time>
      </trkpt>
      <trkpt lat="49.57568" lon="-1.79463">
        <ele>68.9</ele>
        <time>2020-06-14T18:01:21Z</time>
      </trkpt>
      <trkpt lat="49.57572" lon="-1.79464">
        <ele>69.2</ele>
        <time>2020-06-14T18:01:22Z</time>
      </trkpt>
      <trkpt lat="49.57575" lon="-1.79467">
        <ele>69.5</ele>
        <time>2020-06-14T18:01:23Z</time>
      </trkpt>
      <trkpt lat="49.57578" lon="-1.7947">
        <ele>69.7</ele>
        <time>2020-06-14T18:01:24Z</time>
      </trkpt>
      <trkpt lat="49.57582" lon="-1.79473">
        <ele>70</ele>
        <time>2020-06-14T18:01:25Z</time>
      </trkpt>
      <trkpt lat="49.57585" lon="-1.79477">
        <ele>70.3</ele>
        <time>2020-06-14T18:01:26Z</time>
      </trkpt>
      <trkpt lat="49.57589" lon="-1.7948">
        <ele>70.6</ele>
        <time>2020-06-14T18:01:27Z</time>
      </trkpt>
      <trkpt lat="49.57593" lon="-1.79483">
        <ele>70.9</ele>
        <time>2020-06-14T18:01:28Z</time>
      </trkpt>
      <trkpt lat="49.57596" lon="-1.79485">
        <ele>71.1</ele>
        <time>2020-06-14T18:01:29Z</time>
      </trkpt>
      <trkpt lat="49.57599" lon="-1.79487">
        <ele>71.4</ele>
        <time>2020-06-14T18:01:30Z</time>
      </trkpt>
      <trkpt lat="49.57602" lon="-1.79488">
        <ele>71.6</ele>
        <time>2020-06-14T18:01:31Z</time>
      </trkpt>
      <trkpt lat="49.57605" lon="-1.7949">
        <ele>71.8</ele>
        <time>2020-06-14T18:01:32Z</time>
      </trkpt>
      <trkpt lat="49.57607" lon="-1.79492">
        <ele>72</ele>
        <time>2020-06-14T18:01:33Z</time>
      </trkpt>
      <trkpt lat="49.5761" lon="-1.79494">
        <ele>72.2</ele>
        <time>2020-06-14T18:01:34Z</time>
      </trkpt>
      <trkpt lat="49.57613" lon="-1.79496">
        <ele>72.4</ele>
        <time>2020-06-14T18:01:35Z</time>
      </trkpt>
      <trkpt lat="49.57617" lon="-1.79498">
        <ele>72.6</ele>
        <time>2020-06-14T18:01:36Z</time>
      </trkpt>
      <trkpt lat="49.57618" lon="-1.79499">
        <ele>72.7</ele>
        <time>2020-06-14T18:01:37Z</time>
      </trkpt>
      <trkpt lat="49.57621" lon="-1.79501">
        <ele>73</ele>
        <time>2020-06-14T18:01:38Z</time>
      </trkpt>
      <trkpt lat="49.57624" lon="-1.79504">
        <ele>73.1</ele>
        <time>2020-06-14T18:01:39Z</time>
      </trkpt>
      <trkpt lat="49.57627" lon="-1.79506">
        <ele>73.3</ele>
        <time>2020-06-14T18:01:40Z</time>
      </trkpt>
      <trkpt lat="49.57632" lon="-1.79508">
        <ele>73.6</ele>
        <time>2020-06-14T18:01:41Z</time>
      </trkpt>
      <trkpt lat="49.57635" lon="-1.7951">
        <ele>73.8</ele>
        <time>2020-06-14T18:01:42Z</time>
      </trkpt>
      <trkpt lat="49.57639" lon="-1.79511">
        <ele>74.1</ele>
        <time>2020-06-14T18:01:43Z</time>
      </trkpt>
      <trkpt lat="49.57642" lon="-1.79514">
        <ele>74.3</ele>
        <time>2020-06-14T18:01:44Z</time>
      </trkpt>
      <trkpt lat="49.57645" lon="-1.79517">
        <ele>74.4</ele>
        <time>2020-06-14T18:01:45Z</time>
      </trkpt>
      <trkpt lat="49.57647" lon="-1.7952">
        <ele>74.6</ele>
        <time>2020-06-14T18:01:46Z</time>
      </trkpt>
      <trkpt lat="49.57652" lon="-1.79523">
        <ele>74.9</ele>
        <time>2020-06-14T18:01:47Z</time>
      </trkpt>
      <trkpt lat="49.57654" lon="-1.79525">
        <ele>75</ele>
        <time>2020-06-14T18:01:48Z</time>
      </trkpt>
      <trkpt lat="49.57659" lon="-1.79529">
        <ele>75.4</ele>
        <time>2020-06-14T18:01:49Z</time>
      </trkpt>
      <trkpt lat="49.57663" lon="-1.79533">
        <ele>75.6</ele>
        <time>2020-06-14T18:01:50Z</time>
      </trkpt>
      <trkpt lat="49.57667" lon="-1.79535">
        <ele>75.9</ele>
        <time>2020-06-14T18:01:51Z</time>
      </trkpt>
      <trkpt lat="49.57671" lon="-1.79537">
        <ele>76.1</ele>
        <time>2020-06-14T18:01:52Z</time>
      </trkpt>
      <trkpt lat="49.57673" lon="-1.79539">
        <ele>76.3</ele>
        <time>2020-06-14T18:01:53Z</time>
      </trkpt>
      <trkpt lat="49.57677" lon="-1.79541">
        <ele>76.5</ele>
        <time>2020-06-14T18:01:54Z</time>
      </trkpt>
      <trkpt lat="49.57681" lon="-1.79544">
        <ele>76.7</ele>
        <time>2020-06-14T18:01:55Z</time>
      </trkpt>
      <trkpt lat="49.57685" lon="-1.79547">
        <ele>77</ele>
        <time>2020-06-14T18:01:56Z</time>
      </trkpt>
      <trkpt lat="49.57688" lon="-1.79548">
        <ele>77.1</ele>
        <time>2020-06-14T18:01:57Z</time>
      </trkpt>
      <trkpt lat="49.5769" lon="-1.79551">
        <ele>77.3</ele>
        <time>2020-06-14T18:01:58Z</time>
      </trkpt>
      <trkpt lat="49.57694" lon="-1.79554">
        <ele>77.6</ele>
        <time>2020-06-14T18:01:59Z</time>
      </trkpt>
      <trkpt lat="49.57696" lon="-1.79555">
        <ele>77.7</ele>
        <time>2020-06-14T18:02:00Z</time>
      </trkpt>
      <trkpt lat="49.57699" lon="-1.79557">
        <ele>77.9</ele>
        <time>2020-06-14T18:02:01Z</time>
      </trkpt>
      <trkpt lat="49.57702" lon="-1.7956">
        <ele>78.1</ele>
        <time>2020-06-14T18:02:02Z</time>
      </trkpt>
      <trkpt lat="49.57706" lon="-1.79563">
        <ele>78.3</ele>
        <time>2020-06-14T18:02:03Z</time>
      </trkpt>
      <trkpt lat="49.57708" lon="-1.79565">
        <ele>78.5</ele>
        <time>2020-06-14T18:02:04Z</time>
      </trkpt>
      <trkpt lat="49.57712" lon="-1.79568">
        <ele>78.8</ele>
        <time>2020-06-14T18:02:05Z</time>
      </trkpt>
      <trkpt lat="49.57715" lon="-1.7957">
        <ele>78.9</ele>
        <time>2020-06-14T18:02:06Z</time>
      </trkpt>
      <trkpt lat="49.57718" lon="-1.79573">
        <ele>79.2</ele>
        <time>2020-06-14T18:02:07Z</time>
      </trkpt>
      <trkpt lat="49.57721" lon="-1.79575">
        <ele>79.3</ele>
        <time>2020-06-14T18:02:08Z</time>
      </trkpt>
      <trkpt lat="49.57725" lon="-1.79578">
        <ele>79.6</ele>
        <time>2020-06-14T18:02:09Z</time>
      </trkpt>
      <trkpt lat="49.57728" lon="-1.7958">
        <ele>79.8</ele>
        <time>2020-06-14T18:02:10Z</time>
      </trkpt>
      <trkpt lat="49.57733" lon="-1.79583">
        <ele>80.1</ele>
        <time>2020-06-14T18:02:11Z</time>
      </trkpt>
      <trkpt lat="49.57736" lon="-1.79585">
        <ele>80.3</ele>
        <time>2020-06-14T18:02:12Z</time>
      </trkpt>
      <trkpt lat="49.57739" lon="-1.79588">
        <ele>80.5</ele>
        <time>2020-06-14T18:02:13Z</time>
      </trkpt>
      <trkpt lat="49.57742" lon="-1.79591">
        <ele>80.7</ele>
        <time>2020-06-14T18:02:14Z</time>
      </trkpt>
      <trkpt lat="49.57745" lon="-1.79592">
        <ele>80.9</ele>
        <time>2020-06-14T18:02:15Z</time>
      </trkpt>
      <trkpt lat="49.57748" lon="-1.79594">
        <ele>81.1</ele>
        <time>2020-06-14T18:02:16Z</time>
      </trkpt>
      <trkpt lat="49.57752" lon="-1.79597">
        <ele>81.4</ele>
        <time>2020-06-14T18:02:17Z</time>
      </trkpt>
      <trkpt lat="49.57757" lon="-1.796">
        <ele>81.7</ele>
        <time>2020-06-14T18:02:18Z</time>
      </trkpt>
      <trkpt lat="49.5776" lon="-1.79604">
        <ele>81.9</ele>
        <time>2020-06-14T18:02:19Z</time>
      </trkpt>
      <trkpt lat="49.57764" lon="-1.79607">
        <ele>82.2</ele>
        <time>2020-06-14T18:02:20Z</time>
      </trkpt>
      <trkpt lat="49.57768" lon="-1.79611">
        <ele>82.5</ele>
        <time>2020-06-14T18:02:21Z</time>
      </trkpt>
      <trkpt lat="49.57772" lon="-1.79613">
        <ele>82.8</ele>
        <time>2020-06-14T18:02:22Z</time>
      </trkpt>
      <trkpt lat="49.57776" lon="-1.79617">
        <ele>83</ele>
        <time>2020-06-14T18:02:23Z</time>
      </trkpt>
      <trkpt lat="49.57779" lon="-1.79619">
        <ele>83.3</ele>
        <time>2020-06-14T18:02:24Z</time>
      </trkpt>
      <trkpt lat="49.57783" lon="-1.79621">
        <ele>83.5</ele>
        <time>2020-06-14T18:02:25Z</time>
      </trkpt>
      <trkpt lat="49.57787" lon="-1.79623">
        <ele>83.7</ele>
        <time>2020-06-14T18:02:26Z</time>
      </trkpt>
      <trkpt lat="49.57791" lon="-1.79625">
        <ele>83.9</ele>
        <time>2020-06-14T18:02:27Z</time>
      </trkpt>
      <trkpt lat="49.57794" lon="-1.79628">
        <ele>84.1</ele>
        <time>2020-06-14T18:02:28Z</time>
      </trkpt>
      <trkpt lat="49.57797" lon="-1.7963">
        <ele>84.3</ele>
        <time>2020-06-14T18:02:29Z</time>
      </trkpt>
      <trkpt lat="49.57801" lon="-1.79632">
        <ele>84.5</ele>
        <time>2020-06-14T18:02:30Z</time>
      </trkpt>
      <trkpt lat="49.57805" lon="-1.79635">
        <ele>84.8</ele>
        <time>2020-06-14T18:02:31Z</time>
      </trkpt>
      <trkpt lat="49.57809" lon="-1.79638">
        <ele>85</ele>
        <time>2020-06-14T18:02:32Z</time>
      </trkpt>
      <trkpt lat="49.57813" lon="-1.79641">
        <ele>85.2</ele>
        <time>2020-06-14T18:02:33Z</time>
      </trkpt>
      <trkpt lat="49.57817" lon="-1.79644">
        <ele>85.4</ele>
        <time>2020-06-14T18:02:34Z</time>
      </trkpt>
      <trkpt lat="49.5782" lon="-1.79646">
        <ele>85.6</ele>
        <time>2020-06-14T18:02:35Z</time>
      </trkpt>
      <trkpt lat="49.57824" lon="-1.79649">
        <ele>85.8</ele>
        <time>2020-06-14T18:02:36Z</time>
      </trkpt>
      <trkpt lat="49.57827" lon="-1.79651">
        <ele>85.9</ele>
        <time>2020-06-14T18:02:37Z</time>
      </trkpt>
      <trkpt lat="49.5783" lon="-1.79654">
        <ele>86.1</ele>
        <time>2020-06-14T18:02:38Z</time>
      </trkpt>
      <trkpt lat="49.57834" lon="-1.79656">
        <ele>86.3</ele>
        <time>2020-06-14T18:02:39Z</time>
      </trkpt>
      <trkpt lat="49.57838" lon="-1.79659">
        <ele>86.5</ele>
        <time>2020-06-14T18:02:40Z</time>
      </trkpt>
      <trkpt lat="49.57842" lon="-1.79661">
        <ele>86.6</ele>
        <time>2020-06-14T18:02:41Z</time>
      </trkpt>
      <trkpt lat="49.57845" lon="-1.79664">
        <ele>86.7</ele>
        <time>2020-06-14T18:02:42Z</time>
      </trkpt>
      <trkpt lat="49.57848" lon="-1.79667">
        <ele>86.9</ele>
        <time>2020-06-14T18:02:43Z</time>
      </trkpt>
      <trkpt lat="49.57853" lon="-1.79669">
        <ele>87</ele>
        <time>2020-06-14T18:02:44Z</time>
      </trkpt>
      <trkpt lat="49.57857" lon="-1.79672">
        <ele>87.2</ele>
        <time>2020-06-14T18:02:45Z</time>
      </trkpt>
      <trkpt lat="49.57862" lon="-1.79674">
        <ele>87.3</ele>
        <time>2020-06-14T18:02:46Z</time>
      </trkpt>
      <trkpt lat="49.57866" lon="-1.79677">
        <ele>87.4</ele>
        <time>2020-06-14T18:02:47Z</time>
      </trkpt>
      <trkpt lat="49.5787" lon="-1.7968">
        <ele>87.5</ele>
        <time>2020-06-14T18:02:48Z</time>
      </trkpt>
      <trkpt lat="49.57874" lon="-1.79682">
        <ele>87.6</ele>
        <time>2020-06-14T18:02:49Z</time>
      </trkpt>
      <trkpt lat="49.57877" lon="-1.79685">
        <ele>87.7</ele>
        <time>2020-06-14T18:02:50Z</time>
      </trkpt>
      <trkpt lat="49.57881" lon="-1.79687">
        <ele>87.8</ele>
        <time>2020-06-14T18:02:51Z</time>
      </trkpt>
      <trkpt lat="49.57884" lon="-1.7969">
        <ele>87.9</ele>
        <time>2020-06-14T18:02:52Z</time>
      </trkpt>
      <trkpt lat="49.57888" lon="-1.79693">
        <ele>88.1</ele>
        <time>2020-06-14T18:02:53Z</time>
      </trkpt>
      <trkpt lat="49.5789" lon="-1.79695">
        <ele>88.2</ele>
        <time>2020-06-14T18:02:54Z</time>
      </trkpt>
      <trkpt lat="49.57893" lon="-1.79697">
        <ele>88.3</ele>
        <time>2020-06-14T18:02:55Z</time>
      </trkpt>
      <trkpt lat="49.57897" lon="-1.79699">
        <ele>88.4</ele>
        <time>2020-06-14T18:02:56Z</time>
      </trkpt>
      <trkpt lat="49.579" lon="-1.79701">
        <ele>88.5</ele>
        <time>2020-06-14T18:02:57Z</time>
      </trkpt>
      <trkpt lat="49.57904" lon="-1.79704">
        <ele>88.6</ele>
        <time>2020-06-14T18:02:58Z</time>
      </trkpt>
      <trkpt lat="49.57909" lon="-1.79709">
        <ele>88.8</ele>
        <time>2020-06-14T18:02:59Z</time>
      </trkpt>
      <trkpt lat="49.57913" lon="-1.79712">
        <ele>88.9</ele>
        <time>2020-06-14T18:03:00Z</time>
      </trkpt>
      <trkpt lat="49.57917" lon="-1.79714">
        <ele>89</ele>
        <time>2020-06-14T18:03:01Z</time>
      </trkpt>
      <trkpt lat="49.57921" lon="-1.79716">
        <ele>89.1</ele>
        <time>2020-06-14T18:03:02Z</time>
      </trkpt>
      <trkpt lat="49.57924" lon="-1.79719">
        <ele>89.2</ele>
        <time>2020-06-14T18:03:03Z</time>
      </trkpt>
      <trkpt lat="49.57928" lon="-1.79722">
        <ele>89.3</ele>
        <time>2020-06-14T18:03:04Z</time>
      </trkpt>
      <trkpt lat="49.57931" lon="-1.79725">
        <ele>89.4</ele>
        <time>2020-06-14T18:03:05Z</time>
      </trkpt>
      <trkpt lat="49.57935" lon="-1.79728">
        <ele>89.5</ele>
        <time>2020-06-14T18:03:06Z</time>
      </trkpt>
      <trkpt lat="49.57938" lon="-1.7973">
        <ele>89.6</ele>
        <time>2020-06-14T18:03:07Z</time>
      </trkpt>
      <trkpt lat="49.57941" lon="-1.79732">
        <ele>89.7</ele>
        <time>2020-06-14T18:03:08Z</time>
      </trkpt>
      <trkpt lat="49.57945" lon="-1.79734">
        <ele>89.7</ele>
        <time>2020-06-14T18:03:09Z</time>
      </trkpt>
      <trkpt lat="49.57949" lon="-1.79737">
        <ele>89.8</ele>
        <time>2020-06-14T18:03:10Z</time>
      </trkpt>
      <trkpt lat="49.57953" lon="-1.7974">
        <ele>89.9</ele>
        <time>2020-06-14T18:03:11Z</time>
      </trkpt>
      <trkpt lat="49.57957" lon="-1.79742">
        <ele>89.9</ele>
        <time>2020-06-14T18:03:12Z</time>
      </trkpt>
      <trkpt lat="49.57961" lon="-1.79745">
        <ele>90</ele>
        <time>2020-06-14T18:03:13Z</time>
      </trkpt>
      <trkpt lat="49.57965" lon="-1.79748">
        <ele>90.1</ele>
        <time>2020-06-14T18:03:14Z</time>
      </trkpt>
      <trkpt lat="49.5797" lon="-1.79752">
        <ele>90.1</ele>
        <time>2020-06-14T18:03:15Z</time>
      </trkpt>
      <trkpt lat="49.57974" lon="-1.79755">
        <ele>90.2</ele>
        <time>2020-06-14T18:03:16Z</time>
      </trkpt>
      <trkpt lat="49.57978" lon="-1.79757">
        <ele>90.2</ele>
        <time>2020-06-14T18:03:17Z</time>
      </trkpt>
      <trkpt lat="49.57981" lon="-1.7976">
        <ele>90.2</ele>
        <time>2020-06-14T18:03:18Z</time>
      </trkpt>
      <trkpt lat="49.57986" lon="-1.79763">
        <ele>90.3</ele>
        <time>2020-06-14T18:03:19Z</time>
      </trkpt>
      <trkpt lat="49.5799" lon="-1.79766">
        <ele>90.4</ele>
        <time>2020-06-14T18:03:20Z</time>
      </trkpt>
      <trkpt lat="49.57993" lon="-1.79769">
        <ele>90.4</ele>
        <time>2020-06-14T18:03:21Z</time>
      </trkpt>
      <trkpt lat="49.57996" lon="-1.79771">
        <ele>90.4</ele>
        <time>2020-06-14T18:03:22Z</time>
      </trkpt>
      <trkpt lat="49.57999" lon="-1.79774">
        <ele>90.5</ele>
        <time>2020-06-14T18:03:23Z</time>
      </trkpt>
      <trkpt lat="49.58003" lon="-1.79778">
        <ele>90.5</ele>
        <time>2020-06-14T18:03:24Z</time>
      </trkpt>
      <trkpt lat="49.58007" lon="-1.79782">
        <ele>90.5</ele>
        <time>2020-06-14T18:03:25Z</time>
      </trkpt>
      <trkpt lat="49.58011" lon="-1.79786">
        <ele>90.5</ele>
        <time>2020-06-14T18:03:26Z</time>
      </trkpt>
      <trkpt lat="49.58015" lon="-1.7979">
        <ele>90.5</ele>
        <time>2020-06-14T18:03:27Z</time>
      </trkpt>
      <trkpt lat="49.5802" lon="-1.79794">
        <ele>90.4</ele>
        <time>2020-06-14T18:03:28Z</time>
      </trkpt>
      <trkpt lat="49.58024" lon="-1.79798">
        <ele>90.3</ele>
        <time>2020-06-14T18:03:29Z</time>
      </trkpt>
      <trkpt lat="49.58028" lon="-1.79801">
        <ele>90.3</ele>
        <time>2020-06-14T18:03:30Z</time>
      </trkpt>
      <trkpt lat="49.58032" lon="-1.79805">
        <ele>90.3</ele>
        <time>2020-06-14T18:03:31Z</time>
      </trkpt>
      <trkpt lat="49.58035" lon="-1.79809">
        <ele>90.2</ele>
        <time>2020-06-14T18:03:32Z</time>
      </trkpt>
      <trkpt lat="49.58039" lon="-1.79814">
        <ele>90.1</ele>
        <time>2020-06-14T18:03:33Z</time>
      </trkpt>
      <trkpt lat="49.58043" lon="-1.79818">
        <ele>90.1</ele>
        <time>2020-06-14T18:03:34Z</time>
      </trkpt>
      <trkpt lat="49.58047" lon="-1.79822">
        <ele>89.9</ele>
        <time>2020-06-14T18:03:35Z</time>
      </trkpt>
      <trkpt lat="49.58052" lon="-1.79827">
        <ele>89.8</ele>
        <time>2020-06-14T18:03:36Z</time>
      </trkpt>
      <trkpt lat="49.58056" lon="-1.79833">
        <ele>89.7</ele>
        <time>2020-06-14T18:03:37Z</time>
      </trkpt>
      <trkpt lat="49.58059" lon="-1.79838">
        <ele>89.6</ele>
        <time>2020-06-14T18:03:38Z</time>
      </trkpt>
      <trkpt lat="49.58064" lon="-1.79842">
        <ele>89.4</ele>
        <time>2020-06-14T18:03:39Z</time>
      </trkpt>
      <trkpt lat="49.58067" lon="-1.79846">
        <ele>89.3</ele>
        <time>2020-06-14T18:03:40Z</time>
      </trkpt>
      <trkpt lat="49.58071" lon="-1.79849">
        <ele>89.2</ele>
        <time>2020-06-14T18:03:41Z</time>
      </trkpt>
      <trkpt lat="49.58075" lon="-1.79852">
        <ele>89.1</ele>
        <time>2020-06-14T18:03:42Z</time>
      </trkpt>
      <trkpt lat="49.5808" lon="-1.79855">
        <ele>89</ele>
        <time>2020-06-14T18:03:43Z</time>
      </trkpt>
      <trkpt lat="49.58085" lon="-1.79857">
        <ele>88.8</ele>
        <time>2020-06-14T18:03:44Z</time>
      </trkpt>
      <trkpt lat="49.5809" lon="-1.79859">
        <ele>88.6</ele>
        <time>2020-06-14T18:03:45Z</time>
      </trkpt>
      <trkpt lat="49.58096" lon="-1.7986">
        <ele>88.2</ele>
        <time>2020-06-14T18:03:46Z</time>
      </trkpt>
      <trkpt lat="49.58102" lon="-1.7986">
        <ele>87.8</ele>
        <time>2020-06-14T18:03:47Z</time>
      </trkpt>
      <trkpt lat="49.58108" lon="-1.79861">
        <ele>87.3</ele>
        <time>2020-06-14T18:03:48Z</time>
      </trkpt>
      <trkpt lat="49.58115" lon="-1.79859">
        <ele>86.7</ele>
        <time>2020-06-14T18:03:49Z</time>
      </trkpt>
      <trkpt lat="49.58122" lon="-1.79857">
        <ele>86.2</ele>
        <time>2020-06-14T18:03:50Z</time>
      </trkpt>
      <trkpt lat="49.58129" lon="-1.79854">
        <ele>85.7</ele>
        <time>2020-06-14T18:03:51Z</time>
      </trkpt>
      <trkpt lat="49.58137" lon="-1.79849">
        <ele>85</ele>
        <time>2020-06-14T18:03:52Z</time>
      </trkpt>
      <trkpt lat="49.58145" lon="-1.79844">
        <ele>84.5</ele>
        <time>2020-06-14T18:03:53Z</time>
      </trkpt>
      <trkpt lat="49.58152" lon="-1.79839">
        <ele>84.2</ele>
        <time>2020-06-14T18:03:54Z</time>
      </trkpt>
      <trkpt lat="49.5816" lon="-1.79834">
        <ele>83.9</ele>
        <time>2020-06-14T18:03:55Z</time>
      </trkpt>
      <trkpt lat="49.58167" lon="-1.7983">
        <ele>83.8</ele>
        <time>2020-06-14T18:03:56Z</time>
      </trkpt>
      <trkpt lat="49.58173" lon="-1.79826">
        <ele>83.8</ele>
        <time>2020-06-14T18:03:57Z</time>
      </trkpt>
      <trkpt lat="49.5818" lon="-1.79822">
        <ele>83.9</ele>
        <time>2020-06-14T18:03:58Z</time>
      </trkpt>
      <trkpt lat="49.58188" lon="-1.79819">
        <ele>84.1</ele>
        <time>2020-06-14T18:03:59Z</time>
      </trkpt>
      <trkpt lat="49.58194" lon="-1.79815">
        <ele>84.3</ele>
        <time>2020-06-14T18:04:00Z</time>
      </trkpt>
      <trkpt lat="49.582" lon="-1.79812">
        <ele>84.7</ele>
        <time>2020-06-14T18:04:01Z</time>
      </trkpt>
      <trkpt lat="49.58206" lon="-1.79808">
        <ele>85</ele>
        <time>2020-06-14T18:04:02Z</time>
      </trkpt>
      <trkpt lat="49.58211" lon="-1.79803">
        <ele>85.4</ele>
        <time>2020-06-14T18:04:03Z</time>
      </trkpt>
      <trkpt lat="49.58215" lon="-1.79797">
        <ele>85.8</ele>
        <time>2020-06-14T18:04:04Z</time>
      </trkpt>
      <trkpt lat="49.5822" lon="-1.79794">
        <ele>86.2</ele>
        <time>2020-06-14T18:04:05Z</time>
      </trkpt>
      <trkpt lat="49.58225" lon="-1.79791">
        <ele>86.6</ele>
        <time>2020-06-14T18:04:06Z</time>
      </trkpt>
      <trkpt lat="49.5823" lon="-1.79789">
        <ele>87</ele>
        <time>2020-06-14T18:04:07Z</time>
      </trkpt>
      <trkpt lat="49.58235" lon="-1.79788">
        <ele>87.4</ele>
        <time>2020-06-14T18:04:08Z</time>
      </trkpt>
      <trkpt lat="49.5824" lon="-1.79786">
        <ele>87.8</ele>
        <time>2020-06-14T18:04:09Z</time>
      </trkpt>
      <trkpt lat="49.58244" lon="-1.79783">
        <ele>88.2</ele>
        <time>2020-06-14T18:04:10Z</time>
      </trkpt>
      <trkpt lat="49.58248" lon="-1.79781">
        <ele>88.5</ele>
        <time>2020-06-14T18:04:11Z</time>
      </trkpt>
      <trkpt lat="49.58252" lon="-1.79778">
        <ele>88.8</ele>
        <time>2020-06-14T18:04:12Z</time>
      </trkpt>
      <trkpt lat="49.58257" lon="-1.79776">
        <ele>89.2</ele>
        <time>2020-06-14T18:04:13Z</time>
      </trkpt>
      <trkpt lat="49.58261" lon="-1.79773">
        <ele>89.6</ele>
        <time>2020-06-14T18:04:14Z</time>
      </trkpt>
      <trkpt lat="49.58266" lon="-1.7977">
        <ele>89.9</ele>
        <time>2020-06-14T18:04:15Z</time>
      </trkpt>
      <trkpt lat="49.5827" lon="-1.79768">
        <ele>90.3</ele>
        <time>2020-06-14T18:04:16Z</time>
      </trkpt>
      <trkpt lat="49.58274" lon="-1.79767">
        <ele>90.6</ele>
        <time>2020-06-14T18:04:17Z</time>
      </trkpt>
      <trkpt lat="49.58278" lon="-1.79764">
        <ele>91</ele>
        <time>2020-06-14T18:04:18Z</time>
      </trkpt>
      <trkpt lat="49.58282" lon="-1.79762">
        <ele>91.3</ele>
        <time>2020-06-14T18:04:19Z</time>
      </trkpt>
      <trkpt lat="49.58286" lon="-1.7976">
        <ele>91.6</ele>
        <time>2020-06-14T18:04:20Z</time>
      </trkpt>
      <trkpt lat="49.5829" lon="-1.79756">
        <ele>92</ele>
        <time>2020-06-14T18:04:21Z</time>
      </trkpt>
      <trkpt lat="49.58293" lon="-1.79754">
        <ele>92.2</ele>
        <time>2020-06-14T18:04:22Z</time>
      </trkpt>
      <trkpt lat="49.58296" lon="-1.79752">
        <ele>92.5</ele>
        <time>2020-06-14T18:04:23Z</time>
      </trkpt>
      <trkpt lat="49.58299" lon="-1.79749">
        <ele>92.8</ele>
        <time>2020-06-14T18:04:24Z</time>
      </trkpt>
      <trkpt lat="49.58303" lon="-1.79744">
        <ele>93.2</ele>
        <time>2020-06-14T18:04:25Z</time>
      </trkpt>
      <trkpt lat="49.58306" lon="-1.79741">
        <ele>93.5</ele>
        <time>2020-06-14T18:04:26Z</time>
      </trkpt>
      <trkpt lat="49.58309" lon="-1.79738">
        <ele>93.7</ele>
        <time>2020-06-14T18:04:27Z</time>
      </trkpt>
      <trkpt lat="49.58312" lon="-1.79735">
        <ele>94</ele>
        <time>2020-06-14T18:04:28Z</time>
      </trkpt>
      <trkpt lat="49.58317" lon="-1.79731">
        <ele>94.4</ele>
        <time>2020-06-14T18:04:29Z</time>
      </trkpt>
      <trkpt lat="49.5832" lon="-1.79729">
        <ele>94.6</ele>
        <time>2020-06-14T18:04:30Z</time>
      </trkpt>
      <trkpt lat="49.58321" lon="-1.79728">
        <ele>94.7</ele>
        <time>2020-06-14T18:04:31Z</time>
      </trkpt>
      <trkpt lat="49.58325" lon="-1.79723">
        <ele>95</ele>
        <time>2020-06-14T18:04:32Z</time>
      </trkpt>
      <trkpt lat="49.58328" lon="-1.79721">
        <ele>95.2</ele>
        <time>2020-06-14T18:04:33Z</time>
      </trkpt>
      <trkpt lat="49.58333" lon="-1.79717">
        <ele>95.5</ele>
        <time>2020-06-14T18:04:34Z</time>
      </trkpt>
      <trkpt lat="49.58336" lon="-1.79714">
        <ele>95.7</ele>
        <time>2020-06-14T18:04:35Z</time>
      </trkpt>
      <trkpt lat="49.5834" lon="-1.79712">
        <ele>95.9</ele>
        <time>2020-06-14T18:04:36Z</time>
      </trkpt>
      <trkpt lat="49.58342" lon="-1.7971">
        <ele>96.1</ele>
        <time>2020-06-14T18:04:37Z</time>
      </trkpt>
      <trkpt lat="49.58345" lon="-1.79707">
        <ele>96.2</ele>
        <time>2020-06-14T18:04:38Z</time>
      </trkpt>
      <trkpt lat="49.58346" lon="-1.79706">
        <ele>96.3</ele>
        <time>2020-06-14T18:04:39Z</time>
      </trkpt>
      <trkpt lat="49.58349" lon="-1.79703">
        <ele>96.5</ele>
        <time>2020-06-14T18:04:40Z</time>
      </trkpt>
      <trkpt lat="49.58352" lon="-1.797">
        <ele>96.6</ele>
        <time>2020-06-14T18:04:41Z</time>
      </trkpt>
      <trkpt lat="49.58353" lon="-1.79698">
        <ele>96.7</ele>
        <time>2020-06-14T18:04:42Z</time>
      </trkpt>
      <trkpt lat="49.58355" lon="-1.79695">
        <ele>96.8</ele>
        <time>2020-06-14T18:04:43Z</time>
      </trkpt>
      <trkpt lat="49.58359" lon="-1.79691">
        <ele>97</ele>
        <time>2020-06-14T18:04:44Z</time>
      </trkpt>
      <trkpt lat="49.5836" lon="-1.7969">
        <ele>97</ele>
        <time>2020-06-14T18:04:45Z</time>
      </trkpt>
      <trkpt lat="49.58363" lon="-1.79688">
        <ele>97.2</ele>
        <time>2020-06-14T18:04:46Z</time>
      </trkpt>
      <trkpt lat="49.58364" lon="-1.79687">
        <ele>97.2</ele>
        <time>2020-06-14T18:04:47Z</time>
      </trkpt>
      <trkpt lat="49.58366" lon="-1.79684">
        <ele>97.2</ele>
        <time>2020-06-14T18:04:48Z</time>
      </trkpt>
      <trkpt lat="49.58366" lon="-1.79683">
        <ele>97.3</ele>
        <time>2020-06-14T18:04:49Z</time>
      </trkpt>
      <trkpt lat="49.58367" lon="-1.79682">
        <ele>97.3</ele>
        <time>2020-06-14T18:04:50Z</time>
      </trkpt>
      <trkpt lat="49.58369" lon="-1.79681">
        <ele>97.4</ele>
        <time>2020-06-14T18:04:51Z</time>
      </trkpt>
      <trkpt lat="49.5837" lon="-1.7968">
        <ele>97.5</ele>
        <time>2020-06-14T18:04:52Z</time>
      </trkpt>
      <trkpt lat="49.58373" lon="-1.79676">
        <ele>97.6</ele>
        <time>2020-06-14T18:04:53Z</time>
      </trkpt>
      <trkpt lat="49.58376" lon="-1.79673">
        <ele>97.7</ele>
        <time>2020-06-14T18:04:54Z</time>
      </trkpt>
      <trkpt lat="49.58379" lon="-1.79671">
        <ele>97.7</ele>
        <time>2020-06-14T18:04:55Z</time>
      </trkpt>
      <trkpt lat="49.5838" lon="-1.79667">
        <ele>97.8</ele>
        <time>2020-06-14T18:04:56Z</time>
      </trkpt>
      <trkpt lat="49.58382" lon="-1.79664">
        <ele>97.9</ele>
        <time>2020-06-14T18:04:57Z</time>
      </trkpt>
      <trkpt lat="49.58385" lon="-1.79658">
        <ele>97.9</ele>
        <time>2020-06-14T18:04:58Z</time>
      </trkpt>
      <trkpt lat="49.58387" lon="-1.79654">
        <ele>98</ele>
        <time>2020-06-14T18:04:59Z</time>
      </trkpt>
      <trkpt lat="49.58391" lon="-1.79647">
        <ele>98</ele>
        <time>2020-06-14T18:05:00Z</time>
      </trkpt>
      <trkpt lat="49.58394" lon="-1.79641">
        <ele>98.1</ele>
        <time>2020-06-14T18:05:01Z</time>
      </trkpt>
      <trkpt lat="49.58396" lon="-1.79636">
        <ele>98.1</ele>
        <time>2020-06-14T18:05:02Z</time>
      </trkpt>
      <trkpt lat="49.58398" lon="-1.7963">
        <ele>98.2</ele>
        <time>2020-06-14T18:05:03Z</time>
      </trkpt>
      <trkpt lat="49.584" lon="-1.79625">
        <ele>98.2</ele>
        <time>2020-06-14T18:05:04Z</time>
      </trkpt>
      <trkpt lat="49.58402" lon="-1.79621">
        <ele>98.3</ele>
        <time>2020-06-14T18:05:05Z</time>
      </trkpt>
      <trkpt lat="49.58405" lon="-1.79616">
        <ele>98.3</ele>
        <time>2020-06-14T18:05:06Z</time>
      </trkpt>
      <trkpt lat="49.58408" lon="-1.79611">
        <ele>98.4</ele>
        <time>2020-06-14T18:05:07Z</time>
      </trkpt>
      <trkpt lat="49.5841" lon="-1.79603">
        <ele>98.4</ele>
        <time>2020-06-14T18:05:08Z</time>
      </trkpt>
      <trkpt lat="49.58413" lon="-1.79598">
        <ele>98.5</ele>
        <time>2020-06-14T18:05:09Z</time>
      </trkpt>
      <trkpt lat="49.58416" lon="-1.79592">
        <ele>98.6</ele>
        <time>2020-06-14T18:05:10Z</time>
      </trkpt>
      <trkpt lat="49.58418" lon="-1.79587">
        <ele>98.6</ele>
        <time>2020-06-14T18:05:11Z</time>
      </trkpt>
      <trkpt lat="49.58421" lon="-1.79583">
        <ele>98.7</ele>
        <time>2020-06-14T18:05:12Z</time>
      </trkpt>
      <trkpt lat="49.58423" lon="-1.79578">
        <ele>98.8</ele>
        <time>2020-06-14T18:05:13Z</time>
      </trkpt>
      <trkpt lat="49.58426" lon="-1.79573">
        <ele>98.8</ele>
        <time>2020-06-14T18:05:14Z</time>
      </trkpt>
      <trkpt lat="49.58429" lon="-1.79568">
        <ele>98.9</ele>
        <time>2020-06-14T18:05:15Z</time>
      </trkpt>
      <trkpt lat="49.58431" lon="-1.79563">
        <ele>98.9</ele>
        <time>2020-06-14T18:05:16Z</time>
      </trkpt>
      <trkpt lat="49.58434" lon="-1.79559">
        <ele>98.9</ele>
        <time>2020-06-14T18:05:17Z</time>
      </trkpt>
      <trkpt lat="49.58437" lon="-1.79552">
        <ele>99</ele>
        <time>2020-06-14T18:05:18Z</time>
      </trkpt>
      <trkpt lat="49.5844" lon="-1.79548">
        <ele>99</ele>
        <time>2020-06-14T18:05:19Z</time>
      </trkpt>
      <trkpt lat="49.58443" lon="-1.79542">
        <ele>99</ele>
        <time>2020-06-14T18:05:20Z</time>
      </trkpt>
      <trkpt lat="49.58445" lon="-1.79536">
        <ele>99.1</ele>
        <time>2020-06-14T18:05:21Z</time>
      </trkpt>
      <trkpt lat="49.58447" lon="-1.79531">
        <ele>99.1</ele>
        <time>2020-06-14T18:05:22Z</time>
      </trkpt>
      <trkpt lat="49.58448" lon="-1.79527">
        <ele>99.1</ele>
        <time>2020-06-14T18:05:23Z</time>
      </trkpt>
      <trkpt lat="49.58451" lon="-1.79522">
        <ele>99.2</ele>
        <time>2020-06-14T18:05:24Z</time>
      </trkpt>
      <trkpt lat="49.58454" lon="-1.79518">
        <ele>99.2</ele>
        <time>2020-06-14T18:05:25Z</time>
      </trkpt>
      <trkpt lat="49.58457" lon="-1.79512">
        <ele>99.2</ele>
        <time>2020-06-14T18:05:26Z</time>
      </trkpt>
      <trkpt lat="49.5846" lon="-1.79507">
        <ele>99.3</ele>
        <time>2020-06-14T18:05:27Z</time>
      </trkpt>
      <trkpt lat="49.58463" lon="-1.79503">
        <ele>99.3</ele>
        <time>2020-06-14T18:05:28Z</time>
      </trkpt>
      <trkpt lat="49.58465" lon="-1.79497">
        <ele>99.3</ele>
        <time>2020-06-14T18:05:29Z</time>
      </trkpt>
      <trkpt lat="49.58468" lon="-1.79491">
        <ele>99.4</ele>
        <time>2020-06-14T18:05:30Z</time>
      </trkpt>
      <trkpt lat="49.58472" lon="-1.79486">
        <ele>99.4</ele>
        <time>2020-06-14T18:05:31Z</time>
      </trkpt>
      <trkpt lat="49.58476" lon="-1.7948">
        <ele>99.5</ele>
        <time>2020-06-14T18:05:32Z</time>
      </trkpt>
      <trkpt lat="49.58479" lon="-1.79475">
        <ele>99.6</ele>
        <time>2020-06-14T18:05:33Z</time>
      </trkpt>
      <trkpt lat="49.58482" lon="-1.79469">
        <ele>99.6</ele>
        <time>2020-06-14T18:05:34Z</time>
      </trkpt>
      <trkpt lat="49.58485" lon="-1.79464">
        <ele>99.7</ele>
        <time>2020-06-14T18:05:35Z</time>
      </trkpt>
      <trkpt lat="49.58488" lon="-1.79458">
        <ele>99.8</ele>
        <time>2020-06-14T18:05:36Z</time>
      </trkpt>
      <trkpt lat="49.5849" lon="-1.79452">
        <ele>99.9</ele>
        <time>2020-06-14T18:05:37Z</time>
      </trkpt>
      <trkpt lat="49.58493" lon="-1.79447">
        <ele>99.9</ele>
        <time>2020-06-14T18:05:38Z</time>
      </trkpt>
      <trkpt lat="49.58496" lon="-1.79442">
        <ele>99.9</ele>
        <time>2020-06-14T18:05:39Z</time>
      </trkpt>
      <trkpt lat="49.58499" lon="-1.79436">
        <ele>99.9</ele>
        <time>2020-06-14T18:05:40Z</time>
      </trkpt>
      <trkpt lat="49.58502" lon="-1.79431">
        <ele>99.8</ele>
        <time>2020-06-14T18:05:41Z</time>
      </trkpt>
      <trkpt lat="49.58506" lon="-1.79426">
        <ele>99.8</ele>
        <time>2020-06-14T18:05:42Z</time>
      </trkpt>
      <trkpt lat="49.58508" lon="-1.79421">
        <ele>99.8</ele>
        <time>2020-06-14T18:05:43Z</time>
      </trkpt>
      <trkpt lat="49.58511" lon="-1.79417">
        <ele>99.8</ele>
        <time>2020-06-14T18:05:44Z</time>
      </trkpt>
      <trkpt lat="49.58513" lon="-1.79411">
        <ele>99.9</ele>
        <time>2020-06-14T18:05:45Z</time>
      </trkpt>
      <trkpt lat="49.58516" lon="-1.79405">
        <ele>99.9</ele>
        <time>2020-06-14T18:05:46Z</time>
      </trkpt>
      <trkpt lat="49.58519" lon="-1.79397">
        <ele>99.9</ele>
        <time>2020-06-14T18:05:47Z</time>
      </trkpt>
      <trkpt lat="49.58523" lon="-1.79392">
        <ele>99.9</ele>
        <time>2020-06-14T18:05:48Z</time>
      </trkpt>
      <trkpt lat="49.58526" lon="-1.79386">
        <ele>99.9</ele>
        <time>2020-06-14T18:05:49Z</time>
      </trkpt>
      <trkpt lat="49.58529" lon="-1.7938">
        <ele>99.9</ele>
        <time>2020-06-14T18:05:50Z</time>
      </trkpt>
      <trkpt lat="49.58532" lon="-1.79375">
        <ele>100</ele>
        <time>2020-06-14T18:05:51Z</time>
      </trkpt>
      <trkpt lat="49.58536" lon="-1.79369">
        <ele>100</ele>
        <time>2020-06-14T18:05:52Z</time>
      </trkpt>
      <trkpt lat="49.58539" lon="-1.79363">
        <ele>100</ele>
        <time>2020-06-14T18:05:53Z</time>
      </trkpt>
      <trkpt lat="49.58542" lon="-1.79357">
        <ele>100</ele>
        <time>2020-06-14T18:05:54Z</time>
      </trkpt>
      <trkpt lat="49.58545" lon="-1.79352">
        <ele>100</ele>
        <time>2020-06-14T18:05:55Z</time>
      </trkpt>
      <trkpt lat="49.58548" lon="-1.79347">
        <ele>100</ele>
        <time>2020-06-14T18:05:56Z</time>
      </trkpt>
      <trkpt lat="49.58551" lon="-1.79342">
        <ele>100.1</ele>
        <time>2020-06-14T18:05:57Z</time>
      </trkpt>
      <trkpt lat="49.58553" lon="-1.79336">
        <ele>100.1</ele>
        <time>2020-06-14T18:05:58Z</time>
      </trkpt>
      <trkpt lat="49.58557" lon="-1.79328">
        <ele>100.2</ele>
        <time>2020-06-14T18:05:59Z</time>
      </trkpt>
      <trkpt lat="49.5856" lon="-1.79322">
        <ele>100.2</ele>
        <time>2020-06-14T18:06:00Z</time>
      </trkpt>
      <trkpt lat="49.58564" lon="-1.79316">
        <ele>100.3</ele>
        <time>2020-06-14T18:06:01Z</time>
      </trkpt>
      <trkpt lat="49.58567" lon="-1.7931">
        <ele>100.4</ele>
        <time>2020-06-14T18:06:02Z</time>
      </trkpt>
      <trkpt lat="49.5857" lon="-1.79306">
        <ele>100.4</ele>
        <time>2020-06-14T18:06:03Z</time>
      </trkpt>
      <trkpt lat="49.58572" lon="-1.79302">
        <ele>100.5</ele>
        <time>2020-06-14T18:06:04Z</time>
      </trkpt>
      <trkpt lat="49.58575" lon="-1.79297">
        <ele>100.5</ele>
        <time>2020-06-14T18:06:05Z</time>
      </trkpt>
      <trkpt lat="49.58578" lon="-1.79291">
        <ele>100.6</ele>
        <time>2020-06-14T18:06:06Z</time>
      </trkpt>
      <trkpt lat="49.58582" lon="-1.79284">
        <ele>100.6</ele>
        <time>2020-06-14T18:06:07Z</time>
      </trkpt>
      <trkpt lat="49.58585" lon="-1.79278">
        <ele>100.7</ele>
        <time>2020-06-14T18:06:08Z</time>
      </trkpt>
      <trkpt lat="49.58589" lon="-1.79271">
        <ele>100.8</ele>
        <time>2020-06-14T18:06:09Z</time>
      </trkpt>
      <trkpt lat="49.58593" lon="-1.79263">
        <ele>100.9</ele>
        <time>2020-06-14T18:06:10Z</time>
      </trkpt>
      <trkpt lat="49.58597" lon="-1.79256">
        <ele>101</ele>
        <time>2020-06-14T18:06:11Z</time>
      </trkpt>
      <trkpt lat="49.586" lon="-1.79252">
        <ele>101</ele>
        <time>2020-06-14T18:06:12Z</time>
      </trkpt>
      <trkpt lat="49.58603" lon="-1.79246">
        <ele>101.1</ele>
        <time>2020-06-14T18:06:13Z</time>
      </trkpt>
      <trkpt lat="49.58606" lon="-1.79241">
        <ele>101.1</ele>
        <time>2020-06-14T18:06:14Z</time>
      </trkpt>
      <trkpt lat="49.58609" lon="-1.79234">
        <ele>101.2</ele>
        <time>2020-06-14T18:06:15Z</time>
      </trkpt>
      <trkpt lat="49.58611" lon="-1.79228">
        <ele>101.3</ele>
        <time>2020-06-14T18:06:16Z</time>
      </trkpt>
      <trkpt lat="49.58613" lon="-1.79223">
        <ele>101.4</ele>
        <time>2020-06-14T18:06:17Z</time>
      </trkpt>
      <trkpt lat="49.58616" lon="-1.79217">
        <ele>101.5</ele>
        <time>2020-06-14T18:06:18Z</time>
      </trkpt>
      <trkpt lat="49.58619" lon="-1.79212">
        <ele>101.6</ele>
        <time>2020-06-14T18:06:19Z</time>
      </trkpt>
      <trkpt lat="49.58621" lon="-1.79206">
        <ele>101.7</ele>
        <time>2020-06-14T18:06:20Z</time>
      </trkpt>
      <trkpt lat="49.58624" lon="-1.79201">
        <ele>101.8</ele>
        <time>2020-06-14T18:06:21Z</time>
      </trkpt>
      <trkpt lat="49.58627" lon="-1.79196">
        <ele>101.9</ele>
        <time>2020-06-14T18:06:22Z</time>
      </trkpt>
      <trkpt lat="49.58629" lon="-1.79189">
        <ele>102</ele>
        <time>2020-06-14T18:06:23Z</time>
      </trkpt>
      <trkpt lat="49.58632" lon="-1.79182">
        <ele>102.1</ele>
        <time>2020-06-14T18:06:24Z</time>
      </trkpt>
      <trkpt lat="49.58636" lon="-1.79176">
        <ele>102.3</ele>
        <time>2020-06-14T18:06:25Z</time>
      </trkpt>
      <trkpt lat="49.58639" lon="-1.7917">
        <ele>102.4</ele>
        <time>2020-06-14T18:06:26Z</time>
      </trkpt>
      <trkpt lat="49.58642" lon="-1.79165">
        <ele>102.5</ele>
        <time>2020-06-14T18:06:27Z</time>
      </trkpt>
      <trkpt lat="49.58645" lon="-1.7916">
        <ele>102.6</ele>
        <time>2020-06-14T18:06:28Z</time>
      </trkpt>
      <trkpt lat="49.58648" lon="-1.79156">
        <ele>102.7</ele>
        <time>2020-06-14T18:06:29Z</time>
      </trkpt>
      <trkpt lat="49.58652" lon="-1.7915">
        <ele>102.8</ele>
        <time>2020-06-14T18:06:30Z</time>
      </trkpt>
      <trkpt lat="49.58655" lon="-1.79145">
        <ele>102.9</ele>
        <time>2020-06-14T18:06:31Z</time>
      </trkpt>
      <trkpt lat="49.58659" lon="-1.79139">
        <ele>103.1</ele>
        <time>2020-06-14T18:06:32Z</time>
      </trkpt>
      <trkpt lat="49.58662" lon="-1.79133">
        <ele>103.2</ele>
        <time>2020-06-14T18:06:33Z</time>
      </trkpt>
      <trkpt lat="49.58666" lon="-1.79129">
        <ele>103.2</ele>
        <time>2020-06-14T18:06:34Z</time>
      </trkpt>
      <trkpt lat="49.58669" lon="-1.79124">
        <ele>103.3</ele>
        <time>2020-06-14T18:06:35Z</time>
      </trkpt>
      <trkpt lat="49.58674" lon="-1.79121">
        <ele>103.3</ele>
        <time>2020-06-14T18:06:36Z</time>
      </trkpt>
      <trkpt lat="49.58678" lon="-1.79116">
        <ele>103.3</ele>
        <time>2020-06-14T18:06:37Z</time>
      </trkpt>
      <trkpt lat="49.58682" lon="-1.79113">
        <ele>103.3</ele>
        <time>2020-06-14T18:06:38Z</time>
      </trkpt>
      <trkpt lat="49.58686" lon="-1.79108">
        <ele>103.3</ele>
        <time>2020-06-14T18:06:39Z</time>
      </trkpt>
      <trkpt lat="49.58689" lon="-1.79104">
        <ele>103.4</ele>
        <time>2020-06-14T18:06:40Z</time>
      </trkpt>
      <trkpt lat="49.58692" lon="-1.791">
        <ele>103.4</ele>
        <time>2020-06-14T18:06:41Z</time>
      </trkpt>
      <trkpt lat="49.58695" lon="-1.79096">
        <ele>103.5</ele>
        <time>2020-06-14T18:06:42Z</time>
      </trkpt>
      <trkpt lat="49.58699" lon="-1.79093">
        <ele>103.6</ele>
        <time>2020-06-14T18:06:43Z</time>
      </trkpt>
      <trkpt lat="49.58703" lon="-1.79088">
        <ele>103.6</ele>
        <time>2020-06-14T18:06:44Z</time>
      </trkpt>
      <trkpt lat="49.58707" lon="-1.79084">
        <ele>103.7</ele>
        <time>2020-06-14T18:06:45Z</time>
      </trkpt>
      <trkpt lat="49.58711" lon="-1.7908">
        <ele>103.8</ele>
        <time>2020-06-14T18:06:46Z</time>
      </trkpt>
      <trkpt lat="49.58715" lon="-1.79077">
        <ele>103.8</ele>
        <time>2020-06-14T18:06:47Z</time>
      </trkpt>
      <trkpt lat="49.58719" lon="-1.79074">
        <ele>103.8</ele>
        <time>2020-06-14T18:06:48Z</time>
      </trkpt>
      <trkpt lat="49.58722" lon="-1.79069">
        <ele>103.9</ele>
        <time>2020-06-14T18:06:49Z</time>
      </trkpt>
      <trkpt lat="49.58726" lon="-1.79065">
        <ele>103.9</ele>
        <time>2020-06-14T18:06:50Z</time>
      </trkpt>
      <trkpt lat="49.5873" lon="-1.79061">
        <ele>104</ele>
        <time>2020-06-14T18:06:51Z</time>
      </trkpt>
      <trkpt lat="49.58734" lon="-1.79057">
        <ele>104</ele>
        <time>2020-06-14T18:06:52Z</time>
      </trkpt>
      <trkpt lat="49.58739" lon="-1.79052">
        <ele>104</ele>
        <time>2020-06-14T18:06:53Z</time>
      </trkpt>
      <trkpt lat="49.58742" lon="-1.79047">
        <ele>104</ele>
        <time>2020-06-14T18:06:54Z</time>
      </trkpt>
      <trkpt lat="49.58746" lon="-1.79043">
        <ele>104.1</ele>
        <time>2020-06-14T18:06:55Z</time>
      </trkpt>
      <trkpt lat="49.5875" lon="-1.79039">
        <ele>104.1</ele>
        <time>2020-06-14T18:06:56Z</time>
      </trkpt>
      <trkpt lat="49.58755" lon="-1.79034">
        <ele>104.1</ele>
        <time>2020-06-14T18:06:57Z</time>
      </trkpt>
      <trkpt lat="49.58759" lon="-1.7903">
        <ele>104.1</ele>
        <time>2020-06-14T18:06:58Z</time>
      </trkpt>
      <trkpt lat="49.58762" lon="-1.79025">
        <ele>104.1</ele>
        <time>2020-06-14T18:06:59Z</time>
      </trkpt>
      <trkpt lat="49.58767" lon="-1.7902">
        <ele>104.1</ele>
        <time>2020-06-14T18:07:00Z</time>
      </trkpt>
      <trkpt lat="49.58771" lon="-1.79015">
        <ele>104</ele>
        <time>2020-06-14T18:07:01Z</time>
      </trkpt>
      <trkpt lat="49.58775" lon="-1.79011">
        <ele>104</ele>
        <time>2020-06-14T18:07:02Z</time>
      </trkpt>
      <trkpt lat="49.58779" lon="-1.79005">
        <ele>104</ele>
        <time>2020-06-14T18:07:03Z</time>
      </trkpt>
      <trkpt lat="49.58784" lon="-1.78998">
        <ele>104</ele>
        <time>2020-06-14T18:07:04Z</time>
      </trkpt>
      <trkpt lat="49.58787" lon="-1.78992">
        <ele>104</ele>
        <time>2020-06-14T18:07:05Z</time>
      </trkpt>
      <trkpt lat="49.58791" lon="-1.78987">
        <ele>104</ele>
        <time>2020-06-14T18:07:06Z</time>
      </trkpt>
      <trkpt lat="49.58795" lon="-1.78981">
        <ele>104</ele>
        <time>2020-06-14T18:07:07Z</time>
      </trkpt>
      <trkpt lat="49.58799" lon="-1.78975">
        <ele>104</ele>
        <time>2020-06-14T18:07:08Z</time>
      </trkpt>
      <trkpt lat="49.58803" lon="-1.78969">
        <ele>104.1</ele>
        <time>2020-06-14T18:07:09Z</time>
      </trkpt>
      <trkpt lat="49.58806" lon="-1.78963">
        <ele>104.1</ele>
        <time>2020-06-14T18:07:10Z</time>
      </trkpt>
      <trkpt lat="49.5881" lon="-1.78956">
        <ele>104.1</ele>
        <time>2020-06-14T18:07:11Z</time>
      </trkpt>
      <trkpt lat="49.58814" lon="-1.78951">
        <ele>104.2</ele>
        <time>2020-06-14T18:07:12Z</time>
      </trkpt>
      <trkpt lat="49.58818" lon="-1.78945">
        <ele>104.2</ele>
        <time>2020-06-14T18:07:13Z</time>
      </trkpt>
      <trkpt lat="49.58822" lon="-1.78939">
        <ele>104.3</ele>
        <time>2020-06-14T18:07:14Z</time>
      </trkpt>
      <trkpt lat="49.58825" lon="-1.78934">
        <ele>104.4</ele>
        <time>2020-06-14T18:07:15Z</time>
      </trkpt>
      <trkpt lat="49.58827" lon="-1.78929">
        <ele>104.5</ele>
        <time>2020-06-14T18:07:16Z</time>
      </trkpt>
      <trkpt lat="49.58831" lon="-1.78922">
        <ele>104.6</ele>
        <time>2020-06-14T18:07:17Z</time>
      </trkpt>
      <trkpt lat="49.58834" lon="-1.78916">
        <ele>104.7</ele>
        <time>2020-06-14T18:07:18Z</time>
      </trkpt>
      <trkpt lat="49.58837" lon="-1.7891">
        <ele>104.9</ele>
        <time>2020-06-14T18:07:19Z</time>
      </trkpt>
      <trkpt lat="49.58839" lon="-1.78904">
        <ele>105</ele>
        <time>2020-06-14T18:07:20Z</time>
      </trkpt>
      <trkpt lat="49.58842" lon="-1.78898">
        <ele>105.1</ele>
        <time>2020-06-14T18:07:21Z</time>
      </trkpt>
      <trkpt lat="49.58845" lon="-1.78891">
        <ele>105.2</ele>
        <time>2020-06-14T18:07:22Z</time>
      </trkpt>
      <trkpt lat="49.58847" lon="-1.78884">
        <ele>105.4</ele>
        <time>2020-06-14T18:07:23Z</time>
      </trkpt>
      <trkpt lat="49.58849" lon="-1.78877">
        <ele>105.5</ele>
        <time>2020-06-14T18:07:24Z</time>
      </trkpt>
      <trkpt lat="49.58852" lon="-1.78871">
        <ele>105.6</ele>
        <time>2020-06-14T18:07:25Z</time>
      </trkpt>
      <trkpt lat="49.58854" lon="-1.78863">
        <ele>105.7</ele>
        <time>2020-06-14T18:07:26Z</time>
      </trkpt>
      <trkpt lat="49.58856" lon="-1.78854">
        <ele>105.9</ele>
        <time>2020-06-14T18:07:27Z</time>
      </trkpt>
      <trkpt lat="49.58858" lon="-1.78846">
        <ele>106</ele>
        <time>2020-06-14T18:07:28Z</time>
      </trkpt>
      <trkpt lat="49.5886" lon="-1.78838">
        <ele>106.1</ele>
        <time>2020-06-14T18:07:29Z</time>
      </trkpt>
      <trkpt lat="49.58861" lon="-1.78829">
        <ele>106.2</ele>
        <time>2020-06-14T18:07:30Z</time>
      </trkpt>
      <trkpt lat="49.58862" lon="-1.7882">
        <ele>106.3</ele>
        <time>2020-06-14T18:07:31Z</time>
      </trkpt>
      <trkpt lat="49.58863" lon="-1.78812">
        <ele>106.4</ele>
        <time>2020-06-14T18:07:32Z</time>
      </trkpt>
      <trkpt lat="49.58864" lon="-1.78804">
        <ele>106.4</ele>
        <time>2020-06-14T18:07:33Z</time>
      </trkpt>
      <trkpt lat="49.58865" lon="-1.78796">
        <ele>106.5</ele>
        <time>2020-06-14T18:07:34Z</time>
      </trkpt>
      <trkpt lat="49.58867" lon="-1.78787">
        <ele>106.6</ele>
        <time>2020-06-14T18:07:35Z</time>
      </trkpt>
      <trkpt lat="49.58867" lon="-1.7878">
        <ele>106.7</ele>
        <time>2020-06-14T18:07:36Z</time>
      </trkpt>
      <trkpt lat="49.58867" lon="-1.78771">
        <ele>106.9</ele>
        <time>2020-06-14T18:07:37Z</time>
      </trkpt>
      <trkpt lat="49.58867" lon="-1.78762">
        <ele>107</ele>
        <time>2020-06-14T18:07:38Z</time>
      </trkpt>
      <trkpt lat="49.58867" lon="-1.78754">
        <ele>107.1</ele>
        <time>2020-06-14T18:07:39Z</time>
      </trkpt>
      <trkpt lat="49.58868" lon="-1.78746">
        <ele>107.2</ele>
        <time>2020-06-14T18:07:40Z</time>
      </trkpt>
      <trkpt lat="49.58868" lon="-1.78736">
        <ele>107.3</ele>
        <time>2020-06-14T18:07:41Z</time>
      </trkpt>
      <trkpt lat="49.58869" lon="-1.78727">
        <ele>107.4</ele>
        <time>2020-06-14T18:07:42Z</time>
      </trkpt>
      <trkpt lat="49.5887" lon="-1.7872">
        <ele>107.4</ele>
        <time>2020-06-14T18:07:43Z</time>
      </trkpt>
      <trkpt lat="49.58871" lon="-1.78713">
        <ele>107.5</ele>
        <time>2020-06-14T18:07:44Z</time>
      </trkpt>
      <trkpt lat="49.58872" lon="-1.78706">
        <ele>107.6</ele>
        <time>2020-06-14T18:07:45Z</time>
      </trkpt>
      <trkpt lat="49.58873" lon="-1.78698">
        <ele>107.6</ele>
        <time>2020-06-14T18:07:46Z</time>
      </trkpt>
      <trkpt lat="49.58874" lon="-1.78692">
        <ele>107.6</ele>
        <time>2020-06-14T18:07:47Z</time>
      </trkpt>
      <trkpt lat="49.58874" lon="-1.78684">
        <ele>107.7</ele>
        <time>2020-06-14T18:07:48Z</time>
      </trkpt>
      <trkpt lat="49.58875" lon="-1.78676">
        <ele>107.7</ele>
        <time>2020-06-14T18:07:49Z</time>
      </trkpt>
      <trkpt lat="49.58875" lon="-1.78669">
        <ele>107.7</ele>
        <time>2020-06-14T18:07:50Z</time>
      </trkpt>
      <trkpt lat="49.58877" lon="-1.7866">
        <ele>107.7</ele>
        <time>2020-06-14T18:07:51Z</time>
      </trkpt>
      <trkpt lat="49.58878" lon="-1.78652">
        <ele>107.7</ele>
        <time>2020-06-14T18:07:52Z</time>
      </trkpt>
      <trkpt lat="49.58879" lon="-1.78644">
        <ele>107.8</ele>
        <time>2020-06-14T18:07:53Z</time>
      </trkpt>
      <trkpt lat="49.5888" lon="-1.78634">
        <ele>107.8</ele>
        <time>2020-06-14T18:07:54Z</time>
      </trkpt>
      <trkpt lat="49.5888" lon="-1.78624">
        <ele>107.9</ele>
        <time>2020-06-14T18:07:55Z</time>
      </trkpt>
      <trkpt lat="49.58881" lon="-1.78615">
        <ele>107.9</ele>
        <time>2020-06-14T18:07:56Z</time>
      </trkpt>
      <trkpt lat="49.58883" lon="-1.78605">
        <ele>107.9</ele>
        <time>2020-06-14T18:07:57Z</time>
      </trkpt>
      <trkpt lat="49.58884" lon="-1.78597">
        <ele>107.9</ele>
        <time>2020-06-14T18:07:58Z</time>
      </trkpt>
      <trkpt lat="49.58885" lon="-1.78587">
        <ele>107.9</ele>
        <time>2020-06-14T18:07:59Z</time>
      </trkpt>
      <trkpt lat="49.58886" lon="-1.78579">
        <ele>107.9</ele>
        <time>2020-06-14T18:08:00Z</time>
      </trkpt>
      <trkpt lat="49.58887" lon="-1.7857">
        <ele>108</ele>
        <time>2020-06-14T18:08:01Z</time>
      </trkpt>
      <trkpt lat="49.58888" lon="-1.78562">
        <ele>108</ele>
        <time>2020-06-14T18:08:02Z</time>
      </trkpt>
      <trkpt lat="49.58889" lon="-1.78553">
        <ele>108</ele>
        <time>2020-06-14T18:08:03Z</time>
      </trkpt>
      <trkpt lat="49.5889" lon="-1.78544">
        <ele>108.1</ele>
        <time>2020-06-14T18:08:04Z</time>
      </trkpt>
      <trkpt lat="49.58892" lon="-1.78535">
        <ele>108.1</ele>
        <time>2020-06-14T18:08:05Z</time>
      </trkpt>
      <trkpt lat="49.58893" lon="-1.78526">
        <ele>108.1</ele>
        <time>2020-06-14T18:08:06Z</time>
      </trkpt>
      <trkpt lat="49.58894" lon="-1.78517">
        <ele>108.1</ele>
        <time>2020-06-14T18:08:07Z</time>
      </trkpt>
      <trkpt lat="49.58895" lon="-1.78508">
        <ele>108.1</ele>
        <time>2020-06-14T18:08:08Z</time>
      </trkpt>
      <trkpt lat="49.58897" lon="-1.78499">
        <ele>108.2</ele>
        <time>2020-06-14T18:08:09Z</time>
      </trkpt>
      <trkpt lat="49.58898" lon="-1.78491">
        <ele>108.2</ele>
        <time>2020-06-14T18:08:10Z</time>
      </trkpt>
      <trkpt lat="49.589" lon="-1.78482">
        <ele>108.3</ele>
        <time>2020-06-14T18:08:11Z</time>
      </trkpt>
      <trkpt lat="49.58901" lon="-1.78474">
        <ele>108.3</ele>
        <time>2020-06-14T18:08:12Z</time>
      </trkpt>
      <trkpt lat="49.58903" lon="-1.78466">
        <ele>108.4</ele>
        <time>2020-06-14T18:08:13Z</time>
      </trkpt>
      <trkpt lat="49.58905" lon="-1.78456">
        <ele>108.5</ele>
        <time>2020-06-14T18:08:14Z</time>
      </trkpt>
      <trkpt lat="49.58907" lon="-1.7845">
        <ele>108.5</ele>
        <time>2020-06-14T18:08:15Z</time>
      </trkpt>
      <trkpt lat="49.58909" lon="-1.78445">
        <ele>108.5</ele>
        <time>2020-06-14T18:08:16Z</time>
      </trkpt>
      <trkpt lat="49.58911" lon="-1.78436">
        <ele>108.5</ele>
        <time>2020-06-14T18:08:17Z</time>
      </trkpt>
      <trkpt lat="49.58913" lon="-1.78427">
        <ele>108.6</ele>
        <time>2020-06-14T18:08:18Z</time>
      </trkpt>
      <trkpt lat="49.58916" lon="-1.78418">
        <ele>108.6</ele>
        <time>2020-06-14T18:08:19Z</time>
      </trkpt>
      <trkpt lat="49.5892" lon="-1.7841">
        <ele>108.6</ele>
        <time>2020-06-14T18:08:20Z</time>
      </trkpt>
      <trkpt lat="49.58923" lon="-1.78402">
        <ele>108.7</ele>
        <time>2020-06-14T18:08:21Z</time>
      </trkpt>
      <trkpt lat="49.58927" lon="-1.78398">
        <ele>108.7</ele>
        <time>2020-06-14T18:08:22Z</time>
      </trkpt>
      <trkpt lat="49.58931" lon="-1.78391">
        <ele>108.7</ele>
        <time>2020-06-14T18:08:23Z</time>
      </trkpt>
      <trkpt lat="49.58935" lon="-1.78385">
        <ele>108.7</ele>
        <time>2020-06-14T18:08:24Z</time>
      </trkpt>
      <trkpt lat="49.58939" lon="-1.78378">
        <ele>108.7</ele>
        <time>2020-06-14T18:08:25Z</time>
      </trkpt>
      <trkpt lat="49.58942" lon="-1.78372">
        <ele>108.7</ele>
        <time>2020-06-14T18:08:26Z</time>
      </trkpt>
      <trkpt lat="49.58945" lon="-1.78368">
        <ele>108.7</ele>
        <time>2020-06-14T18:08:27Z</time>
      </trkpt>
      <trkpt lat="49.58949" lon="-1.78361">
        <ele>108.8</ele>
        <time>2020-06-14T18:08:28Z</time>
      </trkpt>
      <trkpt lat="49.58953" lon="-1.78355">
        <ele>108.8</ele>
        <time>2020-06-14T18:08:29Z</time>
      </trkpt>
      <trkpt lat="49.58957" lon="-1.78347">
        <ele>108.8</ele>
        <time>2020-06-14T18:08:30Z</time>
      </trkpt>
      <trkpt lat="49.58962" lon="-1.78339">
        <ele>108.8</ele>
        <time>2020-06-14T18:08:31Z</time>
      </trkpt>
      <trkpt lat="49.58966" lon="-1.78332">
        <ele>108.8</ele>
        <time>2020-06-14T18:08:32Z</time>
      </trkpt>
      <trkpt lat="49.58971" lon="-1.78326">
        <ele>108.8</ele>
        <time>2020-06-14T18:08:33Z</time>
      </trkpt>
      <trkpt lat="49.58975" lon="-1.7832">
        <ele>108.8</ele>
        <time>2020-06-14T18:08:34Z</time>
      </trkpt>
      <trkpt lat="49.5898" lon="-1.78314">
        <ele>108.8</ele>
        <time>2020-06-14T18:08:35Z</time>
      </trkpt>
      <trkpt lat="49.58984" lon="-1.78308">
        <ele>108.9</ele>
        <time>2020-06-14T18:08:36Z</time>
      </trkpt>
      <trkpt lat="49.58988" lon="-1.78301">
        <ele>108.9</ele>
        <time>2020-06-14T18:08:37Z</time>
      </trkpt>
      <trkpt lat="49.58992" lon="-1.78295">
        <ele>108.9</ele>
        <time>2020-06-14T18:08:38Z</time>
      </trkpt>
      <trkpt lat="49.58996" lon="-1.78288">
        <ele>108.9</ele>
        <time>2020-06-14T18:08:39Z</time>
      </trkpt>
      <trkpt lat="49.59" lon="-1.78281">
        <ele>108.9</ele>
        <time>2020-06-14T18:08:40Z</time>
      </trkpt>
      <trkpt lat="49.59004" lon="-1.78274">
        <ele>108.9</ele>
        <time>2020-06-14T18:08:41Z</time>
      </trkpt>
      <trkpt lat="49.59008" lon="-1.78268">
        <ele>108.9</ele>
        <time>2020-06-14T18:08:42Z</time>
      </trkpt>
      <trkpt lat="49.59012" lon="-1.78262">
        <ele>108.9</ele>
        <time>2020-06-14T18:08:43Z</time>
      </trkpt>
      <trkpt lat="49.59016" lon="-1.78256">
        <ele>108.9</ele>
        <time>2020-06-14T18:08:44Z</time>
      </trkpt>
      <trkpt lat="49.5902" lon="-1.7825">
        <ele>108.9</ele>
        <time>2020-06-14T18:08:45Z</time>
      </trkpt>
      <trkpt lat="49.59024" lon="-1.78244">
        <ele>108.8</ele>
        <time>2020-06-14T18:08:46Z</time>
      </trkpt>
      <trkpt lat="49.59027" lon="-1.78237">
        <ele>108.7</ele>
        <time>2020-06-14T18:08:47Z</time>
      </trkpt>
      <trkpt lat="49.59031" lon="-1.7823">
        <ele>108.7</ele>
        <time>2020-06-14T18:08:48Z</time>
      </trkpt>
      <trkpt lat="49.59035" lon="-1.78223">
        <ele>108.6</ele>
        <time>2020-06-14T18:08:49Z</time>
      </trkpt>
      <trkpt lat="49.59039" lon="-1.78216">
        <ele>108.5</ele>
        <time>2020-06-14T18:08:50Z</time>
      </trkpt>
      <trkpt lat="49.59043" lon="-1.7821">
        <ele>108.5</ele>
        <time>2020-06-14T18:08:51Z</time>
      </trkpt>
      <trkpt lat="49.59047" lon="-1.78203">
        <ele>108.4</ele>
        <time>2020-06-14T18:08:52Z</time>
      </trkpt>
      <trkpt lat="49.59051" lon="-1.78196">
        <ele>108.4</ele>
        <time>2020-06-14T18:08:53Z</time>
      </trkpt>
      <trkpt lat="49.59055" lon="-1.78189">
        <ele>108.4</ele>
        <time>2020-06-14T18:08:54Z</time>
      </trkpt>
      <trkpt lat="49.59057" lon="-1.78182">
        <ele>108.4</ele>
        <time>2020-06-14T18:08:55Z</time>
      </trkpt>
      <trkpt lat="49.5906" lon="-1.78175">
        <ele>108.4</ele>
        <time>2020-06-14T18:08:56Z</time>
      </trkpt>
      <trkpt lat="49.59063" lon="-1.78168">
        <ele>108.4</ele>
        <time>2020-06-14T18:08:57Z</time>
      </trkpt>
      <trkpt lat="49.59067" lon="-1.7816">
        <ele>108.4</ele>
        <time>2020-06-14T18:08:58Z</time>
      </trkpt>
      <trkpt lat="49.59071" lon="-1.78151">
        <ele>108.4</ele>
        <time>2020-06-14T18:08:59Z</time>
      </trkpt>
      <trkpt lat="49.59075" lon="-1.78145">
        <ele>108.3</ele>
        <time>2020-06-14T18:09:00Z</time>
      </trkpt>
      <trkpt lat="49.59079" lon="-1.78136">
        <ele>108.3</ele>
        <time>2020-06-14T18:09:01Z</time>
      </trkpt>
      <trkpt lat="49.59082" lon="-1.78129">
        <ele>108.3</ele>
        <time>2020-06-14T18:09:02Z</time>
      </trkpt>
      <trkpt lat="49.59085" lon="-1.7812">
        <ele>108.2</ele>
        <time>2020-06-14T18:09:03Z</time>
      </trkpt>
      <trkpt lat="49.59089" lon="-1.78113">
        <ele>108.1</ele>
        <time>2020-06-14T18:09:04Z</time>
      </trkpt>
      <trkpt lat="49.59092" lon="-1.78107">
        <ele>108.1</ele>
        <time>2020-06-14T18:09:05Z</time>
      </trkpt>
      <trkpt lat="49.59096" lon="-1.78098">
        <ele>108</ele>
        <time>2020-06-14T18:09:06Z</time>
      </trkpt>
      <trkpt lat="49.59099" lon="-1.78091">
        <ele>107.9</ele>
        <time>2020-06-14T18:09:07Z</time>
      </trkpt>
      <trkpt lat="49.59102" lon="-1.78084">
        <ele>107.9</ele>
        <time>2020-06-14T18:09:08Z</time>
      </trkpt>
      <trkpt lat="49.59106" lon="-1.78076">
        <ele>107.8</ele>
        <time>2020-06-14T18:09:09Z</time>
      </trkpt>
      <trkpt lat="49.59109" lon="-1.78068">
        <ele>107.8</ele>
        <time>2020-06-14T18:09:10Z</time>
      </trkpt>
      <trkpt lat="49.59112" lon="-1.78061">
        <ele>107.7</ele>
        <time>2020-06-14T18:09:11Z</time>
      </trkpt>
      <trkpt lat="49.59115" lon="-1.78055">
        <ele>107.7</ele>
        <time>2020-06-14T18:09:12Z</time>
      </trkpt>
      <trkpt lat="49.59118" lon="-1.78047">
        <ele>107.6</ele>
        <time>2020-06-14T18:09:13Z</time>
      </trkpt>
      <trkpt lat="49.59121" lon="-1.78039">
        <ele>107.6</ele>
        <time>2020-06-14T18:09:14Z</time>
      </trkpt>
      <trkpt lat="49.59125" lon="-1.7803">
        <ele>107.5</ele>
        <time>2020-06-14T18:09:15Z</time>
      </trkpt>
      <trkpt lat="49.59127" lon="-1.78022">
        <ele>107.5</ele>
        <time>2020-06-14T18:09:16Z</time>
      </trkpt>
      <trkpt lat="49.5913" lon="-1.78015">
        <ele>107.5</ele>
        <time>2020-06-14T18:09:17Z</time>
      </trkpt>
      <trkpt lat="49.59134" lon="-1.78007">
        <ele>107.4</ele>
        <time>2020-06-14T18:09:18Z</time>
      </trkpt>
      <trkpt lat="49.59136" lon="-1.77999">
        <ele>107.4</ele>
        <time>2020-06-14T18:09:19Z</time>
      </trkpt>
      <trkpt lat="49.59139" lon="-1.77991">
        <ele>107.4</ele>
        <time>2020-06-14T18:09:20Z</time>
      </trkpt>
      <trkpt lat="49.59141" lon="-1.77984">
        <ele>107.4</ele>
        <time>2020-06-14T18:09:21Z</time>
      </trkpt>
      <trkpt lat="49.59144" lon="-1.77977">
        <ele>107.4</ele>
        <time>2020-06-14T18:09:22Z</time>
      </trkpt>
      <trkpt lat="49.59147" lon="-1.77969">
        <ele>107.3</ele>
        <time>2020-06-14T18:09:23Z</time>
      </trkpt>
      <trkpt lat="49.5915" lon="-1.77961">
        <ele>107.3</ele>
        <time>2020-06-14T18:09:24Z</time>
      </trkpt>
      <trkpt lat="49.59154" lon="-1.77954">
        <ele>107.3</ele>
        <time>2020-06-14T18:09:25Z</time>
      </trkpt>
      <trkpt lat="49.59157" lon="-1.77948">
        <ele>107.4</ele>
        <time>2020-06-14T18:09:26Z</time>
      </trkpt>
      <trkpt lat="49.5916" lon="-1.7794">
        <ele>107.4</ele>
        <time>2020-06-14T18:09:27Z</time>
      </trkpt>
      <trkpt lat="49.59163" lon="-1.77932">
        <ele>107.4</ele>
        <time>2020-06-14T18:09:28Z</time>
      </trkpt>
      <trkpt lat="49.59167" lon="-1.77924">
        <ele>107.4</ele>
        <time>2020-06-14T18:09:29Z</time>
      </trkpt>
      <trkpt lat="49.5917" lon="-1.77917">
        <ele>107.5</ele>
        <time>2020-06-14T18:09:30Z</time>
      </trkpt>
      <trkpt lat="49.59173" lon="-1.7791">
        <ele>107.5</ele>
        <time>2020-06-14T18:09:31Z</time>
      </trkpt>
      <trkpt lat="49.59175" lon="-1.77903">
        <ele>107.5</ele>
        <time>2020-06-14T18:09:32Z</time>
      </trkpt>
      <trkpt lat="49.59178" lon="-1.77894">
        <ele>107.6</ele>
        <time>2020-06-14T18:09:33Z</time>
      </trkpt>
      <trkpt lat="49.59181" lon="-1.77886">
        <ele>107.6</ele>
        <time>2020-06-14T18:09:34Z</time>
      </trkpt>
      <trkpt lat="49.59184" lon="-1.77878">
        <ele>107.7</ele>
        <time>2020-06-14T18:09:35Z</time>
      </trkpt>
      <trkpt lat="49.59187" lon="-1.77869">
        <ele>107.7</ele>
        <time>2020-06-14T18:09:36Z</time>
      </trkpt>
      <trkpt lat="49.5919" lon="-1.77863">
        <ele>107.7</ele>
        <time>2020-06-14T18:09:37Z</time>
      </trkpt>
      <trkpt lat="49.59193" lon="-1.77855">
        <ele>107.7</ele>
        <time>2020-06-14T18:09:38Z</time>
      </trkpt>
      <trkpt lat="49.59195" lon="-1.77847">
        <ele>107.7</ele>
        <time>2020-06-14T18:09:39Z</time>
      </trkpt>
      <trkpt lat="49.59197" lon="-1.7784">
        <ele>107.7</ele>
        <time>2020-06-14T18:09:40Z</time>
      </trkpt>
      <trkpt lat="49.592" lon="-1.77833">
        <ele>107.7</ele>
        <time>2020-06-14T18:09:41Z</time>
      </trkpt>
      <trkpt lat="49.59202" lon="-1.77825">
        <ele>107.7</ele>
        <time>2020-06-14T18:09:42Z</time>
      </trkpt>
      <trkpt lat="49.59205" lon="-1.77817">
        <ele>107.8</ele>
        <time>2020-06-14T18:09:43Z</time>
      </trkpt>
      <trkpt lat="49.59209" lon="-1.77809">
        <ele>107.8</ele>
        <time>2020-06-14T18:09:44Z</time>
      </trkpt>
      <trkpt lat="49.59212" lon="-1.77802">
        <ele>107.8</ele>
        <time>2020-06-14T18:09:45Z</time>
      </trkpt>
      <trkpt lat="49.59215" lon="-1.77794">
        <ele>107.8</ele>
        <time>2020-06-14T18:09:46Z</time>
      </trkpt>
      <trkpt lat="49.59218" lon="-1.77787">
        <ele>107.8</ele>
        <time>2020-06-14T18:09:47Z</time>
      </trkpt>
      <trkpt lat="49.59221" lon="-1.77779">
        <ele>107.7</ele>
        <time>2020-06-14T18:09:48Z</time>
      </trkpt>
      <trkpt lat="49.59224" lon="-1.77771">
        <ele>107.7</ele>
        <time>2020-06-14T18:09:49Z</time>
      </trkpt>
      <trkpt lat="49.59227" lon="-1.77763">
        <ele>107.7</ele>
        <time>2020-06-14T18:09:50Z</time>
      </trkpt>
      <trkpt lat="49.5923" lon="-1.77754">
        <ele>107.7</ele>
        <time>2020-06-14T18:09:51Z</time>
      </trkpt>
      <trkpt lat="49.59233" lon="-1.77747">
        <ele>107.7</ele>
        <time>2020-06-14T18:09:52Z</time>
      </trkpt>
      <trkpt lat="49.59236" lon="-1.77738">
        <ele>107.7</ele>
        <time>2020-06-14T18:09:53Z</time>
      </trkpt>
      <trkpt lat="49.59239" lon="-1.77731">
        <ele>107.7</ele>
        <time>2020-06-14T18:09:54Z</time>
      </trkpt>
      <trkpt lat="49.59242" lon="-1.77723">
        <ele>107.7</ele>
        <time>2020-06-14T18:09:55Z</time>
      </trkpt>
      <trkpt lat="49.59244" lon="-1.77717">
        <ele>107.7</ele>
        <time>2020-06-14T18:09:56Z</time>
      </trkpt>
      <trkpt lat="49.59247" lon="-1.7771">
        <ele>107.7</ele>
        <time>2020-06-14T18:09:57Z</time>
      </trkpt>
      <trkpt lat="49.59249" lon="-1.77702">
        <ele>107.7</ele>
        <time>2020-06-14T18:09:58Z</time>
      </trkpt>
      <trkpt lat="49.59252" lon="-1.77695">
        <ele>107.8</ele>
        <time>2020-06-14T18:09:59Z</time>
      </trkpt>
      <trkpt lat="49.59255" lon="-1.77688">
        <ele>107.8</ele>
        <time>2020-06-14T18:10:00Z</time>
      </trkpt>
      <trkpt lat="49.59258" lon="-1.7768">
        <ele>107.8</ele>
        <time>2020-06-14T18:10:01Z</time>
      </trkpt>
      <trkpt lat="49.59261" lon="-1.77673">
        <ele>107.8</ele>
        <time>2020-06-14T18:10:02Z</time>
      </trkpt>
      <trkpt lat="49.59264" lon="-1.77665">
        <ele>107.8</ele>
        <time>2020-06-14T18:10:03Z</time>
      </trkpt>
      <trkpt lat="49.59268" lon="-1.77657">
        <ele>107.9</ele>
        <time>2020-06-14T18:10:04Z</time>
      </trkpt>
      <trkpt lat="49.59271" lon="-1.7765">
        <ele>107.9</ele>
        <time>2020-06-14T18:10:05Z</time>
      </trkpt>
      <trkpt lat="49.59274" lon="-1.77644">
        <ele>107.9</ele>
        <time>2020-06-14T18:10:06Z</time>
      </trkpt>
      <trkpt lat="49.59278" lon="-1.77637">
        <ele>108.1</ele>
        <time>2020-06-14T18:10:07Z</time>
      </trkpt>
      <trkpt lat="49.59281" lon="-1.7763">
        <ele>108.2</ele>
        <time>2020-06-14T18:10:08Z</time>
      </trkpt>
      <trkpt lat="49.59285" lon="-1.77625">
        <ele>108.2</ele>
        <time>2020-06-14T18:10:09Z</time>
      </trkpt>
      <trkpt lat="49.59289" lon="-1.7762">
        <ele>108.2</ele>
        <time>2020-06-14T18:10:10Z</time>
      </trkpt>
      <trkpt lat="49.59294" lon="-1.77616">
        <ele>108.3</ele>
        <time>2020-06-14T18:10:11Z</time>
      </trkpt>
      <trkpt lat="49.59298" lon="-1.7761">
        <ele>108.3</ele>
        <time>2020-06-14T18:10:12Z</time>
      </trkpt>
      <trkpt lat="49.59303" lon="-1.77604">
        <ele>108.3</ele>
        <time>2020-06-14T18:10:13Z</time>
      </trkpt>
      <trkpt lat="49.59307" lon="-1.77598">
        <ele>108.4</ele>
        <time>2020-06-14T18:10:14Z</time>
      </trkpt>
      <trkpt lat="49.59312" lon="-1.77591">
        <ele>108.5</ele>
        <time>2020-06-14T18:10:15Z</time>
      </trkpt>
      <trkpt lat="49.59316" lon="-1.77585">
        <ele>108.5</ele>
        <time>2020-06-14T18:10:16Z</time>
      </trkpt>
      <trkpt lat="49.59321" lon="-1.77579">
        <ele>108.6</ele>
        <time>2020-06-14T18:10:17Z</time>
      </trkpt>
      <trkpt lat="49.59324" lon="-1.77573">
        <ele>108.7</ele>
        <time>2020-06-14T18:10:18Z</time>
      </trkpt>
      <trkpt lat="49.59327" lon="-1.77568">
        <ele>108.7</ele>
        <time>2020-06-14T18:10:19Z</time>
      </trkpt>
      <trkpt lat="49.59332" lon="-1.77563">
        <ele>108.8</ele>
        <time>2020-06-14T18:10:20Z</time>
      </trkpt>
      <trkpt lat="49.59337" lon="-1.77556">
        <ele>109</ele>
        <time>2020-06-14T18:10:21Z</time>
      </trkpt>
      <trkpt lat="49.59342" lon="-1.77551">
        <ele>109.4</ele>
        <time>2020-06-14T18:10:22Z</time>
      </trkpt>
      <trkpt lat="49.59346" lon="-1.77545">
        <ele>109.3</ele>
        <time>2020-06-14T18:10:23Z</time>
      </trkpt>
      <trkpt lat="49.5935" lon="-1.7754">
        <ele>109.3</ele>
        <time>2020-06-14T18:10:24Z</time>
      </trkpt>
      <trkpt lat="49.59354" lon="-1.77534">
        <ele>109.2</ele>
        <time>2020-06-14T18:10:25Z</time>
      </trkpt>
      <trkpt lat="49.59358" lon="-1.77526">
        <ele>109.2</ele>
        <time>2020-06-14T18:10:26Z</time>
      </trkpt>
      <trkpt lat="49.59361" lon="-1.77518">
        <ele>109.1</ele>
        <time>2020-06-14T18:10:27Z</time>
      </trkpt>
      <trkpt lat="49.59364" lon="-1.77511">
        <ele>109.1</ele>
        <time>2020-06-14T18:10:28Z</time>
      </trkpt>
      <trkpt lat="49.59367" lon="-1.77504">
        <ele>109</ele>
        <time>2020-06-14T18:10:29Z</time>
      </trkpt>
      <trkpt lat="49.5937" lon="-1.77498">
        <ele>109</ele>
        <time>2020-06-14T18:10:30Z</time>
      </trkpt>
      <trkpt lat="49.59373" lon="-1.77492">
        <ele>109</ele>
        <time>2020-06-14T18:10:31Z</time>
      </trkpt>
      <trkpt lat="49.59376" lon="-1.77485">
        <ele>109</ele>
        <time>2020-06-14T18:10:32Z</time>
      </trkpt>
      <trkpt lat="49.59379" lon="-1.77478">
        <ele>109</ele>
        <time>2020-06-14T18:10:33Z</time>
      </trkpt>
      <trkpt lat="49.59382" lon="-1.77472">
        <ele>109</ele>
        <time>2020-06-14T18:10:34Z</time>
      </trkpt>
      <trkpt lat="49.59385" lon="-1.77465">
        <ele>109</ele>
        <time>2020-06-14T18:10:35Z</time>
      </trkpt>
      <trkpt lat="49.59389" lon="-1.77458">
        <ele>109</ele>
        <time>2020-06-14T18:10:36Z</time>
      </trkpt>
      <trkpt lat="49.59392" lon="-1.77452">
        <ele>109</ele>
        <time>2020-06-14T18:10:37Z</time>
      </trkpt>
      <trkpt lat="49.59395" lon="-1.77445">
        <ele>109</ele>
        <time>2020-06-14T18:10:38Z</time>
      </trkpt>
      <trkpt lat="49.59399" lon="-1.77437">
        <ele>108.9</ele>
        <time>2020-06-14T18:10:39Z</time>
      </trkpt>
      <trkpt lat="49.59403" lon="-1.77431">
        <ele>108.9</ele>
        <time>2020-06-14T18:10:40Z</time>
      </trkpt>
      <trkpt lat="49.59406" lon="-1.77423">
        <ele>108.8</ele>
        <time>2020-06-14T18:10:41Z</time>
      </trkpt>
      <trkpt lat="49.5941" lon="-1.77416">
        <ele>108.7</ele>
        <time>2020-06-14T18:10:42Z</time>
      </trkpt>
      <trkpt lat="49.59414" lon="-1.77408">
        <ele>108.7</ele>
        <time>2020-06-14T18:10:43Z</time>
      </trkpt>
      <trkpt lat="49.59418" lon="-1.77399">
        <ele>108.6</ele>
        <time>2020-06-14T18:10:44Z</time>
      </trkpt>
      <trkpt lat="49.5942" lon="-1.77395">
        <ele>108.5</ele>
        <time>2020-06-14T18:10:45Z</time>
      </trkpt>
      <trkpt lat="49.59424" lon="-1.77389">
        <ele>108.4</ele>
        <time>2020-06-14T18:10:46Z</time>
      </trkpt>
      <trkpt lat="49.59427" lon="-1.77382">
        <ele>108.3</ele>
        <time>2020-06-14T18:10:47Z</time>
      </trkpt>
      <trkpt lat="49.59431" lon="-1.77374">
        <ele>108.2</ele>
        <time>2020-06-14T18:10:48Z</time>
      </trkpt>
      <trkpt lat="49.59435" lon="-1.77367">
        <ele>108.1</ele>
        <time>2020-06-14T18:10:49Z</time>
      </trkpt>
      <trkpt lat="49.59438" lon="-1.77359">
        <ele>107.9</ele>
        <time>2020-06-14T18:10:50Z</time>
      </trkpt>
      <trkpt lat="49.5944" lon="-1.77352">
        <ele>107.8</ele>
        <time>2020-06-14T18:10:51Z</time>
      </trkpt>
      <trkpt lat="49.59442" lon="-1.77346">
        <ele>107.7</ele>
        <time>2020-06-14T18:10:52Z</time>
      </trkpt>
      <trkpt lat="49.59444" lon="-1.77341">
        <ele>107.6</ele>
        <time>2020-06-14T18:10:53Z</time>
      </trkpt>
      <trkpt lat="49.59445" lon="-1.77337">
        <ele>107.5</ele>
        <time>2020-06-14T18:10:54Z</time>
      </trkpt>
      <trkpt lat="49.59447" lon="-1.77333">
        <ele>107.5</ele>
        <time>2020-06-14T18:10:55Z</time>
      </trkpt>
      <trkpt lat="49.59448" lon="-1.77328">
        <ele>107.4</ele>
        <time>2020-06-14T18:10:56Z</time>
      </trkpt>
      <trkpt lat="49.59449" lon="-1.77322">
        <ele>107.3</ele>
        <time>2020-06-14T18:10:57Z</time>
      </trkpt>
      <trkpt lat="49.5945" lon="-1.77316">
        <ele>107.2</ele>
        <time>2020-06-14T18:10:58Z</time>
      </trkpt>
      <trkpt lat="49.59448" lon="-1.77309">
        <ele>107.1</ele>
        <time>2020-06-14T18:10:59Z</time>
      </trkpt>
      <trkpt lat="49.59448" lon="-1.77301">
        <ele>107.1</ele>
        <time>2020-06-14T18:11:00Z</time>
      </trkpt>
      <trkpt lat="49.59448" lon="-1.77295">
        <ele>107</ele>
        <time>2020-06-14T18:11:01Z</time>
      </trkpt>
      <trkpt lat="49.59448" lon="-1.77289">
        <ele>106.9</ele>
        <time>2020-06-14T18:11:02Z</time>
      </trkpt>
      <trkpt lat="49.59446" lon="-1.77282">
        <ele>106.8</ele>
        <time>2020-06-14T18:11:03Z</time>
      </trkpt>
      <trkpt lat="49.59446" lon="-1.77277">
        <ele>106.7</ele>
        <time>2020-06-14T18:11:04Z</time>
      </trkpt>
      <trkpt lat="49.59446" lon="-1.77271">
        <ele>106.6</ele>
        <time>2020-06-14T18:11:05Z</time>
      </trkpt>
      <trkpt lat="49.5945" lon="-1.77267">
        <ele>106.4</ele>
        <time>2020-06-14T18:11:06Z</time>
      </trkpt>
      <trkpt lat="49.59453" lon="-1.77262">
        <ele>106.2</ele>
        <time>2020-06-14T18:11:07Z</time>
      </trkpt>
      <trkpt lat="49.59455" lon="-1.77255">
        <ele>106</ele>
        <time>2020-06-14T18:11:08Z</time>
      </trkpt>
      <trkpt lat="49.59456" lon="-1.77248">
        <ele>105.7</ele>
        <time>2020-06-14T18:11:09Z</time>
      </trkpt>
      <trkpt lat="49.59458" lon="-1.77242">
        <ele>105.5</ele>
        <time>2020-06-14T18:11:10Z</time>
      </trkpt>
      <trkpt lat="49.5946" lon="-1.77232">
        <ele>105.2</ele>
        <time>2020-06-14T18:11:11Z</time>
      </trkpt>
      <trkpt lat="49.59462" lon="-1.77224">
        <ele>104.9</ele>
        <time>2020-06-14T18:11:12Z</time>
      </trkpt>
      <trkpt lat="49.59463" lon="-1.77216">
        <ele>104.7</ele>
        <time>2020-06-14T18:11:13Z</time>
      </trkpt>
      <trkpt lat="49.59465" lon="-1.77207">
        <ele>104.5</ele>
        <time>2020-06-14T18:11:14Z</time>
      </trkpt>
      <trkpt lat="49.59466" lon="-1.77198">
        <ele>104.2</ele>
        <time>2020-06-14T18:11:15Z</time>
      </trkpt>
      <trkpt lat="49.59467" lon="-1.7719">
        <ele>103.9</ele>
        <time>2020-06-14T18:11:16Z</time>
      </trkpt>
      <trkpt lat="49.59468" lon="-1.77181">
        <ele>103.6</ele>
        <time>2020-06-14T18:11:17Z</time>
      </trkpt>
      <trkpt lat="49.5947" lon="-1.77174">
        <ele>103.4</ele>
        <time>2020-06-14T18:11:18Z</time>
      </trkpt>
      <trkpt lat="49.59472" lon="-1.77168">
        <ele>103.2</ele>
        <time>2020-06-14T18:11:19Z</time>
      </trkpt>
      <trkpt lat="49.59474" lon="-1.7716">
        <ele>102.9</ele>
        <time>2020-06-14T18:11:20Z</time>
      </trkpt>
      <trkpt lat="49.59476" lon="-1.77149">
        <ele>102.4</ele>
        <time>2020-06-14T18:11:21Z</time>
      </trkpt>
      <trkpt lat="49.59478" lon="-1.77139">
        <ele>102.1</ele>
        <time>2020-06-14T18:11:22Z</time>
      </trkpt>
      <trkpt lat="49.59479" lon="-1.77129">
        <ele>101.8</ele>
        <time>2020-06-14T18:11:23Z</time>
      </trkpt>
      <trkpt lat="49.59481" lon="-1.77119">
        <ele>101.6</ele>
        <time>2020-06-14T18:11:24Z</time>
      </trkpt>
      <trkpt lat="49.59483" lon="-1.77107">
        <ele>101.3</ele>
        <time>2020-06-14T18:11:25Z</time>
      </trkpt>
      <trkpt lat="49.59486" lon="-1.77097">
        <ele>101</ele>
        <time>2020-06-14T18:11:26Z</time>
      </trkpt>
      <trkpt lat="49.59488" lon="-1.77087">
        <ele>100.8</ele>
        <time>2020-06-14T18:11:27Z</time>
      </trkpt>
      <trkpt lat="49.59489" lon="-1.77078">
        <ele>100.6</ele>
        <time>2020-06-14T18:11:28Z</time>
      </trkpt>
      <trkpt lat="49.59491" lon="-1.77068">
        <ele>100.4</ele>
        <time>2020-06-14T18:11:29Z</time>
      </trkpt>
      <trkpt lat="49.59493" lon="-1.77058">
        <ele>100.2</ele>
        <time>2020-06-14T18:11:30Z</time>
      </trkpt>
      <trkpt lat="49.59494" lon="-1.77048">
        <ele>99.9</ele>
        <time>2020-06-14T18:11:31Z</time>
      </trkpt>
      <trkpt lat="49.59493" lon="-1.77039">
        <ele>99.8</ele>
        <time>2020-06-14T18:11:32Z</time>
      </trkpt>
      <trkpt lat="49.59493" lon="-1.77028">
        <ele>99.6</ele>
        <time>2020-06-14T18:11:33Z</time>
      </trkpt>
      <trkpt lat="49.59493" lon="-1.77018">
        <ele>99.4</ele>
        <time>2020-06-14T18:11:34Z</time>
      </trkpt>
      <trkpt lat="49.59493" lon="-1.77008">
        <ele>99.2</ele>
        <time>2020-06-14T18:11:35Z</time>
      </trkpt>
      <trkpt lat="49.59492" lon="-1.76999">
        <ele>99</ele>
        <time>2020-06-14T18:11:36Z</time>
      </trkpt>
      <trkpt lat="49.59491" lon="-1.76989">
        <ele>98.8</ele>
        <time>2020-06-14T18:11:37Z</time>
      </trkpt>
      <trkpt lat="49.59488" lon="-1.7698">
        <ele>98.6</ele>
        <time>2020-06-14T18:11:38Z</time>
      </trkpt>
      <trkpt lat="49.59486" lon="-1.76971">
        <ele>98.4</ele>
        <time>2020-06-14T18:11:39Z</time>
      </trkpt>
      <trkpt lat="49.59485" lon="-1.7696">
        <ele>98.2</ele>
        <time>2020-06-14T18:11:40Z</time>
      </trkpt>
      <trkpt lat="49.59484" lon="-1.7695">
        <ele>97.9</ele>
        <time>2020-06-14T18:11:41Z</time>
      </trkpt>
      <trkpt lat="49.59482" lon="-1.7694">
        <ele>97.7</ele>
        <time>2020-06-14T18:11:42Z</time>
      </trkpt>
      <trkpt lat="49.59481" lon="-1.76929">
        <ele>97.5</ele>
        <time>2020-06-14T18:11:43Z</time>
      </trkpt>
      <trkpt lat="49.59479" lon="-1.76919">
        <ele>97.3</ele>
        <time>2020-06-14T18:11:44Z</time>
      </trkpt>
      <trkpt lat="49.59478" lon="-1.76908">
        <ele>97.1</ele>
        <time>2020-06-14T18:11:45Z</time>
      </trkpt>
      <trkpt lat="49.59478" lon="-1.76897">
        <ele>96.9</ele>
        <time>2020-06-14T18:11:46Z</time>
      </trkpt>
      <trkpt lat="49.59479" lon="-1.76886">
        <ele>96.8</ele>
        <time>2020-06-14T18:11:47Z</time>
      </trkpt>
      <trkpt lat="49.59481" lon="-1.76875">
        <ele>96.6</ele>
        <time>2020-06-14T18:11:48Z</time>
      </trkpt>
      <trkpt lat="49.59483" lon="-1.76865">
        <ele>96.5</ele>
        <time>2020-06-14T18:11:49Z</time>
      </trkpt>
      <trkpt lat="49.59485" lon="-1.76855">
        <ele>96.4</ele>
        <time>2020-06-14T18:11:50Z</time>
      </trkpt>
      <trkpt lat="49.59488" lon="-1.76846">
        <ele>96.3</ele>
        <time>2020-06-14T18:11:51Z</time>
      </trkpt>
      <trkpt lat="49.59491" lon="-1.76837">
        <ele>96.2</ele>
        <time>2020-06-14T18:11:52Z</time>
      </trkpt>
      <trkpt lat="49.59493" lon="-1.76828">
        <ele>96.1</ele>
        <time>2020-06-14T18:11:53Z</time>
      </trkpt>
      <trkpt lat="49.59494" lon="-1.76818">
        <ele>95.9</ele>
        <time>2020-06-14T18:11:54Z</time>
      </trkpt>
      <trkpt lat="49.59495" lon="-1.7681">
        <ele>95.8</ele>
        <time>2020-06-14T18:11:55Z</time>
      </trkpt>
      <trkpt lat="49.59497" lon="-1.76801">
        <ele>95.6</ele>
        <time>2020-06-14T18:11:56Z</time>
      </trkpt>
      <trkpt lat="49.59498" lon="-1.76793">
        <ele>95.5</ele>
        <time>2020-06-14T18:11:57Z</time>
      </trkpt>
      <trkpt lat="49.59501" lon="-1.76785">
        <ele>95.4</ele>
        <time>2020-06-14T18:11:58Z</time>
      </trkpt>
      <trkpt lat="49.59502" lon="-1.76776">
        <ele>95.3</ele>
        <time>2020-06-14T18:11:59Z</time>
      </trkpt>
      <trkpt lat="49.59503" lon="-1.76767">
        <ele>95.2</ele>
        <time>2020-06-14T18:12:00Z</time>
      </trkpt>
      <trkpt lat="49.59504" lon="-1.76758">
        <ele>95.1</ele>
        <time>2020-06-14T18:12:01Z</time>
      </trkpt>
      <trkpt lat="49.59505" lon="-1.76749">
        <ele>95.1</ele>
        <time>2020-06-14T18:12:02Z</time>
      </trkpt>
      <trkpt lat="49.59506" lon="-1.7674">
        <ele>95.1</ele>
        <time>2020-06-14T18:12:03Z</time>
      </trkpt>
      <trkpt lat="49.59507" lon="-1.76731">
        <ele>95</ele>
        <time>2020-06-14T18:12:04Z</time>
      </trkpt>
      <trkpt lat="49.59509" lon="-1.76722">
        <ele>95</ele>
        <time>2020-06-14T18:12:05Z</time>
      </trkpt>
      <trkpt lat="49.59511" lon="-1.76713">
        <ele>95</ele>
        <time>2020-06-14T18:12:06Z</time>
      </trkpt>
      <trkpt lat="49.59512" lon="-1.76705">
        <ele>94.9</ele>
        <time>2020-06-14T18:12:07Z</time>
      </trkpt>
      <trkpt lat="49.59513" lon="-1.76696">
        <ele>94.9</ele>
        <time>2020-06-14T18:12:08Z</time>
      </trkpt>
      <trkpt lat="49.59514" lon="-1.76687">
        <ele>94.9</ele>
        <time>2020-06-14T18:12:09Z</time>
      </trkpt>
      <trkpt lat="49.59515" lon="-1.76678">
        <ele>94.8</ele>
        <time>2020-06-14T18:12:10Z</time>
      </trkpt>
      <trkpt lat="49.59517" lon="-1.76669">
        <ele>94.8</ele>
        <time>2020-06-14T18:12:11Z</time>
      </trkpt>
      <trkpt lat="49.59519" lon="-1.76661">
        <ele>94.8</ele>
        <time>2020-06-14T18:12:12Z</time>
      </trkpt>
      <trkpt lat="49.59521" lon="-1.76652">
        <ele>94.7</ele>
        <time>2020-06-14T18:12:13Z</time>
      </trkpt>
      <trkpt lat="49.59522" lon="-1.76644">
        <ele>94.7</ele>
        <time>2020-06-14T18:12:14Z</time>
      </trkpt>
      <trkpt lat="49.59524" lon="-1.76635">
        <ele>94.7</ele>
        <time>2020-06-14T18:12:15Z</time>
      </trkpt>
      <trkpt lat="49.59525" lon="-1.76626">
        <ele>94.7</ele>
        <time>2020-06-14T18:12:16Z</time>
      </trkpt>
      <trkpt lat="49.59526" lon="-1.76617">
        <ele>94.7</ele>
        <time>2020-06-14T18:12:17Z</time>
      </trkpt>
      <trkpt lat="49.59528" lon="-1.76609">
        <ele>94.7</ele>
        <time>2020-06-14T18:12:18Z</time>
      </trkpt>
      <trkpt lat="49.59529" lon="-1.766">
        <ele>94.7</ele>
        <time>2020-06-14T18:12:19Z</time>
      </trkpt>
      <trkpt lat="49.5953" lon="-1.76591">
        <ele>94.7</ele>
        <time>2020-06-14T18:12:20Z</time>
      </trkpt>
      <trkpt lat="49.59532" lon="-1.76583">
        <ele>94.7</ele>
        <time>2020-06-14T18:12:21Z</time>
      </trkpt>
      <trkpt lat="49.59534" lon="-1.76574">
        <ele>94.7</ele>
        <time>2020-06-14T18:12:22Z</time>
      </trkpt>
      <trkpt lat="49.59536" lon="-1.76566">
        <ele>94.7</ele>
        <time>2020-06-14T18:12:23Z</time>
      </trkpt>
      <trkpt lat="49.59536" lon="-1.76557">
        <ele>94.7</ele>
        <time>2020-06-14T18:12:24Z</time>
      </trkpt>
      <trkpt lat="49.59538" lon="-1.76548">
        <ele>94.7</ele>
        <time>2020-06-14T18:12:25Z</time>
      </trkpt>
      <trkpt lat="49.5954" lon="-1.76539">
        <ele>94.6</ele>
        <time>2020-06-14T18:12:26Z</time>
      </trkpt>
      <trkpt lat="49.59541" lon="-1.7653">
        <ele>94.6</ele>
        <time>2020-06-14T18:12:27Z</time>
      </trkpt>
      <trkpt lat="49.59542" lon="-1.76522">
        <ele>94.6</ele>
        <time>2020-06-14T18:12:28Z</time>
      </trkpt>
      <trkpt lat="49.59543" lon="-1.76513">
        <ele>94.6</ele>
        <time>2020-06-14T18:12:29Z</time>
      </trkpt>
      <trkpt lat="49.59545" lon="-1.76504">
        <ele>94.6</ele>
        <time>2020-06-14T18:12:30Z</time>
      </trkpt>
      <trkpt lat="49.59547" lon="-1.76496">
        <ele>94.6</ele>
        <time>2020-06-14T18:12:31Z</time>
      </trkpt>
      <trkpt lat="49.59549" lon="-1.76487">
        <ele>94.6</ele>
        <time>2020-06-14T18:12:32Z</time>
      </trkpt>
      <trkpt lat="49.5955" lon="-1.76478">
        <ele>94.6</ele>
        <time>2020-06-14T18:12:33Z</time>
      </trkpt>
      <trkpt lat="49.59551" lon="-1.76469">
        <ele>94.6</ele>
        <time>2020-06-14T18:12:34Z</time>
      </trkpt>
      <trkpt lat="49.59551" lon="-1.7646">
        <ele>94.5</ele>
        <time>2020-06-14T18:12:35Z</time>
      </trkpt>
      <trkpt lat="49.59552" lon="-1.7645">
        <ele>94.5</ele>
        <time>2020-06-14T18:12:36Z</time>
      </trkpt>
      <trkpt lat="49.59552" lon="-1.76442">
        <ele>94.5</ele>
        <time>2020-06-14T18:12:37Z</time>
      </trkpt>
      <trkpt lat="49.59552" lon="-1.76434">
        <ele>94.5</ele>
        <time>2020-06-14T18:12:38Z</time>
      </trkpt>
      <trkpt lat="49.59552" lon="-1.76424">
        <ele>94.5</ele>
        <time>2020-06-14T18:12:39Z</time>
      </trkpt>
      <trkpt lat="49.59552" lon="-1.76416">
        <ele>94.5</ele>
        <time>2020-06-14T18:12:40Z</time>
      </trkpt>
      <trkpt lat="49.59552" lon="-1.76407">
        <ele>94.5</ele>
        <time>2020-06-14T18:12:41Z</time>
      </trkpt>
      <trkpt lat="49.59553" lon="-1.76399">
        <ele>94.5</ele>
        <time>2020-06-14T18:12:42Z</time>
      </trkpt>
      <trkpt lat="49.59552" lon="-1.76389">
        <ele>94.5</ele>
        <time>2020-06-14T18:12:43Z</time>
      </trkpt>
      <trkpt lat="49.59551" lon="-1.7638">
        <ele>94.4</ele>
        <time>2020-06-14T18:12:44Z</time>
      </trkpt>
      <trkpt lat="49.59551" lon="-1.76371">
        <ele>94.4</ele>
        <time>2020-06-14T18:12:45Z</time>
      </trkpt>
      <trkpt lat="49.5955" lon="-1.76363">
        <ele>94.3</ele>
        <time>2020-06-14T18:12:46Z</time>
      </trkpt>
      <trkpt lat="49.59549" lon="-1.76353">
        <ele>94.3</ele>
        <time>2020-06-14T18:12:47Z</time>
      </trkpt>
      <trkpt lat="49.59548" lon="-1.76343">
        <ele>94.2</ele>
        <time>2020-06-14T18:12:48Z</time>
      </trkpt>
      <trkpt lat="49.59547" lon="-1.76334">
        <ele>94.1</ele>
        <time>2020-06-14T18:12:49Z</time>
      </trkpt>
      <trkpt lat="49.59547" lon="-1.76324">
        <ele>94.1</ele>
        <time>2020-06-14T18:12:50Z</time>
      </trkpt>
      <trkpt lat="49.59546" lon="-1.76314">
        <ele>94</ele>
        <time>2020-06-14T18:12:51Z</time>
      </trkpt>
      <trkpt lat="49.59546" lon="-1.76302">
        <ele>93.9</ele>
        <time>2020-06-14T18:12:52Z</time>
      </trkpt>
      <trkpt lat="49.59546" lon="-1.76292">
        <ele>93.8</ele>
        <time>2020-06-14T18:12:53Z</time>
      </trkpt>
      <trkpt lat="49.59547" lon="-1.76281">
        <ele>93.7</ele>
        <time>2020-06-14T18:12:54Z</time>
      </trkpt>
      <trkpt lat="49.59547" lon="-1.7627">
        <ele>93.6</ele>
        <time>2020-06-14T18:12:55Z</time>
      </trkpt>
      <trkpt lat="49.59548" lon="-1.7626">
        <ele>93.5</ele>
        <time>2020-06-14T18:12:56Z</time>
      </trkpt>
      <trkpt lat="49.59548" lon="-1.76249">
        <ele>93.4</ele>
        <time>2020-06-14T18:12:57Z</time>
      </trkpt>
      <trkpt lat="49.59549" lon="-1.76239">
        <ele>93.2</ele>
        <time>2020-06-14T18:12:58Z</time>
      </trkpt>
      <trkpt lat="49.5955" lon="-1.76228">
        <ele>93.1</ele>
        <time>2020-06-14T18:12:59Z</time>
      </trkpt>
      <trkpt lat="49.59551" lon="-1.76218">
        <ele>92.9</ele>
        <time>2020-06-14T18:13:00Z</time>
      </trkpt>
      <trkpt lat="49.5955" lon="-1.76208">
        <ele>92.8</ele>
        <time>2020-06-14T18:13:01Z</time>
      </trkpt>
      <trkpt lat="49.59548" lon="-1.76199">
        <ele>92.6</ele>
        <time>2020-06-14T18:13:02Z</time>
      </trkpt>
      <trkpt lat="49.59547" lon="-1.76189">
        <ele>92.4</ele>
        <time>2020-06-14T18:13:03Z</time>
      </trkpt>
      <trkpt lat="49.59547" lon="-1.76179">
        <ele>92.3</ele>
        <time>2020-06-14T18:13:04Z</time>
      </trkpt>
      <trkpt lat="49.59548" lon="-1.76169">
        <ele>92.1</ele>
        <time>2020-06-14T18:13:05Z</time>
      </trkpt>
      <trkpt lat="49.59549" lon="-1.76159">
        <ele>91.9</ele>
        <time>2020-06-14T18:13:06Z</time>
      </trkpt>
      <trkpt lat="49.5955" lon="-1.76149">
        <ele>91.7</ele>
        <time>2020-06-14T18:13:07Z</time>
      </trkpt>
      <trkpt lat="49.59551" lon="-1.76139">
        <ele>91.6</ele>
        <time>2020-06-14T18:13:08Z</time>
      </trkpt>
      <trkpt lat="49.59551" lon="-1.76129">
        <ele>91.4</ele>
        <time>2020-06-14T18:13:09Z</time>
      </trkpt>
      <trkpt lat="49.59552" lon="-1.76119">
        <ele>91.3</ele>
        <time>2020-06-14T18:13:10Z</time>
      </trkpt>
      <trkpt lat="49.59553" lon="-1.7611">
        <ele>91.1</ele>
        <time>2020-06-14T18:13:11Z</time>
      </trkpt>
      <trkpt lat="49.59554" lon="-1.761">
        <ele>90.9</ele>
        <time>2020-06-14T18:13:12Z</time>
      </trkpt>
      <trkpt lat="49.59555" lon="-1.76091">
        <ele>90.8</ele>
        <time>2020-06-14T18:13:13Z</time>
      </trkpt>
      <trkpt lat="49.59556" lon="-1.76081">
        <ele>90.6</ele>
        <time>2020-06-14T18:13:14Z</time>
      </trkpt>
      <trkpt lat="49.59557" lon="-1.76072">
        <ele>90.4</ele>
        <time>2020-06-14T18:13:15Z</time>
      </trkpt>
      <trkpt lat="49.59559" lon="-1.76062">
        <ele>90.2</ele>
        <time>2020-06-14T18:13:16Z</time>
      </trkpt>
      <trkpt lat="49.5956" lon="-1.76052">
        <ele>90</ele>
        <time>2020-06-14T18:13:17Z</time>
      </trkpt>
      <trkpt lat="49.59562" lon="-1.76042">
        <ele>89.9</ele>
        <time>2020-06-14T18:13:18Z</time>
      </trkpt>
      <trkpt lat="49.59563" lon="-1.76033">
        <ele>89.7</ele>
        <time>2020-06-14T18:13:19Z</time>
      </trkpt>
      <trkpt lat="49.59564" lon="-1.76023">
        <ele>89.5</ele>
        <time>2020-06-14T18:13:20Z</time>
      </trkpt>
      <trkpt lat="49.59566" lon="-1.76013">
        <ele>89.3</ele>
        <time>2020-06-14T18:13:21Z</time>
      </trkpt>
      <trkpt lat="49.59568" lon="-1.76004">
        <ele>89.1</ele>
        <time>2020-06-14T18:13:22Z</time>
      </trkpt>
      <trkpt lat="49.59571" lon="-1.75994">
        <ele>88.8</ele>
        <time>2020-06-14T18:13:23Z</time>
      </trkpt>
      <trkpt lat="49.59573" lon="-1.75985">
        <ele>88.6</ele>
        <time>2020-06-14T18:13:24Z</time>
      </trkpt>
      <trkpt lat="49.59576" lon="-1.75975">
        <ele>88.3</ele>
        <time>2020-06-14T18:13:25Z</time>
      </trkpt>
      <trkpt lat="49.59578" lon="-1.75965">
        <ele>88</ele>
        <time>2020-06-14T18:13:26Z</time>
      </trkpt>
      <trkpt lat="49.59581" lon="-1.75955">
        <ele>87.6</ele>
        <time>2020-06-14T18:13:27Z</time>
      </trkpt>
      <trkpt lat="49.59584" lon="-1.75945">
        <ele>87.3</ele>
        <time>2020-06-14T18:13:28Z</time>
      </trkpt>
      <trkpt lat="49.59586" lon="-1.75934">
        <ele>86.9</ele>
        <time>2020-06-14T18:13:29Z</time>
      </trkpt>
      <trkpt lat="49.5959" lon="-1.75923">
        <ele>86.5</ele>
        <time>2020-06-14T18:13:30Z</time>
      </trkpt>
      <trkpt lat="49.59592" lon="-1.75912">
        <ele>86</ele>
        <time>2020-06-14T18:13:31Z</time>
      </trkpt>
      <trkpt lat="49.59595" lon="-1.75901">
        <ele>85.6</ele>
        <time>2020-06-14T18:13:32Z</time>
      </trkpt>
      <trkpt lat="49.59598" lon="-1.75889">
        <ele>85.2</ele>
        <time>2020-06-14T18:13:33Z</time>
      </trkpt>
      <trkpt lat="49.59601" lon="-1.75877">
        <ele>84.7</ele>
        <time>2020-06-14T18:13:34Z</time>
      </trkpt>
      <trkpt lat="49.59603" lon="-1.75865">
        <ele>84.3</ele>
        <time>2020-06-14T18:13:35Z</time>
      </trkpt>
      <trkpt lat="49.59606" lon="-1.75852">
        <ele>83.9</ele>
        <time>2020-06-14T18:13:36Z</time>
      </trkpt>
      <trkpt lat="49.59608" lon="-1.7584">
        <ele>83.5</ele>
        <time>2020-06-14T18:13:37Z</time>
      </trkpt>
      <trkpt lat="49.59609" lon="-1.75827">
        <ele>83.1</ele>
        <time>2020-06-14T18:13:38Z</time>
      </trkpt>
      <trkpt lat="49.59611" lon="-1.75814">
        <ele>82.8</ele>
        <time>2020-06-14T18:13:39Z</time>
      </trkpt>
      <trkpt lat="49.59612" lon="-1.75801">
        <ele>82.5</ele>
        <time>2020-06-14T18:13:40Z</time>
      </trkpt>
      <trkpt lat="49.59613" lon="-1.75788">
        <ele>82.1</ele>
        <time>2020-06-14T18:13:41Z</time>
      </trkpt>
      <trkpt lat="49.59615" lon="-1.75775">
        <ele>81.7</ele>
        <time>2020-06-14T18:13:42Z</time>
      </trkpt>
      <trkpt lat="49.59616" lon="-1.75762">
        <ele>81.3</ele>
        <time>2020-06-14T18:13:43Z</time>
      </trkpt>
      <trkpt lat="49.59616" lon="-1.7575">
        <ele>80.9</ele>
        <time>2020-06-14T18:13:44Z</time>
      </trkpt>
      <trkpt lat="49.59615" lon="-1.75737">
        <ele>80.5</ele>
        <time>2020-06-14T18:13:45Z</time>
      </trkpt>
      <trkpt lat="49.59613" lon="-1.75724">
        <ele>80.1</ele>
        <time>2020-06-14T18:13:46Z</time>
      </trkpt>
      <trkpt lat="49.59611" lon="-1.75712">
        <ele>79.6</ele>
        <time>2020-06-14T18:13:47Z</time>
      </trkpt>
      <trkpt lat="49.59609" lon="-1.75699">
        <ele>79.1</ele>
        <time>2020-06-14T18:13:48Z</time>
      </trkpt>
      <trkpt lat="49.59607" lon="-1.75686">
        <ele>78.5</ele>
        <time>2020-06-14T18:13:49Z</time>
      </trkpt>
      <trkpt lat="49.59606" lon="-1.75673">
        <ele>78</ele>
        <time>2020-06-14T18:13:50Z</time>
      </trkpt>
      <trkpt lat="49.59605" lon="-1.7566">
        <ele>77.4</ele>
        <time>2020-06-14T18:13:51Z</time>
      </trkpt>
      <trkpt lat="49.59605" lon="-1.75646">
        <ele>76.8</ele>
        <time>2020-06-14T18:13:52Z</time>
      </trkpt>
      <trkpt lat="49.59607" lon="-1.75632">
        <ele>76.2</ele>
        <time>2020-06-14T18:13:53Z</time>
      </trkpt>
      <trkpt lat="49.59609" lon="-1.75618">
        <ele>75.7</ele>
        <time>2020-06-14T18:13:54Z</time>
      </trkpt>
      <trkpt lat="49.59611" lon="-1.75605">
        <ele>75.3</ele>
        <time>2020-06-14T18:13:55Z</time>
      </trkpt>
      <trkpt lat="49.59614" lon="-1.75592">
        <ele>74.8</ele>
        <time>2020-06-14T18:13:56Z</time>
      </trkpt>
      <trkpt lat="49.59618" lon="-1.7558">
        <ele>74.4</ele>
        <time>2020-06-14T18:13:57Z</time>
      </trkpt>
      <trkpt lat="49.59623" lon="-1.75568">
        <ele>74</ele>
        <time>2020-06-14T18:13:58Z</time>
      </trkpt>
      <trkpt lat="49.59627" lon="-1.75557">
        <ele>73.6</ele>
        <time>2020-06-14T18:13:59Z</time>
      </trkpt>
      <trkpt lat="49.59632" lon="-1.75546">
        <ele>73.2</ele>
        <time>2020-06-14T18:14:00Z</time>
      </trkpt>
      <trkpt lat="49.59637" lon="-1.75535">
        <ele>73</ele>
        <time>2020-06-14T18:14:01Z</time>
      </trkpt>
      <trkpt lat="49.59643" lon="-1.75526">
        <ele>72.9</ele>
        <time>2020-06-14T18:14:02Z</time>
      </trkpt>
      <trkpt lat="49.59649" lon="-1.75517">
        <ele>72.8</ele>
        <time>2020-06-14T18:14:03Z</time>
      </trkpt>
      <trkpt lat="49.59654" lon="-1.75508">
        <ele>72.8</ele>
        <time>2020-06-14T18:14:04Z</time>
      </trkpt>
      <trkpt lat="49.59658" lon="-1.75499">
        <ele>72.8</ele>
        <time>2020-06-14T18:14:05Z</time>
      </trkpt>
      <trkpt lat="49.59663" lon="-1.7549">
        <ele>73.5</ele>
        <time>2020-06-14T18:14:06Z</time>
      </trkpt>
      <trkpt lat="49.59667" lon="-1.75481">
        <ele>73.2</ele>
        <time>2020-06-14T18:14:07Z</time>
      </trkpt>
      <trkpt lat="49.59672" lon="-1.75472">
        <ele>72.9</ele>
        <time>2020-06-14T18:14:08Z</time>
      </trkpt>
      <trkpt lat="49.59676" lon="-1.75463">
        <ele>72.7</ele>
        <time>2020-06-14T18:14:09Z</time>
      </trkpt>
      <trkpt lat="49.59681" lon="-1.75455">
        <ele>72.3</ele>
        <time>2020-06-14T18:14:10Z</time>
      </trkpt>
      <trkpt lat="49.59686" lon="-1.75446">
        <ele>72.2</ele>
        <time>2020-06-14T18:14:11Z</time>
      </trkpt>
      <trkpt lat="49.59691" lon="-1.75438">
        <ele>72.2</ele>
        <time>2020-06-14T18:14:12Z</time>
      </trkpt>
      <trkpt lat="49.59695" lon="-1.75431">
        <ele>72.2</ele>
        <time>2020-06-14T18:14:13Z</time>
      </trkpt>
      <trkpt lat="49.597" lon="-1.75424">
        <ele>72.3</ele>
        <time>2020-06-14T18:14:14Z</time>
      </trkpt>
      <trkpt lat="49.59705" lon="-1.75417">
        <ele>72.4</ele>
        <time>2020-06-14T18:14:15Z</time>
      </trkpt>
      <trkpt lat="49.59709" lon="-1.7541">
        <ele>72.5</ele>
        <time>2020-06-14T18:14:16Z</time>
      </trkpt>
      <trkpt lat="49.59713" lon="-1.75404">
        <ele>72.6</ele>
        <time>2020-06-14T18:14:17Z</time>
      </trkpt>
      <trkpt lat="49.59718" lon="-1.75399">
        <ele>72.8</ele>
        <time>2020-06-14T18:14:18Z</time>
      </trkpt>
      <trkpt lat="49.59723" lon="-1.75394">
        <ele>73</ele>
        <time>2020-06-14T18:14:19Z</time>
      </trkpt>
      <trkpt lat="49.59727" lon="-1.75388">
        <ele>73.1</ele>
        <time>2020-06-14T18:14:20Z</time>
      </trkpt>
      <trkpt lat="49.59732" lon="-1.75384">
        <ele>73.3</ele>
        <time>2020-06-14T18:14:21Z</time>
      </trkpt>
      <trkpt lat="49.59738" lon="-1.75381">
        <ele>73.5</ele>
        <time>2020-06-14T18:14:22Z</time>
      </trkpt>
      <trkpt lat="49.59743" lon="-1.75378">
        <ele>73.6</ele>
        <time>2020-06-14T18:14:23Z</time>
      </trkpt>
      <trkpt lat="49.59748" lon="-1.75374">
        <ele>73.7</ele>
        <time>2020-06-14T18:14:24Z</time>
      </trkpt>
      <trkpt lat="49.59752" lon="-1.75367">
        <ele>73.9</ele>
        <time>2020-06-14T18:14:25Z</time>
      </trkpt>
      <trkpt lat="49.59756" lon="-1.75361">
        <ele>74</ele>
        <time>2020-06-14T18:14:26Z</time>
      </trkpt>
      <trkpt lat="49.5976" lon="-1.75354">
        <ele>74</ele>
        <time>2020-06-14T18:14:27Z</time>
      </trkpt>
      <trkpt lat="49.59763" lon="-1.75348">
        <ele>74.1</ele>
        <time>2020-06-14T18:14:28Z</time>
      </trkpt>
      <trkpt lat="49.59766" lon="-1.75342">
        <ele>74.2</ele>
        <time>2020-06-14T18:14:29Z</time>
      </trkpt>
      <trkpt lat="49.59768" lon="-1.75333">
        <ele>74.3</ele>
        <time>2020-06-14T18:14:30Z</time>
      </trkpt>
      <trkpt lat="49.59769" lon="-1.75323">
        <ele>74.4</ele>
        <time>2020-06-14T18:14:31Z</time>
      </trkpt>
      <trkpt lat="49.5977" lon="-1.75314">
        <ele>74.5</ele>
        <time>2020-06-14T18:14:32Z</time>
      </trkpt>
      <trkpt lat="49.59772" lon="-1.75306">
        <ele>74.6</ele>
        <time>2020-06-14T18:14:33Z</time>
      </trkpt>
      <trkpt lat="49.59773" lon="-1.75298">
        <ele>74.7</ele>
        <time>2020-06-14T18:14:34Z</time>
      </trkpt>
      <trkpt lat="49.59775" lon="-1.7529">
        <ele>74.8</ele>
        <time>2020-06-14T18:14:35Z</time>
      </trkpt>
      <trkpt lat="49.59777" lon="-1.75283">
        <ele>75</ele>
        <time>2020-06-14T18:14:36Z</time>
      </trkpt>
      <trkpt lat="49.59779" lon="-1.75274">
        <ele>75.1</ele>
        <time>2020-06-14T18:14:37Z</time>
      </trkpt>
      <trkpt lat="49.5978" lon="-1.75265">
        <ele>75.2</ele>
        <time>2020-06-14T18:14:38Z</time>
      </trkpt>
      <trkpt lat="49.59782" lon="-1.75255">
        <ele>75.4</ele>
        <time>2020-06-14T18:14:39Z</time>
      </trkpt>
      <trkpt lat="49.59784" lon="-1.75245">
        <ele>75.6</ele>
        <time>2020-06-14T18:14:40Z</time>
      </trkpt>
      <trkpt lat="49.59786" lon="-1.7524">
        <ele>75.7</ele>
        <time>2020-06-14T18:14:41Z</time>
      </trkpt>
      <trkpt lat="49.59788" lon="-1.75234">
        <ele>75.9</ele>
        <time>2020-06-14T18:14:42Z</time>
      </trkpt>
      <trkpt lat="49.59789" lon="-1.75227">
        <ele>76</ele>
        <time>2020-06-14T18:14:43Z</time>
      </trkpt>
      <trkpt lat="49.5979" lon="-1.75219">
        <ele>76.2</ele>
        <time>2020-06-14T18:14:44Z</time>
      </trkpt>
      <trkpt lat="49.59791" lon="-1.7521">
        <ele>76.3</ele>
        <time>2020-06-14T18:14:45Z</time>
      </trkpt>
      <trkpt lat="49.59792" lon="-1.75201">
        <ele>76.5</ele>
        <time>2020-06-14T18:14:46Z</time>
      </trkpt>
      <trkpt lat="49.59793" lon="-1.75193">
        <ele>76.6</ele>
        <time>2020-06-14T18:14:47Z</time>
      </trkpt>
      <trkpt lat="49.59794" lon="-1.75184">
        <ele>76.8</ele>
        <time>2020-06-14T18:14:48Z</time>
      </trkpt>
      <trkpt lat="49.59795" lon="-1.75176">
        <ele>76.9</ele>
        <time>2020-06-14T18:14:49Z</time>
      </trkpt>
      <trkpt lat="49.59796" lon="-1.75168">
        <ele>77.1</ele>
        <time>2020-06-14T18:14:50Z</time>
      </trkpt>
      <trkpt lat="49.59799" lon="-1.7516">
        <ele>77.2</ele>
        <time>2020-06-14T18:14:51Z</time>
      </trkpt>
      <trkpt lat="49.59801" lon="-1.75152">
        <ele>77.4</ele>
        <time>2020-06-14T18:14:52Z</time>
      </trkpt>
      <trkpt lat="49.59802" lon="-1.75144">
        <ele>77.6</ele>
        <time>2020-06-14T18:14:53Z</time>
      </trkpt>
      <trkpt lat="49.59804" lon="-1.75136">
        <ele>77.8</ele>
        <time>2020-06-14T18:14:54Z</time>
      </trkpt>
      <trkpt lat="49.59805" lon="-1.7513">
        <ele>77.9</ele>
        <time>2020-06-14T18:14:55Z</time>
      </trkpt>
      <trkpt lat="49.59807" lon="-1.75122">
        <ele>78</ele>
        <time>2020-06-14T18:14:56Z</time>
      </trkpt>
      <trkpt lat="49.59808" lon="-1.75114">
        <ele>78.1</ele>
        <time>2020-06-14T18:14:57Z</time>
      </trkpt>
      <trkpt lat="49.59809" lon="-1.75104">
        <ele>78.3</ele>
        <time>2020-06-14T18:14:58Z</time>
      </trkpt>
      <trkpt lat="49.5981" lon="-1.75097">
        <ele>78.5</ele>
        <time>2020-06-14T18:14:59Z</time>
      </trkpt>
      <trkpt lat="49.59812" lon="-1.75091">
        <ele>78.6</ele>
        <time>2020-06-14T18:15:00Z</time>
      </trkpt>
      <trkpt lat="49.59813" lon="-1.75083">
        <ele>78.8</ele>
        <time>2020-06-14T18:15:01Z</time>
      </trkpt>
      <trkpt lat="49.59815" lon="-1.75075">
        <ele>79</ele>
        <time>2020-06-14T18:15:02Z</time>
      </trkpt>
      <trkpt lat="49.59815" lon="-1.75067">
        <ele>79.1</ele>
        <time>2020-06-14T18:15:03Z</time>
      </trkpt>
      <trkpt lat="49.59815" lon="-1.7506">
        <ele>79.2</ele>
        <time>2020-06-14T18:15:04Z</time>
      </trkpt>
      <trkpt lat="49.59815" lon="-1.75052">
        <ele>79.3</ele>
        <time>2020-06-14T18:15:05Z</time>
      </trkpt>
      <trkpt lat="49.59815" lon="-1.75044">
        <ele>79.4</ele>
        <time>2020-06-14T18:15:06Z</time>
      </trkpt>
      <trkpt lat="49.59817" lon="-1.75036">
        <ele>79.6</ele>
        <time>2020-06-14T18:15:07Z</time>
      </trkpt>
      <trkpt lat="49.59819" lon="-1.7503">
        <ele>79.7</ele>
        <time>2020-06-14T18:15:08Z</time>
      </trkpt>
      <trkpt lat="49.5982" lon="-1.75022">
        <ele>79.8</ele>
        <time>2020-06-14T18:15:09Z</time>
      </trkpt>
      <trkpt lat="49.59822" lon="-1.75014">
        <ele>80</ele>
        <time>2020-06-14T18:15:10Z</time>
      </trkpt>
      <trkpt lat="49.59824" lon="-1.75003">
        <ele>80.2</ele>
        <time>2020-06-14T18:15:11Z</time>
      </trkpt>
      <trkpt lat="49.59824" lon="-1.74995">
        <ele>80.4</ele>
        <time>2020-06-14T18:15:12Z</time>
      </trkpt>
      <trkpt lat="49.59826" lon="-1.74986">
        <ele>80.6</ele>
        <time>2020-06-14T18:15:13Z</time>
      </trkpt>
      <trkpt lat="49.59828" lon="-1.74977">
        <ele>80.8</ele>
        <time>2020-06-14T18:15:14Z</time>
      </trkpt>
      <trkpt lat="49.5983" lon="-1.74969">
        <ele>80.9</ele>
        <time>2020-06-14T18:15:15Z</time>
      </trkpt>
      <trkpt lat="49.59833" lon="-1.7496">
        <ele>81.1</ele>
        <time>2020-06-14T18:15:16Z</time>
      </trkpt>
      <trkpt lat="49.59837" lon="-1.74952">
        <ele>81.3</ele>
        <time>2020-06-14T18:15:17Z</time>
      </trkpt>
      <trkpt lat="49.5984" lon="-1.74945">
        <ele>81.5</ele>
        <time>2020-06-14T18:15:18Z</time>
      </trkpt>
      <trkpt lat="49.59843" lon="-1.74939">
        <ele>81.6</ele>
        <time>2020-06-14T18:15:19Z</time>
      </trkpt>
      <trkpt lat="49.59847" lon="-1.74932">
        <ele>81.8</ele>
        <time>2020-06-14T18:15:20Z</time>
      </trkpt>
      <trkpt lat="49.59849" lon="-1.74925">
        <ele>81.9</ele>
        <time>2020-06-14T18:15:21Z</time>
      </trkpt>
      <trkpt lat="49.59851" lon="-1.7492">
        <ele>82</ele>
        <time>2020-06-14T18:15:22Z</time>
      </trkpt>
      <trkpt lat="49.59854" lon="-1.74916">
        <ele>82.2</ele>
        <time>2020-06-14T18:15:23Z</time>
      </trkpt>
      <trkpt lat="49.59857" lon="-1.74909">
        <ele>82.4</ele>
        <time>2020-06-14T18:15:24Z</time>
      </trkpt>
      <trkpt lat="49.59861" lon="-1.74903">
        <ele>82.6</ele>
        <time>2020-06-14T18:15:25Z</time>
      </trkpt>
      <trkpt lat="49.59864" lon="-1.74899">
        <ele>82.7</ele>
        <time>2020-06-14T18:15:26Z</time>
      </trkpt>
      <trkpt lat="49.59866" lon="-1.74894">
        <ele>82.8</ele>
        <time>2020-06-14T18:15:27Z</time>
      </trkpt>
      <trkpt lat="49.5987" lon="-1.7489">
        <ele>83</ele>
        <time>2020-06-14T18:15:28Z</time>
      </trkpt>
      <trkpt lat="49.59873" lon="-1.74884">
        <ele>83.2</ele>
        <time>2020-06-14T18:15:29Z</time>
      </trkpt>
      <trkpt lat="49.59877" lon="-1.74878">
        <ele>83.4</ele>
        <time>2020-06-14T18:15:30Z</time>
      </trkpt>
      <trkpt lat="49.5988" lon="-1.74872">
        <ele>83.6</ele>
        <time>2020-06-14T18:15:31Z</time>
      </trkpt>
      <trkpt lat="49.59885" lon="-1.74866">
        <ele>83.8</ele>
        <time>2020-06-14T18:15:32Z</time>
      </trkpt>
      <trkpt lat="49.59888" lon="-1.7486">
        <ele>84</ele>
        <time>2020-06-14T18:15:33Z</time>
      </trkpt>
      <trkpt lat="49.59891" lon="-1.74855">
        <ele>84.1</ele>
        <time>2020-06-14T18:15:34Z</time>
      </trkpt>
      <trkpt lat="49.59893" lon="-1.74849">
        <ele>84.3</ele>
        <time>2020-06-14T18:15:35Z</time>
      </trkpt>
      <trkpt lat="49.59897" lon="-1.74841">
        <ele>84.5</ele>
        <time>2020-06-14T18:15:36Z</time>
      </trkpt>
      <trkpt lat="49.59901" lon="-1.74835">
        <ele>84.7</ele>
        <time>2020-06-14T18:15:37Z</time>
      </trkpt>
      <trkpt lat="49.59904" lon="-1.74829">
        <ele>84.9</ele>
        <time>2020-06-14T18:15:38Z</time>
      </trkpt>
      <trkpt lat="49.59907" lon="-1.74824">
        <ele>85.1</ele>
        <time>2020-06-14T18:15:39Z</time>
      </trkpt>
      <trkpt lat="49.59908" lon="-1.74819">
        <ele>85.2</ele>
        <time>2020-06-14T18:15:40Z</time>
      </trkpt>
      <trkpt lat="49.59911" lon="-1.74814">
        <ele>85.3</ele>
        <time>2020-06-14T18:15:41Z</time>
      </trkpt>
      <trkpt lat="49.59913" lon="-1.74809">
        <ele>85.5</ele>
        <time>2020-06-14T18:15:42Z</time>
      </trkpt>
      <trkpt lat="49.59916" lon="-1.74804">
        <ele>85.7</ele>
        <time>2020-06-14T18:15:43Z</time>
      </trkpt>
      <trkpt lat="49.59921" lon="-1.74798">
        <ele>86</ele>
        <time>2020-06-14T18:15:44Z</time>
      </trkpt>
      <trkpt lat="49.59926" lon="-1.74793">
        <ele>86.2</ele>
        <time>2020-06-14T18:15:45Z</time>
      </trkpt>
      <trkpt lat="49.59931" lon="-1.74789">
        <ele>86.5</ele>
        <time>2020-06-14T18:15:46Z</time>
      </trkpt>
      <trkpt lat="49.59935" lon="-1.74785">
        <ele>86.7</ele>
        <time>2020-06-14T18:15:47Z</time>
      </trkpt>
      <trkpt lat="49.59938" lon="-1.74781">
        <ele>86.9</ele>
        <time>2020-06-14T18:15:48Z</time>
      </trkpt>
      <trkpt lat="49.59941" lon="-1.74776">
        <ele>87.2</ele>
        <time>2020-06-14T18:15:49Z</time>
      </trkpt>
      <trkpt lat="49.59945" lon="-1.74773">
        <ele>87.4</ele>
        <time>2020-06-14T18:15:50Z</time>
      </trkpt>
      <trkpt lat="49.59949" lon="-1.7477">
        <ele>87.6</ele>
        <time>2020-06-14T18:15:51Z</time>
      </trkpt>
      <trkpt lat="49.59952" lon="-1.74765">
        <ele>87.8</ele>
        <time>2020-06-14T18:15:52Z</time>
      </trkpt>
      <trkpt lat="49.59954" lon="-1.74762">
        <ele>88</ele>
        <time>2020-06-14T18:15:53Z</time>
      </trkpt>
      <trkpt lat="49.59959" lon="-1.74755">
        <ele>88.3</ele>
        <time>2020-06-14T18:15:54Z</time>
      </trkpt>
      <trkpt lat="49.59963" lon="-1.74751">
        <ele>88.6</ele>
        <time>2020-06-14T18:15:55Z</time>
      </trkpt>
      <trkpt lat="49.59966" lon="-1.74747">
        <ele>88.8</ele>
        <time>2020-06-14T18:15:56Z</time>
      </trkpt>
      <trkpt lat="49.59969" lon="-1.74744">
        <ele>88.9</ele>
        <time>2020-06-14T18:15:57Z</time>
      </trkpt>
      <trkpt lat="49.59974" lon="-1.7474">
        <ele>89.2</ele>
        <time>2020-06-14T18:15:58Z</time>
      </trkpt>
      <trkpt lat="49.59977" lon="-1.74737">
        <ele>89.4</ele>
        <time>2020-06-14T18:15:59Z</time>
      </trkpt>
      <trkpt lat="49.59978" lon="-1.74736">
        <ele>89.5</ele>
        <time>2020-06-14T18:16:00Z</time>
      </trkpt>
      <trkpt lat="49.5998" lon="-1.74733">
        <ele>89.6</ele>
        <time>2020-06-14T18:16:01Z</time>
      </trkpt>
      <trkpt lat="49.59982" lon="-1.74729">
        <ele>89.8</ele>
        <time>2020-06-14T18:16:02Z</time>
      </trkpt>
      <trkpt lat="49.59984" lon="-1.74724">
        <ele>90</ele>
        <time>2020-06-14T18:16:03Z</time>
      </trkpt>
      <trkpt lat="49.59988" lon="-1.74721">
        <ele>90.2</ele>
        <time>2020-06-14T18:16:04Z</time>
      </trkpt>
      <trkpt lat="49.5999" lon="-1.74718">
        <ele>90.5</ele>
        <time>2020-06-14T18:16:05Z</time>
      </trkpt>
      <trkpt lat="49.59993" lon="-1.74715">
        <ele>90.6</ele>
        <time>2020-06-14T18:16:06Z</time>
      </trkpt>
      <trkpt lat="49.59995" lon="-1.74711">
        <ele>90.9</ele>
        <time>2020-06-14T18:16:07Z</time>
      </trkpt>
      <trkpt lat="49.59997" lon="-1.74707">
        <ele>91.1</ele>
        <time>2020-06-14T18:16:08Z</time>
      </trkpt>
      <trkpt lat="49.6" lon="-1.74704">
        <ele>91.3</ele>
        <time>2020-06-14T18:16:09Z</time>
      </trkpt>
      <trkpt lat="49.60004" lon="-1.747">
        <ele>91.5</ele>
        <time>2020-06-14T18:16:10Z</time>
      </trkpt>
      <trkpt lat="49.60007" lon="-1.74696">
        <ele>91.8</ele>
        <time>2020-06-14T18:16:11Z</time>
      </trkpt>
      <trkpt lat="49.60011" lon="-1.7469">
        <ele>92.1</ele>
        <time>2020-06-14T18:16:12Z</time>
      </trkpt>
      <trkpt lat="49.60015" lon="-1.74685">
        <ele>92.4</ele>
        <time>2020-06-14T18:16:13Z</time>
      </trkpt>
      <trkpt lat="49.60018" lon="-1.7468">
        <ele>92.7</ele>
        <time>2020-06-14T18:16:14Z</time>
      </trkpt>
      <trkpt lat="49.6002" lon="-1.74676">
        <ele>92.8</ele>
        <time>2020-06-14T18:16:15Z</time>
      </trkpt>
      <trkpt lat="49.60022" lon="-1.74671">
        <ele>93.1</ele>
        <time>2020-06-14T18:16:16Z</time>
      </trkpt>
      <trkpt lat="49.60024" lon="-1.74668">
        <ele>93.3</ele>
        <time>2020-06-14T18:16:17Z</time>
      </trkpt>
      <trkpt lat="49.60025" lon="-1.74664">
        <ele>93.4</ele>
        <time>2020-06-14T18:16:18Z</time>
      </trkpt>
      <trkpt lat="49.60028" lon="-1.74659">
        <ele>93.7</ele>
        <time>2020-06-14T18:16:19Z</time>
      </trkpt>
      <trkpt lat="49.60031" lon="-1.74653">
        <ele>93.9</ele>
        <time>2020-06-14T18:16:20Z</time>
      </trkpt>
      <trkpt lat="49.60033" lon="-1.74648">
        <ele>94.1</ele>
        <time>2020-06-14T18:16:21Z</time>
      </trkpt>
      <trkpt lat="49.60035" lon="-1.74642">
        <ele>94.4</ele>
        <time>2020-06-14T18:16:22Z</time>
      </trkpt>
      <trkpt lat="49.60038" lon="-1.74637">
        <ele>94.6</ele>
        <time>2020-06-14T18:16:23Z</time>
      </trkpt>
      <trkpt lat="49.60041" lon="-1.74631">
        <ele>94.9</ele>
        <time>2020-06-14T18:16:24Z</time>
      </trkpt>
      <trkpt lat="49.60044" lon="-1.74625">
        <ele>95.1</ele>
        <time>2020-06-14T18:16:25Z</time>
      </trkpt>
      <trkpt lat="49.60046" lon="-1.7462">
        <ele>95.3</ele>
        <time>2020-06-14T18:16:26Z</time>
      </trkpt>
      <trkpt lat="49.60048" lon="-1.74614">
        <ele>95.5</ele>
        <time>2020-06-14T18:16:27Z</time>
      </trkpt>
      <trkpt lat="49.6005" lon="-1.74609">
        <ele>95.7</ele>
        <time>2020-06-14T18:16:28Z</time>
      </trkpt>
      <trkpt lat="49.60051" lon="-1.74603">
        <ele>96</ele>
        <time>2020-06-14T18:16:29Z</time>
      </trkpt>
      <trkpt lat="49.60053" lon="-1.74598">
        <ele>96.2</ele>
        <time>2020-06-14T18:16:30Z</time>
      </trkpt>
      <trkpt lat="49.60055" lon="-1.74593">
        <ele>96.3</ele>
        <time>2020-06-14T18:16:31Z</time>
      </trkpt>
      <trkpt lat="49.60056" lon="-1.74587">
        <ele>96.5</ele>
        <time>2020-06-14T18:16:32Z</time>
      </trkpt>
      <trkpt lat="49.60058" lon="-1.74582">
        <ele>96.7</ele>
        <time>2020-06-14T18:16:33Z</time>
      </trkpt>
      <trkpt lat="49.60059" lon="-1.74578">
        <ele>96.8</ele>
        <time>2020-06-14T18:16:34Z</time>
      </trkpt>
      <trkpt lat="49.6006" lon="-1.74574">
        <ele>97</ele>
        <time>2020-06-14T18:16:35Z</time>
      </trkpt>
      <trkpt lat="49.60062" lon="-1.74568">
        <ele>97.2</ele>
        <time>2020-06-14T18:16:36Z</time>
      </trkpt>
      <trkpt lat="49.60062" lon="-1.74564">
        <ele>97.3</ele>
        <time>2020-06-14T18:16:37Z</time>
      </trkpt>
      <trkpt lat="49.60064" lon="-1.74559">
        <ele>97.4</ele>
        <time>2020-06-14T18:16:38Z</time>
      </trkpt>
      <trkpt lat="49.60065" lon="-1.74553">
        <ele>97.7</ele>
        <time>2020-06-14T18:16:39Z</time>
      </trkpt>
      <trkpt lat="49.60067" lon="-1.74548">
        <ele>97.8</ele>
        <time>2020-06-14T18:16:40Z</time>
      </trkpt>
      <trkpt lat="49.60069" lon="-1.74542">
        <ele>98</ele>
        <time>2020-06-14T18:16:41Z</time>
      </trkpt>
      <trkpt lat="49.60071" lon="-1.74537">
        <ele>98.2</ele>
        <time>2020-06-14T18:16:42Z</time>
      </trkpt>
      <trkpt lat="49.60072" lon="-1.74532">
        <ele>98.3</ele>
        <time>2020-06-14T18:16:43Z</time>
      </trkpt>
      <trkpt lat="49.60074" lon="-1.74528">
        <ele>98.5</ele>
        <time>2020-06-14T18:16:44Z</time>
      </trkpt>
      <trkpt lat="49.60076" lon="-1.74522">
        <ele>98.6</ele>
        <time>2020-06-14T18:16:45Z</time>
      </trkpt>
      <trkpt lat="49.60079" lon="-1.74516">
        <ele>98.8</ele>
        <time>2020-06-14T18:16:46Z</time>
      </trkpt>
      <trkpt lat="49.60081" lon="-1.7451">
        <ele>99</ele>
        <time>2020-06-14T18:16:47Z</time>
      </trkpt>
      <trkpt lat="49.60084" lon="-1.74506">
        <ele>99.1</ele>
        <time>2020-06-14T18:16:48Z</time>
      </trkpt>
      <trkpt lat="49.60086" lon="-1.745">
        <ele>99.3</ele>
        <time>2020-06-14T18:16:49Z</time>
      </trkpt>
      <trkpt lat="49.60088" lon="-1.74495">
        <ele>99.4</ele>
        <time>2020-06-14T18:16:50Z</time>
      </trkpt>
      <trkpt lat="49.60089" lon="-1.7449">
        <ele>99.6</ele>
        <time>2020-06-14T18:16:51Z</time>
      </trkpt>
      <trkpt lat="49.60091" lon="-1.74484">
        <ele>99.7</ele>
        <time>2020-06-14T18:16:52Z</time>
      </trkpt>
      <trkpt lat="49.60092" lon="-1.74479">
        <ele>99.8</ele>
        <time>2020-06-14T18:16:53Z</time>
      </trkpt>
      <trkpt lat="49.60094" lon="-1.74472">
        <ele>99.9</ele>
        <time>2020-06-14T18:16:54Z</time>
      </trkpt>
      <trkpt lat="49.60094" lon="-1.7447">
        <ele>100</ele>
        <time>2020-06-14T18:16:55Z</time>
      </trkpt>
      <trkpt lat="49.60096" lon="-1.74465">
        <ele>100</ele>
        <time>2020-06-14T18:16:56Z</time>
      </trkpt>
      <trkpt lat="49.60098" lon="-1.7446">
        <ele>100.1</ele>
        <time>2020-06-14T18:16:57Z</time>
      </trkpt>
      <trkpt lat="49.601" lon="-1.74454">
        <ele>100.2</ele>
        <time>2020-06-14T18:16:58Z</time>
      </trkpt>
      <trkpt lat="49.60102" lon="-1.74448">
        <ele>100.3</ele>
        <time>2020-06-14T18:16:59Z</time>
      </trkpt>
      <trkpt lat="49.60104" lon="-1.74442">
        <ele>100.4</ele>
        <time>2020-06-14T18:17:00Z</time>
      </trkpt>
      <trkpt lat="49.60105" lon="-1.74436">
        <ele>100.6</ele>
        <time>2020-06-14T18:17:01Z</time>
      </trkpt>
      <trkpt lat="49.60107" lon="-1.7443">
        <ele>100.7</ele>
        <time>2020-06-14T18:17:02Z</time>
      </trkpt>
      <trkpt lat="49.6011" lon="-1.74425">
        <ele>100.8</ele>
        <time>2020-06-14T18:17:03Z</time>
      </trkpt>
      <trkpt lat="49.60112" lon="-1.7442">
        <ele>100.9</ele>
        <time>2020-06-14T18:17:04Z</time>
      </trkpt>
      <trkpt lat="49.60114" lon="-1.74414">
        <ele>101</ele>
        <time>2020-06-14T18:17:05Z</time>
      </trkpt>
      <trkpt lat="49.60115" lon="-1.7441">
        <ele>101</ele>
        <time>2020-06-14T18:17:06Z</time>
      </trkpt>
      <trkpt lat="49.60117" lon="-1.74405">
        <ele>101.1</ele>
        <time>2020-06-14T18:17:07Z</time>
      </trkpt>
      <trkpt lat="49.60119" lon="-1.744">
        <ele>101.2</ele>
        <time>2020-06-14T18:17:08Z</time>
      </trkpt>
      <trkpt lat="49.60121" lon="-1.74395">
        <ele>101.3</ele>
        <time>2020-06-14T18:17:09Z</time>
      </trkpt>
      <trkpt lat="49.60122" lon="-1.74389">
        <ele>101.3</ele>
        <time>2020-06-14T18:17:10Z</time>
      </trkpt>
      <trkpt lat="49.60123" lon="-1.74383">
        <ele>101.4</ele>
        <time>2020-06-14T18:17:11Z</time>
      </trkpt>
      <trkpt lat="49.60125" lon="-1.74378">
        <ele>101.5</ele>
        <time>2020-06-14T18:17:12Z</time>
      </trkpt>
      <trkpt lat="49.60129" lon="-1.74371">
        <ele>101.6</ele>
        <time>2020-06-14T18:17:13Z</time>
      </trkpt>
      <trkpt lat="49.60131" lon="-1.74365">
        <ele>101.7</ele>
        <time>2020-06-14T18:17:14Z</time>
      </trkpt>
      <trkpt lat="49.60134" lon="-1.7436">
        <ele>101.8</ele>
        <time>2020-06-14T18:17:15Z</time>
      </trkpt>
      <trkpt lat="49.60137" lon="-1.74354">
        <ele>101.9</ele>
        <time>2020-06-14T18:17:16Z</time>
      </trkpt>
      <trkpt lat="49.6014" lon="-1.74348">
        <ele>102</ele>
        <time>2020-06-14T18:17:17Z</time>
      </trkpt>
      <trkpt lat="49.60142" lon="-1.74343">
        <ele>102.1</ele>
        <time>2020-06-14T18:17:18Z</time>
      </trkpt>
      <trkpt lat="49.60144" lon="-1.74338">
        <ele>102.1</ele>
        <time>2020-06-14T18:17:19Z</time>
      </trkpt>
      <trkpt lat="49.60146" lon="-1.74332">
        <ele>102.2</ele>
        <time>2020-06-14T18:17:20Z</time>
      </trkpt>
      <trkpt lat="49.60149" lon="-1.74326">
        <ele>102.4</ele>
        <time>2020-06-14T18:17:21Z</time>
      </trkpt>
      <trkpt lat="49.60152" lon="-1.74319">
        <ele>102.5</ele>
        <time>2020-06-14T18:17:22Z</time>
      </trkpt>
      <trkpt lat="49.60155" lon="-1.74313">
        <ele>102.7</ele>
        <time>2020-06-14T18:17:23Z</time>
      </trkpt>
      <trkpt lat="49.60158" lon="-1.74307">
        <ele>102.8</ele>
        <time>2020-06-14T18:17:24Z</time>
      </trkpt>
      <trkpt lat="49.60161" lon="-1.74302">
        <ele>102.9</ele>
        <time>2020-06-14T18:17:25Z</time>
      </trkpt>
      <trkpt lat="49.60164" lon="-1.74297">
        <ele>103</ele>
        <time>2020-06-14T18:17:26Z</time>
      </trkpt>
      <trkpt lat="49.60167" lon="-1.74293">
        <ele>103.1</ele>
        <time>2020-06-14T18:17:27Z</time>
      </trkpt>
      <trkpt lat="49.6017" lon="-1.74288">
        <ele>103.3</ele>
        <time>2020-06-14T18:17:28Z</time>
      </trkpt>
      <trkpt lat="49.60171" lon="-1.74286">
        <ele>103.3</ele>
        <time>2020-06-14T18:17:29Z</time>
      </trkpt>
      <trkpt lat="49.60174" lon="-1.7428">
        <ele>103.4</ele>
        <time>2020-06-14T18:17:30Z</time>
      </trkpt>
      <trkpt lat="49.60177" lon="-1.74274">
        <ele>103.5</ele>
        <time>2020-06-14T18:17:31Z</time>
      </trkpt>
      <trkpt lat="49.6018" lon="-1.74271">
        <ele>103.6</ele>
        <time>2020-06-14T18:17:32Z</time>
      </trkpt>
      <trkpt lat="49.60183" lon="-1.74265">
        <ele>103.8</ele>
        <time>2020-06-14T18:17:33Z</time>
      </trkpt>
      <trkpt lat="49.60185" lon="-1.74256">
        <ele>103.9</ele>
        <time>2020-06-14T18:17:34Z</time>
      </trkpt>
      <trkpt lat="49.60188" lon="-1.74249">
        <ele>104</ele>
        <time>2020-06-14T18:17:35Z</time>
      </trkpt>
      <trkpt lat="49.60191" lon="-1.74243">
        <ele>104.1</ele>
        <time>2020-06-14T18:17:36Z</time>
      </trkpt>
      <trkpt lat="49.60193" lon="-1.74237">
        <ele>104.1</ele>
        <time>2020-06-14T18:17:37Z</time>
      </trkpt>
      <trkpt lat="49.60196" lon="-1.7423">
        <ele>104.2</ele>
        <time>2020-06-14T18:17:38Z</time>
      </trkpt>
      <trkpt lat="49.60199" lon="-1.74223">
        <ele>104.4</ele>
        <time>2020-06-14T18:17:39Z</time>
      </trkpt>
      <trkpt lat="49.60201" lon="-1.74215">
        <ele>104.5</ele>
        <time>2020-06-14T18:17:40Z</time>
      </trkpt>
      <trkpt lat="49.60204" lon="-1.74208">
        <ele>104.6</ele>
        <time>2020-06-14T18:17:41Z</time>
      </trkpt>
      <trkpt lat="49.60205" lon="-1.74202">
        <ele>104.7</ele>
        <time>2020-06-14T18:17:42Z</time>
      </trkpt>
      <trkpt lat="49.60208" lon="-1.74197">
        <ele>104.7</ele>
        <time>2020-06-14T18:17:43Z</time>
      </trkpt>
      <trkpt lat="49.6021" lon="-1.7419">
        <ele>104.8</ele>
        <time>2020-06-14T18:17:44Z</time>
      </trkpt>
      <trkpt lat="49.60212" lon="-1.74184">
        <ele>104.8</ele>
        <time>2020-06-14T18:17:45Z</time>
      </trkpt>
      <trkpt lat="49.60214" lon="-1.74177">
        <ele>104.9</ele>
        <time>2020-06-14T18:17:46Z</time>
      </trkpt>
      <trkpt lat="49.60216" lon="-1.7417">
        <ele>104.9</ele>
        <time>2020-06-14T18:17:47Z</time>
      </trkpt>
      <trkpt lat="49.60218" lon="-1.74162">
        <ele>105</ele>
        <time>2020-06-14T18:17:48Z</time>
      </trkpt>
      <trkpt lat="49.60221" lon="-1.74155">
        <ele>105.1</ele>
        <time>2020-06-14T18:17:49Z</time>
      </trkpt>
      <trkpt lat="49.60225" lon="-1.74148">
        <ele>105.3</ele>
        <time>2020-06-14T18:17:50Z</time>
      </trkpt>
      <trkpt lat="49.60228" lon="-1.74141">
        <ele>105.5</ele>
        <time>2020-06-14T18:17:51Z</time>
      </trkpt>
      <trkpt lat="49.6023" lon="-1.74135">
        <ele>105.6</ele>
        <time>2020-06-14T18:17:52Z</time>
      </trkpt>
      <trkpt lat="49.60233" lon="-1.74129">
        <ele>105.7</ele>
        <time>2020-06-14T18:17:53Z</time>
      </trkpt>
      <trkpt lat="49.60236" lon="-1.74123">
        <ele>105.8</ele>
        <time>2020-06-14T18:17:54Z</time>
      </trkpt>
      <trkpt lat="49.60237" lon="-1.74117">
        <ele>106</ele>
        <time>2020-06-14T18:17:55Z</time>
      </trkpt>
      <trkpt lat="49.6024" lon="-1.74109">
        <ele>106.1</ele>
        <time>2020-06-14T18:17:56Z</time>
      </trkpt>
      <trkpt lat="49.60242" lon="-1.74103">
        <ele>106.2</ele>
        <time>2020-06-14T18:17:57Z</time>
      </trkpt>
      <trkpt lat="49.60244" lon="-1.74098">
        <ele>106.3</ele>
        <time>2020-06-14T18:17:58Z</time>
      </trkpt>
      <trkpt lat="49.60245" lon="-1.74092">
        <ele>106.5</ele>
        <time>2020-06-14T18:17:59Z</time>
      </trkpt>
      <trkpt lat="49.60247" lon="-1.74085">
        <ele>106.6</ele>
        <time>2020-06-14T18:18:00Z</time>
      </trkpt>
      <trkpt lat="49.60248" lon="-1.74077">
        <ele>106.7</ele>
        <time>2020-06-14T18:18:01Z</time>
      </trkpt>
      <trkpt lat="49.60249" lon="-1.7407">
        <ele>106.9</ele>
        <time>2020-06-14T18:18:02Z</time>
      </trkpt>
      <trkpt lat="49.60251" lon="-1.74063">
        <ele>107</ele>
        <time>2020-06-14T18:18:03Z</time>
      </trkpt>
      <trkpt lat="49.60253" lon="-1.74058">
        <ele>107.1</ele>
        <time>2020-06-14T18:18:04Z</time>
      </trkpt>
      <trkpt lat="49.60254" lon="-1.74051">
        <ele>107.2</ele>
        <time>2020-06-14T18:18:05Z</time>
      </trkpt>
      <trkpt lat="49.60256" lon="-1.74044">
        <ele>107.3</ele>
        <time>2020-06-14T18:18:06Z</time>
      </trkpt>
      <trkpt lat="49.60257" lon="-1.74038">
        <ele>107.5</ele>
        <time>2020-06-14T18:18:07Z</time>
      </trkpt>
      <trkpt lat="49.60258" lon="-1.74031">
        <ele>107.6</ele>
        <time>2020-06-14T18:18:08Z</time>
      </trkpt>
      <trkpt lat="49.60259" lon="-1.74024">
        <ele>107.7</ele>
        <time>2020-06-14T18:18:09Z</time>
      </trkpt>
      <trkpt lat="49.60261" lon="-1.74018">
        <ele>107.8</ele>
        <time>2020-06-14T18:18:10Z</time>
      </trkpt>
      <trkpt lat="49.60263" lon="-1.74011">
        <ele>107.9</ele>
        <time>2020-06-14T18:18:11Z</time>
      </trkpt>
      <trkpt lat="49.60265" lon="-1.74005">
        <ele>108</ele>
        <time>2020-06-14T18:18:12Z</time>
      </trkpt>
      <trkpt lat="49.60268" lon="-1.73999">
        <ele>108.2</ele>
        <time>2020-06-14T18:18:13Z</time>
      </trkpt>
      <trkpt lat="49.60271" lon="-1.73992">
        <ele>108.3</ele>
        <time>2020-06-14T18:18:14Z</time>
      </trkpt>
      <trkpt lat="49.60273" lon="-1.73985">
        <ele>108.4</ele>
        <time>2020-06-14T18:18:15Z</time>
      </trkpt>
      <trkpt lat="49.60274" lon="-1.73977">
        <ele>108.4</ele>
        <time>2020-06-14T18:18:16Z</time>
      </trkpt>
      <trkpt lat="49.60277" lon="-1.7397">
        <ele>108.5</ele>
        <time>2020-06-14T18:18:17Z</time>
      </trkpt>
      <trkpt lat="49.60279" lon="-1.73964">
        <ele>108.6</ele>
        <time>2020-06-14T18:18:18Z</time>
      </trkpt>
      <trkpt lat="49.6028" lon="-1.73958">
        <ele>108.6</ele>
        <time>2020-06-14T18:18:19Z</time>
      </trkpt>
      <trkpt lat="49.60282" lon="-1.73952">
        <ele>108.7</ele>
        <time>2020-06-14T18:18:20Z</time>
      </trkpt>
      <trkpt lat="49.60283" lon="-1.73945">
        <ele>108.8</ele>
        <time>2020-06-14T18:18:21Z</time>
      </trkpt>
      <trkpt lat="49.60286" lon="-1.73938">
        <ele>108.9</ele>
        <time>2020-06-14T18:18:22Z</time>
      </trkpt>
      <trkpt lat="49.60288" lon="-1.7393">
        <ele>109</ele>
        <time>2020-06-14T18:18:23Z</time>
      </trkpt>
      <trkpt lat="49.6029" lon="-1.73924">
        <ele>109.1</ele>
        <time>2020-06-14T18:18:24Z</time>
      </trkpt>
      <trkpt lat="49.60293" lon="-1.73916">
        <ele>109.2</ele>
        <time>2020-06-14T18:18:25Z</time>
      </trkpt>
      <trkpt lat="49.60295" lon="-1.73906">
        <ele>109.3</ele>
        <time>2020-06-14T18:18:26Z</time>
      </trkpt>
      <trkpt lat="49.60296" lon="-1.739">
        <ele>109.4</ele>
        <time>2020-06-14T18:18:27Z</time>
      </trkpt>
      <trkpt lat="49.60297" lon="-1.73894">
        <ele>109.5</ele>
        <time>2020-06-14T18:18:28Z</time>
      </trkpt>
      <trkpt lat="49.603" lon="-1.73888">
        <ele>109.5</ele>
        <time>2020-06-14T18:18:29Z</time>
      </trkpt>
      <trkpt lat="49.60302" lon="-1.73881">
        <ele>109.6</ele>
        <time>2020-06-14T18:18:30Z</time>
      </trkpt>
      <trkpt lat="49.60305" lon="-1.73874">
        <ele>109.6</ele>
        <time>2020-06-14T18:18:31Z</time>
      </trkpt>
      <trkpt lat="49.60307" lon="-1.73868">
        <ele>109.7</ele>
        <time>2020-06-14T18:18:32Z</time>
      </trkpt>
      <trkpt lat="49.60309" lon="-1.73861">
        <ele>109.7</ele>
        <time>2020-06-14T18:18:33Z</time>
      </trkpt>
      <trkpt lat="49.60312" lon="-1.73854">
        <ele>109.8</ele>
        <time>2020-06-14T18:18:34Z</time>
      </trkpt>
      <trkpt lat="49.60316" lon="-1.73847">
        <ele>109.8</ele>
        <time>2020-06-14T18:18:35Z</time>
      </trkpt>
      <trkpt lat="49.6032" lon="-1.7384">
        <ele>109.9</ele>
        <time>2020-06-14T18:18:36Z</time>
      </trkpt>
      <trkpt lat="49.60321" lon="-1.73833">
        <ele>109.9</ele>
        <time>2020-06-14T18:18:37Z</time>
      </trkpt>
      <trkpt lat="49.60323" lon="-1.73827">
        <ele>110</ele>
        <time>2020-06-14T18:18:38Z</time>
      </trkpt>
      <trkpt lat="49.60325" lon="-1.73819">
        <ele>110.1</ele>
        <time>2020-06-14T18:18:39Z</time>
      </trkpt>
      <trkpt lat="49.60329" lon="-1.73812">
        <ele>110.1</ele>
        <time>2020-06-14T18:18:40Z</time>
      </trkpt>
      <trkpt lat="49.60332" lon="-1.73805">
        <ele>110.2</ele>
        <time>2020-06-14T18:18:41Z</time>
      </trkpt>
      <trkpt lat="49.60335" lon="-1.73798">
        <ele>110.3</ele>
        <time>2020-06-14T18:18:42Z</time>
      </trkpt>
      <trkpt lat="49.60337" lon="-1.7379">
        <ele>110.3</ele>
        <time>2020-06-14T18:18:43Z</time>
      </trkpt>
      <trkpt lat="49.60339" lon="-1.73784">
        <ele>110.4</ele>
        <time>2020-06-14T18:18:44Z</time>
      </trkpt>
      <trkpt lat="49.60341" lon="-1.73777">
        <ele>110.4</ele>
        <time>2020-06-14T18:18:45Z</time>
      </trkpt>
      <trkpt lat="49.60343" lon="-1.73772">
        <ele>110.5</ele>
        <time>2020-06-14T18:18:46Z</time>
      </trkpt>
      <trkpt lat="49.60345" lon="-1.73765">
        <ele>110.5</ele>
        <time>2020-06-14T18:18:47Z</time>
      </trkpt>
      <trkpt lat="49.60346" lon="-1.73759">
        <ele>110.6</ele>
        <time>2020-06-14T18:18:48Z</time>
      </trkpt>
      <trkpt lat="49.60347" lon="-1.73752">
        <ele>110.7</ele>
        <time>2020-06-14T18:18:49Z</time>
      </trkpt>
      <trkpt lat="49.60349" lon="-1.73744">
        <ele>110.8</ele>
        <time>2020-06-14T18:18:50Z</time>
      </trkpt>
      <trkpt lat="49.6035" lon="-1.73737">
        <ele>110.8</ele>
        <time>2020-06-14T18:18:51Z</time>
      </trkpt>
      <trkpt lat="49.60352" lon="-1.73728">
        <ele>110.9</ele>
        <time>2020-06-14T18:18:52Z</time>
      </trkpt>
      <trkpt lat="49.60353" lon="-1.73721">
        <ele>110.9</ele>
        <time>2020-06-14T18:18:53Z</time>
      </trkpt>
      <trkpt lat="49.60357" lon="-1.73713">
        <ele>111</ele>
        <time>2020-06-14T18:18:54Z</time>
      </trkpt>
      <trkpt lat="49.60359" lon="-1.73705">
        <ele>111.1</ele>
        <time>2020-06-14T18:18:55Z</time>
      </trkpt>
      <trkpt lat="49.60361" lon="-1.73697">
        <ele>111.2</ele>
        <time>2020-06-14T18:18:56Z</time>
      </trkpt>
      <trkpt lat="49.60362" lon="-1.73691">
        <ele>111.3</ele>
        <time>2020-06-14T18:18:57Z</time>
      </trkpt>
      <trkpt lat="49.60363" lon="-1.73683">
        <ele>111.4</ele>
        <time>2020-06-14T18:18:58Z</time>
      </trkpt>
      <trkpt lat="49.60365" lon="-1.73677">
        <ele>111.5</ele>
        <time>2020-06-14T18:18:59Z</time>
      </trkpt>
      <trkpt lat="49.60367" lon="-1.7367">
        <ele>111.6</ele>
        <time>2020-06-14T18:19:00Z</time>
      </trkpt>
      <trkpt lat="49.60369" lon="-1.73664">
        <ele>111.7</ele>
        <time>2020-06-14T18:19:01Z</time>
      </trkpt>
      <trkpt lat="49.60371" lon="-1.73658">
        <ele>111.8</ele>
        <time>2020-06-14T18:19:02Z</time>
      </trkpt>
      <trkpt lat="49.60374" lon="-1.73651">
        <ele>112</ele>
        <time>2020-06-14T18:19:03Z</time>
      </trkpt>
      <trkpt lat="49.60377" lon="-1.73642">
        <ele>112.1</ele>
        <time>2020-06-14T18:19:04Z</time>
      </trkpt>
      <trkpt lat="49.6038" lon="-1.73635">
        <ele>112.3</ele>
        <time>2020-06-14T18:19:05Z</time>
      </trkpt>
      <trkpt lat="49.60384" lon="-1.73628">
        <ele>112.5</ele>
        <time>2020-06-14T18:19:06Z</time>
      </trkpt>
      <trkpt lat="49.60389" lon="-1.73621">
        <ele>112.7</ele>
        <time>2020-06-14T18:19:07Z</time>
      </trkpt>
      <trkpt lat="49.6039" lon="-1.73615">
        <ele>112.9</ele>
        <time>2020-06-14T18:19:08Z</time>
      </trkpt>
      <trkpt lat="49.60392" lon="-1.73607">
        <ele>113</ele>
        <time>2020-06-14T18:19:09Z</time>
      </trkpt>
      <trkpt lat="49.60395" lon="-1.736">
        <ele>113.1</ele>
        <time>2020-06-14T18:19:10Z</time>
      </trkpt>
      <trkpt lat="49.60396" lon="-1.73593">
        <ele>113.2</ele>
        <time>2020-06-14T18:19:11Z</time>
      </trkpt>
      <trkpt lat="49.60396" lon="-1.73584">
        <ele>113.3</ele>
        <time>2020-06-14T18:19:12Z</time>
      </trkpt>
      <trkpt lat="49.60395" lon="-1.73576">
        <ele>113.3</ele>
        <time>2020-06-14T18:19:13Z</time>
      </trkpt>
      <trkpt lat="49.60395" lon="-1.73569">
        <ele>113.3</ele>
        <time>2020-06-14T18:19:14Z</time>
      </trkpt>
      <trkpt lat="49.60397" lon="-1.7356">
        <ele>113.5</ele>
        <time>2020-06-14T18:19:15Z</time>
      </trkpt>
      <trkpt lat="49.604" lon="-1.73553">
        <ele>113.7</ele>
        <time>2020-06-14T18:19:16Z</time>
      </trkpt>
      <trkpt lat="49.60404" lon="-1.73547">
        <ele>113.9</ele>
        <time>2020-06-14T18:19:17Z</time>
      </trkpt>
      <trkpt lat="49.60409" lon="-1.73543">
        <ele>113.9</ele>
        <time>2020-06-14T18:19:18Z</time>
      </trkpt>
      <trkpt lat="49.60413" lon="-1.73539">
        <ele>114</ele>
        <time>2020-06-14T18:19:19Z</time>
      </trkpt>
      <trkpt lat="49.60419" lon="-1.73537">
        <ele>114</ele>
        <time>2020-06-14T18:19:20Z</time>
      </trkpt>
      <trkpt lat="49.60424" lon="-1.73533">
        <ele>114.4</ele>
        <time>2020-06-14T18:19:21Z</time>
      </trkpt>
      <trkpt lat="49.60428" lon="-1.73528">
        <ele>114.6</ele>
        <time>2020-06-14T18:19:22Z</time>
      </trkpt>
      <trkpt lat="49.60432" lon="-1.73523">
        <ele>114.7</ele>
        <time>2020-06-14T18:19:23Z</time>
      </trkpt>
      <trkpt lat="49.60436" lon="-1.73516">
        <ele>114.9</ele>
        <time>2020-06-14T18:19:24Z</time>
      </trkpt>
      <trkpt lat="49.60439" lon="-1.73508">
        <ele>115.2</ele>
        <time>2020-06-14T18:19:25Z</time>
      </trkpt>
      <trkpt lat="49.60441" lon="-1.73502">
        <ele>115.4</ele>
        <time>2020-06-14T18:19:26Z</time>
      </trkpt>
      <trkpt lat="49.60444" lon="-1.73496">
        <ele>115.6</ele>
        <time>2020-06-14T18:19:27Z</time>
      </trkpt>
      <trkpt lat="49.60446" lon="-1.7349">
        <ele>115.8</ele>
        <time>2020-06-14T18:19:28Z</time>
      </trkpt>
      <trkpt lat="49.60448" lon="-1.73484">
        <ele>116</ele>
        <time>2020-06-14T18:19:29Z</time>
      </trkpt>
      <trkpt lat="49.60449" lon="-1.7348">
        <ele>116.2</ele>
        <time>2020-06-14T18:19:30Z</time>
      </trkpt>
      <trkpt lat="49.6045" lon="-1.73475">
        <ele>116.3</ele>
        <time>2020-06-14T18:19:31Z</time>
      </trkpt>
      <trkpt lat="49.60451" lon="-1.73471">
        <ele>116.5</ele>
        <time>2020-06-14T18:19:32Z</time>
      </trkpt>
      <trkpt lat="49.60454" lon="-1.73467">
        <ele>116.7</ele>
        <time>2020-06-14T18:19:33Z</time>
      </trkpt>
      <trkpt lat="49.60456" lon="-1.73462">
        <ele>117</ele>
        <time>2020-06-14T18:19:34Z</time>
      </trkpt>
      <trkpt lat="49.60459" lon="-1.73457">
        <ele>117.2</ele>
        <time>2020-06-14T18:19:35Z</time>
      </trkpt>
      <trkpt lat="49.60461" lon="-1.73452">
        <ele>117.4</ele>
        <time>2020-06-14T18:19:36Z</time>
      </trkpt>
      <trkpt lat="49.60463" lon="-1.73447">
        <ele>117.7</ele>
        <time>2020-06-14T18:19:37Z</time>
      </trkpt>
      <trkpt lat="49.60466" lon="-1.73443">
        <ele>117.9</ele>
        <time>2020-06-14T18:19:38Z</time>
      </trkpt>
      <trkpt lat="49.60468" lon="-1.73438">
        <ele>118.2</ele>
        <time>2020-06-14T18:19:39Z</time>
      </trkpt>
      <trkpt lat="49.60471" lon="-1.73432">
        <ele>118.4</ele>
        <time>2020-06-14T18:19:40Z</time>
      </trkpt>
      <trkpt lat="49.60473" lon="-1.73427">
        <ele>118.7</ele>
        <time>2020-06-14T18:19:41Z</time>
      </trkpt>
      <trkpt lat="49.60475" lon="-1.73421">
        <ele>119</ele>
        <time>2020-06-14T18:19:42Z</time>
      </trkpt>
      <trkpt lat="49.60477" lon="-1.73417">
        <ele>119.3</ele>
        <time>2020-06-14T18:19:43Z</time>
      </trkpt>
      <trkpt lat="49.60479" lon="-1.73412">
        <ele>119.5</ele>
        <time>2020-06-14T18:19:44Z</time>
      </trkpt>
      <trkpt lat="49.60482" lon="-1.73406">
        <ele>119.8</ele>
        <time>2020-06-14T18:19:45Z</time>
      </trkpt>
      <trkpt lat="49.60484" lon="-1.734">
        <ele>120.2</ele>
        <time>2020-06-14T18:19:46Z</time>
      </trkpt>
      <trkpt lat="49.60486" lon="-1.73394">
        <ele>120.4</ele>
        <time>2020-06-14T18:19:47Z</time>
      </trkpt>
      <trkpt lat="49.60488" lon="-1.73389">
        <ele>120.7</ele>
        <time>2020-06-14T18:19:48Z</time>
      </trkpt>
      <trkpt lat="49.60491" lon="-1.73383">
        <ele>121</ele>
        <time>2020-06-14T18:19:49Z</time>
      </trkpt>
      <trkpt lat="49.60493" lon="-1.73378">
        <ele>121.3</ele>
        <time>2020-06-14T18:19:50Z</time>
      </trkpt>
      <trkpt lat="49.60494" lon="-1.73373">
        <ele>121.5</ele>
        <time>2020-06-14T18:19:51Z</time>
      </trkpt>
      <trkpt lat="49.60496" lon="-1.73368">
        <ele>121.7</ele>
        <time>2020-06-14T18:19:52Z</time>
      </trkpt>
      <trkpt lat="49.60498" lon="-1.73364">
        <ele>121.9</ele>
        <time>2020-06-14T18:19:53Z</time>
      </trkpt>
      <trkpt lat="49.60499" lon="-1.7336">
        <ele>122.1</ele>
        <time>2020-06-14T18:19:54Z</time>
      </trkpt>
      <trkpt lat="49.60501" lon="-1.73355">
        <ele>122.4</ele>
        <time>2020-06-14T18:19:55Z</time>
      </trkpt>
      <trkpt lat="49.60503" lon="-1.7335">
        <ele>122.6</ele>
        <time>2020-06-14T18:19:56Z</time>
      </trkpt>
      <trkpt lat="49.60505" lon="-1.73345">
        <ele>122.9</ele>
        <time>2020-06-14T18:19:57Z</time>
      </trkpt>
      <trkpt lat="49.60507" lon="-1.73339">
        <ele>123.2</ele>
        <time>2020-06-14T18:19:58Z</time>
      </trkpt>
      <trkpt lat="49.6051" lon="-1.73332">
        <ele>123.5</ele>
        <time>2020-06-14T18:19:59Z</time>
      </trkpt>
      <trkpt lat="49.60512" lon="-1.73325">
        <ele>123.7</ele>
        <time>2020-06-14T18:20:00Z</time>
      </trkpt>
      <trkpt lat="49.60514" lon="-1.73318">
        <ele>124</ele>
        <time>2020-06-14T18:20:01Z</time>
      </trkpt>
      <trkpt lat="49.60516" lon="-1.73312">
        <ele>124.2</ele>
        <time>2020-06-14T18:20:02Z</time>
      </trkpt>
      <trkpt lat="49.60517" lon="-1.73307">
        <ele>124.4</ele>
        <time>2020-06-14T18:20:03Z</time>
      </trkpt>
      <trkpt lat="49.60519" lon="-1.73301">
        <ele>124.6</ele>
        <time>2020-06-14T18:20:04Z</time>
      </trkpt>
      <trkpt lat="49.6052" lon="-1.73294">
        <ele>124.8</ele>
        <time>2020-06-14T18:20:05Z</time>
      </trkpt>
      <trkpt lat="49.60521" lon="-1.73288">
        <ele>125</ele>
        <time>2020-06-14T18:20:06Z</time>
      </trkpt>
      <trkpt lat="49.60522" lon="-1.73282">
        <ele>125.1</ele>
        <time>2020-06-14T18:20:07Z</time>
      </trkpt>
      <trkpt lat="49.60524" lon="-1.73277">
        <ele>125.3</ele>
        <time>2020-06-14T18:20:08Z</time>
      </trkpt>
      <trkpt lat="49.60526" lon="-1.73271">
        <ele>125.5</ele>
        <time>2020-06-14T18:20:09Z</time>
      </trkpt>
      <trkpt lat="49.60528" lon="-1.73265">
        <ele>125.6</ele>
        <time>2020-06-14T18:20:10Z</time>
      </trkpt>
      <trkpt lat="49.60531" lon="-1.7326">
        <ele>125.8</ele>
        <time>2020-06-14T18:20:11Z</time>
      </trkpt>
      <trkpt lat="49.60533" lon="-1.73254">
        <ele>126</ele>
        <time>2020-06-14T18:20:12Z</time>
      </trkpt>
      <trkpt lat="49.60534" lon="-1.73248">
        <ele>126.1</ele>
        <time>2020-06-14T18:20:13Z</time>
      </trkpt>
      <trkpt lat="49.60536" lon="-1.73242">
        <ele>126.3</ele>
        <time>2020-06-14T18:20:14Z</time>
      </trkpt>
      <trkpt lat="49.60538" lon="-1.73235">
        <ele>126.4</ele>
        <time>2020-06-14T18:20:15Z</time>
      </trkpt>
      <trkpt lat="49.6054" lon="-1.73228">
        <ele>126.5</ele>
        <time>2020-06-14T18:20:16Z</time>
      </trkpt>
      <trkpt lat="49.60542" lon="-1.73221">
        <ele>126.7</ele>
        <time>2020-06-14T18:20:17Z</time>
      </trkpt>
      <trkpt lat="49.60544" lon="-1.73214">
        <ele>126.8</ele>
        <time>2020-06-14T18:20:18Z</time>
      </trkpt>
      <trkpt lat="49.60546" lon="-1.73208">
        <ele>126.9</ele>
        <time>2020-06-14T18:20:19Z</time>
      </trkpt>
      <trkpt lat="49.60547" lon="-1.73201">
        <ele>127</ele>
        <time>2020-06-14T18:20:20Z</time>
      </trkpt>
      <trkpt lat="49.60549" lon="-1.73194">
        <ele>127.1</ele>
        <time>2020-06-14T18:20:21Z</time>
      </trkpt>
      <trkpt lat="49.60552" lon="-1.73188">
        <ele>127.2</ele>
        <time>2020-06-14T18:20:22Z</time>
      </trkpt>
      <trkpt lat="49.60554" lon="-1.73181">
        <ele>127.3</ele>
        <time>2020-06-14T18:20:23Z</time>
      </trkpt>
      <trkpt lat="49.60556" lon="-1.73174">
        <ele>127.4</ele>
        <time>2020-06-14T18:20:24Z</time>
      </trkpt>
      <trkpt lat="49.60559" lon="-1.73167">
        <ele>127.4</ele>
        <time>2020-06-14T18:20:25Z</time>
      </trkpt>
      <trkpt lat="49.60561" lon="-1.73161">
        <ele>127.5</ele>
        <time>2020-06-14T18:20:26Z</time>
      </trkpt>
      <trkpt lat="49.60563" lon="-1.73154">
        <ele>127.6</ele>
        <time>2020-06-14T18:20:27Z</time>
      </trkpt>
      <trkpt lat="49.60565" lon="-1.73146">
        <ele>127.6</ele>
        <time>2020-06-14T18:20:28Z</time>
      </trkpt>
      <trkpt lat="49.60567" lon="-1.7314">
        <ele>127.5</ele>
        <time>2020-06-14T18:20:29Z</time>
      </trkpt>
      <trkpt lat="49.60569" lon="-1.73133">
        <ele>127.4</ele>
        <time>2020-06-14T18:20:30Z</time>
      </trkpt>
      <trkpt lat="49.60572" lon="-1.73127">
        <ele>127.3</ele>
        <time>2020-06-14T18:20:31Z</time>
      </trkpt>
      <trkpt lat="49.60574" lon="-1.7312">
        <ele>127.2</ele>
        <time>2020-06-14T18:20:32Z</time>
      </trkpt>
      <trkpt lat="49.60575" lon="-1.73114">
        <ele>127.1</ele>
        <time>2020-06-14T18:20:33Z</time>
      </trkpt>
      <trkpt lat="49.60578" lon="-1.73107">
        <ele>127</ele>
        <time>2020-06-14T18:20:34Z</time>
      </trkpt>
      <trkpt lat="49.6058" lon="-1.73101">
        <ele>127</ele>
        <time>2020-06-14T18:20:35Z</time>
      </trkpt>
      <trkpt lat="49.60583" lon="-1.73094">
        <ele>126.9</ele>
        <time>2020-06-14T18:20:36Z</time>
      </trkpt>
      <trkpt lat="49.60584" lon="-1.73088">
        <ele>126.8</ele>
        <time>2020-06-14T18:20:37Z</time>
      </trkpt>
      <trkpt lat="49.60585" lon="-1.73081">
        <ele>126.7</ele>
        <time>2020-06-14T18:20:38Z</time>
      </trkpt>
      <trkpt lat="49.60587" lon="-1.73074">
        <ele>126.6</ele>
        <time>2020-06-14T18:20:39Z</time>
      </trkpt>
      <trkpt lat="49.60589" lon="-1.73068">
        <ele>126.5</ele>
        <time>2020-06-14T18:20:40Z</time>
      </trkpt>
      <trkpt lat="49.60591" lon="-1.73062">
        <ele>126.4</ele>
        <time>2020-06-14T18:20:41Z</time>
      </trkpt>
      <trkpt lat="49.60592" lon="-1.73055">
        <ele>126.3</ele>
        <time>2020-06-14T18:20:42Z</time>
      </trkpt>
      <trkpt lat="49.60593" lon="-1.73047">
        <ele>126.2</ele>
        <time>2020-06-14T18:20:43Z</time>
      </trkpt>
      <trkpt lat="49.60595" lon="-1.73038">
        <ele>126</ele>
        <time>2020-06-14T18:20:44Z</time>
      </trkpt>
      <trkpt lat="49.60597" lon="-1.7303">
        <ele>125.9</ele>
        <time>2020-06-14T18:20:45Z</time>
      </trkpt>
      <trkpt lat="49.60597" lon="-1.73023">
        <ele>125.7</ele>
        <time>2020-06-14T18:20:46Z</time>
      </trkpt>
      <trkpt lat="49.60598" lon="-1.73014">
        <ele>125.5</ele>
        <time>2020-06-14T18:20:47Z</time>
      </trkpt>
      <trkpt lat="49.60599" lon="-1.73006">
        <ele>125.3</ele>
        <time>2020-06-14T18:20:48Z</time>
      </trkpt>
      <trkpt lat="49.606" lon="-1.72997">
        <ele>125.1</ele>
        <time>2020-06-14T18:20:49Z</time>
      </trkpt>
      <trkpt lat="49.60601" lon="-1.72988">
        <ele>124.8</ele>
        <time>2020-06-14T18:20:50Z</time>
      </trkpt>
      <trkpt lat="49.60601" lon="-1.7298">
        <ele>124.5</ele>
        <time>2020-06-14T18:20:51Z</time>
      </trkpt>
      <trkpt lat="49.60602" lon="-1.72971">
        <ele>124.2</ele>
        <time>2020-06-14T18:20:52Z</time>
      </trkpt>
      <trkpt lat="49.60602" lon="-1.72962">
        <ele>124</ele>
        <time>2020-06-14T18:20:53Z</time>
      </trkpt>
      <trkpt lat="49.60602" lon="-1.72951">
        <ele>123.6</ele>
        <time>2020-06-14T18:20:54Z</time>
      </trkpt>
      <trkpt lat="49.60602" lon="-1.72941">
        <ele>123.2</ele>
        <time>2020-06-14T18:20:55Z</time>
      </trkpt>
      <trkpt lat="49.60602" lon="-1.7293">
        <ele>122.9</ele>
        <time>2020-06-14T18:20:56Z</time>
      </trkpt>
      <trkpt lat="49.60602" lon="-1.72919">
        <ele>122.5</ele>
        <time>2020-06-14T18:20:57Z</time>
      </trkpt>
      <trkpt lat="49.60602" lon="-1.72908">
        <ele>122.1</ele>
        <time>2020-06-14T18:20:58Z</time>
      </trkpt>
      <trkpt lat="49.60601" lon="-1.72898">
        <ele>121.7</ele>
        <time>2020-06-14T18:20:59Z</time>
      </trkpt>
      <trkpt lat="49.606" lon="-1.72887">
        <ele>121.3</ele>
        <time>2020-06-14T18:21:00Z</time>
      </trkpt>
      <trkpt lat="49.606" lon="-1.72876">
        <ele>121</ele>
        <time>2020-06-14T18:21:01Z</time>
      </trkpt>
      <trkpt lat="49.60599" lon="-1.72865">
        <ele>120.7</ele>
        <time>2020-06-14T18:21:02Z</time>
      </trkpt>
      <trkpt lat="49.60599" lon="-1.72853">
        <ele>120.4</ele>
        <time>2020-06-14T18:21:03Z</time>
      </trkpt>
      <trkpt lat="49.60598" lon="-1.7284">
        <ele>120</ele>
        <time>2020-06-14T18:21:04Z</time>
      </trkpt>
      <trkpt lat="49.60598" lon="-1.72829">
        <ele>119.7</ele>
        <time>2020-06-14T18:21:05Z</time>
      </trkpt>
      <trkpt lat="49.60597" lon="-1.72816">
        <ele>119.4</ele>
        <time>2020-06-14T18:21:06Z</time>
      </trkpt>
      <trkpt lat="49.60598" lon="-1.72803">
        <ele>119</ele>
        <time>2020-06-14T18:21:07Z</time>
      </trkpt>
      <trkpt lat="49.60598" lon="-1.72791">
        <ele>118.6</ele>
        <time>2020-06-14T18:21:08Z</time>
      </trkpt>
      <trkpt lat="49.60598" lon="-1.72778">
        <ele>118.3</ele>
        <time>2020-06-14T18:21:09Z</time>
      </trkpt>
      <trkpt lat="49.60598" lon="-1.72765">
        <ele>118.1</ele>
        <time>2020-06-14T18:21:10Z</time>
      </trkpt>
      <trkpt lat="49.60599" lon="-1.72753">
        <ele>117.8</ele>
        <time>2020-06-14T18:21:11Z</time>
      </trkpt>
      <trkpt lat="49.606" lon="-1.7274">
        <ele>117.5</ele>
        <time>2020-06-14T18:21:12Z</time>
      </trkpt>
      <trkpt lat="49.60601" lon="-1.72728">
        <ele>117.3</ele>
        <time>2020-06-14T18:21:13Z</time>
      </trkpt>
      <trkpt lat="49.60603" lon="-1.72716">
        <ele>117</ele>
        <time>2020-06-14T18:21:14Z</time>
      </trkpt>
      <trkpt lat="49.60603" lon="-1.72704">
        <ele>116.7</ele>
        <time>2020-06-14T18:21:15Z</time>
      </trkpt>
      <trkpt lat="49.60604" lon="-1.72691">
        <ele>116.4</ele>
        <time>2020-06-14T18:21:16Z</time>
      </trkpt>
      <trkpt lat="49.60607" lon="-1.72678">
        <ele>116</ele>
        <time>2020-06-14T18:21:17Z</time>
      </trkpt>
      <trkpt lat="49.60609" lon="-1.72666">
        <ele>115.6</ele>
        <time>2020-06-14T18:21:18Z</time>
      </trkpt>
      <trkpt lat="49.60611" lon="-1.72654">
        <ele>115.2</ele>
        <time>2020-06-14T18:21:19Z</time>
      </trkpt>
      <trkpt lat="49.60614" lon="-1.72641">
        <ele>114.8</ele>
        <time>2020-06-14T18:21:20Z</time>
      </trkpt>
      <trkpt lat="49.60616" lon="-1.72628">
        <ele>114.4</ele>
        <time>2020-06-14T18:21:21Z</time>
      </trkpt>
      <trkpt lat="49.60619" lon="-1.72616">
        <ele>114</ele>
        <time>2020-06-14T18:21:22Z</time>
      </trkpt>
      <trkpt lat="49.60622" lon="-1.72603">
        <ele>113.6</ele>
        <time>2020-06-14T18:21:23Z</time>
      </trkpt>
      <trkpt lat="49.60626" lon="-1.7259">
        <ele>113.2</ele>
        <time>2020-06-14T18:21:24Z</time>
      </trkpt>
      <trkpt lat="49.6063" lon="-1.72577">
        <ele>112.7</ele>
        <time>2020-06-14T18:21:25Z</time>
      </trkpt>
      <trkpt lat="49.60633" lon="-1.72564">
        <ele>112.2</ele>
        <time>2020-06-14T18:21:26Z</time>
      </trkpt>
      <trkpt lat="49.60637" lon="-1.72551">
        <ele>111.6</ele>
        <time>2020-06-14T18:21:27Z</time>
      </trkpt>
      <trkpt lat="49.60641" lon="-1.72539">
        <ele>111.1</ele>
        <time>2020-06-14T18:21:28Z</time>
      </trkpt>
      <trkpt lat="49.60645" lon="-1.72526">
        <ele>110.6</ele>
        <time>2020-06-14T18:21:29Z</time>
      </trkpt>
      <trkpt lat="49.60649" lon="-1.72513">
        <ele>110.1</ele>
        <time>2020-06-14T18:21:30Z</time>
      </trkpt>
      <trkpt lat="49.60653" lon="-1.72499">
        <ele>109.6</ele>
        <time>2020-06-14T18:21:31Z</time>
      </trkpt>
      <trkpt lat="49.60658" lon="-1.72486">
        <ele>109</ele>
        <time>2020-06-14T18:21:32Z</time>
      </trkpt>
      <trkpt lat="49.60662" lon="-1.72474">
        <ele>108.5</ele>
        <time>2020-06-14T18:21:33Z</time>
      </trkpt>
      <trkpt lat="49.60666" lon="-1.7246">
        <ele>107.9</ele>
        <time>2020-06-14T18:21:34Z</time>
      </trkpt>
      <trkpt lat="49.6067" lon="-1.72447">
        <ele>107.3</ele>
        <time>2020-06-14T18:21:35Z</time>
      </trkpt>
      <trkpt lat="49.60675" lon="-1.72433">
        <ele>106.7</ele>
        <time>2020-06-14T18:21:36Z</time>
      </trkpt>
      <trkpt lat="49.6068" lon="-1.7242">
        <ele>106</ele>
        <time>2020-06-14T18:21:37Z</time>
      </trkpt>
      <trkpt lat="49.60685" lon="-1.72407">
        <ele>105.4</ele>
        <time>2020-06-14T18:21:38Z</time>
      </trkpt>
      <trkpt lat="49.60689" lon="-1.72393">
        <ele>104.7</ele>
        <time>2020-06-14T18:21:39Z</time>
      </trkpt>
      <trkpt lat="49.60694" lon="-1.72379">
        <ele>104</ele>
        <time>2020-06-14T18:21:40Z</time>
      </trkpt>
      <trkpt lat="49.60698" lon="-1.72364">
        <ele>103.3</ele>
        <time>2020-06-14T18:21:41Z</time>
      </trkpt>
      <trkpt lat="49.60703" lon="-1.7235">
        <ele>102.6</ele>
        <time>2020-06-14T18:21:42Z</time>
      </trkpt>
      <trkpt lat="49.60708" lon="-1.72336">
        <ele>101.9</ele>
        <time>2020-06-14T18:21:43Z</time>
      </trkpt>
      <trkpt lat="49.60713" lon="-1.72322">
        <ele>101.2</ele>
        <time>2020-06-14T18:21:44Z</time>
      </trkpt>
      <trkpt lat="49.60717" lon="-1.72307">
        <ele>100.6</ele>
        <time>2020-06-14T18:21:45Z</time>
      </trkpt>
      <trkpt lat="49.60721" lon="-1.72293">
        <ele>99.9</ele>
        <time>2020-06-14T18:21:46Z</time>
      </trkpt>
      <trkpt lat="49.60726" lon="-1.72279">
        <ele>99.3</ele>
        <time>2020-06-14T18:21:47Z</time>
      </trkpt>
      <trkpt lat="49.60731" lon="-1.72265">
        <ele>98.7</ele>
        <time>2020-06-14T18:21:48Z</time>
      </trkpt>
      <trkpt lat="49.60736" lon="-1.72251">
        <ele>98.2</ele>
        <time>2020-06-14T18:21:49Z</time>
      </trkpt>
      <trkpt lat="49.60741" lon="-1.72238">
        <ele>97.8</ele>
        <time>2020-06-14T18:21:50Z</time>
      </trkpt>
      <trkpt lat="49.60746" lon="-1.72224">
        <ele>97.5</ele>
        <time>2020-06-14T18:21:51Z</time>
      </trkpt>
      <trkpt lat="49.60749" lon="-1.72209">
        <ele>97.4</ele>
        <time>2020-06-14T18:21:52Z</time>
      </trkpt>
      <trkpt lat="49.60754" lon="-1.72196">
        <ele>97.4</ele>
        <time>2020-06-14T18:21:53Z</time>
      </trkpt>
      <trkpt lat="49.60758" lon="-1.72182">
        <ele>97.2</ele>
        <time>2020-06-14T18:21:54Z</time>
      </trkpt>
      <trkpt lat="49.60762" lon="-1.72169">
        <ele>96.9</ele>
        <time>2020-06-14T18:21:55Z</time>
      </trkpt>
      <trkpt lat="49.60766" lon="-1.72156">
        <ele>96.7</ele>
        <time>2020-06-14T18:21:56Z</time>
      </trkpt>
      <trkpt lat="49.6077" lon="-1.72143">
        <ele>96.6</ele>
        <time>2020-06-14T18:21:57Z</time>
      </trkpt>
      <trkpt lat="49.60774" lon="-1.72131">
        <ele>96.7</ele>
        <time>2020-06-14T18:21:58Z</time>
      </trkpt>
      <trkpt lat="49.60777" lon="-1.72119">
        <ele>96.8</ele>
        <time>2020-06-14T18:21:59Z</time>
      </trkpt>
      <trkpt lat="49.6078" lon="-1.72107">
        <ele>96.9</ele>
        <time>2020-06-14T18:22:00Z</time>
      </trkpt>
      <trkpt lat="49.60785" lon="-1.72097">
        <ele>97</ele>
        <time>2020-06-14T18:22:01Z</time>
      </trkpt>
      <trkpt lat="49.60788" lon="-1.72086">
        <ele>97.1</ele>
        <time>2020-06-14T18:22:02Z</time>
      </trkpt>
      <trkpt lat="49.60792" lon="-1.72076">
        <ele>97.2</ele>
        <time>2020-06-14T18:22:03Z</time>
      </trkpt>
      <trkpt lat="49.60795" lon="-1.72065">
        <ele>97.2</ele>
        <time>2020-06-14T18:22:04Z</time>
      </trkpt>
      <trkpt lat="49.60799" lon="-1.72055">
        <ele>97.2</ele>
        <time>2020-06-14T18:22:05Z</time>
      </trkpt>
      <trkpt lat="49.60803" lon="-1.72046">
        <ele>97.2</ele>
        <time>2020-06-14T18:22:06Z</time>
      </trkpt>
      <trkpt lat="49.60806" lon="-1.72037">
        <ele>97.2</ele>
        <time>2020-06-14T18:22:07Z</time>
      </trkpt>
      <trkpt lat="49.6081" lon="-1.72028">
        <ele>97.2</ele>
        <time>2020-06-14T18:22:08Z</time>
      </trkpt>
      <trkpt lat="49.60813" lon="-1.72019">
        <ele>97.1</ele>
        <time>2020-06-14T18:22:09Z</time>
      </trkpt>
      <trkpt lat="49.60817" lon="-1.72011">
        <ele>97</ele>
        <time>2020-06-14T18:22:10Z</time>
      </trkpt>
      <trkpt lat="49.6082" lon="-1.72001">
        <ele>96.9</ele>
        <time>2020-06-14T18:22:11Z</time>
      </trkpt>
      <trkpt lat="49.60824" lon="-1.71993">
        <ele>96.8</ele>
        <time>2020-06-14T18:22:12Z</time>
      </trkpt>
      <trkpt lat="49.60828" lon="-1.71984">
        <ele>96.7</ele>
        <time>2020-06-14T18:22:13Z</time>
      </trkpt>
      <trkpt lat="49.60831" lon="-1.71975">
        <ele>96.5</ele>
        <time>2020-06-14T18:22:14Z</time>
      </trkpt>
      <trkpt lat="49.60835" lon="-1.71967">
        <ele>96.4</ele>
        <time>2020-06-14T18:22:15Z</time>
      </trkpt>
      <trkpt lat="49.60838" lon="-1.71957">
        <ele>96.2</ele>
        <time>2020-06-14T18:22:16Z</time>
      </trkpt>
      <trkpt lat="49.60842" lon="-1.71949">
        <ele>96</ele>
        <time>2020-06-14T18:22:17Z</time>
      </trkpt>
      <trkpt lat="49.60846" lon="-1.7194">
        <ele>95.7</ele>
        <time>2020-06-14T18:22:18Z</time>
      </trkpt>
      <trkpt lat="49.60849" lon="-1.71931">
        <ele>95.5</ele>
        <time>2020-06-14T18:22:19Z</time>
      </trkpt>
      <trkpt lat="49.60852" lon="-1.71922">
        <ele>95.2</ele>
        <time>2020-06-14T18:22:20Z</time>
      </trkpt>
      <trkpt lat="49.60855" lon="-1.71913">
        <ele>94.9</ele>
        <time>2020-06-14T18:22:21Z</time>
      </trkpt>
      <trkpt lat="49.60858" lon="-1.71903">
        <ele>94.6</ele>
        <time>2020-06-14T18:22:22Z</time>
      </trkpt>
      <trkpt lat="49.60863" lon="-1.71894">
        <ele>94.2</ele>
        <time>2020-06-14T18:22:23Z</time>
      </trkpt>
      <trkpt lat="49.60867" lon="-1.71885">
        <ele>93.8</ele>
        <time>2020-06-14T18:22:24Z</time>
      </trkpt>
      <trkpt lat="49.60871" lon="-1.71875">
        <ele>93.3</ele>
        <time>2020-06-14T18:22:25Z</time>
      </trkpt>
      <trkpt lat="49.60875" lon="-1.71865">
        <ele>92.8</ele>
        <time>2020-06-14T18:22:26Z</time>
      </trkpt>
      <trkpt lat="49.60879" lon="-1.71854">
        <ele>92.3</ele>
        <time>2020-06-14T18:22:27Z</time>
      </trkpt>
      <trkpt lat="49.60882" lon="-1.71843">
        <ele>91.8</ele>
        <time>2020-06-14T18:22:28Z</time>
      </trkpt>
      <trkpt lat="49.60885" lon="-1.71831">
        <ele>91.2</ele>
        <time>2020-06-14T18:22:29Z</time>
      </trkpt>
      <trkpt lat="49.60888" lon="-1.71818">
        <ele>90.6</ele>
        <time>2020-06-14T18:22:30Z</time>
      </trkpt>
      <trkpt lat="49.60891" lon="-1.71805">
        <ele>90</ele>
        <time>2020-06-14T18:22:31Z</time>
      </trkpt>
      <trkpt lat="49.60894" lon="-1.71791">
        <ele>89.5</ele>
        <time>2020-06-14T18:22:32Z</time>
      </trkpt>
      <trkpt lat="49.60897" lon="-1.71778">
        <ele>89</ele>
        <time>2020-06-14T18:22:33Z</time>
      </trkpt>
      <trkpt lat="49.60899" lon="-1.71764">
        <ele>88.5</ele>
        <time>2020-06-14T18:22:34Z</time>
      </trkpt>
      <trkpt lat="49.60902" lon="-1.7175">
        <ele>88</ele>
        <time>2020-06-14T18:22:35Z</time>
      </trkpt>
      <trkpt lat="49.60904" lon="-1.71736">
        <ele>87.6</ele>
        <time>2020-06-14T18:22:36Z</time>
      </trkpt>
      <trkpt lat="49.60906" lon="-1.71722">
        <ele>87.1</ele>
        <time>2020-06-14T18:22:37Z</time>
      </trkpt>
      <trkpt lat="49.60909" lon="-1.71709">
        <ele>86.7</ele>
        <time>2020-06-14T18:22:38Z</time>
      </trkpt>
      <trkpt lat="49.60912" lon="-1.71695">
        <ele>86.4</ele>
        <time>2020-06-14T18:22:39Z</time>
      </trkpt>
      <trkpt lat="49.60916" lon="-1.71682">
        <ele>86.1</ele>
        <time>2020-06-14T18:22:40Z</time>
      </trkpt>
      <trkpt lat="49.60919" lon="-1.71668">
        <ele>85.8</ele>
        <time>2020-06-14T18:22:41Z</time>
      </trkpt>
      <trkpt lat="49.60924" lon="-1.71655">
        <ele>85.5</ele>
        <time>2020-06-14T18:22:42Z</time>
      </trkpt>
      <trkpt lat="49.60928" lon="-1.71642">
        <ele>85.2</ele>
        <time>2020-06-14T18:22:43Z</time>
      </trkpt>
      <trkpt lat="49.60932" lon="-1.71629">
        <ele>84.9</ele>
        <time>2020-06-14T18:22:44Z</time>
      </trkpt>
      <trkpt lat="49.60936" lon="-1.71617">
        <ele>84.7</ele>
        <time>2020-06-14T18:22:45Z</time>
      </trkpt>
      <trkpt lat="49.60941" lon="-1.71606">
        <ele>84.6</ele>
        <time>2020-06-14T18:22:46Z</time>
      </trkpt>
      <trkpt lat="49.60947" lon="-1.71595">
        <ele>84.5</ele>
        <time>2020-06-14T18:22:47Z</time>
      </trkpt>
      <trkpt lat="49.60952" lon="-1.71583">
        <ele>84.4</ele>
        <time>2020-06-14T18:22:48Z</time>
      </trkpt>
      <trkpt lat="49.60957" lon="-1.71573">
        <ele>84.2</ele>
        <time>2020-06-14T18:22:49Z</time>
      </trkpt>
      <trkpt lat="49.60963" lon="-1.71562">
        <ele>84.1</ele>
        <time>2020-06-14T18:22:50Z</time>
      </trkpt>
      <trkpt lat="49.60968" lon="-1.71551">
        <ele>84</ele>
        <time>2020-06-14T18:22:51Z</time>
      </trkpt>
      <trkpt lat="49.60974" lon="-1.71541">
        <ele>83.8</ele>
        <time>2020-06-14T18:22:52Z</time>
      </trkpt>
      <trkpt lat="49.60979" lon="-1.7153">
        <ele>83.6</ele>
        <time>2020-06-14T18:22:53Z</time>
      </trkpt>
      <trkpt lat="49.60985" lon="-1.7152">
        <ele>83.4</ele>
        <time>2020-06-14T18:22:54Z</time>
      </trkpt>
      <trkpt lat="49.60991" lon="-1.71509">
        <ele>83.2</ele>
        <time>2020-06-14T18:22:55Z</time>
      </trkpt>
      <trkpt lat="49.60996" lon="-1.71499">
        <ele>83.1</ele>
        <time>2020-06-14T18:22:56Z</time>
      </trkpt>
      <trkpt lat="49.61002" lon="-1.71488">
        <ele>83</ele>
        <time>2020-06-14T18:22:57Z</time>
      </trkpt>
      <trkpt lat="49.61007" lon="-1.71477">
        <ele>82.8</ele>
        <time>2020-06-14T18:22:58Z</time>
      </trkpt>
      <trkpt lat="49.61011" lon="-1.71465">
        <ele>82.7</ele>
        <time>2020-06-14T18:22:59Z</time>
      </trkpt>
      <trkpt lat="49.61016" lon="-1.71454">
        <ele>82.5</ele>
        <time>2020-06-14T18:23:00Z</time>
      </trkpt>
      <trkpt lat="49.61021" lon="-1.71443">
        <ele>82.3</ele>
        <time>2020-06-14T18:23:01Z</time>
      </trkpt>
      <trkpt lat="49.61026" lon="-1.71431">
        <ele>82.1</ele>
        <time>2020-06-14T18:23:02Z</time>
      </trkpt>
      <trkpt lat="49.61031" lon="-1.7142">
        <ele>81.9</ele>
        <time>2020-06-14T18:23:03Z</time>
      </trkpt>
      <trkpt lat="49.61036" lon="-1.71409">
        <ele>81.7</ele>
        <time>2020-06-14T18:23:04Z</time>
      </trkpt>
      <trkpt lat="49.61041" lon="-1.71397">
        <ele>81.6</ele>
        <time>2020-06-14T18:23:05Z</time>
      </trkpt>
      <trkpt lat="49.61046" lon="-1.71386">
        <ele>81.5</ele>
        <time>2020-06-14T18:23:06Z</time>
      </trkpt>
      <trkpt lat="49.6105" lon="-1.71374">
        <ele>81.4</ele>
        <time>2020-06-14T18:23:07Z</time>
      </trkpt>
      <trkpt lat="49.61055" lon="-1.71363">
        <ele>81.3</ele>
        <time>2020-06-14T18:23:08Z</time>
      </trkpt>
      <trkpt lat="49.61059" lon="-1.71351">
        <ele>81.2</ele>
        <time>2020-06-14T18:23:09Z</time>
      </trkpt>
      <trkpt lat="49.61064" lon="-1.7134">
        <ele>81.2</ele>
        <time>2020-06-14T18:23:10Z</time>
      </trkpt>
      <trkpt lat="49.61068" lon="-1.71329">
        <ele>81.2</ele>
        <time>2020-06-14T18:23:11Z</time>
      </trkpt>
      <trkpt lat="49.61073" lon="-1.71317">
        <ele>81.2</ele>
        <time>2020-06-14T18:23:12Z</time>
      </trkpt>
      <trkpt lat="49.61076" lon="-1.71305">
        <ele>81.3</ele>
        <time>2020-06-14T18:23:13Z</time>
      </trkpt>
      <trkpt lat="49.61078" lon="-1.71292">
        <ele>81.5</ele>
        <time>2020-06-14T18:23:14Z</time>
      </trkpt>
      <trkpt lat="49.6108" lon="-1.71279">
        <ele>81.6</ele>
        <time>2020-06-14T18:23:15Z</time>
      </trkpt>
      <trkpt lat="49.61081" lon="-1.71266">
        <ele>81.8</ele>
        <time>2020-06-14T18:23:16Z</time>
      </trkpt>
      <trkpt lat="49.61082" lon="-1.71253">
        <ele>82.1</ele>
        <time>2020-06-14T18:23:17Z</time>
      </trkpt>
      <trkpt lat="49.61082" lon="-1.7124">
        <ele>82.4</ele>
        <time>2020-06-14T18:23:18Z</time>
      </trkpt>
      <trkpt lat="49.61082" lon="-1.71228">
        <ele>82.8</ele>
        <time>2020-06-14T18:23:19Z</time>
      </trkpt>
      <trkpt lat="49.61082" lon="-1.71215">
        <ele>83.3</ele>
        <time>2020-06-14T18:23:20Z</time>
      </trkpt>
      <trkpt lat="49.61081" lon="-1.71203">
        <ele>83.9</ele>
        <time>2020-06-14T18:23:21Z</time>
      </trkpt>
      <trkpt lat="49.61081" lon="-1.71192">
        <ele>84.7</ele>
        <time>2020-06-14T18:23:22Z</time>
      </trkpt>
      <trkpt lat="49.61081" lon="-1.71181">
        <ele>85.2</ele>
        <time>2020-06-14T18:23:23Z</time>
      </trkpt>
      <trkpt lat="49.61081" lon="-1.7117">
        <ele>85.5</ele>
        <time>2020-06-14T18:23:24Z</time>
      </trkpt>
      <trkpt lat="49.61081" lon="-1.7116">
        <ele>85.8</ele>
        <time>2020-06-14T18:23:25Z</time>
      </trkpt>
      <trkpt lat="49.61081" lon="-1.7115">
        <ele>86</ele>
        <time>2020-06-14T18:23:26Z</time>
      </trkpt>
      <trkpt lat="49.61081" lon="-1.7114">
        <ele>86.3</ele>
        <time>2020-06-14T18:23:27Z</time>
      </trkpt>
      <trkpt lat="49.61081" lon="-1.71132">
        <ele>86.5</ele>
        <time>2020-06-14T18:23:28Z</time>
      </trkpt>
      <trkpt lat="49.61081" lon="-1.71124">
        <ele>86.8</ele>
        <time>2020-06-14T18:23:29Z</time>
      </trkpt>
      <trkpt lat="49.61081" lon="-1.71116">
        <ele>87</ele>
        <time>2020-06-14T18:23:30Z</time>
      </trkpt>
      <trkpt lat="49.61082" lon="-1.71109">
        <ele>87.3</ele>
        <time>2020-06-14T18:23:31Z</time>
      </trkpt>
      <trkpt lat="49.61084" lon="-1.71102">
        <ele>87.7</ele>
        <time>2020-06-14T18:23:32Z</time>
      </trkpt>
      <trkpt lat="49.61085" lon="-1.71095">
        <ele>88</ele>
        <time>2020-06-14T18:23:33Z</time>
      </trkpt>
      <trkpt lat="49.61086" lon="-1.71088">
        <ele>88.3</ele>
        <time>2020-06-14T18:23:34Z</time>
      </trkpt>
      <trkpt lat="49.61088" lon="-1.71083">
        <ele>88.6</ele>
        <time>2020-06-14T18:23:35Z</time>
      </trkpt>
      <trkpt lat="49.6109" lon="-1.71078">
        <ele>88.9</ele>
        <time>2020-06-14T18:23:36Z</time>
      </trkpt>
      <trkpt lat="49.61092" lon="-1.71073">
        <ele>89.1</ele>
        <time>2020-06-14T18:23:37Z</time>
      </trkpt>
      <trkpt lat="49.61093" lon="-1.71067">
        <ele>89.4</ele>
        <time>2020-06-14T18:23:38Z</time>
      </trkpt>
      <trkpt lat="49.61094" lon="-1.71062">
        <ele>89.6</ele>
        <time>2020-06-14T18:23:39Z</time>
      </trkpt>
      <trkpt lat="49.61095" lon="-1.71057">
        <ele>89.9</ele>
        <time>2020-06-14T18:23:40Z</time>
      </trkpt>
      <trkpt lat="49.61096" lon="-1.71052">
        <ele>90.1</ele>
        <time>2020-06-14T18:23:41Z</time>
      </trkpt>
      <trkpt lat="49.61096" lon="-1.71046">
        <ele>90.4</ele>
        <time>2020-06-14T18:23:42Z</time>
      </trkpt>
      <trkpt lat="49.61097" lon="-1.71041">
        <ele>90.6</ele>
        <time>2020-06-14T18:23:43Z</time>
      </trkpt>
      <trkpt lat="49.61098" lon="-1.71037">
        <ele>90.9</ele>
        <time>2020-06-14T18:23:44Z</time>
      </trkpt>
      <trkpt lat="49.61099" lon="-1.71031">
        <ele>91.2</ele>
        <time>2020-06-14T18:23:45Z</time>
      </trkpt>
      <trkpt lat="49.61099" lon="-1.71028">
        <ele>91.3</ele>
        <time>2020-06-14T18:23:46Z</time>
      </trkpt>
      <trkpt lat="49.61099" lon="-1.71024">
        <ele>91.4</ele>
        <time>2020-06-14T18:23:47Z</time>
      </trkpt>
      <trkpt lat="49.61099" lon="-1.7102">
        <ele>91.6</ele>
        <time>2020-06-14T18:23:48Z</time>
      </trkpt>
      <trkpt lat="49.61099" lon="-1.71014">
        <ele>91.9</ele>
        <time>2020-06-14T18:23:49Z</time>
      </trkpt>
      <trkpt lat="49.611" lon="-1.71012">
        <ele>91.9</ele>
        <time>2020-06-14T18:23:50Z</time>
      </trkpt>
      <trkpt lat="49.611" lon="-1.71008">
        <ele>92.1</ele>
        <time>2020-06-14T18:23:51Z</time>
      </trkpt>
      <trkpt lat="49.61101" lon="-1.71003">
        <ele>92.3</ele>
        <time>2020-06-14T18:23:52Z</time>
      </trkpt>
      <trkpt lat="49.61101" lon="-1.71">
        <ele>92.5</ele>
        <time>2020-06-14T18:23:53Z</time>
      </trkpt>
      <trkpt lat="49.61102" lon="-1.70995">
        <ele>92.7</ele>
        <time>2020-06-14T18:23:54Z</time>
      </trkpt>
      <trkpt lat="49.61103" lon="-1.7099">
        <ele>92.9</ele>
        <time>2020-06-14T18:23:55Z</time>
      </trkpt>
      <trkpt lat="49.61104" lon="-1.70988">
        <ele>93</ele>
        <time>2020-06-14T18:23:56Z</time>
      </trkpt>
      <trkpt lat="49.61104" lon="-1.70983">
        <ele>93.2</ele>
        <time>2020-06-14T18:23:57Z</time>
      </trkpt>
      <trkpt lat="49.61105" lon="-1.70979">
        <ele>93.4</ele>
        <time>2020-06-14T18:23:58Z</time>
      </trkpt>
      <trkpt lat="49.61105" lon="-1.70975">
        <ele>93.6</ele>
        <time>2020-06-14T18:23:59Z</time>
      </trkpt>
      <trkpt lat="49.61105" lon="-1.70968">
        <ele>93.8</ele>
        <time>2020-06-14T18:24:00Z</time>
      </trkpt>
      <trkpt lat="49.61106" lon="-1.70964">
        <ele>94</ele>
        <time>2020-06-14T18:24:01Z</time>
      </trkpt>
      <trkpt lat="49.61107" lon="-1.70959">
        <ele>94.3</ele>
        <time>2020-06-14T18:24:02Z</time>
      </trkpt>
      <trkpt lat="49.61108" lon="-1.70953">
        <ele>94.6</ele>
        <time>2020-06-14T18:24:03Z</time>
      </trkpt>
      <trkpt lat="49.6111" lon="-1.70948">
        <ele>94.8</ele>
        <time>2020-06-14T18:24:04Z</time>
      </trkpt>
      <trkpt lat="49.6111" lon="-1.70946">
        <ele>94.9</ele>
        <time>2020-06-14T18:24:05Z</time>
      </trkpt>
      <trkpt lat="49.61111" lon="-1.70942">
        <ele>95.1</ele>
        <time>2020-06-14T18:24:06Z</time>
      </trkpt>
      <trkpt lat="49.61111" lon="-1.7094">
        <ele>95.2</ele>
        <time>2020-06-14T18:24:07Z</time>
      </trkpt>
      <trkpt lat="49.61112" lon="-1.70936">
        <ele>95.4</ele>
        <time>2020-06-14T18:24:08Z</time>
      </trkpt>
      <trkpt lat="49.61114" lon="-1.70931">
        <ele>95.6</ele>
        <time>2020-06-14T18:24:09Z</time>
      </trkpt>
      <trkpt lat="49.61114" lon="-1.70926">
        <ele>95.8</ele>
        <time>2020-06-14T18:24:10Z</time>
      </trkpt>
      <trkpt lat="49.61115" lon="-1.70922">
        <ele>95.9</ele>
        <time>2020-06-14T18:24:11Z</time>
      </trkpt>
      <trkpt lat="49.61117" lon="-1.70916">
        <ele>96.1</ele>
        <time>2020-06-14T18:24:12Z</time>
      </trkpt>
      <trkpt lat="49.61118" lon="-1.70911">
        <ele>96.3</ele>
        <time>2020-06-14T18:24:13Z</time>
      </trkpt>
      <trkpt lat="49.6112" lon="-1.70905">
        <ele>96.5</ele>
        <time>2020-06-14T18:24:14Z</time>
      </trkpt>
      <trkpt lat="49.61122" lon="-1.70901">
        <ele>96.6</ele>
        <time>2020-06-14T18:24:15Z</time>
      </trkpt>
      <trkpt lat="49.61122" lon="-1.709">
        <ele>96.7</ele>
        <time>2020-06-14T18:24:16Z</time>
      </trkpt>
      <trkpt lat="49.61123" lon="-1.70894">
        <ele>96.9</ele>
        <time>2020-06-14T18:24:17Z</time>
      </trkpt>
      <trkpt lat="49.61123" lon="-1.70893">
        <ele>96.9</ele>
        <time>2020-06-14T18:24:18Z</time>
      </trkpt>
      <trkpt lat="49.61124" lon="-1.70888">
        <ele>97.1</ele>
        <time>2020-06-14T18:24:19Z</time>
      </trkpt>
      <trkpt lat="49.61125" lon="-1.70884">
        <ele>97.2</ele>
        <time>2020-06-14T18:24:20Z</time>
      </trkpt>
      <trkpt lat="49.61126" lon="-1.70879">
        <ele>97.4</ele>
        <time>2020-06-14T18:24:21Z</time>
      </trkpt>
      <trkpt lat="49.61127" lon="-1.70875">
        <ele>97.6</ele>
        <time>2020-06-14T18:24:22Z</time>
      </trkpt>
      <trkpt lat="49.61128" lon="-1.70871">
        <ele>97.7</ele>
        <time>2020-06-14T18:24:23Z</time>
      </trkpt>
      <trkpt lat="49.6113" lon="-1.70865">
        <ele>98</ele>
        <time>2020-06-14T18:24:24Z</time>
      </trkpt>
      <trkpt lat="49.61131" lon="-1.70862">
        <ele>98.1</ele>
        <time>2020-06-14T18:24:25Z</time>
      </trkpt>
      <trkpt lat="49.61131" lon="-1.70857">
        <ele>98.2</ele>
        <time>2020-06-14T18:24:26Z</time>
      </trkpt>
      <trkpt lat="49.61131" lon="-1.70851">
        <ele>98.4</ele>
        <time>2020-06-14T18:24:27Z</time>
      </trkpt>
      <trkpt lat="49.61132" lon="-1.70846">
        <ele>98.5</ele>
        <time>2020-06-14T18:24:28Z</time>
      </trkpt>
      <trkpt lat="49.61133" lon="-1.7084">
        <ele>98.7</ele>
        <time>2020-06-14T18:24:29Z</time>
      </trkpt>
      <trkpt lat="49.61134" lon="-1.70835">
        <ele>98.8</ele>
        <time>2020-06-14T18:24:30Z</time>
      </trkpt>
      <trkpt lat="49.61135" lon="-1.70831">
        <ele>98.9</ele>
        <time>2020-06-14T18:24:31Z</time>
      </trkpt>
      <trkpt lat="49.61136" lon="-1.70825">
        <ele>99.1</ele>
        <time>2020-06-14T18:24:32Z</time>
      </trkpt>
      <trkpt lat="49.61136" lon="-1.7082">
        <ele>99.2</ele>
        <time>2020-06-14T18:24:33Z</time>
      </trkpt>
      <trkpt lat="49.61137" lon="-1.70815">
        <ele>99.3</ele>
        <time>2020-06-14T18:24:34Z</time>
      </trkpt>
      <trkpt lat="49.61138" lon="-1.7081">
        <ele>99.5</ele>
        <time>2020-06-14T18:24:35Z</time>
      </trkpt>
      <trkpt lat="49.61138" lon="-1.70806">
        <ele>99.6</ele>
        <time>2020-06-14T18:24:36Z</time>
      </trkpt>
      <trkpt lat="49.6114" lon="-1.70801">
        <ele>99.7</ele>
        <time>2020-06-14T18:24:37Z</time>
      </trkpt>
      <trkpt lat="49.61142" lon="-1.70795">
        <ele>99.9</ele>
        <time>2020-06-14T18:24:38Z</time>
      </trkpt>
      <trkpt lat="49.61142" lon="-1.70793">
        <ele>100</ele>
        <time>2020-06-14T18:24:39Z</time>
      </trkpt>
      <trkpt lat="49.61143" lon="-1.70786">
        <ele>100.2</ele>
        <time>2020-06-14T18:24:40Z</time>
      </trkpt>
      <trkpt lat="49.61145" lon="-1.7078">
        <ele>100.3</ele>
        <time>2020-06-14T18:24:41Z</time>
      </trkpt>
      <trkpt lat="49.61146" lon="-1.70773">
        <ele>100.5</ele>
        <time>2020-06-14T18:24:42Z</time>
      </trkpt>
      <trkpt lat="49.61147" lon="-1.70766">
        <ele>100.7</ele>
        <time>2020-06-14T18:24:43Z</time>
      </trkpt>
      <trkpt lat="49.61149" lon="-1.70761">
        <ele>100.9</ele>
        <time>2020-06-14T18:24:44Z</time>
      </trkpt>
      <trkpt lat="49.6115" lon="-1.70756">
        <ele>101</ele>
        <time>2020-06-14T18:24:45Z</time>
      </trkpt>
      <trkpt lat="49.61151" lon="-1.70751">
        <ele>101.2</ele>
        <time>2020-06-14T18:24:46Z</time>
      </trkpt>
      <trkpt lat="49.61152" lon="-1.70746">
        <ele>101.3</ele>
        <time>2020-06-14T18:24:47Z</time>
      </trkpt>
      <trkpt lat="49.61152" lon="-1.70739">
        <ele>101.5</ele>
        <time>2020-06-14T18:24:48Z</time>
      </trkpt>
      <trkpt lat="49.61152" lon="-1.70736">
        <ele>101.6</ele>
        <time>2020-06-14T18:24:49Z</time>
      </trkpt>
      <trkpt lat="49.61153" lon="-1.70729">
        <ele>101.8</ele>
        <time>2020-06-14T18:24:50Z</time>
      </trkpt>
      <trkpt lat="49.61154" lon="-1.70724">
        <ele>101.9</ele>
        <time>2020-06-14T18:24:51Z</time>
      </trkpt>
      <trkpt lat="49.61155" lon="-1.70722">
        <ele>102</ele>
        <time>2020-06-14T18:24:52Z</time>
      </trkpt>
      <trkpt lat="49.61156" lon="-1.70717">
        <ele>102.1</ele>
        <time>2020-06-14T18:24:53Z</time>
      </trkpt>
      <trkpt lat="49.61157" lon="-1.70711">
        <ele>102.3</ele>
        <time>2020-06-14T18:24:54Z</time>
      </trkpt>
      <trkpt lat="49.61159" lon="-1.70704">
        <ele>102.5</ele>
        <time>2020-06-14T18:24:55Z</time>
      </trkpt>
      <trkpt lat="49.6116" lon="-1.70698">
        <ele>102.7</ele>
        <time>2020-06-14T18:24:56Z</time>
      </trkpt>
      <trkpt lat="49.61162" lon="-1.70692">
        <ele>102.8</ele>
        <time>2020-06-14T18:24:57Z</time>
      </trkpt>
      <trkpt lat="49.61163" lon="-1.70685">
        <ele>103.1</ele>
        <time>2020-06-14T18:24:58Z</time>
      </trkpt>
      <trkpt lat="49.61164" lon="-1.7068">
        <ele>103.2</ele>
        <time>2020-06-14T18:24:59Z</time>
      </trkpt>
      <trkpt lat="49.61165" lon="-1.70675">
        <ele>103.4</ele>
        <time>2020-06-14T18:25:00Z</time>
      </trkpt>
      <trkpt lat="49.61166" lon="-1.70668">
        <ele>103.6</ele>
        <time>2020-06-14T18:25:01Z</time>
      </trkpt>
      <trkpt lat="49.61167" lon="-1.70664">
        <ele>103.8</ele>
        <time>2020-06-14T18:25:02Z</time>
      </trkpt>
      <trkpt lat="49.61168" lon="-1.70658">
        <ele>104</ele>
        <time>2020-06-14T18:25:03Z</time>
      </trkpt>
      <trkpt lat="49.61169" lon="-1.70652">
        <ele>104.1</ele>
        <time>2020-06-14T18:25:04Z</time>
      </trkpt>
      <trkpt lat="49.6117" lon="-1.70648">
        <ele>104.3</ele>
        <time>2020-06-14T18:25:05Z</time>
      </trkpt>
      <trkpt lat="49.6117" lon="-1.70644">
        <ele>104.4</ele>
        <time>2020-06-14T18:25:06Z</time>
      </trkpt>
      <trkpt lat="49.61171" lon="-1.70638">
        <ele>104.6</ele>
        <time>2020-06-14T18:25:07Z</time>
      </trkpt>
      <trkpt lat="49.61171" lon="-1.70636">
        <ele>104.6</ele>
        <time>2020-06-14T18:25:08Z</time>
      </trkpt>
      <trkpt lat="49.61172" lon="-1.7063">
        <ele>104.8</ele>
        <time>2020-06-14T18:25:09Z</time>
      </trkpt>
      <trkpt lat="49.61172" lon="-1.70625">
        <ele>105</ele>
        <time>2020-06-14T18:25:10Z</time>
      </trkpt>
      <trkpt lat="49.61173" lon="-1.7062">
        <ele>105.1</ele>
        <time>2020-06-14T18:25:11Z</time>
      </trkpt>
      <trkpt lat="49.61174" lon="-1.70614">
        <ele>105.3</ele>
        <time>2020-06-14T18:25:12Z</time>
      </trkpt>
      <trkpt lat="49.61175" lon="-1.70608">
        <ele>105.5</ele>
        <time>2020-06-14T18:25:13Z</time>
      </trkpt>
      <trkpt lat="49.61176" lon="-1.70602">
        <ele>105.7</ele>
        <time>2020-06-14T18:25:14Z</time>
      </trkpt>
      <trkpt lat="49.61177" lon="-1.70598">
        <ele>105.8</ele>
        <time>2020-06-14T18:25:15Z</time>
      </trkpt>
      <trkpt lat="49.61178" lon="-1.70592">
        <ele>106</ele>
        <time>2020-06-14T18:25:16Z</time>
      </trkpt>
      <trkpt lat="49.6118" lon="-1.70586">
        <ele>106.2</ele>
        <time>2020-06-14T18:25:17Z</time>
      </trkpt>
      <trkpt lat="49.61181" lon="-1.70579">
        <ele>106.4</ele>
        <time>2020-06-14T18:25:18Z</time>
      </trkpt>
      <trkpt lat="49.61182" lon="-1.70574">
        <ele>106.5</ele>
        <time>2020-06-14T18:25:19Z</time>
      </trkpt>
      <trkpt lat="49.61183" lon="-1.70569">
        <ele>106.7</ele>
        <time>2020-06-14T18:25:20Z</time>
      </trkpt>
      <trkpt lat="49.61185" lon="-1.70564">
        <ele>106.9</ele>
        <time>2020-06-14T18:25:21Z</time>
      </trkpt>
      <trkpt lat="49.61186" lon="-1.7056">
        <ele>107</ele>
        <time>2020-06-14T18:25:22Z</time>
      </trkpt>
      <trkpt lat="49.61187" lon="-1.70554">
        <ele>107.1</ele>
        <time>2020-06-14T18:25:23Z</time>
      </trkpt>
      <trkpt lat="49.61187" lon="-1.70548">
        <ele>107.3</ele>
        <time>2020-06-14T18:25:24Z</time>
      </trkpt>
      <trkpt lat="49.61187" lon="-1.70543">
        <ele>107.5</ele>
        <time>2020-06-14T18:25:25Z</time>
      </trkpt>
      <trkpt lat="49.61188" lon="-1.70538">
        <ele>107.7</ele>
        <time>2020-06-14T18:25:26Z</time>
      </trkpt>
      <trkpt lat="49.61188" lon="-1.70534">
        <ele>107.8</ele>
        <time>2020-06-14T18:25:27Z</time>
      </trkpt>
      <trkpt lat="49.61188" lon="-1.70529">
        <ele>108</ele>
        <time>2020-06-14T18:25:28Z</time>
      </trkpt>
      <trkpt lat="49.61188" lon="-1.70525">
        <ele>108.1</ele>
        <time>2020-06-14T18:25:29Z</time>
      </trkpt>
      <trkpt lat="49.61188" lon="-1.70519">
        <ele>108.3</ele>
        <time>2020-06-14T18:25:30Z</time>
      </trkpt>
      <trkpt lat="49.61189" lon="-1.70517">
        <ele>108.4</ele>
        <time>2020-06-14T18:25:31Z</time>
      </trkpt>
      <trkpt lat="49.61189" lon="-1.70513">
        <ele>108.5</ele>
        <time>2020-06-14T18:25:32Z</time>
      </trkpt>
      <trkpt lat="49.6119" lon="-1.70509">
        <ele>108.7</ele>
        <time>2020-06-14T18:25:33Z</time>
      </trkpt>
      <trkpt lat="49.61191" lon="-1.70504">
        <ele>108.8</ele>
        <time>2020-06-14T18:25:34Z</time>
      </trkpt>
      <trkpt lat="49.61192" lon="-1.70499">
        <ele>109</ele>
        <time>2020-06-14T18:25:35Z</time>
      </trkpt>
      <trkpt lat="49.61194" lon="-1.70491">
        <ele>109.3</ele>
        <time>2020-06-14T18:25:36Z</time>
      </trkpt>
      <trkpt lat="49.61196" lon="-1.70485">
        <ele>109.5</ele>
        <time>2020-06-14T18:25:37Z</time>
      </trkpt>
      <trkpt lat="49.61197" lon="-1.7048">
        <ele>109.7</ele>
        <time>2020-06-14T18:25:38Z</time>
      </trkpt>
      <trkpt lat="49.61198" lon="-1.70474">
        <ele>110</ele>
        <time>2020-06-14T18:25:39Z</time>
      </trkpt>
      <trkpt lat="49.61198" lon="-1.70467">
        <ele>110.2</ele>
        <time>2020-06-14T18:25:40Z</time>
      </trkpt>
      <trkpt lat="49.612" lon="-1.70462">
        <ele>110.5</ele>
        <time>2020-06-14T18:25:41Z</time>
      </trkpt>
      <trkpt lat="49.612" lon="-1.70459">
        <ele>110.6</ele>
        <time>2020-06-14T18:25:42Z</time>
      </trkpt>
      <trkpt lat="49.61202" lon="-1.70454">
        <ele>110.8</ele>
        <time>2020-06-14T18:25:43Z</time>
      </trkpt>
      <trkpt lat="49.61203" lon="-1.70448">
        <ele>111.1</ele>
        <time>2020-06-14T18:25:44Z</time>
      </trkpt>
      <trkpt lat="49.61204" lon="-1.70442">
        <ele>111.4</ele>
        <time>2020-06-14T18:25:45Z</time>
      </trkpt>
      <trkpt lat="49.61205" lon="-1.70436">
        <ele>111.7</ele>
        <time>2020-06-14T18:25:46Z</time>
      </trkpt>
      <trkpt lat="49.61206" lon="-1.7043">
        <ele>111.9</ele>
        <time>2020-06-14T18:25:47Z</time>
      </trkpt>
      <trkpt lat="49.61208" lon="-1.70423">
        <ele>112.3</ele>
        <time>2020-06-14T18:25:48Z</time>
      </trkpt>
      <trkpt lat="49.6121" lon="-1.70416">
        <ele>112.7</ele>
        <time>2020-06-14T18:25:49Z</time>
      </trkpt>
      <trkpt lat="49.61211" lon="-1.70411">
        <ele>112.9</ele>
        <time>2020-06-14T18:25:50Z</time>
      </trkpt>
      <trkpt lat="49.61213" lon="-1.70407">
        <ele>113.1</ele>
        <time>2020-06-14T18:25:51Z</time>
      </trkpt>
      <trkpt lat="49.61215" lon="-1.70402">
        <ele>113.4</ele>
        <time>2020-06-14T18:25:52Z</time>
      </trkpt>
      <trkpt lat="49.61215" lon="-1.70397">
        <ele>113.6</ele>
        <time>2020-06-14T18:25:53Z</time>
      </trkpt>
      <trkpt lat="49.61215" lon="-1.70392">
        <ele>113.9</ele>
        <time>2020-06-14T18:25:54Z</time>
      </trkpt>
      <trkpt lat="49.61215" lon="-1.7039">
        <ele>114</ele>
        <time>2020-06-14T18:25:55Z</time>
      </trkpt>
      <trkpt lat="49.61217" lon="-1.70386">
        <ele>114.3</ele>
        <time>2020-06-14T18:25:56Z</time>
      </trkpt>
      <trkpt lat="49.61217" lon="-1.7038">
        <ele>114.6</ele>
        <time>2020-06-14T18:25:57Z</time>
      </trkpt>
      <trkpt lat="49.61218" lon="-1.70375">
        <ele>114.8</ele>
        <time>2020-06-14T18:25:58Z</time>
      </trkpt>
      <trkpt lat="49.61219" lon="-1.70368">
        <ele>115.1</ele>
        <time>2020-06-14T18:25:59Z</time>
      </trkpt>
      <trkpt lat="49.6122" lon="-1.70362">
        <ele>115.5</ele>
        <time>2020-06-14T18:26:00Z</time>
      </trkpt>
      <trkpt lat="49.61222" lon="-1.70358">
        <ele>115.8</ele>
        <time>2020-06-14T18:26:01Z</time>
      </trkpt>
      <trkpt lat="49.61223" lon="-1.70353">
        <ele>116.1</ele>
        <time>2020-06-14T18:26:02Z</time>
      </trkpt>
      <trkpt lat="49.61225" lon="-1.70348">
        <ele>116.4</ele>
        <time>2020-06-14T18:26:03Z</time>
      </trkpt>
      <trkpt lat="49.61226" lon="-1.70342">
        <ele>116.7</ele>
        <time>2020-06-14T18:26:04Z</time>
      </trkpt>
      <trkpt lat="49.61227" lon="-1.70338">
        <ele>117</ele>
        <time>2020-06-14T18:26:05Z</time>
      </trkpt>
      <trkpt lat="49.61228" lon="-1.70334">
        <ele>117.3</ele>
        <time>2020-06-14T18:26:06Z</time>
      </trkpt>
      <trkpt lat="49.6123" lon="-1.70329">
        <ele>117.7</ele>
        <time>2020-06-14T18:26:07Z</time>
      </trkpt>
      <trkpt lat="49.61232" lon="-1.70323">
        <ele>118.1</ele>
        <time>2020-06-14T18:26:08Z</time>
      </trkpt>
      <trkpt lat="49.61232" lon="-1.70316">
        <ele>118.5</ele>
        <time>2020-06-14T18:26:09Z</time>
      </trkpt>
      <trkpt lat="49.61232" lon="-1.70313">
        <ele>118.7</ele>
        <time>2020-06-14T18:26:10Z</time>
      </trkpt>
      <trkpt lat="49.61232" lon="-1.70309">
        <ele>119</ele>
        <time>2020-06-14T18:26:11Z</time>
      </trkpt>
      <trkpt lat="49.61232" lon="-1.70303">
        <ele>119.4</ele>
        <time>2020-06-14T18:26:12Z</time>
      </trkpt>
      <trkpt lat="49.61232" lon="-1.70301">
        <ele>119.6</ele>
        <time>2020-06-14T18:26:13Z</time>
      </trkpt>
      <trkpt lat="49.61233" lon="-1.70296">
        <ele>119.9</ele>
        <time>2020-06-14T18:26:14Z</time>
      </trkpt>
      <trkpt lat="49.61233" lon="-1.70294">
        <ele>120</ele>
        <time>2020-06-14T18:26:15Z</time>
      </trkpt>
      <trkpt lat="49.61235" lon="-1.7029">
        <ele>120.3</ele>
        <time>2020-06-14T18:26:16Z</time>
      </trkpt>
      <trkpt lat="49.61237" lon="-1.70285">
        <ele>120.5</ele>
        <time>2020-06-14T18:26:17Z</time>
      </trkpt>
      <trkpt lat="49.61239" lon="-1.70282">
        <ele>120.7</ele>
        <time>2020-06-14T18:26:18Z</time>
      </trkpt>
      <trkpt lat="49.6124" lon="-1.70278">
        <ele>120.8</ele>
        <time>2020-06-14T18:26:19Z</time>
      </trkpt>
      <trkpt lat="49.61243" lon="-1.70272">
        <ele>121</ele>
        <time>2020-06-14T18:26:20Z</time>
      </trkpt>
      <trkpt lat="49.61244" lon="-1.70269">
        <ele>121.2</ele>
        <time>2020-06-14T18:26:21Z</time>
      </trkpt>
      <trkpt lat="49.61246" lon="-1.70264">
        <ele>121.4</ele>
        <time>2020-06-14T18:26:22Z</time>
      </trkpt>
      <trkpt lat="49.61247" lon="-1.70258">
        <ele>121.6</ele>
        <time>2020-06-14T18:26:23Z</time>
      </trkpt>
      <trkpt lat="49.61248" lon="-1.70253">
        <ele>121.8</ele>
        <time>2020-06-14T18:26:24Z</time>
      </trkpt>
      <trkpt lat="49.6125" lon="-1.70249">
        <ele>122</ele>
        <time>2020-06-14T18:26:25Z</time>
      </trkpt>
      <trkpt lat="49.61252" lon="-1.70244">
        <ele>122.3</ele>
        <time>2020-06-14T18:26:26Z</time>
      </trkpt>
      <trkpt lat="49.61254" lon="-1.7024">
        <ele>122.5</ele>
        <time>2020-06-14T18:26:27Z</time>
      </trkpt>
      <trkpt lat="49.61256" lon="-1.70234">
        <ele>122.8</ele>
        <time>2020-06-14T18:26:28Z</time>
      </trkpt>
      <trkpt lat="49.61258" lon="-1.70227">
        <ele>123.2</ele>
        <time>2020-06-14T18:26:29Z</time>
      </trkpt>
      <trkpt lat="49.6126" lon="-1.70222">
        <ele>123.5</ele>
        <time>2020-06-14T18:26:30Z</time>
      </trkpt>
      <trkpt lat="49.61262" lon="-1.70217">
        <ele>123.8</ele>
        <time>2020-06-14T18:26:31Z</time>
      </trkpt>
      <trkpt lat="49.61263" lon="-1.70212">
        <ele>124.2</ele>
        <time>2020-06-14T18:26:32Z</time>
      </trkpt>
      <trkpt lat="49.61265" lon="-1.70208">
        <ele>124.4</ele>
        <time>2020-06-14T18:26:33Z</time>
      </trkpt>
      <trkpt lat="49.61266" lon="-1.70206">
        <ele>124.5</ele>
        <time>2020-06-14T18:26:34Z</time>
      </trkpt>
      <trkpt lat="49.61267" lon="-1.70204">
        <ele>124.6</ele>
        <time>2020-06-14T18:26:35Z</time>
      </trkpt>
      <trkpt lat="49.61269" lon="-1.702">
        <ele>124.8</ele>
        <time>2020-06-14T18:26:36Z</time>
      </trkpt>
      <trkpt lat="49.61271" lon="-1.70196">
        <ele>124.9</ele>
        <time>2020-06-14T18:26:37Z</time>
      </trkpt>
      <trkpt lat="49.61272" lon="-1.70192">
        <ele>125.1</ele>
        <time>2020-06-14T18:26:38Z</time>
      </trkpt>
      <trkpt lat="49.61275" lon="-1.70185">
        <ele>125.4</ele>
        <time>2020-06-14T18:26:39Z</time>
      </trkpt>
      <trkpt lat="49.61276" lon="-1.70179">
        <ele>125.6</ele>
        <time>2020-06-14T18:26:40Z</time>
      </trkpt>
      <trkpt lat="49.61278" lon="-1.70175">
        <ele>125.8</ele>
        <time>2020-06-14T18:26:41Z</time>
      </trkpt>
      <trkpt lat="49.61279" lon="-1.7017">
        <ele>126</ele>
        <time>2020-06-14T18:26:42Z</time>
      </trkpt>
      <trkpt lat="49.6128" lon="-1.70165">
        <ele>126.2</ele>
        <time>2020-06-14T18:26:43Z</time>
      </trkpt>
      <trkpt lat="49.61282" lon="-1.7016">
        <ele>126.4</ele>
        <time>2020-06-14T18:26:44Z</time>
      </trkpt>
      <trkpt lat="49.61284" lon="-1.70154">
        <ele>126.7</ele>
        <time>2020-06-14T18:26:45Z</time>
      </trkpt>
      <trkpt lat="49.61284" lon="-1.70152">
        <ele>126.9</ele>
        <time>2020-06-14T18:26:46Z</time>
      </trkpt>
      <trkpt lat="49.61285" lon="-1.70148">
        <ele>127.1</ele>
        <time>2020-06-14T18:26:47Z</time>
      </trkpt>
      <trkpt lat="49.61286" lon="-1.70144">
        <ele>127.3</ele>
        <time>2020-06-14T18:26:48Z</time>
      </trkpt>
      <trkpt lat="49.61288" lon="-1.70139">
        <ele>127.5</ele>
        <time>2020-06-14T18:26:49Z</time>
      </trkpt>
      <trkpt lat="49.61289" lon="-1.70134">
        <ele>127.8</ele>
        <time>2020-06-14T18:26:50Z</time>
      </trkpt>
      <trkpt lat="49.61289" lon="-1.7013">
        <ele>128</ele>
        <time>2020-06-14T18:26:51Z</time>
      </trkpt>
      <trkpt lat="49.61288" lon="-1.70125">
        <ele>128.3</ele>
        <time>2020-06-14T18:26:52Z</time>
      </trkpt>
      <trkpt lat="49.6129" lon="-1.70119">
        <ele>128.6</ele>
        <time>2020-06-14T18:26:53Z</time>
      </trkpt>
      <trkpt lat="49.6129" lon="-1.70117">
        <ele>128.7</ele>
        <time>2020-06-14T18:26:54Z</time>
      </trkpt>
      <trkpt lat="49.61291" lon="-1.70112">
        <ele>128.9</ele>
        <time>2020-06-14T18:26:55Z</time>
      </trkpt>
      <trkpt lat="49.61292" lon="-1.70106">
        <ele>129.3</ele>
        <time>2020-06-14T18:26:56Z</time>
      </trkpt>
      <trkpt lat="49.61292" lon="-1.70101">
        <ele>129.5</ele>
        <time>2020-06-14T18:26:57Z</time>
      </trkpt>
      <trkpt lat="49.61292" lon="-1.70099">
        <ele>129.7</ele>
        <time>2020-06-14T18:26:58Z</time>
      </trkpt>
      <trkpt lat="49.61293" lon="-1.70094">
        <ele>129.9</ele>
        <time>2020-06-14T18:26:59Z</time>
      </trkpt>
      <trkpt lat="49.61294" lon="-1.7009">
        <ele>130.2</ele>
        <time>2020-06-14T18:27:00Z</time>
      </trkpt>
      <trkpt lat="49.61296" lon="-1.70086">
        <ele>130.5</ele>
        <time>2020-06-14T18:27:01Z</time>
      </trkpt>
      <trkpt lat="49.61298" lon="-1.70083">
        <ele>130.7</ele>
        <time>2020-06-14T18:27:02Z</time>
      </trkpt>
      <trkpt lat="49.61299" lon="-1.70077">
        <ele>131.1</ele>
        <time>2020-06-14T18:27:03Z</time>
      </trkpt>
      <trkpt lat="49.61299" lon="-1.70074">
        <ele>131.2</ele>
        <time>2020-06-14T18:27:04Z</time>
      </trkpt>
      <trkpt lat="49.613" lon="-1.7007">
        <ele>131.5</ele>
        <time>2020-06-14T18:27:05Z</time>
      </trkpt>
      <trkpt lat="49.61301" lon="-1.70064">
        <ele>131.9</ele>
        <time>2020-06-14T18:27:06Z</time>
      </trkpt>
      <trkpt lat="49.61301" lon="-1.7006">
        <ele>132</ele>
        <time>2020-06-14T18:27:07Z</time>
      </trkpt>
      <trkpt lat="49.61302" lon="-1.70055">
        <ele>132.3</ele>
        <time>2020-06-14T18:27:08Z</time>
      </trkpt>
      <trkpt lat="49.61303" lon="-1.70053">
        <ele>132.4</ele>
        <time>2020-06-14T18:27:09Z</time>
      </trkpt>
      <trkpt lat="49.61303" lon="-1.70047">
        <ele>132.7</ele>
        <time>2020-06-14T18:27:10Z</time>
      </trkpt>
      <trkpt lat="49.61304" lon="-1.70042">
        <ele>132.9</ele>
        <time>2020-06-14T18:27:11Z</time>
      </trkpt>
      <trkpt lat="49.61305" lon="-1.70037">
        <ele>133.2</ele>
        <time>2020-06-14T18:27:12Z</time>
      </trkpt>
      <trkpt lat="49.61305" lon="-1.70033">
        <ele>133.4</ele>
        <time>2020-06-14T18:27:13Z</time>
      </trkpt>
      <trkpt lat="49.61308" lon="-1.70029">
        <ele>133.6</ele>
        <time>2020-06-14T18:27:14Z</time>
      </trkpt>
      <trkpt lat="49.61308" lon="-1.70028">
        <ele>133.7</ele>
        <time>2020-06-14T18:27:15Z</time>
      </trkpt>
      <trkpt lat="49.6131" lon="-1.70024">
        <ele>133.9</ele>
        <time>2020-06-14T18:27:16Z</time>
      </trkpt>
      <trkpt lat="49.6131" lon="-1.70019">
        <ele>134.2</ele>
        <time>2020-06-14T18:27:17Z</time>
      </trkpt>
      <trkpt lat="49.61311" lon="-1.70017">
        <ele>134.3</ele>
        <time>2020-06-14T18:27:18Z</time>
      </trkpt>
      <trkpt lat="49.61312" lon="-1.70012">
        <ele>134.6</ele>
        <time>2020-06-14T18:27:19Z</time>
      </trkpt>
      <trkpt lat="49.61312" lon="-1.7001">
        <ele>134.7</ele>
        <time>2020-06-14T18:27:20Z</time>
      </trkpt>
      <trkpt lat="49.61313" lon="-1.70005">
        <ele>135</ele>
        <time>2020-06-14T18:27:21Z</time>
      </trkpt>
      <trkpt lat="49.61314" lon="-1.70001">
        <ele>135.2</ele>
        <time>2020-06-14T18:27:22Z</time>
      </trkpt>
      <trkpt lat="49.61315" lon="-1.69996">
        <ele>135.5</ele>
        <time>2020-06-14T18:27:23Z</time>
      </trkpt>
      <trkpt lat="49.61315" lon="-1.69994">
        <ele>135.6</ele>
        <time>2020-06-14T18:27:24Z</time>
      </trkpt>
      <trkpt lat="49.61315" lon="-1.69992">
        <ele>135.8</ele>
        <time>2020-06-14T18:27:25Z</time>
      </trkpt>
      <trkpt lat="49.61315" lon="-1.69989">
        <ele>135.9</ele>
        <time>2020-06-14T18:27:26Z</time>
      </trkpt>
      <trkpt lat="49.61315" lon="-1.69983">
        <ele>136.2</ele>
        <time>2020-06-14T18:27:27Z</time>
      </trkpt>
      <trkpt lat="49.61316" lon="-1.69978">
        <ele>136.5</ele>
        <time>2020-06-14T18:27:28Z</time>
      </trkpt>
      <trkpt lat="49.61316" lon="-1.69976">
        <ele>136.6</ele>
        <time>2020-06-14T18:27:29Z</time>
      </trkpt>
      <trkpt lat="49.61318" lon="-1.69972">
        <ele>136.9</ele>
        <time>2020-06-14T18:27:30Z</time>
      </trkpt>
      <trkpt lat="49.61318" lon="-1.6997">
        <ele>137</ele>
        <time>2020-06-14T18:27:31Z</time>
      </trkpt>
      <trkpt lat="49.61318" lon="-1.69965">
        <ele>137.3</ele>
        <time>2020-06-14T18:27:32Z</time>
      </trkpt>
      <trkpt lat="49.61318" lon="-1.6996">
        <ele>137.5</ele>
        <time>2020-06-14T18:27:33Z</time>
      </trkpt>
      <trkpt lat="49.61319" lon="-1.69956">
        <ele>137.7</ele>
        <time>2020-06-14T18:27:34Z</time>
      </trkpt>
      <trkpt lat="49.6132" lon="-1.6995">
        <ele>138</ele>
        <time>2020-06-14T18:27:35Z</time>
      </trkpt>
      <trkpt lat="49.61321" lon="-1.69948">
        <ele>138.1</ele>
        <time>2020-06-14T18:27:36Z</time>
      </trkpt>
      <trkpt lat="49.61322" lon="-1.69942">
        <ele>138.4</ele>
        <time>2020-06-14T18:27:37Z</time>
      </trkpt>
      <trkpt lat="49.61323" lon="-1.69938">
        <ele>138.6</ele>
        <time>2020-06-14T18:27:38Z</time>
      </trkpt>
      <trkpt lat="49.61325" lon="-1.69932">
        <ele>139</ele>
        <time>2020-06-14T18:27:39Z</time>
      </trkpt>
      <trkpt lat="49.61326" lon="-1.69927">
        <ele>139.2</ele>
        <time>2020-06-14T18:27:40Z</time>
      </trkpt>
      <trkpt lat="49.61327" lon="-1.69923">
        <ele>139.5</ele>
        <time>2020-06-14T18:27:41Z</time>
      </trkpt>
      <trkpt lat="49.61328" lon="-1.69919">
        <ele>139.7</ele>
        <time>2020-06-14T18:27:42Z</time>
      </trkpt>
      <trkpt lat="49.61329" lon="-1.69914">
        <ele>139.9</ele>
        <time>2020-06-14T18:27:43Z</time>
      </trkpt>
      <trkpt lat="49.6133" lon="-1.69909">
        <ele>140.2</ele>
        <time>2020-06-14T18:27:44Z</time>
      </trkpt>
      <trkpt lat="49.61331" lon="-1.69904">
        <ele>140.5</ele>
        <time>2020-06-14T18:27:45Z</time>
      </trkpt>
      <trkpt lat="49.61331" lon="-1.69899">
        <ele>140.8</ele>
        <time>2020-06-14T18:27:46Z</time>
      </trkpt>
      <trkpt lat="49.61332" lon="-1.69895">
        <ele>141</ele>
        <time>2020-06-14T18:27:47Z</time>
      </trkpt>
      <trkpt lat="49.61333" lon="-1.69889">
        <ele>141.3</ele>
        <time>2020-06-14T18:27:48Z</time>
      </trkpt>
      <trkpt lat="49.61334" lon="-1.69884">
        <ele>141.5</ele>
        <time>2020-06-14T18:27:49Z</time>
      </trkpt>
      <trkpt lat="49.61336" lon="-1.69878">
        <ele>141.8</ele>
        <time>2020-06-14T18:27:50Z</time>
      </trkpt>
      <trkpt lat="49.61336" lon="-1.69876">
        <ele>141.9</ele>
        <time>2020-06-14T18:27:51Z</time>
      </trkpt>
      <trkpt lat="49.61337" lon="-1.69872">
        <ele>142.1</ele>
        <time>2020-06-14T18:27:52Z</time>
      </trkpt>
      <trkpt lat="49.61339" lon="-1.69867">
        <ele>142.3</ele>
        <time>2020-06-14T18:27:53Z</time>
      </trkpt>
      <trkpt lat="49.6134" lon="-1.69863">
        <ele>142.5</ele>
        <time>2020-06-14T18:27:54Z</time>
      </trkpt>
      <trkpt lat="49.61341" lon="-1.69859">
        <ele>142.7</ele>
        <time>2020-06-14T18:27:55Z</time>
      </trkpt>
      <trkpt lat="49.61342" lon="-1.69853">
        <ele>143</ele>
        <time>2020-06-14T18:27:56Z</time>
      </trkpt>
      <trkpt lat="49.61343" lon="-1.69851">
        <ele>143.1</ele>
        <time>2020-06-14T18:27:57Z</time>
      </trkpt>
      <trkpt lat="49.61344" lon="-1.69846">
        <ele>143.3</ele>
        <time>2020-06-14T18:27:58Z</time>
      </trkpt>
      <trkpt lat="49.61344" lon="-1.69841">
        <ele>143.5</ele>
        <time>2020-06-14T18:27:59Z</time>
      </trkpt>
      <trkpt lat="49.61345" lon="-1.69836">
        <ele>143.7</ele>
        <time>2020-06-14T18:28:00Z</time>
      </trkpt>
      <trkpt lat="49.61345" lon="-1.69834">
        <ele>143.8</ele>
        <time>2020-06-14T18:28:01Z</time>
      </trkpt>
      <trkpt lat="49.61345" lon="-1.6983">
        <ele>144</ele>
        <time>2020-06-14T18:28:02Z</time>
      </trkpt>
      <trkpt lat="49.61346" lon="-1.69824">
        <ele>144.2</ele>
        <time>2020-06-14T18:28:03Z</time>
      </trkpt>
      <trkpt lat="49.61347" lon="-1.69822">
        <ele>144.3</ele>
        <time>2020-06-14T18:28:04Z</time>
      </trkpt>
      <trkpt lat="49.61348" lon="-1.69817">
        <ele>144.5</ele>
        <time>2020-06-14T18:28:05Z</time>
      </trkpt>
      <trkpt lat="49.61348" lon="-1.69814">
        <ele>144.6</ele>
        <time>2020-06-14T18:28:06Z</time>
      </trkpt>
      <trkpt lat="49.61349" lon="-1.69808">
        <ele>144.8</ele>
        <time>2020-06-14T18:28:07Z</time>
      </trkpt>
      <trkpt lat="49.61349" lon="-1.69805">
        <ele>144.9</ele>
        <time>2020-06-14T18:28:08Z</time>
      </trkpt>
      <trkpt lat="49.61349" lon="-1.69801">
        <ele>145.1</ele>
        <time>2020-06-14T18:28:09Z</time>
      </trkpt>
      <trkpt lat="49.61351" lon="-1.69795">
        <ele>145.3</ele>
        <time>2020-06-14T18:28:10Z</time>
      </trkpt>
      <trkpt lat="49.61351" lon="-1.69793">
        <ele>145.3</ele>
        <time>2020-06-14T18:28:11Z</time>
      </trkpt>
      <trkpt lat="49.61352" lon="-1.69787">
        <ele>145.5</ele>
        <time>2020-06-14T18:28:12Z</time>
      </trkpt>
      <trkpt lat="49.61352" lon="-1.69781">
        <ele>145.7</ele>
        <time>2020-06-14T18:28:13Z</time>
      </trkpt>
      <trkpt lat="49.61352" lon="-1.6978">
        <ele>145.7</ele>
        <time>2020-06-14T18:28:14Z</time>
      </trkpt>
      <trkpt lat="49.61353" lon="-1.69776">
        <ele>145.8</ele>
        <time>2020-06-14T18:28:15Z</time>
      </trkpt>
      <trkpt lat="49.61353" lon="-1.69775">
        <ele>145.9</ele>
        <time>2020-06-14T18:28:16Z</time>
      </trkpt>
      <trkpt lat="49.61355" lon="-1.6977">
        <ele>146</ele>
        <time>2020-06-14T18:28:17Z</time>
      </trkpt>
      <trkpt lat="49.61356" lon="-1.69765">
        <ele>146.1</ele>
        <time>2020-06-14T18:28:18Z</time>
      </trkpt>
      <trkpt lat="49.61355" lon="-1.69759">
        <ele>146.3</ele>
        <time>2020-06-14T18:28:19Z</time>
      </trkpt>
      <trkpt lat="49.61355" lon="-1.69756">
        <ele>146.4</ele>
        <time>2020-06-14T18:28:20Z</time>
      </trkpt>
      <trkpt lat="49.61356" lon="-1.69749">
        <ele>146.5</ele>
        <time>2020-06-14T18:28:21Z</time>
      </trkpt>
      <trkpt lat="49.61357" lon="-1.69744">
        <ele>146.6</ele>
        <time>2020-06-14T18:28:22Z</time>
      </trkpt>
      <trkpt lat="49.61358" lon="-1.69739">
        <ele>146.7</ele>
        <time>2020-06-14T18:28:23Z</time>
      </trkpt>
      <trkpt lat="49.61359" lon="-1.69734">
        <ele>146.8</ele>
        <time>2020-06-14T18:28:24Z</time>
      </trkpt>
      <trkpt lat="49.6136" lon="-1.69729">
        <ele>146.9</ele>
        <time>2020-06-14T18:28:25Z</time>
      </trkpt>
      <trkpt lat="49.61361" lon="-1.69724">
        <ele>147</ele>
        <time>2020-06-14T18:28:26Z</time>
      </trkpt>
      <trkpt lat="49.61361" lon="-1.69718">
        <ele>147.1</ele>
        <time>2020-06-14T18:28:27Z</time>
      </trkpt>
      <trkpt lat="49.61362" lon="-1.69711">
        <ele>147.2</ele>
        <time>2020-06-14T18:28:28Z</time>
      </trkpt>
      <trkpt lat="49.61363" lon="-1.69705">
        <ele>147.2</ele>
        <time>2020-06-14T18:28:29Z</time>
      </trkpt>
      <trkpt lat="49.61363" lon="-1.69702">
        <ele>147.3</ele>
        <time>2020-06-14T18:28:30Z</time>
      </trkpt>
      <trkpt lat="49.61364" lon="-1.69696">
        <ele>147.3</ele>
        <time>2020-06-14T18:28:31Z</time>
      </trkpt>
      <trkpt lat="49.61365" lon="-1.69692">
        <ele>147.3</ele>
        <time>2020-06-14T18:28:32Z</time>
      </trkpt>
      <trkpt lat="49.61367" lon="-1.69686">
        <ele>147.4</ele>
        <time>2020-06-14T18:28:33Z</time>
      </trkpt>
      <trkpt lat="49.61368" lon="-1.69684">
        <ele>147.4</ele>
        <time>2020-06-14T18:28:34Z</time>
      </trkpt>
      <trkpt lat="49.6137" lon="-1.69678">
        <ele>147.4</ele>
        <time>2020-06-14T18:28:35Z</time>
      </trkpt>
      <trkpt lat="49.61371" lon="-1.69672">
        <ele>147.4</ele>
        <time>2020-06-14T18:28:36Z</time>
      </trkpt>
      <trkpt lat="49.61372" lon="-1.69668">
        <ele>147.4</ele>
        <time>2020-06-14T18:28:37Z</time>
      </trkpt>
      <trkpt lat="49.61373" lon="-1.6966">
        <ele>147.4</ele>
        <time>2020-06-14T18:28:38Z</time>
      </trkpt>
      <trkpt lat="49.61373" lon="-1.69652">
        <ele>147.4</ele>
        <time>2020-06-14T18:28:39Z</time>
      </trkpt>
      <trkpt lat="49.61374" lon="-1.69645">
        <ele>147.4</ele>
        <time>2020-06-14T18:28:40Z</time>
      </trkpt>
      <trkpt lat="49.61375" lon="-1.6964">
        <ele>147.4</ele>
        <time>2020-06-14T18:28:41Z</time>
      </trkpt>
      <trkpt lat="49.61376" lon="-1.69635">
        <ele>147.4</ele>
        <time>2020-06-14T18:28:42Z</time>
      </trkpt>
      <trkpt lat="49.61377" lon="-1.69629">
        <ele>147.4</ele>
        <time>2020-06-14T18:28:43Z</time>
      </trkpt>
      <trkpt lat="49.61378" lon="-1.69624">
        <ele>147.4</ele>
        <time>2020-06-14T18:28:44Z</time>
      </trkpt>
      <trkpt lat="49.61379" lon="-1.69619">
        <ele>147.4</ele>
        <time>2020-06-14T18:28:45Z</time>
      </trkpt>
      <trkpt lat="49.6138" lon="-1.69613">
        <ele>147.3</ele>
        <time>2020-06-14T18:28:46Z</time>
      </trkpt>
      <trkpt lat="49.61381" lon="-1.69607">
        <ele>147.3</ele>
        <time>2020-06-14T18:28:47Z</time>
      </trkpt>
      <trkpt lat="49.61383" lon="-1.69601">
        <ele>147.3</ele>
        <time>2020-06-14T18:28:48Z</time>
      </trkpt>
      <trkpt lat="49.61383" lon="-1.69593">
        <ele>147.2</ele>
        <time>2020-06-14T18:28:49Z</time>
      </trkpt>
      <trkpt lat="49.61385" lon="-1.69587">
        <ele>147.1</ele>
        <time>2020-06-14T18:28:50Z</time>
      </trkpt>
      <trkpt lat="49.61386" lon="-1.69581">
        <ele>147.1</ele>
        <time>2020-06-14T18:28:51Z</time>
      </trkpt>
      <trkpt lat="49.61387" lon="-1.69575">
        <ele>147</ele>
        <time>2020-06-14T18:28:52Z</time>
      </trkpt>
      <trkpt lat="49.61388" lon="-1.69569">
        <ele>147</ele>
        <time>2020-06-14T18:28:53Z</time>
      </trkpt>
      <trkpt lat="49.61389" lon="-1.69563">
        <ele>146.9</ele>
        <time>2020-06-14T18:28:54Z</time>
      </trkpt>
      <trkpt lat="49.6139" lon="-1.69556">
        <ele>146.8</ele>
        <time>2020-06-14T18:28:55Z</time>
      </trkpt>
      <trkpt lat="49.61392" lon="-1.69552">
        <ele>146.7</ele>
        <time>2020-06-14T18:28:56Z</time>
      </trkpt>
      <trkpt lat="49.61393" lon="-1.69546">
        <ele>146.6</ele>
        <time>2020-06-14T18:28:57Z</time>
      </trkpt>
      <trkpt lat="49.61394" lon="-1.6954">
        <ele>146.5</ele>
        <time>2020-06-14T18:28:58Z</time>
      </trkpt>
      <trkpt lat="49.61395" lon="-1.69535">
        <ele>146.4</ele>
        <time>2020-06-14T18:28:59Z</time>
      </trkpt>
      <trkpt lat="49.61396" lon="-1.69529">
        <ele>146.3</ele>
        <time>2020-06-14T18:29:00Z</time>
      </trkpt>
      <trkpt lat="49.61397" lon="-1.69523">
        <ele>146.2</ele>
        <time>2020-06-14T18:29:01Z</time>
      </trkpt>
      <trkpt lat="49.61399" lon="-1.69518">
        <ele>146.1</ele>
        <time>2020-06-14T18:29:02Z</time>
      </trkpt>
      <trkpt lat="49.61401" lon="-1.69511">
        <ele>146</ele>
        <time>2020-06-14T18:29:03Z</time>
      </trkpt>
      <trkpt lat="49.61402" lon="-1.69506">
        <ele>145.9</ele>
        <time>2020-06-14T18:29:04Z</time>
      </trkpt>
      <trkpt lat="49.61402" lon="-1.69499">
        <ele>145.8</ele>
        <time>2020-06-14T18:29:05Z</time>
      </trkpt>
      <trkpt lat="49.61401" lon="-1.69494">
        <ele>145.7</ele>
        <time>2020-06-14T18:29:06Z</time>
      </trkpt>
      <trkpt lat="49.614" lon="-1.69487">
        <ele>145.5</ele>
        <time>2020-06-14T18:29:07Z</time>
      </trkpt>
      <trkpt lat="49.614" lon="-1.69483">
        <ele>145.4</ele>
        <time>2020-06-14T18:29:08Z</time>
      </trkpt>
      <trkpt lat="49.61401" lon="-1.69475">
        <ele>145.2</ele>
        <time>2020-06-14T18:29:09Z</time>
      </trkpt>
      <trkpt lat="49.61402" lon="-1.69468">
        <ele>145.1</ele>
        <time>2020-06-14T18:29:10Z</time>
      </trkpt>
      <trkpt lat="49.61403" lon="-1.69459">
        <ele>144.9</ele>
        <time>2020-06-14T18:29:11Z</time>
      </trkpt>
      <trkpt lat="49.61404" lon="-1.69452">
        <ele>144.7</ele>
        <time>2020-06-14T18:29:12Z</time>
      </trkpt>
      <trkpt lat="49.61404" lon="-1.69443">
        <ele>144.5</ele>
        <time>2020-06-14T18:29:13Z</time>
      </trkpt>
      <trkpt lat="49.61406" lon="-1.69435">
        <ele>144.4</ele>
        <time>2020-06-14T18:29:14Z</time>
      </trkpt>
      <trkpt lat="49.61407" lon="-1.69426">
        <ele>144.2</ele>
        <time>2020-06-14T18:29:15Z</time>
      </trkpt>
      <trkpt lat="49.61408" lon="-1.69416">
        <ele>144</ele>
        <time>2020-06-14T18:29:16Z</time>
      </trkpt>
      <trkpt lat="49.61409" lon="-1.69407">
        <ele>143.8</ele>
        <time>2020-06-14T18:29:17Z</time>
      </trkpt>
      <trkpt lat="49.6141" lon="-1.69398">
        <ele>143.6</ele>
        <time>2020-06-14T18:29:18Z</time>
      </trkpt>
      <trkpt lat="49.6141" lon="-1.69389">
        <ele>143.4</ele>
        <time>2020-06-14T18:29:19Z</time>
      </trkpt>
      <trkpt lat="49.61411" lon="-1.69381">
        <ele>143.3</ele>
        <time>2020-06-14T18:29:20Z</time>
      </trkpt>
      <trkpt lat="49.61412" lon="-1.69372">
        <ele>143.2</ele>
        <time>2020-06-14T18:29:21Z</time>
      </trkpt>
      <trkpt lat="49.61412" lon="-1.69364">
        <ele>143</ele>
        <time>2020-06-14T18:29:22Z</time>
      </trkpt>
      <trkpt lat="49.61414" lon="-1.69356">
        <ele>142.9</ele>
        <time>2020-06-14T18:29:23Z</time>
      </trkpt>
      <trkpt lat="49.61415" lon="-1.69348">
        <ele>142.8</ele>
        <time>2020-06-14T18:29:24Z</time>
      </trkpt>
      <trkpt lat="49.61414" lon="-1.69338">
        <ele>142.6</ele>
        <time>2020-06-14T18:29:25Z</time>
      </trkpt>
      <trkpt lat="49.61414" lon="-1.6933">
        <ele>142.5</ele>
        <time>2020-06-14T18:29:26Z</time>
      </trkpt>
      <trkpt lat="49.61414" lon="-1.69322">
        <ele>142.4</ele>
        <time>2020-06-14T18:29:27Z</time>
      </trkpt>
      <trkpt lat="49.61415" lon="-1.69314">
        <ele>142.2</ele>
        <time>2020-06-14T18:29:28Z</time>
      </trkpt>
      <trkpt lat="49.61417" lon="-1.69307">
        <ele>142.1</ele>
        <time>2020-06-14T18:29:29Z</time>
      </trkpt>
      <trkpt lat="49.61419" lon="-1.69299">
        <ele>142</ele>
        <time>2020-06-14T18:29:30Z</time>
      </trkpt>
      <trkpt lat="49.6142" lon="-1.6929">
        <ele>141.9</ele>
        <time>2020-06-14T18:29:31Z</time>
      </trkpt>
      <trkpt lat="49.61421" lon="-1.69281">
        <ele>141.8</ele>
        <time>2020-06-14T18:29:32Z</time>
      </trkpt>
      <trkpt lat="49.61421" lon="-1.69273">
        <ele>141.7</ele>
        <time>2020-06-14T18:29:33Z</time>
      </trkpt>
      <trkpt lat="49.61421" lon="-1.69263">
        <ele>141.6</ele>
        <time>2020-06-14T18:29:34Z</time>
      </trkpt>
      <trkpt lat="49.61422" lon="-1.69256">
        <ele>141.5</ele>
        <time>2020-06-14T18:29:35Z</time>
      </trkpt>
      <trkpt lat="49.61423" lon="-1.69247">
        <ele>141.4</ele>
        <time>2020-06-14T18:29:36Z</time>
      </trkpt>
      <trkpt lat="49.61425" lon="-1.69237">
        <ele>141.3</ele>
        <time>2020-06-14T18:29:37Z</time>
      </trkpt>
      <trkpt lat="49.61426" lon="-1.69228">
        <ele>141.3</ele>
        <time>2020-06-14T18:29:38Z</time>
      </trkpt>
      <trkpt lat="49.61429" lon="-1.6922">
        <ele>141.3</ele>
        <time>2020-06-14T18:29:39Z</time>
      </trkpt>
      <trkpt lat="49.61429" lon="-1.69213">
        <ele>141.3</ele>
        <time>2020-06-14T18:29:40Z</time>
      </trkpt>
      <trkpt lat="49.61431" lon="-1.69204">
        <ele>141.3</ele>
        <time>2020-06-14T18:29:41Z</time>
      </trkpt>
      <trkpt lat="49.61432" lon="-1.69196">
        <ele>141.4</ele>
        <time>2020-06-14T18:29:42Z</time>
      </trkpt>
      <trkpt lat="49.61432" lon="-1.69188">
        <ele>141.6</ele>
        <time>2020-06-14T18:29:43Z</time>
      </trkpt>
      <trkpt lat="49.61433" lon="-1.69179">
        <ele>141.8</ele>
        <time>2020-06-14T18:29:44Z</time>
      </trkpt>
      <trkpt lat="49.61433" lon="-1.69171">
        <ele>142</ele>
        <time>2020-06-14T18:29:45Z</time>
      </trkpt>
      <trkpt lat="49.61434" lon="-1.69162">
        <ele>142.1</ele>
        <time>2020-06-14T18:29:46Z</time>
      </trkpt>
      <trkpt lat="49.61434" lon="-1.69153">
        <ele>142.1</ele>
        <time>2020-06-14T18:29:47Z</time>
      </trkpt>
      <trkpt lat="49.61435" lon="-1.69144">
        <ele>142.1</ele>
        <time>2020-06-14T18:29:48Z</time>
      </trkpt>
      <trkpt lat="49.61436" lon="-1.69136">
        <ele>142</ele>
        <time>2020-06-14T18:29:49Z</time>
      </trkpt>
      <trkpt lat="49.61437" lon="-1.69127">
        <ele>142</ele>
        <time>2020-06-14T18:29:50Z</time>
      </trkpt>
      <trkpt lat="49.61438" lon="-1.6912">
        <ele>142</ele>
        <time>2020-06-14T18:29:51Z</time>
      </trkpt>
      <trkpt lat="49.61439" lon="-1.69112">
        <ele>142</ele>
        <time>2020-06-14T18:29:52Z</time>
      </trkpt>
      <trkpt lat="49.6144" lon="-1.69103">
        <ele>141.9</ele>
        <time>2020-06-14T18:29:53Z</time>
      </trkpt>
      <trkpt lat="49.61441" lon="-1.69095">
        <ele>141.9</ele>
        <time>2020-06-14T18:29:54Z</time>
      </trkpt>
      <trkpt lat="49.61442" lon="-1.69088">
        <ele>141.9</ele>
        <time>2020-06-14T18:29:55Z</time>
      </trkpt>
      <trkpt lat="49.61444" lon="-1.69079">
        <ele>141.9</ele>
        <time>2020-06-14T18:29:56Z</time>
      </trkpt>
      <trkpt lat="49.61445" lon="-1.69071">
        <ele>141.9</ele>
        <time>2020-06-14T18:29:57Z</time>
      </trkpt>
      <trkpt lat="49.61446" lon="-1.69063">
        <ele>142</ele>
        <time>2020-06-14T18:29:58Z</time>
      </trkpt>
      <trkpt lat="49.61447" lon="-1.69055">
        <ele>142</ele>
        <time>2020-06-14T18:29:59Z</time>
      </trkpt>
      <trkpt lat="49.61447" lon="-1.69048">
        <ele>142</ele>
        <time>2020-06-14T18:30:00Z</time>
      </trkpt>
      <trkpt lat="49.61448" lon="-1.69042">
        <ele>142</ele>
        <time>2020-06-14T18:30:01Z</time>
      </trkpt>
      <trkpt lat="49.61449" lon="-1.69034">
        <ele>142</ele>
        <time>2020-06-14T18:30:02Z</time>
      </trkpt>
      <trkpt lat="49.6145" lon="-1.69027">
        <ele>142</ele>
        <time>2020-06-14T18:30:03Z</time>
      </trkpt>
      <trkpt lat="49.61451" lon="-1.6902">
        <ele>142</ele>
        <time>2020-06-14T18:30:04Z</time>
      </trkpt>
      <trkpt lat="49.61452" lon="-1.69012">
        <ele>142</ele>
        <time>2020-06-14T18:30:05Z</time>
      </trkpt>
      <trkpt lat="49.61453" lon="-1.69004">
        <ele>142</ele>
        <time>2020-06-14T18:30:06Z</time>
      </trkpt>
      <trkpt lat="49.61453" lon="-1.68996">
        <ele>142</ele>
        <time>2020-06-14T18:30:07Z</time>
      </trkpt>
      <trkpt lat="49.61454" lon="-1.68988">
        <ele>142</ele>
        <time>2020-06-14T18:30:08Z</time>
      </trkpt>
      <trkpt lat="49.61455" lon="-1.6898">
        <ele>142</ele>
        <time>2020-06-14T18:30:09Z</time>
      </trkpt>
      <trkpt lat="49.61456" lon="-1.68974">
        <ele>142</ele>
        <time>2020-06-14T18:30:10Z</time>
      </trkpt>
      <trkpt lat="49.61457" lon="-1.68966">
        <ele>142.1</ele>
        <time>2020-06-14T18:30:11Z</time>
      </trkpt>
      <trkpt lat="49.61458" lon="-1.68959">
        <ele>142.1</ele>
        <time>2020-06-14T18:30:12Z</time>
      </trkpt>
      <trkpt lat="49.61459" lon="-1.6895">
        <ele>142.1</ele>
        <time>2020-06-14T18:30:13Z</time>
      </trkpt>
      <trkpt lat="49.61459" lon="-1.68941">
        <ele>142.1</ele>
        <time>2020-06-14T18:30:14Z</time>
      </trkpt>
      <trkpt lat="49.61461" lon="-1.68932">
        <ele>142.1</ele>
        <time>2020-06-14T18:30:15Z</time>
      </trkpt>
      <trkpt lat="49.61462" lon="-1.68924">
        <ele>142.1</ele>
        <time>2020-06-14T18:30:16Z</time>
      </trkpt>
      <trkpt lat="49.61464" lon="-1.68916">
        <ele>142.1</ele>
        <time>2020-06-14T18:30:17Z</time>
      </trkpt>
      <trkpt lat="49.61464" lon="-1.68908">
        <ele>142.1</ele>
        <time>2020-06-14T18:30:18Z</time>
      </trkpt>
      <trkpt lat="49.61465" lon="-1.68902">
        <ele>142.1</ele>
        <time>2020-06-14T18:30:19Z</time>
      </trkpt>
      <trkpt lat="49.61466" lon="-1.68894">
        <ele>142.1</ele>
        <time>2020-06-14T18:30:20Z</time>
      </trkpt>
      <trkpt lat="49.61467" lon="-1.68885">
        <ele>142.1</ele>
        <time>2020-06-14T18:30:21Z</time>
      </trkpt>
      <trkpt lat="49.61467" lon="-1.68877">
        <ele>142.1</ele>
        <time>2020-06-14T18:30:22Z</time>
      </trkpt>
      <trkpt lat="49.61468" lon="-1.68869">
        <ele>142.1</ele>
        <time>2020-06-14T18:30:23Z</time>
      </trkpt>
      <trkpt lat="49.61469" lon="-1.68861">
        <ele>142.1</ele>
        <time>2020-06-14T18:30:24Z</time>
      </trkpt>
      <trkpt lat="49.61469" lon="-1.68853">
        <ele>142.1</ele>
        <time>2020-06-14T18:30:25Z</time>
      </trkpt>
      <trkpt lat="49.6147" lon="-1.68845">
        <ele>142.1</ele>
        <time>2020-06-14T18:30:26Z</time>
      </trkpt>
      <trkpt lat="49.61471" lon="-1.68837">
        <ele>142</ele>
        <time>2020-06-14T18:30:27Z</time>
      </trkpt>
      <trkpt lat="49.61472" lon="-1.68829">
        <ele>142</ele>
        <time>2020-06-14T18:30:28Z</time>
      </trkpt>
      <trkpt lat="49.61473" lon="-1.68821">
        <ele>142</ele>
        <time>2020-06-14T18:30:29Z</time>
      </trkpt>
      <trkpt lat="49.61473" lon="-1.68813">
        <ele>142</ele>
        <time>2020-06-14T18:30:30Z</time>
      </trkpt>
      <trkpt lat="49.61474" lon="-1.68804">
        <ele>142</ele>
        <time>2020-06-14T18:30:31Z</time>
      </trkpt>
      <trkpt lat="49.61476" lon="-1.68798">
        <ele>142</ele>
        <time>2020-06-14T18:30:32Z</time>
      </trkpt>
      <trkpt lat="49.61478" lon="-1.6879">
        <ele>142</ele>
        <time>2020-06-14T18:30:33Z</time>
      </trkpt>
      <trkpt lat="49.61479" lon="-1.68782">
        <ele>142</ele>
        <time>2020-06-14T18:30:34Z</time>
      </trkpt>
      <trkpt lat="49.6148" lon="-1.68776">
        <ele>141.9</ele>
        <time>2020-06-14T18:30:35Z</time>
      </trkpt>
      <trkpt lat="49.6148" lon="-1.68768">
        <ele>141.9</ele>
        <time>2020-06-14T18:30:36Z</time>
      </trkpt>
      <trkpt lat="49.6148" lon="-1.68762">
        <ele>141.9</ele>
        <time>2020-06-14T18:30:37Z</time>
      </trkpt>
      <trkpt lat="49.61481" lon="-1.68755">
        <ele>141.9</ele>
        <time>2020-06-14T18:30:38Z</time>
      </trkpt>
      <trkpt lat="49.61482" lon="-1.68748">
        <ele>141.9</ele>
        <time>2020-06-14T18:30:39Z</time>
      </trkpt>
      <trkpt lat="49.61482" lon="-1.68741">
        <ele>141.9</ele>
        <time>2020-06-14T18:30:40Z</time>
      </trkpt>
      <trkpt lat="49.61483" lon="-1.68734">
        <ele>141.9</ele>
        <time>2020-06-14T18:30:41Z</time>
      </trkpt>
      <trkpt lat="49.61484" lon="-1.68727">
        <ele>141.9</ele>
        <time>2020-06-14T18:30:42Z</time>
      </trkpt>
      <trkpt lat="49.61485" lon="-1.6872">
        <ele>141.9</ele>
        <time>2020-06-14T18:30:43Z</time>
      </trkpt>
      <trkpt lat="49.61486" lon="-1.68712">
        <ele>141.8</ele>
        <time>2020-06-14T18:30:44Z</time>
      </trkpt>
      <trkpt lat="49.61487" lon="-1.68704">
        <ele>141.8</ele>
        <time>2020-06-14T18:30:45Z</time>
      </trkpt>
      <trkpt lat="49.61489" lon="-1.68697">
        <ele>141.8</ele>
        <time>2020-06-14T18:30:46Z</time>
      </trkpt>
      <trkpt lat="49.61492" lon="-1.68689">
        <ele>141.8</ele>
        <time>2020-06-14T18:30:47Z</time>
      </trkpt>
      <trkpt lat="49.61494" lon="-1.6868">
        <ele>141.8</ele>
        <time>2020-06-14T18:30:48Z</time>
      </trkpt>
      <trkpt lat="49.61496" lon="-1.68673">
        <ele>141.8</ele>
        <time>2020-06-14T18:30:49Z</time>
      </trkpt>
      <trkpt lat="49.61499" lon="-1.68665">
        <ele>141.7</ele>
        <time>2020-06-14T18:30:50Z</time>
      </trkpt>
      <trkpt lat="49.61501" lon="-1.68658">
        <ele>141.7</ele>
        <time>2020-06-14T18:30:51Z</time>
      </trkpt>
      <trkpt lat="49.61503" lon="-1.68651">
        <ele>141.7</ele>
        <time>2020-06-14T18:30:52Z</time>
      </trkpt>
      <trkpt lat="49.61504" lon="-1.68646">
        <ele>141.7</ele>
        <time>2020-06-14T18:30:53Z</time>
      </trkpt>
      <trkpt lat="49.61505" lon="-1.6864">
        <ele>141.7</ele>
        <time>2020-06-14T18:30:54Z</time>
      </trkpt>
      <trkpt lat="49.61507" lon="-1.68634">
        <ele>141.7</ele>
        <time>2020-06-14T18:30:55Z</time>
      </trkpt>
      <trkpt lat="49.61508" lon="-1.68627">
        <ele>141.7</ele>
        <time>2020-06-14T18:30:56Z</time>
      </trkpt>
      <trkpt lat="49.6151" lon="-1.6862">
        <ele>141.7</ele>
        <time>2020-06-14T18:30:57Z</time>
      </trkpt>
      <trkpt lat="49.61512" lon="-1.68614">
        <ele>141.7</ele>
        <time>2020-06-14T18:30:58Z</time>
      </trkpt>
      <trkpt lat="49.61514" lon="-1.68607">
        <ele>141.7</ele>
        <time>2020-06-14T18:30:59Z</time>
      </trkpt>
      <trkpt lat="49.61517" lon="-1.68601">
        <ele>141.7</ele>
        <time>2020-06-14T18:31:00Z</time>
      </trkpt>
      <trkpt lat="49.61521" lon="-1.68596">
        <ele>141.7</ele>
        <time>2020-06-14T18:31:01Z</time>
      </trkpt>
      <trkpt lat="49.61525" lon="-1.68589">
        <ele>141.7</ele>
        <time>2020-06-14T18:31:02Z</time>
      </trkpt>
      <trkpt lat="49.61527" lon="-1.68583">
        <ele>141.6</ele>
        <time>2020-06-14T18:31:03Z</time>
      </trkpt>
      <trkpt lat="49.61532" lon="-1.68575">
        <ele>141.6</ele>
        <time>2020-06-14T18:31:04Z</time>
      </trkpt>
      <trkpt lat="49.61534" lon="-1.68567">
        <ele>141.6</ele>
        <time>2020-06-14T18:31:05Z</time>
      </trkpt>
      <trkpt lat="49.61538" lon="-1.68561">
        <ele>141.6</ele>
        <time>2020-06-14T18:31:06Z</time>
      </trkpt>
      <trkpt lat="49.61541" lon="-1.68554">
        <ele>141.5</ele>
        <time>2020-06-14T18:31:07Z</time>
      </trkpt>
      <trkpt lat="49.61545" lon="-1.68546">
        <ele>141.5</ele>
        <time>2020-06-14T18:31:08Z</time>
      </trkpt>
      <trkpt lat="49.61548" lon="-1.68539">
        <ele>141.5</ele>
        <time>2020-06-14T18:31:09Z</time>
      </trkpt>
      <trkpt lat="49.61551" lon="-1.68533">
        <ele>141.5</ele>
        <time>2020-06-14T18:31:10Z</time>
      </trkpt>
      <trkpt lat="49.61554" lon="-1.68527">
        <ele>141.5</ele>
        <time>2020-06-14T18:31:11Z</time>
      </trkpt>
      <trkpt lat="49.61558" lon="-1.6852">
        <ele>141.5</ele>
        <time>2020-06-14T18:31:12Z</time>
      </trkpt>
      <trkpt lat="49.61561" lon="-1.68514">
        <ele>141.5</ele>
        <time>2020-06-14T18:31:13Z</time>
      </trkpt>
      <trkpt lat="49.61565" lon="-1.68508">
        <ele>141.5</ele>
        <time>2020-06-14T18:31:14Z</time>
      </trkpt>
      <trkpt lat="49.61568" lon="-1.68502">
        <ele>141.5</ele>
        <time>2020-06-14T18:31:15Z</time>
      </trkpt>
      <trkpt lat="49.61572" lon="-1.68496">
        <ele>141.4</ele>
        <time>2020-06-14T18:31:16Z</time>
      </trkpt>
      <trkpt lat="49.61575" lon="-1.68489">
        <ele>141.4</ele>
        <time>2020-06-14T18:31:17Z</time>
      </trkpt>
      <trkpt lat="49.61578" lon="-1.68482">
        <ele>141.3</ele>
        <time>2020-06-14T18:31:18Z</time>
      </trkpt>
      <trkpt lat="49.61581" lon="-1.68477">
        <ele>141.3</ele>
        <time>2020-06-14T18:31:19Z</time>
      </trkpt>
      <trkpt lat="49.61583" lon="-1.68471">
        <ele>141.2</ele>
        <time>2020-06-14T18:31:20Z</time>
      </trkpt>
      <trkpt lat="49.61586" lon="-1.68466">
        <ele>141.2</ele>
        <time>2020-06-14T18:31:21Z</time>
      </trkpt>
      <trkpt lat="49.61589" lon="-1.68461">
        <ele>141.1</ele>
        <time>2020-06-14T18:31:22Z</time>
      </trkpt>
      <trkpt lat="49.61592" lon="-1.68454">
        <ele>141.1</ele>
        <time>2020-06-14T18:31:23Z</time>
      </trkpt>
      <trkpt lat="49.61596" lon="-1.68447">
        <ele>141.1</ele>
        <time>2020-06-14T18:31:24Z</time>
      </trkpt>
      <trkpt lat="49.61599" lon="-1.6844">
        <ele>141</ele>
        <time>2020-06-14T18:31:25Z</time>
      </trkpt>
      <trkpt lat="49.61603" lon="-1.68433">
        <ele>141</ele>
        <time>2020-06-14T18:31:26Z</time>
      </trkpt>
      <trkpt lat="49.61606" lon="-1.68427">
        <ele>140.9</ele>
        <time>2020-06-14T18:31:27Z</time>
      </trkpt>
      <trkpt lat="49.6161" lon="-1.68421">
        <ele>140.8</ele>
        <time>2020-06-14T18:31:28Z</time>
      </trkpt>
      <trkpt lat="49.61614" lon="-1.68414">
        <ele>140.7</ele>
        <time>2020-06-14T18:31:29Z</time>
      </trkpt>
      <trkpt lat="49.61617" lon="-1.68406">
        <ele>140.7</ele>
        <time>2020-06-14T18:31:30Z</time>
      </trkpt>
      <trkpt lat="49.6162" lon="-1.684">
        <ele>140.6</ele>
        <time>2020-06-14T18:31:31Z</time>
      </trkpt>
      <trkpt lat="49.61624" lon="-1.68394">
        <ele>140.6</ele>
        <time>2020-06-14T18:31:32Z</time>
      </trkpt>
      <trkpt lat="49.61627" lon="-1.68386">
        <ele>140.5</ele>
        <time>2020-06-14T18:31:33Z</time>
      </trkpt>
      <trkpt lat="49.61631" lon="-1.68379">
        <ele>140.4</ele>
        <time>2020-06-14T18:31:34Z</time>
      </trkpt>
      <trkpt lat="49.61634" lon="-1.68372">
        <ele>140.4</ele>
        <time>2020-06-14T18:31:35Z</time>
      </trkpt>
      <trkpt lat="49.61636" lon="-1.68366">
        <ele>140.3</ele>
        <time>2020-06-14T18:31:36Z</time>
      </trkpt>
      <trkpt lat="49.61639" lon="-1.68359">
        <ele>140.2</ele>
        <time>2020-06-14T18:31:37Z</time>
      </trkpt>
      <trkpt lat="49.61641" lon="-1.68352">
        <ele>140.1</ele>
        <time>2020-06-14T18:31:38Z</time>
      </trkpt>
      <trkpt lat="49.61644" lon="-1.68344">
        <ele>140.1</ele>
        <time>2020-06-14T18:31:39Z</time>
      </trkpt>
      <trkpt lat="49.61647" lon="-1.68335">
        <ele>140</ele>
        <time>2020-06-14T18:31:40Z</time>
      </trkpt>
      <trkpt lat="49.61648" lon="-1.68327">
        <ele>139.9</ele>
        <time>2020-06-14T18:31:41Z</time>
      </trkpt>
      <trkpt lat="49.61651" lon="-1.68319">
        <ele>139.8</ele>
        <time>2020-06-14T18:31:42Z</time>
      </trkpt>
      <trkpt lat="49.61653" lon="-1.68311">
        <ele>139.8</ele>
        <time>2020-06-14T18:31:43Z</time>
      </trkpt>
      <trkpt lat="49.61655" lon="-1.68303">
        <ele>139.8</ele>
        <time>2020-06-14T18:31:44Z</time>
      </trkpt>
      <trkpt lat="49.61657" lon="-1.68296">
        <ele>139.8</ele>
        <time>2020-06-14T18:31:45Z</time>
      </trkpt>
      <trkpt lat="49.61659" lon="-1.68289">
        <ele>139.9</ele>
        <time>2020-06-14T18:31:46Z</time>
      </trkpt>
      <trkpt lat="49.61662" lon="-1.68281">
        <ele>140</ele>
        <time>2020-06-14T18:31:47Z</time>
      </trkpt>
      <trkpt lat="49.61663" lon="-1.68273">
        <ele>140.1</ele>
        <time>2020-06-14T18:31:48Z</time>
      </trkpt>
      <trkpt lat="49.61665" lon="-1.68267">
        <ele>140.2</ele>
        <time>2020-06-14T18:31:49Z</time>
      </trkpt>
      <trkpt lat="49.61667" lon="-1.68259">
        <ele>140.2</ele>
        <time>2020-06-14T18:31:50Z</time>
      </trkpt>
      <trkpt lat="49.61668" lon="-1.68251">
        <ele>140.2</ele>
        <time>2020-06-14T18:31:51Z</time>
      </trkpt>
      <trkpt lat="49.61669" lon="-1.68243">
        <ele>140.2</ele>
        <time>2020-06-14T18:31:52Z</time>
      </trkpt>
      <trkpt lat="49.6167" lon="-1.68235">
        <ele>140.2</ele>
        <time>2020-06-14T18:31:53Z</time>
      </trkpt>
      <trkpt lat="49.61671" lon="-1.68227">
        <ele>140.2</ele>
        <time>2020-06-14T18:31:54Z</time>
      </trkpt>
      <trkpt lat="49.61672" lon="-1.68219">
        <ele>140.2</ele>
        <time>2020-06-14T18:31:55Z</time>
      </trkpt>
      <trkpt lat="49.61673" lon="-1.68211">
        <ele>140.3</ele>
        <time>2020-06-14T18:31:56Z</time>
      </trkpt>
      <trkpt lat="49.61675" lon="-1.68204">
        <ele>140.3</ele>
        <time>2020-06-14T18:31:57Z</time>
      </trkpt>
      <trkpt lat="49.61675" lon="-1.68196">
        <ele>140.4</ele>
        <time>2020-06-14T18:31:58Z</time>
      </trkpt>
      <trkpt lat="49.61675" lon="-1.68188">
        <ele>140.4</ele>
        <time>2020-06-14T18:31:59Z</time>
      </trkpt>
      <trkpt lat="49.61676" lon="-1.68179">
        <ele>140.5</ele>
        <time>2020-06-14T18:32:00Z</time>
      </trkpt>
      <trkpt lat="49.61676" lon="-1.68171">
        <ele>140.6</ele>
        <time>2020-06-14T18:32:01Z</time>
      </trkpt>
      <trkpt lat="49.61677" lon="-1.68163">
        <ele>140.7</ele>
        <time>2020-06-14T18:32:02Z</time>
      </trkpt>
      <trkpt lat="49.61678" lon="-1.68155">
        <ele>140.8</ele>
        <time>2020-06-14T18:32:03Z</time>
      </trkpt>
      <trkpt lat="49.61677" lon="-1.68148">
        <ele>140.9</ele>
        <time>2020-06-14T18:32:04Z</time>
      </trkpt>
      <trkpt lat="49.61677" lon="-1.6814">
        <ele>141</ele>
        <time>2020-06-14T18:32:05Z</time>
      </trkpt>
      <trkpt lat="49.61677" lon="-1.68132">
        <ele>141.2</ele>
        <time>2020-06-14T18:32:06Z</time>
      </trkpt>
      <trkpt lat="49.61677" lon="-1.68125">
        <ele>141.3</ele>
        <time>2020-06-14T18:32:07Z</time>
      </trkpt>
      <trkpt lat="49.61676" lon="-1.68117">
        <ele>141.4</ele>
        <time>2020-06-14T18:32:08Z</time>
      </trkpt>
      <trkpt lat="49.61675" lon="-1.6811">
        <ele>141.5</ele>
        <time>2020-06-14T18:32:09Z</time>
      </trkpt>
      <trkpt lat="49.61675" lon="-1.68103">
        <ele>141.6</ele>
        <time>2020-06-14T18:32:10Z</time>
      </trkpt>
      <trkpt lat="49.61674" lon="-1.68094">
        <ele>141.8</ele>
        <time>2020-06-14T18:32:11Z</time>
      </trkpt>
      <trkpt lat="49.61674" lon="-1.68087">
        <ele>142</ele>
        <time>2020-06-14T18:32:12Z</time>
      </trkpt>
      <trkpt lat="49.61673" lon="-1.6808">
        <ele>142.1</ele>
        <time>2020-06-14T18:32:13Z</time>
      </trkpt>
      <trkpt lat="49.61673" lon="-1.68073">
        <ele>142.3</ele>
        <time>2020-06-14T18:32:14Z</time>
      </trkpt>
      <trkpt lat="49.61673" lon="-1.68066">
        <ele>142.4</ele>
        <time>2020-06-14T18:32:15Z</time>
      </trkpt>
      <trkpt lat="49.61673" lon="-1.68058">
        <ele>142.6</ele>
        <time>2020-06-14T18:32:16Z</time>
      </trkpt>
      <trkpt lat="49.61673" lon="-1.6805">
        <ele>142.8</ele>
        <time>2020-06-14T18:32:17Z</time>
      </trkpt>
      <trkpt lat="49.61674" lon="-1.68043">
        <ele>143</ele>
        <time>2020-06-14T18:32:18Z</time>
      </trkpt>
      <trkpt lat="49.61674" lon="-1.68035">
        <ele>143.2</ele>
        <time>2020-06-14T18:32:19Z</time>
      </trkpt>
      <trkpt lat="49.61675" lon="-1.68027">
        <ele>143.4</ele>
        <time>2020-06-14T18:32:20Z</time>
      </trkpt>
      <trkpt lat="49.61675" lon="-1.6802">
        <ele>143.6</ele>
        <time>2020-06-14T18:32:21Z</time>
      </trkpt>
      <trkpt lat="49.61676" lon="-1.68013">
        <ele>143.8</ele>
        <time>2020-06-14T18:32:22Z</time>
      </trkpt>
      <trkpt lat="49.61676" lon="-1.68006">
        <ele>144</ele>
        <time>2020-06-14T18:32:23Z</time>
      </trkpt>
      <trkpt lat="49.61677" lon="-1.67999">
        <ele>144.2</ele>
        <time>2020-06-14T18:32:24Z</time>
      </trkpt>
      <trkpt lat="49.61678" lon="-1.67993">
        <ele>144.4</ele>
        <time>2020-06-14T18:32:25Z</time>
      </trkpt>
      <trkpt lat="49.61679" lon="-1.67986">
        <ele>144.6</ele>
        <time>2020-06-14T18:32:26Z</time>
      </trkpt>
      <trkpt lat="49.61681" lon="-1.67978">
        <ele>144.7</ele>
        <time>2020-06-14T18:32:27Z</time>
      </trkpt>
      <trkpt lat="49.61682" lon="-1.67972">
        <ele>144.8</ele>
        <time>2020-06-14T18:32:28Z</time>
      </trkpt>
      <trkpt lat="49.61682" lon="-1.67966">
        <ele>144.9</ele>
        <time>2020-06-14T18:32:29Z</time>
      </trkpt>
      <trkpt lat="49.61684" lon="-1.67959">
        <ele>145</ele>
        <time>2020-06-14T18:32:30Z</time>
      </trkpt>
      <trkpt lat="49.61686" lon="-1.67952">
        <ele>145.2</ele>
        <time>2020-06-14T18:32:31Z</time>
      </trkpt>
      <trkpt lat="49.61688" lon="-1.67946">
        <ele>145.3</ele>
        <time>2020-06-14T18:32:32Z</time>
      </trkpt>
      <trkpt lat="49.6169" lon="-1.67938">
        <ele>145.4</ele>
        <time>2020-06-14T18:32:33Z</time>
      </trkpt>
      <trkpt lat="49.61692" lon="-1.67929">
        <ele>145.5</ele>
        <time>2020-06-14T18:32:34Z</time>
      </trkpt>
      <trkpt lat="49.61693" lon="-1.67922">
        <ele>145.7</ele>
        <time>2020-06-14T18:32:35Z</time>
      </trkpt>
      <trkpt lat="49.61694" lon="-1.67914">
        <ele>145.8</ele>
        <time>2020-06-14T18:32:36Z</time>
      </trkpt>
      <trkpt lat="49.61696" lon="-1.67907">
        <ele>145.9</ele>
        <time>2020-06-14T18:32:37Z</time>
      </trkpt>
      <trkpt lat="49.61697" lon="-1.679">
        <ele>146</ele>
        <time>2020-06-14T18:32:38Z</time>
      </trkpt>
      <trkpt lat="49.61699" lon="-1.67893">
        <ele>146.1</ele>
        <time>2020-06-14T18:32:39Z</time>
      </trkpt>
      <trkpt lat="49.61701" lon="-1.67887">
        <ele>146.2</ele>
        <time>2020-06-14T18:32:40Z</time>
      </trkpt>
      <trkpt lat="49.61702" lon="-1.6788">
        <ele>146.3</ele>
        <time>2020-06-14T18:32:41Z</time>
      </trkpt>
      <trkpt lat="49.61704" lon="-1.67872">
        <ele>146.4</ele>
        <time>2020-06-14T18:32:42Z</time>
      </trkpt>
      <trkpt lat="49.61705" lon="-1.67865">
        <ele>146.5</ele>
        <time>2020-06-14T18:32:43Z</time>
      </trkpt>
      <trkpt lat="49.61707" lon="-1.67858">
        <ele>146.6</ele>
        <time>2020-06-14T18:32:44Z</time>
      </trkpt>
      <trkpt lat="49.61709" lon="-1.67852">
        <ele>146.7</ele>
        <time>2020-06-14T18:32:45Z</time>
      </trkpt>
      <trkpt lat="49.61711" lon="-1.67845">
        <ele>146.8</ele>
        <time>2020-06-14T18:32:46Z</time>
      </trkpt>
      <trkpt lat="49.61713" lon="-1.67838">
        <ele>146.8</ele>
        <time>2020-06-14T18:32:47Z</time>
      </trkpt>
      <trkpt lat="49.61714" lon="-1.67831">
        <ele>146.9</ele>
        <time>2020-06-14T18:32:48Z</time>
      </trkpt>
      <trkpt lat="49.61716" lon="-1.67825">
        <ele>147</ele>
        <time>2020-06-14T18:32:49Z</time>
      </trkpt>
      <trkpt lat="49.61718" lon="-1.67818">
        <ele>147.1</ele>
        <time>2020-06-14T18:32:50Z</time>
      </trkpt>
      <trkpt lat="49.6172" lon="-1.67811">
        <ele>147.1</ele>
        <time>2020-06-14T18:32:51Z</time>
      </trkpt>
      <trkpt lat="49.61721" lon="-1.67804">
        <ele>147.2</ele>
        <time>2020-06-14T18:32:52Z</time>
      </trkpt>
      <trkpt lat="49.61722" lon="-1.67798">
        <ele>147.3</ele>
        <time>2020-06-14T18:32:53Z</time>
      </trkpt>
      <trkpt lat="49.61723" lon="-1.67791">
        <ele>147.3</ele>
        <time>2020-06-14T18:32:54Z</time>
      </trkpt>
      <trkpt lat="49.61725" lon="-1.67785">
        <ele>147.4</ele>
        <time>2020-06-14T18:32:55Z</time>
      </trkpt>
      <trkpt lat="49.61726" lon="-1.67778">
        <ele>147.5</ele>
        <time>2020-06-14T18:32:56Z</time>
      </trkpt>
      <trkpt lat="49.61727" lon="-1.6777">
        <ele>147.6</ele>
        <time>2020-06-14T18:32:57Z</time>
      </trkpt>
      <trkpt lat="49.61729" lon="-1.67763">
        <ele>147.7</ele>
        <time>2020-06-14T18:32:58Z</time>
      </trkpt>
      <trkpt lat="49.6173" lon="-1.67756">
        <ele>147.7</ele>
        <time>2020-06-14T18:32:59Z</time>
      </trkpt>
      <trkpt lat="49.61731" lon="-1.67749">
        <ele>147.8</ele>
        <time>2020-06-14T18:33:00Z</time>
      </trkpt>
      <trkpt lat="49.61731" lon="-1.67742">
        <ele>147.9</ele>
        <time>2020-06-14T18:33:01Z</time>
      </trkpt>
      <trkpt lat="49.61733" lon="-1.67736">
        <ele>147.9</ele>
        <time>2020-06-14T18:33:02Z</time>
      </trkpt>
      <trkpt lat="49.61735" lon="-1.67728">
        <ele>148.1</ele>
        <time>2020-06-14T18:33:03Z</time>
      </trkpt>
      <trkpt lat="49.61737" lon="-1.67721">
        <ele>148.1</ele>
        <time>2020-06-14T18:33:04Z</time>
      </trkpt>
      <trkpt lat="49.61739" lon="-1.67715">
        <ele>148.2</ele>
        <time>2020-06-14T18:33:05Z</time>
      </trkpt>
      <trkpt lat="49.61741" lon="-1.67708">
        <ele>148.3</ele>
        <time>2020-06-14T18:33:06Z</time>
      </trkpt>
      <trkpt lat="49.61741" lon="-1.67702">
        <ele>148.3</ele>
        <time>2020-06-14T18:33:07Z</time>
      </trkpt>
      <trkpt lat="49.61742" lon="-1.67695">
        <ele>148.4</ele>
        <time>2020-06-14T18:33:08Z</time>
      </trkpt>
      <trkpt lat="49.61744" lon="-1.67688">
        <ele>148.4</ele>
        <time>2020-06-14T18:33:09Z</time>
      </trkpt>
      <trkpt lat="49.61746" lon="-1.6768">
        <ele>148.4</ele>
        <time>2020-06-14T18:33:10Z</time>
      </trkpt>
      <trkpt lat="49.61748" lon="-1.67672">
        <ele>148.4</ele>
        <time>2020-06-14T18:33:11Z</time>
      </trkpt>
      <trkpt lat="49.6175" lon="-1.67663">
        <ele>148.4</ele>
        <time>2020-06-14T18:33:12Z</time>
      </trkpt>
      <trkpt lat="49.61752" lon="-1.67654">
        <ele>148.4</ele>
        <time>2020-06-14T18:33:13Z</time>
      </trkpt>
      <trkpt lat="49.61755" lon="-1.67647">
        <ele>148.3</ele>
        <time>2020-06-14T18:33:14Z</time>
      </trkpt>
      <trkpt lat="49.61755" lon="-1.67639">
        <ele>148.2</ele>
        <time>2020-06-14T18:33:15Z</time>
      </trkpt>
      <trkpt lat="49.61756" lon="-1.67632">
        <ele>148.1</ele>
        <time>2020-06-14T18:33:16Z</time>
      </trkpt>
      <trkpt lat="49.61758" lon="-1.67625">
        <ele>147.9</ele>
        <time>2020-06-14T18:33:17Z</time>
      </trkpt>
      <trkpt lat="49.61759" lon="-1.67616">
        <ele>147.7</ele>
        <time>2020-06-14T18:33:18Z</time>
      </trkpt>
      <trkpt lat="49.6176" lon="-1.67607">
        <ele>147.6</ele>
        <time>2020-06-14T18:33:19Z</time>
      </trkpt>
      <trkpt lat="49.61762" lon="-1.67599">
        <ele>147.5</ele>
        <time>2020-06-14T18:33:20Z</time>
      </trkpt>
      <trkpt lat="49.61764" lon="-1.67591">
        <ele>147.3</ele>
        <time>2020-06-14T18:33:21Z</time>
      </trkpt>
      <trkpt lat="49.61766" lon="-1.67583">
        <ele>147.2</ele>
        <time>2020-06-14T18:33:22Z</time>
      </trkpt>
      <trkpt lat="49.61767" lon="-1.67575">
        <ele>147.1</ele>
        <time>2020-06-14T18:33:23Z</time>
      </trkpt>
      <trkpt lat="49.61769" lon="-1.67566">
        <ele>147</ele>
        <time>2020-06-14T18:33:24Z</time>
      </trkpt>
      <trkpt lat="49.6177" lon="-1.67557">
        <ele>146.9</ele>
        <time>2020-06-14T18:33:25Z</time>
      </trkpt>
      <trkpt lat="49.61773" lon="-1.67549">
        <ele>146.8</ele>
        <time>2020-06-14T18:33:26Z</time>
      </trkpt>
      <trkpt lat="49.61775" lon="-1.6754">
        <ele>146.7</ele>
        <time>2020-06-14T18:33:27Z</time>
      </trkpt>
      <trkpt lat="49.61777" lon="-1.67531">
        <ele>146.5</ele>
        <time>2020-06-14T18:33:28Z</time>
      </trkpt>
      <trkpt lat="49.61779" lon="-1.67522">
        <ele>146.4</ele>
        <time>2020-06-14T18:33:29Z</time>
      </trkpt>
      <trkpt lat="49.61781" lon="-1.67513">
        <ele>146.3</ele>
        <time>2020-06-14T18:33:30Z</time>
      </trkpt>
      <trkpt lat="49.61782" lon="-1.67504">
        <ele>146.1</ele>
        <time>2020-06-14T18:33:31Z</time>
      </trkpt>
      <trkpt lat="49.61784" lon="-1.67495">
        <ele>145.9</ele>
        <time>2020-06-14T18:33:32Z</time>
      </trkpt>
      <trkpt lat="49.61786" lon="-1.67485">
        <ele>145.7</ele>
        <time>2020-06-14T18:33:33Z</time>
      </trkpt>
      <trkpt lat="49.61789" lon="-1.67475">
        <ele>145.5</ele>
        <time>2020-06-14T18:33:34Z</time>
      </trkpt>
      <trkpt lat="49.61791" lon="-1.67464">
        <ele>145.3</ele>
        <time>2020-06-14T18:33:35Z</time>
      </trkpt>
      <trkpt lat="49.61793" lon="-1.67452">
        <ele>145.1</ele>
        <time>2020-06-14T18:33:36Z</time>
      </trkpt>
      <trkpt lat="49.61794" lon="-1.67442">
        <ele>144.9</ele>
        <time>2020-06-14T18:33:37Z</time>
      </trkpt>
      <trkpt lat="49.61797" lon="-1.6743">
        <ele>144.7</ele>
        <time>2020-06-14T18:33:38Z</time>
      </trkpt>
      <trkpt lat="49.618" lon="-1.67418">
        <ele>144.5</ele>
        <time>2020-06-14T18:33:39Z</time>
      </trkpt>
      <trkpt lat="49.61803" lon="-1.67408">
        <ele>144.4</ele>
        <time>2020-06-14T18:33:40Z</time>
      </trkpt>
      <trkpt lat="49.61805" lon="-1.67398">
        <ele>144.2</ele>
        <time>2020-06-14T18:33:41Z</time>
      </trkpt>
      <trkpt lat="49.61807" lon="-1.67387">
        <ele>144</ele>
        <time>2020-06-14T18:33:42Z</time>
      </trkpt>
      <trkpt lat="49.61809" lon="-1.67377">
        <ele>143.9</ele>
        <time>2020-06-14T18:33:43Z</time>
      </trkpt>
      <trkpt lat="49.61811" lon="-1.67366">
        <ele>143.7</ele>
        <time>2020-06-14T18:33:44Z</time>
      </trkpt>
      <trkpt lat="49.61813" lon="-1.67355">
        <ele>143.5</ele>
        <time>2020-06-14T18:33:45Z</time>
      </trkpt>
      <trkpt lat="49.61814" lon="-1.67344">
        <ele>143.3</ele>
        <time>2020-06-14T18:33:46Z</time>
      </trkpt>
      <trkpt lat="49.61816" lon="-1.67333">
        <ele>143</ele>
        <time>2020-06-14T18:33:47Z</time>
      </trkpt>
      <trkpt lat="49.61818" lon="-1.67321">
        <ele>142.8</ele>
        <time>2020-06-14T18:33:48Z</time>
      </trkpt>
      <trkpt lat="49.6182" lon="-1.6731">
        <ele>142.5</ele>
        <time>2020-06-14T18:33:49Z</time>
      </trkpt>
      <trkpt lat="49.61822" lon="-1.67299">
        <ele>142.2</ele>
        <time>2020-06-14T18:33:50Z</time>
      </trkpt>
      <trkpt lat="49.61824" lon="-1.67288">
        <ele>141.9</ele>
        <time>2020-06-14T18:33:51Z</time>
      </trkpt>
      <trkpt lat="49.61826" lon="-1.67277">
        <ele>141.6</ele>
        <time>2020-06-14T18:33:52Z</time>
      </trkpt>
      <trkpt lat="49.61829" lon="-1.67266">
        <ele>141.3</ele>
        <time>2020-06-14T18:33:53Z</time>
      </trkpt>
      <trkpt lat="49.61831" lon="-1.67255">
        <ele>140.9</ele>
        <time>2020-06-14T18:33:54Z</time>
      </trkpt>
      <trkpt lat="49.61833" lon="-1.67243">
        <ele>140.6</ele>
        <time>2020-06-14T18:33:55Z</time>
      </trkpt>
      <trkpt lat="49.61836" lon="-1.67232">
        <ele>140.3</ele>
        <time>2020-06-14T18:33:56Z</time>
      </trkpt>
      <trkpt lat="49.61839" lon="-1.6722">
        <ele>139.9</ele>
        <time>2020-06-14T18:33:57Z</time>
      </trkpt>
      <trkpt lat="49.61841" lon="-1.67208">
        <ele>139.6</ele>
        <time>2020-06-14T18:33:58Z</time>
      </trkpt>
      <trkpt lat="49.61844" lon="-1.67197">
        <ele>139.3</ele>
        <time>2020-06-14T18:33:59Z</time>
      </trkpt>
      <trkpt lat="49.61847" lon="-1.67185">
        <ele>139</ele>
        <time>2020-06-14T18:34:00Z</time>
      </trkpt>
      <trkpt lat="49.61849" lon="-1.67172">
        <ele>138.7</ele>
        <time>2020-06-14T18:34:01Z</time>
      </trkpt>
      <trkpt lat="49.61851" lon="-1.6716">
        <ele>138.3</ele>
        <time>2020-06-14T18:34:02Z</time>
      </trkpt>
      <trkpt lat="49.61854" lon="-1.67147">
        <ele>138</ele>
        <time>2020-06-14T18:34:03Z</time>
      </trkpt>
      <trkpt lat="49.61856" lon="-1.67135">
        <ele>137.6</ele>
        <time>2020-06-14T18:34:04Z</time>
      </trkpt>
      <trkpt lat="49.61858" lon="-1.67122">
        <ele>137.3</ele>
        <time>2020-06-14T18:34:05Z</time>
      </trkpt>
      <trkpt lat="49.6186" lon="-1.67109">
        <ele>137</ele>
        <time>2020-06-14T18:34:06Z</time>
      </trkpt>
      <trkpt lat="49.61862" lon="-1.67097">
        <ele>136.6</ele>
        <time>2020-06-14T18:34:07Z</time>
      </trkpt>
      <trkpt lat="49.61865" lon="-1.67084">
        <ele>136.4</ele>
        <time>2020-06-14T18:34:08Z</time>
      </trkpt>
      <trkpt lat="49.61867" lon="-1.67071">
        <ele>136.2</ele>
        <time>2020-06-14T18:34:09Z</time>
      </trkpt>
      <trkpt lat="49.6187" lon="-1.67058">
        <ele>135.9</ele>
        <time>2020-06-14T18:34:10Z</time>
      </trkpt>
      <trkpt lat="49.61872" lon="-1.67045">
        <ele>135.8</ele>
        <time>2020-06-14T18:34:11Z</time>
      </trkpt>
      <trkpt lat="49.61875" lon="-1.67033">
        <ele>135.7</ele>
        <time>2020-06-14T18:34:12Z</time>
      </trkpt>
      <trkpt lat="49.61878" lon="-1.6702">
        <ele>135.8</ele>
        <time>2020-06-14T18:34:13Z</time>
      </trkpt>
      <trkpt lat="49.61881" lon="-1.67008">
        <ele>135.9</ele>
        <time>2020-06-14T18:34:14Z</time>
      </trkpt>
      <trkpt lat="49.61884" lon="-1.66996">
        <ele>135.9</ele>
        <time>2020-06-14T18:34:15Z</time>
      </trkpt>
      <trkpt lat="49.61888" lon="-1.66985">
        <ele>135.8</ele>
        <time>2020-06-14T18:34:16Z</time>
      </trkpt>
      <trkpt lat="49.61891" lon="-1.66973">
        <ele>135.7</ele>
        <time>2020-06-14T18:34:17Z</time>
      </trkpt>
      <trkpt lat="49.61895" lon="-1.66963">
        <ele>135.6</ele>
        <time>2020-06-14T18:34:18Z</time>
      </trkpt>
      <trkpt lat="49.61899" lon="-1.66952">
        <ele>135.5</ele>
        <time>2020-06-14T18:34:19Z</time>
      </trkpt>
      <trkpt lat="49.61903" lon="-1.66941">
        <ele>135.4</ele>
        <time>2020-06-14T18:34:20Z</time>
      </trkpt>
      <trkpt lat="49.61907" lon="-1.66931">
        <ele>135.4</ele>
        <time>2020-06-14T18:34:21Z</time>
      </trkpt>
      <trkpt lat="49.61911" lon="-1.66921">
        <ele>135.5</ele>
        <time>2020-06-14T18:34:22Z</time>
      </trkpt>
      <trkpt lat="49.61915" lon="-1.66912">
        <ele>135.5</ele>
        <time>2020-06-14T18:34:23Z</time>
      </trkpt>
      <trkpt lat="49.61919" lon="-1.66902">
        <ele>135.5</ele>
        <time>2020-06-14T18:34:24Z</time>
      </trkpt>
      <trkpt lat="49.61923" lon="-1.66892">
        <ele>135.4</ele>
        <time>2020-06-14T18:34:25Z</time>
      </trkpt>
      <trkpt lat="49.61926" lon="-1.66883">
        <ele>135.5</ele>
        <time>2020-06-14T18:34:26Z</time>
      </trkpt>
      <trkpt lat="49.61931" lon="-1.66874">
        <ele>135.5</ele>
        <time>2020-06-14T18:34:27Z</time>
      </trkpt>
      <trkpt lat="49.61935" lon="-1.66865">
        <ele>135.6</ele>
        <time>2020-06-14T18:34:28Z</time>
      </trkpt>
      <trkpt lat="49.61938" lon="-1.66856">
        <ele>135.6</ele>
        <time>2020-06-14T18:34:29Z</time>
      </trkpt>
      <trkpt lat="49.61941" lon="-1.66846">
        <ele>135.7</ele>
        <time>2020-06-14T18:34:30Z</time>
      </trkpt>
      <trkpt lat="49.61945" lon="-1.66837">
        <ele>135.7</ele>
        <time>2020-06-14T18:34:31Z</time>
      </trkpt>
      <trkpt lat="49.61948" lon="-1.66828">
        <ele>135.8</ele>
        <time>2020-06-14T18:34:32Z</time>
      </trkpt>
      <trkpt lat="49.61951" lon="-1.66819">
        <ele>135.9</ele>
        <time>2020-06-14T18:34:33Z</time>
      </trkpt>
      <trkpt lat="49.61955" lon="-1.6681">
        <ele>136</ele>
        <time>2020-06-14T18:34:34Z</time>
      </trkpt>
      <trkpt lat="49.61958" lon="-1.66802">
        <ele>136.1</ele>
        <time>2020-06-14T18:34:35Z</time>
      </trkpt>
      <trkpt lat="49.61962" lon="-1.66793">
        <ele>136.2</ele>
        <time>2020-06-14T18:34:36Z</time>
      </trkpt>
      <trkpt lat="49.61965" lon="-1.66784">
        <ele>136.3</ele>
        <time>2020-06-14T18:34:37Z</time>
      </trkpt>
      <trkpt lat="49.61968" lon="-1.66775">
        <ele>136.4</ele>
        <time>2020-06-14T18:34:38Z</time>
      </trkpt>
      <trkpt lat="49.61972" lon="-1.66766">
        <ele>136.5</ele>
        <time>2020-06-14T18:34:39Z</time>
      </trkpt>
      <trkpt lat="49.61974" lon="-1.66757">
        <ele>136.5</ele>
        <time>2020-06-14T18:34:40Z</time>
      </trkpt>
      <trkpt lat="49.61978" lon="-1.66748">
        <ele>136.6</ele>
        <time>2020-06-14T18:34:41Z</time>
      </trkpt>
      <trkpt lat="49.61981" lon="-1.66739">
        <ele>136.5</ele>
        <time>2020-06-14T18:34:42Z</time>
      </trkpt>
      <trkpt lat="49.61984" lon="-1.6673">
        <ele>136.6</ele>
        <time>2020-06-14T18:34:43Z</time>
      </trkpt>
      <trkpt lat="49.61987" lon="-1.66721">
        <ele>136.6</ele>
        <time>2020-06-14T18:34:44Z</time>
      </trkpt>
      <trkpt lat="49.61989" lon="-1.66712">
        <ele>136.6</ele>
        <time>2020-06-14T18:34:45Z</time>
      </trkpt>
      <trkpt lat="49.61991" lon="-1.66703">
        <ele>136.6</ele>
        <time>2020-06-14T18:34:46Z</time>
      </trkpt>
      <trkpt lat="49.61993" lon="-1.66693">
        <ele>136.6</ele>
        <time>2020-06-14T18:34:47Z</time>
      </trkpt>
      <trkpt lat="49.61995" lon="-1.66683">
        <ele>136.6</ele>
        <time>2020-06-14T18:34:48Z</time>
      </trkpt>
      <trkpt lat="49.61997" lon="-1.66674">
        <ele>136.6</ele>
        <time>2020-06-14T18:34:49Z</time>
      </trkpt>
      <trkpt lat="49.61999" lon="-1.66664">
        <ele>136.6</ele>
        <time>2020-06-14T18:34:50Z</time>
      </trkpt>
      <trkpt lat="49.62002" lon="-1.66655">
        <ele>136.6</ele>
        <time>2020-06-14T18:34:51Z</time>
      </trkpt>
      <trkpt lat="49.62004" lon="-1.66646">
        <ele>136.6</ele>
        <time>2020-06-14T18:34:52Z</time>
      </trkpt>
      <trkpt lat="49.62006" lon="-1.66636">
        <ele>136.6</ele>
        <time>2020-06-14T18:34:53Z</time>
      </trkpt>
      <trkpt lat="49.62009" lon="-1.66627">
        <ele>136.6</ele>
        <time>2020-06-14T18:34:54Z</time>
      </trkpt>
      <trkpt lat="49.62011" lon="-1.66618">
        <ele>136.5</ele>
        <time>2020-06-14T18:34:55Z</time>
      </trkpt>
      <trkpt lat="49.62014" lon="-1.66609">
        <ele>136.4</ele>
        <time>2020-06-14T18:34:56Z</time>
      </trkpt>
      <trkpt lat="49.62017" lon="-1.666">
        <ele>136.3</ele>
        <time>2020-06-14T18:34:57Z</time>
      </trkpt>
      <trkpt lat="49.6202" lon="-1.66591">
        <ele>136.2</ele>
        <time>2020-06-14T18:34:58Z</time>
      </trkpt>
      <trkpt lat="49.62023" lon="-1.66582">
        <ele>136.1</ele>
        <time>2020-06-14T18:34:59Z</time>
      </trkpt>
      <trkpt lat="49.62026" lon="-1.66573">
        <ele>136</ele>
        <time>2020-06-14T18:35:00Z</time>
      </trkpt>
      <trkpt lat="49.62029" lon="-1.66564">
        <ele>135.9</ele>
        <time>2020-06-14T18:35:01Z</time>
      </trkpt>
      <trkpt lat="49.62032" lon="-1.66555">
        <ele>135.8</ele>
        <time>2020-06-14T18:35:02Z</time>
      </trkpt>
      <trkpt lat="49.62035" lon="-1.66546">
        <ele>135.7</ele>
        <time>2020-06-14T18:35:03Z</time>
      </trkpt>
      <trkpt lat="49.62038" lon="-1.66537">
        <ele>135.5</ele>
        <time>2020-06-14T18:35:04Z</time>
      </trkpt>
      <trkpt lat="49.62041" lon="-1.66528">
        <ele>135.3</ele>
        <time>2020-06-14T18:35:05Z</time>
      </trkpt>
      <trkpt lat="49.62044" lon="-1.6652">
        <ele>135.1</ele>
        <time>2020-06-14T18:35:06Z</time>
      </trkpt>
      <trkpt lat="49.62046" lon="-1.66511">
        <ele>135</ele>
        <time>2020-06-14T18:35:07Z</time>
      </trkpt>
      <trkpt lat="49.62049" lon="-1.66502">
        <ele>134.8</ele>
        <time>2020-06-14T18:35:08Z</time>
      </trkpt>
      <trkpt lat="49.62052" lon="-1.66494">
        <ele>134.6</ele>
        <time>2020-06-14T18:35:09Z</time>
      </trkpt>
      <trkpt lat="49.62055" lon="-1.66485">
        <ele>134.5</ele>
        <time>2020-06-14T18:35:10Z</time>
      </trkpt>
      <trkpt lat="49.62058" lon="-1.66475">
        <ele>134.3</ele>
        <time>2020-06-14T18:35:11Z</time>
      </trkpt>
      <trkpt lat="49.62061" lon="-1.66466">
        <ele>134.2</ele>
        <time>2020-06-14T18:35:12Z</time>
      </trkpt>
      <trkpt lat="49.62064" lon="-1.66456">
        <ele>134</ele>
        <time>2020-06-14T18:35:13Z</time>
      </trkpt>
      <trkpt lat="49.62067" lon="-1.66447">
        <ele>133.9</ele>
        <time>2020-06-14T18:35:14Z</time>
      </trkpt>
      <trkpt lat="49.6207" lon="-1.66437">
        <ele>133.7</ele>
        <time>2020-06-14T18:35:15Z</time>
      </trkpt>
      <trkpt lat="49.62073" lon="-1.66428">
        <ele>133.5</ele>
        <time>2020-06-14T18:35:16Z</time>
      </trkpt>
      <trkpt lat="49.62077" lon="-1.66419">
        <ele>133.3</ele>
        <time>2020-06-14T18:35:17Z</time>
      </trkpt>
      <trkpt lat="49.6208" lon="-1.66411">
        <ele>133.2</ele>
        <time>2020-06-14T18:35:18Z</time>
      </trkpt>
      <trkpt lat="49.62083" lon="-1.66402">
        <ele>133</ele>
        <time>2020-06-14T18:35:19Z</time>
      </trkpt>
      <trkpt lat="49.62086" lon="-1.66392">
        <ele>132.8</ele>
        <time>2020-06-14T18:35:20Z</time>
      </trkpt>
      <trkpt lat="49.6209" lon="-1.66383">
        <ele>132.7</ele>
        <time>2020-06-14T18:35:21Z</time>
      </trkpt>
      <trkpt lat="49.62093" lon="-1.66373">
        <ele>132.5</ele>
        <time>2020-06-14T18:35:22Z</time>
      </trkpt>
      <trkpt lat="49.62096" lon="-1.66364">
        <ele>132.4</ele>
        <time>2020-06-14T18:35:23Z</time>
      </trkpt>
      <trkpt lat="49.62099" lon="-1.66354">
        <ele>132.3</ele>
        <time>2020-06-14T18:35:24Z</time>
      </trkpt>
      <trkpt lat="49.62102" lon="-1.66344">
        <ele>132.2</ele>
        <time>2020-06-14T18:35:25Z</time>
      </trkpt>
      <trkpt lat="49.62106" lon="-1.66334">
        <ele>132.1</ele>
        <time>2020-06-14T18:35:26Z</time>
      </trkpt>
      <trkpt lat="49.62108" lon="-1.66324">
        <ele>132</ele>
        <time>2020-06-14T18:35:27Z</time>
      </trkpt>
      <trkpt lat="49.62111" lon="-1.66315">
        <ele>132</ele>
        <time>2020-06-14T18:35:28Z</time>
      </trkpt>
      <trkpt lat="49.62114" lon="-1.66305">
        <ele>131.9</ele>
        <time>2020-06-14T18:35:29Z</time>
      </trkpt>
      <trkpt lat="49.62117" lon="-1.66296">
        <ele>131.7</ele>
        <time>2020-06-14T18:35:30Z</time>
      </trkpt>
      <trkpt lat="49.62119" lon="-1.66287">
        <ele>131.6</ele>
        <time>2020-06-14T18:35:31Z</time>
      </trkpt>
      <trkpt lat="49.62122" lon="-1.66278">
        <ele>131.5</ele>
        <time>2020-06-14T18:35:32Z</time>
      </trkpt>
      <trkpt lat="49.62124" lon="-1.66269">
        <ele>131.4</ele>
        <time>2020-06-14T18:35:33Z</time>
      </trkpt>
      <trkpt lat="49.62126" lon="-1.66261">
        <ele>131.4</ele>
        <time>2020-06-14T18:35:34Z</time>
      </trkpt>
      <trkpt lat="49.62129" lon="-1.66252">
        <ele>131.3</ele>
        <time>2020-06-14T18:35:35Z</time>
      </trkpt>
      <trkpt lat="49.6213" lon="-1.66244">
        <ele>131.2</ele>
        <time>2020-06-14T18:35:36Z</time>
      </trkpt>
      <trkpt lat="49.62132" lon="-1.66235">
        <ele>131.1</ele>
        <time>2020-06-14T18:35:37Z</time>
      </trkpt>
      <trkpt lat="49.62133" lon="-1.66226">
        <ele>131</ele>
        <time>2020-06-14T18:35:38Z</time>
      </trkpt>
      <trkpt lat="49.62134" lon="-1.66218">
        <ele>130.9</ele>
        <time>2020-06-14T18:35:39Z</time>
      </trkpt>
      <trkpt lat="49.62134" lon="-1.66209">
        <ele>130.8</ele>
        <time>2020-06-14T18:35:40Z</time>
      </trkpt>
      <trkpt lat="49.62134" lon="-1.662">
        <ele>130.8</ele>
        <time>2020-06-14T18:35:41Z</time>
      </trkpt>
      <trkpt lat="49.62135" lon="-1.66192">
        <ele>130.7</ele>
        <time>2020-06-14T18:35:42Z</time>
      </trkpt>
      <trkpt lat="49.62136" lon="-1.66184">
        <ele>130.6</ele>
        <time>2020-06-14T18:35:43Z</time>
      </trkpt>
      <trkpt lat="49.62137" lon="-1.66176">
        <ele>130.5</ele>
        <time>2020-06-14T18:35:44Z</time>
      </trkpt>
      <trkpt lat="49.62138" lon="-1.66168">
        <ele>130.3</ele>
        <time>2020-06-14T18:35:45Z</time>
      </trkpt>
      <trkpt lat="49.62139" lon="-1.6616">
        <ele>130.2</ele>
        <time>2020-06-14T18:35:46Z</time>
      </trkpt>
      <trkpt lat="49.62139" lon="-1.66152">
        <ele>130</ele>
        <time>2020-06-14T18:35:47Z</time>
      </trkpt>
      <trkpt lat="49.6214" lon="-1.66145">
        <ele>129.9</ele>
        <time>2020-06-14T18:35:48Z</time>
      </trkpt>
      <trkpt lat="49.62139" lon="-1.66137">
        <ele>129.7</ele>
        <time>2020-06-14T18:35:49Z</time>
      </trkpt>
      <trkpt lat="49.62139" lon="-1.66129">
        <ele>129.6</ele>
        <time>2020-06-14T18:35:50Z</time>
      </trkpt>
      <trkpt lat="49.62139" lon="-1.66122">
        <ele>129.5</ele>
        <time>2020-06-14T18:35:51Z</time>
      </trkpt>
      <trkpt lat="49.62137" lon="-1.66116">
        <ele>129.4</ele>
        <time>2020-06-14T18:35:52Z</time>
      </trkpt>
      <trkpt lat="49.62137" lon="-1.66111">
        <ele>129.3</ele>
        <time>2020-06-14T18:35:53Z</time>
      </trkpt>
      <trkpt lat="49.62138" lon="-1.66107">
        <ele>129.2</ele>
        <time>2020-06-14T18:35:54Z</time>
      </trkpt>
      <trkpt lat="49.6214" lon="-1.66105">
        <ele>129.5</ele>
        <time>2020-06-14T18:35:55Z</time>
      </trkpt>
      <trkpt lat="49.62143" lon="-1.66104">
        <ele>129.7</ele>
        <time>2020-06-14T18:35:56Z</time>
      </trkpt>
      <trkpt lat="49.62146" lon="-1.66106">
        <ele>129.8</ele>
        <time>2020-06-14T18:35:57Z</time>
      </trkpt>
      <trkpt lat="49.62149" lon="-1.66106">
        <ele>130</ele>
        <time>2020-06-14T18:35:58Z</time>
      </trkpt>
      <trkpt lat="49.62151" lon="-1.66106">
        <ele>130.1</ele>
        <time>2020-06-14T18:35:59Z</time>
      </trkpt>
      <trkpt lat="49.62154" lon="-1.66104">
        <ele>130.3</ele>
        <time>2020-06-14T18:36:00Z</time>
      </trkpt>
      <trkpt lat="49.62156" lon="-1.66099">
        <ele>130.5</ele>
        <time>2020-06-14T18:36:01Z</time>
      </trkpt>
      <trkpt lat="49.62158" lon="-1.66097">
        <ele>130.6</ele>
        <time>2020-06-14T18:36:02Z</time>
      </trkpt>
      <trkpt lat="49.62161" lon="-1.66096">
        <ele>130.8</ele>
        <time>2020-06-14T18:36:03Z</time>
      </trkpt>
      <trkpt lat="49.62164" lon="-1.66094">
        <ele>131</ele>
        <time>2020-06-14T18:36:04Z</time>
      </trkpt>
      <trkpt lat="49.62166" lon="-1.66091">
        <ele>131.1</ele>
        <time>2020-06-14T18:36:05Z</time>
      </trkpt>
      <trkpt lat="49.62169" lon="-1.66087">
        <ele>131.3</ele>
        <time>2020-06-14T18:36:06Z</time>
      </trkpt>
      <trkpt lat="49.62171" lon="-1.66082">
        <ele>131.6</ele>
        <time>2020-06-14T18:36:07Z</time>
      </trkpt>
      <trkpt lat="49.62174" lon="-1.66078">
        <ele>131.8</ele>
        <time>2020-06-14T18:36:08Z</time>
      </trkpt>
      <trkpt lat="49.62176" lon="-1.66074">
        <ele>132</ele>
        <time>2020-06-14T18:36:09Z</time>
      </trkpt>
      <trkpt lat="49.62178" lon="-1.66069">
        <ele>132.3</ele>
        <time>2020-06-14T18:36:10Z</time>
      </trkpt>
      <trkpt lat="49.62181" lon="-1.66064">
        <ele>132.6</ele>
        <time>2020-06-14T18:36:11Z</time>
      </trkpt>
      <trkpt lat="49.62182" lon="-1.66058">
        <ele>132.8</ele>
        <time>2020-06-14T18:36:12Z</time>
      </trkpt>
      <trkpt lat="49.62185" lon="-1.66052">
        <ele>133</ele>
        <time>2020-06-14T18:36:13Z</time>
      </trkpt>
      <trkpt lat="49.62187" lon="-1.66047">
        <ele>133.3</ele>
        <time>2020-06-14T18:36:14Z</time>
      </trkpt>
      <trkpt lat="49.62189" lon="-1.66042">
        <ele>133.4</ele>
        <time>2020-06-14T18:36:15Z</time>
      </trkpt>
      <trkpt lat="49.62191" lon="-1.66036">
        <ele>133.4</ele>
        <time>2020-06-14T18:36:16Z</time>
      </trkpt>
      <trkpt lat="49.62194" lon="-1.6603">
        <ele>133.5</ele>
        <time>2020-06-14T18:36:17Z</time>
      </trkpt>
      <trkpt lat="49.62196" lon="-1.66024">
        <ele>133.6</ele>
        <time>2020-06-14T18:36:18Z</time>
      </trkpt>
      <trkpt lat="49.622" lon="-1.66019">
        <ele>133.7</ele>
        <time>2020-06-14T18:36:19Z</time>
      </trkpt>
      <trkpt lat="49.62203" lon="-1.66014">
        <ele>133.7</ele>
        <time>2020-06-14T18:36:20Z</time>
      </trkpt>
      <trkpt lat="49.62208" lon="-1.66009">
        <ele>133.8</ele>
        <time>2020-06-14T18:36:21Z</time>
      </trkpt>
      <trkpt lat="49.62213" lon="-1.66004">
        <ele>133.9</ele>
        <time>2020-06-14T18:36:22Z</time>
      </trkpt>
      <trkpt lat="49.62217" lon="-1.66">
        <ele>134</ele>
        <time>2020-06-14T18:36:23Z</time>
      </trkpt>
      <trkpt lat="49.62221" lon="-1.65997">
        <ele>134</ele>
        <time>2020-06-14T18:36:24Z</time>
      </trkpt>
      <trkpt lat="49.62226" lon="-1.65992">
        <ele>134.1</ele>
        <time>2020-06-14T18:36:25Z</time>
      </trkpt>
      <trkpt lat="49.6223" lon="-1.65988">
        <ele>134.1</ele>
        <time>2020-06-14T18:36:26Z</time>
      </trkpt>
      <trkpt lat="49.62234" lon="-1.65985">
        <ele>134.1</ele>
        <time>2020-06-14T18:36:27Z</time>
      </trkpt>
      <trkpt lat="49.62238" lon="-1.65981">
        <ele>134</ele>
        <time>2020-06-14T18:36:28Z</time>
      </trkpt>
      <trkpt lat="49.62241" lon="-1.65976">
        <ele>133.9</ele>
        <time>2020-06-14T18:36:29Z</time>
      </trkpt>
      <trkpt lat="49.62244" lon="-1.65972">
        <ele>134</ele>
        <time>2020-06-14T18:36:30Z</time>
      </trkpt>
      <trkpt lat="49.62247" lon="-1.65967">
        <ele>134</ele>
        <time>2020-06-14T18:36:31Z</time>
      </trkpt>
      <trkpt lat="49.62251" lon="-1.65963">
        <ele>134</ele>
        <time>2020-06-14T18:36:32Z</time>
      </trkpt>
      <trkpt lat="49.62254" lon="-1.65959">
        <ele>134.1</ele>
        <time>2020-06-14T18:36:33Z</time>
      </trkpt>
      <trkpt lat="49.62257" lon="-1.65956">
        <ele>134.1</ele>
        <time>2020-06-14T18:36:34Z</time>
      </trkpt>
      <trkpt lat="49.62259" lon="-1.65952">
        <ele>134.1</ele>
        <time>2020-06-14T18:36:35Z</time>
      </trkpt>
      <trkpt lat="49.62262" lon="-1.65949">
        <ele>134.1</ele>
        <time>2020-06-14T18:36:36Z</time>
      </trkpt>
      <trkpt lat="49.62266" lon="-1.65947">
        <ele>134.1</ele>
        <time>2020-06-14T18:36:37Z</time>
      </trkpt>
      <trkpt lat="49.62269" lon="-1.65945">
        <ele>134</ele>
        <time>2020-06-14T18:36:38Z</time>
      </trkpt>
      <trkpt lat="49.62272" lon="-1.65943">
        <ele>133.9</ele>
        <time>2020-06-14T18:36:39Z</time>
      </trkpt>
      <trkpt lat="49.62276" lon="-1.6594">
        <ele>133.8</ele>
        <time>2020-06-14T18:36:40Z</time>
      </trkpt>
      <trkpt lat="49.62279" lon="-1.65936">
        <ele>133.7</ele>
        <time>2020-06-14T18:36:41Z</time>
      </trkpt>
      <trkpt lat="49.62283" lon="-1.65931">
        <ele>133.6</ele>
        <time>2020-06-14T18:36:42Z</time>
      </trkpt>
      <trkpt lat="49.62286" lon="-1.65926">
        <ele>133.4</ele>
        <time>2020-06-14T18:36:43Z</time>
      </trkpt>
      <trkpt lat="49.62289" lon="-1.65921">
        <ele>133.2</ele>
        <time>2020-06-14T18:36:44Z</time>
      </trkpt>
      <trkpt lat="49.62292" lon="-1.65918">
        <ele>133.1</ele>
        <time>2020-06-14T18:36:45Z</time>
      </trkpt>
      <trkpt lat="49.62296" lon="-1.65914">
        <ele>132.8</ele>
        <time>2020-06-14T18:36:46Z</time>
      </trkpt>
      <trkpt lat="49.62299" lon="-1.65909">
        <ele>132.6</ele>
        <time>2020-06-14T18:36:47Z</time>
      </trkpt>
      <trkpt lat="49.62303" lon="-1.65906">
        <ele>132.4</ele>
        <time>2020-06-14T18:36:48Z</time>
      </trkpt>
      <trkpt lat="49.62307" lon="-1.65901">
        <ele>132.1</ele>
        <time>2020-06-14T18:36:49Z</time>
      </trkpt>
      <trkpt lat="49.62311" lon="-1.65896">
        <ele>131.8</ele>
        <time>2020-06-14T18:36:50Z</time>
      </trkpt>
      <trkpt lat="49.62315" lon="-1.65892">
        <ele>131.5</ele>
        <time>2020-06-14T18:36:51Z</time>
      </trkpt>
      <trkpt lat="49.62319" lon="-1.65886">
        <ele>131.2</ele>
        <time>2020-06-14T18:36:52Z</time>
      </trkpt>
      <trkpt lat="49.62324" lon="-1.6588">
        <ele>130.9</ele>
        <time>2020-06-14T18:36:53Z</time>
      </trkpt>
      <trkpt lat="49.62328" lon="-1.65874">
        <ele>130.6</ele>
        <time>2020-06-14T18:36:54Z</time>
      </trkpt>
      <trkpt lat="49.62333" lon="-1.65866">
        <ele>130.2</ele>
        <time>2020-06-14T18:36:55Z</time>
      </trkpt>
      <trkpt lat="49.62338" lon="-1.65858">
        <ele>129.7</ele>
        <time>2020-06-14T18:36:56Z</time>
      </trkpt>
      <trkpt lat="49.62343" lon="-1.65848">
        <ele>129.3</ele>
        <time>2020-06-14T18:36:57Z</time>
      </trkpt>
      <trkpt lat="49.62347" lon="-1.65839">
        <ele>129</ele>
        <time>2020-06-14T18:36:58Z</time>
      </trkpt>
      <trkpt lat="49.62352" lon="-1.65829">
        <ele>128.6</ele>
        <time>2020-06-14T18:36:59Z</time>
      </trkpt>
      <trkpt lat="49.62356" lon="-1.65819">
        <ele>128.3</ele>
        <time>2020-06-14T18:37:00Z</time>
      </trkpt>
      <trkpt lat="49.62361" lon="-1.65809">
        <ele>128</ele>
        <time>2020-06-14T18:37:01Z</time>
      </trkpt>
      <trkpt lat="49.62366" lon="-1.658">
        <ele>127.7</ele>
        <time>2020-06-14T18:37:02Z</time>
      </trkpt>
      <trkpt lat="49.62371" lon="-1.65791">
        <ele>127.3</ele>
        <time>2020-06-14T18:37:03Z</time>
      </trkpt>
      <trkpt lat="49.62376" lon="-1.65782">
        <ele>127.2</ele>
        <time>2020-06-14T18:37:04Z</time>
      </trkpt>
      <trkpt lat="49.6238" lon="-1.65774">
        <ele>127</ele>
        <time>2020-06-14T18:37:05Z</time>
      </trkpt>
      <trkpt lat="49.62384" lon="-1.65765">
        <ele>126.8</ele>
        <time>2020-06-14T18:37:06Z</time>
      </trkpt>
      <trkpt lat="49.62388" lon="-1.65756">
        <ele>126.5</ele>
        <time>2020-06-14T18:37:07Z</time>
      </trkpt>
      <trkpt lat="49.62392" lon="-1.65747">
        <ele>126.2</ele>
        <time>2020-06-14T18:37:08Z</time>
      </trkpt>
      <trkpt lat="49.62396" lon="-1.65737">
        <ele>125.9</ele>
        <time>2020-06-14T18:37:09Z</time>
      </trkpt>
      <trkpt lat="49.624" lon="-1.65727">
        <ele>125.6</ele>
        <time>2020-06-14T18:37:10Z</time>
      </trkpt>
      <trkpt lat="49.62405" lon="-1.65718">
        <ele>125.4</ele>
        <time>2020-06-14T18:37:11Z</time>
      </trkpt>
      <trkpt lat="49.6241" lon="-1.65709">
        <ele>125.2</ele>
        <time>2020-06-14T18:37:12Z</time>
      </trkpt>
      <trkpt lat="49.62415" lon="-1.65701">
        <ele>125</ele>
        <time>2020-06-14T18:37:13Z</time>
      </trkpt>
      <trkpt lat="49.62419" lon="-1.65692">
        <ele>124.8</ele>
        <time>2020-06-14T18:37:14Z</time>
      </trkpt>
      <trkpt lat="49.62424" lon="-1.65683">
        <ele>124.7</ele>
        <time>2020-06-14T18:37:15Z</time>
      </trkpt>
      <trkpt lat="49.62429" lon="-1.65675">
        <ele>124.5</ele>
        <time>2020-06-14T18:37:16Z</time>
      </trkpt>
      <trkpt lat="49.62433" lon="-1.65667">
        <ele>124.4</ele>
        <time>2020-06-14T18:37:17Z</time>
      </trkpt>
      <trkpt lat="49.62438" lon="-1.6566">
        <ele>124.3</ele>
        <time>2020-06-14T18:37:18Z</time>
      </trkpt>
      <trkpt lat="49.62442" lon="-1.65652">
        <ele>124.1</ele>
        <time>2020-06-14T18:37:19Z</time>
      </trkpt>
      <trkpt lat="49.62446" lon="-1.65644">
        <ele>124</ele>
        <time>2020-06-14T18:37:20Z</time>
      </trkpt>
      <trkpt lat="49.6245" lon="-1.65637">
        <ele>123.9</ele>
        <time>2020-06-14T18:37:21Z</time>
      </trkpt>
      <trkpt lat="49.62454" lon="-1.65631">
        <ele>123.7</ele>
        <time>2020-06-14T18:37:22Z</time>
      </trkpt>
      <trkpt lat="49.62457" lon="-1.65625">
        <ele>123.6</ele>
        <time>2020-06-14T18:37:23Z</time>
      </trkpt>
      <trkpt lat="49.62461" lon="-1.65621">
        <ele>123.4</ele>
        <time>2020-06-14T18:37:24Z</time>
      </trkpt>
      <trkpt lat="49.62465" lon="-1.65616">
        <ele>123.2</ele>
        <time>2020-06-14T18:37:25Z</time>
      </trkpt>
      <trkpt lat="49.62469" lon="-1.6561">
        <ele>123</ele>
        <time>2020-06-14T18:37:26Z</time>
      </trkpt>
      <trkpt lat="49.62473" lon="-1.65605">
        <ele>122.7</ele>
        <time>2020-06-14T18:37:27Z</time>
      </trkpt>
      <trkpt lat="49.62476" lon="-1.65599">
        <ele>122.4</ele>
        <time>2020-06-14T18:37:28Z</time>
      </trkpt>
      <trkpt lat="49.6248" lon="-1.65594">
        <ele>122.1</ele>
        <time>2020-06-14T18:37:29Z</time>
      </trkpt>
      <trkpt lat="49.62484" lon="-1.6559">
        <ele>121.7</ele>
        <time>2020-06-14T18:37:30Z</time>
      </trkpt>
      <trkpt lat="49.62488" lon="-1.65586">
        <ele>121.3</ele>
        <time>2020-06-14T18:37:31Z</time>
      </trkpt>
      <trkpt lat="49.62491" lon="-1.65581">
        <ele>121</ele>
        <time>2020-06-14T18:37:32Z</time>
      </trkpt>
      <trkpt lat="49.62495" lon="-1.65576">
        <ele>120.6</ele>
        <time>2020-06-14T18:37:33Z</time>
      </trkpt>
      <trkpt lat="49.62498" lon="-1.6557">
        <ele>120.2</ele>
        <time>2020-06-14T18:37:34Z</time>
      </trkpt>
      <trkpt lat="49.62501" lon="-1.65563">
        <ele>119.8</ele>
        <time>2020-06-14T18:37:35Z</time>
      </trkpt>
      <trkpt lat="49.62504" lon="-1.65556">
        <ele>119.3</ele>
        <time>2020-06-14T18:37:36Z</time>
      </trkpt>
      <trkpt lat="49.62508" lon="-1.65549">
        <ele>118.9</ele>
        <time>2020-06-14T18:37:37Z</time>
      </trkpt>
      <trkpt lat="49.62512" lon="-1.65543">
        <ele>118.4</ele>
        <time>2020-06-14T18:37:38Z</time>
      </trkpt>
      <trkpt lat="49.62516" lon="-1.65538">
        <ele>118</ele>
        <time>2020-06-14T18:37:39Z</time>
      </trkpt>
      <trkpt lat="49.62519" lon="-1.65532">
        <ele>117.6</ele>
        <time>2020-06-14T18:37:40Z</time>
      </trkpt>
      <trkpt lat="49.62523" lon="-1.65525">
        <ele>117.2</ele>
        <time>2020-06-14T18:37:41Z</time>
      </trkpt>
      <trkpt lat="49.62526" lon="-1.65517">
        <ele>116.7</ele>
        <time>2020-06-14T18:37:42Z</time>
      </trkpt>
      <trkpt lat="49.6253" lon="-1.65509">
        <ele>116.2</ele>
        <time>2020-06-14T18:37:43Z</time>
      </trkpt>
      <trkpt lat="49.62534" lon="-1.65501">
        <ele>115.8</ele>
        <time>2020-06-14T18:37:44Z</time>
      </trkpt>
      <trkpt lat="49.62539" lon="-1.65492">
        <ele>115.3</ele>
        <time>2020-06-14T18:37:45Z</time>
      </trkpt>
      <trkpt lat="49.62544" lon="-1.65484">
        <ele>114.9</ele>
        <time>2020-06-14T18:37:46Z</time>
      </trkpt>
      <trkpt lat="49.62548" lon="-1.65476">
        <ele>114.5</ele>
        <time>2020-06-14T18:37:47Z</time>
      </trkpt>
      <trkpt lat="49.62552" lon="-1.65469">
        <ele>114.2</ele>
        <time>2020-06-14T18:37:48Z</time>
      </trkpt>
      <trkpt lat="49.62555" lon="-1.65464">
        <ele>113.8</ele>
        <time>2020-06-14T18:37:49Z</time>
      </trkpt>
      <trkpt lat="49.62559" lon="-1.65459">
        <ele>113.5</ele>
        <time>2020-06-14T18:37:50Z</time>
      </trkpt>
      <trkpt lat="49.62562" lon="-1.65454">
        <ele>113.2</ele>
        <time>2020-06-14T18:37:51Z</time>
      </trkpt>
      <trkpt lat="49.62566" lon="-1.65448">
        <ele>112.9</ele>
        <time>2020-06-14T18:37:52Z</time>
      </trkpt>
      <trkpt lat="49.6257" lon="-1.6544">
        <ele>112.5</ele>
        <time>2020-06-14T18:37:53Z</time>
      </trkpt>
      <trkpt lat="49.62573" lon="-1.65431">
        <ele>112</ele>
        <time>2020-06-14T18:37:54Z</time>
      </trkpt>
      <trkpt lat="49.62577" lon="-1.65422">
        <ele>111.5</ele>
        <time>2020-06-14T18:37:55Z</time>
      </trkpt>
      <trkpt lat="49.62581" lon="-1.65414">
        <ele>111.1</ele>
        <time>2020-06-14T18:37:56Z</time>
      </trkpt>
      <trkpt lat="49.62584" lon="-1.65406">
        <ele>110.6</ele>
        <time>2020-06-14T18:37:57Z</time>
      </trkpt>
      <trkpt lat="49.62588" lon="-1.65397">
        <ele>110</ele>
        <time>2020-06-14T18:37:58Z</time>
      </trkpt>
      <trkpt lat="49.62593" lon="-1.65388">
        <ele>109.4</ele>
        <time>2020-06-14T18:37:59Z</time>
      </trkpt>
      <trkpt lat="49.62598" lon="-1.65379">
        <ele>108.8</ele>
        <time>2020-06-14T18:38:00Z</time>
      </trkpt>
      <trkpt lat="49.62603" lon="-1.6537">
        <ele>108.1</ele>
        <time>2020-06-14T18:38:01Z</time>
      </trkpt>
      <trkpt lat="49.62609" lon="-1.65361">
        <ele>107.5</ele>
        <time>2020-06-14T18:38:02Z</time>
      </trkpt>
      <trkpt lat="49.62614" lon="-1.6535">
        <ele>106.7</ele>
        <time>2020-06-14T18:38:03Z</time>
      </trkpt>
      <trkpt lat="49.62621" lon="-1.65339">
        <ele>105.5</ele>
        <time>2020-06-14T18:38:04Z</time>
      </trkpt>
      <trkpt lat="49.62629" lon="-1.65327">
        <ele>104.1</ele>
        <time>2020-06-14T18:38:05Z</time>
      </trkpt>
      <trkpt lat="49.62636" lon="-1.65315">
        <ele>102.7</ele>
        <time>2020-06-14T18:38:06Z</time>
      </trkpt>
      <trkpt lat="49.62642" lon="-1.65303">
        <ele>101.6</ele>
        <time>2020-06-14T18:38:07Z</time>
      </trkpt>
      <trkpt lat="49.62649" lon="-1.65292">
        <ele>100.7</ele>
        <time>2020-06-14T18:38:08Z</time>
      </trkpt>
      <trkpt lat="49.62654" lon="-1.65283">
        <ele>100</ele>
        <time>2020-06-14T18:38:09Z</time>
      </trkpt>
      <trkpt lat="49.62659" lon="-1.65274">
        <ele>99.3</ele>
        <time>2020-06-14T18:38:10Z</time>
      </trkpt>
      <trkpt lat="49.62665" lon="-1.65265">
        <ele>98.4</ele>
        <time>2020-06-14T18:38:11Z</time>
      </trkpt>
      <trkpt lat="49.62671" lon="-1.65255">
        <ele>97.6</ele>
        <time>2020-06-14T18:38:12Z</time>
      </trkpt>
      <trkpt lat="49.62675" lon="-1.65244">
        <ele>96.9</ele>
        <time>2020-06-14T18:38:13Z</time>
      </trkpt>
      <trkpt lat="49.6268" lon="-1.65233">
        <ele>96.3</ele>
        <time>2020-06-14T18:38:14Z</time>
      </trkpt>
      <trkpt lat="49.62685" lon="-1.65223">
        <ele>95.9</ele>
        <time>2020-06-14T18:38:15Z</time>
      </trkpt>
      <trkpt lat="49.62689" lon="-1.65213">
        <ele>95.5</ele>
        <time>2020-06-14T18:38:16Z</time>
      </trkpt>
      <trkpt lat="49.62693" lon="-1.65203">
        <ele>95.1</ele>
        <time>2020-06-14T18:38:17Z</time>
      </trkpt>
      <trkpt lat="49.62698" lon="-1.65191">
        <ele>94.7</ele>
        <time>2020-06-14T18:38:18Z</time>
      </trkpt>
      <trkpt lat="49.62702" lon="-1.65179">
        <ele>94.2</ele>
        <time>2020-06-14T18:38:19Z</time>
      </trkpt>
      <trkpt lat="49.62707" lon="-1.65167">
        <ele>93.6</ele>
        <time>2020-06-14T18:38:20Z</time>
      </trkpt>
      <trkpt lat="49.62711" lon="-1.65156">
        <ele>93.1</ele>
        <time>2020-06-14T18:38:21Z</time>
      </trkpt>
      <trkpt lat="49.62716" lon="-1.65144">
        <ele>92.7</ele>
        <time>2020-06-14T18:38:22Z</time>
      </trkpt>
      <trkpt lat="49.62721" lon="-1.65134">
        <ele>92.4</ele>
        <time>2020-06-14T18:38:23Z</time>
      </trkpt>
      <trkpt lat="49.62726" lon="-1.65125">
        <ele>92.2</ele>
        <time>2020-06-14T18:38:24Z</time>
      </trkpt>
      <trkpt lat="49.62731" lon="-1.65117">
        <ele>91.9</ele>
        <time>2020-06-14T18:38:25Z</time>
      </trkpt>
      <trkpt lat="49.62735" lon="-1.65107">
        <ele>91.7</ele>
        <time>2020-06-14T18:38:26Z</time>
      </trkpt>
      <trkpt lat="49.6274" lon="-1.65097">
        <ele>91.5</ele>
        <time>2020-06-14T18:38:27Z</time>
      </trkpt>
      <trkpt lat="49.62744" lon="-1.65088">
        <ele>91.3</ele>
        <time>2020-06-14T18:38:28Z</time>
      </trkpt>
      <trkpt lat="49.62749" lon="-1.65078">
        <ele>91.1</ele>
        <time>2020-06-14T18:38:29Z</time>
      </trkpt>
      <trkpt lat="49.62753" lon="-1.65069">
        <ele>90.9</ele>
        <time>2020-06-14T18:38:30Z</time>
      </trkpt>
      <trkpt lat="49.62758" lon="-1.65058">
        <ele>90.6</ele>
        <time>2020-06-14T18:38:31Z</time>
      </trkpt>
      <trkpt lat="49.62762" lon="-1.65049">
        <ele>90.4</ele>
        <time>2020-06-14T18:38:32Z</time>
      </trkpt>
      <trkpt lat="49.62766" lon="-1.65041">
        <ele>90.3</ele>
        <time>2020-06-14T18:38:33Z</time>
      </trkpt>
      <trkpt lat="49.62771" lon="-1.65034">
        <ele>90.1</ele>
        <time>2020-06-14T18:38:34Z</time>
      </trkpt>
      <trkpt lat="49.62776" lon="-1.65027">
        <ele>90</ele>
        <time>2020-06-14T18:38:35Z</time>
      </trkpt>
      <trkpt lat="49.62781" lon="-1.6502">
        <ele>90</ele>
        <time>2020-06-14T18:38:36Z</time>
      </trkpt>
      <trkpt lat="49.62786" lon="-1.65014">
        <ele>89.9</ele>
        <time>2020-06-14T18:38:37Z</time>
      </trkpt>
      <trkpt lat="49.62792" lon="-1.65007">
        <ele>89.8</ele>
        <time>2020-06-14T18:38:38Z</time>
      </trkpt>
      <trkpt lat="49.62798" lon="-1.65001">
        <ele>89.8</ele>
        <time>2020-06-14T18:38:39Z</time>
      </trkpt>
      <trkpt lat="49.62803" lon="-1.64993">
        <ele>89.5</ele>
        <time>2020-06-14T18:38:40Z</time>
      </trkpt>
      <trkpt lat="49.62808" lon="-1.64986">
        <ele>89.3</ele>
        <time>2020-06-14T18:38:41Z</time>
      </trkpt>
      <trkpt lat="49.62813" lon="-1.64981">
        <ele>89.1</ele>
        <time>2020-06-14T18:38:42Z</time>
      </trkpt>
      <trkpt lat="49.62817" lon="-1.64976">
        <ele>88.9</ele>
        <time>2020-06-14T18:38:43Z</time>
      </trkpt>
      <trkpt lat="49.6282" lon="-1.64973">
        <ele>88.8</ele>
        <time>2020-06-14T18:38:44Z</time>
      </trkpt>
      <trkpt lat="49.62822" lon="-1.64969">
        <ele>88.6</ele>
        <time>2020-06-14T18:38:45Z</time>
      </trkpt>
      <trkpt lat="49.62825" lon="-1.64964">
        <ele>88.4</ele>
        <time>2020-06-14T18:38:46Z</time>
      </trkpt>
      <trkpt lat="49.62829" lon="-1.64959">
        <ele>87.8</ele>
        <time>2020-06-14T18:38:47Z</time>
      </trkpt>
      <trkpt lat="49.62833" lon="-1.64954">
        <ele>87.9</ele>
        <time>2020-06-14T18:38:48Z</time>
      </trkpt>
      <trkpt lat="49.62835" lon="-1.64946">
        <ele>88</ele>
        <time>2020-06-14T18:38:49Z</time>
      </trkpt>
      <trkpt lat="49.62835" lon="-1.64939">
        <ele>88.1</ele>
        <time>2020-06-14T18:38:50Z</time>
      </trkpt>
      <trkpt lat="49.62836" lon="-1.64931">
        <ele>88.1</ele>
        <time>2020-06-14T18:38:51Z</time>
      </trkpt>
      <trkpt lat="49.62838" lon="-1.64925">
        <ele>88.2</ele>
        <time>2020-06-14T18:38:52Z</time>
      </trkpt>
      <trkpt lat="49.62839" lon="-1.64919">
        <ele>88.3</ele>
        <time>2020-06-14T18:38:53Z</time>
      </trkpt>
      <trkpt lat="49.62841" lon="-1.64914">
        <ele>88.3</ele>
        <time>2020-06-14T18:38:54Z</time>
      </trkpt>
      <trkpt lat="49.62843" lon="-1.6491">
        <ele>88.4</ele>
        <time>2020-06-14T18:38:55Z</time>
      </trkpt>
      <trkpt lat="49.62844" lon="-1.64904">
        <ele>88.4</ele>
        <time>2020-06-14T18:38:56Z</time>
      </trkpt>
      <trkpt lat="49.62846" lon="-1.649">
        <ele>88.3</ele>
        <time>2020-06-14T18:38:57Z</time>
      </trkpt>
      <trkpt lat="49.62849" lon="-1.64896">
        <ele>88.2</ele>
        <time>2020-06-14T18:38:58Z</time>
      </trkpt>
      <trkpt lat="49.62851" lon="-1.6489">
        <ele>88</ele>
        <time>2020-06-14T18:38:59Z</time>
      </trkpt>
      <trkpt lat="49.62854" lon="-1.64885">
        <ele>87.8</ele>
        <time>2020-06-14T18:39:00Z</time>
      </trkpt>
      <trkpt lat="49.62857" lon="-1.64878">
        <ele>87.6</ele>
        <time>2020-06-14T18:39:01Z</time>
      </trkpt>
      <trkpt lat="49.62859" lon="-1.6487">
        <ele>87.4</ele>
        <time>2020-06-14T18:39:02Z</time>
      </trkpt>
      <trkpt lat="49.62863" lon="-1.64864">
        <ele>87.1</ele>
        <time>2020-06-14T18:39:03Z</time>
      </trkpt>
      <trkpt lat="49.62866" lon="-1.64857">
        <ele>86.9</ele>
        <time>2020-06-14T18:39:04Z</time>
      </trkpt>
      <trkpt lat="49.6287" lon="-1.6485">
        <ele>86.7</ele>
        <time>2020-06-14T18:39:05Z</time>
      </trkpt>
      <trkpt lat="49.62874" lon="-1.64844">
        <ele>86.4</ele>
        <time>2020-06-14T18:39:06Z</time>
      </trkpt>
      <trkpt lat="49.62878" lon="-1.64837">
        <ele>86.2</ele>
        <time>2020-06-14T18:39:07Z</time>
      </trkpt>
      <trkpt lat="49.62882" lon="-1.6483">
        <ele>85.9</ele>
        <time>2020-06-14T18:39:08Z</time>
      </trkpt>
      <trkpt lat="49.62885" lon="-1.64822">
        <ele>85.6</ele>
        <time>2020-06-14T18:39:09Z</time>
      </trkpt>
      <trkpt lat="49.62889" lon="-1.64814">
        <ele>85.4</ele>
        <time>2020-06-14T18:39:10Z</time>
      </trkpt>
      <trkpt lat="49.62893" lon="-1.64806">
        <ele>85.1</ele>
        <time>2020-06-14T18:39:11Z</time>
      </trkpt>
      <trkpt lat="49.62897" lon="-1.64798">
        <ele>84.8</ele>
        <time>2020-06-14T18:39:12Z</time>
      </trkpt>
      <trkpt lat="49.629" lon="-1.6479">
        <ele>84.5</ele>
        <time>2020-06-14T18:39:13Z</time>
      </trkpt>
      <trkpt lat="49.62904" lon="-1.64782">
        <ele>84.2</ele>
        <time>2020-06-14T18:39:14Z</time>
      </trkpt>
      <trkpt lat="49.62908" lon="-1.64774">
        <ele>84</ele>
        <time>2020-06-14T18:39:15Z</time>
      </trkpt>
      <trkpt lat="49.62911" lon="-1.64766">
        <ele>83.8</ele>
        <time>2020-06-14T18:39:16Z</time>
      </trkpt>
      <trkpt lat="49.62915" lon="-1.64759">
        <ele>83.7</ele>
        <time>2020-06-14T18:39:17Z</time>
      </trkpt>
      <trkpt lat="49.62918" lon="-1.64751">
        <ele>83.5</ele>
        <time>2020-06-14T18:39:18Z</time>
      </trkpt>
      <trkpt lat="49.62921" lon="-1.64745">
        <ele>83.4</ele>
        <time>2020-06-14T18:39:19Z</time>
      </trkpt>
      <trkpt lat="49.62924" lon="-1.64738">
        <ele>83.3</ele>
        <time>2020-06-14T18:39:20Z</time>
      </trkpt>
      <trkpt lat="49.62927" lon="-1.64731">
        <ele>83.2</ele>
        <time>2020-06-14T18:39:21Z</time>
      </trkpt>
      <trkpt lat="49.6293" lon="-1.64724">
        <ele>83.2</ele>
        <time>2020-06-14T18:39:22Z</time>
      </trkpt>
      <trkpt lat="49.62933" lon="-1.64716">
        <ele>83.1</ele>
        <time>2020-06-14T18:39:23Z</time>
      </trkpt>
      <trkpt lat="49.62937" lon="-1.6471">
        <ele>82.9</ele>
        <time>2020-06-14T18:39:24Z</time>
      </trkpt>
      <trkpt lat="49.6294" lon="-1.64704">
        <ele>82.8</ele>
        <time>2020-06-14T18:39:25Z</time>
      </trkpt>
      <trkpt lat="49.62943" lon="-1.64697">
        <ele>82.6</ele>
        <time>2020-06-14T18:39:26Z</time>
      </trkpt>
      <trkpt lat="49.62947" lon="-1.6469">
        <ele>82.5</ele>
        <time>2020-06-14T18:39:27Z</time>
      </trkpt>
      <trkpt lat="49.6295" lon="-1.64683">
        <ele>82.3</ele>
        <time>2020-06-14T18:39:28Z</time>
      </trkpt>
      <trkpt lat="49.62954" lon="-1.64676">
        <ele>82.2</ele>
        <time>2020-06-14T18:39:29Z</time>
      </trkpt>
      <trkpt lat="49.62957" lon="-1.64667">
        <ele>82</ele>
        <time>2020-06-14T18:39:30Z</time>
      </trkpt>
      <trkpt lat="49.62961" lon="-1.64658">
        <ele>81.9</ele>
        <time>2020-06-14T18:39:31Z</time>
      </trkpt>
      <trkpt lat="49.62965" lon="-1.6465">
        <ele>81.8</ele>
        <time>2020-06-14T18:39:32Z</time>
      </trkpt>
      <trkpt lat="49.62968" lon="-1.64642">
        <ele>81.8</ele>
        <time>2020-06-14T18:39:33Z</time>
      </trkpt>
      <trkpt lat="49.62972" lon="-1.64634">
        <ele>81.7</ele>
        <time>2020-06-14T18:39:34Z</time>
      </trkpt>
      <trkpt lat="49.62976" lon="-1.64626">
        <ele>81.6</ele>
        <time>2020-06-14T18:39:35Z</time>
      </trkpt>
      <trkpt lat="49.62979" lon="-1.64618">
        <ele>81.5</ele>
        <time>2020-06-14T18:39:36Z</time>
      </trkpt>
      <trkpt lat="49.62983" lon="-1.64609">
        <ele>81.5</ele>
        <time>2020-06-14T18:39:37Z</time>
      </trkpt>
      <trkpt lat="49.62986" lon="-1.64601">
        <ele>81.4</ele>
        <time>2020-06-14T18:39:38Z</time>
      </trkpt>
      <trkpt lat="49.6299" lon="-1.64592">
        <ele>81.3</ele>
        <time>2020-06-14T18:39:39Z</time>
      </trkpt>
      <trkpt lat="49.62994" lon="-1.64584">
        <ele>81.2</ele>
        <time>2020-06-14T18:39:40Z</time>
      </trkpt>
      <trkpt lat="49.62997" lon="-1.64577">
        <ele>81.1</ele>
        <time>2020-06-14T18:39:41Z</time>
      </trkpt>
      <trkpt lat="49.63001" lon="-1.64569">
        <ele>81</ele>
        <time>2020-06-14T18:39:42Z</time>
      </trkpt>
      <trkpt lat="49.63005" lon="-1.64562">
        <ele>80.9</ele>
        <time>2020-06-14T18:39:43Z</time>
      </trkpt>
      <trkpt lat="49.63009" lon="-1.64554">
        <ele>80.9</ele>
        <time>2020-06-14T18:39:44Z</time>
      </trkpt>
      <trkpt lat="49.63012" lon="-1.64547">
        <ele>80.8</ele>
        <time>2020-06-14T18:39:45Z</time>
      </trkpt>
      <trkpt lat="49.63015" lon="-1.6454">
        <ele>80.8</ele>
        <time>2020-06-14T18:39:46Z</time>
      </trkpt>
      <trkpt lat="49.63019" lon="-1.64534">
        <ele>80.8</ele>
        <time>2020-06-14T18:39:47Z</time>
      </trkpt>
      <trkpt lat="49.63022" lon="-1.64526">
        <ele>80.8</ele>
        <time>2020-06-14T18:39:48Z</time>
      </trkpt>
      <trkpt lat="49.63025" lon="-1.64519">
        <ele>80.7</ele>
        <time>2020-06-14T18:39:49Z</time>
      </trkpt>
      <trkpt lat="49.63028" lon="-1.64513">
        <ele>80.7</ele>
        <time>2020-06-14T18:39:50Z</time>
      </trkpt>
      <trkpt lat="49.63031" lon="-1.64507">
        <ele>80.7</ele>
        <time>2020-06-14T18:39:51Z</time>
      </trkpt>
      <trkpt lat="49.63035" lon="-1.64501">
        <ele>80.7</ele>
        <time>2020-06-14T18:39:52Z</time>
      </trkpt>
      <trkpt lat="49.63038" lon="-1.64495">
        <ele>80.7</ele>
        <time>2020-06-14T18:39:53Z</time>
      </trkpt>
      <trkpt lat="49.63041" lon="-1.64489">
        <ele>80.7</ele>
        <time>2020-06-14T18:39:54Z</time>
      </trkpt>
      <trkpt lat="49.63043" lon="-1.64481">
        <ele>80.6</ele>
        <time>2020-06-14T18:39:55Z</time>
      </trkpt>
      <trkpt lat="49.63045" lon="-1.64475">
        <ele>80.6</ele>
        <time>2020-06-14T18:39:56Z</time>
      </trkpt>
      <trkpt lat="49.63048" lon="-1.6447">
        <ele>80.6</ele>
        <time>2020-06-14T18:39:57Z</time>
      </trkpt>
      <trkpt lat="49.63051" lon="-1.64465">
        <ele>80.6</ele>
        <time>2020-06-14T18:39:58Z</time>
      </trkpt>
      <trkpt lat="49.63053" lon="-1.64461">
        <ele>80.5</ele>
        <time>2020-06-14T18:39:59Z</time>
      </trkpt>
      <trkpt lat="49.63055" lon="-1.64455">
        <ele>80.5</ele>
        <time>2020-06-14T18:40:00Z</time>
      </trkpt>
      <trkpt lat="49.63057" lon="-1.6445">
        <ele>80.4</ele>
        <time>2020-06-14T18:40:01Z</time>
      </trkpt>
      <trkpt lat="49.63059" lon="-1.64445">
        <ele>80.4</ele>
        <time>2020-06-14T18:40:02Z</time>
      </trkpt>
      <trkpt lat="49.63062" lon="-1.64441">
        <ele>80.3</ele>
        <time>2020-06-14T18:40:03Z</time>
      </trkpt>
      <trkpt lat="49.63066" lon="-1.64437">
        <ele>80.2</ele>
        <time>2020-06-14T18:40:04Z</time>
      </trkpt>
      <trkpt lat="49.63069" lon="-1.64432">
        <ele>80.2</ele>
        <time>2020-06-14T18:40:05Z</time>
      </trkpt>
      <trkpt lat="49.63072" lon="-1.64427">
        <ele>80.1</ele>
        <time>2020-06-14T18:40:06Z</time>
      </trkpt>
      <trkpt lat="49.63074" lon="-1.64422">
        <ele>80.1</ele>
        <time>2020-06-14T18:40:07Z</time>
      </trkpt>
      <trkpt lat="49.63077" lon="-1.64417">
        <ele>80</ele>
        <time>2020-06-14T18:40:08Z</time>
      </trkpt>
      <trkpt lat="49.63079" lon="-1.6441">
        <ele>79.9</ele>
        <time>2020-06-14T18:40:09Z</time>
      </trkpt>
      <trkpt lat="49.63082" lon="-1.64405">
        <ele>79.8</ele>
        <time>2020-06-14T18:40:10Z</time>
      </trkpt>
      <trkpt lat="49.63085" lon="-1.64399">
        <ele>79.7</ele>
        <time>2020-06-14T18:40:11Z</time>
      </trkpt>
      <trkpt lat="49.63087" lon="-1.64392">
        <ele>79.7</ele>
        <time>2020-06-14T18:40:12Z</time>
      </trkpt>
      <trkpt lat="49.63089" lon="-1.64386">
        <ele>79.6</ele>
        <time>2020-06-14T18:40:13Z</time>
      </trkpt>
      <trkpt lat="49.63093" lon="-1.6438">
        <ele>79.5</ele>
        <time>2020-06-14T18:40:14Z</time>
      </trkpt>
      <trkpt lat="49.63096" lon="-1.64374">
        <ele>79.4</ele>
        <time>2020-06-14T18:40:15Z</time>
      </trkpt>
      <trkpt lat="49.63099" lon="-1.64367">
        <ele>79.2</ele>
        <time>2020-06-14T18:40:16Z</time>
      </trkpt>
      <trkpt lat="49.63102" lon="-1.6436">
        <ele>79.1</ele>
        <time>2020-06-14T18:40:17Z</time>
      </trkpt>
      <trkpt lat="49.63104" lon="-1.64353">
        <ele>79</ele>
        <time>2020-06-14T18:40:18Z</time>
      </trkpt>
      <trkpt lat="49.63107" lon="-1.64346">
        <ele>78.9</ele>
        <time>2020-06-14T18:40:19Z</time>
      </trkpt>
      <trkpt lat="49.63109" lon="-1.64339">
        <ele>78.8</ele>
        <time>2020-06-14T18:40:20Z</time>
      </trkpt>
      <trkpt lat="49.63113" lon="-1.64333">
        <ele>78.7</ele>
        <time>2020-06-14T18:40:21Z</time>
      </trkpt>
      <trkpt lat="49.63116" lon="-1.64328">
        <ele>78.6</ele>
        <time>2020-06-14T18:40:22Z</time>
      </trkpt>
      <trkpt lat="49.6312" lon="-1.64322">
        <ele>78.5</ele>
        <time>2020-06-14T18:40:23Z</time>
      </trkpt>
      <trkpt lat="49.63124" lon="-1.64316">
        <ele>78.4</ele>
        <time>2020-06-14T18:40:24Z</time>
      </trkpt>
      <trkpt lat="49.63127" lon="-1.6431">
        <ele>78.4</ele>
        <time>2020-06-14T18:40:25Z</time>
      </trkpt>
      <trkpt lat="49.63131" lon="-1.64303">
        <ele>78.3</ele>
        <time>2020-06-14T18:40:26Z</time>
      </trkpt>
      <trkpt lat="49.63133" lon="-1.64296">
        <ele>78.3</ele>
        <time>2020-06-14T18:40:27Z</time>
      </trkpt>
      <trkpt lat="49.63136" lon="-1.64289">
        <ele>78.2</ele>
        <time>2020-06-14T18:40:28Z</time>
      </trkpt>
      <trkpt lat="49.63138" lon="-1.64281">
        <ele>78.2</ele>
        <time>2020-06-14T18:40:29Z</time>
      </trkpt>
      <trkpt lat="49.63141" lon="-1.64274">
        <ele>78.2</ele>
        <time>2020-06-14T18:40:30Z</time>
      </trkpt>
      <trkpt lat="49.63144" lon="-1.64267">
        <ele>78.1</ele>
        <time>2020-06-14T18:40:31Z</time>
      </trkpt>
      <trkpt lat="49.63147" lon="-1.6426">
        <ele>78.1</ele>
        <time>2020-06-14T18:40:32Z</time>
      </trkpt>
      <trkpt lat="49.6315" lon="-1.64252">
        <ele>78</ele>
        <time>2020-06-14T18:40:33Z</time>
      </trkpt>
      <trkpt lat="49.63153" lon="-1.64246">
        <ele>78</ele>
        <time>2020-06-14T18:40:34Z</time>
      </trkpt>
      <trkpt lat="49.63156" lon="-1.64239">
        <ele>77.9</ele>
        <time>2020-06-14T18:40:35Z</time>
      </trkpt>
      <trkpt lat="49.63158" lon="-1.64232">
        <ele>77.9</ele>
        <time>2020-06-14T18:40:36Z</time>
      </trkpt>
      <trkpt lat="49.63161" lon="-1.64225">
        <ele>77.9</ele>
        <time>2020-06-14T18:40:37Z</time>
      </trkpt>
      <trkpt lat="49.63164" lon="-1.64218">
        <ele>77.8</ele>
        <time>2020-06-14T18:40:38Z</time>
      </trkpt>
      <trkpt lat="49.63166" lon="-1.64209">
        <ele>77.7</ele>
        <time>2020-06-14T18:40:39Z</time>
      </trkpt>
      <trkpt lat="49.63169" lon="-1.64202">
        <ele>77.6</ele>
        <time>2020-06-14T18:40:40Z</time>
      </trkpt>
      <trkpt lat="49.63171" lon="-1.64195">
        <ele>77.5</ele>
        <time>2020-06-14T18:40:41Z</time>
      </trkpt>
      <trkpt lat="49.63175" lon="-1.64188">
        <ele>77.4</ele>
        <time>2020-06-14T18:40:42Z</time>
      </trkpt>
      <trkpt lat="49.63177" lon="-1.64181">
        <ele>77.3</ele>
        <time>2020-06-14T18:40:43Z</time>
      </trkpt>
      <trkpt lat="49.6318" lon="-1.64175">
        <ele>77.3</ele>
        <time>2020-06-14T18:40:44Z</time>
      </trkpt>
      <trkpt lat="49.63182" lon="-1.64168">
        <ele>77.2</ele>
        <time>2020-06-14T18:40:45Z</time>
      </trkpt>
      <trkpt lat="49.63184" lon="-1.64162">
        <ele>77.1</ele>
        <time>2020-06-14T18:40:46Z</time>
      </trkpt>
      <trkpt lat="49.63185" lon="-1.64154">
        <ele>77.1</ele>
        <time>2020-06-14T18:40:47Z</time>
      </trkpt>
      <trkpt lat="49.63185" lon="-1.64146">
        <ele>77.1</ele>
        <time>2020-06-14T18:40:48Z</time>
      </trkpt>
      <trkpt lat="49.63186" lon="-1.64138">
        <ele>77</ele>
        <time>2020-06-14T18:40:49Z</time>
      </trkpt>
      <trkpt lat="49.63186" lon="-1.64131">
        <ele>76.9</ele>
        <time>2020-06-14T18:40:50Z</time>
      </trkpt>
      <trkpt lat="49.63187" lon="-1.64124">
        <ele>76.9</ele>
        <time>2020-06-14T18:40:51Z</time>
      </trkpt>
      <trkpt lat="49.63186" lon="-1.64117">
        <ele>76.8</ele>
        <time>2020-06-14T18:40:52Z</time>
      </trkpt>
      <trkpt lat="49.63187" lon="-1.64109">
        <ele>76.7</ele>
        <time>2020-06-14T18:40:53Z</time>
      </trkpt>
      <trkpt lat="49.63187" lon="-1.64101">
        <ele>76.6</ele>
        <time>2020-06-14T18:40:54Z</time>
      </trkpt>
      <trkpt lat="49.63188" lon="-1.64093">
        <ele>76.5</ele>
        <time>2020-06-14T18:40:55Z</time>
      </trkpt>
      <trkpt lat="49.63189" lon="-1.64085">
        <ele>76.5</ele>
        <time>2020-06-14T18:40:56Z</time>
      </trkpt>
      <trkpt lat="49.6319" lon="-1.64077">
        <ele>76.4</ele>
        <time>2020-06-14T18:40:57Z</time>
      </trkpt>
      <trkpt lat="49.6319" lon="-1.64068">
        <ele>76.4</ele>
        <time>2020-06-14T18:40:58Z</time>
      </trkpt>
      <trkpt lat="49.6319" lon="-1.6406">
        <ele>76.4</ele>
        <time>2020-06-14T18:40:59Z</time>
      </trkpt>
      <trkpt lat="49.63193" lon="-1.64053">
        <ele>76.4</ele>
        <time>2020-06-14T18:41:00Z</time>
      </trkpt>
      <trkpt lat="49.63195" lon="-1.64047">
        <ele>76.4</ele>
        <time>2020-06-14T18:41:01Z</time>
      </trkpt>
      <trkpt lat="49.63196" lon="-1.64039">
        <ele>76.4</ele>
        <time>2020-06-14T18:41:02Z</time>
      </trkpt>
      <trkpt lat="49.63199" lon="-1.64032">
        <ele>76.5</ele>
        <time>2020-06-14T18:41:03Z</time>
      </trkpt>
      <trkpt lat="49.63202" lon="-1.64026">
        <ele>76.5</ele>
        <time>2020-06-14T18:41:04Z</time>
      </trkpt>
      <trkpt lat="49.63204" lon="-1.6402">
        <ele>76.6</ele>
        <time>2020-06-14T18:41:05Z</time>
      </trkpt>
      <trkpt lat="49.63207" lon="-1.64013">
        <ele>76.6</ele>
        <time>2020-06-14T18:41:06Z</time>
      </trkpt>
      <trkpt lat="49.63209" lon="-1.64006">
        <ele>76.7</ele>
        <time>2020-06-14T18:41:07Z</time>
      </trkpt>
      <trkpt lat="49.63211" lon="-1.63999">
        <ele>76.8</ele>
        <time>2020-06-14T18:41:08Z</time>
      </trkpt>
      <trkpt lat="49.63214" lon="-1.63992">
        <ele>76.9</ele>
        <time>2020-06-14T18:41:09Z</time>
      </trkpt>
      <trkpt lat="49.63215" lon="-1.63985">
        <ele>77</ele>
        <time>2020-06-14T18:41:10Z</time>
      </trkpt>
      <trkpt lat="49.63218" lon="-1.63978">
        <ele>77.1</ele>
        <time>2020-06-14T18:41:11Z</time>
      </trkpt>
      <trkpt lat="49.6322" lon="-1.63972">
        <ele>77.2</ele>
        <time>2020-06-14T18:41:12Z</time>
      </trkpt>
      <trkpt lat="49.63223" lon="-1.63966">
        <ele>77.3</ele>
        <time>2020-06-14T18:41:13Z</time>
      </trkpt>
      <trkpt lat="49.63226" lon="-1.6396">
        <ele>77.3</ele>
        <time>2020-06-14T18:41:14Z</time>
      </trkpt>
      <trkpt lat="49.63228" lon="-1.63954">
        <ele>77.3</ele>
        <time>2020-06-14T18:41:15Z</time>
      </trkpt>
      <trkpt lat="49.6323" lon="-1.63948">
        <ele>77.3</ele>
        <time>2020-06-14T18:41:16Z</time>
      </trkpt>
      <trkpt lat="49.63233" lon="-1.63941">
        <ele>77.2</ele>
        <time>2020-06-14T18:41:17Z</time>
      </trkpt>
      <trkpt lat="49.63236" lon="-1.63936">
        <ele>77.1</ele>
        <time>2020-06-14T18:41:18Z</time>
      </trkpt>
      <trkpt lat="49.6324" lon="-1.6393">
        <ele>77</ele>
        <time>2020-06-14T18:41:19Z</time>
      </trkpt>
      <trkpt lat="49.63243" lon="-1.63925">
        <ele>76.8</ele>
        <time>2020-06-14T18:41:20Z</time>
      </trkpt>
      <trkpt lat="49.63245" lon="-1.63918">
        <ele>76.7</ele>
        <time>2020-06-14T18:41:21Z</time>
      </trkpt>
      <trkpt lat="49.63247" lon="-1.63911">
        <ele>76.5</ele>
        <time>2020-06-14T18:41:22Z</time>
      </trkpt>
      <trkpt lat="49.6325" lon="-1.63904">
        <ele>76.3</ele>
        <time>2020-06-14T18:41:23Z</time>
      </trkpt>
      <trkpt lat="49.63252" lon="-1.63898">
        <ele>76.1</ele>
        <time>2020-06-14T18:41:24Z</time>
      </trkpt>
      <trkpt lat="49.63254" lon="-1.63891">
        <ele>75.9</ele>
        <time>2020-06-14T18:41:25Z</time>
      </trkpt>
      <trkpt lat="49.63257" lon="-1.63885">
        <ele>75.6</ele>
        <time>2020-06-14T18:41:26Z</time>
      </trkpt>
      <trkpt lat="49.63261" lon="-1.63879">
        <ele>75.4</ele>
        <time>2020-06-14T18:41:27Z</time>
      </trkpt>
      <trkpt lat="49.63264" lon="-1.63873">
        <ele>75.2</ele>
        <time>2020-06-14T18:41:28Z</time>
      </trkpt>
      <trkpt lat="49.63267" lon="-1.63866">
        <ele>75</ele>
        <time>2020-06-14T18:41:29Z</time>
      </trkpt>
      <trkpt lat="49.6327" lon="-1.63859">
        <ele>74.7</ele>
        <time>2020-06-14T18:41:30Z</time>
      </trkpt>
      <trkpt lat="49.63273" lon="-1.63851">
        <ele>74.5</ele>
        <time>2020-06-14T18:41:31Z</time>
      </trkpt>
      <trkpt lat="49.63276" lon="-1.63844">
        <ele>74.2</ele>
        <time>2020-06-14T18:41:32Z</time>
      </trkpt>
      <trkpt lat="49.63279" lon="-1.63835">
        <ele>73.9</ele>
        <time>2020-06-14T18:41:33Z</time>
      </trkpt>
      <trkpt lat="49.63282" lon="-1.63828">
        <ele>73.7</ele>
        <time>2020-06-14T18:41:34Z</time>
      </trkpt>
      <trkpt lat="49.63285" lon="-1.6382">
        <ele>73.4</ele>
        <time>2020-06-14T18:41:35Z</time>
      </trkpt>
      <trkpt lat="49.63288" lon="-1.63812">
        <ele>73.2</ele>
        <time>2020-06-14T18:41:36Z</time>
      </trkpt>
      <trkpt lat="49.63293" lon="-1.63806">
        <ele>72.9</ele>
        <time>2020-06-14T18:41:37Z</time>
      </trkpt>
      <trkpt lat="49.63298" lon="-1.63799">
        <ele>72.7</ele>
        <time>2020-06-14T18:41:38Z</time>
      </trkpt>
      <trkpt lat="49.63302" lon="-1.63792">
        <ele>72.5</ele>
        <time>2020-06-14T18:41:39Z</time>
      </trkpt>
      <trkpt lat="49.63305" lon="-1.63784">
        <ele>72.2</ele>
        <time>2020-06-14T18:41:40Z</time>
      </trkpt>
      <trkpt lat="49.6331" lon="-1.63777">
        <ele>72</ele>
        <time>2020-06-14T18:41:41Z</time>
      </trkpt>
      <trkpt lat="49.63313" lon="-1.63771">
        <ele>71.8</ele>
        <time>2020-06-14T18:41:42Z</time>
      </trkpt>
      <trkpt lat="49.63317" lon="-1.63765">
        <ele>71.6</ele>
        <time>2020-06-14T18:41:43Z</time>
      </trkpt>
      <trkpt lat="49.63321" lon="-1.63758">
        <ele>71.3</ele>
        <time>2020-06-14T18:41:44Z</time>
      </trkpt>
      <trkpt lat="49.63325" lon="-1.63752">
        <ele>71</ele>
        <time>2020-06-14T18:41:45Z</time>
      </trkpt>
      <trkpt lat="49.63329" lon="-1.63745">
        <ele>70.8</ele>
        <time>2020-06-14T18:41:46Z</time>
      </trkpt>
      <trkpt lat="49.63332" lon="-1.63737">
        <ele>70.5</ele>
        <time>2020-06-14T18:41:47Z</time>
      </trkpt>
      <trkpt lat="49.63335" lon="-1.63729">
        <ele>70.2</ele>
        <time>2020-06-14T18:41:48Z</time>
      </trkpt>
      <trkpt lat="49.63338" lon="-1.63722">
        <ele>70</ele>
        <time>2020-06-14T18:41:49Z</time>
      </trkpt>
      <trkpt lat="49.63341" lon="-1.63714">
        <ele>69.7</ele>
        <time>2020-06-14T18:41:50Z</time>
      </trkpt>
      <trkpt lat="49.63345" lon="-1.63706">
        <ele>69.4</ele>
        <time>2020-06-14T18:41:51Z</time>
      </trkpt>
      <trkpt lat="49.63348" lon="-1.63699">
        <ele>69.1</ele>
        <time>2020-06-14T18:41:52Z</time>
      </trkpt>
      <trkpt lat="49.63351" lon="-1.63693">
        <ele>69</ele>
        <time>2020-06-14T18:41:53Z</time>
      </trkpt>
      <trkpt lat="49.63354" lon="-1.63686">
        <ele>69</ele>
        <time>2020-06-14T18:41:54Z</time>
      </trkpt>
      <trkpt lat="49.63357" lon="-1.63681">
        <ele>68.9</ele>
        <time>2020-06-14T18:41:55Z</time>
      </trkpt>
      <trkpt lat="49.63358" lon="-1.63675">
        <ele>68.9</ele>
        <time>2020-06-14T18:41:56Z</time>
      </trkpt>
      <trkpt lat="49.63357" lon="-1.6367">
        <ele>68.8</ele>
        <time>2020-06-14T18:41:57Z</time>
      </trkpt>
      <trkpt lat="49.63356" lon="-1.63668">
        <ele>68.8</ele>
        <time>2020-06-14T18:41:58Z</time>
      </trkpt>
      <trkpt lat="49.63357" lon="-1.63663">
        <ele>68.8</ele>
        <time>2020-06-14T18:41:59Z</time>
      </trkpt>
      <trkpt lat="49.63357" lon="-1.63661">
        <ele>68.5</ele>
        <time>2020-06-14T18:42:00Z</time>
      </trkpt>
      <trkpt lat="49.63358" lon="-1.63657">
        <ele>68.4</ele>
        <time>2020-06-14T18:42:01Z</time>
      </trkpt>
      <trkpt lat="49.63361" lon="-1.63653">
        <ele>68.2</ele>
        <time>2020-06-14T18:42:02Z</time>
      </trkpt>
      <trkpt lat="49.63363" lon="-1.63649">
        <ele>68</ele>
        <time>2020-06-14T18:42:03Z</time>
      </trkpt>
      <trkpt lat="49.63366" lon="-1.63646">
        <ele>67.8</ele>
        <time>2020-06-14T18:42:04Z</time>
      </trkpt>
      <trkpt lat="49.6337" lon="-1.63643">
        <ele>67.6</ele>
        <time>2020-06-14T18:42:05Z</time>
      </trkpt>
      <trkpt lat="49.63374" lon="-1.63639">
        <ele>67.4</ele>
        <time>2020-06-14T18:42:06Z</time>
      </trkpt>
      <trkpt lat="49.63377" lon="-1.63634">
        <ele>67.1</ele>
        <time>2020-06-14T18:42:07Z</time>
      </trkpt>
      <trkpt lat="49.63381" lon="-1.63631">
        <ele>66.9</ele>
        <time>2020-06-14T18:42:08Z</time>
      </trkpt>
      <trkpt lat="49.63385" lon="-1.63629">
        <ele>66.7</ele>
        <time>2020-06-14T18:42:09Z</time>
      </trkpt>
      <trkpt lat="49.63389" lon="-1.63626">
        <ele>66.5</ele>
        <time>2020-06-14T18:42:10Z</time>
      </trkpt>
      <trkpt lat="49.63392" lon="-1.63622">
        <ele>66.3</ele>
        <time>2020-06-14T18:42:11Z</time>
      </trkpt>
      <trkpt lat="49.63395" lon="-1.63618">
        <ele>66.1</ele>
        <time>2020-06-14T18:42:12Z</time>
      </trkpt>
      <trkpt lat="49.63398" lon="-1.63613">
        <ele>65.8</ele>
        <time>2020-06-14T18:42:13Z</time>
      </trkpt>
      <trkpt lat="49.63402" lon="-1.63608">
        <ele>65.5</ele>
        <time>2020-06-14T18:42:14Z</time>
      </trkpt>
      <trkpt lat="49.63407" lon="-1.63604">
        <ele>65.2</ele>
        <time>2020-06-14T18:42:15Z</time>
      </trkpt>
      <trkpt lat="49.63412" lon="-1.636">
        <ele>64.8</ele>
        <time>2020-06-14T18:42:16Z</time>
      </trkpt>
      <trkpt lat="49.63417" lon="-1.63595">
        <ele>64.5</ele>
        <time>2020-06-14T18:42:17Z</time>
      </trkpt>
      <trkpt lat="49.63422" lon="-1.63589">
        <ele>64.1</ele>
        <time>2020-06-14T18:42:18Z</time>
      </trkpt>
      <trkpt lat="49.63428" lon="-1.63585">
        <ele>63.8</ele>
        <time>2020-06-14T18:42:19Z</time>
      </trkpt>
      <trkpt lat="49.63434" lon="-1.63581">
        <ele>63.4</ele>
        <time>2020-06-14T18:42:20Z</time>
      </trkpt>
      <trkpt lat="49.6344" lon="-1.63576">
        <ele>63</ele>
        <time>2020-06-14T18:42:21Z</time>
      </trkpt>
      <trkpt lat="49.63446" lon="-1.63571">
        <ele>62.4</ele>
        <time>2020-06-14T18:42:22Z</time>
      </trkpt>
      <trkpt lat="49.63452" lon="-1.63566">
        <ele>62.1</ele>
        <time>2020-06-14T18:42:23Z</time>
      </trkpt>
      <trkpt lat="49.63458" lon="-1.63562">
        <ele>61.8</ele>
        <time>2020-06-14T18:42:24Z</time>
      </trkpt>
      <trkpt lat="49.63464" lon="-1.63558">
        <ele>61.5</ele>
        <time>2020-06-14T18:42:25Z</time>
      </trkpt>
      <trkpt lat="49.6347" lon="-1.63558">
        <ele>61.2</ele>
        <time>2020-06-14T18:42:26Z</time>
      </trkpt>
      <trkpt lat="49.63476" lon="-1.63559">
        <ele>61</ele>
        <time>2020-06-14T18:42:27Z</time>
      </trkpt>
      <trkpt lat="49.63482" lon="-1.63562">
        <ele>60.8</ele>
        <time>2020-06-14T18:42:28Z</time>
      </trkpt>
      <trkpt lat="49.63487" lon="-1.63564">
        <ele>60.5</ele>
        <time>2020-06-14T18:42:29Z</time>
      </trkpt>
      <trkpt lat="49.63491" lon="-1.63566">
        <ele>60.4</ele>
        <time>2020-06-14T18:42:30Z</time>
      </trkpt>
      <trkpt lat="49.63495" lon="-1.63569">
        <ele>60.2</ele>
        <time>2020-06-14T18:42:31Z</time>
      </trkpt>
      <trkpt lat="49.63498" lon="-1.63572">
        <ele>60</ele>
        <time>2020-06-14T18:42:32Z</time>
      </trkpt>
      <trkpt lat="49.63501" lon="-1.63575">
        <ele>59.9</ele>
        <time>2020-06-14T18:42:33Z</time>
      </trkpt>
      <trkpt lat="49.63504" lon="-1.63576">
        <ele>59.7</ele>
        <time>2020-06-14T18:42:34Z</time>
      </trkpt>
      <trkpt lat="49.63507" lon="-1.6358">
        <ele>59.6</ele>
        <time>2020-06-14T18:42:35Z</time>
      </trkpt>
      <trkpt lat="49.63509" lon="-1.63583">
        <ele>59.6</ele>
        <time>2020-06-14T18:42:36Z</time>
      </trkpt>
      <trkpt lat="49.63512" lon="-1.63586">
        <ele>59.5</ele>
        <time>2020-06-14T18:42:37Z</time>
      </trkpt>
      <trkpt lat="49.63515" lon="-1.63587">
        <ele>59.4</ele>
        <time>2020-06-14T18:42:38Z</time>
      </trkpt>
      <trkpt lat="49.63518" lon="-1.63588">
        <ele>59.3</ele>
        <time>2020-06-14T18:42:39Z</time>
      </trkpt>
      <trkpt lat="49.63519" lon="-1.63589">
        <ele>59.3</ele>
        <time>2020-06-14T18:42:40Z</time>
      </trkpt>
      <trkpt lat="49.63521" lon="-1.63592">
        <ele>59.2</ele>
        <time>2020-06-14T18:42:41Z</time>
      </trkpt>
      <trkpt lat="49.63522" lon="-1.63594">
        <ele>59.2</ele>
        <time>2020-06-14T18:42:42Z</time>
      </trkpt>
      <trkpt lat="49.63523" lon="-1.63595">
        <ele>59.1</ele>
        <time>2020-06-14T18:42:43Z</time>
      </trkpt>
      <trkpt lat="49.63524" lon="-1.63597">
        <ele>59.1</ele>
        <time>2020-06-14T18:42:44Z</time>
      </trkpt>
      <trkpt lat="49.63526" lon="-1.63599">
        <ele>59</ele>
        <time>2020-06-14T18:42:45Z</time>
      </trkpt>
      <trkpt lat="49.63527" lon="-1.63601">
        <ele>59</ele>
        <time>2020-06-14T18:42:46Z</time>
      </trkpt>
      <trkpt lat="49.63528" lon="-1.63601">
        <ele>58.9</ele>
        <time>2020-06-14T18:42:47Z</time>
      </trkpt>
      <trkpt lat="49.63529" lon="-1.63599">
        <ele>58.9</ele>
        <time>2020-06-14T18:42:48Z</time>
      </trkpt>
      <trkpt lat="49.63529" lon="-1.63598">
        <ele>58.9</ele>
        <time>2020-06-14T18:42:49Z</time>
      </trkpt>
      <trkpt lat="49.63529" lon="-1.63597">
        <ele>58.8</ele>
        <time>2020-06-14T18:42:50Z</time>
      </trkpt>
      <trkpt lat="49.6353" lon="-1.63597">
        <ele>58.8</ele>
        <time>2020-06-14T18:42:51Z</time>
      </trkpt>
      <trkpt lat="49.6353" lon="-1.63596">
        <ele>58.8</ele>
        <time>2020-06-14T18:42:52Z</time>
      </trkpt>
      <trkpt lat="49.63531" lon="-1.63595">
        <ele>58.8</ele>
        <time>2020-06-14T18:42:53Z</time>
      </trkpt>
      <trkpt lat="49.63531" lon="-1.63595">
        <ele>58.8</ele>
        <time>2020-06-14T18:42:54Z</time>
      </trkpt>
      <trkpt lat="49.63531" lon="-1.63598">
        <ele>58.7</ele>
        <time>2020-06-14T18:42:55Z</time>
      </trkpt>
      <trkpt lat="49.63531" lon="-1.636">
        <ele>58.6</ele>
        <time>2020-06-14T18:42:56Z</time>
      </trkpt>
      <trkpt lat="49.63532" lon="-1.63602">
        <ele>58.6</ele>
        <time>2020-06-14T18:42:57Z</time>
      </trkpt>
      <trkpt lat="49.63532" lon="-1.63604">
        <ele>58.6</ele>
        <time>2020-06-14T18:42:58Z</time>
      </trkpt>
      <trkpt lat="49.63533" lon="-1.63606">
        <ele>58.5</ele>
        <time>2020-06-14T18:43:25Z</time>
      </trkpt>
      <trkpt lat="49.63533" lon="-1.63608">
        <ele>58.5</ele>
        <time>2020-06-14T18:43:26Z</time>
      </trkpt>
      <trkpt lat="49.63536" lon="-1.63612">
        <ele>58.3</ele>
        <time>2020-06-14T18:43:27Z</time>
      </trkpt>
      <trkpt lat="49.63537" lon="-1.63613">
        <ele>58.3</ele>
        <time>2020-06-14T18:43:28Z</time>
      </trkpt>
      <trkpt lat="49.63539" lon="-1.63617">
        <ele>58.2</ele>
        <time>2020-06-14T18:43:29Z</time>
      </trkpt>
      <trkpt lat="49.6354" lon="-1.63619">
        <ele>58.1</ele>
        <time>2020-06-14T18:43:30Z</time>
      </trkpt>
      <trkpt lat="49.63543" lon="-1.63621">
        <ele>58</ele>
        <time>2020-06-14T18:43:31Z</time>
      </trkpt>
      <trkpt lat="49.63546" lon="-1.63623">
        <ele>57.9</ele>
        <time>2020-06-14T18:43:32Z</time>
      </trkpt>
      <trkpt lat="49.63548" lon="-1.63627">
        <ele>57.8</ele>
        <time>2020-06-14T18:43:33Z</time>
      </trkpt>
      <trkpt lat="49.63551" lon="-1.63629">
        <ele>57.7</ele>
        <time>2020-06-14T18:43:34Z</time>
      </trkpt>
      <trkpt lat="49.63553" lon="-1.63632">
        <ele>57.6</ele>
        <time>2020-06-14T18:43:35Z</time>
      </trkpt>
      <trkpt lat="49.63556" lon="-1.63635">
        <ele>57.5</ele>
        <time>2020-06-14T18:43:36Z</time>
      </trkpt>
      <trkpt lat="49.63558" lon="-1.63638">
        <ele>57.4</ele>
        <time>2020-06-14T18:43:37Z</time>
      </trkpt>
      <trkpt lat="49.6356" lon="-1.63641">
        <ele>57.3</ele>
        <time>2020-06-14T18:43:38Z</time>
      </trkpt>
      <trkpt lat="49.63562" lon="-1.63645">
        <ele>57.2</ele>
        <time>2020-06-14T18:43:39Z</time>
      </trkpt>
      <trkpt lat="49.63564" lon="-1.63648">
        <ele>57</ele>
        <time>2020-06-14T18:43:40Z</time>
      </trkpt>
      <trkpt lat="49.63567" lon="-1.63652">
        <ele>56.9</ele>
        <time>2020-06-14T18:43:41Z</time>
      </trkpt>
      <trkpt lat="49.63571" lon="-1.63656">
        <ele>56.7</ele>
        <time>2020-06-14T18:43:42Z</time>
      </trkpt>
      <trkpt lat="49.63574" lon="-1.63661">
        <ele>56.6</ele>
        <time>2020-06-14T18:43:43Z</time>
      </trkpt>
      <trkpt lat="49.63578" lon="-1.63666">
        <ele>56.5</ele>
        <time>2020-06-14T18:43:44Z</time>
      </trkpt>
      <trkpt lat="49.63582" lon="-1.63669">
        <ele>56.3</ele>
        <time>2020-06-14T18:43:45Z</time>
      </trkpt>
      <trkpt lat="49.63586" lon="-1.63672">
        <ele>56.1</ele>
        <time>2020-06-14T18:43:46Z</time>
      </trkpt>
      <trkpt lat="49.6359" lon="-1.63676">
        <ele>56</ele>
        <time>2020-06-14T18:43:47Z</time>
      </trkpt>
      <trkpt lat="49.63594" lon="-1.6368">
        <ele>55.8</ele>
        <time>2020-06-14T18:43:48Z</time>
      </trkpt>
      <trkpt lat="49.63598" lon="-1.63682">
        <ele>55.6</ele>
        <time>2020-06-14T18:43:49Z</time>
      </trkpt>
      <trkpt lat="49.63602" lon="-1.63683">
        <ele>55.5</ele>
        <time>2020-06-14T18:43:50Z</time>
      </trkpt>
      <trkpt lat="49.63606" lon="-1.63679">
        <ele>55.3</ele>
        <time>2020-06-14T18:43:51Z</time>
      </trkpt>
      <trkpt lat="49.63609" lon="-1.63674">
        <ele>55.3</ele>
        <time>2020-06-14T18:43:52Z</time>
      </trkpt>
      <trkpt lat="49.63612" lon="-1.63668">
        <ele>55.3</ele>
        <time>2020-06-14T18:43:53Z</time>
      </trkpt>
      <trkpt lat="49.63614" lon="-1.63662">
        <ele>55.3</ele>
        <time>2020-06-14T18:43:54Z</time>
      </trkpt>
      <trkpt lat="49.63615" lon="-1.63656">
        <ele>55.3</ele>
        <time>2020-06-14T18:43:55Z</time>
      </trkpt>
      <trkpt lat="49.63616" lon="-1.63652">
        <ele>55.3</ele>
        <time>2020-06-14T18:43:56Z</time>
      </trkpt>
      <trkpt lat="49.63617" lon="-1.63646">
        <ele>55.3</ele>
        <time>2020-06-14T18:43:57Z</time>
      </trkpt>
      <trkpt lat="49.63617" lon="-1.63644">
        <ele>55.2</ele>
        <time>2020-06-14T18:43:58Z</time>
      </trkpt>
      <trkpt lat="49.63617" lon="-1.63642">
        <ele>55.2</ele>
        <time>2020-06-14T18:43:59Z</time>
      </trkpt>
      <trkpt lat="49.63618" lon="-1.63639">
        <ele>55.2</ele>
        <time>2020-06-14T18:44:00Z</time>
      </trkpt>
      <trkpt lat="49.63618" lon="-1.63637">
        <ele>55.2</ele>
        <time>2020-06-14T18:44:01Z</time>
      </trkpt>
      <trkpt lat="49.63618" lon="-1.63634">
        <ele>55.1</ele>
        <time>2020-06-14T18:44:02Z</time>
      </trkpt>
      <trkpt lat="49.63618" lon="-1.63632">
        <ele>55.1</ele>
        <time>2020-06-14T18:44:03Z</time>
      </trkpt>
      <trkpt lat="49.63618" lon="-1.6363">
        <ele>55.1</ele>
        <time>2020-06-14T18:44:04Z</time>
      </trkpt>
      <trkpt lat="49.63618" lon="-1.63629">
        <ele>55</ele>
        <time>2020-06-14T18:44:05Z</time>
      </trkpt>
      <trkpt lat="49.63617" lon="-1.63626">
        <ele>55</ele>
        <time>2020-06-14T18:44:06Z</time>
      </trkpt>
      <trkpt lat="49.63616" lon="-1.63625">
        <ele>55</ele>
        <time>2020-06-14T18:44:07Z</time>
      </trkpt>
      <trkpt lat="49.63616" lon="-1.63624">
        <ele>55</ele>
        <time>2020-06-14T18:44:08Z</time>
      </trkpt>
      <trkpt lat="49.63615" lon="-1.63622">
        <ele>54.9</ele>
        <time>2020-06-14T18:44:09Z</time>
      </trkpt>
      <trkpt lat="49.63613" lon="-1.63621">
        <ele>54.9</ele>
        <time>2020-06-14T18:44:10Z</time>
      </trkpt>
      <trkpt lat="49.63612" lon="-1.63618">
        <ele>54.8</ele>
        <time>2020-06-14T18:44:11Z</time>
      </trkpt>
      <trkpt lat="49.63612" lon="-1.63617">
        <ele>54.8</ele>
        <time>2020-06-14T18:44:12Z</time>
      </trkpt>
      <trkpt lat="49.63612" lon="-1.63615">
        <ele>54.7</ele>
        <time>2020-06-14T18:44:13Z</time>
      </trkpt>
      <trkpt lat="49.63611" lon="-1.63611">
        <ele>54.6</ele>
        <time>2020-06-14T18:44:14Z</time>
      </trkpt>
      <trkpt lat="49.6361" lon="-1.63609">
        <ele>54.6</ele>
        <time>2020-06-14T18:44:15Z</time>
      </trkpt>
      <trkpt lat="49.6361" lon="-1.63603">
        <ele>54.4</ele>
        <time>2020-06-14T18:44:16Z</time>
      </trkpt>
      <trkpt lat="49.63609" lon="-1.63601">
        <ele>54.4</ele>
        <time>2020-06-14T18:44:17Z</time>
      </trkpt>
      <trkpt lat="49.63608" lon="-1.63597">
        <ele>54.3</ele>
        <time>2020-06-14T18:44:18Z</time>
      </trkpt>
      <trkpt lat="49.63606" lon="-1.63592">
        <ele>54.1</ele>
        <time>2020-06-14T18:44:19Z</time>
      </trkpt>
      <trkpt lat="49.63604" lon="-1.63585">
        <ele>53.9</ele>
        <time>2020-06-14T18:44:20Z</time>
      </trkpt>
      <trkpt lat="49.63602" lon="-1.63578">
        <ele>53.7</ele>
        <time>2020-06-14T18:44:21Z</time>
      </trkpt>
      <trkpt lat="49.636" lon="-1.63572">
        <ele>53.5</ele>
        <time>2020-06-14T18:44:22Z</time>
      </trkpt>
      <trkpt lat="49.63597" lon="-1.63566">
        <ele>53.3</ele>
        <time>2020-06-14T18:44:23Z</time>
      </trkpt>
      <trkpt lat="49.63595" lon="-1.63559">
        <ele>53.1</ele>
        <time>2020-06-14T18:44:24Z</time>
      </trkpt>
      <trkpt lat="49.63592" lon="-1.63552">
        <ele>52.9</ele>
        <time>2020-06-14T18:44:25Z</time>
      </trkpt>
      <trkpt lat="49.63589" lon="-1.63545">
        <ele>52.6</ele>
        <time>2020-06-14T18:44:26Z</time>
      </trkpt>
      <trkpt lat="49.63587" lon="-1.63537">
        <ele>52.4</ele>
        <time>2020-06-14T18:44:27Z</time>
      </trkpt>
      <trkpt lat="49.63584" lon="-1.63529">
        <ele>52.1</ele>
        <time>2020-06-14T18:44:28Z</time>
      </trkpt>
      <trkpt lat="49.63582" lon="-1.6352">
        <ele>51.8</ele>
        <time>2020-06-14T18:44:29Z</time>
      </trkpt>
      <trkpt lat="49.63579" lon="-1.63511">
        <ele>51.5</ele>
        <time>2020-06-14T18:44:30Z</time>
      </trkpt>
      <trkpt lat="49.63575" lon="-1.63502">
        <ele>51.1</ele>
        <time>2020-06-14T18:44:31Z</time>
      </trkpt>
      <trkpt lat="49.63572" lon="-1.63493">
        <ele>50.8</ele>
        <time>2020-06-14T18:44:32Z</time>
      </trkpt>
      <trkpt lat="49.63569" lon="-1.63483">
        <ele>50.4</ele>
        <time>2020-06-14T18:44:33Z</time>
      </trkpt>
      <trkpt lat="49.63565" lon="-1.63473">
        <ele>50</ele>
        <time>2020-06-14T18:44:34Z</time>
      </trkpt>
      <trkpt lat="49.63563" lon="-1.63462">
        <ele>49.6</ele>
        <time>2020-06-14T18:44:35Z</time>
      </trkpt>
      <trkpt lat="49.63563" lon="-1.63451">
        <ele>49.2</ele>
        <time>2020-06-14T18:44:36Z</time>
      </trkpt>
      <trkpt lat="49.63565" lon="-1.63442">
        <ele>48.8</ele>
        <time>2020-06-14T18:44:37Z</time>
      </trkpt>
      <trkpt lat="49.63569" lon="-1.63435">
        <ele>48.5</ele>
        <time>2020-06-14T18:44:38Z</time>
      </trkpt>
      <trkpt lat="49.63575" lon="-1.6343">
        <ele>48</ele>
        <time>2020-06-14T18:44:39Z</time>
      </trkpt>
      <trkpt lat="49.63582" lon="-1.63429">
        <ele>47.6</ele>
        <time>2020-06-14T18:44:40Z</time>
      </trkpt>
      <trkpt lat="49.63588" lon="-1.63431">
        <ele>47.2</ele>
        <time>2020-06-14T18:44:41Z</time>
      </trkpt>
      <trkpt lat="49.63594" lon="-1.63436">
        <ele>46.8</ele>
        <time>2020-06-14T18:44:42Z</time>
      </trkpt>
      <trkpt lat="49.636" lon="-1.63442">
        <ele>46.4</ele>
        <time>2020-06-14T18:44:43Z</time>
      </trkpt>
      <trkpt lat="49.63605" lon="-1.63448">
        <ele>46.1</ele>
        <time>2020-06-14T18:44:44Z</time>
      </trkpt>
      <trkpt lat="49.63611" lon="-1.63454">
        <ele>45.8</ele>
        <time>2020-06-14T18:44:45Z</time>
      </trkpt>
      <trkpt lat="49.63617" lon="-1.63461">
        <ele>45.4</ele>
        <time>2020-06-14T18:44:46Z</time>
      </trkpt>
      <trkpt lat="49.63622" lon="-1.63469">
        <ele>45.1</ele>
        <time>2020-06-14T18:44:47Z</time>
      </trkpt>
      <trkpt lat="49.63627" lon="-1.63477">
        <ele>44.8</ele>
        <time>2020-06-14T18:44:48Z</time>
      </trkpt>
      <trkpt lat="49.63632" lon="-1.63484">
        <ele>44.5</ele>
        <time>2020-06-14T18:44:49Z</time>
      </trkpt>
      <trkpt lat="49.63638" lon="-1.63491">
        <ele>44.2</ele>
        <time>2020-06-14T18:44:50Z</time>
      </trkpt>
      <trkpt lat="49.63643" lon="-1.63498">
        <ele>43.9</ele>
        <time>2020-06-14T18:44:51Z</time>
      </trkpt>
      <trkpt lat="49.63649" lon="-1.63505">
        <ele>43.6</ele>
        <time>2020-06-14T18:44:52Z</time>
      </trkpt>
      <trkpt lat="49.63655" lon="-1.63512">
        <ele>43.3</ele>
        <time>2020-06-14T18:44:53Z</time>
      </trkpt>
      <trkpt lat="49.6366" lon="-1.6352">
        <ele>43</ele>
        <time>2020-06-14T18:44:54Z</time>
      </trkpt>
      <trkpt lat="49.63666" lon="-1.63527">
        <ele>42.8</ele>
        <time>2020-06-14T18:44:55Z</time>
      </trkpt>
      <trkpt lat="49.63671" lon="-1.63535">
        <ele>42.6</ele>
        <time>2020-06-14T18:44:56Z</time>
      </trkpt>
      <trkpt lat="49.63676" lon="-1.6354">
        <ele>42.4</ele>
        <time>2020-06-14T18:44:57Z</time>
      </trkpt>
      <trkpt lat="49.63681" lon="-1.63543">
        <ele>42.3</ele>
        <time>2020-06-14T18:44:58Z</time>
      </trkpt>
      <trkpt lat="49.63687" lon="-1.63544">
        <ele>42.1</ele>
        <time>2020-06-14T18:44:59Z</time>
      </trkpt>
      <trkpt lat="49.63694" lon="-1.63541">
        <ele>41.9</ele>
        <time>2020-06-14T18:45:00Z</time>
      </trkpt>
      <trkpt lat="49.63698" lon="-1.63534">
        <ele>41.6</ele>
        <time>2020-06-14T18:45:01Z</time>
      </trkpt>
      <trkpt lat="49.63699" lon="-1.63524">
        <ele>41.3</ele>
        <time>2020-06-14T18:45:02Z</time>
      </trkpt>
      <trkpt lat="49.63698" lon="-1.63513">
        <ele>40.9</ele>
        <time>2020-06-14T18:45:03Z</time>
      </trkpt>
      <trkpt lat="49.63695" lon="-1.63503">
        <ele>40.4</ele>
        <time>2020-06-14T18:45:04Z</time>
      </trkpt>
      <trkpt lat="49.63691" lon="-1.63492">
        <ele>39.8</ele>
        <time>2020-06-14T18:45:05Z</time>
      </trkpt>
      <trkpt lat="49.63686" lon="-1.63482">
        <ele>39.1</ele>
        <time>2020-06-14T18:45:06Z</time>
      </trkpt>
      <trkpt lat="49.6368" lon="-1.63472">
        <ele>38.5</ele>
        <time>2020-06-14T18:45:07Z</time>
      </trkpt>
      <trkpt lat="49.63674" lon="-1.63463">
        <ele>37.8</ele>
        <time>2020-06-14T18:45:08Z</time>
      </trkpt>
      <trkpt lat="49.63669" lon="-1.63452">
        <ele>37.1</ele>
        <time>2020-06-14T18:45:09Z</time>
      </trkpt>
      <trkpt lat="49.63665" lon="-1.63442">
        <ele>36.5</ele>
        <time>2020-06-14T18:45:10Z</time>
      </trkpt>
      <trkpt lat="49.63662" lon="-1.63434">
        <ele>36.1</ele>
        <time>2020-06-14T18:45:11Z</time>
      </trkpt>
      <trkpt lat="49.63658" lon="-1.63427">
        <ele>35.7</ele>
        <time>2020-06-14T18:45:12Z</time>
      </trkpt>
      <trkpt lat="49.63655" lon="-1.6342">
        <ele>35.3</ele>
        <time>2020-06-14T18:45:13Z</time>
      </trkpt>
      <trkpt lat="49.63653" lon="-1.63414">
        <ele>35</ele>
        <time>2020-06-14T18:45:14Z</time>
      </trkpt>
      <trkpt lat="49.6365" lon="-1.6341">
        <ele>34.7</ele>
        <time>2020-06-14T18:45:15Z</time>
      </trkpt>
      <trkpt lat="49.63647" lon="-1.63406">
        <ele>34.4</ele>
        <time>2020-06-14T18:45:16Z</time>
      </trkpt>
      <trkpt lat="49.63644" lon="-1.63403">
        <ele>34.2</ele>
        <time>2020-06-14T18:45:17Z</time>
      </trkpt>
      <trkpt lat="49.63643" lon="-1.63402">
        <ele>34.1</ele>
        <time>2020-06-14T18:45:18Z</time>
      </trkpt>
      <trkpt lat="49.63642" lon="-1.63401">
        <ele>34</ele>
        <time>2020-06-14T18:45:19Z</time>
      </trkpt>
      <trkpt lat="49.63643" lon="-1.63397">
        <ele>33.8</ele>
        <time>2020-06-14T18:45:20Z</time>
      </trkpt>
      <trkpt lat="49.63644" lon="-1.63396">
        <ele>33.8</ele>
        <time>2020-06-14T18:45:21Z</time>
      </trkpt>
      <trkpt lat="49.63644" lon="-1.63395">
        <ele>33.7</ele>
        <time>2020-06-14T18:45:22Z</time>
      </trkpt>
      <trkpt lat="49.63644" lon="-1.63395">
        <ele>33.7</ele>
        <time>2020-06-14T18:45:23Z</time>
      </trkpt>
      <trkpt lat="49.63644" lon="-1.63396">
        <ele>33.7</ele>
        <time>2020-06-14T18:45:24Z</time>
      </trkpt>
      <trkpt lat="49.63643" lon="-1.63396">
        <ele>33.6</ele>
        <time>2020-06-14T18:45:25Z</time>
      </trkpt>
      <trkpt lat="49.63643" lon="-1.63397">
        <ele>33.6</ele>
        <time>2020-06-14T18:45:26Z</time>
      </trkpt>
      <trkpt lat="49.63643" lon="-1.63397">
        <ele>33.6</ele>
        <time>2020-06-14T18:45:27Z</time>
      </trkpt>
      <trkpt lat="49.63643" lon="-1.63396">
        <ele>33.6</ele>
        <time>2020-06-14T18:45:28Z</time>
      </trkpt>
      <trkpt lat="49.63644" lon="-1.63395">
        <ele>33.5</ele>
        <time>2020-06-14T18:45:29Z</time>
      </trkpt>
      <trkpt lat="49.63644" lon="-1.63395">
        <ele>33.5</ele>
        <time>2020-06-14T18:45:30Z</time>
      </trkpt>
      <trkpt lat="49.63643" lon="-1.63395">
        <ele>33.5</ele>
        <time>2020-06-14T18:45:31Z</time>
      </trkpt>
      <trkpt lat="49.63638" lon="-1.63393">
        <ele>33.1</ele>
        <time>2020-06-14T18:45:51Z</time>
      </trkpt>
      <trkpt lat="49.63638" lon="-1.63393">
        <ele>33.1</ele>
        <time>2020-06-14T18:45:52Z</time>
      </trkpt>
      <trkpt lat="49.63639" lon="-1.63395">
        <ele>33</ele>
        <time>2020-06-14T18:45:53Z</time>
      </trkpt>
      <trkpt lat="49.63639" lon="-1.63397">
        <ele>32.8</ele>
        <time>2020-06-14T18:45:54Z</time>
      </trkpt>
      <trkpt lat="49.63639" lon="-1.63395">
        <ele>32.7</ele>
        <time>2020-06-14T18:45:55Z</time>
      </trkpt>
      <trkpt lat="49.63638" lon="-1.63394">
        <ele>32.7</ele>
        <time>2020-06-14T18:45:56Z</time>
      </trkpt>
      <trkpt lat="49.63638" lon="-1.63394">
        <ele>32.6</ele>
        <time>2020-06-14T18:45:57Z</time>
      </trkpt>
      <trkpt lat="49.63638" lon="-1.63393">
        <ele>32.6</ele>
        <time>2020-06-14T18:45:58Z</time>
      </trkpt>
      <trkpt lat="49.63638" lon="-1.63393">
        <ele>32.6</ele>
        <time>2020-06-14T18:45:59Z</time>
      </trkpt>
      <trkpt lat="49.63637" lon="-1.63392">
        <ele>32.5</ele>
        <time>2020-06-14T18:46:00Z</time>
      </trkpt>
      <trkpt lat="49.63637" lon="-1.63392">
        <ele>32.5</ele>
        <time>2020-06-14T18:46:01Z</time>
      </trkpt>
      <trkpt lat="49.63637" lon="-1.63391">
        <ele>32.4</ele>
        <time>2020-06-14T18:46:02Z</time>
      </trkpt>
      <trkpt lat="49.63637" lon="-1.6339">
        <ele>32.4</ele>
        <time>2020-06-14T18:46:03Z</time>
      </trkpt>
      <trkpt lat="49.63637" lon="-1.6339">
        <ele>32.4</ele>
        <time>2020-06-14T18:46:04Z</time>
      </trkpt>
      <trkpt lat="49.63636" lon="-1.63389">
        <ele>32.3</ele>
        <time>2020-06-14T18:46:05Z</time>
      </trkpt>
      <trkpt lat="49.63636" lon="-1.63389">
        <ele>32.3</ele>
        <time>2020-06-14T18:46:06Z</time>
      </trkpt>
      <trkpt lat="49.63636" lon="-1.63388">
        <ele>32.2</ele>
        <time>2020-06-14T18:46:07Z</time>
      </trkpt>
      <trkpt lat="49.63636" lon="-1.63388">
        <ele>32.2</ele>
        <time>2020-06-14T18:46:29Z</time>
      </trkpt>
      <trkpt lat="49.63636" lon="-1.63387">
        <ele>32.1</ele>
        <time>2020-06-14T18:46:30Z</time>
      </trkpt>
      <trkpt lat="49.63634" lon="-1.63381">
        <ele>31.7</ele>
        <time>2020-06-14T18:46:31Z</time>
      </trkpt>
      <trkpt lat="49.63633" lon="-1.6338">
        <ele>31.6</ele>
        <time>2020-06-14T18:46:32Z</time>
      </trkpt>
      <trkpt lat="49.63631" lon="-1.63375">
        <ele>31.4</ele>
        <time>2020-06-14T18:46:33Z</time>
      </trkpt>
      <trkpt lat="49.63629" lon="-1.6337">
        <ele>31.3</ele>
        <time>2020-06-14T18:46:34Z</time>
      </trkpt>
      <trkpt lat="49.63627" lon="-1.63365">
        <ele>31.1</ele>
        <time>2020-06-14T18:46:35Z</time>
      </trkpt>
      <trkpt lat="49.63625" lon="-1.6336">
        <ele>30.8</ele>
        <time>2020-06-14T18:46:36Z</time>
      </trkpt>
      <trkpt lat="49.63622" lon="-1.63354">
        <ele>30.6</ele>
        <time>2020-06-14T18:46:37Z</time>
      </trkpt>
      <trkpt lat="49.63619" lon="-1.63348">
        <ele>30.3</ele>
        <time>2020-06-14T18:46:38Z</time>
      </trkpt>
      <trkpt lat="49.63616" lon="-1.63342">
        <ele>29.9</ele>
        <time>2020-06-14T18:46:39Z</time>
      </trkpt>
      <trkpt lat="49.6361" lon="-1.63334">
        <ele>29.5</ele>
        <time>2020-06-14T18:46:40Z</time>
      </trkpt>
      <trkpt lat="49.63606" lon="-1.63326">
        <ele>29.1</ele>
        <time>2020-06-14T18:46:41Z</time>
      </trkpt>
      <trkpt lat="49.63603" lon="-1.63316">
        <ele>28.7</ele>
        <time>2020-06-14T18:46:42Z</time>
      </trkpt>
      <trkpt lat="49.636" lon="-1.63308">
        <ele>28.4</ele>
        <time>2020-06-14T18:46:43Z</time>
      </trkpt>
      <trkpt lat="49.63597" lon="-1.63303">
        <ele>28.2</ele>
        <time>2020-06-14T18:46:44Z</time>
      </trkpt>
      <trkpt lat="49.63596" lon="-1.63298">
        <ele>28</ele>
        <time>2020-06-14T18:46:45Z</time>
      </trkpt>
      <trkpt lat="49.63596" lon="-1.63297">
        <ele>28</ele>
        <time>2020-06-14T18:46:46Z</time>
      </trkpt>
      <trkpt lat="49.63595" lon="-1.63296">
        <ele>27.9</ele>
        <time>2020-06-14T18:46:47Z</time>
      </trkpt>
      <trkpt lat="49.63594" lon="-1.63294">
        <ele>27.8</ele>
        <time>2020-06-14T18:46:48Z</time>
      </trkpt>
      <trkpt lat="49.63594" lon="-1.63293">
        <ele>27.8</ele>
        <time>2020-06-14T18:46:49Z</time>
      </trkpt>
      <trkpt lat="49.63595" lon="-1.63289">
        <ele>27.7</ele>
        <time>2020-06-14T18:46:50Z</time>
      </trkpt>
      <trkpt lat="49.63596" lon="-1.63286">
        <ele>27.6</ele>
        <time>2020-06-14T18:46:51Z</time>
      </trkpt>
      <trkpt lat="49.63597" lon="-1.63286">
        <ele>27.5</ele>
        <time>2020-06-14T18:46:52Z</time>
      </trkpt>
      <trkpt lat="49.63597" lon="-1.63286">
        <ele>27.5</ele>
        <time>2020-06-14T18:46:53Z</time>
      </trkpt>
      <trkpt lat="49.63598" lon="-1.63285">
        <ele>27.5</ele>
        <time>2020-06-14T18:46:54Z</time>
      </trkpt>
      <trkpt lat="49.63598" lon="-1.63287">
        <ele>27.4</ele>
        <time>2020-06-14T18:46:55Z</time>
      </trkpt>
      <trkpt lat="49.63598" lon="-1.63289">
        <ele>27.3</ele>
        <time>2020-06-14T18:46:56Z</time>
      </trkpt>
      <trkpt lat="49.63598" lon="-1.63286">
        <ele>27.3</ele>
        <time>2020-06-14T18:46:57Z</time>
      </trkpt>
      <trkpt lat="49.63598" lon="-1.63286">
        <ele>27.2</ele>
        <time>2020-06-14T18:46:58Z</time>
      </trkpt>
      <trkpt lat="49.63598" lon="-1.63287">
        <ele>27.2</ele>
        <time>2020-06-14T18:46:59Z</time>
      </trkpt>
      <trkpt lat="49.63598" lon="-1.63289">
        <ele>27.2</ele>
        <time>2020-06-14T18:47:00Z</time>
      </trkpt>
      <trkpt lat="49.63598" lon="-1.63289">
        <ele>27.1</ele>
        <time>2020-06-14T18:47:01Z</time>
      </trkpt>
      <trkpt lat="49.636" lon="-1.63292">
        <ele>27.3</ele>
        <time>2020-06-14T18:47:02Z</time>
      </trkpt>
      <trkpt lat="49.63602" lon="-1.63295">
        <ele>27.4</ele>
        <time>2020-06-14T18:47:03Z</time>
      </trkpt>
      <trkpt lat="49.63603" lon="-1.63298">
        <ele>27.5</ele>
        <time>2020-06-14T18:47:04Z</time>
      </trkpt>
      <trkpt lat="49.63604" lon="-1.63301">
        <ele>27.7</ele>
        <time>2020-06-14T18:47:05Z</time>
      </trkpt>
      <trkpt lat="49.63605" lon="-1.63301">
        <ele>27.7</ele>
        <time>2020-06-14T18:47:06Z</time>
      </trkpt>
      <trkpt lat="49.63605" lon="-1.63305">
        <ele>27.9</ele>
        <time>2020-06-14T18:47:07Z</time>
      </trkpt>
      <trkpt lat="49.63606" lon="-1.63307">
        <ele>27.9</ele>
        <time>2020-06-14T18:47:08Z</time>
      </trkpt>
      <trkpt lat="49.63608" lon="-1.63312">
        <ele>28.2</ele>
        <time>2020-06-14T18:47:09Z</time>
      </trkpt>
      <trkpt lat="49.63608" lon="-1.63314">
        <ele>28.2</ele>
        <time>2020-06-14T18:47:10Z</time>
      </trkpt>
      <trkpt lat="49.6361" lon="-1.63318">
        <ele>28.4</ele>
        <time>2020-06-14T18:47:11Z</time>
      </trkpt>
      <trkpt lat="49.63613" lon="-1.63321">
        <ele>28.6</ele>
        <time>2020-06-14T18:47:12Z</time>
      </trkpt>
      <trkpt lat="49.63614" lon="-1.63325">
        <ele>28.8</ele>
        <time>2020-06-14T18:47:13Z</time>
      </trkpt>
      <trkpt lat="49.63615" lon="-1.63327">
        <ele>28.9</ele>
        <time>2020-06-14T18:47:14Z</time>
      </trkpt>
      <trkpt lat="49.63616" lon="-1.63331">
        <ele>29.1</ele>
        <time>2020-06-14T18:47:15Z</time>
      </trkpt>
      <trkpt lat="49.63618" lon="-1.63334">
        <ele>29.3</ele>
        <time>2020-06-14T18:47:16Z</time>
      </trkpt>
      <trkpt lat="49.63621" lon="-1.63338">
        <ele>29.6</ele>
        <time>2020-06-14T18:47:17Z</time>
      </trkpt>
      <trkpt lat="49.63623" lon="-1.63342">
        <ele>29.8</ele>
        <time>2020-06-14T18:47:18Z</time>
      </trkpt>
      <trkpt lat="49.63624" lon="-1.63343">
        <ele>29.9</ele>
        <time>2020-06-14T18:47:19Z</time>
      </trkpt>
      <trkpt lat="49.63625" lon="-1.63348">
        <ele>30.2</ele>
        <time>2020-06-14T18:47:20Z</time>
      </trkpt>
      <trkpt lat="49.63626" lon="-1.6335">
        <ele>30.3</ele>
        <time>2020-06-14T18:47:21Z</time>
      </trkpt>
      <trkpt lat="49.63629" lon="-1.63355">
        <ele>30.6</ele>
        <time>2020-06-14T18:47:22Z</time>
      </trkpt>
      <trkpt lat="49.6363" lon="-1.63358">
        <ele>30.7</ele>
        <time>2020-06-14T18:47:23Z</time>
      </trkpt>
      <trkpt lat="49.63632" lon="-1.63361">
        <ele>30.9</ele>
        <time>2020-06-14T18:47:24Z</time>
      </trkpt>
      <trkpt lat="49.63632" lon="-1.63362">
        <ele>31</ele>
        <time>2020-06-14T18:47:25Z</time>
      </trkpt>
      <trkpt lat="49.63634" lon="-1.63365">
        <ele>31.1</ele>
        <time>2020-06-14T18:47:26Z</time>
      </trkpt>
      <trkpt lat="49.63634" lon="-1.63367">
        <ele>31.2</ele>
        <time>2020-06-14T18:47:27Z</time>
      </trkpt>
      <trkpt lat="49.63635" lon="-1.6337">
        <ele>31.4</ele>
        <time>2020-06-14T18:47:28Z</time>
      </trkpt>
      <trkpt lat="49.63636" lon="-1.63374">
        <ele>31.5</ele>
        <time>2020-06-14T18:47:29Z</time>
      </trkpt>
      <trkpt lat="49.63637" lon="-1.63376">
        <ele>31.6</ele>
        <time>2020-06-14T18:47:30Z</time>
      </trkpt>
      <trkpt lat="49.63639" lon="-1.63378">
        <ele>31.8</ele>
        <time>2020-06-14T18:47:31Z</time>
      </trkpt>
      <trkpt lat="49.63641" lon="-1.63381">
        <ele>32.1</ele>
        <time>2020-06-14T18:47:32Z</time>
      </trkpt>
      <trkpt lat="49.63642" lon="-1.63382">
        <ele>32.2</ele>
        <time>2020-06-14T18:47:33Z</time>
      </trkpt>
      <trkpt lat="49.63643" lon="-1.63384">
        <ele>32.3</ele>
        <time>2020-06-14T18:47:34Z</time>
      </trkpt>
      <trkpt lat="49.63643" lon="-1.63385">
        <ele>32.4</ele>
        <time>2020-06-14T18:47:35Z</time>
      </trkpt>
      <trkpt lat="49.63643" lon="-1.63387">
        <ele>32.5</ele>
        <time>2020-06-14T18:47:36Z</time>
      </trkpt>
      <trkpt lat="49.63644" lon="-1.63387">
        <ele>32.6</ele>
        <time>2020-06-14T18:47:37Z</time>
      </trkpt>
      <trkpt lat="49.63644" lon="-1.63387">
        <ele>32.6</ele>
        <time>2020-06-14T18:47:38Z</time>
      </trkpt>
      <trkpt lat="49.63643" lon="-1.63386">
        <ele>32.7</ele>
        <time>2020-06-14T18:47:39Z</time>
      </trkpt>
      <trkpt lat="49.63644" lon="-1.63387">
        <ele>32.8</ele>
        <time>2020-06-14T18:47:40Z</time>
      </trkpt>
      <trkpt lat="49.63644" lon="-1.63386">
        <ele>32.9</ele>
        <time>2020-06-14T18:47:41Z</time>
      </trkpt>
      <trkpt lat="49.63643" lon="-1.63384">
        <ele>33</ele>
        <time>2020-06-14T18:47:42Z</time>
      </trkpt>
      <trkpt lat="49.63643" lon="-1.63383">
        <ele>33.1</ele>
        <time>2020-06-14T18:47:43Z</time>
      </trkpt>
      <trkpt lat="49.63643" lon="-1.63384">
        <ele>33.1</ele>
        <time>2020-06-14T18:47:44Z</time>
      </trkpt>
      <trkpt lat="49.63644" lon="-1.63384">
        <ele>33.1</ele>
        <time>2020-06-14T18:47:45Z</time>
      </trkpt>
      <trkpt lat="49.63644" lon="-1.63385">
        <ele>33.2</ele>
        <time>2020-06-14T18:47:46Z</time>
      </trkpt>
      <trkpt lat="49.63644" lon="-1.63384">
        <ele>33.2</ele>
        <time>2020-06-14T18:47:47Z</time>
      </trkpt>
      <trkpt lat="49.63645" lon="-1.63384">
        <ele>33.3</ele>
        <time>2020-06-14T18:47:48Z</time>
      </trkpt>
      <trkpt lat="49.63646" lon="-1.63388">
        <ele>33.4</ele>
        <time>2020-06-14T18:47:49Z</time>
      </trkpt>
      <trkpt lat="49.63647" lon="-1.63392">
        <ele>33.6</ele>
        <time>2020-06-14T18:47:50Z</time>
      </trkpt>
      <trkpt lat="49.63648" lon="-1.63397">
        <ele>33.8</ele>
        <time>2020-06-14T18:47:51Z</time>
      </trkpt>
      <trkpt lat="49.63649" lon="-1.63398">
        <ele>33.9</ele>
        <time>2020-06-14T18:47:52Z</time>
      </trkpt>
      <trkpt lat="49.6365" lon="-1.63403">
        <ele>34.1</ele>
        <time>2020-06-14T18:47:53Z</time>
      </trkpt>
      <trkpt lat="49.63651" lon="-1.63408">
        <ele>34.3</ele>
        <time>2020-06-14T18:47:54Z</time>
      </trkpt>
      <trkpt lat="49.63652" lon="-1.6341">
        <ele>34.5</ele>
        <time>2020-06-14T18:47:55Z</time>
      </trkpt>
      <trkpt lat="49.63654" lon="-1.63416">
        <ele>34.7</ele>
        <time>2020-06-14T18:47:56Z</time>
      </trkpt>
      <trkpt lat="49.63655" lon="-1.63418">
        <ele>34.8</ele>
        <time>2020-06-14T18:47:57Z</time>
      </trkpt>
      <trkpt lat="49.63657" lon="-1.63421">
        <ele>35</ele>
        <time>2020-06-14T18:47:58Z</time>
      </trkpt>
      <trkpt lat="49.63659" lon="-1.63426">
        <ele>35.3</ele>
        <time>2020-06-14T18:47:59Z</time>
      </trkpt>
      <trkpt lat="49.63661" lon="-1.63429">
        <ele>35.5</ele>
        <time>2020-06-14T18:48:00Z</time>
      </trkpt>
      <trkpt lat="49.63662" lon="-1.6343">
        <ele>35.6</ele>
        <time>2020-06-14T18:48:01Z</time>
      </trkpt>
      <trkpt lat="49.63664" lon="-1.63434">
        <ele>35.8</ele>
        <time>2020-06-14T18:48:02Z</time>
      </trkpt>
      <trkpt lat="49.63664" lon="-1.63436">
        <ele>35.9</ele>
        <time>2020-06-14T18:48:03Z</time>
      </trkpt>
      <trkpt lat="49.63667" lon="-1.6344">
        <ele>36.2</ele>
        <time>2020-06-14T18:48:04Z</time>
      </trkpt>
      <trkpt lat="49.63668" lon="-1.63442">
        <ele>36.3</ele>
        <time>2020-06-14T18:48:05Z</time>
      </trkpt>
      <trkpt lat="49.6367" lon="-1.63447">
        <ele>36.6</ele>
        <time>2020-06-14T18:48:06Z</time>
      </trkpt>
      <trkpt lat="49.63673" lon="-1.63451">
        <ele>36.8</ele>
        <time>2020-06-14T18:48:07Z</time>
      </trkpt>
      <trkpt lat="49.63674" lon="-1.63452">
        <ele>36.9</ele>
        <time>2020-06-14T18:48:08Z</time>
      </trkpt>
      <trkpt lat="49.63676" lon="-1.63456">
        <ele>37.2</ele>
        <time>2020-06-14T18:48:09Z</time>
      </trkpt>
      <trkpt lat="49.63676" lon="-1.63457">
        <ele>37.2</ele>
        <time>2020-06-14T18:48:10Z</time>
      </trkpt>
      <trkpt lat="49.63679" lon="-1.63462">
        <ele>37.5</ele>
        <time>2020-06-14T18:48:11Z</time>
      </trkpt>
      <trkpt lat="49.63679" lon="-1.63464">
        <ele>37.7</ele>
        <time>2020-06-14T18:48:12Z</time>
      </trkpt>
      <trkpt lat="49.63682" lon="-1.63469">
        <ele>38</ele>
        <time>2020-06-14T18:48:13Z</time>
      </trkpt>
      <trkpt lat="49.63683" lon="-1.63471">
        <ele>38.1</ele>
        <time>2020-06-14T18:48:14Z</time>
      </trkpt>
      <trkpt lat="49.63684" lon="-1.63475">
        <ele>38.3</ele>
        <time>2020-06-14T18:48:15Z</time>
      </trkpt>
      <trkpt lat="49.63686" lon="-1.63478">
        <ele>38.6</ele>
        <time>2020-06-14T18:48:16Z</time>
      </trkpt>
      <trkpt lat="49.63688" lon="-1.63483">
        <ele>38.8</ele>
        <time>2020-06-14T18:48:17Z</time>
      </trkpt>
      <trkpt lat="49.63689" lon="-1.63485">
        <ele>39</ele>
        <time>2020-06-14T18:48:18Z</time>
      </trkpt>
      <trkpt lat="49.6369" lon="-1.63489">
        <ele>39.2</ele>
        <time>2020-06-14T18:48:19Z</time>
      </trkpt>
      <trkpt lat="49.63693" lon="-1.63494">
        <ele>39.5</ele>
        <time>2020-06-14T18:48:20Z</time>
      </trkpt>
      <trkpt lat="49.63693" lon="-1.63497">
        <ele>39.6</ele>
        <time>2020-06-14T18:48:21Z</time>
      </trkpt>
      <trkpt lat="49.63695" lon="-1.63501">
        <ele>39.9</ele>
        <time>2020-06-14T18:48:22Z</time>
      </trkpt>
      <trkpt lat="49.63696" lon="-1.63506">
        <ele>40.1</ele>
        <time>2020-06-14T18:48:23Z</time>
      </trkpt>
      <trkpt lat="49.63697" lon="-1.6351">
        <ele>40.3</ele>
        <time>2020-06-14T18:48:24Z</time>
      </trkpt>
      <trkpt lat="49.63698" lon="-1.63514">
        <ele>40.5</ele>
        <time>2020-06-14T18:48:25Z</time>
      </trkpt>
      <trkpt lat="49.63698" lon="-1.63516">
        <ele>40.6</ele>
        <time>2020-06-14T18:48:26Z</time>
      </trkpt>
      <trkpt lat="49.63699" lon="-1.6352">
        <ele>40.8</ele>
        <time>2020-06-14T18:48:27Z</time>
      </trkpt>
      <trkpt lat="49.637" lon="-1.63525">
        <ele>41</ele>
        <time>2020-06-14T18:48:28Z</time>
      </trkpt>
      <trkpt lat="49.637" lon="-1.6353">
        <ele>41.1</ele>
        <time>2020-06-14T18:48:29Z</time>
      </trkpt>
      <trkpt lat="49.637" lon="-1.63531">
        <ele>41.2</ele>
        <time>2020-06-14T18:48:30Z</time>
      </trkpt>
      <trkpt lat="49.63699" lon="-1.63535">
        <ele>41.4</ele>
        <time>2020-06-14T18:48:31Z</time>
      </trkpt>
      <trkpt lat="49.63696" lon="-1.63539">
        <ele>41.5</ele>
        <time>2020-06-14T18:48:32Z</time>
      </trkpt>
      <trkpt lat="49.63694" lon="-1.63543">
        <ele>41.7</ele>
        <time>2020-06-14T18:48:33Z</time>
      </trkpt>
      <trkpt lat="49.63691" lon="-1.63545">
        <ele>41.8</ele>
        <time>2020-06-14T18:48:34Z</time>
      </trkpt>
      <trkpt lat="49.63688" lon="-1.63546">
        <ele>41.9</ele>
        <time>2020-06-14T18:48:35Z</time>
      </trkpt>
      <trkpt lat="49.63684" lon="-1.63547">
        <ele>42</ele>
        <time>2020-06-14T18:48:36Z</time>
      </trkpt>
      <trkpt lat="49.63681" lon="-1.63547">
        <ele>42.1</ele>
        <time>2020-06-14T18:48:37Z</time>
      </trkpt>
      <trkpt lat="49.63677" lon="-1.63546">
        <ele>42.2</ele>
        <time>2020-06-14T18:48:38Z</time>
      </trkpt>
      <trkpt lat="49.63675" lon="-1.63546">
        <ele>42.3</ele>
        <time>2020-06-14T18:48:39Z</time>
      </trkpt>
      <trkpt lat="49.63672" lon="-1.63543">
        <ele>42.4</ele>
        <time>2020-06-14T18:48:40Z</time>
      </trkpt>
      <trkpt lat="49.63669" lon="-1.63541">
        <ele>42.5</ele>
        <time>2020-06-14T18:48:41Z</time>
      </trkpt>
      <trkpt lat="49.63666" lon="-1.63537">
        <ele>42.6</ele>
        <time>2020-06-14T18:48:42Z</time>
      </trkpt>
      <trkpt lat="49.63663" lon="-1.63532">
        <ele>42.7</ele>
        <time>2020-06-14T18:48:43Z</time>
      </trkpt>
      <trkpt lat="49.6366" lon="-1.63529">
        <ele>42.8</ele>
        <time>2020-06-14T18:48:44Z</time>
      </trkpt>
      <trkpt lat="49.63657" lon="-1.63526">
        <ele>42.9</ele>
        <time>2020-06-14T18:48:45Z</time>
      </trkpt>
      <trkpt lat="49.63654" lon="-1.63523">
        <ele>43</ele>
        <time>2020-06-14T18:48:46Z</time>
      </trkpt>
      <trkpt lat="49.63651" lon="-1.63521">
        <ele>43.1</ele>
        <time>2020-06-14T18:48:47Z</time>
      </trkpt>
      <trkpt lat="49.63648" lon="-1.63517">
        <ele>43.3</ele>
        <time>2020-06-14T18:48:48Z</time>
      </trkpt>
      <trkpt lat="49.63644" lon="-1.63513">
        <ele>43.4</ele>
        <time>2020-06-14T18:48:49Z</time>
      </trkpt>
      <trkpt lat="49.6364" lon="-1.63509">
        <ele>43.6</ele>
        <time>2020-06-14T18:48:50Z</time>
      </trkpt>
      <trkpt lat="49.63635" lon="-1.63503">
        <ele>43.8</ele>
        <time>2020-06-14T18:48:51Z</time>
      </trkpt>
      <trkpt lat="49.63632" lon="-1.63499">
        <ele>44.1</ele>
        <time>2020-06-14T18:48:52Z</time>
      </trkpt>
      <trkpt lat="49.63628" lon="-1.63494">
        <ele>44.3</ele>
        <time>2020-06-14T18:48:53Z</time>
      </trkpt>
      <trkpt lat="49.63626" lon="-1.63492">
        <ele>44.4</ele>
        <time>2020-06-14T18:48:54Z</time>
      </trkpt>
      <trkpt lat="49.63623" lon="-1.63488">
        <ele>44.6</ele>
        <time>2020-06-14T18:48:55Z</time>
      </trkpt>
      <trkpt lat="49.63619" lon="-1.63484">
        <ele>44.7</ele>
        <time>2020-06-14T18:48:56Z</time>
      </trkpt>
      <trkpt lat="49.63616" lon="-1.63481">
        <ele>44.9</ele>
        <time>2020-06-14T18:48:57Z</time>
      </trkpt>
      <trkpt lat="49.63612" lon="-1.63477">
        <ele>45.1</ele>
        <time>2020-06-14T18:48:58Z</time>
      </trkpt>
      <trkpt lat="49.63609" lon="-1.63474">
        <ele>45.2</ele>
        <time>2020-06-14T18:48:59Z</time>
      </trkpt>
      <trkpt lat="49.63606" lon="-1.63469">
        <ele>45.4</ele>
        <time>2020-06-14T18:49:00Z</time>
      </trkpt>
      <trkpt lat="49.63603" lon="-1.63464">
        <ele>45.6</ele>
        <time>2020-06-14T18:49:01Z</time>
      </trkpt>
      <trkpt lat="49.63599" lon="-1.63459">
        <ele>45.9</ele>
        <time>2020-06-14T18:49:02Z</time>
      </trkpt>
      <trkpt lat="49.63596" lon="-1.63455">
        <ele>46</ele>
        <time>2020-06-14T18:49:03Z</time>
      </trkpt>
      <trkpt lat="49.63593" lon="-1.6345">
        <ele>46.3</ele>
        <time>2020-06-14T18:49:04Z</time>
      </trkpt>
      <trkpt lat="49.63591" lon="-1.63447">
        <ele>46.4</ele>
        <time>2020-06-14T18:49:05Z</time>
      </trkpt>
      <trkpt lat="49.63588" lon="-1.63444">
        <ele>46.6</ele>
        <time>2020-06-14T18:49:06Z</time>
      </trkpt>
      <trkpt lat="49.63584" lon="-1.6344">
        <ele>46.8</ele>
        <time>2020-06-14T18:49:07Z</time>
      </trkpt>
      <trkpt lat="49.63581" lon="-1.63436">
        <ele>47</ele>
        <time>2020-06-14T18:49:08Z</time>
      </trkpt>
      <trkpt lat="49.63578" lon="-1.63433">
        <ele>47.2</ele>
        <time>2020-06-14T18:49:09Z</time>
      </trkpt>
      <trkpt lat="49.63574" lon="-1.63431">
        <ele>47.5</ele>
        <time>2020-06-14T18:49:10Z</time>
      </trkpt>
      <trkpt lat="49.63569" lon="-1.63432">
        <ele>47.8</ele>
        <time>2020-06-14T18:49:11Z</time>
      </trkpt>
      <trkpt lat="49.63565" lon="-1.63436">
        <ele>48.1</ele>
        <time>2020-06-14T18:49:12Z</time>
      </trkpt>
      <trkpt lat="49.63563" lon="-1.63443">
        <ele>48.4</ele>
        <time>2020-06-14T18:49:13Z</time>
      </trkpt>
      <trkpt lat="49.63562" lon="-1.63449">
        <ele>48.7</ele>
        <time>2020-06-14T18:49:14Z</time>
      </trkpt>
      <trkpt lat="49.63564" lon="-1.63459">
        <ele>49</ele>
        <time>2020-06-14T18:49:15Z</time>
      </trkpt>
      <trkpt lat="49.63565" lon="-1.63464">
        <ele>49.2</ele>
        <time>2020-06-14T18:49:16Z</time>
      </trkpt>
      <trkpt lat="49.63567" lon="-1.6347">
        <ele>49.5</ele>
        <time>2020-06-14T18:49:17Z</time>
      </trkpt>
      <trkpt lat="49.63569" lon="-1.63474">
        <ele>49.7</ele>
        <time>2020-06-14T18:49:18Z</time>
      </trkpt>
      <trkpt lat="49.63571" lon="-1.63479">
        <ele>49.9</ele>
        <time>2020-06-14T18:49:19Z</time>
      </trkpt>
      <trkpt lat="49.63573" lon="-1.63486">
        <ele>50.1</ele>
        <time>2020-06-14T18:49:20Z</time>
      </trkpt>
      <trkpt lat="49.63575" lon="-1.63491">
        <ele>50.3</ele>
        <time>2020-06-14T18:49:21Z</time>
      </trkpt>
      <trkpt lat="49.63576" lon="-1.63495">
        <ele>50.4</ele>
        <time>2020-06-14T18:49:22Z</time>
      </trkpt>
      <trkpt lat="49.63579" lon="-1.63501">
        <ele>50.7</ele>
        <time>2020-06-14T18:49:23Z</time>
      </trkpt>
      <trkpt lat="49.6358" lon="-1.63504">
        <ele>50.8</ele>
        <time>2020-06-14T18:49:24Z</time>
      </trkpt>
      <trkpt lat="49.63582" lon="-1.63509">
        <ele>51</ele>
        <time>2020-06-14T18:49:25Z</time>
      </trkpt>
      <trkpt lat="49.63584" lon="-1.63515">
        <ele>51.2</ele>
        <time>2020-06-14T18:49:26Z</time>
      </trkpt>
      <trkpt lat="49.63587" lon="-1.63523">
        <ele>51.5</ele>
        <time>2020-06-14T18:49:27Z</time>
      </trkpt>
      <trkpt lat="49.63589" lon="-1.63529">
        <ele>51.8</ele>
        <time>2020-06-14T18:49:28Z</time>
      </trkpt>
      <trkpt lat="49.6359" lon="-1.63536">
        <ele>52</ele>
        <time>2020-06-14T18:49:29Z</time>
      </trkpt>
      <trkpt lat="49.63591" lon="-1.63538">
        <ele>52.1</ele>
        <time>2020-06-14T18:49:30Z</time>
      </trkpt>
      <trkpt lat="49.63594" lon="-1.63544">
        <ele>52.3</ele>
        <time>2020-06-14T18:49:31Z</time>
      </trkpt>
      <trkpt lat="49.63595" lon="-1.63546">
        <ele>52.3</ele>
        <time>2020-06-14T18:49:32Z</time>
      </trkpt>
      <trkpt lat="49.63596" lon="-1.63551">
        <ele>52.5</ele>
        <time>2020-06-14T18:49:33Z</time>
      </trkpt>
      <trkpt lat="49.63599" lon="-1.63557">
        <ele>52.7</ele>
        <time>2020-06-14T18:49:34Z</time>
      </trkpt>
      <trkpt lat="49.636" lon="-1.63561">
        <ele>52.8</ele>
        <time>2020-06-14T18:49:35Z</time>
      </trkpt>
      <trkpt lat="49.63602" lon="-1.63566">
        <ele>53</ele>
        <time>2020-06-14T18:49:36Z</time>
      </trkpt>
      <trkpt lat="49.63604" lon="-1.63571">
        <ele>53.2</ele>
        <time>2020-06-14T18:49:37Z</time>
      </trkpt>
      <trkpt lat="49.63605" lon="-1.63577">
        <ele>53.3</ele>
        <time>2020-06-14T18:49:38Z</time>
      </trkpt>
      <trkpt lat="49.63607" lon="-1.63582">
        <ele>53.5</ele>
        <time>2020-06-14T18:49:39Z</time>
      </trkpt>
      <trkpt lat="49.63608" lon="-1.63587">
        <ele>53.6</ele>
        <time>2020-06-14T18:49:40Z</time>
      </trkpt>
      <trkpt lat="49.6361" lon="-1.63593">
        <ele>53.8</ele>
        <time>2020-06-14T18:49:41Z</time>
      </trkpt>
      <trkpt lat="49.63612" lon="-1.63599">
        <ele>53.9</ele>
        <time>2020-06-14T18:49:42Z</time>
      </trkpt>
      <trkpt lat="49.63614" lon="-1.63602">
        <ele>54.1</ele>
        <time>2020-06-14T18:49:43Z</time>
      </trkpt>
      <trkpt lat="49.63616" lon="-1.63608">
        <ele>54.2</ele>
        <time>2020-06-14T18:49:44Z</time>
      </trkpt>
      <trkpt lat="49.63618" lon="-1.63612">
        <ele>54.4</ele>
        <time>2020-06-14T18:49:45Z</time>
      </trkpt>
      <trkpt lat="49.63619" lon="-1.63617">
        <ele>54.5</ele>
        <time>2020-06-14T18:49:46Z</time>
      </trkpt>
      <trkpt lat="49.63621" lon="-1.63622">
        <ele>54.6</ele>
        <time>2020-06-14T18:49:47Z</time>
      </trkpt>
      <trkpt lat="49.63623" lon="-1.63627">
        <ele>54.7</ele>
        <time>2020-06-14T18:49:48Z</time>
      </trkpt>
      <trkpt lat="49.63625" lon="-1.63634">
        <ele>54.9</ele>
        <time>2020-06-14T18:49:49Z</time>
      </trkpt>
      <trkpt lat="49.63626" lon="-1.63639">
        <ele>55</ele>
        <time>2020-06-14T18:49:50Z</time>
      </trkpt>
      <trkpt lat="49.63627" lon="-1.63647">
        <ele>55.1</ele>
        <time>2020-06-14T18:49:51Z</time>
      </trkpt>
      <trkpt lat="49.63627" lon="-1.63652">
        <ele>55.2</ele>
        <time>2020-06-14T18:49:52Z</time>
      </trkpt>
      <trkpt lat="49.63627" lon="-1.63657">
        <ele>55.2</ele>
        <time>2020-06-14T18:49:53Z</time>
      </trkpt>
      <trkpt lat="49.63627" lon="-1.63663">
        <ele>55.3</ele>
        <time>2020-06-14T18:49:54Z</time>
      </trkpt>
      <trkpt lat="49.63627" lon="-1.63669">
        <ele>55.3</ele>
        <time>2020-06-14T18:49:55Z</time>
      </trkpt>
      <trkpt lat="49.63626" lon="-1.63674">
        <ele>55.3</ele>
        <time>2020-06-14T18:49:56Z</time>
      </trkpt>
      <trkpt lat="49.63623" lon="-1.63678">
        <ele>55.3</ele>
        <time>2020-06-14T18:49:57Z</time>
      </trkpt>
      <trkpt lat="49.63621" lon="-1.63682">
        <ele>55.3</ele>
        <time>2020-06-14T18:49:58Z</time>
      </trkpt>
      <trkpt lat="49.6362" lon="-1.63688">
        <ele>55</ele>
        <time>2020-06-14T18:49:59Z</time>
      </trkpt>
      <trkpt lat="49.63619" lon="-1.63691">
        <ele>54.9</ele>
        <time>2020-06-14T18:50:00Z</time>
      </trkpt>
      <trkpt lat="49.63619" lon="-1.63698">
        <ele>54.6</ele>
        <time>2020-06-14T18:50:01Z</time>
      </trkpt>
      <trkpt lat="49.6362" lon="-1.63704">
        <ele>54.1</ele>
        <time>2020-06-14T18:50:02Z</time>
      </trkpt>
      <trkpt lat="49.63622" lon="-1.63713">
        <ele>53.8</ele>
        <time>2020-06-14T18:50:03Z</time>
      </trkpt>
      <trkpt lat="49.63624" lon="-1.63719">
        <ele>53.6</ele>
        <time>2020-06-14T18:50:04Z</time>
      </trkpt>
      <trkpt lat="49.63626" lon="-1.63724">
        <ele>53.2</ele>
        <time>2020-06-14T18:50:05Z</time>
      </trkpt>
      <trkpt lat="49.63632" lon="-1.63727">
        <ele>52.5</ele>
        <time>2020-06-14T18:50:06Z</time>
      </trkpt>
      <trkpt lat="49.63638" lon="-1.63725">
        <ele>51.8</ele>
        <time>2020-06-14T18:50:07Z</time>
      </trkpt>
      <trkpt lat="49.63644" lon="-1.63724">
        <ele>51.1</ele>
        <time>2020-06-14T18:50:08Z</time>
      </trkpt>
      <trkpt lat="49.63651" lon="-1.63724">
        <ele>50.3</ele>
        <time>2020-06-14T18:50:09Z</time>
      </trkpt>
      <trkpt lat="49.63658" lon="-1.63726">
        <ele>49.5</ele>
        <time>2020-06-14T18:50:10Z</time>
      </trkpt>
      <trkpt lat="49.63665" lon="-1.6373">
        <ele>48.7</ele>
        <time>2020-06-14T18:50:11Z</time>
      </trkpt>
      <trkpt lat="49.63672" lon="-1.63736">
        <ele>47.8</ele>
        <time>2020-06-14T18:50:12Z</time>
      </trkpt>
      <trkpt lat="49.63681" lon="-1.63742">
        <ele>46.7</ele>
        <time>2020-06-14T18:50:13Z</time>
      </trkpt>
      <trkpt lat="49.63689" lon="-1.63749">
        <ele>45.7</ele>
        <time>2020-06-14T18:50:14Z</time>
      </trkpt>
      <trkpt lat="49.63698" lon="-1.63755">
        <ele>44.6</ele>
        <time>2020-06-14T18:50:15Z</time>
      </trkpt>
      <trkpt lat="49.63706" lon="-1.63763">
        <ele>43.6</ele>
        <time>2020-06-14T18:50:16Z</time>
      </trkpt>
      <trkpt lat="49.63715" lon="-1.63771">
        <ele>42.5</ele>
        <time>2020-06-14T18:50:17Z</time>
      </trkpt>
      <trkpt lat="49.63724" lon="-1.63779">
        <ele>41.4</ele>
        <time>2020-06-14T18:50:18Z</time>
      </trkpt>
      <trkpt lat="49.63733" lon="-1.63786">
        <ele>40.4</ele>
        <time>2020-06-14T18:50:19Z</time>
      </trkpt>
      <trkpt lat="49.63742" lon="-1.63793">
        <ele>39.3</ele>
        <time>2020-06-14T18:50:20Z</time>
      </trkpt>
      <trkpt lat="49.6375" lon="-1.63801">
        <ele>38.3</ele>
        <time>2020-06-14T18:50:21Z</time>
      </trkpt>
      <trkpt lat="49.63756" lon="-1.63808">
        <ele>37.4</ele>
        <time>2020-06-14T18:50:22Z</time>
      </trkpt>
      <trkpt lat="49.63762" lon="-1.63816">
        <ele>36.5</ele>
        <time>2020-06-14T18:50:23Z</time>
      </trkpt>
      <trkpt lat="49.63768" lon="-1.63823">
        <ele>35.7</ele>
        <time>2020-06-14T18:50:24Z</time>
      </trkpt>
      <trkpt lat="49.63774" lon="-1.6383">
        <ele>34.8</ele>
        <time>2020-06-14T18:50:25Z</time>
      </trkpt>
      <trkpt lat="49.63782" lon="-1.63834">
        <ele>33.8</ele>
        <time>2020-06-14T18:50:26Z</time>
      </trkpt>
      <trkpt lat="49.6379" lon="-1.63837">
        <ele>32.7</ele>
        <time>2020-06-14T18:50:27Z</time>
      </trkpt>
      <trkpt lat="49.63799" lon="-1.63837">
        <ele>31.7</ele>
        <time>2020-06-14T18:50:28Z</time>
      </trkpt>
      <trkpt lat="49.63807" lon="-1.63837">
        <ele>30.7</ele>
        <time>2020-06-14T18:50:29Z</time>
      </trkpt>
      <trkpt lat="49.63816" lon="-1.63835">
        <ele>29.8</ele>
        <time>2020-06-14T18:50:30Z</time>
      </trkpt>
      <trkpt lat="49.63824" lon="-1.63832">
        <ele>28.9</ele>
        <time>2020-06-14T18:50:31Z</time>
      </trkpt>
      <trkpt lat="49.63831" lon="-1.63828">
        <ele>28</ele>
        <time>2020-06-14T18:50:32Z</time>
      </trkpt>
      <trkpt lat="49.63838" lon="-1.63822">
        <ele>27.1</ele>
        <time>2020-06-14T18:50:33Z</time>
      </trkpt>
      <trkpt lat="49.63845" lon="-1.63815">
        <ele>26.2</ele>
        <time>2020-06-14T18:50:34Z</time>
      </trkpt>
      <trkpt lat="49.63853" lon="-1.63808">
        <ele>25.3</ele>
        <time>2020-06-14T18:50:35Z</time>
      </trkpt>
      <trkpt lat="49.63861" lon="-1.63801">
        <ele>24.4</ele>
        <time>2020-06-14T18:50:36Z</time>
      </trkpt>
      <trkpt lat="49.63868" lon="-1.63794">
        <ele>23.5</ele>
        <time>2020-06-14T18:50:37Z</time>
      </trkpt>
      <trkpt lat="49.63875" lon="-1.63788">
        <ele>22.7</ele>
        <time>2020-06-14T18:50:38Z</time>
      </trkpt>
      <trkpt lat="49.63881" lon="-1.63785">
        <ele>22</ele>
        <time>2020-06-14T18:50:39Z</time>
      </trkpt>
      <trkpt lat="49.63887" lon="-1.63783">
        <ele>21.4</ele>
        <time>2020-06-14T18:50:40Z</time>
      </trkpt>
      <trkpt lat="49.63893" lon="-1.63782">
        <ele>20.8</ele>
        <time>2020-06-14T18:50:41Z</time>
      </trkpt>
      <trkpt lat="49.63898" lon="-1.63783">
        <ele>20.4</ele>
        <time>2020-06-14T18:50:42Z</time>
      </trkpt>
      <trkpt lat="49.63903" lon="-1.63784">
        <ele>20</ele>
        <time>2020-06-14T18:50:43Z</time>
      </trkpt>
      <trkpt lat="49.63907" lon="-1.63784">
        <ele>19.7</ele>
        <time>2020-06-14T18:50:44Z</time>
      </trkpt>
      <trkpt lat="49.63912" lon="-1.63784">
        <ele>19.3</ele>
        <time>2020-06-14T18:50:45Z</time>
      </trkpt>
      <trkpt lat="49.63915" lon="-1.63779">
        <ele>19.1</ele>
        <time>2020-06-14T18:50:46Z</time>
      </trkpt>
      <trkpt lat="49.63919" lon="-1.63773">
        <ele>19</ele>
        <time>2020-06-14T18:50:47Z</time>
      </trkpt>
      <trkpt lat="49.63922" lon="-1.63767">
        <ele>18.8</ele>
        <time>2020-06-14T18:50:48Z</time>
      </trkpt>
      <trkpt lat="49.63924" lon="-1.6376">
        <ele>18.6</ele>
        <time>2020-06-14T18:50:49Z</time>
      </trkpt>
      <trkpt lat="49.63925" lon="-1.63753">
        <ele>18.4</ele>
        <time>2020-06-14T18:50:50Z</time>
      </trkpt>
      <trkpt lat="49.63927" lon="-1.63745">
        <ele>18.2</ele>
        <time>2020-06-14T18:50:51Z</time>
      </trkpt>
      <trkpt lat="49.63929" lon="-1.63739">
        <ele>18</ele>
        <time>2020-06-14T18:50:52Z</time>
      </trkpt>
      <trkpt lat="49.6393" lon="-1.63733">
        <ele>17.8</ele>
        <time>2020-06-14T18:50:53Z</time>
      </trkpt>
      <trkpt lat="49.63931" lon="-1.63729">
        <ele>17.7</ele>
        <time>2020-06-14T18:50:54Z</time>
      </trkpt>
      <trkpt lat="49.63932" lon="-1.63724">
        <ele>17.6</ele>
        <time>2020-06-14T18:50:55Z</time>
      </trkpt>
      <trkpt lat="49.63933" lon="-1.6372">
        <ele>17.5</ele>
        <time>2020-06-14T18:50:56Z</time>
      </trkpt>
      <trkpt lat="49.63935" lon="-1.63716">
        <ele>17.4</ele>
        <time>2020-06-14T18:50:57Z</time>
      </trkpt>
      <trkpt lat="49.63936" lon="-1.63712">
        <ele>17.3</ele>
        <time>2020-06-14T18:50:58Z</time>
      </trkpt>
      <trkpt lat="49.63936" lon="-1.63706">
        <ele>17.2</ele>
        <time>2020-06-14T18:50:59Z</time>
      </trkpt>
      <trkpt lat="49.63937" lon="-1.63701">
        <ele>17.1</ele>
        <time>2020-06-14T18:51:00Z</time>
      </trkpt>
      <trkpt lat="49.63937" lon="-1.63697">
        <ele>17</ele>
        <time>2020-06-14T18:51:01Z</time>
      </trkpt>
      <trkpt lat="49.63938" lon="-1.63692">
        <ele>16.9</ele>
        <time>2020-06-14T18:51:02Z</time>
      </trkpt>
      <trkpt lat="49.63938" lon="-1.63687">
        <ele>16.9</ele>
        <time>2020-06-14T18:51:03Z</time>
      </trkpt>
      <trkpt lat="49.63939" lon="-1.63682">
        <ele>16.8</ele>
        <time>2020-06-14T18:51:04Z</time>
      </trkpt>
      <trkpt lat="49.63939" lon="-1.63677">
        <ele>16.8</ele>
        <time>2020-06-14T18:51:05Z</time>
      </trkpt>
      <trkpt lat="49.63939" lon="-1.63672">
        <ele>16.8</ele>
        <time>2020-06-14T18:51:06Z</time>
      </trkpt>
      <trkpt lat="49.63938" lon="-1.63669">
        <ele>16.7</ele>
        <time>2020-06-14T18:51:07Z</time>
      </trkpt>
      <trkpt lat="49.63938" lon="-1.63667">
        <ele>16.7</ele>
        <time>2020-06-14T18:51:08Z</time>
      </trkpt>
      <trkpt lat="49.63938" lon="-1.63666">
        <ele>16.7</ele>
        <time>2020-06-14T18:51:09Z</time>
      </trkpt>
      <trkpt lat="49.63938" lon="-1.63665">
        <ele>16.7</ele>
        <time>2020-06-14T18:51:10Z</time>
      </trkpt>
      <trkpt lat="49.63938" lon="-1.63665">
        <ele>16.7</ele>
        <time>2020-06-14T18:51:11Z</time>
      </trkpt>
      <trkpt lat="49.63938" lon="-1.63665">
        <ele>16.7</ele>
        <time>2020-06-14T18:51:12Z</time>
      </trkpt>
      <trkpt lat="49.63938" lon="-1.63665">
        <ele>16.7</ele>
        <time>2020-06-14T18:51:13Z</time>
      </trkpt>
      <trkpt lat="49.63939" lon="-1.63664">
        <ele>16.6</ele>
        <time>2020-06-14T18:51:14Z</time>
      </trkpt>
      <trkpt lat="49.63939" lon="-1.63664">
        <ele>16.6</ele>
        <time>2020-06-14T18:51:15Z</time>
      </trkpt>
      <trkpt lat="49.63939" lon="-1.63663">
        <ele>16.6</ele>
        <time>2020-06-14T18:51:16Z</time>
      </trkpt>
      <trkpt lat="49.63939" lon="-1.63663">
        <ele>16.6</ele>
        <time>2020-06-14T18:51:17Z</time>
      </trkpt>
      <trkpt lat="49.63939" lon="-1.63663">
        <ele>16.6</ele>
        <time>2020-06-14T18:51:18Z</time>
      </trkpt>
      <trkpt lat="49.63938" lon="-1.63662">
        <ele>16.6</ele>
        <time>2020-06-14T18:51:19Z</time>
      </trkpt>
      <trkpt lat="49.63938" lon="-1.63662">
        <ele>16.6</ele>
        <time>2020-06-14T18:51:20Z</time>
      </trkpt>
      <trkpt lat="49.63938" lon="-1.63662">
        <ele>16.6</ele>
        <time>2020-06-14T18:51:21Z</time>
      </trkpt>
      <trkpt lat="49.63938" lon="-1.63662">
        <ele>16.6</ele>
        <time>2020-06-14T18:51:22Z</time>
      </trkpt>
    </trkseg>
  </trk>
</gpx>